<?xml version="1.0" encoding="UTF-8" standalone="no" ?>
<gpx xmlns="http://www.topografix.com/GPX/1/1" xmlns:xsi="http://www.w3.org/2001/XMLSchema-instance" xsi:schemaLocation="http://www.topografix.com/GPX/1/1 http://www.topografix.com/GPX/1/1/gpx.xsd" version="1.1" creator="VisuGPX - https://www.visugpx.com">
  <metadata>
    <name>Aquatique panique</name>
    <desc><![CDATA[sortie sous l'eau à l'ouest de montbeliard]]></desc>
  </metadata>
  <wpt lat="47.49133" lon="6.76648">
    <ele>361.7</ele>
    <name><![CDATA[Point de cheminement 1]]></name>
    <desc><![CDATA[]]></desc>
  </wpt>
  <wpt lat="47.47343" lon="6.7423">
    <ele>358</ele>
    <name><![CDATA[Point de cheminement 2]]></name>
    <desc><![CDATA[]]></desc>
  </wpt>
  <wpt lat="47.45143" lon="6.71824">
    <ele>511.6</ele>
    <name><![CDATA[Point de cheminement 3]]></name>
    <desc><![CDATA[]]></desc>
  </wpt>
  <wpt lat="47.45495" lon="6.71067">
    <ele>412.2</ele>
    <name><![CDATA[Point de cheminement 4]]></name>
    <desc><![CDATA[]]></desc>
  </wpt>
  <wpt lat="47.44938" lon="6.74469">
    <ele>404.6</ele>
    <name><![CDATA[Point de cheminement 5]]></name>
    <desc><![CDATA[]]></desc>
  </wpt>
  <wpt lat="47.48316" lon="6.7689">
    <ele>359.7</ele>
    <name><![CDATA[Point de cheminement 6]]></name>
    <desc><![CDATA[]]></desc>
  </wpt>
  <trk>
    <name><![CDATA[18 Rue Antoine Coysevox]]></name>
    <desc><![CDATA[]]></desc>
    <trkseg>
      <trkpt lat="47.51754" lon="6.77428">
        <ele>367.6</ele>
        <time>2017-05-14T06:46:55.178Z</time>
      </trkpt>
      <trkpt lat="47.51766" lon="6.7743">
        <ele>381.6</ele>
        <time>2017-05-14T06:46:56.178Z</time>
      </trkpt>
      <trkpt lat="47.51771" lon="6.7744">
        <ele>384.7</ele>
        <time>2017-05-14T06:46:57.178Z</time>
      </trkpt>
      <trkpt lat="47.51781" lon="6.77448">
        <ele>398.7</ele>
        <time>2017-05-14T06:46:58.178Z</time>
      </trkpt>
      <trkpt lat="47.51807" lon="6.7747">
        <ele>408.9</ele>
        <time>2017-05-14T06:46:59.178Z</time>
      </trkpt>
      <trkpt lat="47.51807" lon="6.77473">
        <ele>426.9</ele>
        <time>2017-05-14T06:47:37.999Z</time>
      </trkpt>
      <trkpt lat="47.51799" lon="6.77473">
        <ele>426.9</ele>
        <time>2017-05-14T06:47:38.999Z</time>
      </trkpt>
      <trkpt lat="47.51799" lon="6.77473">
        <ele>430.5</ele>
        <time>2017-05-14T06:49:34.999Z</time>
      </trkpt>
      <trkpt lat="47.5181" lon="6.77485">
        <ele>430.8</ele>
        <time>2017-05-14T06:49:35.999Z</time>
      </trkpt>
      <trkpt lat="47.5181" lon="6.77485">
        <ele>434.8</ele>
        <time>2017-05-14T06:50:29.999Z</time>
      </trkpt>
      <trkpt lat="47.51811" lon="6.77495">
        <ele>435</ele>
        <time>2017-05-14T06:50:30.999Z</time>
      </trkpt>
      <trkpt lat="47.51811" lon="6.77495">
        <ele>435.7</ele>
        <time>2017-05-14T06:50:34.999Z</time>
      </trkpt>
      <trkpt lat="47.51802" lon="6.77497">
        <ele>435.9</ele>
        <time>2017-05-14T06:50:35.999Z</time>
      </trkpt>
      <trkpt lat="47.51796" lon="6.77493">
        <ele>436.2</ele>
        <time>2017-05-14T06:50:36.999Z</time>
      </trkpt>
      <trkpt lat="47.51793" lon="6.77491">
        <ele>436.4</ele>
        <time>2017-05-14T06:50:37.999Z</time>
      </trkpt>
      <trkpt lat="47.5179" lon="6.7749">
        <ele>436.6</ele>
        <time>2017-05-14T06:50:38.999Z</time>
      </trkpt>
      <trkpt lat="47.51787" lon="6.77489">
        <ele>436.8</ele>
        <time>2017-05-14T06:50:39.999Z</time>
      </trkpt>
      <trkpt lat="47.51785" lon="6.77488">
        <ele>437</ele>
        <time>2017-05-14T06:50:40.999Z</time>
      </trkpt>
      <trkpt lat="47.51781" lon="6.77486">
        <ele>437.2</ele>
        <time>2017-05-14T06:50:41.999Z</time>
      </trkpt>
      <trkpt lat="47.51776" lon="6.77482">
        <ele>437.3</ele>
        <time>2017-05-14T06:50:42.999Z</time>
      </trkpt>
      <trkpt lat="47.51773" lon="6.7748">
        <ele>437.5</ele>
        <time>2017-05-14T06:50:43.999Z</time>
      </trkpt>
      <trkpt lat="47.51771" lon="6.7748">
        <ele>437.7</ele>
        <time>2017-05-14T06:50:44.999Z</time>
      </trkpt>
      <trkpt lat="47.51769" lon="6.77479">
        <ele>437.9</ele>
        <time>2017-05-14T06:50:45.999Z</time>
      </trkpt>
      <trkpt lat="47.51766" lon="6.77479">
        <ele>438.1</ele>
        <time>2017-05-14T06:50:46.999Z</time>
      </trkpt>
      <trkpt lat="47.51761" lon="6.77481">
        <ele>438.5</ele>
        <time>2017-05-14T06:50:48.999Z</time>
      </trkpt>
      <trkpt lat="47.51759" lon="6.7748">
        <ele>438.7</ele>
        <time>2017-05-14T06:50:49.999Z</time>
      </trkpt>
      <trkpt lat="47.51755" lon="6.7748">
        <ele>438.8</ele>
        <time>2017-05-14T06:50:50.999Z</time>
      </trkpt>
      <trkpt lat="47.51752" lon="6.77479">
        <ele>440.1</ele>
        <time>2017-05-14T06:50:51.999Z</time>
      </trkpt>
      <trkpt lat="47.51748" lon="6.77478">
        <ele>440.2</ele>
        <time>2017-05-14T06:50:52.999Z</time>
      </trkpt>
      <trkpt lat="47.51744" lon="6.77478">
        <ele>441.2</ele>
        <time>2017-05-14T06:50:53.999Z</time>
      </trkpt>
      <trkpt lat="47.51741" lon="6.77478">
        <ele>441.7</ele>
        <time>2017-05-14T06:50:54.999Z</time>
      </trkpt>
      <trkpt lat="47.51738" lon="6.77478">
        <ele>442.7</ele>
        <time>2017-05-14T06:50:55.999Z</time>
      </trkpt>
      <trkpt lat="47.51736" lon="6.77482">
        <ele>443.7</ele>
        <time>2017-05-14T06:50:56.999Z</time>
      </trkpt>
      <trkpt lat="47.51735" lon="6.77487">
        <ele>443.8</ele>
        <time>2017-05-14T06:50:57.999Z</time>
      </trkpt>
      <trkpt lat="47.51732" lon="6.77492">
        <ele>445</ele>
        <time>2017-05-14T06:50:58.999Z</time>
      </trkpt>
      <trkpt lat="47.5173" lon="6.77496">
        <ele>445.9</ele>
        <time>2017-05-14T06:50:59.999Z</time>
      </trkpt>
      <trkpt lat="47.51729" lon="6.77501">
        <ele>446.6</ele>
        <time>2017-05-14T06:51:00.999Z</time>
      </trkpt>
      <trkpt lat="47.51729" lon="6.77506">
        <ele>446.9</ele>
        <time>2017-05-14T06:51:01.999Z</time>
      </trkpt>
      <trkpt lat="47.51727" lon="6.77512">
        <ele>447.4</ele>
        <time>2017-05-14T06:51:02.999Z</time>
      </trkpt>
      <trkpt lat="47.51726" lon="6.77517">
        <ele>447.5</ele>
        <time>2017-05-14T06:51:03.999Z</time>
      </trkpt>
      <trkpt lat="47.51725" lon="6.77523">
        <ele>447.6</ele>
        <time>2017-05-14T06:51:04.999Z</time>
      </trkpt>
      <trkpt lat="47.51723" lon="6.77528">
        <ele>447.7</ele>
        <time>2017-05-14T06:51:05.999Z</time>
      </trkpt>
      <trkpt lat="47.51722" lon="6.77534">
        <ele>447.7</ele>
        <time>2017-05-14T06:51:06.999Z</time>
      </trkpt>
      <trkpt lat="47.5172" lon="6.77539">
        <ele>447.7</ele>
        <time>2017-05-14T06:51:07.999Z</time>
      </trkpt>
      <trkpt lat="47.51718" lon="6.77544">
        <ele>447.8</ele>
        <time>2017-05-14T06:51:08.999Z</time>
      </trkpt>
      <trkpt lat="47.51715" lon="6.77546">
        <ele>447.5</ele>
        <time>2017-05-14T06:51:09.999Z</time>
      </trkpt>
      <trkpt lat="47.51711" lon="6.77548">
        <ele>447.2</ele>
        <time>2017-05-14T06:51:10.999Z</time>
      </trkpt>
      <trkpt lat="47.51707" lon="6.77548">
        <ele>447.1</ele>
        <time>2017-05-14T06:51:11.999Z</time>
      </trkpt>
      <trkpt lat="47.51704" lon="6.77546">
        <ele>447</ele>
        <time>2017-05-14T06:51:12.999Z</time>
      </trkpt>
      <trkpt lat="47.51701" lon="6.77544">
        <ele>446.9</ele>
        <time>2017-05-14T06:51:13.999Z</time>
      </trkpt>
      <trkpt lat="47.51697" lon="6.7754">
        <ele>446.8</ele>
        <time>2017-05-14T06:51:14.999Z</time>
      </trkpt>
      <trkpt lat="47.51693" lon="6.77535">
        <ele>445.9</ele>
        <time>2017-05-14T06:51:15.999Z</time>
      </trkpt>
      <trkpt lat="47.51689" lon="6.77531">
        <ele>444.5</ele>
        <time>2017-05-14T06:51:16.999Z</time>
      </trkpt>
      <trkpt lat="47.51685" lon="6.77526">
        <ele>443.2</ele>
        <time>2017-05-14T06:51:17.999Z</time>
      </trkpt>
      <trkpt lat="47.51681" lon="6.77523">
        <ele>442.5</ele>
        <time>2017-05-14T06:51:18.999Z</time>
      </trkpt>
      <trkpt lat="47.51677" lon="6.77519">
        <ele>441.5</ele>
        <time>2017-05-14T06:51:19.999Z</time>
      </trkpt>
      <trkpt lat="47.51673" lon="6.77515">
        <ele>440.3</ele>
        <time>2017-05-14T06:51:20.999Z</time>
      </trkpt>
      <trkpt lat="47.51669" lon="6.77511">
        <ele>439.4</ele>
        <time>2017-05-14T06:51:21.999Z</time>
      </trkpt>
      <trkpt lat="47.51665" lon="6.77507">
        <ele>438.6</ele>
        <time>2017-05-14T06:51:22.999Z</time>
      </trkpt>
      <trkpt lat="47.51661" lon="6.77502">
        <ele>438.2</ele>
        <time>2017-05-14T06:51:23.999Z</time>
      </trkpt>
      <trkpt lat="47.51657" lon="6.77497">
        <ele>438</ele>
        <time>2017-05-14T06:51:24.999Z</time>
      </trkpt>
      <trkpt lat="47.51652" lon="6.77492">
        <ele>438.2</ele>
        <time>2017-05-14T06:51:25.999Z</time>
      </trkpt>
      <trkpt lat="47.51648" lon="6.77487">
        <ele>437.9</ele>
        <time>2017-05-14T06:51:26.999Z</time>
      </trkpt>
      <trkpt lat="47.51643" lon="6.77483">
        <ele>437.8</ele>
        <time>2017-05-14T06:51:27.999Z</time>
      </trkpt>
      <trkpt lat="47.51638" lon="6.77476">
        <ele>437.5</ele>
        <time>2017-05-14T06:51:28.999Z</time>
      </trkpt>
      <trkpt lat="47.51633" lon="6.7747">
        <ele>437.4</ele>
        <time>2017-05-14T06:51:29.999Z</time>
      </trkpt>
      <trkpt lat="47.51628" lon="6.77463">
        <ele>437.2</ele>
        <time>2017-05-14T06:51:30.999Z</time>
      </trkpt>
      <trkpt lat="47.51623" lon="6.77457">
        <ele>436.7</ele>
        <time>2017-05-14T06:51:31.999Z</time>
      </trkpt>
      <trkpt lat="47.51618" lon="6.77451">
        <ele>437.2</ele>
        <time>2017-05-14T06:51:32.999Z</time>
      </trkpt>
      <trkpt lat="47.51613" lon="6.77445">
        <ele>438</ele>
        <time>2017-05-14T06:51:33.999Z</time>
      </trkpt>
      <trkpt lat="47.51608" lon="6.77438">
        <ele>438.5</ele>
        <time>2017-05-14T06:51:34.999Z</time>
      </trkpt>
      <trkpt lat="47.51603" lon="6.77431">
        <ele>438.7</ele>
        <time>2017-05-14T06:51:35.999Z</time>
      </trkpt>
      <trkpt lat="47.51598" lon="6.77425">
        <ele>438.9</ele>
        <time>2017-05-14T06:51:36.999Z</time>
      </trkpt>
      <trkpt lat="47.51593" lon="6.77418">
        <ele>439</ele>
        <time>2017-05-14T06:51:37.999Z</time>
      </trkpt>
      <trkpt lat="47.51588" lon="6.77412">
        <ele>438.8</ele>
        <time>2017-05-14T06:51:38.999Z</time>
      </trkpt>
      <trkpt lat="47.51582" lon="6.77405">
        <ele>438.7</ele>
        <time>2017-05-14T06:51:39.999Z</time>
      </trkpt>
      <trkpt lat="47.51577" lon="6.77399">
        <ele>438.8</ele>
        <time>2017-05-14T06:51:40.999Z</time>
      </trkpt>
      <trkpt lat="47.51571" lon="6.77392">
        <ele>438.6</ele>
        <time>2017-05-14T06:51:41.999Z</time>
      </trkpt>
      <trkpt lat="47.51565" lon="6.77385">
        <ele>438.3</ele>
        <time>2017-05-14T06:51:42.999Z</time>
      </trkpt>
      <trkpt lat="47.5156" lon="6.77378">
        <ele>437.9</ele>
        <time>2017-05-14T06:51:43.999Z</time>
      </trkpt>
      <trkpt lat="47.51553" lon="6.77371">
        <ele>437.9</ele>
        <time>2017-05-14T06:51:44.999Z</time>
      </trkpt>
      <trkpt lat="47.51547" lon="6.77365">
        <ele>437.8</ele>
        <time>2017-05-14T06:51:45.999Z</time>
      </trkpt>
      <trkpt lat="47.51541" lon="6.77358">
        <ele>437.1</ele>
        <time>2017-05-14T06:51:46.999Z</time>
      </trkpt>
      <trkpt lat="47.51535" lon="6.7735">
        <ele>436.3</ele>
        <time>2017-05-14T06:51:47.999Z</time>
      </trkpt>
      <trkpt lat="47.51529" lon="6.77342">
        <ele>435.9</ele>
        <time>2017-05-14T06:51:48.999Z</time>
      </trkpt>
      <trkpt lat="47.51522" lon="6.77335">
        <ele>435.2</ele>
        <time>2017-05-14T06:51:49.999Z</time>
      </trkpt>
      <trkpt lat="47.51516" lon="6.77327">
        <ele>434.5</ele>
        <time>2017-05-14T06:51:50.999Z</time>
      </trkpt>
      <trkpt lat="47.5151" lon="6.7732">
        <ele>433.7</ele>
        <time>2017-05-14T06:51:51.999Z</time>
      </trkpt>
      <trkpt lat="47.51504" lon="6.77312">
        <ele>433.1</ele>
        <time>2017-05-14T06:51:52.999Z</time>
      </trkpt>
      <trkpt lat="47.51499" lon="6.77302">
        <ele>432.5</ele>
        <time>2017-05-14T06:51:53.999Z</time>
      </trkpt>
      <trkpt lat="47.51494" lon="6.7729">
        <ele>431.8</ele>
        <time>2017-05-14T06:51:54.999Z</time>
      </trkpt>
      <trkpt lat="47.5149" lon="6.7728">
        <ele>431.3</ele>
        <time>2017-05-14T06:51:55.999Z</time>
      </trkpt>
      <trkpt lat="47.51489" lon="6.77269">
        <ele>430.4</ele>
        <time>2017-05-14T06:51:56.999Z</time>
      </trkpt>
      <trkpt lat="47.51488" lon="6.77258">
        <ele>429.5</ele>
        <time>2017-05-14T06:51:57.999Z</time>
      </trkpt>
      <trkpt lat="47.51487" lon="6.77249">
        <ele>429</ele>
        <time>2017-05-14T06:51:58.999Z</time>
      </trkpt>
      <trkpt lat="47.51486" lon="6.77239">
        <ele>428.5</ele>
        <time>2017-05-14T06:51:59.999Z</time>
      </trkpt>
      <trkpt lat="47.51486" lon="6.7723">
        <ele>427.3</ele>
        <time>2017-05-14T06:52:00.999Z</time>
      </trkpt>
      <trkpt lat="47.51486" lon="6.7722">
        <ele>426.7</ele>
        <time>2017-05-14T06:52:01.999Z</time>
      </trkpt>
      <trkpt lat="47.51483" lon="6.77212">
        <ele>426.2</ele>
        <time>2017-05-14T06:52:02.999Z</time>
      </trkpt>
      <trkpt lat="47.51478" lon="6.77206">
        <ele>425.3</ele>
        <time>2017-05-14T06:52:03.999Z</time>
      </trkpt>
      <trkpt lat="47.51471" lon="6.77204">
        <ele>424.4</ele>
        <time>2017-05-14T06:52:04.999Z</time>
      </trkpt>
      <trkpt lat="47.51466" lon="6.77204">
        <ele>424.2</ele>
        <time>2017-05-14T06:52:05.999Z</time>
      </trkpt>
      <trkpt lat="47.5146" lon="6.77205">
        <ele>423.7</ele>
        <time>2017-05-14T06:52:06.999Z</time>
      </trkpt>
      <trkpt lat="47.51454" lon="6.77207">
        <ele>423.1</ele>
        <time>2017-05-14T06:52:07.999Z</time>
      </trkpt>
      <trkpt lat="47.51447" lon="6.7721">
        <ele>422.4</ele>
        <time>2017-05-14T06:52:08.999Z</time>
      </trkpt>
      <trkpt lat="47.5144" lon="6.77213">
        <ele>421.9</ele>
        <time>2017-05-14T06:52:09.999Z</time>
      </trkpt>
      <trkpt lat="47.51433" lon="6.77216">
        <ele>421.3</ele>
        <time>2017-05-14T06:52:10.999Z</time>
      </trkpt>
      <trkpt lat="47.51425" lon="6.7722">
        <ele>420.9</ele>
        <time>2017-05-14T06:52:11.999Z</time>
      </trkpt>
      <trkpt lat="47.51418" lon="6.77222">
        <ele>420.4</ele>
        <time>2017-05-14T06:52:12.999Z</time>
      </trkpt>
      <trkpt lat="47.51412" lon="6.77225">
        <ele>419.6</ele>
        <time>2017-05-14T06:52:13.999Z</time>
      </trkpt>
      <trkpt lat="47.51407" lon="6.77228">
        <ele>419.3</ele>
        <time>2017-05-14T06:52:14.999Z</time>
      </trkpt>
      <trkpt lat="47.51402" lon="6.77231">
        <ele>419</ele>
        <time>2017-05-14T06:52:15.999Z</time>
      </trkpt>
      <trkpt lat="47.51396" lon="6.77233">
        <ele>418.7</ele>
        <time>2017-05-14T06:52:16.999Z</time>
      </trkpt>
      <trkpt lat="47.51392" lon="6.77235">
        <ele>418</ele>
        <time>2017-05-14T06:52:17.999Z</time>
      </trkpt>
      <trkpt lat="47.51388" lon="6.77238">
        <ele>417.7</ele>
        <time>2017-05-14T06:52:18.999Z</time>
      </trkpt>
      <trkpt lat="47.51384" lon="6.7724">
        <ele>417.8</ele>
        <time>2017-05-14T06:52:19.999Z</time>
      </trkpt>
      <trkpt lat="47.5138" lon="6.77242">
        <ele>417.9</ele>
        <time>2017-05-14T06:52:20.999Z</time>
      </trkpt>
      <trkpt lat="47.51376" lon="6.77244">
        <ele>418.3</ele>
        <time>2017-05-14T06:52:21.999Z</time>
      </trkpt>
      <trkpt lat="47.51373" lon="6.77246">
        <ele>418.4</ele>
        <time>2017-05-14T06:52:22.999Z</time>
      </trkpt>
      <trkpt lat="47.5137" lon="6.77249">
        <ele>418.4</ele>
        <time>2017-05-14T06:52:23.999Z</time>
      </trkpt>
      <trkpt lat="47.51366" lon="6.77252">
        <ele>418.5</ele>
        <time>2017-05-14T06:52:24.999Z</time>
      </trkpt>
      <trkpt lat="47.51362" lon="6.77255">
        <ele>418.5</ele>
        <time>2017-05-14T06:52:25.999Z</time>
      </trkpt>
      <trkpt lat="47.51359" lon="6.77259">
        <ele>418.6</ele>
        <time>2017-05-14T06:52:26.999Z</time>
      </trkpt>
      <trkpt lat="47.51356" lon="6.77261">
        <ele>418.7</ele>
        <time>2017-05-14T06:52:27.999Z</time>
      </trkpt>
      <trkpt lat="47.51354" lon="6.77264">
        <ele>418.8</ele>
        <time>2017-05-14T06:52:28.999Z</time>
      </trkpt>
      <trkpt lat="47.5135" lon="6.77267">
        <ele>419.8</ele>
        <time>2017-05-14T06:52:29.999Z</time>
      </trkpt>
      <trkpt lat="47.51347" lon="6.77269">
        <ele>421.2</ele>
        <time>2017-05-14T06:52:30.999Z</time>
      </trkpt>
      <trkpt lat="47.51345" lon="6.77272">
        <ele>421.3</ele>
        <time>2017-05-14T06:52:31.999Z</time>
      </trkpt>
      <trkpt lat="47.51343" lon="6.77273">
        <ele>421.4</ele>
        <time>2017-05-14T06:52:32.999Z</time>
      </trkpt>
      <trkpt lat="47.51339" lon="6.77276">
        <ele>421.5</ele>
        <time>2017-05-14T06:52:33.999Z</time>
      </trkpt>
      <trkpt lat="47.51335" lon="6.77279">
        <ele>421.6</ele>
        <time>2017-05-14T06:52:34.999Z</time>
      </trkpt>
      <trkpt lat="47.51331" lon="6.77279">
        <ele>421.6</ele>
        <time>2017-05-14T06:52:35.999Z</time>
      </trkpt>
      <trkpt lat="47.51327" lon="6.7728">
        <ele>421.7</ele>
        <time>2017-05-14T06:52:36.999Z</time>
      </trkpt>
      <trkpt lat="47.51323" lon="6.7728">
        <ele>421.8</ele>
        <time>2017-05-14T06:52:37.999Z</time>
      </trkpt>
      <trkpt lat="47.51321" lon="6.7728">
        <ele>422</ele>
        <time>2017-05-14T06:52:38.999Z</time>
      </trkpt>
      <trkpt lat="47.51316" lon="6.7728">
        <ele>422</ele>
        <time>2017-05-14T06:52:39.999Z</time>
      </trkpt>
      <trkpt lat="47.51312" lon="6.7728">
        <ele>422.1</ele>
        <time>2017-05-14T06:52:40.999Z</time>
      </trkpt>
      <trkpt lat="47.51308" lon="6.77278">
        <ele>422.2</ele>
        <time>2017-05-14T06:52:41.999Z</time>
      </trkpt>
      <trkpt lat="47.51305" lon="6.77276">
        <ele>422.3</ele>
        <time>2017-05-14T06:52:42.999Z</time>
      </trkpt>
      <trkpt lat="47.51302" lon="6.77275">
        <ele>422.4</ele>
        <time>2017-05-14T06:52:43.999Z</time>
      </trkpt>
      <trkpt lat="47.51299" lon="6.77274">
        <ele>422.5</ele>
        <time>2017-05-14T06:52:44.999Z</time>
      </trkpt>
      <trkpt lat="47.51296" lon="6.77272">
        <ele>422.6</ele>
        <time>2017-05-14T06:52:45.999Z</time>
      </trkpt>
      <trkpt lat="47.51292" lon="6.77271">
        <ele>422.7</ele>
        <time>2017-05-14T06:52:46.999Z</time>
      </trkpt>
      <trkpt lat="47.51289" lon="6.77269">
        <ele>422.8</ele>
        <time>2017-05-14T06:52:47.999Z</time>
      </trkpt>
      <trkpt lat="47.51285" lon="6.77266">
        <ele>422.9</ele>
        <time>2017-05-14T06:52:48.999Z</time>
      </trkpt>
      <trkpt lat="47.51281" lon="6.77263">
        <ele>422.9</ele>
        <time>2017-05-14T06:52:49.999Z</time>
      </trkpt>
      <trkpt lat="47.51277" lon="6.77261">
        <ele>423.1</ele>
        <time>2017-05-14T06:52:50.999Z</time>
      </trkpt>
      <trkpt lat="47.51274" lon="6.77259">
        <ele>423.2</ele>
        <time>2017-05-14T06:52:51.999Z</time>
      </trkpt>
      <trkpt lat="47.5127" lon="6.77257">
        <ele>423.4</ele>
        <time>2017-05-14T06:52:52.999Z</time>
      </trkpt>
      <trkpt lat="47.51267" lon="6.77255">
        <ele>425.5</ele>
        <time>2017-05-14T06:52:53.999Z</time>
      </trkpt>
      <trkpt lat="47.51265" lon="6.77252">
        <ele>427.1</ele>
        <time>2017-05-14T06:52:54.999Z</time>
      </trkpt>
      <trkpt lat="47.51261" lon="6.77248">
        <ele>428.4</ele>
        <time>2017-05-14T06:52:55.999Z</time>
      </trkpt>
      <trkpt lat="47.51258" lon="6.77243">
        <ele>429</ele>
        <time>2017-05-14T06:52:56.999Z</time>
      </trkpt>
      <trkpt lat="47.51254" lon="6.77238">
        <ele>429.3</ele>
        <time>2017-05-14T06:52:57.999Z</time>
      </trkpt>
      <trkpt lat="47.51251" lon="6.77234">
        <ele>430.2</ele>
        <time>2017-05-14T06:52:58.999Z</time>
      </trkpt>
      <trkpt lat="47.51248" lon="6.77228">
        <ele>430.6</ele>
        <time>2017-05-14T06:52:59.999Z</time>
      </trkpt>
      <trkpt lat="47.51243" lon="6.77221">
        <ele>431.3</ele>
        <time>2017-05-14T06:53:00.999Z</time>
      </trkpt>
      <trkpt lat="47.5124" lon="6.77215">
        <ele>431.8</ele>
        <time>2017-05-14T06:53:01.999Z</time>
      </trkpt>
      <trkpt lat="47.51237" lon="6.77209">
        <ele>432.5</ele>
        <time>2017-05-14T06:53:02.999Z</time>
      </trkpt>
      <trkpt lat="47.51234" lon="6.77203">
        <ele>432.8</ele>
        <time>2017-05-14T06:53:03.999Z</time>
      </trkpt>
      <trkpt lat="47.51232" lon="6.77197">
        <ele>433.2</ele>
        <time>2017-05-14T06:53:04.999Z</time>
      </trkpt>
      <trkpt lat="47.51228" lon="6.77191">
        <ele>433.8</ele>
        <time>2017-05-14T06:53:05.999Z</time>
      </trkpt>
      <trkpt lat="47.51225" lon="6.77183">
        <ele>434.3</ele>
        <time>2017-05-14T06:53:06.999Z</time>
      </trkpt>
      <trkpt lat="47.51222" lon="6.77176">
        <ele>434.7</ele>
        <time>2017-05-14T06:53:07.999Z</time>
      </trkpt>
      <trkpt lat="47.51219" lon="6.7717">
        <ele>434.8</ele>
        <time>2017-05-14T06:53:08.999Z</time>
      </trkpt>
      <trkpt lat="47.51216" lon="6.77164">
        <ele>434.6</ele>
        <time>2017-05-14T06:53:09.999Z</time>
      </trkpt>
      <trkpt lat="47.51212" lon="6.77157">
        <ele>434.8</ele>
        <time>2017-05-14T06:53:10.999Z</time>
      </trkpt>
      <trkpt lat="47.51209" lon="6.7715">
        <ele>435.2</ele>
        <time>2017-05-14T06:53:11.999Z</time>
      </trkpt>
      <trkpt lat="47.51205" lon="6.77142">
        <ele>435.7</ele>
        <time>2017-05-14T06:53:12.999Z</time>
      </trkpt>
      <trkpt lat="47.51201" lon="6.77135">
        <ele>436.1</ele>
        <time>2017-05-14T06:53:13.999Z</time>
      </trkpt>
      <trkpt lat="47.51197" lon="6.77128">
        <ele>436.3</ele>
        <time>2017-05-14T06:53:14.999Z</time>
      </trkpt>
      <trkpt lat="47.51193" lon="6.7712">
        <ele>436.2</ele>
        <time>2017-05-14T06:53:15.999Z</time>
      </trkpt>
      <trkpt lat="47.51189" lon="6.77112">
        <ele>436.2</ele>
        <time>2017-05-14T06:53:16.999Z</time>
      </trkpt>
      <trkpt lat="47.51185" lon="6.77104">
        <ele>436.1</ele>
        <time>2017-05-14T06:53:17.999Z</time>
      </trkpt>
      <trkpt lat="47.5118" lon="6.77095">
        <ele>435.8</ele>
        <time>2017-05-14T06:53:18.999Z</time>
      </trkpt>
      <trkpt lat="47.51176" lon="6.77086">
        <ele>435.4</ele>
        <time>2017-05-14T06:53:19.999Z</time>
      </trkpt>
      <trkpt lat="47.51171" lon="6.77078">
        <ele>434.9</ele>
        <time>2017-05-14T06:53:20.999Z</time>
      </trkpt>
      <trkpt lat="47.51167" lon="6.7707">
        <ele>434.9</ele>
        <time>2017-05-14T06:53:21.999Z</time>
      </trkpt>
      <trkpt lat="47.51161" lon="6.77062">
        <ele>434.3</ele>
        <time>2017-05-14T06:53:22.999Z</time>
      </trkpt>
      <trkpt lat="47.51156" lon="6.77055">
        <ele>433.7</ele>
        <time>2017-05-14T06:53:23.999Z</time>
      </trkpt>
      <trkpt lat="47.5115" lon="6.77051">
        <ele>433.3</ele>
        <time>2017-05-14T06:53:24.999Z</time>
      </trkpt>
      <trkpt lat="47.51144" lon="6.77047">
        <ele>432.8</ele>
        <time>2017-05-14T06:53:25.999Z</time>
      </trkpt>
      <trkpt lat="47.51139" lon="6.77044">
        <ele>432.5</ele>
        <time>2017-05-14T06:53:26.999Z</time>
      </trkpt>
      <trkpt lat="47.51133" lon="6.77039">
        <ele>431.9</ele>
        <time>2017-05-14T06:53:27.999Z</time>
      </trkpt>
      <trkpt lat="47.51127" lon="6.77032">
        <ele>431.5</ele>
        <time>2017-05-14T06:53:28.999Z</time>
      </trkpt>
      <trkpt lat="47.51121" lon="6.77026">
        <ele>430.4</ele>
        <time>2017-05-14T06:53:29.999Z</time>
      </trkpt>
      <trkpt lat="47.51116" lon="6.77021">
        <ele>429.9</ele>
        <time>2017-05-14T06:53:30.999Z</time>
      </trkpt>
      <trkpt lat="47.51109" lon="6.77015">
        <ele>429.7</ele>
        <time>2017-05-14T06:53:31.999Z</time>
      </trkpt>
      <trkpt lat="47.51104" lon="6.7701">
        <ele>429.4</ele>
        <time>2017-05-14T06:53:32.999Z</time>
      </trkpt>
      <trkpt lat="47.51099" lon="6.77006">
        <ele>428.9</ele>
        <time>2017-05-14T06:53:33.999Z</time>
      </trkpt>
      <trkpt lat="47.51094" lon="6.77001">
        <ele>428</ele>
        <time>2017-05-14T06:53:34.999Z</time>
      </trkpt>
      <trkpt lat="47.51089" lon="6.76998">
        <ele>427.8</ele>
        <time>2017-05-14T06:53:35.999Z</time>
      </trkpt>
      <trkpt lat="47.51084" lon="6.76994">
        <ele>427.1</ele>
        <time>2017-05-14T06:53:36.999Z</time>
      </trkpt>
      <trkpt lat="47.51079" lon="6.7699">
        <ele>426.5</ele>
        <time>2017-05-14T06:53:37.999Z</time>
      </trkpt>
      <trkpt lat="47.51073" lon="6.76986">
        <ele>426.4</ele>
        <time>2017-05-14T06:53:38.999Z</time>
      </trkpt>
      <trkpt lat="47.51068" lon="6.76982">
        <ele>426.5</ele>
        <time>2017-05-14T06:53:39.999Z</time>
      </trkpt>
      <trkpt lat="47.51063" lon="6.76977">
        <ele>426.8</ele>
        <time>2017-05-14T06:53:40.999Z</time>
      </trkpt>
      <trkpt lat="47.51059" lon="6.76973">
        <ele>427.2</ele>
        <time>2017-05-14T06:53:41.999Z</time>
      </trkpt>
      <trkpt lat="47.51053" lon="6.76968">
        <ele>427.5</ele>
        <time>2017-05-14T06:53:42.999Z</time>
      </trkpt>
      <trkpt lat="47.51047" lon="6.76963">
        <ele>427.5</ele>
        <time>2017-05-14T06:53:43.999Z</time>
      </trkpt>
      <trkpt lat="47.51042" lon="6.76959">
        <ele>427.6</ele>
        <time>2017-05-14T06:53:44.999Z</time>
      </trkpt>
      <trkpt lat="47.51036" lon="6.76954">
        <ele>427.6</ele>
        <time>2017-05-14T06:53:45.999Z</time>
      </trkpt>
      <trkpt lat="47.51032" lon="6.7695">
        <ele>428</ele>
        <time>2017-05-14T06:53:46.999Z</time>
      </trkpt>
      <trkpt lat="47.51029" lon="6.76943">
        <ele>428.2</ele>
        <time>2017-05-14T06:53:47.999Z</time>
      </trkpt>
      <trkpt lat="47.51025" lon="6.76939">
        <ele>428.1</ele>
        <time>2017-05-14T06:53:48.999Z</time>
      </trkpt>
      <trkpt lat="47.51021" lon="6.76932">
        <ele>428</ele>
        <time>2017-05-14T06:53:49.999Z</time>
      </trkpt>
      <trkpt lat="47.51016" lon="6.7693">
        <ele>428</ele>
        <time>2017-05-14T06:53:50.999Z</time>
      </trkpt>
      <trkpt lat="47.51011" lon="6.76927">
        <ele>427.9</ele>
        <time>2017-05-14T06:53:51.999Z</time>
      </trkpt>
      <trkpt lat="47.51006" lon="6.76925">
        <ele>427.8</ele>
        <time>2017-05-14T06:53:52.999Z</time>
      </trkpt>
      <trkpt lat="47.51003" lon="6.76924">
        <ele>427.9</ele>
        <time>2017-05-14T06:53:53.999Z</time>
      </trkpt>
      <trkpt lat="47.51" lon="6.7692">
        <ele>427.9</ele>
        <time>2017-05-14T06:53:54.999Z</time>
      </trkpt>
      <trkpt lat="47.50997" lon="6.76916">
        <ele>427.9</ele>
        <time>2017-05-14T06:53:55.999Z</time>
      </trkpt>
      <trkpt lat="47.50996" lon="6.76911">
        <ele>428</ele>
        <time>2017-05-14T06:53:56.999Z</time>
      </trkpt>
      <trkpt lat="47.50994" lon="6.76905">
        <ele>428</ele>
        <time>2017-05-14T06:53:57.999Z</time>
      </trkpt>
      <trkpt lat="47.50989" lon="6.76903">
        <ele>427.9</ele>
        <time>2017-05-14T06:53:58.999Z</time>
      </trkpt>
      <trkpt lat="47.50984" lon="6.769">
        <ele>427.1</ele>
        <time>2017-05-14T06:53:59.999Z</time>
      </trkpt>
      <trkpt lat="47.50981" lon="6.769">
        <ele>426.4</ele>
        <time>2017-05-14T06:54:00.999Z</time>
      </trkpt>
      <trkpt lat="47.50975" lon="6.769">
        <ele>424.7</ele>
        <time>2017-05-14T06:54:01.999Z</time>
      </trkpt>
      <trkpt lat="47.50971" lon="6.76898">
        <ele>424.6</ele>
        <time>2017-05-14T06:54:02.999Z</time>
      </trkpt>
      <trkpt lat="47.50968" lon="6.76898">
        <ele>424</ele>
        <time>2017-05-14T06:54:03.999Z</time>
      </trkpt>
      <trkpt lat="47.50964" lon="6.76896">
        <ele>424</ele>
        <time>2017-05-14T06:54:04.999Z</time>
      </trkpt>
      <trkpt lat="47.50961" lon="6.76895">
        <ele>424</ele>
        <time>2017-05-14T06:54:05.999Z</time>
      </trkpt>
      <trkpt lat="47.50959" lon="6.76893">
        <ele>424</ele>
        <time>2017-05-14T06:54:06.999Z</time>
      </trkpt>
      <trkpt lat="47.50955" lon="6.7689">
        <ele>424.1</ele>
        <time>2017-05-14T06:54:07.999Z</time>
      </trkpt>
      <trkpt lat="47.50951" lon="6.76886">
        <ele>424.1</ele>
        <time>2017-05-14T06:54:08.999Z</time>
      </trkpt>
      <trkpt lat="47.50949" lon="6.76883">
        <ele>424.1</ele>
        <time>2017-05-14T06:54:09.999Z</time>
      </trkpt>
      <trkpt lat="47.50945" lon="6.76879">
        <ele>424.1</ele>
        <time>2017-05-14T06:54:10.999Z</time>
      </trkpt>
      <trkpt lat="47.50941" lon="6.76874">
        <ele>424.2</ele>
        <time>2017-05-14T06:54:11.999Z</time>
      </trkpt>
      <trkpt lat="47.50938" lon="6.76871">
        <ele>424.2</ele>
        <time>2017-05-14T06:54:12.999Z</time>
      </trkpt>
      <trkpt lat="47.50935" lon="6.76867">
        <ele>424.4</ele>
        <time>2017-05-14T06:54:13.999Z</time>
      </trkpt>
      <trkpt lat="47.50933" lon="6.76864">
        <ele>424.5</ele>
        <time>2017-05-14T06:54:14.999Z</time>
      </trkpt>
      <trkpt lat="47.5093" lon="6.7686">
        <ele>424.6</ele>
        <time>2017-05-14T06:54:15.999Z</time>
      </trkpt>
      <trkpt lat="47.50928" lon="6.76857">
        <ele>424.7</ele>
        <time>2017-05-14T06:54:16.999Z</time>
      </trkpt>
      <trkpt lat="47.50925" lon="6.76853">
        <ele>424.9</ele>
        <time>2017-05-14T06:54:17.999Z</time>
      </trkpt>
      <trkpt lat="47.50922" lon="6.76848">
        <ele>425</ele>
        <time>2017-05-14T06:54:18.999Z</time>
      </trkpt>
      <trkpt lat="47.50919" lon="6.76844">
        <ele>425.2</ele>
        <time>2017-05-14T06:54:19.999Z</time>
      </trkpt>
      <trkpt lat="47.50917" lon="6.76838">
        <ele>425.3</ele>
        <time>2017-05-14T06:54:20.999Z</time>
      </trkpt>
      <trkpt lat="47.50915" lon="6.76833">
        <ele>425.4</ele>
        <time>2017-05-14T06:54:21.999Z</time>
      </trkpt>
      <trkpt lat="47.50913" lon="6.76828">
        <ele>425.5</ele>
        <time>2017-05-14T06:54:22.999Z</time>
      </trkpt>
      <trkpt lat="47.50911" lon="6.76822">
        <ele>425.6</ele>
        <time>2017-05-14T06:54:23.999Z</time>
      </trkpt>
      <trkpt lat="47.50909" lon="6.76816">
        <ele>426.3</ele>
        <time>2017-05-14T06:54:24.999Z</time>
      </trkpt>
      <trkpt lat="47.50908" lon="6.76812">
        <ele>427.6</ele>
        <time>2017-05-14T06:54:25.999Z</time>
      </trkpt>
      <trkpt lat="47.50906" lon="6.76808">
        <ele>427.7</ele>
        <time>2017-05-14T06:54:26.999Z</time>
      </trkpt>
      <trkpt lat="47.50905" lon="6.76803">
        <ele>428.2</ele>
        <time>2017-05-14T06:54:27.999Z</time>
      </trkpt>
      <trkpt lat="47.50903" lon="6.76798">
        <ele>429.2</ele>
        <time>2017-05-14T06:54:28.999Z</time>
      </trkpt>
      <trkpt lat="47.50902" lon="6.76793">
        <ele>429.3</ele>
        <time>2017-05-14T06:54:29.999Z</time>
      </trkpt>
      <trkpt lat="47.509" lon="6.7679">
        <ele>429.4</ele>
        <time>2017-05-14T06:54:30.999Z</time>
      </trkpt>
      <trkpt lat="47.50898" lon="6.76785">
        <ele>429.5</ele>
        <time>2017-05-14T06:54:31.999Z</time>
      </trkpt>
      <trkpt lat="47.50896" lon="6.7678">
        <ele>429.6</ele>
        <time>2017-05-14T06:54:32.999Z</time>
      </trkpt>
      <trkpt lat="47.50895" lon="6.76776">
        <ele>429.7</ele>
        <time>2017-05-14T06:54:33.999Z</time>
      </trkpt>
      <trkpt lat="47.50893" lon="6.76772">
        <ele>429.8</ele>
        <time>2017-05-14T06:54:34.999Z</time>
      </trkpt>
      <trkpt lat="47.5089" lon="6.76767">
        <ele>429.9</ele>
        <time>2017-05-14T06:54:35.999Z</time>
      </trkpt>
      <trkpt lat="47.50889" lon="6.76763">
        <ele>430.1</ele>
        <time>2017-05-14T06:54:36.999Z</time>
      </trkpt>
      <trkpt lat="47.50886" lon="6.76758">
        <ele>430.1</ele>
        <time>2017-05-14T06:54:37.999Z</time>
      </trkpt>
      <trkpt lat="47.50884" lon="6.76754">
        <ele>430.2</ele>
        <time>2017-05-14T06:54:38.999Z</time>
      </trkpt>
      <trkpt lat="47.50883" lon="6.76749">
        <ele>430.2</ele>
        <time>2017-05-14T06:54:39.999Z</time>
      </trkpt>
      <trkpt lat="47.50881" lon="6.76745">
        <ele>430.3</ele>
        <time>2017-05-14T06:54:40.999Z</time>
      </trkpt>
      <trkpt lat="47.5088" lon="6.76741">
        <ele>430.3</ele>
        <time>2017-05-14T06:54:41.999Z</time>
      </trkpt>
      <trkpt lat="47.50878" lon="6.76736">
        <ele>430.4</ele>
        <time>2017-05-14T06:54:42.999Z</time>
      </trkpt>
      <trkpt lat="47.50876" lon="6.76729">
        <ele>430.4</ele>
        <time>2017-05-14T06:54:43.999Z</time>
      </trkpt>
      <trkpt lat="47.50874" lon="6.76724">
        <ele>430.4</ele>
        <time>2017-05-14T06:54:44.999Z</time>
      </trkpt>
      <trkpt lat="47.50873" lon="6.76719">
        <ele>430.5</ele>
        <time>2017-05-14T06:54:45.999Z</time>
      </trkpt>
      <trkpt lat="47.50872" lon="6.76715">
        <ele>430.5</ele>
        <time>2017-05-14T06:54:46.999Z</time>
      </trkpt>
      <trkpt lat="47.5087" lon="6.76711">
        <ele>430.6</ele>
        <time>2017-05-14T06:54:47.999Z</time>
      </trkpt>
      <trkpt lat="47.50869" lon="6.76707">
        <ele>430.6</ele>
        <time>2017-05-14T06:54:48.999Z</time>
      </trkpt>
      <trkpt lat="47.50868" lon="6.76704">
        <ele>430.6</ele>
        <time>2017-05-14T06:54:49.999Z</time>
      </trkpt>
      <trkpt lat="47.50866" lon="6.767">
        <ele>430.6</ele>
        <time>2017-05-14T06:54:50.999Z</time>
      </trkpt>
      <trkpt lat="47.50864" lon="6.76694">
        <ele>430.5</ele>
        <time>2017-05-14T06:54:51.999Z</time>
      </trkpt>
      <trkpt lat="47.50862" lon="6.76689">
        <ele>430.5</ele>
        <time>2017-05-14T06:54:52.999Z</time>
      </trkpt>
      <trkpt lat="47.5086" lon="6.76684">
        <ele>430.6</ele>
        <time>2017-05-14T06:54:53.999Z</time>
      </trkpt>
      <trkpt lat="47.50857" lon="6.76679">
        <ele>430.6</ele>
        <time>2017-05-14T06:54:54.999Z</time>
      </trkpt>
      <trkpt lat="47.50855" lon="6.76674">
        <ele>430.7</ele>
        <time>2017-05-14T06:54:55.999Z</time>
      </trkpt>
      <trkpt lat="47.50854" lon="6.76671">
        <ele>430.8</ele>
        <time>2017-05-14T06:54:56.999Z</time>
      </trkpt>
      <trkpt lat="47.50852" lon="6.76667">
        <ele>430.8</ele>
        <time>2017-05-14T06:54:57.999Z</time>
      </trkpt>
      <trkpt lat="47.50851" lon="6.76663">
        <ele>430.9</ele>
        <time>2017-05-14T06:54:58.999Z</time>
      </trkpt>
      <trkpt lat="47.50849" lon="6.76657">
        <ele>431</ele>
        <time>2017-05-14T06:54:59.999Z</time>
      </trkpt>
      <trkpt lat="47.50847" lon="6.76653">
        <ele>431.2</ele>
        <time>2017-05-14T06:55:00.999Z</time>
      </trkpt>
      <trkpt lat="47.50846" lon="6.76651">
        <ele>431.4</ele>
        <time>2017-05-14T06:55:01.999Z</time>
      </trkpt>
      <trkpt lat="47.50844" lon="6.76647">
        <ele>431.6</ele>
        <time>2017-05-14T06:55:02.999Z</time>
      </trkpt>
      <trkpt lat="47.50841" lon="6.76644">
        <ele>431.9</ele>
        <time>2017-05-14T06:55:03.999Z</time>
      </trkpt>
      <trkpt lat="47.50839" lon="6.76638">
        <ele>432.4</ele>
        <time>2017-05-14T06:55:05.999Z</time>
      </trkpt>
      <trkpt lat="47.50838" lon="6.76635">
        <ele>432.6</ele>
        <time>2017-05-14T06:55:06.999Z</time>
      </trkpt>
      <trkpt lat="47.50837" lon="6.76632">
        <ele>432.8</ele>
        <time>2017-05-14T06:55:07.999Z</time>
      </trkpt>
      <trkpt lat="47.50835" lon="6.76628">
        <ele>433</ele>
        <time>2017-05-14T06:55:08.999Z</time>
      </trkpt>
      <trkpt lat="47.50834" lon="6.76625">
        <ele>433.1</ele>
        <time>2017-05-14T06:55:09.999Z</time>
      </trkpt>
      <trkpt lat="47.50833" lon="6.76623">
        <ele>433.2</ele>
        <time>2017-05-14T06:55:10.999Z</time>
      </trkpt>
      <trkpt lat="47.50831" lon="6.76617">
        <ele>433.5</ele>
        <time>2017-05-14T06:55:12.999Z</time>
      </trkpt>
      <trkpt lat="47.5083" lon="6.76613">
        <ele>433.7</ele>
        <time>2017-05-14T06:55:13.999Z</time>
      </trkpt>
      <trkpt lat="47.50829" lon="6.76609">
        <ele>433.8</ele>
        <time>2017-05-14T06:55:14.999Z</time>
      </trkpt>
      <trkpt lat="47.50827" lon="6.76604">
        <ele>434</ele>
        <time>2017-05-14T06:55:15.999Z</time>
      </trkpt>
      <trkpt lat="47.50826" lon="6.76601">
        <ele>434.1</ele>
        <time>2017-05-14T06:55:16.999Z</time>
      </trkpt>
      <trkpt lat="47.50825" lon="6.76597">
        <ele>434.3</ele>
        <time>2017-05-14T06:55:17.999Z</time>
      </trkpt>
      <trkpt lat="47.50821" lon="6.76594">
        <ele>434.7</ele>
        <time>2017-05-14T06:55:19.999Z</time>
      </trkpt>
      <trkpt lat="47.50819" lon="6.76596">
        <ele>434.9</ele>
        <time>2017-05-14T06:55:20.999Z</time>
      </trkpt>
      <trkpt lat="47.50815" lon="6.76598">
        <ele>435</ele>
        <time>2017-05-14T06:55:21.999Z</time>
      </trkpt>
      <trkpt lat="47.50811" lon="6.766">
        <ele>435.1</ele>
        <time>2017-05-14T06:55:22.999Z</time>
      </trkpt>
      <trkpt lat="47.50808" lon="6.766">
        <ele>435.2</ele>
        <time>2017-05-14T06:55:23.999Z</time>
      </trkpt>
      <trkpt lat="47.50807" lon="6.76596">
        <ele>435.3</ele>
        <time>2017-05-14T06:55:24.999Z</time>
      </trkpt>
      <trkpt lat="47.50807" lon="6.76593">
        <ele>435.5</ele>
        <time>2017-05-14T06:55:25.999Z</time>
      </trkpt>
      <trkpt lat="47.50807" lon="6.76589">
        <ele>435.6</ele>
        <time>2017-05-14T06:55:26.999Z</time>
      </trkpt>
      <trkpt lat="47.50804" lon="6.76585">
        <ele>435.8</ele>
        <time>2017-05-14T06:55:28.999Z</time>
      </trkpt>
      <trkpt lat="47.50802" lon="6.76585">
        <ele>435.9</ele>
        <time>2017-05-14T06:55:29.999Z</time>
      </trkpt>
      <trkpt lat="47.50798" lon="6.76586">
        <ele>436.2</ele>
        <time>2017-05-14T06:55:31.999Z</time>
      </trkpt>
      <trkpt lat="47.50796" lon="6.76586">
        <ele>436.4</ele>
        <time>2017-05-14T06:55:32.999Z</time>
      </trkpt>
      <trkpt lat="47.50794" lon="6.76586">
        <ele>438.3</ele>
        <time>2017-05-14T06:55:47.999Z</time>
      </trkpt>
      <trkpt lat="47.50785" lon="6.76591">
        <ele>438.4</ele>
        <time>2017-05-14T06:55:48.999Z</time>
      </trkpt>
      <trkpt lat="47.50785" lon="6.76591">
        <ele>438.6</ele>
        <time>2017-05-14T06:55:58.999Z</time>
      </trkpt>
      <trkpt lat="47.50776" lon="6.76593">
        <ele>438.6</ele>
        <time>2017-05-14T06:55:59.999Z</time>
      </trkpt>
      <trkpt lat="47.50773" lon="6.76593">
        <ele>438.5</ele>
        <time>2017-05-14T06:56:00.999Z</time>
      </trkpt>
      <trkpt lat="47.50771" lon="6.76593">
        <ele>438.5</ele>
        <time>2017-05-14T06:56:01.999Z</time>
      </trkpt>
      <trkpt lat="47.50768" lon="6.76594">
        <ele>438.4</ele>
        <time>2017-05-14T06:56:02.999Z</time>
      </trkpt>
      <trkpt lat="47.50765" lon="6.76594">
        <ele>438.4</ele>
        <time>2017-05-14T06:56:03.999Z</time>
      </trkpt>
      <trkpt lat="47.50763" lon="6.76595">
        <ele>438.4</ele>
        <time>2017-05-14T06:56:04.999Z</time>
      </trkpt>
      <trkpt lat="47.5076" lon="6.76595">
        <ele>438.4</ele>
        <time>2017-05-14T06:56:05.999Z</time>
      </trkpt>
      <trkpt lat="47.50758" lon="6.76596">
        <ele>438.4</ele>
        <time>2017-05-14T06:56:06.999Z</time>
      </trkpt>
      <trkpt lat="47.50755" lon="6.76596">
        <ele>438.4</ele>
        <time>2017-05-14T06:56:07.999Z</time>
      </trkpt>
      <trkpt lat="47.50752" lon="6.76597">
        <ele>438.4</ele>
        <time>2017-05-14T06:56:08.999Z</time>
      </trkpt>
      <trkpt lat="47.50749" lon="6.76597">
        <ele>438.4</ele>
        <time>2017-05-14T06:56:09.999Z</time>
      </trkpt>
      <trkpt lat="47.50746" lon="6.76597">
        <ele>438.4</ele>
        <time>2017-05-14T06:56:10.999Z</time>
      </trkpt>
      <trkpt lat="47.50743" lon="6.76597">
        <ele>438.5</ele>
        <time>2017-05-14T06:56:11.999Z</time>
      </trkpt>
      <trkpt lat="47.5074" lon="6.76597">
        <ele>438.6</ele>
        <time>2017-05-14T06:56:12.999Z</time>
      </trkpt>
      <trkpt lat="47.50737" lon="6.76597">
        <ele>438.6</ele>
        <time>2017-05-14T06:56:13.999Z</time>
      </trkpt>
      <trkpt lat="47.50735" lon="6.76596">
        <ele>438.6</ele>
        <time>2017-05-14T06:56:14.999Z</time>
      </trkpt>
      <trkpt lat="47.50732" lon="6.76596">
        <ele>438.6</ele>
        <time>2017-05-14T06:56:15.999Z</time>
      </trkpt>
      <trkpt lat="47.5073" lon="6.76595">
        <ele>438.6</ele>
        <time>2017-05-14T06:56:16.999Z</time>
      </trkpt>
      <trkpt lat="47.50727" lon="6.76594">
        <ele>438.7</ele>
        <time>2017-05-14T06:56:17.999Z</time>
      </trkpt>
      <trkpt lat="47.50723" lon="6.76592">
        <ele>438.7</ele>
        <time>2017-05-14T06:56:18.999Z</time>
      </trkpt>
      <trkpt lat="47.5072" lon="6.76591">
        <ele>438.8</ele>
        <time>2017-05-14T06:56:19.999Z</time>
      </trkpt>
      <trkpt lat="47.50717" lon="6.7659">
        <ele>438.8</ele>
        <time>2017-05-14T06:56:20.999Z</time>
      </trkpt>
      <trkpt lat="47.50714" lon="6.76589">
        <ele>438.9</ele>
        <time>2017-05-14T06:56:21.999Z</time>
      </trkpt>
      <trkpt lat="47.50711" lon="6.76589">
        <ele>438.9</ele>
        <time>2017-05-14T06:56:22.999Z</time>
      </trkpt>
      <trkpt lat="47.50708" lon="6.76589">
        <ele>438.9</ele>
        <time>2017-05-14T06:56:23.999Z</time>
      </trkpt>
      <trkpt lat="47.50705" lon="6.76589">
        <ele>438.9</ele>
        <time>2017-05-14T06:56:24.999Z</time>
      </trkpt>
      <trkpt lat="47.50702" lon="6.76589">
        <ele>439</ele>
        <time>2017-05-14T06:56:25.999Z</time>
      </trkpt>
      <trkpt lat="47.50698" lon="6.76589">
        <ele>439.1</ele>
        <time>2017-05-14T06:56:26.999Z</time>
      </trkpt>
      <trkpt lat="47.50695" lon="6.76589">
        <ele>439.2</ele>
        <time>2017-05-14T06:56:27.999Z</time>
      </trkpt>
      <trkpt lat="47.50691" lon="6.7659">
        <ele>439.4</ele>
        <time>2017-05-14T06:56:28.999Z</time>
      </trkpt>
      <trkpt lat="47.50688" lon="6.76591">
        <ele>439.5</ele>
        <time>2017-05-14T06:56:29.999Z</time>
      </trkpt>
      <trkpt lat="47.50685" lon="6.76592">
        <ele>439.6</ele>
        <time>2017-05-14T06:56:30.999Z</time>
      </trkpt>
      <trkpt lat="47.50683" lon="6.76592">
        <ele>439.7</ele>
        <time>2017-05-14T06:56:31.999Z</time>
      </trkpt>
      <trkpt lat="47.5068" lon="6.76593">
        <ele>439.7</ele>
        <time>2017-05-14T06:56:32.999Z</time>
      </trkpt>
      <trkpt lat="47.50676" lon="6.76594">
        <ele>439.8</ele>
        <time>2017-05-14T06:56:33.999Z</time>
      </trkpt>
      <trkpt lat="47.50673" lon="6.76594">
        <ele>439.8</ele>
        <time>2017-05-14T06:56:34.999Z</time>
      </trkpt>
      <trkpt lat="47.50671" lon="6.76594">
        <ele>439.9</ele>
        <time>2017-05-14T06:56:35.999Z</time>
      </trkpt>
      <trkpt lat="47.50668" lon="6.76594">
        <ele>440</ele>
        <time>2017-05-14T06:56:36.999Z</time>
      </trkpt>
      <trkpt lat="47.50665" lon="6.76595">
        <ele>440.1</ele>
        <time>2017-05-14T06:56:37.999Z</time>
      </trkpt>
      <trkpt lat="47.50662" lon="6.76596">
        <ele>440.2</ele>
        <time>2017-05-14T06:56:38.999Z</time>
      </trkpt>
      <trkpt lat="47.50659" lon="6.76596">
        <ele>440.2</ele>
        <time>2017-05-14T06:56:39.999Z</time>
      </trkpt>
      <trkpt lat="47.50656" lon="6.76597">
        <ele>440.3</ele>
        <time>2017-05-14T06:56:40.999Z</time>
      </trkpt>
      <trkpt lat="47.50652" lon="6.76598">
        <ele>440.4</ele>
        <time>2017-05-14T06:56:41.999Z</time>
      </trkpt>
      <trkpt lat="47.50649" lon="6.76599">
        <ele>440.6</ele>
        <time>2017-05-14T06:56:42.999Z</time>
      </trkpt>
      <trkpt lat="47.50645" lon="6.766">
        <ele>440.7</ele>
        <time>2017-05-14T06:56:43.999Z</time>
      </trkpt>
      <trkpt lat="47.50642" lon="6.76601">
        <ele>440.9</ele>
        <time>2017-05-14T06:56:44.999Z</time>
      </trkpt>
      <trkpt lat="47.50639" lon="6.76602">
        <ele>440.9</ele>
        <time>2017-05-14T06:56:45.999Z</time>
      </trkpt>
      <trkpt lat="47.50636" lon="6.76604">
        <ele>441</ele>
        <time>2017-05-14T06:56:46.999Z</time>
      </trkpt>
      <trkpt lat="47.50634" lon="6.76605">
        <ele>441.1</ele>
        <time>2017-05-14T06:56:47.999Z</time>
      </trkpt>
      <trkpt lat="47.50631" lon="6.76606">
        <ele>441.2</ele>
        <time>2017-05-14T06:56:48.999Z</time>
      </trkpt>
      <trkpt lat="47.5063" lon="6.76609">
        <ele>441.4</ele>
        <time>2017-05-14T06:56:49.999Z</time>
      </trkpt>
      <trkpt lat="47.50626" lon="6.76612">
        <ele>441.7</ele>
        <time>2017-05-14T06:56:51.999Z</time>
      </trkpt>
      <trkpt lat="47.50624" lon="6.76613">
        <ele>441.8</ele>
        <time>2017-05-14T06:56:52.999Z</time>
      </trkpt>
      <trkpt lat="47.50621" lon="6.76613">
        <ele>442</ele>
        <time>2017-05-14T06:56:53.999Z</time>
      </trkpt>
      <trkpt lat="47.50618" lon="6.76615">
        <ele>442</ele>
        <time>2017-05-14T06:56:54.999Z</time>
      </trkpt>
      <trkpt lat="47.50616" lon="6.76616">
        <ele>442.2</ele>
        <time>2017-05-14T06:56:55.999Z</time>
      </trkpt>
      <trkpt lat="47.50613" lon="6.76618">
        <ele>442.3</ele>
        <time>2017-05-14T06:56:56.999Z</time>
      </trkpt>
      <trkpt lat="47.5061" lon="6.76619">
        <ele>442.5</ele>
        <time>2017-05-14T06:56:57.999Z</time>
      </trkpt>
      <trkpt lat="47.50607" lon="6.7662">
        <ele>442.5</ele>
        <time>2017-05-14T06:56:58.999Z</time>
      </trkpt>
      <trkpt lat="47.50604" lon="6.76622">
        <ele>442.7</ele>
        <time>2017-05-14T06:56:59.999Z</time>
      </trkpt>
      <trkpt lat="47.50601" lon="6.76623">
        <ele>442.8</ele>
        <time>2017-05-14T06:57:00.999Z</time>
      </trkpt>
      <trkpt lat="47.50599" lon="6.76624">
        <ele>442.9</ele>
        <time>2017-05-14T06:57:01.999Z</time>
      </trkpt>
      <trkpt lat="47.50595" lon="6.76625">
        <ele>443</ele>
        <time>2017-05-14T06:57:02.999Z</time>
      </trkpt>
      <trkpt lat="47.50593" lon="6.76626">
        <ele>443.1</ele>
        <time>2017-05-14T06:57:03.999Z</time>
      </trkpt>
      <trkpt lat="47.5059" lon="6.76627">
        <ele>443.2</ele>
        <time>2017-05-14T06:57:04.999Z</time>
      </trkpt>
      <trkpt lat="47.50587" lon="6.76628">
        <ele>443.3</ele>
        <time>2017-05-14T06:57:05.999Z</time>
      </trkpt>
      <trkpt lat="47.50585" lon="6.76629">
        <ele>443.4</ele>
        <time>2017-05-14T06:57:06.999Z</time>
      </trkpt>
      <trkpt lat="47.50582" lon="6.76631">
        <ele>443.5</ele>
        <time>2017-05-14T06:57:07.999Z</time>
      </trkpt>
      <trkpt lat="47.50579" lon="6.76632">
        <ele>443.7</ele>
        <time>2017-05-14T06:57:08.999Z</time>
      </trkpt>
      <trkpt lat="47.50574" lon="6.76634">
        <ele>443.9</ele>
        <time>2017-05-14T06:57:10.999Z</time>
      </trkpt>
      <trkpt lat="47.50571" lon="6.76634">
        <ele>444</ele>
        <time>2017-05-14T06:57:11.999Z</time>
      </trkpt>
      <trkpt lat="47.50568" lon="6.76635">
        <ele>444.1</ele>
        <time>2017-05-14T06:57:12.999Z</time>
      </trkpt>
      <trkpt lat="47.50564" lon="6.76637">
        <ele>444.1</ele>
        <time>2017-05-14T06:57:13.999Z</time>
      </trkpt>
      <trkpt lat="47.50561" lon="6.76638">
        <ele>444.2</ele>
        <time>2017-05-14T06:57:14.999Z</time>
      </trkpt>
      <trkpt lat="47.50559" lon="6.76639">
        <ele>444.3</ele>
        <time>2017-05-14T06:57:15.999Z</time>
      </trkpt>
      <trkpt lat="47.50556" lon="6.7664">
        <ele>444.5</ele>
        <time>2017-05-14T06:57:16.999Z</time>
      </trkpt>
      <trkpt lat="47.50552" lon="6.76641">
        <ele>444.6</ele>
        <time>2017-05-14T06:57:17.999Z</time>
      </trkpt>
      <trkpt lat="47.50549" lon="6.76641">
        <ele>444.7</ele>
        <time>2017-05-14T06:57:18.999Z</time>
      </trkpt>
      <trkpt lat="47.50546" lon="6.76642">
        <ele>444.9</ele>
        <time>2017-05-14T06:57:19.999Z</time>
      </trkpt>
      <trkpt lat="47.50543" lon="6.76642">
        <ele>445</ele>
        <time>2017-05-14T06:57:20.999Z</time>
      </trkpt>
      <trkpt lat="47.50539" lon="6.76643">
        <ele>445.1</ele>
        <time>2017-05-14T06:57:21.999Z</time>
      </trkpt>
      <trkpt lat="47.50535" lon="6.76643">
        <ele>445.2</ele>
        <time>2017-05-14T06:57:22.999Z</time>
      </trkpt>
      <trkpt lat="47.5053" lon="6.76644">
        <ele>445.8</ele>
        <time>2017-05-14T06:57:23.999Z</time>
      </trkpt>
      <trkpt lat="47.50526" lon="6.76645">
        <ele>445.8</ele>
        <time>2017-05-14T06:57:24.999Z</time>
      </trkpt>
      <trkpt lat="47.50522" lon="6.76646">
        <ele>446.2</ele>
        <time>2017-05-14T06:57:25.999Z</time>
      </trkpt>
      <trkpt lat="47.50517" lon="6.76648">
        <ele>446.4</ele>
        <time>2017-05-14T06:57:26.999Z</time>
      </trkpt>
      <trkpt lat="47.50514" lon="6.7665">
        <ele>446.6</ele>
        <time>2017-05-14T06:57:27.999Z</time>
      </trkpt>
      <trkpt lat="47.5051" lon="6.76651">
        <ele>447.5</ele>
        <time>2017-05-14T06:57:28.999Z</time>
      </trkpt>
      <trkpt lat="47.50504" lon="6.76652">
        <ele>447.9</ele>
        <time>2017-05-14T06:57:29.999Z</time>
      </trkpt>
      <trkpt lat="47.505" lon="6.76653">
        <ele>448.2</ele>
        <time>2017-05-14T06:57:30.999Z</time>
      </trkpt>
      <trkpt lat="47.50497" lon="6.76654">
        <ele>448.8</ele>
        <time>2017-05-14T06:57:31.999Z</time>
      </trkpt>
      <trkpt lat="47.50493" lon="6.76656">
        <ele>449.1</ele>
        <time>2017-05-14T06:57:32.999Z</time>
      </trkpt>
      <trkpt lat="47.50489" lon="6.76658">
        <ele>449.5</ele>
        <time>2017-05-14T06:57:33.999Z</time>
      </trkpt>
      <trkpt lat="47.50485" lon="6.76659">
        <ele>450</ele>
        <time>2017-05-14T06:57:34.999Z</time>
      </trkpt>
      <trkpt lat="47.5048" lon="6.76661">
        <ele>450.4</ele>
        <time>2017-05-14T06:57:35.999Z</time>
      </trkpt>
      <trkpt lat="47.50473" lon="6.76663">
        <ele>450.8</ele>
        <time>2017-05-14T06:57:36.999Z</time>
      </trkpt>
      <trkpt lat="47.50468" lon="6.76666">
        <ele>449.8</ele>
        <time>2017-05-14T06:57:37.999Z</time>
      </trkpt>
      <trkpt lat="47.50463" lon="6.76667">
        <ele>448.9</ele>
        <time>2017-05-14T06:57:38.999Z</time>
      </trkpt>
      <trkpt lat="47.50459" lon="6.76668">
        <ele>449.1</ele>
        <time>2017-05-14T06:57:39.999Z</time>
      </trkpt>
      <trkpt lat="47.50454" lon="6.7667">
        <ele>449</ele>
        <time>2017-05-14T06:57:40.999Z</time>
      </trkpt>
      <trkpt lat="47.50449" lon="6.76673">
        <ele>449.3</ele>
        <time>2017-05-14T06:57:41.999Z</time>
      </trkpt>
      <trkpt lat="47.50444" lon="6.76675">
        <ele>449.1</ele>
        <time>2017-05-14T06:57:42.999Z</time>
      </trkpt>
      <trkpt lat="47.5044" lon="6.76677">
        <ele>448.2</ele>
        <time>2017-05-14T06:57:43.999Z</time>
      </trkpt>
      <trkpt lat="47.50435" lon="6.76679">
        <ele>447.7</ele>
        <time>2017-05-14T06:57:45.000Z</time>
      </trkpt>
      <trkpt lat="47.5043" lon="6.76681">
        <ele>447.4</ele>
        <time>2017-05-14T06:57:45.999Z</time>
      </trkpt>
      <trkpt lat="47.50426" lon="6.76682">
        <ele>447.1</ele>
        <time>2017-05-14T06:57:46.999Z</time>
      </trkpt>
      <trkpt lat="47.50422" lon="6.76685">
        <ele>447</ele>
        <time>2017-05-14T06:57:48.000Z</time>
      </trkpt>
      <trkpt lat="47.50417" lon="6.76687">
        <ele>446.7</ele>
        <time>2017-05-14T06:57:49.000Z</time>
      </trkpt>
      <trkpt lat="47.50412" lon="6.76688">
        <ele>446.2</ele>
        <time>2017-05-14T06:57:50.000Z</time>
      </trkpt>
      <trkpt lat="47.50408" lon="6.76689">
        <ele>446.4</ele>
        <time>2017-05-14T06:57:51.000Z</time>
      </trkpt>
      <trkpt lat="47.50403" lon="6.76691">
        <ele>446.7</ele>
        <time>2017-05-14T06:57:52.000Z</time>
      </trkpt>
      <trkpt lat="47.50399" lon="6.76693">
        <ele>447.1</ele>
        <time>2017-05-14T06:57:53.000Z</time>
      </trkpt>
      <trkpt lat="47.50395" lon="6.76696">
        <ele>447.6</ele>
        <time>2017-05-14T06:57:54.000Z</time>
      </trkpt>
      <trkpt lat="47.50391" lon="6.76698">
        <ele>448.4</ele>
        <time>2017-05-14T06:57:55.000Z</time>
      </trkpt>
      <trkpt lat="47.50386" lon="6.767">
        <ele>448.5</ele>
        <time>2017-05-14T06:57:56.000Z</time>
      </trkpt>
      <trkpt lat="47.50382" lon="6.76701">
        <ele>448.8</ele>
        <time>2017-05-14T06:57:57.000Z</time>
      </trkpt>
      <trkpt lat="47.50378" lon="6.76703">
        <ele>448.8</ele>
        <time>2017-05-14T06:57:58.000Z</time>
      </trkpt>
      <trkpt lat="47.50373" lon="6.76704">
        <ele>449</ele>
        <time>2017-05-14T06:57:59.000Z</time>
      </trkpt>
      <trkpt lat="47.50368" lon="6.76706">
        <ele>448.9</ele>
        <time>2017-05-14T06:58:00.000Z</time>
      </trkpt>
      <trkpt lat="47.50363" lon="6.76708">
        <ele>448.5</ele>
        <time>2017-05-14T06:58:01.000Z</time>
      </trkpt>
      <trkpt lat="47.5036" lon="6.76709">
        <ele>448</ele>
        <time>2017-05-14T06:58:02.000Z</time>
      </trkpt>
      <trkpt lat="47.50356" lon="6.76711">
        <ele>448.6</ele>
        <time>2017-05-14T06:58:03.000Z</time>
      </trkpt>
      <trkpt lat="47.50351" lon="6.76712">
        <ele>448.6</ele>
        <time>2017-05-14T06:58:04.000Z</time>
      </trkpt>
      <trkpt lat="47.50347" lon="6.76714">
        <ele>449.5</ele>
        <time>2017-05-14T06:58:05.000Z</time>
      </trkpt>
      <trkpt lat="47.50343" lon="6.76716">
        <ele>450</ele>
        <time>2017-05-14T06:58:06.000Z</time>
      </trkpt>
      <trkpt lat="47.50338" lon="6.76718">
        <ele>450.6</ele>
        <time>2017-05-14T06:58:07.000Z</time>
      </trkpt>
      <trkpt lat="47.50335" lon="6.7672">
        <ele>450.6</ele>
        <time>2017-05-14T06:58:08.000Z</time>
      </trkpt>
      <trkpt lat="47.5033" lon="6.76722">
        <ele>451.6</ele>
        <time>2017-05-14T06:58:09.000Z</time>
      </trkpt>
      <trkpt lat="47.50325" lon="6.76724">
        <ele>451.5</ele>
        <time>2017-05-14T06:58:10.000Z</time>
      </trkpt>
      <trkpt lat="47.5032" lon="6.76725">
        <ele>451.1</ele>
        <time>2017-05-14T06:58:11.000Z</time>
      </trkpt>
      <trkpt lat="47.50316" lon="6.76728">
        <ele>450.5</ele>
        <time>2017-05-14T06:58:12.000Z</time>
      </trkpt>
      <trkpt lat="47.50312" lon="6.76729">
        <ele>449.6</ele>
        <time>2017-05-14T06:58:13.000Z</time>
      </trkpt>
      <trkpt lat="47.50309" lon="6.7673">
        <ele>449</ele>
        <time>2017-05-14T06:58:14.000Z</time>
      </trkpt>
      <trkpt lat="47.50305" lon="6.7673">
        <ele>449</ele>
        <time>2017-05-14T06:58:15.000Z</time>
      </trkpt>
      <trkpt lat="47.50302" lon="6.7673">
        <ele>448.9</ele>
        <time>2017-05-14T06:58:16.000Z</time>
      </trkpt>
      <trkpt lat="47.50297" lon="6.76733">
        <ele>448.3</ele>
        <time>2017-05-14T06:58:17.000Z</time>
      </trkpt>
      <trkpt lat="47.50292" lon="6.76735">
        <ele>447.9</ele>
        <time>2017-05-14T06:58:18.000Z</time>
      </trkpt>
      <trkpt lat="47.50287" lon="6.76737">
        <ele>447.5</ele>
        <time>2017-05-14T06:58:19.000Z</time>
      </trkpt>
      <trkpt lat="47.50283" lon="6.76739">
        <ele>447.3</ele>
        <time>2017-05-14T06:58:20.000Z</time>
      </trkpt>
      <trkpt lat="47.50278" lon="6.7674">
        <ele>447.6</ele>
        <time>2017-05-14T06:58:21.000Z</time>
      </trkpt>
      <trkpt lat="47.50273" lon="6.76742">
        <ele>446.9</ele>
        <time>2017-05-14T06:58:22.000Z</time>
      </trkpt>
      <trkpt lat="47.50268" lon="6.76743">
        <ele>446.9</ele>
        <time>2017-05-14T06:58:23.000Z</time>
      </trkpt>
      <trkpt lat="47.50264" lon="6.76744">
        <ele>447</ele>
        <time>2017-05-14T06:58:24.000Z</time>
      </trkpt>
      <trkpt lat="47.50261" lon="6.76745">
        <ele>447</ele>
        <time>2017-05-14T06:58:25.000Z</time>
      </trkpt>
      <trkpt lat="47.50257" lon="6.76746">
        <ele>447.1</ele>
        <time>2017-05-14T06:58:26.000Z</time>
      </trkpt>
      <trkpt lat="47.50254" lon="6.76747">
        <ele>447.2</ele>
        <time>2017-05-14T06:58:27.000Z</time>
      </trkpt>
      <trkpt lat="47.5025" lon="6.76745">
        <ele>447.2</ele>
        <time>2017-05-14T06:58:28.000Z</time>
      </trkpt>
      <trkpt lat="47.50247" lon="6.76742">
        <ele>447.3</ele>
        <time>2017-05-14T06:58:29.000Z</time>
      </trkpt>
      <trkpt lat="47.50245" lon="6.7674">
        <ele>447.4</ele>
        <time>2017-05-14T06:58:30.000Z</time>
      </trkpt>
      <trkpt lat="47.50243" lon="6.76736">
        <ele>447.4</ele>
        <time>2017-05-14T06:58:31.000Z</time>
      </trkpt>
      <trkpt lat="47.50241" lon="6.76732">
        <ele>447.5</ele>
        <time>2017-05-14T06:58:32.000Z</time>
      </trkpt>
      <trkpt lat="47.50238" lon="6.76727">
        <ele>447.5</ele>
        <time>2017-05-14T06:58:33.000Z</time>
      </trkpt>
      <trkpt lat="47.50235" lon="6.76723">
        <ele>447.6</ele>
        <time>2017-05-14T06:58:34.000Z</time>
      </trkpt>
      <trkpt lat="47.50233" lon="6.76719">
        <ele>447.7</ele>
        <time>2017-05-14T06:58:35.000Z</time>
      </trkpt>
      <trkpt lat="47.50231" lon="6.76715">
        <ele>448.2</ele>
        <time>2017-05-14T06:58:36.000Z</time>
      </trkpt>
      <trkpt lat="47.5023" lon="6.76711">
        <ele>448.2</ele>
        <time>2017-05-14T06:58:37.000Z</time>
      </trkpt>
      <trkpt lat="47.50229" lon="6.76706">
        <ele>448.2</ele>
        <time>2017-05-14T06:58:38.000Z</time>
      </trkpt>
      <trkpt lat="47.50227" lon="6.76702">
        <ele>448.1</ele>
        <time>2017-05-14T06:58:39.000Z</time>
      </trkpt>
      <trkpt lat="47.50225" lon="6.76697">
        <ele>448</ele>
        <time>2017-05-14T06:58:40.000Z</time>
      </trkpt>
      <trkpt lat="47.50223" lon="6.76691">
        <ele>447.9</ele>
        <time>2017-05-14T06:58:41.000Z</time>
      </trkpt>
      <trkpt lat="47.50221" lon="6.76685">
        <ele>447.9</ele>
        <time>2017-05-14T06:58:42.000Z</time>
      </trkpt>
      <trkpt lat="47.50218" lon="6.76678">
        <ele>447.8</ele>
        <time>2017-05-14T06:58:43.000Z</time>
      </trkpt>
      <trkpt lat="47.50216" lon="6.76672">
        <ele>447</ele>
        <time>2017-05-14T06:58:44.000Z</time>
      </trkpt>
      <trkpt lat="47.50215" lon="6.76668">
        <ele>447.1</ele>
        <time>2017-05-14T06:58:45.000Z</time>
      </trkpt>
      <trkpt lat="47.50213" lon="6.76663">
        <ele>446.7</ele>
        <time>2017-05-14T06:58:46.000Z</time>
      </trkpt>
      <trkpt lat="47.50211" lon="6.76657">
        <ele>446.6</ele>
        <time>2017-05-14T06:58:47.000Z</time>
      </trkpt>
      <trkpt lat="47.50209" lon="6.76651">
        <ele>446.6</ele>
        <time>2017-05-14T06:58:48.000Z</time>
      </trkpt>
      <trkpt lat="47.50207" lon="6.76645">
        <ele>446.5</ele>
        <time>2017-05-14T06:58:49.000Z</time>
      </trkpt>
      <trkpt lat="47.50205" lon="6.7664">
        <ele>446.3</ele>
        <time>2017-05-14T06:58:50.000Z</time>
      </trkpt>
      <trkpt lat="47.50203" lon="6.76635">
        <ele>446.2</ele>
        <time>2017-05-14T06:58:51.000Z</time>
      </trkpt>
      <trkpt lat="47.50201" lon="6.7663">
        <ele>444.5</ele>
        <time>2017-05-14T06:58:52.000Z</time>
      </trkpt>
      <trkpt lat="47.502" lon="6.76624">
        <ele>442.5</ele>
        <time>2017-05-14T06:58:53.000Z</time>
      </trkpt>
      <trkpt lat="47.50197" lon="6.76617">
        <ele>440.9</ele>
        <time>2017-05-14T06:58:54.000Z</time>
      </trkpt>
      <trkpt lat="47.50195" lon="6.76611">
        <ele>440</ele>
        <time>2017-05-14T06:58:55.000Z</time>
      </trkpt>
      <trkpt lat="47.50193" lon="6.76606">
        <ele>439.4</ele>
        <time>2017-05-14T06:58:56.000Z</time>
      </trkpt>
      <trkpt lat="47.50192" lon="6.76601">
        <ele>439.4</ele>
        <time>2017-05-14T06:58:57.000Z</time>
      </trkpt>
      <trkpt lat="47.50193" lon="6.76595">
        <ele>439.4</ele>
        <time>2017-05-14T06:58:58.000Z</time>
      </trkpt>
      <trkpt lat="47.50194" lon="6.7659">
        <ele>439.4</ele>
        <time>2017-05-14T06:58:59.000Z</time>
      </trkpt>
      <trkpt lat="47.50194" lon="6.76585">
        <ele>439.3</ele>
        <time>2017-05-14T06:59:00.000Z</time>
      </trkpt>
      <trkpt lat="47.50193" lon="6.76582">
        <ele>439.2</ele>
        <time>2017-05-14T06:59:01.000Z</time>
      </trkpt>
      <trkpt lat="47.50192" lon="6.76578">
        <ele>439</ele>
        <time>2017-05-14T06:59:02.000Z</time>
      </trkpt>
      <trkpt lat="47.50193" lon="6.76573">
        <ele>439</ele>
        <time>2017-05-14T06:59:03.000Z</time>
      </trkpt>
      <trkpt lat="47.50193" lon="6.76569">
        <ele>439</ele>
        <time>2017-05-14T06:59:04.000Z</time>
      </trkpt>
      <trkpt lat="47.50195" lon="6.76567">
        <ele>438.9</ele>
        <time>2017-05-14T06:59:05.000Z</time>
      </trkpt>
      <trkpt lat="47.50198" lon="6.76566">
        <ele>438.8</ele>
        <time>2017-05-14T06:59:06.000Z</time>
      </trkpt>
      <trkpt lat="47.50201" lon="6.76566">
        <ele>438.7</ele>
        <time>2017-05-14T06:59:07.000Z</time>
      </trkpt>
      <trkpt lat="47.50205" lon="6.76564">
        <ele>438.6</ele>
        <time>2017-05-14T06:59:08.000Z</time>
      </trkpt>
      <trkpt lat="47.50209" lon="6.76564">
        <ele>438.6</ele>
        <time>2017-05-14T06:59:09.000Z</time>
      </trkpt>
      <trkpt lat="47.50212" lon="6.76562">
        <ele>438.5</ele>
        <time>2017-05-14T06:59:10.000Z</time>
      </trkpt>
      <trkpt lat="47.50217" lon="6.76559">
        <ele>437.4</ele>
        <time>2017-05-14T06:59:11.000Z</time>
      </trkpt>
      <trkpt lat="47.50218" lon="6.76552">
        <ele>436.6</ele>
        <time>2017-05-14T06:59:13.000Z</time>
      </trkpt>
      <trkpt lat="47.50218" lon="6.76552">
        <ele>436.6</ele>
        <time>2017-05-14T06:59:14.000Z</time>
      </trkpt>
      <trkpt lat="47.50217" lon="6.76548">
        <ele>436.5</ele>
        <time>2017-05-14T06:59:15.000Z</time>
      </trkpt>
      <trkpt lat="47.50215" lon="6.76542">
        <ele>435.4</ele>
        <time>2017-05-14T06:59:16.000Z</time>
      </trkpt>
      <trkpt lat="47.50214" lon="6.76538">
        <ele>435.4</ele>
        <time>2017-05-14T06:59:17.000Z</time>
      </trkpt>
      <trkpt lat="47.50213" lon="6.76532">
        <ele>434.6</ele>
        <time>2017-05-14T06:59:18.000Z</time>
      </trkpt>
      <trkpt lat="47.50211" lon="6.76525">
        <ele>433.7</ele>
        <time>2017-05-14T06:59:19.000Z</time>
      </trkpt>
      <trkpt lat="47.50208" lon="6.76516">
        <ele>432.9</ele>
        <time>2017-05-14T06:59:20.000Z</time>
      </trkpt>
      <trkpt lat="47.50204" lon="6.76506">
        <ele>430.4</ele>
        <time>2017-05-14T06:59:21.000Z</time>
      </trkpt>
      <trkpt lat="47.50201" lon="6.76494">
        <ele>428.4</ele>
        <time>2017-05-14T06:59:22.000Z</time>
      </trkpt>
      <trkpt lat="47.50198" lon="6.76484">
        <ele>426.9</ele>
        <time>2017-05-14T06:59:23.000Z</time>
      </trkpt>
      <trkpt lat="47.50195" lon="6.76473">
        <ele>425.4</ele>
        <time>2017-05-14T06:59:24.000Z</time>
      </trkpt>
      <trkpt lat="47.50191" lon="6.76466">
        <ele>423.9</ele>
        <time>2017-05-14T06:59:25.000Z</time>
      </trkpt>
      <trkpt lat="47.50187" lon="6.76456">
        <ele>422.6</ele>
        <time>2017-05-14T06:59:26.000Z</time>
      </trkpt>
      <trkpt lat="47.50182" lon="6.76445">
        <ele>421</ele>
        <time>2017-05-14T06:59:27.000Z</time>
      </trkpt>
      <trkpt lat="47.5018" lon="6.76437">
        <ele>419.6</ele>
        <time>2017-05-14T06:59:28.000Z</time>
      </trkpt>
      <trkpt lat="47.50179" lon="6.76431">
        <ele>419.6</ele>
        <time>2017-05-14T06:59:29.000Z</time>
      </trkpt>
      <trkpt lat="47.50175" lon="6.76423">
        <ele>418.9</ele>
        <time>2017-05-14T06:59:30.000Z</time>
      </trkpt>
      <trkpt lat="47.50173" lon="6.76415">
        <ele>417.7</ele>
        <time>2017-05-14T06:59:31.000Z</time>
      </trkpt>
      <trkpt lat="47.50171" lon="6.76407">
        <ele>416.7</ele>
        <time>2017-05-14T06:59:32.000Z</time>
      </trkpt>
      <trkpt lat="47.50166" lon="6.76395">
        <ele>416.4</ele>
        <time>2017-05-14T06:59:33.000Z</time>
      </trkpt>
      <trkpt lat="47.50163" lon="6.76388">
        <ele>416.1</ele>
        <time>2017-05-14T06:59:34.000Z</time>
      </trkpt>
      <trkpt lat="47.50159" lon="6.76379">
        <ele>415.5</ele>
        <time>2017-05-14T06:59:35.000Z</time>
      </trkpt>
      <trkpt lat="47.50157" lon="6.76371">
        <ele>415.3</ele>
        <time>2017-05-14T06:59:36.000Z</time>
      </trkpt>
      <trkpt lat="47.50156" lon="6.76363">
        <ele>414.5</ele>
        <time>2017-05-14T06:59:37.000Z</time>
      </trkpt>
      <trkpt lat="47.50152" lon="6.76352">
        <ele>413.4</ele>
        <time>2017-05-14T06:59:38.000Z</time>
      </trkpt>
      <trkpt lat="47.50147" lon="6.76343">
        <ele>412.5</ele>
        <time>2017-05-14T06:59:39.000Z</time>
      </trkpt>
      <trkpt lat="47.50147" lon="6.76332">
        <ele>412.4</ele>
        <time>2017-05-14T06:59:40.000Z</time>
      </trkpt>
      <trkpt lat="47.50149" lon="6.76323">
        <ele>412.3</ele>
        <time>2017-05-14T06:59:41.000Z</time>
      </trkpt>
      <trkpt lat="47.50145" lon="6.76313">
        <ele>410.6</ele>
        <time>2017-05-14T06:59:42.000Z</time>
      </trkpt>
      <trkpt lat="47.50138" lon="6.76284">
        <ele>409.5</ele>
        <time>2017-05-14T06:59:43.000Z</time>
      </trkpt>
      <trkpt lat="47.50136" lon="6.76265">
        <ele>409.7</ele>
        <time>2017-05-14T06:59:44.000Z</time>
      </trkpt>
      <trkpt lat="47.50134" lon="6.76242">
        <ele>409.5</ele>
        <time>2017-05-14T06:59:45.000Z</time>
      </trkpt>
      <trkpt lat="47.50134" lon="6.7623">
        <ele>409.4</ele>
        <time>2017-05-14T06:59:46.000Z</time>
      </trkpt>
      <trkpt lat="47.50133" lon="6.76219">
        <ele>409.4</ele>
        <time>2017-05-14T06:59:47.000Z</time>
      </trkpt>
      <trkpt lat="47.50131" lon="6.76204">
        <ele>408.9</ele>
        <time>2017-05-14T06:59:48.000Z</time>
      </trkpt>
      <trkpt lat="47.50128" lon="6.76193">
        <ele>408.8</ele>
        <time>2017-05-14T06:59:49.000Z</time>
      </trkpt>
      <trkpt lat="47.50127" lon="6.76184">
        <ele>409</ele>
        <time>2017-05-14T06:59:50.000Z</time>
      </trkpt>
      <trkpt lat="47.50128" lon="6.76177">
        <ele>409</ele>
        <time>2017-05-14T06:59:51.000Z</time>
      </trkpt>
      <trkpt lat="47.50125" lon="6.76166">
        <ele>409.2</ele>
        <time>2017-05-14T06:59:52.000Z</time>
      </trkpt>
      <trkpt lat="47.50122" lon="6.76149">
        <ele>409.4</ele>
        <time>2017-05-14T06:59:53.000Z</time>
      </trkpt>
      <trkpt lat="47.5012" lon="6.76135">
        <ele>411.1</ele>
        <time>2017-05-14T06:59:54.000Z</time>
      </trkpt>
      <trkpt lat="47.50116" lon="6.76123">
        <ele>412.7</ele>
        <time>2017-05-14T06:59:55.000Z</time>
      </trkpt>
      <trkpt lat="47.50112" lon="6.76111">
        <ele>413.9</ele>
        <time>2017-05-14T06:59:56.000Z</time>
      </trkpt>
      <trkpt lat="47.5011" lon="6.76099">
        <ele>415.3</ele>
        <time>2017-05-14T06:59:57.000Z</time>
      </trkpt>
      <trkpt lat="47.50107" lon="6.76089">
        <ele>415.9</ele>
        <time>2017-05-14T06:59:58.000Z</time>
      </trkpt>
      <trkpt lat="47.50104" lon="6.76077">
        <ele>416.4</ele>
        <time>2017-05-14T06:59:59.000Z</time>
      </trkpt>
      <trkpt lat="47.50101" lon="6.76067">
        <ele>417.6</ele>
        <time>2017-05-14T07:00:00.000Z</time>
      </trkpt>
      <trkpt lat="47.501" lon="6.76055">
        <ele>418.3</ele>
        <time>2017-05-14T07:00:01.000Z</time>
      </trkpt>
      <trkpt lat="47.50097" lon="6.76043">
        <ele>417.3</ele>
        <time>2017-05-14T07:00:02.000Z</time>
      </trkpt>
      <trkpt lat="47.50095" lon="6.76025">
        <ele>416</ele>
        <time>2017-05-14T07:00:03.000Z</time>
      </trkpt>
      <trkpt lat="47.50094" lon="6.76015">
        <ele>415.9</ele>
        <time>2017-05-14T07:00:04.000Z</time>
      </trkpt>
      <trkpt lat="47.5009" lon="6.76005">
        <ele>415.8</ele>
        <time>2017-05-14T07:00:05.000Z</time>
      </trkpt>
      <trkpt lat="47.50085" lon="6.75996">
        <ele>416.4</ele>
        <time>2017-05-14T07:00:06.000Z</time>
      </trkpt>
      <trkpt lat="47.50081" lon="6.75989">
        <ele>417.1</ele>
        <time>2017-05-14T07:00:07.000Z</time>
      </trkpt>
      <trkpt lat="47.50077" lon="6.75982">
        <ele>417.7</ele>
        <time>2017-05-14T07:00:08.000Z</time>
      </trkpt>
      <trkpt lat="47.50069" lon="6.75967">
        <ele>418.7</ele>
        <time>2017-05-14T07:00:09.000Z</time>
      </trkpt>
      <trkpt lat="47.50063" lon="6.75955">
        <ele>419.4</ele>
        <time>2017-05-14T07:00:10.000Z</time>
      </trkpt>
      <trkpt lat="47.50058" lon="6.75946">
        <ele>420</ele>
        <time>2017-05-14T07:00:11.000Z</time>
      </trkpt>
      <trkpt lat="47.50054" lon="6.75937">
        <ele>420.7</ele>
        <time>2017-05-14T07:00:12.000Z</time>
      </trkpt>
      <trkpt lat="47.50049" lon="6.75929">
        <ele>420.3</ele>
        <time>2017-05-14T07:00:13.000Z</time>
      </trkpt>
      <trkpt lat="47.50045" lon="6.75921">
        <ele>420.1</ele>
        <time>2017-05-14T07:00:14.000Z</time>
      </trkpt>
      <trkpt lat="47.50043" lon="6.75915">
        <ele>419.8</ele>
        <time>2017-05-14T07:00:15.000Z</time>
      </trkpt>
      <trkpt lat="47.50039" lon="6.75908">
        <ele>419.5</ele>
        <time>2017-05-14T07:00:16.000Z</time>
      </trkpt>
      <trkpt lat="47.50033" lon="6.75903">
        <ele>419.3</ele>
        <time>2017-05-14T07:00:17.000Z</time>
      </trkpt>
      <trkpt lat="47.50026" lon="6.75896">
        <ele>419.3</ele>
        <time>2017-05-14T07:00:18.000Z</time>
      </trkpt>
      <trkpt lat="47.5002" lon="6.7589">
        <ele>419.3</ele>
        <time>2017-05-14T07:00:19.000Z</time>
      </trkpt>
      <trkpt lat="47.50014" lon="6.75882">
        <ele>419.3</ele>
        <time>2017-05-14T07:00:20.000Z</time>
      </trkpt>
      <trkpt lat="47.5001" lon="6.75872">
        <ele>419.4</ele>
        <time>2017-05-14T07:00:21.000Z</time>
      </trkpt>
      <trkpt lat="47.50004" lon="6.75864">
        <ele>421.7</ele>
        <time>2017-05-14T07:00:22.000Z</time>
      </trkpt>
      <trkpt lat="47.5" lon="6.75857">
        <ele>421.7</ele>
        <time>2017-05-14T07:00:23.000Z</time>
      </trkpt>
      <trkpt lat="47.49996" lon="6.75856">
        <ele>421.7</ele>
        <time>2017-05-14T07:00:25.000Z</time>
      </trkpt>
      <trkpt lat="47.49992" lon="6.75854">
        <ele>421.5</ele>
        <time>2017-05-14T07:00:26.000Z</time>
      </trkpt>
      <trkpt lat="47.49985" lon="6.75849">
        <ele>421.2</ele>
        <time>2017-05-14T07:00:27.000Z</time>
      </trkpt>
      <trkpt lat="47.49981" lon="6.7584">
        <ele>421</ele>
        <time>2017-05-14T07:00:28.000Z</time>
      </trkpt>
      <trkpt lat="47.49977" lon="6.75829">
        <ele>419.1</ele>
        <time>2017-05-14T07:00:29.000Z</time>
      </trkpt>
      <trkpt lat="47.4997" lon="6.75819">
        <ele>415.8</ele>
        <time>2017-05-14T07:00:30.000Z</time>
      </trkpt>
      <trkpt lat="47.49963" lon="6.75809">
        <ele>412.9</ele>
        <time>2017-05-14T07:00:31.000Z</time>
      </trkpt>
      <trkpt lat="47.49955" lon="6.75797">
        <ele>411.8</ele>
        <time>2017-05-14T07:00:32.000Z</time>
      </trkpt>
      <trkpt lat="47.49947" lon="6.75779">
        <ele>412</ele>
        <time>2017-05-14T07:00:33.000Z</time>
      </trkpt>
      <trkpt lat="47.4994" lon="6.75765">
        <ele>412.1</ele>
        <time>2017-05-14T07:00:34.000Z</time>
      </trkpt>
      <trkpt lat="47.49933" lon="6.75752">
        <ele>412</ele>
        <time>2017-05-14T07:00:35.000Z</time>
      </trkpt>
      <trkpt lat="47.49926" lon="6.75739">
        <ele>412.5</ele>
        <time>2017-05-14T07:00:36.000Z</time>
      </trkpt>
      <trkpt lat="47.49918" lon="6.7573">
        <ele>411.3</ele>
        <time>2017-05-14T07:00:37.000Z</time>
      </trkpt>
      <trkpt lat="47.49912" lon="6.75726">
        <ele>410.4</ele>
        <time>2017-05-14T07:00:38.000Z</time>
      </trkpt>
      <trkpt lat="47.49905" lon="6.75725">
        <ele>407.9</ele>
        <time>2017-05-14T07:00:39.000Z</time>
      </trkpt>
      <trkpt lat="47.49897" lon="6.75722">
        <ele>406.4</ele>
        <time>2017-05-14T07:00:40.000Z</time>
      </trkpt>
      <trkpt lat="47.49889" lon="6.75721">
        <ele>404.1</ele>
        <time>2017-05-14T07:00:41.000Z</time>
      </trkpt>
      <trkpt lat="47.49881" lon="6.75724">
        <ele>401.7</ele>
        <time>2017-05-14T07:00:42.000Z</time>
      </trkpt>
      <trkpt lat="47.49871" lon="6.75726">
        <ele>398.4</ele>
        <time>2017-05-14T07:00:43.000Z</time>
      </trkpt>
      <trkpt lat="47.49863" lon="6.75728">
        <ele>396.3</ele>
        <time>2017-05-14T07:00:44.000Z</time>
      </trkpt>
      <trkpt lat="47.49855" lon="6.7573">
        <ele>394.7</ele>
        <time>2017-05-14T07:00:45.000Z</time>
      </trkpt>
      <trkpt lat="47.49845" lon="6.75732">
        <ele>393.6</ele>
        <time>2017-05-14T07:00:46.000Z</time>
      </trkpt>
      <trkpt lat="47.49832" lon="6.75729">
        <ele>392.2</ele>
        <time>2017-05-14T07:00:47.000Z</time>
      </trkpt>
      <trkpt lat="47.4982" lon="6.75728">
        <ele>391.9</ele>
        <time>2017-05-14T07:00:48.000Z</time>
      </trkpt>
      <trkpt lat="47.4981" lon="6.75732">
        <ele>391.1</ele>
        <time>2017-05-14T07:00:49.000Z</time>
      </trkpt>
      <trkpt lat="47.49787" lon="6.75737">
        <ele>387.1</ele>
        <time>2017-05-14T07:00:51.000Z</time>
      </trkpt>
      <trkpt lat="47.49777" lon="6.75742">
        <ele>386.1</ele>
        <time>2017-05-14T07:00:52.000Z</time>
      </trkpt>
      <trkpt lat="47.49768" lon="6.75746">
        <ele>386.7</ele>
        <time>2017-05-14T07:00:53.000Z</time>
      </trkpt>
      <trkpt lat="47.49759" lon="6.7575">
        <ele>386.9</ele>
        <time>2017-05-14T07:00:54.000Z</time>
      </trkpt>
      <trkpt lat="47.4975" lon="6.75755">
        <ele>387.3</ele>
        <time>2017-05-14T07:00:55.000Z</time>
      </trkpt>
      <trkpt lat="47.49741" lon="6.75759">
        <ele>388.2</ele>
        <time>2017-05-14T07:00:56.000Z</time>
      </trkpt>
      <trkpt lat="47.49732" lon="6.75763">
        <ele>388.5</ele>
        <time>2017-05-14T07:00:57.000Z</time>
      </trkpt>
      <trkpt lat="47.49724" lon="6.75766">
        <ele>389</ele>
        <time>2017-05-14T07:00:58.000Z</time>
      </trkpt>
      <trkpt lat="47.49715" lon="6.75769">
        <ele>389.5</ele>
        <time>2017-05-14T07:00:59.000Z</time>
      </trkpt>
      <trkpt lat="47.49708" lon="6.75772">
        <ele>389.4</ele>
        <time>2017-05-14T07:01:00.000Z</time>
      </trkpt>
      <trkpt lat="47.497" lon="6.75775">
        <ele>389.7</ele>
        <time>2017-05-14T07:01:01.000Z</time>
      </trkpt>
      <trkpt lat="47.49692" lon="6.75778">
        <ele>389.9</ele>
        <time>2017-05-14T07:01:02.000Z</time>
      </trkpt>
      <trkpt lat="47.49684" lon="6.7578">
        <ele>389.8</ele>
        <time>2017-05-14T07:01:03.000Z</time>
      </trkpt>
      <trkpt lat="47.49677" lon="6.75783">
        <ele>390</ele>
        <time>2017-05-14T07:01:04.000Z</time>
      </trkpt>
      <trkpt lat="47.49669" lon="6.75785">
        <ele>390.1</ele>
        <time>2017-05-14T07:01:05.000Z</time>
      </trkpt>
      <trkpt lat="47.49663" lon="6.75789">
        <ele>389.7</ele>
        <time>2017-05-14T07:01:06.000Z</time>
      </trkpt>
      <trkpt lat="47.49656" lon="6.75792">
        <ele>390.1</ele>
        <time>2017-05-14T07:01:07.000Z</time>
      </trkpt>
      <trkpt lat="47.49649" lon="6.75795">
        <ele>390.6</ele>
        <time>2017-05-14T07:01:08.000Z</time>
      </trkpt>
      <trkpt lat="47.49641" lon="6.75795">
        <ele>389.8</ele>
        <time>2017-05-14T07:01:09.000Z</time>
      </trkpt>
      <trkpt lat="47.49634" lon="6.75794">
        <ele>389</ele>
        <time>2017-05-14T07:01:10.000Z</time>
      </trkpt>
      <trkpt lat="47.49627" lon="6.75793">
        <ele>388.4</ele>
        <time>2017-05-14T07:01:11.000Z</time>
      </trkpt>
      <trkpt lat="47.49619" lon="6.75789">
        <ele>387.7</ele>
        <time>2017-05-14T07:01:12.000Z</time>
      </trkpt>
      <trkpt lat="47.49613" lon="6.75787">
        <ele>386.2</ele>
        <time>2017-05-14T07:01:13.000Z</time>
      </trkpt>
      <trkpt lat="47.49609" lon="6.75784">
        <ele>386</ele>
        <time>2017-05-14T07:01:14.000Z</time>
      </trkpt>
      <trkpt lat="47.49606" lon="6.75783">
        <ele>385.7</ele>
        <time>2017-05-14T07:01:21.000Z</time>
      </trkpt>
      <trkpt lat="47.49588" lon="6.75783">
        <ele>385.6</ele>
        <time>2017-05-14T07:01:22.000Z</time>
      </trkpt>
      <trkpt lat="47.49588" lon="6.75783">
        <ele>385.6</ele>
        <time>2017-05-14T07:01:24.000Z</time>
      </trkpt>
      <trkpt lat="47.4957" lon="6.75782">
        <ele>385.5</ele>
        <time>2017-05-14T07:01:25.000Z</time>
      </trkpt>
      <trkpt lat="47.4957" lon="6.75782">
        <ele>385.3</ele>
        <time>2017-05-14T07:01:26.000Z</time>
      </trkpt>
      <trkpt lat="47.49558" lon="6.75775">
        <ele>385.1</ele>
        <time>2017-05-14T07:01:27.000Z</time>
      </trkpt>
      <trkpt lat="47.49554" lon="6.75771">
        <ele>384.9</ele>
        <time>2017-05-14T07:01:28.000Z</time>
      </trkpt>
      <trkpt lat="47.49551" lon="6.75766">
        <ele>384.7</ele>
        <time>2017-05-14T07:01:29.000Z</time>
      </trkpt>
      <trkpt lat="47.4955" lon="6.75762">
        <ele>384.5</ele>
        <time>2017-05-14T07:01:30.000Z</time>
      </trkpt>
      <trkpt lat="47.49553" lon="6.75756">
        <ele>383.6</ele>
        <time>2017-05-14T07:01:31.000Z</time>
      </trkpt>
      <trkpt lat="47.49556" lon="6.75753">
        <ele>383.5</ele>
        <time>2017-05-14T07:01:32.000Z</time>
      </trkpt>
      <trkpt lat="47.49561" lon="6.75749">
        <ele>383.4</ele>
        <time>2017-05-14T07:01:33.000Z</time>
      </trkpt>
      <trkpt lat="47.49565" lon="6.75745">
        <ele>383.3</ele>
        <time>2017-05-14T07:01:34.000Z</time>
      </trkpt>
      <trkpt lat="47.4957" lon="6.7574">
        <ele>383.1</ele>
        <time>2017-05-14T07:01:35.000Z</time>
      </trkpt>
      <trkpt lat="47.49574" lon="6.75734">
        <ele>381.2</ele>
        <time>2017-05-14T07:01:36.000Z</time>
      </trkpt>
      <trkpt lat="47.49579" lon="6.75729">
        <ele>379.8</ele>
        <time>2017-05-14T07:01:37.000Z</time>
      </trkpt>
      <trkpt lat="47.49583" lon="6.75724">
        <ele>379.4</ele>
        <time>2017-05-14T07:01:38.000Z</time>
      </trkpt>
      <trkpt lat="47.49587" lon="6.75719">
        <ele>378.9</ele>
        <time>2017-05-14T07:01:39.000Z</time>
      </trkpt>
      <trkpt lat="47.4959" lon="6.75714">
        <ele>378.7</ele>
        <time>2017-05-14T07:01:40.000Z</time>
      </trkpt>
      <trkpt lat="47.49594" lon="6.75707">
        <ele>378.1</ele>
        <time>2017-05-14T07:01:41.000Z</time>
      </trkpt>
      <trkpt lat="47.49596" lon="6.757">
        <ele>377.7</ele>
        <time>2017-05-14T07:01:42.000Z</time>
      </trkpt>
      <trkpt lat="47.49595" lon="6.75691">
        <ele>378</ele>
        <time>2017-05-14T07:01:43.000Z</time>
      </trkpt>
      <trkpt lat="47.49593" lon="6.75684">
        <ele>377.8</ele>
        <time>2017-05-14T07:01:44.000Z</time>
      </trkpt>
      <trkpt lat="47.4959" lon="6.75677">
        <ele>377.3</ele>
        <time>2017-05-14T07:01:45.000Z</time>
      </trkpt>
      <trkpt lat="47.49586" lon="6.7567">
        <ele>376.8</ele>
        <time>2017-05-14T07:01:46.000Z</time>
      </trkpt>
      <trkpt lat="47.49581" lon="6.75665">
        <ele>376.6</ele>
        <time>2017-05-14T07:01:47.000Z</time>
      </trkpt>
      <trkpt lat="47.49575" lon="6.7566">
        <ele>376.7</ele>
        <time>2017-05-14T07:01:48.000Z</time>
      </trkpt>
      <trkpt lat="47.49569" lon="6.7566">
        <ele>376.8</ele>
        <time>2017-05-14T07:01:49.000Z</time>
      </trkpt>
      <trkpt lat="47.49565" lon="6.75666">
        <ele>376.9</ele>
        <time>2017-05-14T07:01:50.000Z</time>
      </trkpt>
      <trkpt lat="47.49561" lon="6.75673">
        <ele>377.3</ele>
        <time>2017-05-14T07:01:51.000Z</time>
      </trkpt>
      <trkpt lat="47.49557" lon="6.7568">
        <ele>377.6</ele>
        <time>2017-05-14T07:01:52.000Z</time>
      </trkpt>
      <trkpt lat="47.49553" lon="6.75688">
        <ele>377.1</ele>
        <time>2017-05-14T07:01:53.000Z</time>
      </trkpt>
      <trkpt lat="47.49549" lon="6.75695">
        <ele>376.6</ele>
        <time>2017-05-14T07:01:54.000Z</time>
      </trkpt>
      <trkpt lat="47.49544" lon="6.75702">
        <ele>375.9</ele>
        <time>2017-05-14T07:01:55.000Z</time>
      </trkpt>
      <trkpt lat="47.4954" lon="6.75708">
        <ele>375.2</ele>
        <time>2017-05-14T07:01:56.000Z</time>
      </trkpt>
      <trkpt lat="47.49536" lon="6.75713">
        <ele>374.6</ele>
        <time>2017-05-14T07:01:57.000Z</time>
      </trkpt>
      <trkpt lat="47.49532" lon="6.75718">
        <ele>374.1</ele>
        <time>2017-05-14T07:01:58.000Z</time>
      </trkpt>
      <trkpt lat="47.49528" lon="6.75723">
        <ele>373.6</ele>
        <time>2017-05-14T07:01:59.000Z</time>
      </trkpt>
      <trkpt lat="47.49524" lon="6.75727">
        <ele>372.5</ele>
        <time>2017-05-14T07:02:00.000Z</time>
      </trkpt>
      <trkpt lat="47.49519" lon="6.7573">
        <ele>371.6</ele>
        <time>2017-05-14T07:02:01.000Z</time>
      </trkpt>
      <trkpt lat="47.49515" lon="6.75732">
        <ele>371.4</ele>
        <time>2017-05-14T07:02:02.000Z</time>
      </trkpt>
      <trkpt lat="47.49511" lon="6.75735">
        <ele>370.1</ele>
        <time>2017-05-14T07:02:03.000Z</time>
      </trkpt>
      <trkpt lat="47.49507" lon="6.75738">
        <ele>369.7</ele>
        <time>2017-05-14T07:02:04.000Z</time>
      </trkpt>
      <trkpt lat="47.49503" lon="6.75741">
        <ele>369.5</ele>
        <time>2017-05-14T07:02:05.000Z</time>
      </trkpt>
      <trkpt lat="47.49497" lon="6.75742">
        <ele>368.3</ele>
        <time>2017-05-14T07:02:06.000Z</time>
      </trkpt>
      <trkpt lat="47.49491" lon="6.75742">
        <ele>367.6</ele>
        <time>2017-05-14T07:02:07.000Z</time>
      </trkpt>
      <trkpt lat="47.49491" lon="6.75742">
        <ele>367.6</ele>
        <time>2017-05-14T07:02:08.000Z</time>
      </trkpt>
      <trkpt lat="47.49487" lon="6.75736">
        <ele>366.6</ele>
        <time>2017-05-14T07:02:09.000Z</time>
      </trkpt>
      <trkpt lat="47.49484" lon="6.75728">
        <ele>366.3</ele>
        <time>2017-05-14T07:02:10.000Z</time>
      </trkpt>
      <trkpt lat="47.4948" lon="6.75719">
        <ele>366.2</ele>
        <time>2017-05-14T07:02:11.000Z</time>
      </trkpt>
      <trkpt lat="47.49476" lon="6.75711">
        <ele>367.4</ele>
        <time>2017-05-14T07:02:12.000Z</time>
      </trkpt>
      <trkpt lat="47.49473" lon="6.75704">
        <ele>369.1</ele>
        <time>2017-05-14T07:02:13.000Z</time>
      </trkpt>
      <trkpt lat="47.49468" lon="6.757">
        <ele>370.1</ele>
        <time>2017-05-14T07:02:14.000Z</time>
      </trkpt>
      <trkpt lat="47.49463" lon="6.75699">
        <ele>371</ele>
        <time>2017-05-14T07:02:15.000Z</time>
      </trkpt>
      <trkpt lat="47.49459" lon="6.75699">
        <ele>372</ele>
        <time>2017-05-14T07:02:16.000Z</time>
      </trkpt>
      <trkpt lat="47.49454" lon="6.75701">
        <ele>372.3</ele>
        <time>2017-05-14T07:02:17.000Z</time>
      </trkpt>
      <trkpt lat="47.49449" lon="6.757">
        <ele>371.8</ele>
        <time>2017-05-14T07:02:18.000Z</time>
      </trkpt>
      <trkpt lat="47.49444" lon="6.75696">
        <ele>371.8</ele>
        <time>2017-05-14T07:02:19.000Z</time>
      </trkpt>
      <trkpt lat="47.49442" lon="6.75692">
        <ele>371.7</ele>
        <time>2017-05-14T07:02:20.000Z</time>
      </trkpt>
      <trkpt lat="47.4944" lon="6.75685">
        <ele>371.7</ele>
        <time>2017-05-14T07:02:21.000Z</time>
      </trkpt>
      <trkpt lat="47.49438" lon="6.75679">
        <ele>370.5</ele>
        <time>2017-05-14T07:02:22.000Z</time>
      </trkpt>
      <trkpt lat="47.49436" lon="6.75674">
        <ele>370</ele>
        <time>2017-05-14T07:02:23.000Z</time>
      </trkpt>
      <trkpt lat="47.49435" lon="6.7567">
        <ele>370</ele>
        <time>2017-05-14T07:02:24.000Z</time>
      </trkpt>
      <trkpt lat="47.49433" lon="6.75667">
        <ele>370.1</ele>
        <time>2017-05-14T07:02:25.000Z</time>
      </trkpt>
      <trkpt lat="47.49431" lon="6.7567">
        <ele>370.2</ele>
        <time>2017-05-14T07:02:26.000Z</time>
      </trkpt>
      <trkpt lat="47.49429" lon="6.75671">
        <ele>370.2</ele>
        <time>2017-05-14T07:02:27.000Z</time>
      </trkpt>
      <trkpt lat="47.49426" lon="6.75675">
        <ele>370.3</ele>
        <time>2017-05-14T07:02:28.000Z</time>
      </trkpt>
      <trkpt lat="47.49421" lon="6.75679">
        <ele>370.4</ele>
        <time>2017-05-14T07:02:29.000Z</time>
      </trkpt>
      <trkpt lat="47.49418" lon="6.75682">
        <ele>370.4</ele>
        <time>2017-05-14T07:02:30.000Z</time>
      </trkpt>
      <trkpt lat="47.49414" lon="6.75685">
        <ele>370.4</ele>
        <time>2017-05-14T07:02:31.000Z</time>
      </trkpt>
      <trkpt lat="47.49407" lon="6.75689">
        <ele>369.6</ele>
        <time>2017-05-14T07:02:32.000Z</time>
      </trkpt>
      <trkpt lat="47.494" lon="6.75692">
        <ele>367.7</ele>
        <time>2017-05-14T07:02:33.000Z</time>
      </trkpt>
      <trkpt lat="47.49393" lon="6.75698">
        <ele>366</ele>
        <time>2017-05-14T07:02:34.000Z</time>
      </trkpt>
      <trkpt lat="47.49387" lon="6.75703">
        <ele>365.9</ele>
        <time>2017-05-14T07:02:35.000Z</time>
      </trkpt>
      <trkpt lat="47.49381" lon="6.75708">
        <ele>365.1</ele>
        <time>2017-05-14T07:02:36.000Z</time>
      </trkpt>
      <trkpt lat="47.49378" lon="6.75711">
        <ele>365</ele>
        <time>2017-05-14T07:02:37.000Z</time>
      </trkpt>
      <trkpt lat="47.49375" lon="6.75711">
        <ele>364.9</ele>
        <time>2017-05-14T07:02:38.000Z</time>
      </trkpt>
      <trkpt lat="47.49371" lon="6.75712">
        <ele>364.6</ele>
        <time>2017-05-14T07:02:41.000Z</time>
      </trkpt>
      <trkpt lat="47.49368" lon="6.75713">
        <ele>364.5</ele>
        <time>2017-05-14T07:02:42.000Z</time>
      </trkpt>
      <trkpt lat="47.49364" lon="6.75715">
        <ele>364.5</ele>
        <time>2017-05-14T07:02:43.000Z</time>
      </trkpt>
      <trkpt lat="47.49359" lon="6.75717">
        <ele>365.1</ele>
        <time>2017-05-14T07:02:44.000Z</time>
      </trkpt>
      <trkpt lat="47.49354" lon="6.7572">
        <ele>365.8</ele>
        <time>2017-05-14T07:02:45.000Z</time>
      </trkpt>
      <trkpt lat="47.49346" lon="6.75724">
        <ele>367.2</ele>
        <time>2017-05-14T07:02:46.000Z</time>
      </trkpt>
      <trkpt lat="47.4934" lon="6.75728">
        <ele>368.5</ele>
        <time>2017-05-14T07:02:47.000Z</time>
      </trkpt>
      <trkpt lat="47.49333" lon="6.75732">
        <ele>371.1</ele>
        <time>2017-05-14T07:02:48.000Z</time>
      </trkpt>
      <trkpt lat="47.49328" lon="6.75737">
        <ele>371.7</ele>
        <time>2017-05-14T07:02:49.000Z</time>
      </trkpt>
      <trkpt lat="47.49322" lon="6.75746">
        <ele>371.9</ele>
        <time>2017-05-14T07:02:51.000Z</time>
      </trkpt>
      <trkpt lat="47.49319" lon="6.75749">
        <ele>371.9</ele>
        <time>2017-05-14T07:02:52.000Z</time>
      </trkpt>
      <trkpt lat="47.49314" lon="6.75754">
        <ele>371.7</ele>
        <time>2017-05-14T07:02:53.000Z</time>
      </trkpt>
      <trkpt lat="47.4931" lon="6.7576">
        <ele>370.5</ele>
        <time>2017-05-14T07:02:54.000Z</time>
      </trkpt>
      <trkpt lat="47.49304" lon="6.75766">
        <ele>369.6</ele>
        <time>2017-05-14T07:02:55.000Z</time>
      </trkpt>
      <trkpt lat="47.493" lon="6.75769">
        <ele>369.5</ele>
        <time>2017-05-14T07:02:56.000Z</time>
      </trkpt>
      <trkpt lat="47.49296" lon="6.75772">
        <ele>369.5</ele>
        <time>2017-05-14T07:02:57.000Z</time>
      </trkpt>
      <trkpt lat="47.49291" lon="6.7578">
        <ele>369.2</ele>
        <time>2017-05-14T07:02:58.000Z</time>
      </trkpt>
      <trkpt lat="47.49286" lon="6.75789">
        <ele>368.1</ele>
        <time>2017-05-14T07:02:59.000Z</time>
      </trkpt>
      <trkpt lat="47.49281" lon="6.75797">
        <ele>367.4</ele>
        <time>2017-05-14T07:03:00.000Z</time>
      </trkpt>
      <trkpt lat="47.49277" lon="6.75804">
        <ele>367.3</ele>
        <time>2017-05-14T07:03:01.000Z</time>
      </trkpt>
      <trkpt lat="47.49271" lon="6.75811">
        <ele>367.8</ele>
        <time>2017-05-14T07:03:02.000Z</time>
      </trkpt>
      <trkpt lat="47.49264" lon="6.75823">
        <ele>368</ele>
        <time>2017-05-14T07:03:03.000Z</time>
      </trkpt>
      <trkpt lat="47.49258" lon="6.75834">
        <ele>368.4</ele>
        <time>2017-05-14T07:03:04.000Z</time>
      </trkpt>
      <trkpt lat="47.49254" lon="6.75843">
        <ele>367.6</ele>
        <time>2017-05-14T07:03:05.000Z</time>
      </trkpt>
      <trkpt lat="47.49249" lon="6.75854">
        <ele>366.4</ele>
        <time>2017-05-14T07:03:06.000Z</time>
      </trkpt>
      <trkpt lat="47.49243" lon="6.75865">
        <ele>365.1</ele>
        <time>2017-05-14T07:03:07.000Z</time>
      </trkpt>
      <trkpt lat="47.4924" lon="6.75873">
        <ele>363.9</ele>
        <time>2017-05-14T07:03:08.000Z</time>
      </trkpt>
      <trkpt lat="47.49237" lon="6.75879">
        <ele>361.6</ele>
        <time>2017-05-14T07:03:09.000Z</time>
      </trkpt>
      <trkpt lat="47.49235" lon="6.75885">
        <ele>361.3</ele>
        <time>2017-05-14T07:03:10.000Z</time>
      </trkpt>
      <trkpt lat="47.49233" lon="6.75889">
        <ele>361.1</ele>
        <time>2017-05-14T07:03:11.000Z</time>
      </trkpt>
      <trkpt lat="47.49233" lon="6.75889">
        <ele>361</ele>
        <time>2017-05-14T07:03:13.000Z</time>
      </trkpt>
      <trkpt lat="47.49226" lon="6.75912">
        <ele>360.7</ele>
        <time>2017-05-14T07:03:14.000Z</time>
      </trkpt>
      <trkpt lat="47.49223" lon="6.75919">
        <ele>360.5</ele>
        <time>2017-05-14T07:03:15.000Z</time>
      </trkpt>
      <trkpt lat="47.49219" lon="6.75928">
        <ele>358.6</ele>
        <time>2017-05-14T07:03:16.000Z</time>
      </trkpt>
      <trkpt lat="47.49215" lon="6.75938">
        <ele>356.8</ele>
        <time>2017-05-14T07:03:17.000Z</time>
      </trkpt>
      <trkpt lat="47.4921" lon="6.75949">
        <ele>354</ele>
        <time>2017-05-14T07:03:18.000Z</time>
      </trkpt>
      <trkpt lat="47.49205" lon="6.75959">
        <ele>351.6</ele>
        <time>2017-05-14T07:03:19.000Z</time>
      </trkpt>
      <trkpt lat="47.492" lon="6.7597">
        <ele>348.2</ele>
        <time>2017-05-14T07:03:20.000Z</time>
      </trkpt>
      <trkpt lat="47.49194" lon="6.75979">
        <ele>346.9</ele>
        <time>2017-05-14T07:03:21.000Z</time>
      </trkpt>
      <trkpt lat="47.49187" lon="6.75994">
        <ele>347</ele>
        <time>2017-05-14T07:03:22.000Z</time>
      </trkpt>
      <trkpt lat="47.49184" lon="6.75999">
        <ele>347.3</ele>
        <time>2017-05-14T07:03:23.000Z</time>
      </trkpt>
      <trkpt lat="47.49181" lon="6.76005">
        <ele>349.8</ele>
        <time>2017-05-14T07:03:24.000Z</time>
      </trkpt>
      <trkpt lat="47.49178" lon="6.76013">
        <ele>353</ele>
        <time>2017-05-14T07:03:25.000Z</time>
      </trkpt>
      <trkpt lat="47.49174" lon="6.7602">
        <ele>354.8</ele>
        <time>2017-05-14T07:03:26.000Z</time>
      </trkpt>
      <trkpt lat="47.4917" lon="6.76028">
        <ele>356.6</ele>
        <time>2017-05-14T07:03:27.000Z</time>
      </trkpt>
      <trkpt lat="47.49166" lon="6.76036">
        <ele>357.5</ele>
        <time>2017-05-14T07:03:28.000Z</time>
      </trkpt>
      <trkpt lat="47.49164" lon="6.76043">
        <ele>358.6</ele>
        <time>2017-05-14T07:03:29.000Z</time>
      </trkpt>
      <trkpt lat="47.49163" lon="6.76048">
        <ele>358.7</ele>
        <time>2017-05-14T07:03:30.000Z</time>
      </trkpt>
      <trkpt lat="47.49161" lon="6.76054">
        <ele>358.8</ele>
        <time>2017-05-14T07:03:31.000Z</time>
      </trkpt>
      <trkpt lat="47.4916" lon="6.7606">
        <ele>359.1</ele>
        <time>2017-05-14T07:03:32.000Z</time>
      </trkpt>
      <trkpt lat="47.49158" lon="6.76068">
        <ele>358.8</ele>
        <time>2017-05-14T07:03:33.000Z</time>
      </trkpt>
      <trkpt lat="47.49156" lon="6.76076">
        <ele>359.1</ele>
        <time>2017-05-14T07:03:34.000Z</time>
      </trkpt>
      <trkpt lat="47.49153" lon="6.76084">
        <ele>359.6</ele>
        <time>2017-05-14T07:03:35.000Z</time>
      </trkpt>
      <trkpt lat="47.49151" lon="6.76092">
        <ele>359.7</ele>
        <time>2017-05-14T07:03:36.000Z</time>
      </trkpt>
      <trkpt lat="47.49149" lon="6.761">
        <ele>360.8</ele>
        <time>2017-05-14T07:03:37.000Z</time>
      </trkpt>
      <trkpt lat="47.49147" lon="6.76106">
        <ele>360.9</ele>
        <time>2017-05-14T07:03:38.000Z</time>
      </trkpt>
      <trkpt lat="47.49146" lon="6.76113">
        <ele>361</ele>
        <time>2017-05-14T07:03:39.000Z</time>
      </trkpt>
      <trkpt lat="47.49145" lon="6.76121">
        <ele>361</ele>
        <time>2017-05-14T07:03:40.000Z</time>
      </trkpt>
      <trkpt lat="47.49143" lon="6.7613">
        <ele>361.5</ele>
        <time>2017-05-14T07:03:41.000Z</time>
      </trkpt>
      <trkpt lat="47.49142" lon="6.76139">
        <ele>362.7</ele>
        <time>2017-05-14T07:03:42.000Z</time>
      </trkpt>
      <trkpt lat="47.49141" lon="6.76147">
        <ele>362.9</ele>
        <time>2017-05-14T07:03:43.000Z</time>
      </trkpt>
      <trkpt lat="47.4914" lon="6.76157">
        <ele>363.2</ele>
        <time>2017-05-14T07:03:44.000Z</time>
      </trkpt>
      <trkpt lat="47.49138" lon="6.76167">
        <ele>363.4</ele>
        <time>2017-05-14T07:03:45.000Z</time>
      </trkpt>
      <trkpt lat="47.49136" lon="6.76175">
        <ele>363.4</ele>
        <time>2017-05-14T07:03:46.000Z</time>
      </trkpt>
      <trkpt lat="47.49135" lon="6.76185">
        <ele>362.7</ele>
        <time>2017-05-14T07:03:47.000Z</time>
      </trkpt>
      <trkpt lat="47.49134" lon="6.76194">
        <ele>362.5</ele>
        <time>2017-05-14T07:03:48.000Z</time>
      </trkpt>
      <trkpt lat="47.49133" lon="6.76204">
        <ele>362</ele>
        <time>2017-05-14T07:03:49.000Z</time>
      </trkpt>
      <trkpt lat="47.49132" lon="6.76222">
        <ele>361.6</ele>
        <time>2017-05-14T07:03:51.000Z</time>
      </trkpt>
      <trkpt lat="47.49132" lon="6.76231">
        <ele>361.6</ele>
        <time>2017-05-14T07:03:52.000Z</time>
      </trkpt>
      <trkpt lat="47.49133" lon="6.76237">
        <ele>361.6</ele>
        <time>2017-05-14T07:03:53.000Z</time>
      </trkpt>
      <trkpt lat="47.49134" lon="6.76246">
        <ele>361.6</ele>
        <time>2017-05-14T07:03:54.000Z</time>
      </trkpt>
      <trkpt lat="47.49134" lon="6.76254">
        <ele>361.7</ele>
        <time>2017-05-14T07:03:55.000Z</time>
      </trkpt>
      <trkpt lat="47.49135" lon="6.76264">
        <ele>361.6</ele>
        <time>2017-05-14T07:03:56.000Z</time>
      </trkpt>
      <trkpt lat="47.49136" lon="6.76274">
        <ele>361.7</ele>
        <time>2017-05-14T07:03:57.000Z</time>
      </trkpt>
      <trkpt lat="47.49136" lon="6.76281">
        <ele>361.7</ele>
        <time>2017-05-14T07:03:58.000Z</time>
      </trkpt>
      <trkpt lat="47.49138" lon="6.76287">
        <ele>361.7</ele>
        <time>2017-05-14T07:03:59.000Z</time>
      </trkpt>
      <trkpt lat="47.49138" lon="6.76293">
        <ele>361.8</ele>
        <time>2017-05-14T07:04:00.000Z</time>
      </trkpt>
      <trkpt lat="47.4914" lon="6.763">
        <ele>361.8</ele>
        <time>2017-05-14T07:04:01.000Z</time>
      </trkpt>
      <trkpt lat="47.4914" lon="6.76306">
        <ele>361.9</ele>
        <time>2017-05-14T07:04:02.000Z</time>
      </trkpt>
      <trkpt lat="47.4914" lon="6.76313">
        <ele>361.9</ele>
        <time>2017-05-14T07:04:03.000Z</time>
      </trkpt>
      <trkpt lat="47.49139" lon="6.76325">
        <ele>362</ele>
        <time>2017-05-14T07:04:04.000Z</time>
      </trkpt>
      <trkpt lat="47.49138" lon="6.76335">
        <ele>362.2</ele>
        <time>2017-05-14T07:04:05.000Z</time>
      </trkpt>
      <trkpt lat="47.49137" lon="6.76344">
        <ele>362.4</ele>
        <time>2017-05-14T07:04:06.000Z</time>
      </trkpt>
      <trkpt lat="47.49137" lon="6.76359">
        <ele>362.6</ele>
        <time>2017-05-14T07:04:07.000Z</time>
      </trkpt>
      <trkpt lat="47.49136" lon="6.76368">
        <ele>362.7</ele>
        <time>2017-05-14T07:04:08.000Z</time>
      </trkpt>
      <trkpt lat="47.49135" lon="6.76376">
        <ele>362.8</ele>
        <time>2017-05-14T07:04:09.000Z</time>
      </trkpt>
      <trkpt lat="47.49135" lon="6.76382">
        <ele>363</ele>
        <time>2017-05-14T07:04:10.000Z</time>
      </trkpt>
      <trkpt lat="47.49134" lon="6.76389">
        <ele>363.2</ele>
        <time>2017-05-14T07:04:11.000Z</time>
      </trkpt>
      <trkpt lat="47.49133" lon="6.76401">
        <ele>363.3</ele>
        <time>2017-05-14T07:04:12.000Z</time>
      </trkpt>
      <trkpt lat="47.49133" lon="6.7641">
        <ele>364.2</ele>
        <time>2017-05-14T07:04:13.000Z</time>
      </trkpt>
      <trkpt lat="47.49133" lon="6.76424">
        <ele>365.2</ele>
        <time>2017-05-14T07:04:14.000Z</time>
      </trkpt>
      <trkpt lat="47.49132" lon="6.76436">
        <ele>366.1</ele>
        <time>2017-05-14T07:04:15.000Z</time>
      </trkpt>
      <trkpt lat="47.49129" lon="6.7645">
        <ele>368.1</ele>
        <time>2017-05-14T07:04:16.000Z</time>
      </trkpt>
      <trkpt lat="47.49128" lon="6.76459">
        <ele>368.2</ele>
        <time>2017-05-14T07:04:17.000Z</time>
      </trkpt>
      <trkpt lat="47.49126" lon="6.76466">
        <ele>368.3</ele>
        <time>2017-05-14T07:04:18.000Z</time>
      </trkpt>
      <trkpt lat="47.49125" lon="6.76474">
        <ele>368.4</ele>
        <time>2017-05-14T07:04:19.000Z</time>
      </trkpt>
      <trkpt lat="47.49122" lon="6.76485">
        <ele>368.5</ele>
        <time>2017-05-14T07:04:20.000Z</time>
      </trkpt>
      <trkpt lat="47.49122" lon="6.76494">
        <ele>368.5</ele>
        <time>2017-05-14T07:04:21.000Z</time>
      </trkpt>
      <trkpt lat="47.49124" lon="6.76501">
        <ele>368.5</ele>
        <time>2017-05-14T07:04:22.000Z</time>
      </trkpt>
      <trkpt lat="47.49128" lon="6.76507">
        <ele>368.7</ele>
        <time>2017-05-14T07:04:23.000Z</time>
      </trkpt>
      <trkpt lat="47.49131" lon="6.76509">
        <ele>368.7</ele>
        <time>2017-05-14T07:04:24.000Z</time>
      </trkpt>
      <trkpt lat="47.49136" lon="6.76511">
        <ele>368.5</ele>
        <time>2017-05-14T07:04:25.000Z</time>
      </trkpt>
      <trkpt lat="47.49142" lon="6.76512">
        <ele>368.3</ele>
        <time>2017-05-14T07:04:26.000Z</time>
      </trkpt>
      <trkpt lat="47.49147" lon="6.76513">
        <ele>368.4</ele>
        <time>2017-05-14T07:04:27.000Z</time>
      </trkpt>
      <trkpt lat="47.49151" lon="6.76514">
        <ele>368.4</ele>
        <time>2017-05-14T07:04:28.000Z</time>
      </trkpt>
      <trkpt lat="47.49157" lon="6.76515">
        <ele>368.2</ele>
        <time>2017-05-14T07:04:29.000Z</time>
      </trkpt>
      <trkpt lat="47.49161" lon="6.76514">
        <ele>367.7</ele>
        <time>2017-05-14T07:04:30.000Z</time>
      </trkpt>
      <trkpt lat="47.49164" lon="6.76511">
        <ele>367.7</ele>
        <time>2017-05-14T07:04:31.000Z</time>
      </trkpt>
      <trkpt lat="47.49166" lon="6.7651">
        <ele>367.6</ele>
        <time>2017-05-14T07:04:32.000Z</time>
      </trkpt>
      <trkpt lat="47.49169" lon="6.76508">
        <ele>367.6</ele>
        <time>2017-05-14T07:04:33.000Z</time>
      </trkpt>
      <trkpt lat="47.49171" lon="6.76506">
        <ele>367.6</ele>
        <time>2017-05-14T07:04:34.000Z</time>
      </trkpt>
      <trkpt lat="47.49174" lon="6.76504">
        <ele>367.4</ele>
        <time>2017-05-14T07:04:35.000Z</time>
      </trkpt>
      <trkpt lat="47.49177" lon="6.765">
        <ele>367.3</ele>
        <time>2017-05-14T07:04:36.000Z</time>
      </trkpt>
      <trkpt lat="47.49178" lon="6.76494">
        <ele>367.3</ele>
        <time>2017-05-14T07:04:37.000Z</time>
      </trkpt>
      <trkpt lat="47.4918" lon="6.76487">
        <ele>367.2</ele>
        <time>2017-05-14T07:04:38.000Z</time>
      </trkpt>
      <trkpt lat="47.4918" lon="6.7648">
        <ele>367.1</ele>
        <time>2017-05-14T07:04:39.000Z</time>
      </trkpt>
      <trkpt lat="47.49177" lon="6.76478">
        <ele>367</ele>
        <time>2017-05-14T07:04:40.000Z</time>
      </trkpt>
      <trkpt lat="47.49173" lon="6.76478">
        <ele>366.9</ele>
        <time>2017-05-14T07:04:41.000Z</time>
      </trkpt>
      <trkpt lat="47.49171" lon="6.76478">
        <ele>366.9</ele>
        <time>2017-05-14T07:04:42.000Z</time>
      </trkpt>
      <trkpt lat="47.49169" lon="6.76477">
        <ele>366.9</ele>
        <time>2017-05-14T07:04:43.000Z</time>
      </trkpt>
      <trkpt lat="47.49166" lon="6.76477">
        <ele>367</ele>
        <time>2017-05-14T07:04:44.000Z</time>
      </trkpt>
      <trkpt lat="47.49166" lon="6.76475">
        <ele>367.6</ele>
        <time>2017-05-14T07:05:45.000Z</time>
      </trkpt>
      <trkpt lat="47.49179" lon="6.76487">
        <ele>367.8</ele>
        <time>2017-05-14T07:05:46.000Z</time>
      </trkpt>
      <trkpt lat="47.4918" lon="6.7649">
        <ele>367.9</ele>
        <time>2017-05-14T07:05:47.000Z</time>
      </trkpt>
      <trkpt lat="47.49181" lon="6.76493">
        <ele>368</ele>
        <time>2017-05-14T07:05:48.000Z</time>
      </trkpt>
      <trkpt lat="47.49182" lon="6.76497">
        <ele>368</ele>
        <time>2017-05-14T07:05:49.000Z</time>
      </trkpt>
      <trkpt lat="47.49179" lon="6.76503">
        <ele>367.9</ele>
        <time>2017-05-14T07:05:51.000Z</time>
      </trkpt>
      <trkpt lat="47.49178" lon="6.76505">
        <ele>367.9</ele>
        <time>2017-05-14T07:05:52.000Z</time>
      </trkpt>
      <trkpt lat="47.49176" lon="6.76507">
        <ele>367.9</ele>
        <time>2017-05-14T07:05:53.000Z</time>
      </trkpt>
      <trkpt lat="47.49173" lon="6.7651">
        <ele>367.9</ele>
        <time>2017-05-14T07:05:54.000Z</time>
      </trkpt>
      <trkpt lat="47.49168" lon="6.76514">
        <ele>367.9</ele>
        <time>2017-05-14T07:05:55.000Z</time>
      </trkpt>
      <trkpt lat="47.49163" lon="6.76516">
        <ele>367.9</ele>
        <time>2017-05-14T07:05:56.000Z</time>
      </trkpt>
      <trkpt lat="47.49159" lon="6.76515">
        <ele>367.6</ele>
        <time>2017-05-14T07:05:57.000Z</time>
      </trkpt>
      <trkpt lat="47.49154" lon="6.76518">
        <ele>366</ele>
        <time>2017-05-14T07:05:58.000Z</time>
      </trkpt>
      <trkpt lat="47.4915" lon="6.7652">
        <ele>364.5</ele>
        <time>2017-05-14T07:05:59.000Z</time>
      </trkpt>
      <trkpt lat="47.49146" lon="6.76523">
        <ele>363.2</ele>
        <time>2017-05-14T07:06:00.000Z</time>
      </trkpt>
      <trkpt lat="47.49142" lon="6.76525">
        <ele>362.2</ele>
        <time>2017-05-14T07:06:01.000Z</time>
      </trkpt>
      <trkpt lat="47.49138" lon="6.76525">
        <ele>361.6</ele>
        <time>2017-05-14T07:06:02.000Z</time>
      </trkpt>
      <trkpt lat="47.49134" lon="6.76525">
        <ele>361.2</ele>
        <time>2017-05-14T07:06:03.000Z</time>
      </trkpt>
      <trkpt lat="47.49129" lon="6.76525">
        <ele>361</ele>
        <time>2017-05-14T07:06:04.000Z</time>
      </trkpt>
      <trkpt lat="47.49125" lon="6.76525">
        <ele>361</ele>
        <time>2017-05-14T07:06:05.000Z</time>
      </trkpt>
      <trkpt lat="47.49122" lon="6.76527">
        <ele>361</ele>
        <time>2017-05-14T07:06:06.000Z</time>
      </trkpt>
      <trkpt lat="47.4912" lon="6.76531">
        <ele>361.4</ele>
        <time>2017-05-14T07:06:07.000Z</time>
      </trkpt>
      <trkpt lat="47.49119" lon="6.76535">
        <ele>361.8</ele>
        <time>2017-05-14T07:06:08.000Z</time>
      </trkpt>
      <trkpt lat="47.4912" lon="6.76541">
        <ele>362.6</ele>
        <time>2017-05-14T07:06:09.000Z</time>
      </trkpt>
      <trkpt lat="47.49122" lon="6.76548">
        <ele>363.6</ele>
        <time>2017-05-14T07:06:10.000Z</time>
      </trkpt>
      <trkpt lat="47.49123" lon="6.76555">
        <ele>364.5</ele>
        <time>2017-05-14T07:06:11.000Z</time>
      </trkpt>
      <trkpt lat="47.49123" lon="6.76561">
        <ele>365</ele>
        <time>2017-05-14T07:06:12.000Z</time>
      </trkpt>
      <trkpt lat="47.49124" lon="6.76568">
        <ele>364.8</ele>
        <time>2017-05-14T07:06:13.000Z</time>
      </trkpt>
      <trkpt lat="47.49124" lon="6.76576">
        <ele>364.4</ele>
        <time>2017-05-14T07:06:14.000Z</time>
      </trkpt>
      <trkpt lat="47.49125" lon="6.76584">
        <ele>364.1</ele>
        <time>2017-05-14T07:06:15.000Z</time>
      </trkpt>
      <trkpt lat="47.49126" lon="6.76591">
        <ele>363.9</ele>
        <time>2017-05-14T07:06:16.000Z</time>
      </trkpt>
      <trkpt lat="47.49126" lon="6.76599">
        <ele>364.3</ele>
        <time>2017-05-14T07:06:17.000Z</time>
      </trkpt>
      <trkpt lat="47.49127" lon="6.76606">
        <ele>364.5</ele>
        <time>2017-05-14T07:06:18.000Z</time>
      </trkpt>
      <trkpt lat="47.49128" lon="6.76613">
        <ele>364.9</ele>
        <time>2017-05-14T07:06:19.000Z</time>
      </trkpt>
      <trkpt lat="47.49129" lon="6.7662">
        <ele>364.8</ele>
        <time>2017-05-14T07:06:20.000Z</time>
      </trkpt>
      <trkpt lat="47.4913" lon="6.76627">
        <ele>364</ele>
        <time>2017-05-14T07:06:21.000Z</time>
      </trkpt>
      <trkpt lat="47.49131" lon="6.76634">
        <ele>363</ele>
        <time>2017-05-14T07:06:22.000Z</time>
      </trkpt>
      <trkpt lat="47.49132" lon="6.76641">
        <ele>362.3</ele>
        <time>2017-05-14T07:06:23.000Z</time>
      </trkpt>
      <trkpt lat="47.49133" lon="6.76648">
        <ele>361.7</ele>
        <time>2017-05-14T07:06:24.000Z</time>
      </trkpt>
      <trkpt lat="47.49134" lon="6.76655">
        <ele>361.9</ele>
        <time>2017-05-14T07:06:25.000Z</time>
      </trkpt>
      <trkpt lat="47.49135" lon="6.76662">
        <ele>362</ele>
        <time>2017-05-14T07:06:26.000Z</time>
      </trkpt>
      <trkpt lat="47.49136" lon="6.76669">
        <ele>362</ele>
        <time>2017-05-14T07:06:27.000Z</time>
      </trkpt>
      <trkpt lat="47.49136" lon="6.76675">
        <ele>362</ele>
        <time>2017-05-14T07:06:28.000Z</time>
      </trkpt>
      <trkpt lat="47.49136" lon="6.76682">
        <ele>362</ele>
        <time>2017-05-14T07:06:29.000Z</time>
      </trkpt>
      <trkpt lat="47.49136" lon="6.76688">
        <ele>362</ele>
        <time>2017-05-14T07:06:30.000Z</time>
      </trkpt>
      <trkpt lat="47.49137" lon="6.76695">
        <ele>362</ele>
        <time>2017-05-14T07:06:31.000Z</time>
      </trkpt>
      <trkpt lat="47.49139" lon="6.76701">
        <ele>362.1</ele>
        <time>2017-05-14T07:06:32.000Z</time>
      </trkpt>
      <trkpt lat="47.4914" lon="6.76707">
        <ele>362.1</ele>
        <time>2017-05-14T07:06:33.000Z</time>
      </trkpt>
      <trkpt lat="47.49141" lon="6.76714">
        <ele>362.3</ele>
        <time>2017-05-14T07:06:34.000Z</time>
      </trkpt>
      <trkpt lat="47.49142" lon="6.76719">
        <ele>362.2</ele>
        <time>2017-05-14T07:06:35.000Z</time>
      </trkpt>
      <trkpt lat="47.49142" lon="6.76724">
        <ele>362.2</ele>
        <time>2017-05-14T07:06:36.000Z</time>
      </trkpt>
      <trkpt lat="47.49142" lon="6.76729">
        <ele>362.2</ele>
        <time>2017-05-14T07:06:37.000Z</time>
      </trkpt>
      <trkpt lat="47.49142" lon="6.76734">
        <ele>362.2</ele>
        <time>2017-05-14T07:06:38.000Z</time>
      </trkpt>
      <trkpt lat="47.49143" lon="6.7674">
        <ele>362.2</ele>
        <time>2017-05-14T07:06:39.000Z</time>
      </trkpt>
      <trkpt lat="47.49143" lon="6.76747">
        <ele>362</ele>
        <time>2017-05-14T07:06:40.000Z</time>
      </trkpt>
      <trkpt lat="47.49143" lon="6.76753">
        <ele>362</ele>
        <time>2017-05-14T07:06:41.000Z</time>
      </trkpt>
      <trkpt lat="47.49144" lon="6.7676">
        <ele>362</ele>
        <time>2017-05-14T07:06:42.000Z</time>
      </trkpt>
      <trkpt lat="47.49145" lon="6.76766">
        <ele>362.1</ele>
        <time>2017-05-14T07:06:43.000Z</time>
      </trkpt>
      <trkpt lat="47.49146" lon="6.76772">
        <ele>362.2</ele>
        <time>2017-05-14T07:06:44.000Z</time>
      </trkpt>
      <trkpt lat="47.49146" lon="6.76778">
        <ele>362.2</ele>
        <time>2017-05-14T07:06:45.000Z</time>
      </trkpt>
      <trkpt lat="47.49147" lon="6.76784">
        <ele>362.3</ele>
        <time>2017-05-14T07:06:46.000Z</time>
      </trkpt>
      <trkpt lat="47.49147" lon="6.7679">
        <ele>362.3</ele>
        <time>2017-05-14T07:06:47.000Z</time>
      </trkpt>
      <trkpt lat="47.49147" lon="6.76796">
        <ele>362.3</ele>
        <time>2017-05-14T07:06:48.000Z</time>
      </trkpt>
      <trkpt lat="47.49148" lon="6.76802">
        <ele>362.3</ele>
        <time>2017-05-14T07:06:49.000Z</time>
      </trkpt>
      <trkpt lat="47.49148" lon="6.76813">
        <ele>362</ele>
        <time>2017-05-14T07:06:51.000Z</time>
      </trkpt>
      <trkpt lat="47.49148" lon="6.76819">
        <ele>362.1</ele>
        <time>2017-05-14T07:06:52.000Z</time>
      </trkpt>
      <trkpt lat="47.49149" lon="6.76824">
        <ele>362.1</ele>
        <time>2017-05-14T07:06:53.000Z</time>
      </trkpt>
      <trkpt lat="47.49149" lon="6.76827">
        <ele>362.1</ele>
        <time>2017-05-14T07:06:54.000Z</time>
      </trkpt>
      <trkpt lat="47.49149" lon="6.76832">
        <ele>362.1</ele>
        <time>2017-05-14T07:06:55.000Z</time>
      </trkpt>
      <trkpt lat="47.49149" lon="6.76835">
        <ele>362.6</ele>
        <time>2017-05-14T07:07:20.000Z</time>
      </trkpt>
      <trkpt lat="47.49152" lon="6.7685">
        <ele>362.7</ele>
        <time>2017-05-14T07:07:21.000Z</time>
      </trkpt>
      <trkpt lat="47.49152" lon="6.76853">
        <ele>362.9</ele>
        <time>2017-05-14T07:07:22.000Z</time>
      </trkpt>
      <trkpt lat="47.49152" lon="6.76858">
        <ele>363.1</ele>
        <time>2017-05-14T07:07:23.000Z</time>
      </trkpt>
      <trkpt lat="47.49152" lon="6.76862">
        <ele>363.1</ele>
        <time>2017-05-14T07:07:24.000Z</time>
      </trkpt>
      <trkpt lat="47.49151" lon="6.76866">
        <ele>363.2</ele>
        <time>2017-05-14T07:07:25.000Z</time>
      </trkpt>
      <trkpt lat="47.49151" lon="6.7687">
        <ele>363.3</ele>
        <time>2017-05-14T07:07:26.000Z</time>
      </trkpt>
      <trkpt lat="47.4915" lon="6.76875">
        <ele>363.3</ele>
        <time>2017-05-14T07:07:27.000Z</time>
      </trkpt>
      <trkpt lat="47.49149" lon="6.76879">
        <ele>363.3</ele>
        <time>2017-05-14T07:07:28.000Z</time>
      </trkpt>
      <trkpt lat="47.49149" lon="6.76884">
        <ele>363.3</ele>
        <time>2017-05-14T07:07:29.000Z</time>
      </trkpt>
      <trkpt lat="47.49149" lon="6.76888">
        <ele>363.3</ele>
        <time>2017-05-14T07:07:30.000Z</time>
      </trkpt>
      <trkpt lat="47.49149" lon="6.76893">
        <ele>363.3</ele>
        <time>2017-05-14T07:07:31.000Z</time>
      </trkpt>
      <trkpt lat="47.49148" lon="6.76897">
        <ele>363.3</ele>
        <time>2017-05-14T07:07:32.000Z</time>
      </trkpt>
      <trkpt lat="47.49148" lon="6.76902">
        <ele>363.3</ele>
        <time>2017-05-14T07:07:33.000Z</time>
      </trkpt>
      <trkpt lat="47.49147" lon="6.76906">
        <ele>363.4</ele>
        <time>2017-05-14T07:07:34.000Z</time>
      </trkpt>
      <trkpt lat="47.49147" lon="6.76909">
        <ele>363.4</ele>
        <time>2017-05-14T07:07:35.000Z</time>
      </trkpt>
      <trkpt lat="47.49147" lon="6.76915">
        <ele>363.5</ele>
        <time>2017-05-14T07:07:36.000Z</time>
      </trkpt>
      <trkpt lat="47.49147" lon="6.76918">
        <ele>363.6</ele>
        <time>2017-05-14T07:07:37.000Z</time>
      </trkpt>
      <trkpt lat="47.49147" lon="6.76922">
        <ele>363.7</ele>
        <time>2017-05-14T07:07:38.000Z</time>
      </trkpt>
      <trkpt lat="47.49147" lon="6.76926">
        <ele>363.9</ele>
        <time>2017-05-14T07:07:39.000Z</time>
      </trkpt>
      <trkpt lat="47.49147" lon="6.76929">
        <ele>364</ele>
        <time>2017-05-14T07:07:40.000Z</time>
      </trkpt>
      <trkpt lat="47.49148" lon="6.76933">
        <ele>364.1</ele>
        <time>2017-05-14T07:07:41.000Z</time>
      </trkpt>
      <trkpt lat="47.49148" lon="6.76936">
        <ele>364.1</ele>
        <time>2017-05-14T07:07:42.000Z</time>
      </trkpt>
      <trkpt lat="47.49149" lon="6.7694">
        <ele>364.2</ele>
        <time>2017-05-14T07:07:43.000Z</time>
      </trkpt>
      <trkpt lat="47.49149" lon="6.76946">
        <ele>364.1</ele>
        <time>2017-05-14T07:07:45.000Z</time>
      </trkpt>
      <trkpt lat="47.4915" lon="6.76948">
        <ele>364</ele>
        <time>2017-05-14T07:07:46.000Z</time>
      </trkpt>
      <trkpt lat="47.49152" lon="6.76951">
        <ele>363.8</ele>
        <time>2017-05-14T07:07:48.000Z</time>
      </trkpt>
      <trkpt lat="47.49154" lon="6.76952">
        <ele>363.7</ele>
        <time>2017-05-14T07:07:49.000Z</time>
      </trkpt>
      <trkpt lat="47.49156" lon="6.76958">
        <ele>363.5</ele>
        <time>2017-05-14T07:07:51.000Z</time>
      </trkpt>
      <trkpt lat="47.49157" lon="6.7696">
        <ele>363.3</ele>
        <time>2017-05-14T07:07:52.000Z</time>
      </trkpt>
      <trkpt lat="47.49159" lon="6.76963">
        <ele>363.2</ele>
        <time>2017-05-14T07:07:53.000Z</time>
      </trkpt>
      <trkpt lat="47.49159" lon="6.76968">
        <ele>363</ele>
        <time>2017-05-14T07:07:54.000Z</time>
      </trkpt>
      <trkpt lat="47.49161" lon="6.76972">
        <ele>362.8</ele>
        <time>2017-05-14T07:07:55.000Z</time>
      </trkpt>
      <trkpt lat="47.49163" lon="6.76979">
        <ele>362.6</ele>
        <time>2017-05-14T07:07:56.000Z</time>
      </trkpt>
      <trkpt lat="47.49165" lon="6.76984">
        <ele>362.4</ele>
        <time>2017-05-14T07:07:57.000Z</time>
      </trkpt>
      <trkpt lat="47.49167" lon="6.76994">
        <ele>362.2</ele>
        <time>2017-05-14T07:07:58.000Z</time>
      </trkpt>
      <trkpt lat="47.49169" lon="6.77">
        <ele>362.1</ele>
        <time>2017-05-14T07:07:59.000Z</time>
      </trkpt>
      <trkpt lat="47.4917" lon="6.77007">
        <ele>361.9</ele>
        <time>2017-05-14T07:08:00.000Z</time>
      </trkpt>
      <trkpt lat="47.49171" lon="6.77014">
        <ele>361.7</ele>
        <time>2017-05-14T07:08:01.000Z</time>
      </trkpt>
      <trkpt lat="47.49172" lon="6.77021">
        <ele>361.6</ele>
        <time>2017-05-14T07:08:02.000Z</time>
      </trkpt>
      <trkpt lat="47.49172" lon="6.77025">
        <ele>361.4</ele>
        <time>2017-05-14T07:08:03.000Z</time>
      </trkpt>
      <trkpt lat="47.49172" lon="6.7703">
        <ele>361.3</ele>
        <time>2017-05-14T07:08:04.000Z</time>
      </trkpt>
      <trkpt lat="47.49172" lon="6.77036">
        <ele>360.2</ele>
        <time>2017-05-14T07:08:05.000Z</time>
      </trkpt>
      <trkpt lat="47.49172" lon="6.77042">
        <ele>360.1</ele>
        <time>2017-05-14T07:08:06.000Z</time>
      </trkpt>
      <trkpt lat="47.49172" lon="6.77047">
        <ele>359.3</ele>
        <time>2017-05-14T07:08:07.000Z</time>
      </trkpt>
      <trkpt lat="47.49172" lon="6.77051">
        <ele>359.2</ele>
        <time>2017-05-14T07:08:08.000Z</time>
      </trkpt>
      <trkpt lat="47.49172" lon="6.77058">
        <ele>358.6</ele>
        <time>2017-05-14T07:08:09.000Z</time>
      </trkpt>
      <trkpt lat="47.49173" lon="6.77064">
        <ele>358.1</ele>
        <time>2017-05-14T07:08:10.000Z</time>
      </trkpt>
      <trkpt lat="47.49173" lon="6.7707">
        <ele>357.5</ele>
        <time>2017-05-14T07:08:11.000Z</time>
      </trkpt>
      <trkpt lat="47.49174" lon="6.77075">
        <ele>357.4</ele>
        <time>2017-05-14T07:08:12.000Z</time>
      </trkpt>
      <trkpt lat="47.49174" lon="6.7708">
        <ele>356.6</ele>
        <time>2017-05-14T07:08:13.000Z</time>
      </trkpt>
      <trkpt lat="47.49175" lon="6.77087">
        <ele>356.4</ele>
        <time>2017-05-14T07:08:14.000Z</time>
      </trkpt>
      <trkpt lat="47.49175" lon="6.77094">
        <ele>356.2</ele>
        <time>2017-05-14T07:08:15.000Z</time>
      </trkpt>
      <trkpt lat="47.49175" lon="6.771">
        <ele>355.3</ele>
        <time>2017-05-14T07:08:16.000Z</time>
      </trkpt>
      <trkpt lat="47.49176" lon="6.77106">
        <ele>355.3</ele>
        <time>2017-05-14T07:08:17.000Z</time>
      </trkpt>
      <trkpt lat="47.49176" lon="6.77112">
        <ele>355.2</ele>
        <time>2017-05-14T07:08:18.000Z</time>
      </trkpt>
      <trkpt lat="47.49178" lon="6.77116">
        <ele>355.1</ele>
        <time>2017-05-14T07:08:19.000Z</time>
      </trkpt>
      <trkpt lat="47.49179" lon="6.7712">
        <ele>355.1</ele>
        <time>2017-05-14T07:08:20.000Z</time>
      </trkpt>
      <trkpt lat="47.49181" lon="6.77124">
        <ele>355</ele>
        <time>2017-05-14T07:08:21.000Z</time>
      </trkpt>
      <trkpt lat="47.49181" lon="6.77128">
        <ele>355</ele>
        <time>2017-05-14T07:08:22.000Z</time>
      </trkpt>
      <trkpt lat="47.49181" lon="6.77131">
        <ele>355</ele>
        <time>2017-05-14T07:08:23.000Z</time>
      </trkpt>
      <trkpt lat="47.49181" lon="6.77136">
        <ele>355</ele>
        <time>2017-05-14T07:08:24.000Z</time>
      </trkpt>
      <trkpt lat="47.49182" lon="6.77139">
        <ele>355.1</ele>
        <time>2017-05-14T07:08:25.000Z</time>
      </trkpt>
      <trkpt lat="47.49184" lon="6.77143">
        <ele>355.1</ele>
        <time>2017-05-14T07:08:26.000Z</time>
      </trkpt>
      <trkpt lat="47.49186" lon="6.77148">
        <ele>355.1</ele>
        <time>2017-05-14T07:08:27.000Z</time>
      </trkpt>
      <trkpt lat="47.49187" lon="6.77153">
        <ele>355.1</ele>
        <time>2017-05-14T07:08:28.000Z</time>
      </trkpt>
      <trkpt lat="47.49187" lon="6.77158">
        <ele>355.2</ele>
        <time>2017-05-14T07:08:29.000Z</time>
      </trkpt>
      <trkpt lat="47.49187" lon="6.77166">
        <ele>355.2</ele>
        <time>2017-05-14T07:08:30.000Z</time>
      </trkpt>
      <trkpt lat="47.49188" lon="6.77171">
        <ele>355.1</ele>
        <time>2017-05-14T07:08:31.000Z</time>
      </trkpt>
      <trkpt lat="47.49188" lon="6.77176">
        <ele>355</ele>
        <time>2017-05-14T07:08:32.000Z</time>
      </trkpt>
      <trkpt lat="47.49188" lon="6.77181">
        <ele>354.9</ele>
        <time>2017-05-14T07:08:33.000Z</time>
      </trkpt>
      <trkpt lat="47.49188" lon="6.77186">
        <ele>354.8</ele>
        <time>2017-05-14T07:08:34.000Z</time>
      </trkpt>
      <trkpt lat="47.49189" lon="6.7719">
        <ele>354.8</ele>
        <time>2017-05-14T07:08:35.000Z</time>
      </trkpt>
      <trkpt lat="47.49188" lon="6.77195">
        <ele>354.7</ele>
        <time>2017-05-14T07:08:36.000Z</time>
      </trkpt>
      <trkpt lat="47.49187" lon="6.77199">
        <ele>354.6</ele>
        <time>2017-05-14T07:08:37.000Z</time>
      </trkpt>
      <trkpt lat="47.49187" lon="6.77203">
        <ele>354.5</ele>
        <time>2017-05-14T07:08:38.000Z</time>
      </trkpt>
      <trkpt lat="47.49186" lon="6.77208">
        <ele>354.4</ele>
        <time>2017-05-14T07:08:39.000Z</time>
      </trkpt>
      <trkpt lat="47.49186" lon="6.77212">
        <ele>354.3</ele>
        <time>2017-05-14T07:08:40.000Z</time>
      </trkpt>
      <trkpt lat="47.49186" lon="6.77218">
        <ele>354.3</ele>
        <time>2017-05-14T07:08:41.000Z</time>
      </trkpt>
      <trkpt lat="47.49186" lon="6.77223">
        <ele>354.2</ele>
        <time>2017-05-14T07:08:42.000Z</time>
      </trkpt>
      <trkpt lat="47.49186" lon="6.77226">
        <ele>354.2</ele>
        <time>2017-05-14T07:08:43.000Z</time>
      </trkpt>
      <trkpt lat="47.49186" lon="6.77231">
        <ele>354.2</ele>
        <time>2017-05-14T07:08:44.000Z</time>
      </trkpt>
      <trkpt lat="47.49187" lon="6.77235">
        <ele>354.2</ele>
        <time>2017-05-14T07:08:45.000Z</time>
      </trkpt>
      <trkpt lat="47.49187" lon="6.77239">
        <ele>354.2</ele>
        <time>2017-05-14T07:08:46.000Z</time>
      </trkpt>
      <trkpt lat="47.49188" lon="6.77243">
        <ele>354.1</ele>
        <time>2017-05-14T07:08:47.000Z</time>
      </trkpt>
      <trkpt lat="47.4919" lon="6.77251">
        <ele>354.2</ele>
        <time>2017-05-14T07:08:48.000Z</time>
      </trkpt>
      <trkpt lat="47.49191" lon="6.77255">
        <ele>354.2</ele>
        <time>2017-05-14T07:08:49.000Z</time>
      </trkpt>
      <trkpt lat="47.4919" lon="6.77261">
        <ele>354.3</ele>
        <time>2017-05-14T07:08:50.000Z</time>
      </trkpt>
      <trkpt lat="47.4919" lon="6.77266">
        <ele>354.4</ele>
        <time>2017-05-14T07:08:51.000Z</time>
      </trkpt>
      <trkpt lat="47.49189" lon="6.77272">
        <ele>354.7</ele>
        <time>2017-05-14T07:08:52.000Z</time>
      </trkpt>
      <trkpt lat="47.49188" lon="6.77278">
        <ele>353.3</ele>
        <time>2017-05-14T07:08:53.000Z</time>
      </trkpt>
      <trkpt lat="47.49188" lon="6.77283">
        <ele>351.9</ele>
        <time>2017-05-14T07:08:54.000Z</time>
      </trkpt>
      <trkpt lat="47.49188" lon="6.77289">
        <ele>351.8</ele>
        <time>2017-05-14T07:08:55.000Z</time>
      </trkpt>
      <trkpt lat="47.49187" lon="6.77295">
        <ele>351.8</ele>
        <time>2017-05-14T07:08:56.000Z</time>
      </trkpt>
      <trkpt lat="47.49187" lon="6.77301">
        <ele>352.4</ele>
        <time>2017-05-14T07:08:57.000Z</time>
      </trkpt>
      <trkpt lat="47.49187" lon="6.77307">
        <ele>352.4</ele>
        <time>2017-05-14T07:08:58.000Z</time>
      </trkpt>
      <trkpt lat="47.49186" lon="6.77313">
        <ele>352.1</ele>
        <time>2017-05-14T07:08:59.000Z</time>
      </trkpt>
      <trkpt lat="47.49185" lon="6.77318">
        <ele>352.1</ele>
        <time>2017-05-14T07:09:00.000Z</time>
      </trkpt>
      <trkpt lat="47.49183" lon="6.77323">
        <ele>352.1</ele>
        <time>2017-05-14T07:09:01.000Z</time>
      </trkpt>
      <trkpt lat="47.49182" lon="6.77326">
        <ele>352.1</ele>
        <time>2017-05-14T07:09:02.000Z</time>
      </trkpt>
      <trkpt lat="47.49182" lon="6.77332">
        <ele>351.8</ele>
        <time>2017-05-14T07:09:06.000Z</time>
      </trkpt>
      <trkpt lat="47.49183" lon="6.77333">
        <ele>351.9</ele>
        <time>2017-05-14T07:09:07.000Z</time>
      </trkpt>
      <trkpt lat="47.49187" lon="6.77333">
        <ele>352.1</ele>
        <time>2017-05-14T07:09:10.000Z</time>
      </trkpt>
      <trkpt lat="47.49189" lon="6.77333">
        <ele>352.3</ele>
        <time>2017-05-14T07:09:11.000Z</time>
      </trkpt>
      <trkpt lat="47.49192" lon="6.77333">
        <ele>352.6</ele>
        <time>2017-05-14T07:09:13.000Z</time>
      </trkpt>
      <trkpt lat="47.49194" lon="6.77334">
        <ele>352.8</ele>
        <time>2017-05-14T07:09:14.000Z</time>
      </trkpt>
      <trkpt lat="47.49195" lon="6.77338">
        <ele>353.1</ele>
        <time>2017-05-14T07:09:16.000Z</time>
      </trkpt>
      <trkpt lat="47.49195" lon="6.7734">
        <ele>353.3</ele>
        <time>2017-05-14T07:09:17.000Z</time>
      </trkpt>
      <trkpt lat="47.49191" lon="6.77343">
        <ele>354.3</ele>
        <time>2017-05-14T07:09:24.000Z</time>
      </trkpt>
      <trkpt lat="47.4919" lon="6.77343">
        <ele>354.4</ele>
        <time>2017-05-14T07:09:25.000Z</time>
      </trkpt>
      <trkpt lat="47.4919" lon="6.77336">
        <ele>356.9</ele>
        <time>2017-05-14T07:10:38.000Z</time>
      </trkpt>
      <trkpt lat="47.4919" lon="6.77336">
        <ele>356.9</ele>
        <time>2017-05-14T07:10:39.000Z</time>
      </trkpt>
      <trkpt lat="47.49187" lon="6.77341">
        <ele>355</ele>
        <time>2017-05-14T07:11:06.000Z</time>
      </trkpt>
      <trkpt lat="47.49185" lon="6.77342">
        <ele>354.8</ele>
        <time>2017-05-14T07:11:07.000Z</time>
      </trkpt>
      <trkpt lat="47.49181" lon="6.77343">
        <ele>354.7</ele>
        <time>2017-05-14T07:11:08.000Z</time>
      </trkpt>
      <trkpt lat="47.49177" lon="6.77345">
        <ele>354.5</ele>
        <time>2017-05-14T07:11:09.000Z</time>
      </trkpt>
      <trkpt lat="47.49173" lon="6.77345">
        <ele>354.3</ele>
        <time>2017-05-14T07:11:10.000Z</time>
      </trkpt>
      <trkpt lat="47.49169" lon="6.77346">
        <ele>354.2</ele>
        <time>2017-05-14T07:11:11.000Z</time>
      </trkpt>
      <trkpt lat="47.49166" lon="6.77346">
        <ele>354.1</ele>
        <time>2017-05-14T07:11:12.000Z</time>
      </trkpt>
      <trkpt lat="47.49164" lon="6.77349">
        <ele>354</ele>
        <time>2017-05-14T07:11:13.000Z</time>
      </trkpt>
      <trkpt lat="47.49161" lon="6.77352">
        <ele>353.9</ele>
        <time>2017-05-14T07:11:14.000Z</time>
      </trkpt>
      <trkpt lat="47.49159" lon="6.77353">
        <ele>353.8</ele>
        <time>2017-05-14T07:11:15.000Z</time>
      </trkpt>
      <trkpt lat="47.49156" lon="6.77356">
        <ele>353.9</ele>
        <time>2017-05-14T07:11:16.000Z</time>
      </trkpt>
      <trkpt lat="47.49153" lon="6.7736">
        <ele>354</ele>
        <time>2017-05-14T07:11:17.000Z</time>
      </trkpt>
      <trkpt lat="47.49149" lon="6.77363">
        <ele>354</ele>
        <time>2017-05-14T07:11:18.000Z</time>
      </trkpt>
      <trkpt lat="47.49146" lon="6.77366">
        <ele>354</ele>
        <time>2017-05-14T07:11:19.000Z</time>
      </trkpt>
      <trkpt lat="47.49144" lon="6.77369">
        <ele>354</ele>
        <time>2017-05-14T07:11:20.000Z</time>
      </trkpt>
      <trkpt lat="47.49141" lon="6.77372">
        <ele>353.9</ele>
        <time>2017-05-14T07:11:21.000Z</time>
      </trkpt>
      <trkpt lat="47.49139" lon="6.77375">
        <ele>353.9</ele>
        <time>2017-05-14T07:11:22.000Z</time>
      </trkpt>
      <trkpt lat="47.49137" lon="6.77376">
        <ele>353.9</ele>
        <time>2017-05-14T07:11:23.000Z</time>
      </trkpt>
      <trkpt lat="47.49135" lon="6.77378">
        <ele>353.9</ele>
        <time>2017-05-14T07:11:24.000Z</time>
      </trkpt>
      <trkpt lat="47.49132" lon="6.77381">
        <ele>353.9</ele>
        <time>2017-05-14T07:11:25.000Z</time>
      </trkpt>
      <trkpt lat="47.49129" lon="6.77384">
        <ele>354</ele>
        <time>2017-05-14T07:11:26.000Z</time>
      </trkpt>
      <trkpt lat="47.49127" lon="6.77386">
        <ele>354.1</ele>
        <time>2017-05-14T07:11:27.000Z</time>
      </trkpt>
      <trkpt lat="47.49123" lon="6.77388">
        <ele>354.1</ele>
        <time>2017-05-14T07:11:28.000Z</time>
      </trkpt>
      <trkpt lat="47.4912" lon="6.7739">
        <ele>354.2</ele>
        <time>2017-05-14T07:11:29.000Z</time>
      </trkpt>
      <trkpt lat="47.49117" lon="6.77392">
        <ele>354.2</ele>
        <time>2017-05-14T07:11:30.000Z</time>
      </trkpt>
      <trkpt lat="47.49114" lon="6.77393">
        <ele>354.2</ele>
        <time>2017-05-14T07:11:31.000Z</time>
      </trkpt>
      <trkpt lat="47.49111" lon="6.77395">
        <ele>354.2</ele>
        <time>2017-05-14T07:11:32.000Z</time>
      </trkpt>
      <trkpt lat="47.49108" lon="6.77397">
        <ele>354.2</ele>
        <time>2017-05-14T07:11:33.000Z</time>
      </trkpt>
      <trkpt lat="47.49105" lon="6.77399">
        <ele>353.9</ele>
        <time>2017-05-14T07:11:34.000Z</time>
      </trkpt>
      <trkpt lat="47.49101" lon="6.77401">
        <ele>354</ele>
        <time>2017-05-14T07:11:35.000Z</time>
      </trkpt>
      <trkpt lat="47.49097" lon="6.77403">
        <ele>354</ele>
        <time>2017-05-14T07:11:36.000Z</time>
      </trkpt>
      <trkpt lat="47.49094" lon="6.77405">
        <ele>354</ele>
        <time>2017-05-14T07:11:37.000Z</time>
      </trkpt>
      <trkpt lat="47.4909" lon="6.77407">
        <ele>354</ele>
        <time>2017-05-14T07:11:38.000Z</time>
      </trkpt>
      <trkpt lat="47.49087" lon="6.77409">
        <ele>354</ele>
        <time>2017-05-14T07:11:39.000Z</time>
      </trkpt>
      <trkpt lat="47.49084" lon="6.77411">
        <ele>354</ele>
        <time>2017-05-14T07:11:40.000Z</time>
      </trkpt>
      <trkpt lat="47.49081" lon="6.77413">
        <ele>354</ele>
        <time>2017-05-14T07:11:41.000Z</time>
      </trkpt>
      <trkpt lat="47.49078" lon="6.77415">
        <ele>354</ele>
        <time>2017-05-14T07:11:42.000Z</time>
      </trkpt>
      <trkpt lat="47.49075" lon="6.77417">
        <ele>354.1</ele>
        <time>2017-05-14T07:11:43.000Z</time>
      </trkpt>
      <trkpt lat="47.49072" lon="6.77418">
        <ele>354.2</ele>
        <time>2017-05-14T07:11:44.000Z</time>
      </trkpt>
      <trkpt lat="47.49068" lon="6.7742">
        <ele>354.2</ele>
        <time>2017-05-14T07:11:46.000Z</time>
      </trkpt>
      <trkpt lat="47.49065" lon="6.77421">
        <ele>354.2</ele>
        <time>2017-05-14T07:11:47.000Z</time>
      </trkpt>
      <trkpt lat="47.49062" lon="6.77423">
        <ele>354.2</ele>
        <time>2017-05-14T07:11:48.000Z</time>
      </trkpt>
      <trkpt lat="47.49058" lon="6.77425">
        <ele>354.3</ele>
        <time>2017-05-14T07:11:49.000Z</time>
      </trkpt>
      <trkpt lat="47.49055" lon="6.77427">
        <ele>354.3</ele>
        <time>2017-05-14T07:11:50.000Z</time>
      </trkpt>
      <trkpt lat="47.49051" lon="6.77429">
        <ele>354.4</ele>
        <time>2017-05-14T07:11:51.000Z</time>
      </trkpt>
      <trkpt lat="47.49049" lon="6.7743">
        <ele>354.4</ele>
        <time>2017-05-14T07:11:52.000Z</time>
      </trkpt>
      <trkpt lat="47.49046" lon="6.77431">
        <ele>354.4</ele>
        <time>2017-05-14T07:11:53.000Z</time>
      </trkpt>
      <trkpt lat="47.49042" lon="6.77433">
        <ele>354.5</ele>
        <time>2017-05-14T07:11:54.000Z</time>
      </trkpt>
      <trkpt lat="47.49037" lon="6.77436">
        <ele>354.9</ele>
        <time>2017-05-14T07:11:55.000Z</time>
      </trkpt>
      <trkpt lat="47.49033" lon="6.77438">
        <ele>354.8</ele>
        <time>2017-05-14T07:11:56.000Z</time>
      </trkpt>
      <trkpt lat="47.49031" lon="6.77439">
        <ele>354.9</ele>
        <time>2017-05-14T07:11:57.000Z</time>
      </trkpt>
      <trkpt lat="47.49026" lon="6.77442">
        <ele>354.9</ele>
        <time>2017-05-14T07:11:58.000Z</time>
      </trkpt>
      <trkpt lat="47.49023" lon="6.77444">
        <ele>354.8</ele>
        <time>2017-05-14T07:11:59.000Z</time>
      </trkpt>
      <trkpt lat="47.49018" lon="6.77447">
        <ele>354.8</ele>
        <time>2017-05-14T07:12:00.000Z</time>
      </trkpt>
      <trkpt lat="47.49014" lon="6.77451">
        <ele>354.8</ele>
        <time>2017-05-14T07:12:01.000Z</time>
      </trkpt>
      <trkpt lat="47.49012" lon="6.77454">
        <ele>354.8</ele>
        <time>2017-05-14T07:12:02.000Z</time>
      </trkpt>
      <trkpt lat="47.4901" lon="6.77458">
        <ele>354.9</ele>
        <time>2017-05-14T07:12:03.000Z</time>
      </trkpt>
      <trkpt lat="47.49008" lon="6.77462">
        <ele>354.9</ele>
        <time>2017-05-14T07:12:04.000Z</time>
      </trkpt>
      <trkpt lat="47.49007" lon="6.77468">
        <ele>354.9</ele>
        <time>2017-05-14T07:12:05.000Z</time>
      </trkpt>
      <trkpt lat="47.49007" lon="6.77473">
        <ele>355.1</ele>
        <time>2017-05-14T07:12:06.000Z</time>
      </trkpt>
      <trkpt lat="47.49007" lon="6.7748">
        <ele>355.2</ele>
        <time>2017-05-14T07:12:07.000Z</time>
      </trkpt>
      <trkpt lat="47.49007" lon="6.77486">
        <ele>355.3</ele>
        <time>2017-05-14T07:12:08.000Z</time>
      </trkpt>
      <trkpt lat="47.49006" lon="6.77494">
        <ele>355.6</ele>
        <time>2017-05-14T07:12:09.000Z</time>
      </trkpt>
      <trkpt lat="47.49006" lon="6.77501">
        <ele>355.7</ele>
        <time>2017-05-14T07:12:10.000Z</time>
      </trkpt>
      <trkpt lat="47.49006" lon="6.77509">
        <ele>355.8</ele>
        <time>2017-05-14T07:12:11.000Z</time>
      </trkpt>
      <trkpt lat="47.49007" lon="6.77516">
        <ele>355.9</ele>
        <time>2017-05-14T07:12:12.000Z</time>
      </trkpt>
      <trkpt lat="47.49007" lon="6.7752">
        <ele>356</ele>
        <time>2017-05-14T07:12:13.000Z</time>
      </trkpt>
      <trkpt lat="47.49008" lon="6.77524">
        <ele>355.9</ele>
        <time>2017-05-14T07:12:14.000Z</time>
      </trkpt>
      <trkpt lat="47.49005" lon="6.77529">
        <ele>356.5</ele>
        <time>2017-05-14T07:12:20.000Z</time>
      </trkpt>
      <trkpt lat="47.49003" lon="6.77531">
        <ele>356.5</ele>
        <time>2017-05-14T07:12:21.000Z</time>
      </trkpt>
      <trkpt lat="47.49001" lon="6.77533">
        <ele>356.5</ele>
        <time>2017-05-14T07:12:22.000Z</time>
      </trkpt>
      <trkpt lat="47.48997" lon="6.77538">
        <ele>356.4</ele>
        <time>2017-05-14T07:12:23.000Z</time>
      </trkpt>
      <trkpt lat="47.48994" lon="6.77543">
        <ele>356.4</ele>
        <time>2017-05-14T07:12:24.000Z</time>
      </trkpt>
      <trkpt lat="47.48992" lon="6.77546">
        <ele>356.3</ele>
        <time>2017-05-14T07:12:25.000Z</time>
      </trkpt>
      <trkpt lat="47.48989" lon="6.77548">
        <ele>356.2</ele>
        <time>2017-05-14T07:12:26.000Z</time>
      </trkpt>
      <trkpt lat="47.48985" lon="6.77552">
        <ele>356.1</ele>
        <time>2017-05-14T07:12:27.000Z</time>
      </trkpt>
      <trkpt lat="47.48983" lon="6.77554">
        <ele>356</ele>
        <time>2017-05-14T07:12:28.000Z</time>
      </trkpt>
      <trkpt lat="47.4898" lon="6.77557">
        <ele>356</ele>
        <time>2017-05-14T07:12:29.000Z</time>
      </trkpt>
      <trkpt lat="47.48978" lon="6.7756">
        <ele>356</ele>
        <time>2017-05-14T07:12:30.000Z</time>
      </trkpt>
      <trkpt lat="47.48975" lon="6.77564">
        <ele>356</ele>
        <time>2017-05-14T07:12:31.000Z</time>
      </trkpt>
      <trkpt lat="47.48972" lon="6.77566">
        <ele>355.9</ele>
        <time>2017-05-14T07:12:32.000Z</time>
      </trkpt>
      <trkpt lat="47.4897" lon="6.77567">
        <ele>355.7</ele>
        <time>2017-05-14T07:12:33.000Z</time>
      </trkpt>
      <trkpt lat="47.48967" lon="6.77571">
        <ele>355.7</ele>
        <time>2017-05-14T07:12:34.000Z</time>
      </trkpt>
      <trkpt lat="47.48963" lon="6.77575">
        <ele>355.7</ele>
        <time>2017-05-14T07:12:35.000Z</time>
      </trkpt>
      <trkpt lat="47.48961" lon="6.77577">
        <ele>355.7</ele>
        <time>2017-05-14T07:12:36.000Z</time>
      </trkpt>
      <trkpt lat="47.48957" lon="6.77581">
        <ele>355.8</ele>
        <time>2017-05-14T07:12:37.000Z</time>
      </trkpt>
      <trkpt lat="47.48954" lon="6.77585">
        <ele>355.8</ele>
        <time>2017-05-14T07:12:38.000Z</time>
      </trkpt>
      <trkpt lat="47.48951" lon="6.77589">
        <ele>356</ele>
        <time>2017-05-14T07:12:39.000Z</time>
      </trkpt>
      <trkpt lat="47.48948" lon="6.77591">
        <ele>356.3</ele>
        <time>2017-05-14T07:12:40.000Z</time>
      </trkpt>
      <trkpt lat="47.48946" lon="6.77594">
        <ele>356.4</ele>
        <time>2017-05-14T07:12:41.000Z</time>
      </trkpt>
      <trkpt lat="47.48944" lon="6.77597">
        <ele>356.5</ele>
        <time>2017-05-14T07:12:42.000Z</time>
      </trkpt>
      <trkpt lat="47.4894" lon="6.77598">
        <ele>356.5</ele>
        <time>2017-05-14T07:12:43.000Z</time>
      </trkpt>
      <trkpt lat="47.48935" lon="6.77598">
        <ele>356.5</ele>
        <time>2017-05-14T07:12:44.000Z</time>
      </trkpt>
      <trkpt lat="47.48931" lon="6.77598">
        <ele>356.4</ele>
        <time>2017-05-14T07:12:45.000Z</time>
      </trkpt>
      <trkpt lat="47.48925" lon="6.77599">
        <ele>356.5</ele>
        <time>2017-05-14T07:12:46.000Z</time>
      </trkpt>
      <trkpt lat="47.48922" lon="6.77599">
        <ele>356.5</ele>
        <time>2017-05-14T07:12:47.000Z</time>
      </trkpt>
      <trkpt lat="47.48921" lon="6.776">
        <ele>356.5</ele>
        <time>2017-05-14T07:12:48.000Z</time>
      </trkpt>
      <trkpt lat="47.48918" lon="6.77606">
        <ele>357.7</ele>
        <time>2017-05-14T07:13:01.000Z</time>
      </trkpt>
      <trkpt lat="47.48918" lon="6.77606">
        <ele>357.8</ele>
        <time>2017-05-14T07:13:02.000Z</time>
      </trkpt>
      <trkpt lat="47.48917" lon="6.77612">
        <ele>359.3</ele>
        <time>2017-05-14T07:13:13.000Z</time>
      </trkpt>
      <trkpt lat="47.48916" lon="6.77613">
        <ele>359.4</ele>
        <time>2017-05-14T07:13:14.000Z</time>
      </trkpt>
      <trkpt lat="47.48914" lon="6.77618">
        <ele>359.7</ele>
        <time>2017-05-14T07:13:17.000Z</time>
      </trkpt>
      <trkpt lat="47.48913" lon="6.77619">
        <ele>359.7</ele>
        <time>2017-05-14T07:13:18.000Z</time>
      </trkpt>
      <trkpt lat="47.4891" lon="6.77623">
        <ele>359.7</ele>
        <time>2017-05-14T07:13:20.000Z</time>
      </trkpt>
      <trkpt lat="47.48909" lon="6.77625">
        <ele>359.8</ele>
        <time>2017-05-14T07:13:21.000Z</time>
      </trkpt>
      <trkpt lat="47.48907" lon="6.77629">
        <ele>360</ele>
        <time>2017-05-14T07:13:24.000Z</time>
      </trkpt>
      <trkpt lat="47.48906" lon="6.77632">
        <ele>360.1</ele>
        <time>2017-05-14T07:13:25.000Z</time>
      </trkpt>
      <trkpt lat="47.48904" lon="6.77637">
        <ele>360.5</ele>
        <time>2017-05-14T07:13:30.000Z</time>
      </trkpt>
      <trkpt lat="47.48904" lon="6.77639">
        <ele>360.6</ele>
        <time>2017-05-14T07:13:31.000Z</time>
      </trkpt>
      <trkpt lat="47.48902" lon="6.77643">
        <ele>360.9</ele>
        <time>2017-05-14T07:13:33.000Z</time>
      </trkpt>
      <trkpt lat="47.48902" lon="6.77647">
        <ele>361</ele>
        <time>2017-05-14T07:13:34.000Z</time>
      </trkpt>
      <trkpt lat="47.48901" lon="6.77652">
        <ele>361.2</ele>
        <time>2017-05-14T07:13:36.000Z</time>
      </trkpt>
      <trkpt lat="47.48901" lon="6.77654">
        <ele>361.3</ele>
        <time>2017-05-14T07:13:37.000Z</time>
      </trkpt>
      <trkpt lat="47.48903" lon="6.77657">
        <ele>361.2</ele>
        <time>2017-05-14T07:13:39.000Z</time>
      </trkpt>
      <trkpt lat="47.48907" lon="6.77658">
        <ele>359.8</ele>
        <time>2017-05-14T07:13:40.000Z</time>
      </trkpt>
      <trkpt lat="47.48911" lon="6.77659">
        <ele>359.6</ele>
        <time>2017-05-14T07:13:41.000Z</time>
      </trkpt>
      <trkpt lat="47.48913" lon="6.77664">
        <ele>359.6</ele>
        <time>2017-05-14T07:13:42.000Z</time>
      </trkpt>
      <trkpt lat="47.48913" lon="6.77659">
        <ele>359.2</ele>
        <time>2017-05-14T07:13:46.000Z</time>
      </trkpt>
      <trkpt lat="47.48911" lon="6.77656">
        <ele>359</ele>
        <time>2017-05-14T07:13:47.000Z</time>
      </trkpt>
      <trkpt lat="47.48909" lon="6.77653">
        <ele>358.9</ele>
        <time>2017-05-14T07:13:48.000Z</time>
      </trkpt>
      <trkpt lat="47.48907" lon="6.77648">
        <ele>358.7</ele>
        <time>2017-05-14T07:13:49.000Z</time>
      </trkpt>
      <trkpt lat="47.48905" lon="6.77644">
        <ele>358.7</ele>
        <time>2017-05-14T07:13:50.000Z</time>
      </trkpt>
      <trkpt lat="47.48902" lon="6.77642">
        <ele>358.6</ele>
        <time>2017-05-14T07:13:51.000Z</time>
      </trkpt>
      <trkpt lat="47.48901" lon="6.77638">
        <ele>358.5</ele>
        <time>2017-05-14T07:13:52.000Z</time>
      </trkpt>
      <trkpt lat="47.48898" lon="6.77635">
        <ele>358.4</ele>
        <time>2017-05-14T07:13:53.000Z</time>
      </trkpt>
      <trkpt lat="47.48895" lon="6.77632">
        <ele>358.3</ele>
        <time>2017-05-14T07:13:54.000Z</time>
      </trkpt>
      <trkpt lat="47.48893" lon="6.77629">
        <ele>358.2</ele>
        <time>2017-05-14T07:13:55.000Z</time>
      </trkpt>
      <trkpt lat="47.48889" lon="6.77625">
        <ele>358.2</ele>
        <time>2017-05-14T07:13:56.000Z</time>
      </trkpt>
      <trkpt lat="47.48886" lon="6.77621">
        <ele>358.2</ele>
        <time>2017-05-14T07:13:57.000Z</time>
      </trkpt>
      <trkpt lat="47.48883" lon="6.77616">
        <ele>358.2</ele>
        <time>2017-05-14T07:13:58.000Z</time>
      </trkpt>
      <trkpt lat="47.4888" lon="6.77612">
        <ele>358.3</ele>
        <time>2017-05-14T07:13:59.000Z</time>
      </trkpt>
      <trkpt lat="47.48877" lon="6.77608">
        <ele>358.4</ele>
        <time>2017-05-14T07:14:00.000Z</time>
      </trkpt>
      <trkpt lat="47.48874" lon="6.77605">
        <ele>358.6</ele>
        <time>2017-05-14T07:14:01.000Z</time>
      </trkpt>
      <trkpt lat="47.4887" lon="6.77601">
        <ele>358.8</ele>
        <time>2017-05-14T07:14:02.000Z</time>
      </trkpt>
      <trkpt lat="47.48868" lon="6.77598">
        <ele>358.9</ele>
        <time>2017-05-14T07:14:03.000Z</time>
      </trkpt>
      <trkpt lat="47.48866" lon="6.77596">
        <ele>359</ele>
        <time>2017-05-14T07:14:04.000Z</time>
      </trkpt>
      <trkpt lat="47.48863" lon="6.77593">
        <ele>359.1</ele>
        <time>2017-05-14T07:14:05.000Z</time>
      </trkpt>
      <trkpt lat="47.4886" lon="6.7759">
        <ele>359.2</ele>
        <time>2017-05-14T07:14:06.000Z</time>
      </trkpt>
      <trkpt lat="47.48858" lon="6.77588">
        <ele>359.3</ele>
        <time>2017-05-14T07:14:07.000Z</time>
      </trkpt>
      <trkpt lat="47.48855" lon="6.77586">
        <ele>359.4</ele>
        <time>2017-05-14T07:14:08.000Z</time>
      </trkpt>
      <trkpt lat="47.48853" lon="6.77584">
        <ele>359.6</ele>
        <time>2017-05-14T07:14:09.000Z</time>
      </trkpt>
      <trkpt lat="47.4885" lon="6.77581">
        <ele>359.8</ele>
        <time>2017-05-14T07:14:10.000Z</time>
      </trkpt>
      <trkpt lat="47.48846" lon="6.77578">
        <ele>360</ele>
        <time>2017-05-14T07:14:11.000Z</time>
      </trkpt>
      <trkpt lat="47.48842" lon="6.77577">
        <ele>360.6</ele>
        <time>2017-05-14T07:14:13.000Z</time>
      </trkpt>
      <trkpt lat="47.48841" lon="6.77575">
        <ele>360.7</ele>
        <time>2017-05-14T07:14:14.000Z</time>
      </trkpt>
      <trkpt lat="47.48838" lon="6.77572">
        <ele>360.9</ele>
        <time>2017-05-14T07:14:16.000Z</time>
      </trkpt>
      <trkpt lat="47.48837" lon="6.7757">
        <ele>360.9</ele>
        <time>2017-05-14T07:14:17.000Z</time>
      </trkpt>
      <trkpt lat="47.48833" lon="6.7757">
        <ele>361.1</ele>
        <time>2017-05-14T07:14:20.000Z</time>
      </trkpt>
      <trkpt lat="47.48831" lon="6.7757">
        <ele>361.1</ele>
        <time>2017-05-14T07:14:21.000Z</time>
      </trkpt>
      <trkpt lat="47.48829" lon="6.77568">
        <ele>361.3</ele>
        <time>2017-05-14T07:14:23.000Z</time>
      </trkpt>
      <trkpt lat="47.48826" lon="6.77567">
        <ele>361.4</ele>
        <time>2017-05-14T07:14:24.000Z</time>
      </trkpt>
      <trkpt lat="47.48823" lon="6.77563">
        <ele>361.8</ele>
        <time>2017-05-14T07:14:28.000Z</time>
      </trkpt>
      <trkpt lat="47.48821" lon="6.7756">
        <ele>362</ele>
        <time>2017-05-14T07:14:29.000Z</time>
      </trkpt>
      <trkpt lat="47.48817" lon="6.77558">
        <ele>362.5</ele>
        <time>2017-05-14T07:14:33.000Z</time>
      </trkpt>
      <trkpt lat="47.48813" lon="6.77553">
        <ele>362.7</ele>
        <time>2017-05-14T07:14:34.000Z</time>
      </trkpt>
      <trkpt lat="47.4881" lon="6.77552">
        <ele>362.8</ele>
        <time>2017-05-14T07:14:35.000Z</time>
      </trkpt>
      <trkpt lat="47.48807" lon="6.77553">
        <ele>363.1</ele>
        <time>2017-05-14T07:14:36.000Z</time>
      </trkpt>
      <trkpt lat="47.48804" lon="6.77551">
        <ele>363.5</ele>
        <time>2017-05-14T07:14:38.000Z</time>
      </trkpt>
      <trkpt lat="47.48802" lon="6.77549">
        <ele>363.7</ele>
        <time>2017-05-14T07:14:39.000Z</time>
      </trkpt>
      <trkpt lat="47.488" lon="6.77548">
        <ele>364</ele>
        <time>2017-05-14T07:14:40.000Z</time>
      </trkpt>
      <trkpt lat="47.48798" lon="6.77546">
        <ele>364.2</ele>
        <time>2017-05-14T07:14:41.000Z</time>
      </trkpt>
      <trkpt lat="47.48796" lon="6.77545">
        <ele>364.4</ele>
        <time>2017-05-14T07:14:42.000Z</time>
      </trkpt>
      <trkpt lat="47.48792" lon="6.77544">
        <ele>364.6</ele>
        <time>2017-05-14T07:14:43.000Z</time>
      </trkpt>
      <trkpt lat="47.48789" lon="6.77541">
        <ele>365</ele>
        <time>2017-05-14T07:14:46.000Z</time>
      </trkpt>
      <trkpt lat="47.48788" lon="6.77541">
        <ele>365.1</ele>
        <time>2017-05-14T07:14:47.000Z</time>
      </trkpt>
      <trkpt lat="47.48784" lon="6.77538">
        <ele>365.4</ele>
        <time>2017-05-14T07:14:49.000Z</time>
      </trkpt>
      <trkpt lat="47.48782" lon="6.77536">
        <ele>365.5</ele>
        <time>2017-05-14T07:14:50.000Z</time>
      </trkpt>
      <trkpt lat="47.48779" lon="6.77533">
        <ele>365.7</ele>
        <time>2017-05-14T07:14:52.000Z</time>
      </trkpt>
      <trkpt lat="47.48778" lon="6.77531">
        <ele>365.7</ele>
        <time>2017-05-14T07:14:53.000Z</time>
      </trkpt>
      <trkpt lat="47.48775" lon="6.77528">
        <ele>365.5</ele>
        <time>2017-05-14T07:14:57.000Z</time>
      </trkpt>
      <trkpt lat="47.48773" lon="6.77528">
        <ele>365.5</ele>
        <time>2017-05-14T07:14:58.000Z</time>
      </trkpt>
      <trkpt lat="47.4877" lon="6.77528">
        <ele>365.2</ele>
        <time>2017-05-14T07:15:02.000Z</time>
      </trkpt>
      <trkpt lat="47.48768" lon="6.77527">
        <ele>365.3</ele>
        <time>2017-05-14T07:15:03.000Z</time>
      </trkpt>
      <trkpt lat="47.48767" lon="6.77526">
        <ele>365.7</ele>
        <time>2017-05-14T07:15:07.000Z</time>
      </trkpt>
      <trkpt lat="47.48764" lon="6.77526">
        <ele>366</ele>
        <time>2017-05-14T07:15:08.000Z</time>
      </trkpt>
      <trkpt lat="47.48759" lon="6.77527">
        <ele>367.1</ele>
        <time>2017-05-14T07:15:12.000Z</time>
      </trkpt>
      <trkpt lat="47.48759" lon="6.77527">
        <ele>367.3</ele>
        <time>2017-05-14T07:15:13.000Z</time>
      </trkpt>
      <trkpt lat="47.48755" lon="6.77527">
        <ele>366.9</ele>
        <time>2017-05-14T07:15:31.000Z</time>
      </trkpt>
      <trkpt lat="47.48753" lon="6.77526">
        <ele>366.9</ele>
        <time>2017-05-14T07:15:32.000Z</time>
      </trkpt>
      <trkpt lat="47.4875" lon="6.77526">
        <ele>367.1</ele>
        <time>2017-05-14T07:15:34.000Z</time>
      </trkpt>
      <trkpt lat="47.48748" lon="6.77525">
        <ele>367.2</ele>
        <time>2017-05-14T07:15:35.000Z</time>
      </trkpt>
      <trkpt lat="47.48744" lon="6.77524">
        <ele>367.3</ele>
        <time>2017-05-14T07:15:36.000Z</time>
      </trkpt>
      <trkpt lat="47.48741" lon="6.77522">
        <ele>367.4</ele>
        <time>2017-05-14T07:15:37.000Z</time>
      </trkpt>
      <trkpt lat="47.48737" lon="6.77519">
        <ele>368.3</ele>
        <time>2017-05-14T07:15:43.000Z</time>
      </trkpt>
      <trkpt lat="47.48736" lon="6.77518">
        <ele>368.5</ele>
        <time>2017-05-14T07:15:44.000Z</time>
      </trkpt>
      <trkpt lat="47.48733" lon="6.77515">
        <ele>369.5</ele>
        <time>2017-05-14T07:15:48.000Z</time>
      </trkpt>
      <trkpt lat="47.48729" lon="6.77512">
        <ele>369.9</ele>
        <time>2017-05-14T07:15:49.000Z</time>
      </trkpt>
      <trkpt lat="47.48725" lon="6.77508">
        <ele>370.4</ele>
        <time>2017-05-14T07:15:50.000Z</time>
      </trkpt>
      <trkpt lat="47.48724" lon="6.77506">
        <ele>371.2</ele>
        <time>2017-05-14T07:15:52.000Z</time>
      </trkpt>
      <trkpt lat="47.48721" lon="6.77503">
        <ele>371.5</ele>
        <time>2017-05-14T07:15:53.000Z</time>
      </trkpt>
      <trkpt lat="47.48719" lon="6.775">
        <ele>372.5</ele>
        <time>2017-05-14T07:15:58.000Z</time>
      </trkpt>
      <trkpt lat="47.48718" lon="6.77499">
        <ele>372.8</ele>
        <time>2017-05-14T07:15:59.000Z</time>
      </trkpt>
      <trkpt lat="47.48715" lon="6.77498">
        <ele>373.1</ele>
        <time>2017-05-14T07:16:00.000Z</time>
      </trkpt>
      <trkpt lat="47.48713" lon="6.77497">
        <ele>373.4</ele>
        <time>2017-05-14T07:16:01.000Z</time>
      </trkpt>
      <trkpt lat="47.4871" lon="6.77494">
        <ele>373.7</ele>
        <time>2017-05-14T07:16:02.000Z</time>
      </trkpt>
      <trkpt lat="47.48707" lon="6.77491">
        <ele>374.1</ele>
        <time>2017-05-14T07:16:03.000Z</time>
      </trkpt>
      <trkpt lat="47.48704" lon="6.77489">
        <ele>374.6</ele>
        <time>2017-05-14T07:16:05.000Z</time>
      </trkpt>
      <trkpt lat="47.48702" lon="6.7749">
        <ele>374.8</ele>
        <time>2017-05-14T07:16:06.000Z</time>
      </trkpt>
      <trkpt lat="47.48699" lon="6.7749">
        <ele>375.1</ele>
        <time>2017-05-14T07:16:07.000Z</time>
      </trkpt>
      <trkpt lat="47.48697" lon="6.77489">
        <ele>375.4</ele>
        <time>2017-05-14T07:16:08.000Z</time>
      </trkpt>
      <trkpt lat="47.48694" lon="6.77489">
        <ele>377.4</ele>
        <time>2017-05-14T07:16:16.000Z</time>
      </trkpt>
      <trkpt lat="47.48691" lon="6.77492">
        <ele>377.7</ele>
        <time>2017-05-14T07:16:17.000Z</time>
      </trkpt>
      <trkpt lat="47.48688" lon="6.77495">
        <ele>378.3</ele>
        <time>2017-05-14T07:16:19.000Z</time>
      </trkpt>
      <trkpt lat="47.48688" lon="6.77496">
        <ele>378.6</ele>
        <time>2017-05-14T07:16:20.000Z</time>
      </trkpt>
      <trkpt lat="47.48684" lon="6.77497">
        <ele>389.1</ele>
        <time>2017-05-14T07:17:18.000Z</time>
      </trkpt>
      <trkpt lat="47.48683" lon="6.77498">
        <ele>389.2</ele>
        <time>2017-05-14T07:17:19.000Z</time>
      </trkpt>
      <trkpt lat="47.48679" lon="6.775">
        <ele>389.2</ele>
        <time>2017-05-14T07:17:23.000Z</time>
      </trkpt>
      <trkpt lat="47.48678" lon="6.775">
        <ele>389.3</ele>
        <time>2017-05-14T07:17:24.000Z</time>
      </trkpt>
      <trkpt lat="47.48675" lon="6.77504">
        <ele>388.9</ele>
        <time>2017-05-14T07:17:28.000Z</time>
      </trkpt>
      <trkpt lat="47.48674" lon="6.77504">
        <ele>388.8</ele>
        <time>2017-05-14T07:17:29.000Z</time>
      </trkpt>
      <trkpt lat="47.4867" lon="6.77507">
        <ele>388.6</ele>
        <time>2017-05-14T07:17:31.000Z</time>
      </trkpt>
      <trkpt lat="47.48667" lon="6.7751">
        <ele>388.5</ele>
        <time>2017-05-14T07:17:32.000Z</time>
      </trkpt>
      <trkpt lat="47.48665" lon="6.77511">
        <ele>388.4</ele>
        <time>2017-05-14T07:17:33.000Z</time>
      </trkpt>
      <trkpt lat="47.48663" lon="6.77513">
        <ele>388.2</ele>
        <time>2017-05-14T07:17:34.000Z</time>
      </trkpt>
      <trkpt lat="47.48659" lon="6.77516">
        <ele>387.9</ele>
        <time>2017-05-14T07:17:36.000Z</time>
      </trkpt>
      <trkpt lat="47.48656" lon="6.77519">
        <ele>387.8</ele>
        <time>2017-05-14T07:17:37.000Z</time>
      </trkpt>
      <trkpt lat="47.48652" lon="6.77519">
        <ele>387.7</ele>
        <time>2017-05-14T07:17:39.000Z</time>
      </trkpt>
      <trkpt lat="47.48651" lon="6.77518">
        <ele>387.8</ele>
        <time>2017-05-14T07:17:40.000Z</time>
      </trkpt>
      <trkpt lat="47.48647" lon="6.77517">
        <ele>387.8</ele>
        <time>2017-05-14T07:17:42.000Z</time>
      </trkpt>
      <trkpt lat="47.48645" lon="6.77517">
        <ele>387.8</ele>
        <time>2017-05-14T07:17:43.000Z</time>
      </trkpt>
      <trkpt lat="47.48643" lon="6.77516">
        <ele>387.8</ele>
        <time>2017-05-14T07:17:44.000Z</time>
      </trkpt>
      <trkpt lat="47.48637" lon="6.77515">
        <ele>387.7</ele>
        <time>2017-05-14T07:17:45.000Z</time>
      </trkpt>
      <trkpt lat="47.48634" lon="6.77514">
        <ele>387.4</ele>
        <time>2017-05-14T07:17:48.000Z</time>
      </trkpt>
      <trkpt lat="47.48631" lon="6.77513">
        <ele>387.3</ele>
        <time>2017-05-14T07:17:49.000Z</time>
      </trkpt>
      <trkpt lat="47.48627" lon="6.77512">
        <ele>387.2</ele>
        <time>2017-05-14T07:17:50.000Z</time>
      </trkpt>
      <trkpt lat="47.48624" lon="6.7751">
        <ele>387.1</ele>
        <time>2017-05-14T07:17:51.000Z</time>
      </trkpt>
      <trkpt lat="47.48621" lon="6.77508">
        <ele>387.1</ele>
        <time>2017-05-14T07:17:53.000Z</time>
      </trkpt>
      <trkpt lat="47.48618" lon="6.77505">
        <ele>387</ele>
        <time>2017-05-14T07:17:54.000Z</time>
      </trkpt>
      <trkpt lat="47.48616" lon="6.77503">
        <ele>386.7</ele>
        <time>2017-05-14T07:17:56.000Z</time>
      </trkpt>
      <trkpt lat="47.48607" lon="6.775">
        <ele>386.7</ele>
        <time>2017-05-14T07:17:57.000Z</time>
      </trkpt>
      <trkpt lat="47.48601" lon="6.77498">
        <ele>386.6</ele>
        <time>2017-05-14T07:17:58.000Z</time>
      </trkpt>
      <trkpt lat="47.48597" lon="6.77496">
        <ele>386.5</ele>
        <time>2017-05-14T07:17:59.000Z</time>
      </trkpt>
      <trkpt lat="47.48594" lon="6.77491">
        <ele>386.4</ele>
        <time>2017-05-14T07:18:00.000Z</time>
      </trkpt>
      <trkpt lat="47.48592" lon="6.77487">
        <ele>386.4</ele>
        <time>2017-05-14T07:18:01.000Z</time>
      </trkpt>
      <trkpt lat="47.4859" lon="6.77485">
        <ele>386.2</ele>
        <time>2017-05-14T07:18:02.000Z</time>
      </trkpt>
      <trkpt lat="47.48586" lon="6.77483">
        <ele>385.7</ele>
        <time>2017-05-14T07:18:05.000Z</time>
      </trkpt>
      <trkpt lat="47.48584" lon="6.7748">
        <ele>385.6</ele>
        <time>2017-05-14T07:18:06.000Z</time>
      </trkpt>
      <trkpt lat="47.48583" lon="6.77476">
        <ele>385.4</ele>
        <time>2017-05-14T07:18:07.000Z</time>
      </trkpt>
      <trkpt lat="47.48582" lon="6.77472">
        <ele>385.2</ele>
        <time>2017-05-14T07:18:08.000Z</time>
      </trkpt>
      <trkpt lat="47.4858" lon="6.7747">
        <ele>385</ele>
        <time>2017-05-14T07:18:09.000Z</time>
      </trkpt>
      <trkpt lat="47.48578" lon="6.77467">
        <ele>384.8</ele>
        <time>2017-05-14T07:18:10.000Z</time>
      </trkpt>
      <trkpt lat="47.48576" lon="6.77465">
        <ele>384.6</ele>
        <time>2017-05-14T07:18:11.000Z</time>
      </trkpt>
      <trkpt lat="47.48573" lon="6.77464">
        <ele>384.3</ele>
        <time>2017-05-14T07:18:12.000Z</time>
      </trkpt>
      <trkpt lat="47.4857" lon="6.77465">
        <ele>384</ele>
        <time>2017-05-14T07:18:13.000Z</time>
      </trkpt>
      <trkpt lat="47.48567" lon="6.77465">
        <ele>383.6</ele>
        <time>2017-05-14T07:18:14.000Z</time>
      </trkpt>
      <trkpt lat="47.48564" lon="6.77463">
        <ele>383.3</ele>
        <time>2017-05-14T07:18:15.000Z</time>
      </trkpt>
      <trkpt lat="47.4856" lon="6.77457">
        <ele>383</ele>
        <time>2017-05-14T07:18:16.000Z</time>
      </trkpt>
      <trkpt lat="47.48557" lon="6.77455">
        <ele>382.6</ele>
        <time>2017-05-14T07:18:17.000Z</time>
      </trkpt>
      <trkpt lat="47.48554" lon="6.77452">
        <ele>382.3</ele>
        <time>2017-05-14T07:18:18.000Z</time>
      </trkpt>
      <trkpt lat="47.48551" lon="6.77448">
        <ele>382.2</ele>
        <time>2017-05-14T07:18:19.000Z</time>
      </trkpt>
      <trkpt lat="47.48548" lon="6.77445">
        <ele>382</ele>
        <time>2017-05-14T07:18:20.000Z</time>
      </trkpt>
      <trkpt lat="47.48544" lon="6.77442">
        <ele>381.7</ele>
        <time>2017-05-14T07:18:22.000Z</time>
      </trkpt>
      <trkpt lat="47.48541" lon="6.7744">
        <ele>381.5</ele>
        <time>2017-05-14T07:18:23.000Z</time>
      </trkpt>
      <trkpt lat="47.48538" lon="6.77438">
        <ele>381.3</ele>
        <time>2017-05-14T07:18:24.000Z</time>
      </trkpt>
      <trkpt lat="47.48535" lon="6.77436">
        <ele>381.2</ele>
        <time>2017-05-14T07:18:25.000Z</time>
      </trkpt>
      <trkpt lat="47.48533" lon="6.77433">
        <ele>380.9</ele>
        <time>2017-05-14T07:18:26.000Z</time>
      </trkpt>
      <trkpt lat="47.48531" lon="6.7743">
        <ele>380.6</ele>
        <time>2017-05-14T07:18:27.000Z</time>
      </trkpt>
      <trkpt lat="47.48529" lon="6.77427">
        <ele>380.3</ele>
        <time>2017-05-14T07:18:28.000Z</time>
      </trkpt>
      <trkpt lat="47.48527" lon="6.77425">
        <ele>380.1</ele>
        <time>2017-05-14T07:18:29.000Z</time>
      </trkpt>
      <trkpt lat="47.48524" lon="6.77421">
        <ele>379.9</ele>
        <time>2017-05-14T07:18:30.000Z</time>
      </trkpt>
      <trkpt lat="47.48522" lon="6.77417">
        <ele>379.7</ele>
        <time>2017-05-14T07:18:31.000Z</time>
      </trkpt>
      <trkpt lat="47.4852" lon="6.77414">
        <ele>379.5</ele>
        <time>2017-05-14T07:18:32.000Z</time>
      </trkpt>
      <trkpt lat="47.48511" lon="6.77407">
        <ele>379.3</ele>
        <time>2017-05-14T07:18:33.000Z</time>
      </trkpt>
      <trkpt lat="47.48507" lon="6.77404">
        <ele>379.1</ele>
        <time>2017-05-14T07:18:34.000Z</time>
      </trkpt>
      <trkpt lat="47.48504" lon="6.77401">
        <ele>379</ele>
        <time>2017-05-14T07:18:35.000Z</time>
      </trkpt>
      <trkpt lat="47.48501" lon="6.77397">
        <ele>378.8</ele>
        <time>2017-05-14T07:18:36.000Z</time>
      </trkpt>
      <trkpt lat="47.48498" lon="6.77392">
        <ele>378.6</ele>
        <time>2017-05-14T07:18:37.000Z</time>
      </trkpt>
      <trkpt lat="47.48496" lon="6.77387">
        <ele>378.3</ele>
        <time>2017-05-14T07:18:38.000Z</time>
      </trkpt>
      <trkpt lat="47.48493" lon="6.77384">
        <ele>378</ele>
        <time>2017-05-14T07:18:39.000Z</time>
      </trkpt>
      <trkpt lat="47.4849" lon="6.77383">
        <ele>377.8</ele>
        <time>2017-05-14T07:18:40.000Z</time>
      </trkpt>
      <trkpt lat="47.48488" lon="6.7738">
        <ele>377.5</ele>
        <time>2017-05-14T07:18:41.000Z</time>
      </trkpt>
      <trkpt lat="47.48485" lon="6.77378">
        <ele>377.1</ele>
        <time>2017-05-14T07:18:42.000Z</time>
      </trkpt>
      <trkpt lat="47.48482" lon="6.77376">
        <ele>376.7</ele>
        <time>2017-05-14T07:18:43.000Z</time>
      </trkpt>
      <trkpt lat="47.4848" lon="6.77373">
        <ele>376.3</ele>
        <time>2017-05-14T07:18:44.000Z</time>
      </trkpt>
      <trkpt lat="47.48477" lon="6.77371">
        <ele>375.8</ele>
        <time>2017-05-14T07:18:45.000Z</time>
      </trkpt>
      <trkpt lat="47.48475" lon="6.77368">
        <ele>375.5</ele>
        <time>2017-05-14T07:18:46.000Z</time>
      </trkpt>
      <trkpt lat="47.48472" lon="6.77364">
        <ele>375.1</ele>
        <time>2017-05-14T07:18:47.000Z</time>
      </trkpt>
      <trkpt lat="47.48468" lon="6.77355">
        <ele>374.9</ele>
        <time>2017-05-14T07:18:48.000Z</time>
      </trkpt>
      <trkpt lat="47.48465" lon="6.77348">
        <ele>374.6</ele>
        <time>2017-05-14T07:18:49.000Z</time>
      </trkpt>
      <trkpt lat="47.48462" lon="6.77342">
        <ele>374.5</ele>
        <time>2017-05-14T07:18:50.000Z</time>
      </trkpt>
      <trkpt lat="47.48458" lon="6.77336">
        <ele>374.3</ele>
        <time>2017-05-14T07:18:51.000Z</time>
      </trkpt>
      <trkpt lat="47.48455" lon="6.77333">
        <ele>374</ele>
        <time>2017-05-14T07:18:54.000Z</time>
      </trkpt>
      <trkpt lat="47.48453" lon="6.77332">
        <ele>374</ele>
        <time>2017-05-14T07:18:55.000Z</time>
      </trkpt>
      <trkpt lat="47.48451" lon="6.7733">
        <ele>374</ele>
        <time>2017-05-14T07:18:56.000Z</time>
      </trkpt>
      <trkpt lat="47.48449" lon="6.77327">
        <ele>374</ele>
        <time>2017-05-14T07:18:57.000Z</time>
      </trkpt>
      <trkpt lat="47.48445" lon="6.77324">
        <ele>373.9</ele>
        <time>2017-05-14T07:18:58.000Z</time>
      </trkpt>
      <trkpt lat="47.48442" lon="6.7732">
        <ele>373.8</ele>
        <time>2017-05-14T07:18:59.000Z</time>
      </trkpt>
      <trkpt lat="47.4844" lon="6.77316">
        <ele>373.6</ele>
        <time>2017-05-14T07:19:02.000Z</time>
      </trkpt>
      <trkpt lat="47.48436" lon="6.77313">
        <ele>373.5</ele>
        <time>2017-05-14T07:19:03.000Z</time>
      </trkpt>
      <trkpt lat="47.48431" lon="6.7731">
        <ele>373.4</ele>
        <time>2017-05-14T07:19:04.000Z</time>
      </trkpt>
      <trkpt lat="47.48422" lon="6.77303">
        <ele>373.2</ele>
        <time>2017-05-14T07:19:05.000Z</time>
      </trkpt>
      <trkpt lat="47.48416" lon="6.77297">
        <ele>373.1</ele>
        <time>2017-05-14T07:19:06.000Z</time>
      </trkpt>
      <trkpt lat="47.48413" lon="6.77294">
        <ele>373.1</ele>
        <time>2017-05-14T07:19:07.000Z</time>
      </trkpt>
      <trkpt lat="47.48409" lon="6.7729">
        <ele>373.2</ele>
        <time>2017-05-14T07:19:08.000Z</time>
      </trkpt>
      <trkpt lat="47.48405" lon="6.77284">
        <ele>373.3</ele>
        <time>2017-05-14T07:19:09.000Z</time>
      </trkpt>
      <trkpt lat="47.48401" lon="6.7728">
        <ele>373.4</ele>
        <time>2017-05-14T07:19:10.000Z</time>
      </trkpt>
      <trkpt lat="47.48395" lon="6.77274">
        <ele>373.4</ele>
        <time>2017-05-14T07:19:11.000Z</time>
      </trkpt>
      <trkpt lat="47.48391" lon="6.7727">
        <ele>373.5</ele>
        <time>2017-05-14T07:19:12.000Z</time>
      </trkpt>
      <trkpt lat="47.48388" lon="6.77266">
        <ele>373.5</ele>
        <time>2017-05-14T07:19:13.000Z</time>
      </trkpt>
      <trkpt lat="47.48385" lon="6.77263">
        <ele>373.5</ele>
        <time>2017-05-14T07:19:14.000Z</time>
      </trkpt>
      <trkpt lat="47.48382" lon="6.77261">
        <ele>373.5</ele>
        <time>2017-05-14T07:19:15.000Z</time>
      </trkpt>
      <trkpt lat="47.4838" lon="6.77259">
        <ele>373.3</ele>
        <time>2017-05-14T07:19:16.000Z</time>
      </trkpt>
      <trkpt lat="47.48377" lon="6.77256">
        <ele>373.2</ele>
        <time>2017-05-14T07:19:17.000Z</time>
      </trkpt>
      <trkpt lat="47.48373" lon="6.77253">
        <ele>371.5</ele>
        <time>2017-05-14T07:19:18.000Z</time>
      </trkpt>
      <trkpt lat="47.48368" lon="6.77248">
        <ele>369.6</ele>
        <time>2017-05-14T07:19:19.000Z</time>
      </trkpt>
      <trkpt lat="47.48365" lon="6.77246">
        <ele>369.3</ele>
        <time>2017-05-14T07:19:20.000Z</time>
      </trkpt>
      <trkpt lat="47.48363" lon="6.77245">
        <ele>369</ele>
        <time>2017-05-14T07:19:21.000Z</time>
      </trkpt>
      <trkpt lat="47.48359" lon="6.77244">
        <ele>368.6</ele>
        <time>2017-05-14T07:19:22.000Z</time>
      </trkpt>
      <trkpt lat="47.48357" lon="6.77241">
        <ele>368.2</ele>
        <time>2017-05-14T07:19:23.000Z</time>
      </trkpt>
      <trkpt lat="47.48355" lon="6.77237">
        <ele>367.5</ele>
        <time>2017-05-14T07:19:25.000Z</time>
      </trkpt>
      <trkpt lat="47.48353" lon="6.77235">
        <ele>367.2</ele>
        <time>2017-05-14T07:19:26.000Z</time>
      </trkpt>
      <trkpt lat="47.48351" lon="6.7723">
        <ele>366.9</ele>
        <time>2017-05-14T07:19:27.000Z</time>
      </trkpt>
      <trkpt lat="47.48348" lon="6.77222">
        <ele>366.7</ele>
        <time>2017-05-14T07:19:28.000Z</time>
      </trkpt>
      <trkpt lat="47.48348" lon="6.77217">
        <ele>366.5</ele>
        <time>2017-05-14T07:19:29.000Z</time>
      </trkpt>
      <trkpt lat="47.48344" lon="6.77206">
        <ele>366.2</ele>
        <time>2017-05-14T07:19:30.000Z</time>
      </trkpt>
      <trkpt lat="47.48342" lon="6.77197">
        <ele>362.8</ele>
        <time>2017-05-14T07:19:31.000Z</time>
      </trkpt>
      <trkpt lat="47.48339" lon="6.77183">
        <ele>359.7</ele>
        <time>2017-05-14T07:19:32.000Z</time>
      </trkpt>
      <trkpt lat="47.48342" lon="6.77172">
        <ele>359.3</ele>
        <time>2017-05-14T07:19:33.000Z</time>
      </trkpt>
      <trkpt lat="47.48343" lon="6.77164">
        <ele>359.1</ele>
        <time>2017-05-14T07:19:34.000Z</time>
      </trkpt>
      <trkpt lat="47.48345" lon="6.77156">
        <ele>358.7</ele>
        <time>2017-05-14T07:19:35.000Z</time>
      </trkpt>
      <trkpt lat="47.48349" lon="6.77149">
        <ele>358.4</ele>
        <time>2017-05-14T07:19:36.000Z</time>
      </trkpt>
      <trkpt lat="47.4835" lon="6.77143">
        <ele>358.1</ele>
        <time>2017-05-14T07:19:37.000Z</time>
      </trkpt>
      <trkpt lat="47.48347" lon="6.77136">
        <ele>356.3</ele>
        <time>2017-05-14T07:19:38.000Z</time>
      </trkpt>
      <trkpt lat="47.48343" lon="6.77133">
        <ele>353.7</ele>
        <time>2017-05-14T07:19:39.000Z</time>
      </trkpt>
      <trkpt lat="47.4834" lon="6.77129">
        <ele>353.5</ele>
        <time>2017-05-14T07:19:40.000Z</time>
      </trkpt>
      <trkpt lat="47.48335" lon="6.77123">
        <ele>353.4</ele>
        <time>2017-05-14T07:19:41.000Z</time>
      </trkpt>
      <trkpt lat="47.48328" lon="6.7712">
        <ele>353.3</ele>
        <time>2017-05-14T07:19:42.000Z</time>
      </trkpt>
      <trkpt lat="47.48321" lon="6.77118">
        <ele>353.2</ele>
        <time>2017-05-14T07:19:43.000Z</time>
      </trkpt>
      <trkpt lat="47.48311" lon="6.77115">
        <ele>353.2</ele>
        <time>2017-05-14T07:19:44.000Z</time>
      </trkpt>
      <trkpt lat="47.48302" lon="6.77109">
        <ele>354.7</ele>
        <time>2017-05-14T07:19:45.000Z</time>
      </trkpt>
      <trkpt lat="47.48295" lon="6.77104">
        <ele>356.8</ele>
        <time>2017-05-14T07:19:46.000Z</time>
      </trkpt>
      <trkpt lat="47.48289" lon="6.77103">
        <ele>358.2</ele>
        <time>2017-05-14T07:19:47.000Z</time>
      </trkpt>
      <trkpt lat="47.48282" lon="6.77103">
        <ele>359</ele>
        <time>2017-05-14T07:19:48.000Z</time>
      </trkpt>
      <trkpt lat="47.48278" lon="6.77107">
        <ele>359.5</ele>
        <time>2017-05-14T07:19:49.000Z</time>
      </trkpt>
      <trkpt lat="47.48273" lon="6.7711">
        <ele>358.9</ele>
        <time>2017-05-14T07:19:50.000Z</time>
      </trkpt>
      <trkpt lat="47.48271" lon="6.77114">
        <ele>359</ele>
        <time>2017-05-14T07:19:51.000Z</time>
      </trkpt>
      <trkpt lat="47.48268" lon="6.77115">
        <ele>359.1</ele>
        <time>2017-05-14T07:19:52.000Z</time>
      </trkpt>
      <trkpt lat="47.48266" lon="6.77113">
        <ele>359.2</ele>
        <time>2017-05-14T07:19:53.000Z</time>
      </trkpt>
      <trkpt lat="47.48264" lon="6.77111">
        <ele>359.5</ele>
        <time>2017-05-14T07:19:54.000Z</time>
      </trkpt>
      <trkpt lat="47.4826" lon="6.77108">
        <ele>361.3</ele>
        <time>2017-05-14T07:20:01.000Z</time>
      </trkpt>
      <trkpt lat="47.4826" lon="6.77106">
        <ele>361.6</ele>
        <time>2017-05-14T07:20:02.000Z</time>
      </trkpt>
      <trkpt lat="47.48261" lon="6.77103">
        <ele>361.9</ele>
        <time>2017-05-14T07:20:04.000Z</time>
      </trkpt>
      <trkpt lat="47.48262" lon="6.771">
        <ele>362</ele>
        <time>2017-05-14T07:20:05.000Z</time>
      </trkpt>
      <trkpt lat="47.48259" lon="6.77102">
        <ele>363</ele>
        <time>2017-05-14T07:20:14.000Z</time>
      </trkpt>
      <trkpt lat="47.48258" lon="6.77105">
        <ele>363.1</ele>
        <time>2017-05-14T07:20:15.000Z</time>
      </trkpt>
      <trkpt lat="47.48261" lon="6.77103">
        <ele>363.3</ele>
        <time>2017-05-14T07:20:19.000Z</time>
      </trkpt>
      <trkpt lat="47.48262" lon="6.77099">
        <ele>363.3</ele>
        <time>2017-05-14T07:20:20.000Z</time>
      </trkpt>
      <trkpt lat="47.48263" lon="6.77095">
        <ele>363.2</ele>
        <time>2017-05-14T07:20:21.000Z</time>
      </trkpt>
      <trkpt lat="47.48264" lon="6.77091">
        <ele>363.1</ele>
        <time>2017-05-14T07:20:22.000Z</time>
      </trkpt>
      <trkpt lat="47.48265" lon="6.77087">
        <ele>363</ele>
        <time>2017-05-14T07:20:23.000Z</time>
      </trkpt>
      <trkpt lat="47.48266" lon="6.77082">
        <ele>363</ele>
        <time>2017-05-14T07:20:24.000Z</time>
      </trkpt>
      <trkpt lat="47.48267" lon="6.77077">
        <ele>362.8</ele>
        <time>2017-05-14T07:20:25.000Z</time>
      </trkpt>
      <trkpt lat="47.48268" lon="6.77072">
        <ele>362.7</ele>
        <time>2017-05-14T07:20:26.000Z</time>
      </trkpt>
      <trkpt lat="47.48269" lon="6.77067">
        <ele>362.6</ele>
        <time>2017-05-14T07:20:27.000Z</time>
      </trkpt>
      <trkpt lat="47.4827" lon="6.77063">
        <ele>362.5</ele>
        <time>2017-05-14T07:20:28.000Z</time>
      </trkpt>
      <trkpt lat="47.48271" lon="6.77058">
        <ele>362.3</ele>
        <time>2017-05-14T07:20:29.000Z</time>
      </trkpt>
      <trkpt lat="47.48273" lon="6.77054">
        <ele>362.2</ele>
        <time>2017-05-14T07:20:30.000Z</time>
      </trkpt>
      <trkpt lat="47.48274" lon="6.77049">
        <ele>362.1</ele>
        <time>2017-05-14T07:20:31.000Z</time>
      </trkpt>
      <trkpt lat="47.48276" lon="6.77043">
        <ele>362.1</ele>
        <time>2017-05-14T07:20:32.000Z</time>
      </trkpt>
      <trkpt lat="47.48277" lon="6.77037">
        <ele>362</ele>
        <time>2017-05-14T07:20:33.000Z</time>
      </trkpt>
      <trkpt lat="47.48279" lon="6.77032">
        <ele>362</ele>
        <time>2017-05-14T07:20:34.000Z</time>
      </trkpt>
      <trkpt lat="47.4828" lon="6.77027">
        <ele>361.9</ele>
        <time>2017-05-14T07:20:35.000Z</time>
      </trkpt>
      <trkpt lat="47.48281" lon="6.77024">
        <ele>361.8</ele>
        <time>2017-05-14T07:20:36.000Z</time>
      </trkpt>
      <trkpt lat="47.48282" lon="6.77021">
        <ele>361.6</ele>
        <time>2017-05-14T07:20:37.000Z</time>
      </trkpt>
      <trkpt lat="47.48283" lon="6.77018">
        <ele>361.5</ele>
        <time>2017-05-14T07:20:38.000Z</time>
      </trkpt>
      <trkpt lat="47.48283" lon="6.77015">
        <ele>361.5</ele>
        <time>2017-05-14T07:20:39.000Z</time>
      </trkpt>
      <trkpt lat="47.48284" lon="6.77011">
        <ele>361.2</ele>
        <time>2017-05-14T07:20:40.000Z</time>
      </trkpt>
      <trkpt lat="47.48284" lon="6.77007">
        <ele>361</ele>
        <time>2017-05-14T07:20:41.000Z</time>
      </trkpt>
      <trkpt lat="47.48283" lon="6.77004">
        <ele>360.8</ele>
        <time>2017-05-14T07:20:42.000Z</time>
      </trkpt>
      <trkpt lat="47.48281" lon="6.77001">
        <ele>360.5</ele>
        <time>2017-05-14T07:20:43.000Z</time>
      </trkpt>
      <trkpt lat="47.48278" lon="6.76998">
        <ele>360.5</ele>
        <time>2017-05-14T07:20:44.000Z</time>
      </trkpt>
      <trkpt lat="47.48275" lon="6.76998">
        <ele>360.5</ele>
        <time>2017-05-14T07:20:45.000Z</time>
      </trkpt>
      <trkpt lat="47.48271" lon="6.76997">
        <ele>360.6</ele>
        <time>2017-05-14T07:20:46.000Z</time>
      </trkpt>
      <trkpt lat="47.48267" lon="6.76995">
        <ele>360.5</ele>
        <time>2017-05-14T07:20:47.000Z</time>
      </trkpt>
      <trkpt lat="47.48263" lon="6.76993">
        <ele>360.5</ele>
        <time>2017-05-14T07:20:48.000Z</time>
      </trkpt>
      <trkpt lat="47.48258" lon="6.7699">
        <ele>360.3</ele>
        <time>2017-05-14T07:20:49.000Z</time>
      </trkpt>
      <trkpt lat="47.48255" lon="6.76988">
        <ele>360.2</ele>
        <time>2017-05-14T07:20:50.000Z</time>
      </trkpt>
      <trkpt lat="47.4825" lon="6.76985">
        <ele>360.2</ele>
        <time>2017-05-14T07:20:51.000Z</time>
      </trkpt>
      <trkpt lat="47.48247" lon="6.76983">
        <ele>360.1</ele>
        <time>2017-05-14T07:20:52.000Z</time>
      </trkpt>
      <trkpt lat="47.48243" lon="6.76982">
        <ele>360</ele>
        <time>2017-05-14T07:20:53.000Z</time>
      </trkpt>
      <trkpt lat="47.48239" lon="6.7698">
        <ele>359.9</ele>
        <time>2017-05-14T07:20:54.000Z</time>
      </trkpt>
      <trkpt lat="47.48235" lon="6.76978">
        <ele>359.9</ele>
        <time>2017-05-14T07:20:55.000Z</time>
      </trkpt>
      <trkpt lat="47.48232" lon="6.76976">
        <ele>359.8</ele>
        <time>2017-05-14T07:20:56.000Z</time>
      </trkpt>
      <trkpt lat="47.48229" lon="6.76974">
        <ele>359.8</ele>
        <time>2017-05-14T07:20:57.000Z</time>
      </trkpt>
      <trkpt lat="47.48225" lon="6.76972">
        <ele>359.7</ele>
        <time>2017-05-14T07:20:58.000Z</time>
      </trkpt>
      <trkpt lat="47.48222" lon="6.7697">
        <ele>359.6</ele>
        <time>2017-05-14T07:20:59.000Z</time>
      </trkpt>
      <trkpt lat="47.48219" lon="6.76968">
        <ele>359.6</ele>
        <time>2017-05-14T07:21:00.000Z</time>
      </trkpt>
      <trkpt lat="47.48216" lon="6.76965">
        <ele>359.4</ele>
        <time>2017-05-14T07:21:01.000Z</time>
      </trkpt>
      <trkpt lat="47.48214" lon="6.76962">
        <ele>359.4</ele>
        <time>2017-05-14T07:21:02.000Z</time>
      </trkpt>
      <trkpt lat="47.48211" lon="6.76959">
        <ele>359.2</ele>
        <time>2017-05-14T07:21:03.000Z</time>
      </trkpt>
      <trkpt lat="47.48208" lon="6.76958">
        <ele>359.1</ele>
        <time>2017-05-14T07:21:04.000Z</time>
      </trkpt>
      <trkpt lat="47.48205" lon="6.76956">
        <ele>359</ele>
        <time>2017-05-14T07:21:05.000Z</time>
      </trkpt>
      <trkpt lat="47.48201" lon="6.76955">
        <ele>359</ele>
        <time>2017-05-14T07:21:06.000Z</time>
      </trkpt>
      <trkpt lat="47.48197" lon="6.76953">
        <ele>358.5</ele>
        <time>2017-05-14T07:21:07.000Z</time>
      </trkpt>
      <trkpt lat="47.48194" lon="6.76952">
        <ele>358.5</ele>
        <time>2017-05-14T07:21:08.000Z</time>
      </trkpt>
      <trkpt lat="47.4819" lon="6.76949">
        <ele>358.5</ele>
        <time>2017-05-14T07:21:09.000Z</time>
      </trkpt>
      <trkpt lat="47.48187" lon="6.76947">
        <ele>358.5</ele>
        <time>2017-05-14T07:21:10.000Z</time>
      </trkpt>
      <trkpt lat="47.48184" lon="6.76945">
        <ele>358.5</ele>
        <time>2017-05-14T07:21:11.000Z</time>
      </trkpt>
      <trkpt lat="47.48181" lon="6.76943">
        <ele>358.5</ele>
        <time>2017-05-14T07:21:12.000Z</time>
      </trkpt>
      <trkpt lat="47.48177" lon="6.7694">
        <ele>358.5</ele>
        <time>2017-05-14T07:21:13.000Z</time>
      </trkpt>
      <trkpt lat="47.48174" lon="6.76938">
        <ele>358.5</ele>
        <time>2017-05-14T07:21:14.000Z</time>
      </trkpt>
      <trkpt lat="47.48171" lon="6.76937">
        <ele>358.5</ele>
        <time>2017-05-14T07:21:15.000Z</time>
      </trkpt>
      <trkpt lat="47.48167" lon="6.76935">
        <ele>358.5</ele>
        <time>2017-05-14T07:21:16.000Z</time>
      </trkpt>
      <trkpt lat="47.48164" lon="6.76933">
        <ele>358.4</ele>
        <time>2017-05-14T07:21:17.000Z</time>
      </trkpt>
      <trkpt lat="47.48161" lon="6.76931">
        <ele>358.4</ele>
        <time>2017-05-14T07:21:18.000Z</time>
      </trkpt>
      <trkpt lat="47.48157" lon="6.76929">
        <ele>358.5</ele>
        <time>2017-05-14T07:21:19.000Z</time>
      </trkpt>
      <trkpt lat="47.48154" lon="6.76927">
        <ele>358.5</ele>
        <time>2017-05-14T07:21:20.000Z</time>
      </trkpt>
      <trkpt lat="47.48151" lon="6.76925">
        <ele>358.6</ele>
        <time>2017-05-14T07:21:21.000Z</time>
      </trkpt>
      <trkpt lat="47.48148" lon="6.76924">
        <ele>358.6</ele>
        <time>2017-05-14T07:21:22.000Z</time>
      </trkpt>
      <trkpt lat="47.48145" lon="6.76922">
        <ele>358.6</ele>
        <time>2017-05-14T07:21:23.000Z</time>
      </trkpt>
      <trkpt lat="47.48141" lon="6.76921">
        <ele>358.6</ele>
        <time>2017-05-14T07:21:24.000Z</time>
      </trkpt>
      <trkpt lat="47.48138" lon="6.7692">
        <ele>358.7</ele>
        <time>2017-05-14T07:21:25.000Z</time>
      </trkpt>
      <trkpt lat="47.48134" lon="6.76919">
        <ele>358.7</ele>
        <time>2017-05-14T07:21:26.000Z</time>
      </trkpt>
      <trkpt lat="47.48131" lon="6.76917">
        <ele>358.7</ele>
        <time>2017-05-14T07:21:27.000Z</time>
      </trkpt>
      <trkpt lat="47.48128" lon="6.76915">
        <ele>358.7</ele>
        <time>2017-05-14T07:21:28.000Z</time>
      </trkpt>
      <trkpt lat="47.48126" lon="6.76914">
        <ele>358.7</ele>
        <time>2017-05-14T07:21:29.000Z</time>
      </trkpt>
      <trkpt lat="47.48123" lon="6.76912">
        <ele>358.7</ele>
        <time>2017-05-14T07:21:30.000Z</time>
      </trkpt>
      <trkpt lat="47.4812" lon="6.7691">
        <ele>358.9</ele>
        <time>2017-05-14T07:21:31.000Z</time>
      </trkpt>
      <trkpt lat="47.48117" lon="6.76907">
        <ele>358.9</ele>
        <time>2017-05-14T07:21:32.000Z</time>
      </trkpt>
      <trkpt lat="47.48113" lon="6.76905">
        <ele>359</ele>
        <time>2017-05-14T07:21:33.000Z</time>
      </trkpt>
      <trkpt lat="47.4811" lon="6.76902">
        <ele>359.1</ele>
        <time>2017-05-14T07:21:34.000Z</time>
      </trkpt>
      <trkpt lat="47.48106" lon="6.76898">
        <ele>359.2</ele>
        <time>2017-05-14T07:21:35.000Z</time>
      </trkpt>
      <trkpt lat="47.48102" lon="6.76895">
        <ele>360.1</ele>
        <time>2017-05-14T07:21:36.000Z</time>
      </trkpt>
      <trkpt lat="47.48098" lon="6.76892">
        <ele>360.5</ele>
        <time>2017-05-14T07:21:37.000Z</time>
      </trkpt>
      <trkpt lat="47.48094" lon="6.7689">
        <ele>360.5</ele>
        <time>2017-05-14T07:21:38.000Z</time>
      </trkpt>
      <trkpt lat="47.48091" lon="6.76887">
        <ele>360.5</ele>
        <time>2017-05-14T07:21:39.000Z</time>
      </trkpt>
      <trkpt lat="47.48088" lon="6.76884">
        <ele>360.5</ele>
        <time>2017-05-14T07:21:40.000Z</time>
      </trkpt>
      <trkpt lat="47.48085" lon="6.76882">
        <ele>360.5</ele>
        <time>2017-05-14T07:21:41.000Z</time>
      </trkpt>
      <trkpt lat="47.48082" lon="6.7688">
        <ele>360.4</ele>
        <time>2017-05-14T07:21:42.000Z</time>
      </trkpt>
      <trkpt lat="47.4808" lon="6.76877">
        <ele>360.4</ele>
        <time>2017-05-14T07:21:43.000Z</time>
      </trkpt>
      <trkpt lat="47.48078" lon="6.76874">
        <ele>360.4</ele>
        <time>2017-05-14T07:21:44.000Z</time>
      </trkpt>
      <trkpt lat="47.48074" lon="6.76871">
        <ele>360.4</ele>
        <time>2017-05-14T07:21:45.000Z</time>
      </trkpt>
      <trkpt lat="47.48072" lon="6.76868">
        <ele>360.5</ele>
        <time>2017-05-14T07:21:46.000Z</time>
      </trkpt>
      <trkpt lat="47.48069" lon="6.76865">
        <ele>360.6</ele>
        <time>2017-05-14T07:21:47.000Z</time>
      </trkpt>
      <trkpt lat="47.48066" lon="6.76861">
        <ele>360.7</ele>
        <time>2017-05-14T07:21:48.000Z</time>
      </trkpt>
      <trkpt lat="47.48063" lon="6.76858">
        <ele>360.7</ele>
        <time>2017-05-14T07:21:49.000Z</time>
      </trkpt>
      <trkpt lat="47.4806" lon="6.76854">
        <ele>360.8</ele>
        <time>2017-05-14T07:21:50.000Z</time>
      </trkpt>
      <trkpt lat="47.48058" lon="6.76851">
        <ele>360.9</ele>
        <time>2017-05-14T07:21:51.000Z</time>
      </trkpt>
      <trkpt lat="47.48055" lon="6.76848">
        <ele>360.9</ele>
        <time>2017-05-14T07:21:52.000Z</time>
      </trkpt>
      <trkpt lat="47.48053" lon="6.76845">
        <ele>361</ele>
        <time>2017-05-14T07:21:53.000Z</time>
      </trkpt>
      <trkpt lat="47.4805" lon="6.76842">
        <ele>361</ele>
        <time>2017-05-14T07:21:54.000Z</time>
      </trkpt>
      <trkpt lat="47.48047" lon="6.7684">
        <ele>360.8</ele>
        <time>2017-05-14T07:21:55.000Z</time>
      </trkpt>
      <trkpt lat="47.48045" lon="6.76837">
        <ele>360.7</ele>
        <time>2017-05-14T07:21:56.000Z</time>
      </trkpt>
      <trkpt lat="47.48043" lon="6.76834">
        <ele>360.6</ele>
        <time>2017-05-14T07:21:57.000Z</time>
      </trkpt>
      <trkpt lat="47.4804" lon="6.76831">
        <ele>360.5</ele>
        <time>2017-05-14T07:21:58.000Z</time>
      </trkpt>
      <trkpt lat="47.48038" lon="6.76828">
        <ele>360.4</ele>
        <time>2017-05-14T07:21:59.000Z</time>
      </trkpt>
      <trkpt lat="47.48035" lon="6.76825">
        <ele>360.3</ele>
        <time>2017-05-14T07:22:00.000Z</time>
      </trkpt>
      <trkpt lat="47.48033" lon="6.76822">
        <ele>360.2</ele>
        <time>2017-05-14T07:22:01.000Z</time>
      </trkpt>
      <trkpt lat="47.4803" lon="6.76818">
        <ele>360.1</ele>
        <time>2017-05-14T07:22:02.000Z</time>
      </trkpt>
      <trkpt lat="47.48027" lon="6.76815">
        <ele>358.4</ele>
        <time>2017-05-14T07:22:03.000Z</time>
      </trkpt>
      <trkpt lat="47.48024" lon="6.76811">
        <ele>357</ele>
        <time>2017-05-14T07:22:04.000Z</time>
      </trkpt>
      <trkpt lat="47.48022" lon="6.76806">
        <ele>355.7</ele>
        <time>2017-05-14T07:22:05.000Z</time>
      </trkpt>
      <trkpt lat="47.48019" lon="6.76802">
        <ele>355</ele>
        <time>2017-05-14T07:22:06.000Z</time>
      </trkpt>
      <trkpt lat="47.48016" lon="6.76797">
        <ele>354.4</ele>
        <time>2017-05-14T07:22:07.000Z</time>
      </trkpt>
      <trkpt lat="47.48013" lon="6.76791">
        <ele>354.1</ele>
        <time>2017-05-14T07:22:08.000Z</time>
      </trkpt>
      <trkpt lat="47.4801" lon="6.76786">
        <ele>353.7</ele>
        <time>2017-05-14T07:22:09.000Z</time>
      </trkpt>
      <trkpt lat="47.48007" lon="6.76781">
        <ele>353.8</ele>
        <time>2017-05-14T07:22:10.000Z</time>
      </trkpt>
      <trkpt lat="47.48005" lon="6.76774">
        <ele>354.4</ele>
        <time>2017-05-14T07:22:11.000Z</time>
      </trkpt>
      <trkpt lat="47.48002" lon="6.76768">
        <ele>355</ele>
        <time>2017-05-14T07:22:12.000Z</time>
      </trkpt>
      <trkpt lat="47.47999" lon="6.76763">
        <ele>355.4</ele>
        <time>2017-05-14T07:22:13.000Z</time>
      </trkpt>
      <trkpt lat="47.47996" lon="6.76757">
        <ele>355.3</ele>
        <time>2017-05-14T07:22:14.000Z</time>
      </trkpt>
      <trkpt lat="47.47995" lon="6.76752">
        <ele>355.4</ele>
        <time>2017-05-14T07:22:15.000Z</time>
      </trkpt>
      <trkpt lat="47.47993" lon="6.76747">
        <ele>355.4</ele>
        <time>2017-05-14T07:22:16.000Z</time>
      </trkpt>
      <trkpt lat="47.47992" lon="6.76742">
        <ele>355.6</ele>
        <time>2017-05-14T07:22:17.000Z</time>
      </trkpt>
      <trkpt lat="47.47991" lon="6.76737">
        <ele>355.7</ele>
        <time>2017-05-14T07:22:18.000Z</time>
      </trkpt>
      <trkpt lat="47.47989" lon="6.76732">
        <ele>357.4</ele>
        <time>2017-05-14T07:22:19.000Z</time>
      </trkpt>
      <trkpt lat="47.47987" lon="6.76726">
        <ele>358</ele>
        <time>2017-05-14T07:22:20.000Z</time>
      </trkpt>
      <trkpt lat="47.47985" lon="6.7672">
        <ele>358.7</ele>
        <time>2017-05-14T07:22:21.000Z</time>
      </trkpt>
      <trkpt lat="47.47984" lon="6.76713">
        <ele>359.1</ele>
        <time>2017-05-14T07:22:22.000Z</time>
      </trkpt>
      <trkpt lat="47.47983" lon="6.76707">
        <ele>359.2</ele>
        <time>2017-05-14T07:22:23.000Z</time>
      </trkpt>
      <trkpt lat="47.47982" lon="6.76701">
        <ele>359.2</ele>
        <time>2017-05-14T07:22:24.000Z</time>
      </trkpt>
      <trkpt lat="47.47982" lon="6.76695">
        <ele>359.2</ele>
        <time>2017-05-14T07:22:25.000Z</time>
      </trkpt>
      <trkpt lat="47.47981" lon="6.7669">
        <ele>359.2</ele>
        <time>2017-05-14T07:22:26.000Z</time>
      </trkpt>
      <trkpt lat="47.4798" lon="6.76686">
        <ele>359.2</ele>
        <time>2017-05-14T07:22:27.000Z</time>
      </trkpt>
      <trkpt lat="47.4798" lon="6.7668">
        <ele>359.1</ele>
        <time>2017-05-14T07:22:28.000Z</time>
      </trkpt>
      <trkpt lat="47.47979" lon="6.76674">
        <ele>359</ele>
        <time>2017-05-14T07:22:29.000Z</time>
      </trkpt>
      <trkpt lat="47.47978" lon="6.76668">
        <ele>359</ele>
        <time>2017-05-14T07:22:30.000Z</time>
      </trkpt>
      <trkpt lat="47.47978" lon="6.76662">
        <ele>358.2</ele>
        <time>2017-05-14T07:22:31.000Z</time>
      </trkpt>
      <trkpt lat="47.47978" lon="6.76657">
        <ele>358.1</ele>
        <time>2017-05-14T07:22:32.000Z</time>
      </trkpt>
      <trkpt lat="47.47978" lon="6.76653">
        <ele>358.1</ele>
        <time>2017-05-14T07:22:33.000Z</time>
      </trkpt>
      <trkpt lat="47.47976" lon="6.76648">
        <ele>358.1</ele>
        <time>2017-05-14T07:22:34.000Z</time>
      </trkpt>
      <trkpt lat="47.47975" lon="6.76643">
        <ele>358.1</ele>
        <time>2017-05-14T07:22:35.000Z</time>
      </trkpt>
      <trkpt lat="47.47973" lon="6.76638">
        <ele>358.1</ele>
        <time>2017-05-14T07:22:36.000Z</time>
      </trkpt>
      <trkpt lat="47.47972" lon="6.76633">
        <ele>358.2</ele>
        <time>2017-05-14T07:22:37.000Z</time>
      </trkpt>
      <trkpt lat="47.4797" lon="6.76627">
        <ele>358.1</ele>
        <time>2017-05-14T07:22:38.000Z</time>
      </trkpt>
      <trkpt lat="47.47968" lon="6.76622">
        <ele>357.3</ele>
        <time>2017-05-14T07:22:39.000Z</time>
      </trkpt>
      <trkpt lat="47.47968" lon="6.76617">
        <ele>357.1</ele>
        <time>2017-05-14T07:22:40.000Z</time>
      </trkpt>
      <trkpt lat="47.47966" lon="6.76612">
        <ele>357</ele>
        <time>2017-05-14T07:22:41.000Z</time>
      </trkpt>
      <trkpt lat="47.47964" lon="6.76608">
        <ele>356.9</ele>
        <time>2017-05-14T07:22:42.000Z</time>
      </trkpt>
      <trkpt lat="47.4796" lon="6.76605">
        <ele>356.8</ele>
        <time>2017-05-14T07:22:43.000Z</time>
      </trkpt>
      <trkpt lat="47.47957" lon="6.76603">
        <ele>356.8</ele>
        <time>2017-05-14T07:22:44.000Z</time>
      </trkpt>
      <trkpt lat="47.47954" lon="6.76601">
        <ele>356.7</ele>
        <time>2017-05-14T07:22:45.000Z</time>
      </trkpt>
      <trkpt lat="47.47953" lon="6.76597">
        <ele>356.7</ele>
        <time>2017-05-14T07:22:46.000Z</time>
      </trkpt>
      <trkpt lat="47.47952" lon="6.76595">
        <ele>356.6</ele>
        <time>2017-05-14T07:22:47.000Z</time>
      </trkpt>
      <trkpt lat="47.4795" lon="6.76592">
        <ele>356.5</ele>
        <time>2017-05-14T07:22:48.000Z</time>
      </trkpt>
      <trkpt lat="47.4795" lon="6.76589">
        <ele>356.4</ele>
        <time>2017-05-14T07:22:49.000Z</time>
      </trkpt>
      <trkpt lat="47.47949" lon="6.76585">
        <ele>356.4</ele>
        <time>2017-05-14T07:22:50.000Z</time>
      </trkpt>
      <trkpt lat="47.47949" lon="6.76579">
        <ele>356.5</ele>
        <time>2017-05-14T07:22:52.000Z</time>
      </trkpt>
      <trkpt lat="47.47948" lon="6.76577">
        <ele>356.6</ele>
        <time>2017-05-14T07:22:53.000Z</time>
      </trkpt>
      <trkpt lat="47.47949" lon="6.7657">
        <ele>357.5</ele>
        <time>2017-05-14T07:23:15.000Z</time>
      </trkpt>
      <trkpt lat="47.4795" lon="6.7657">
        <ele>357.5</ele>
        <time>2017-05-14T07:23:16.000Z</time>
      </trkpt>
      <trkpt lat="47.47945" lon="6.76571">
        <ele>355.8</ele>
        <time>2017-05-14T07:23:42.000Z</time>
      </trkpt>
      <trkpt lat="47.47945" lon="6.7657">
        <ele>355.8</ele>
        <time>2017-05-14T07:23:43.000Z</time>
      </trkpt>
      <trkpt lat="47.47946" lon="6.76567">
        <ele>357.5</ele>
        <time>2017-05-14T07:25:56.000Z</time>
      </trkpt>
      <trkpt lat="47.47945" lon="6.76563">
        <ele>357.5</ele>
        <time>2017-05-14T07:25:57.000Z</time>
      </trkpt>
      <trkpt lat="47.47944" lon="6.76559">
        <ele>357.5</ele>
        <time>2017-05-14T07:25:58.000Z</time>
      </trkpt>
      <trkpt lat="47.47943" lon="6.76555">
        <ele>357.4</ele>
        <time>2017-05-14T07:25:59.000Z</time>
      </trkpt>
      <trkpt lat="47.47943" lon="6.76551">
        <ele>357.4</ele>
        <time>2017-05-14T07:26:00.000Z</time>
      </trkpt>
      <trkpt lat="47.47942" lon="6.76547">
        <ele>357.4</ele>
        <time>2017-05-14T07:26:01.000Z</time>
      </trkpt>
      <trkpt lat="47.47941" lon="6.76544">
        <ele>357.3</ele>
        <time>2017-05-14T07:26:02.000Z</time>
      </trkpt>
      <trkpt lat="47.4794" lon="6.7654">
        <ele>357.2</ele>
        <time>2017-05-14T07:26:03.000Z</time>
      </trkpt>
      <trkpt lat="47.47939" lon="6.76537">
        <ele>357.1</ele>
        <time>2017-05-14T07:26:04.000Z</time>
      </trkpt>
      <trkpt lat="47.47938" lon="6.76533">
        <ele>357</ele>
        <time>2017-05-14T07:26:05.000Z</time>
      </trkpt>
      <trkpt lat="47.47938" lon="6.76529">
        <ele>356.9</ele>
        <time>2017-05-14T07:26:06.000Z</time>
      </trkpt>
      <trkpt lat="47.47937" lon="6.76525">
        <ele>356.8</ele>
        <time>2017-05-14T07:26:07.000Z</time>
      </trkpt>
      <trkpt lat="47.47937" lon="6.76521">
        <ele>356.7</ele>
        <time>2017-05-14T07:26:08.000Z</time>
      </trkpt>
      <trkpt lat="47.47936" lon="6.76516">
        <ele>356.6</ele>
        <time>2017-05-14T07:26:09.000Z</time>
      </trkpt>
      <trkpt lat="47.47936" lon="6.76511">
        <ele>356.5</ele>
        <time>2017-05-14T07:26:10.000Z</time>
      </trkpt>
      <trkpt lat="47.47935" lon="6.76507">
        <ele>356.5</ele>
        <time>2017-05-14T07:26:11.000Z</time>
      </trkpt>
      <trkpt lat="47.47933" lon="6.76502">
        <ele>356.4</ele>
        <time>2017-05-14T07:26:12.000Z</time>
      </trkpt>
      <trkpt lat="47.47932" lon="6.76497">
        <ele>356.4</ele>
        <time>2017-05-14T07:26:13.000Z</time>
      </trkpt>
      <trkpt lat="47.47931" lon="6.76492">
        <ele>356.4</ele>
        <time>2017-05-14T07:26:14.000Z</time>
      </trkpt>
      <trkpt lat="47.4793" lon="6.76488">
        <ele>356.3</ele>
        <time>2017-05-14T07:26:15.000Z</time>
      </trkpt>
      <trkpt lat="47.47928" lon="6.76483">
        <ele>356.3</ele>
        <time>2017-05-14T07:26:16.000Z</time>
      </trkpt>
      <trkpt lat="47.47927" lon="6.76478">
        <ele>356.3</ele>
        <time>2017-05-14T07:26:17.000Z</time>
      </trkpt>
      <trkpt lat="47.47926" lon="6.76472">
        <ele>356.3</ele>
        <time>2017-05-14T07:26:18.000Z</time>
      </trkpt>
      <trkpt lat="47.47924" lon="6.76467">
        <ele>356.3</ele>
        <time>2017-05-14T07:26:19.000Z</time>
      </trkpt>
      <trkpt lat="47.47922" lon="6.76461">
        <ele>356.9</ele>
        <time>2017-05-14T07:26:20.000Z</time>
      </trkpt>
      <trkpt lat="47.47921" lon="6.76455">
        <ele>357.5</ele>
        <time>2017-05-14T07:26:21.000Z</time>
      </trkpt>
      <trkpt lat="47.47919" lon="6.76449">
        <ele>357.2</ele>
        <time>2017-05-14T07:26:22.000Z</time>
      </trkpt>
      <trkpt lat="47.47918" lon="6.76444">
        <ele>357.3</ele>
        <time>2017-05-14T07:26:23.000Z</time>
      </trkpt>
      <trkpt lat="47.47917" lon="6.76439">
        <ele>357.1</ele>
        <time>2017-05-14T07:26:24.000Z</time>
      </trkpt>
      <trkpt lat="47.47915" lon="6.76434">
        <ele>357.1</ele>
        <time>2017-05-14T07:26:25.000Z</time>
      </trkpt>
      <trkpt lat="47.47914" lon="6.76429">
        <ele>357</ele>
        <time>2017-05-14T07:26:26.000Z</time>
      </trkpt>
      <trkpt lat="47.47913" lon="6.76424">
        <ele>357</ele>
        <time>2017-05-14T07:26:27.000Z</time>
      </trkpt>
      <trkpt lat="47.47911" lon="6.76419">
        <ele>356.9</ele>
        <time>2017-05-14T07:26:28.000Z</time>
      </trkpt>
      <trkpt lat="47.47909" lon="6.76414">
        <ele>356.9</ele>
        <time>2017-05-14T07:26:29.000Z</time>
      </trkpt>
      <trkpt lat="47.47908" lon="6.7641">
        <ele>356.8</ele>
        <time>2017-05-14T07:26:30.000Z</time>
      </trkpt>
      <trkpt lat="47.47906" lon="6.76405">
        <ele>356.8</ele>
        <time>2017-05-14T07:26:31.000Z</time>
      </trkpt>
      <trkpt lat="47.47903" lon="6.76401">
        <ele>356.8</ele>
        <time>2017-05-14T07:26:32.000Z</time>
      </trkpt>
      <trkpt lat="47.47902" lon="6.76397">
        <ele>356.8</ele>
        <time>2017-05-14T07:26:33.000Z</time>
      </trkpt>
      <trkpt lat="47.479" lon="6.76391">
        <ele>357.1</ele>
        <time>2017-05-14T07:26:34.000Z</time>
      </trkpt>
      <trkpt lat="47.47898" lon="6.76387">
        <ele>357</ele>
        <time>2017-05-14T07:26:35.000Z</time>
      </trkpt>
      <trkpt lat="47.47896" lon="6.76383">
        <ele>357</ele>
        <time>2017-05-14T07:26:36.000Z</time>
      </trkpt>
      <trkpt lat="47.47894" lon="6.76378">
        <ele>356.9</ele>
        <time>2017-05-14T07:26:37.000Z</time>
      </trkpt>
      <trkpt lat="47.47892" lon="6.76373">
        <ele>356.9</ele>
        <time>2017-05-14T07:26:38.000Z</time>
      </trkpt>
      <trkpt lat="47.4789" lon="6.76368">
        <ele>356</ele>
        <time>2017-05-14T07:26:39.000Z</time>
      </trkpt>
      <trkpt lat="47.47887" lon="6.76364">
        <ele>355.3</ele>
        <time>2017-05-14T07:26:40.000Z</time>
      </trkpt>
      <trkpt lat="47.47885" lon="6.76359">
        <ele>355.2</ele>
        <time>2017-05-14T07:26:41.000Z</time>
      </trkpt>
      <trkpt lat="47.47884" lon="6.76355">
        <ele>355.1</ele>
        <time>2017-05-14T07:26:42.000Z</time>
      </trkpt>
      <trkpt lat="47.47882" lon="6.7635">
        <ele>354.5</ele>
        <time>2017-05-14T07:26:43.000Z</time>
      </trkpt>
      <trkpt lat="47.47879" lon="6.76345">
        <ele>354.2</ele>
        <time>2017-05-14T07:26:44.000Z</time>
      </trkpt>
      <trkpt lat="47.47877" lon="6.7634">
        <ele>353.4</ele>
        <time>2017-05-14T07:26:45.000Z</time>
      </trkpt>
      <trkpt lat="47.47875" lon="6.76336">
        <ele>353.8</ele>
        <time>2017-05-14T07:26:46.000Z</time>
      </trkpt>
      <trkpt lat="47.47872" lon="6.76331">
        <ele>353.8</ele>
        <time>2017-05-14T07:26:47.000Z</time>
      </trkpt>
      <trkpt lat="47.4787" lon="6.76327">
        <ele>354.8</ele>
        <time>2017-05-14T07:26:48.000Z</time>
      </trkpt>
      <trkpt lat="47.47867" lon="6.76322">
        <ele>355.5</ele>
        <time>2017-05-14T07:26:49.000Z</time>
      </trkpt>
      <trkpt lat="47.47864" lon="6.76317">
        <ele>356.8</ele>
        <time>2017-05-14T07:26:50.000Z</time>
      </trkpt>
      <trkpt lat="47.47862" lon="6.76313">
        <ele>357.2</ele>
        <time>2017-05-14T07:26:51.000Z</time>
      </trkpt>
      <trkpt lat="47.47858" lon="6.76309">
        <ele>357.2</ele>
        <time>2017-05-14T07:26:52.000Z</time>
      </trkpt>
      <trkpt lat="47.47856" lon="6.76305">
        <ele>357.2</ele>
        <time>2017-05-14T07:26:53.000Z</time>
      </trkpt>
      <trkpt lat="47.47852" lon="6.76301">
        <ele>357.5</ele>
        <time>2017-05-14T07:26:54.000Z</time>
      </trkpt>
      <trkpt lat="47.47849" lon="6.76296">
        <ele>357.3</ele>
        <time>2017-05-14T07:26:55.000Z</time>
      </trkpt>
      <trkpt lat="47.47847" lon="6.76291">
        <ele>357.3</ele>
        <time>2017-05-14T07:26:56.000Z</time>
      </trkpt>
      <trkpt lat="47.47844" lon="6.76287">
        <ele>357.6</ele>
        <time>2017-05-14T07:26:57.000Z</time>
      </trkpt>
      <trkpt lat="47.4784" lon="6.76283">
        <ele>358</ele>
        <time>2017-05-14T07:26:58.000Z</time>
      </trkpt>
      <trkpt lat="47.47835" lon="6.76278">
        <ele>358.5</ele>
        <time>2017-05-14T07:26:59.000Z</time>
      </trkpt>
      <trkpt lat="47.4783" lon="6.76274">
        <ele>359.3</ele>
        <time>2017-05-14T07:27:00.000Z</time>
      </trkpt>
      <trkpt lat="47.47826" lon="6.76272">
        <ele>360.5</ele>
        <time>2017-05-14T07:27:01.000Z</time>
      </trkpt>
      <trkpt lat="47.47822" lon="6.76269">
        <ele>361.2</ele>
        <time>2017-05-14T07:27:02.000Z</time>
      </trkpt>
      <trkpt lat="47.47818" lon="6.76267">
        <ele>361.3</ele>
        <time>2017-05-14T07:27:03.000Z</time>
      </trkpt>
      <trkpt lat="47.47814" lon="6.76264">
        <ele>362</ele>
        <time>2017-05-14T07:27:04.000Z</time>
      </trkpt>
      <trkpt lat="47.4781" lon="6.76262">
        <ele>361.7</ele>
        <time>2017-05-14T07:27:05.000Z</time>
      </trkpt>
      <trkpt lat="47.47806" lon="6.7626">
        <ele>362.1</ele>
        <time>2017-05-14T07:27:06.000Z</time>
      </trkpt>
      <trkpt lat="47.47802" lon="6.76258">
        <ele>362.3</ele>
        <time>2017-05-14T07:27:07.000Z</time>
      </trkpt>
      <trkpt lat="47.47798" lon="6.76257">
        <ele>362.3</ele>
        <time>2017-05-14T07:27:08.000Z</time>
      </trkpt>
      <trkpt lat="47.47794" lon="6.76254">
        <ele>362.2</ele>
        <time>2017-05-14T07:27:09.000Z</time>
      </trkpt>
      <trkpt lat="47.47791" lon="6.76252">
        <ele>362.4</ele>
        <time>2017-05-14T07:27:10.000Z</time>
      </trkpt>
      <trkpt lat="47.47787" lon="6.7625">
        <ele>362.7</ele>
        <time>2017-05-14T07:27:11.000Z</time>
      </trkpt>
      <trkpt lat="47.47784" lon="6.76248">
        <ele>363</ele>
        <time>2017-05-14T07:27:12.000Z</time>
      </trkpt>
      <trkpt lat="47.4778" lon="6.76244">
        <ele>363</ele>
        <time>2017-05-14T07:27:13.000Z</time>
      </trkpt>
      <trkpt lat="47.47777" lon="6.76239">
        <ele>362.9</ele>
        <time>2017-05-14T07:27:14.000Z</time>
      </trkpt>
      <trkpt lat="47.47773" lon="6.76234">
        <ele>362.6</ele>
        <time>2017-05-14T07:27:15.000Z</time>
      </trkpt>
      <trkpt lat="47.4777" lon="6.76229">
        <ele>362.1</ele>
        <time>2017-05-14T07:27:16.000Z</time>
      </trkpt>
      <trkpt lat="47.47767" lon="6.76224">
        <ele>361.6</ele>
        <time>2017-05-14T07:27:17.000Z</time>
      </trkpt>
      <trkpt lat="47.47765" lon="6.76219">
        <ele>361</ele>
        <time>2017-05-14T07:27:18.000Z</time>
      </trkpt>
      <trkpt lat="47.47762" lon="6.76215">
        <ele>360.7</ele>
        <time>2017-05-14T07:27:19.000Z</time>
      </trkpt>
      <trkpt lat="47.47759" lon="6.7621">
        <ele>360.7</ele>
        <time>2017-05-14T07:27:20.000Z</time>
      </trkpt>
      <trkpt lat="47.47757" lon="6.76206">
        <ele>360.6</ele>
        <time>2017-05-14T07:27:21.000Z</time>
      </trkpt>
      <trkpt lat="47.47755" lon="6.76202">
        <ele>359.4</ele>
        <time>2017-05-14T07:27:22.000Z</time>
      </trkpt>
      <trkpt lat="47.47752" lon="6.76196">
        <ele>358.4</ele>
        <time>2017-05-14T07:27:23.000Z</time>
      </trkpt>
      <trkpt lat="47.47748" lon="6.7619">
        <ele>357.6</ele>
        <time>2017-05-14T07:27:24.000Z</time>
      </trkpt>
      <trkpt lat="47.47744" lon="6.76184">
        <ele>357.1</ele>
        <time>2017-05-14T07:27:25.000Z</time>
      </trkpt>
      <trkpt lat="47.47741" lon="6.76179">
        <ele>356.6</ele>
        <time>2017-05-14T07:27:26.000Z</time>
      </trkpt>
      <trkpt lat="47.47738" lon="6.76175">
        <ele>355.7</ele>
        <time>2017-05-14T07:27:27.000Z</time>
      </trkpt>
      <trkpt lat="47.47735" lon="6.76169">
        <ele>355.1</ele>
        <time>2017-05-14T07:27:28.000Z</time>
      </trkpt>
      <trkpt lat="47.47733" lon="6.76165">
        <ele>354.8</ele>
        <time>2017-05-14T07:27:29.000Z</time>
      </trkpt>
      <trkpt lat="47.4773" lon="6.7616">
        <ele>354.5</ele>
        <time>2017-05-14T07:27:30.000Z</time>
      </trkpt>
      <trkpt lat="47.47727" lon="6.76155">
        <ele>354.5</ele>
        <time>2017-05-14T07:27:31.000Z</time>
      </trkpt>
      <trkpt lat="47.47725" lon="6.76151">
        <ele>354.5</ele>
        <time>2017-05-14T07:27:32.000Z</time>
      </trkpt>
      <trkpt lat="47.47722" lon="6.76145">
        <ele>354.5</ele>
        <time>2017-05-14T07:27:33.000Z</time>
      </trkpt>
      <trkpt lat="47.47718" lon="6.7614">
        <ele>354.4</ele>
        <time>2017-05-14T07:27:34.000Z</time>
      </trkpt>
      <trkpt lat="47.47715" lon="6.76136">
        <ele>354.5</ele>
        <time>2017-05-14T07:27:35.000Z</time>
      </trkpt>
      <trkpt lat="47.47712" lon="6.76131">
        <ele>354.3</ele>
        <time>2017-05-14T07:27:36.000Z</time>
      </trkpt>
      <trkpt lat="47.47708" lon="6.76127">
        <ele>354.2</ele>
        <time>2017-05-14T07:27:37.000Z</time>
      </trkpt>
      <trkpt lat="47.47705" lon="6.76122">
        <ele>353.7</ele>
        <time>2017-05-14T07:27:38.000Z</time>
      </trkpt>
      <trkpt lat="47.47702" lon="6.76118">
        <ele>353.6</ele>
        <time>2017-05-14T07:27:39.000Z</time>
      </trkpt>
      <trkpt lat="47.47699" lon="6.76114">
        <ele>353.6</ele>
        <time>2017-05-14T07:27:40.000Z</time>
      </trkpt>
      <trkpt lat="47.47695" lon="6.76108">
        <ele>353.2</ele>
        <time>2017-05-14T07:27:41.000Z</time>
      </trkpt>
      <trkpt lat="47.47692" lon="6.76102">
        <ele>352.5</ele>
        <time>2017-05-14T07:27:42.000Z</time>
      </trkpt>
      <trkpt lat="47.47688" lon="6.76097">
        <ele>352.5</ele>
        <time>2017-05-14T07:27:43.000Z</time>
      </trkpt>
      <trkpt lat="47.47686" lon="6.76093">
        <ele>352.3</ele>
        <time>2017-05-14T07:27:44.000Z</time>
      </trkpt>
      <trkpt lat="47.47683" lon="6.76088">
        <ele>351.9</ele>
        <time>2017-05-14T07:27:45.000Z</time>
      </trkpt>
      <trkpt lat="47.4768" lon="6.76084">
        <ele>351.6</ele>
        <time>2017-05-14T07:27:46.000Z</time>
      </trkpt>
      <trkpt lat="47.47677" lon="6.76079">
        <ele>351.8</ele>
        <time>2017-05-14T07:27:47.000Z</time>
      </trkpt>
      <trkpt lat="47.47673" lon="6.76073">
        <ele>351.6</ele>
        <time>2017-05-14T07:27:48.000Z</time>
      </trkpt>
      <trkpt lat="47.47671" lon="6.76068">
        <ele>351.8</ele>
        <time>2017-05-14T07:27:49.000Z</time>
      </trkpt>
      <trkpt lat="47.47669" lon="6.76062">
        <ele>351.6</ele>
        <time>2017-05-14T07:27:50.000Z</time>
      </trkpt>
      <trkpt lat="47.47667" lon="6.76056">
        <ele>351.4</ele>
        <time>2017-05-14T07:27:51.000Z</time>
      </trkpt>
      <trkpt lat="47.47666" lon="6.76048">
        <ele>351.3</ele>
        <time>2017-05-14T07:27:52.000Z</time>
      </trkpt>
      <trkpt lat="47.47665" lon="6.76041">
        <ele>350.9</ele>
        <time>2017-05-14T07:27:53.000Z</time>
      </trkpt>
      <trkpt lat="47.47664" lon="6.76033">
        <ele>351.1</ele>
        <time>2017-05-14T07:27:54.000Z</time>
      </trkpt>
      <trkpt lat="47.47664" lon="6.76027">
        <ele>351.1</ele>
        <time>2017-05-14T07:27:55.000Z</time>
      </trkpt>
      <trkpt lat="47.47664" lon="6.7602">
        <ele>350.8</ele>
        <time>2017-05-14T07:27:56.000Z</time>
      </trkpt>
      <trkpt lat="47.47665" lon="6.76012">
        <ele>350.1</ele>
        <time>2017-05-14T07:27:57.000Z</time>
      </trkpt>
      <trkpt lat="47.47667" lon="6.76005">
        <ele>350.2</ele>
        <time>2017-05-14T07:27:58.000Z</time>
      </trkpt>
      <trkpt lat="47.47669" lon="6.75997">
        <ele>350.7</ele>
        <time>2017-05-14T07:27:59.000Z</time>
      </trkpt>
      <trkpt lat="47.47672" lon="6.75989">
        <ele>351.3</ele>
        <time>2017-05-14T07:28:00.000Z</time>
      </trkpt>
      <trkpt lat="47.47675" lon="6.75982">
        <ele>351.9</ele>
        <time>2017-05-14T07:28:01.000Z</time>
      </trkpt>
      <trkpt lat="47.47677" lon="6.75976">
        <ele>353</ele>
        <time>2017-05-14T07:28:02.000Z</time>
      </trkpt>
      <trkpt lat="47.47681" lon="6.75969">
        <ele>353.8</ele>
        <time>2017-05-14T07:28:03.000Z</time>
      </trkpt>
      <trkpt lat="47.47684" lon="6.75963">
        <ele>354.8</ele>
        <time>2017-05-14T07:28:04.000Z</time>
      </trkpt>
      <trkpt lat="47.47686" lon="6.75957">
        <ele>355.1</ele>
        <time>2017-05-14T07:28:05.000Z</time>
      </trkpt>
      <trkpt lat="47.47688" lon="6.75952">
        <ele>355.8</ele>
        <time>2017-05-14T07:28:06.000Z</time>
      </trkpt>
      <trkpt lat="47.47691" lon="6.75946">
        <ele>356.6</ele>
        <time>2017-05-14T07:28:07.000Z</time>
      </trkpt>
      <trkpt lat="47.47693" lon="6.75938">
        <ele>357.6</ele>
        <time>2017-05-14T07:28:08.000Z</time>
      </trkpt>
      <trkpt lat="47.47694" lon="6.75931">
        <ele>358</ele>
        <time>2017-05-14T07:28:09.000Z</time>
      </trkpt>
      <trkpt lat="47.47695" lon="6.75922">
        <ele>358</ele>
        <time>2017-05-14T07:28:10.000Z</time>
      </trkpt>
      <trkpt lat="47.47695" lon="6.75915">
        <ele>358.6</ele>
        <time>2017-05-14T07:28:11.000Z</time>
      </trkpt>
      <trkpt lat="47.47695" lon="6.75907">
        <ele>358.7</ele>
        <time>2017-05-14T07:28:12.000Z</time>
      </trkpt>
      <trkpt lat="47.47695" lon="6.75898">
        <ele>358.8</ele>
        <time>2017-05-14T07:28:13.000Z</time>
      </trkpt>
      <trkpt lat="47.47696" lon="6.7589">
        <ele>358.9</ele>
        <time>2017-05-14T07:28:14.000Z</time>
      </trkpt>
      <trkpt lat="47.47696" lon="6.75883">
        <ele>359.8</ele>
        <time>2017-05-14T07:28:15.000Z</time>
      </trkpt>
      <trkpt lat="47.47696" lon="6.75875">
        <ele>360.3</ele>
        <time>2017-05-14T07:28:16.000Z</time>
      </trkpt>
      <trkpt lat="47.47696" lon="6.75868">
        <ele>360.6</ele>
        <time>2017-05-14T07:28:17.000Z</time>
      </trkpt>
      <trkpt lat="47.47696" lon="6.7586">
        <ele>360.4</ele>
        <time>2017-05-14T07:28:18.000Z</time>
      </trkpt>
      <trkpt lat="47.47696" lon="6.75853">
        <ele>360.7</ele>
        <time>2017-05-14T07:28:19.000Z</time>
      </trkpt>
      <trkpt lat="47.47696" lon="6.75845">
        <ele>360.7</ele>
        <time>2017-05-14T07:28:20.000Z</time>
      </trkpt>
      <trkpt lat="47.47697" lon="6.75836">
        <ele>360.6</ele>
        <time>2017-05-14T07:28:21.000Z</time>
      </trkpt>
      <trkpt lat="47.47698" lon="6.75829">
        <ele>360.8</ele>
        <time>2017-05-14T07:28:22.000Z</time>
      </trkpt>
      <trkpt lat="47.47698" lon="6.75822">
        <ele>361</ele>
        <time>2017-05-14T07:28:23.000Z</time>
      </trkpt>
      <trkpt lat="47.47699" lon="6.75815">
        <ele>361.2</ele>
        <time>2017-05-14T07:28:24.000Z</time>
      </trkpt>
      <trkpt lat="47.47699" lon="6.7581">
        <ele>361.3</ele>
        <time>2017-05-14T07:28:25.000Z</time>
      </trkpt>
      <trkpt lat="47.47699" lon="6.75804">
        <ele>362.3</ele>
        <time>2017-05-14T07:28:26.000Z</time>
      </trkpt>
      <trkpt lat="47.47701" lon="6.75799">
        <ele>363.5</ele>
        <time>2017-05-14T07:28:27.000Z</time>
      </trkpt>
      <trkpt lat="47.47702" lon="6.75792">
        <ele>363.6</ele>
        <time>2017-05-14T07:28:28.000Z</time>
      </trkpt>
      <trkpt lat="47.47702" lon="6.75786">
        <ele>363.8</ele>
        <time>2017-05-14T07:28:29.000Z</time>
      </trkpt>
      <trkpt lat="47.47702" lon="6.75779">
        <ele>363.9</ele>
        <time>2017-05-14T07:28:30.000Z</time>
      </trkpt>
      <trkpt lat="47.47702" lon="6.75772">
        <ele>363.9</ele>
        <time>2017-05-14T07:28:31.000Z</time>
      </trkpt>
      <trkpt lat="47.47701" lon="6.75766">
        <ele>363.5</ele>
        <time>2017-05-14T07:28:32.000Z</time>
      </trkpt>
      <trkpt lat="47.47702" lon="6.75758">
        <ele>362.9</ele>
        <time>2017-05-14T07:28:33.000Z</time>
      </trkpt>
      <trkpt lat="47.47702" lon="6.75749">
        <ele>362.1</ele>
        <time>2017-05-14T07:28:34.000Z</time>
      </trkpt>
      <trkpt lat="47.47702" lon="6.75741">
        <ele>361.5</ele>
        <time>2017-05-14T07:28:35.000Z</time>
      </trkpt>
      <trkpt lat="47.47702" lon="6.75733">
        <ele>361.2</ele>
        <time>2017-05-14T07:28:36.000Z</time>
      </trkpt>
      <trkpt lat="47.47702" lon="6.75727">
        <ele>360.9</ele>
        <time>2017-05-14T07:28:37.000Z</time>
      </trkpt>
      <trkpt lat="47.47702" lon="6.75718">
        <ele>360.8</ele>
        <time>2017-05-14T07:28:38.000Z</time>
      </trkpt>
      <trkpt lat="47.47703" lon="6.75711">
        <ele>360.2</ele>
        <time>2017-05-14T07:28:39.000Z</time>
      </trkpt>
      <trkpt lat="47.47703" lon="6.75703">
        <ele>359.1</ele>
        <time>2017-05-14T07:28:40.000Z</time>
      </trkpt>
      <trkpt lat="47.47703" lon="6.75697">
        <ele>358.5</ele>
        <time>2017-05-14T07:28:41.000Z</time>
      </trkpt>
      <trkpt lat="47.47704" lon="6.75687">
        <ele>358.4</ele>
        <time>2017-05-14T07:28:42.000Z</time>
      </trkpt>
      <trkpt lat="47.47704" lon="6.7568">
        <ele>357.9</ele>
        <time>2017-05-14T07:28:43.000Z</time>
      </trkpt>
      <trkpt lat="47.47704" lon="6.75672">
        <ele>357.7</ele>
        <time>2017-05-14T07:28:44.000Z</time>
      </trkpt>
      <trkpt lat="47.47705" lon="6.75663">
        <ele>357.4</ele>
        <time>2017-05-14T07:28:45.000Z</time>
      </trkpt>
      <trkpt lat="47.47705" lon="6.75654">
        <ele>357.2</ele>
        <time>2017-05-14T07:28:46.000Z</time>
      </trkpt>
      <trkpt lat="47.47705" lon="6.75645">
        <ele>357.2</ele>
        <time>2017-05-14T07:28:47.000Z</time>
      </trkpt>
      <trkpt lat="47.47705" lon="6.75635">
        <ele>357.1</ele>
        <time>2017-05-14T07:28:48.000Z</time>
      </trkpt>
      <trkpt lat="47.47705" lon="6.75626">
        <ele>357.5</ele>
        <time>2017-05-14T07:28:49.000Z</time>
      </trkpt>
      <trkpt lat="47.47705" lon="6.75617">
        <ele>358</ele>
        <time>2017-05-14T07:28:50.000Z</time>
      </trkpt>
      <trkpt lat="47.47706" lon="6.75608">
        <ele>357.9</ele>
        <time>2017-05-14T07:28:51.000Z</time>
      </trkpt>
      <trkpt lat="47.47706" lon="6.756">
        <ele>357.7</ele>
        <time>2017-05-14T07:28:52.000Z</time>
      </trkpt>
      <trkpt lat="47.47706" lon="6.75591">
        <ele>357.8</ele>
        <time>2017-05-14T07:28:53.000Z</time>
      </trkpt>
      <trkpt lat="47.47707" lon="6.75583">
        <ele>357.9</ele>
        <time>2017-05-14T07:28:54.000Z</time>
      </trkpt>
      <trkpt lat="47.47707" lon="6.75574">
        <ele>357.4</ele>
        <time>2017-05-14T07:28:55.000Z</time>
      </trkpt>
      <trkpt lat="47.47707" lon="6.75566">
        <ele>356.6</ele>
        <time>2017-05-14T07:28:56.000Z</time>
      </trkpt>
      <trkpt lat="47.47707" lon="6.7556">
        <ele>356.2</ele>
        <time>2017-05-14T07:28:57.000Z</time>
      </trkpt>
      <trkpt lat="47.47708" lon="6.75552">
        <ele>355.8</ele>
        <time>2017-05-14T07:28:58.000Z</time>
      </trkpt>
      <trkpt lat="47.47709" lon="6.75544">
        <ele>355.7</ele>
        <time>2017-05-14T07:28:59.000Z</time>
      </trkpt>
      <trkpt lat="47.47708" lon="6.75536">
        <ele>354.8</ele>
        <time>2017-05-14T07:29:00.000Z</time>
      </trkpt>
      <trkpt lat="47.47708" lon="6.75529">
        <ele>354.1</ele>
        <time>2017-05-14T07:29:01.000Z</time>
      </trkpt>
      <trkpt lat="47.47708" lon="6.7552">
        <ele>353.7</ele>
        <time>2017-05-14T07:29:02.000Z</time>
      </trkpt>
      <trkpt lat="47.47709" lon="6.75512">
        <ele>353.7</ele>
        <time>2017-05-14T07:29:03.000Z</time>
      </trkpt>
      <trkpt lat="47.47709" lon="6.75504">
        <ele>353.6</ele>
        <time>2017-05-14T07:29:04.000Z</time>
      </trkpt>
      <trkpt lat="47.47709" lon="6.75497">
        <ele>353.4</ele>
        <time>2017-05-14T07:29:05.000Z</time>
      </trkpt>
      <trkpt lat="47.4771" lon="6.75489">
        <ele>353.4</ele>
        <time>2017-05-14T07:29:06.000Z</time>
      </trkpt>
      <trkpt lat="47.4771" lon="6.75482">
        <ele>353.2</ele>
        <time>2017-05-14T07:29:07.000Z</time>
      </trkpt>
      <trkpt lat="47.47711" lon="6.75473">
        <ele>353.6</ele>
        <time>2017-05-14T07:29:08.000Z</time>
      </trkpt>
      <trkpt lat="47.47711" lon="6.75466">
        <ele>353.5</ele>
        <time>2017-05-14T07:29:09.000Z</time>
      </trkpt>
      <trkpt lat="47.47711" lon="6.75458">
        <ele>353.3</ele>
        <time>2017-05-14T07:29:10.000Z</time>
      </trkpt>
      <trkpt lat="47.47711" lon="6.75451">
        <ele>352.8</ele>
        <time>2017-05-14T07:29:11.000Z</time>
      </trkpt>
      <trkpt lat="47.47711" lon="6.75442">
        <ele>352.7</ele>
        <time>2017-05-14T07:29:12.000Z</time>
      </trkpt>
      <trkpt lat="47.47712" lon="6.75433">
        <ele>352.2</ele>
        <time>2017-05-14T07:29:13.000Z</time>
      </trkpt>
      <trkpt lat="47.47712" lon="6.75423">
        <ele>353.1</ele>
        <time>2017-05-14T07:29:14.000Z</time>
      </trkpt>
      <trkpt lat="47.47712" lon="6.75415">
        <ele>353.7</ele>
        <time>2017-05-14T07:29:15.000Z</time>
      </trkpt>
      <trkpt lat="47.47712" lon="6.75407">
        <ele>353.9</ele>
        <time>2017-05-14T07:29:16.000Z</time>
      </trkpt>
      <trkpt lat="47.47712" lon="6.75399">
        <ele>353.5</ele>
        <time>2017-05-14T07:29:17.000Z</time>
      </trkpt>
      <trkpt lat="47.47711" lon="6.75391">
        <ele>353.3</ele>
        <time>2017-05-14T07:29:18.000Z</time>
      </trkpt>
      <trkpt lat="47.47712" lon="6.75382">
        <ele>353.2</ele>
        <time>2017-05-14T07:29:19.000Z</time>
      </trkpt>
      <trkpt lat="47.47712" lon="6.75374">
        <ele>353.2</ele>
        <time>2017-05-14T07:29:20.000Z</time>
      </trkpt>
      <trkpt lat="47.47712" lon="6.75364">
        <ele>353.3</ele>
        <time>2017-05-14T07:29:21.000Z</time>
      </trkpt>
      <trkpt lat="47.47713" lon="6.75357">
        <ele>353.8</ele>
        <time>2017-05-14T07:29:22.000Z</time>
      </trkpt>
      <trkpt lat="47.47713" lon="6.75348">
        <ele>354.3</ele>
        <time>2017-05-14T07:29:23.000Z</time>
      </trkpt>
      <trkpt lat="47.47712" lon="6.75339">
        <ele>354.4</ele>
        <time>2017-05-14T07:29:24.000Z</time>
      </trkpt>
      <trkpt lat="47.47713" lon="6.75329">
        <ele>353.9</ele>
        <time>2017-05-14T07:29:25.000Z</time>
      </trkpt>
      <trkpt lat="47.47713" lon="6.75322">
        <ele>353.6</ele>
        <time>2017-05-14T07:29:26.000Z</time>
      </trkpt>
      <trkpt lat="47.47713" lon="6.75314">
        <ele>353.5</ele>
        <time>2017-05-14T07:29:27.000Z</time>
      </trkpt>
      <trkpt lat="47.47713" lon="6.75304">
        <ele>353.6</ele>
        <time>2017-05-14T07:29:28.000Z</time>
      </trkpt>
      <trkpt lat="47.47713" lon="6.75296">
        <ele>354</ele>
        <time>2017-05-14T07:29:29.000Z</time>
      </trkpt>
      <trkpt lat="47.47714" lon="6.75289">
        <ele>353.7</ele>
        <time>2017-05-14T07:29:30.000Z</time>
      </trkpt>
      <trkpt lat="47.47715" lon="6.75282">
        <ele>353.5</ele>
        <time>2017-05-14T07:29:31.000Z</time>
      </trkpt>
      <trkpt lat="47.47714" lon="6.75275">
        <ele>353.3</ele>
        <time>2017-05-14T07:29:32.000Z</time>
      </trkpt>
      <trkpt lat="47.47714" lon="6.75266">
        <ele>353</ele>
        <time>2017-05-14T07:29:33.000Z</time>
      </trkpt>
      <trkpt lat="47.47714" lon="6.75257">
        <ele>353.3</ele>
        <time>2017-05-14T07:29:34.000Z</time>
      </trkpt>
      <trkpt lat="47.47715" lon="6.75248">
        <ele>353.8</ele>
        <time>2017-05-14T07:29:35.000Z</time>
      </trkpt>
      <trkpt lat="47.47715" lon="6.75238">
        <ele>353.9</ele>
        <time>2017-05-14T07:29:36.000Z</time>
      </trkpt>
      <trkpt lat="47.47715" lon="6.7523">
        <ele>354.1</ele>
        <time>2017-05-14T07:29:37.000Z</time>
      </trkpt>
      <trkpt lat="47.47716" lon="6.75221">
        <ele>354.1</ele>
        <time>2017-05-14T07:29:38.000Z</time>
      </trkpt>
      <trkpt lat="47.47716" lon="6.75214">
        <ele>354.6</ele>
        <time>2017-05-14T07:29:39.000Z</time>
      </trkpt>
      <trkpt lat="47.47717" lon="6.75205">
        <ele>354.6</ele>
        <time>2017-05-14T07:29:40.000Z</time>
      </trkpt>
      <trkpt lat="47.47717" lon="6.75196">
        <ele>355.2</ele>
        <time>2017-05-14T07:29:41.000Z</time>
      </trkpt>
      <trkpt lat="47.47717" lon="6.75186">
        <ele>355.6</ele>
        <time>2017-05-14T07:29:42.000Z</time>
      </trkpt>
      <trkpt lat="47.47717" lon="6.75177">
        <ele>355.3</ele>
        <time>2017-05-14T07:29:43.000Z</time>
      </trkpt>
      <trkpt lat="47.47716" lon="6.75168">
        <ele>354.7</ele>
        <time>2017-05-14T07:29:44.000Z</time>
      </trkpt>
      <trkpt lat="47.47717" lon="6.75159">
        <ele>354</ele>
        <time>2017-05-14T07:29:45.000Z</time>
      </trkpt>
      <trkpt lat="47.47717" lon="6.75151">
        <ele>353.7</ele>
        <time>2017-05-14T07:29:46.000Z</time>
      </trkpt>
      <trkpt lat="47.47718" lon="6.75143">
        <ele>353.2</ele>
        <time>2017-05-14T07:29:47.000Z</time>
      </trkpt>
      <trkpt lat="47.47718" lon="6.75134">
        <ele>352.8</ele>
        <time>2017-05-14T07:29:48.000Z</time>
      </trkpt>
      <trkpt lat="47.47718" lon="6.75126">
        <ele>352.6</ele>
        <time>2017-05-14T07:29:49.000Z</time>
      </trkpt>
      <trkpt lat="47.47719" lon="6.75118">
        <ele>352.3</ele>
        <time>2017-05-14T07:29:50.000Z</time>
      </trkpt>
      <trkpt lat="47.47719" lon="6.7511">
        <ele>352.3</ele>
        <time>2017-05-14T07:29:51.000Z</time>
      </trkpt>
      <trkpt lat="47.4772" lon="6.75101">
        <ele>352.2</ele>
        <time>2017-05-14T07:29:52.000Z</time>
      </trkpt>
      <trkpt lat="47.4772" lon="6.75094">
        <ele>352.5</ele>
        <time>2017-05-14T07:29:53.000Z</time>
      </trkpt>
      <trkpt lat="47.4772" lon="6.75085">
        <ele>352.5</ele>
        <time>2017-05-14T07:29:54.000Z</time>
      </trkpt>
      <trkpt lat="47.4772" lon="6.75077">
        <ele>352.6</ele>
        <time>2017-05-14T07:29:55.000Z</time>
      </trkpt>
      <trkpt lat="47.47721" lon="6.75068">
        <ele>352.2</ele>
        <time>2017-05-14T07:29:56.000Z</time>
      </trkpt>
      <trkpt lat="47.47722" lon="6.75058">
        <ele>352</ele>
        <time>2017-05-14T07:29:57.000Z</time>
      </trkpt>
      <trkpt lat="47.47724" lon="6.75049">
        <ele>352.4</ele>
        <time>2017-05-14T07:29:58.000Z</time>
      </trkpt>
      <trkpt lat="47.47725" lon="6.7504">
        <ele>353</ele>
        <time>2017-05-14T07:29:59.000Z</time>
      </trkpt>
      <trkpt lat="47.47725" lon="6.75033">
        <ele>353.9</ele>
        <time>2017-05-14T07:30:00.000Z</time>
      </trkpt>
      <trkpt lat="47.47724" lon="6.75025">
        <ele>354.1</ele>
        <time>2017-05-14T07:30:01.000Z</time>
      </trkpt>
      <trkpt lat="47.47725" lon="6.75015">
        <ele>354.1</ele>
        <time>2017-05-14T07:30:02.000Z</time>
      </trkpt>
      <trkpt lat="47.47725" lon="6.75007">
        <ele>354</ele>
        <time>2017-05-14T07:30:03.000Z</time>
      </trkpt>
      <trkpt lat="47.47725" lon="6.74998">
        <ele>354.3</ele>
        <time>2017-05-14T07:30:04.000Z</time>
      </trkpt>
      <trkpt lat="47.47726" lon="6.74989">
        <ele>354.1</ele>
        <time>2017-05-14T07:30:05.000Z</time>
      </trkpt>
      <trkpt lat="47.47726" lon="6.74981">
        <ele>354</ele>
        <time>2017-05-14T07:30:06.000Z</time>
      </trkpt>
      <trkpt lat="47.47726" lon="6.74973">
        <ele>354.4</ele>
        <time>2017-05-14T07:30:07.000Z</time>
      </trkpt>
      <trkpt lat="47.47726" lon="6.74967">
        <ele>355.3</ele>
        <time>2017-05-14T07:30:08.000Z</time>
      </trkpt>
      <trkpt lat="47.47726" lon="6.7496">
        <ele>355.9</ele>
        <time>2017-05-14T07:30:09.000Z</time>
      </trkpt>
      <trkpt lat="47.47725" lon="6.74951">
        <ele>356.1</ele>
        <time>2017-05-14T07:30:10.000Z</time>
      </trkpt>
      <trkpt lat="47.47725" lon="6.74943">
        <ele>356.4</ele>
        <time>2017-05-14T07:30:11.000Z</time>
      </trkpt>
      <trkpt lat="47.47724" lon="6.74935">
        <ele>356.6</ele>
        <time>2017-05-14T07:30:12.000Z</time>
      </trkpt>
      <trkpt lat="47.47724" lon="6.74927">
        <ele>357.2</ele>
        <time>2017-05-14T07:30:13.000Z</time>
      </trkpt>
      <trkpt lat="47.47724" lon="6.7492">
        <ele>357.9</ele>
        <time>2017-05-14T07:30:14.000Z</time>
      </trkpt>
      <trkpt lat="47.47725" lon="6.74911">
        <ele>358</ele>
        <time>2017-05-14T07:30:15.000Z</time>
      </trkpt>
      <trkpt lat="47.47725" lon="6.74902">
        <ele>357.6</ele>
        <time>2017-05-14T07:30:16.000Z</time>
      </trkpt>
      <trkpt lat="47.47725" lon="6.74893">
        <ele>357.6</ele>
        <time>2017-05-14T07:30:17.000Z</time>
      </trkpt>
      <trkpt lat="47.47725" lon="6.74883">
        <ele>356.8</ele>
        <time>2017-05-14T07:30:18.000Z</time>
      </trkpt>
      <trkpt lat="47.47726" lon="6.74874">
        <ele>356.3</ele>
        <time>2017-05-14T07:30:19.000Z</time>
      </trkpt>
      <trkpt lat="47.47727" lon="6.74866">
        <ele>356.3</ele>
        <time>2017-05-14T07:30:20.000Z</time>
      </trkpt>
      <trkpt lat="47.47728" lon="6.74859">
        <ele>356.3</ele>
        <time>2017-05-14T07:30:21.000Z</time>
      </trkpt>
      <trkpt lat="47.47728" lon="6.74851">
        <ele>355.8</ele>
        <time>2017-05-14T07:30:22.000Z</time>
      </trkpt>
      <trkpt lat="47.47728" lon="6.74845">
        <ele>355.7</ele>
        <time>2017-05-14T07:30:23.000Z</time>
      </trkpt>
      <trkpt lat="47.47729" lon="6.74837">
        <ele>355.4</ele>
        <time>2017-05-14T07:30:24.000Z</time>
      </trkpt>
      <trkpt lat="47.47729" lon="6.74828">
        <ele>354.9</ele>
        <time>2017-05-14T07:30:25.000Z</time>
      </trkpt>
      <trkpt lat="47.4773" lon="6.74818">
        <ele>354.4</ele>
        <time>2017-05-14T07:30:26.000Z</time>
      </trkpt>
      <trkpt lat="47.4773" lon="6.7481">
        <ele>354.4</ele>
        <time>2017-05-14T07:30:27.000Z</time>
      </trkpt>
      <trkpt lat="47.4773" lon="6.74799">
        <ele>354.1</ele>
        <time>2017-05-14T07:30:28.000Z</time>
      </trkpt>
      <trkpt lat="47.4773" lon="6.74791">
        <ele>354.1</ele>
        <time>2017-05-14T07:30:29.000Z</time>
      </trkpt>
      <trkpt lat="47.4773" lon="6.74784">
        <ele>353.4</ele>
        <time>2017-05-14T07:30:30.000Z</time>
      </trkpt>
      <trkpt lat="47.4773" lon="6.74777">
        <ele>353</ele>
        <time>2017-05-14T07:30:31.000Z</time>
      </trkpt>
      <trkpt lat="47.47731" lon="6.7477">
        <ele>352.7</ele>
        <time>2017-05-14T07:30:32.000Z</time>
      </trkpt>
      <trkpt lat="47.47731" lon="6.74762">
        <ele>352.5</ele>
        <time>2017-05-14T07:30:33.000Z</time>
      </trkpt>
      <trkpt lat="47.47732" lon="6.74755">
        <ele>352.2</ele>
        <time>2017-05-14T07:30:34.000Z</time>
      </trkpt>
      <trkpt lat="47.47732" lon="6.74746">
        <ele>352.4</ele>
        <time>2017-05-14T07:30:35.000Z</time>
      </trkpt>
      <trkpt lat="47.47732" lon="6.74738">
        <ele>352.7</ele>
        <time>2017-05-14T07:30:36.000Z</time>
      </trkpt>
      <trkpt lat="47.47732" lon="6.7473">
        <ele>352.8</ele>
        <time>2017-05-14T07:30:37.000Z</time>
      </trkpt>
      <trkpt lat="47.47732" lon="6.74722">
        <ele>353</ele>
        <time>2017-05-14T07:30:38.000Z</time>
      </trkpt>
      <trkpt lat="47.47732" lon="6.74713">
        <ele>353</ele>
        <time>2017-05-14T07:30:39.000Z</time>
      </trkpt>
      <trkpt lat="47.47732" lon="6.74704">
        <ele>353.1</ele>
        <time>2017-05-14T07:30:40.000Z</time>
      </trkpt>
      <trkpt lat="47.47732" lon="6.74696">
        <ele>352.9</ele>
        <time>2017-05-14T07:30:41.000Z</time>
      </trkpt>
      <trkpt lat="47.47732" lon="6.74688">
        <ele>353.3</ele>
        <time>2017-05-14T07:30:42.000Z</time>
      </trkpt>
      <trkpt lat="47.47732" lon="6.7468">
        <ele>353.2</ele>
        <time>2017-05-14T07:30:43.000Z</time>
      </trkpt>
      <trkpt lat="47.47732" lon="6.74671">
        <ele>353.3</ele>
        <time>2017-05-14T07:30:44.000Z</time>
      </trkpt>
      <trkpt lat="47.47732" lon="6.74664">
        <ele>353.8</ele>
        <time>2017-05-14T07:30:45.000Z</time>
      </trkpt>
      <trkpt lat="47.47731" lon="6.74655">
        <ele>354.2</ele>
        <time>2017-05-14T07:30:46.000Z</time>
      </trkpt>
      <trkpt lat="47.47731" lon="6.74647">
        <ele>353.9</ele>
        <time>2017-05-14T07:30:47.000Z</time>
      </trkpt>
      <trkpt lat="47.47731" lon="6.74639">
        <ele>354</ele>
        <time>2017-05-14T07:30:48.000Z</time>
      </trkpt>
      <trkpt lat="47.47731" lon="6.74632">
        <ele>353.4</ele>
        <time>2017-05-14T07:30:49.000Z</time>
      </trkpt>
      <trkpt lat="47.4773" lon="6.74625">
        <ele>353.3</ele>
        <time>2017-05-14T07:30:50.000Z</time>
      </trkpt>
      <trkpt lat="47.4773" lon="6.74617">
        <ele>353.1</ele>
        <time>2017-05-14T07:30:51.000Z</time>
      </trkpt>
      <trkpt lat="47.47729" lon="6.7461">
        <ele>352.8</ele>
        <time>2017-05-14T07:30:52.000Z</time>
      </trkpt>
      <trkpt lat="47.4773" lon="6.74603">
        <ele>353.3</ele>
        <time>2017-05-14T07:30:53.000Z</time>
      </trkpt>
      <trkpt lat="47.4773" lon="6.74593">
        <ele>353.7</ele>
        <time>2017-05-14T07:30:54.000Z</time>
      </trkpt>
      <trkpt lat="47.4773" lon="6.74584">
        <ele>353.7</ele>
        <time>2017-05-14T07:30:55.000Z</time>
      </trkpt>
      <trkpt lat="47.4773" lon="6.74574">
        <ele>353.8</ele>
        <time>2017-05-14T07:30:56.000Z</time>
      </trkpt>
      <trkpt lat="47.47729" lon="6.74566">
        <ele>354.2</ele>
        <time>2017-05-14T07:30:57.000Z</time>
      </trkpt>
      <trkpt lat="47.47728" lon="6.74557">
        <ele>353.9</ele>
        <time>2017-05-14T07:30:58.000Z</time>
      </trkpt>
      <trkpt lat="47.47727" lon="6.74549">
        <ele>354.2</ele>
        <time>2017-05-14T07:30:59.000Z</time>
      </trkpt>
      <trkpt lat="47.47726" lon="6.74541">
        <ele>354.1</ele>
        <time>2017-05-14T07:31:00.000Z</time>
      </trkpt>
      <trkpt lat="47.47725" lon="6.74534">
        <ele>354.2</ele>
        <time>2017-05-14T07:31:01.000Z</time>
      </trkpt>
      <trkpt lat="47.47723" lon="6.74529">
        <ele>354.3</ele>
        <time>2017-05-14T07:31:02.000Z</time>
      </trkpt>
      <trkpt lat="47.4772" lon="6.74523">
        <ele>354.7</ele>
        <time>2017-05-14T07:31:03.000Z</time>
      </trkpt>
      <trkpt lat="47.47718" lon="6.74515">
        <ele>354.8</ele>
        <time>2017-05-14T07:31:04.000Z</time>
      </trkpt>
      <trkpt lat="47.47717" lon="6.74508">
        <ele>355</ele>
        <time>2017-05-14T07:31:05.000Z</time>
      </trkpt>
      <trkpt lat="47.47717" lon="6.745">
        <ele>355</ele>
        <time>2017-05-14T07:31:06.000Z</time>
      </trkpt>
      <trkpt lat="47.47716" lon="6.74492">
        <ele>355.5</ele>
        <time>2017-05-14T07:31:07.000Z</time>
      </trkpt>
      <trkpt lat="47.47716" lon="6.74484">
        <ele>355.5</ele>
        <time>2017-05-14T07:31:08.000Z</time>
      </trkpt>
      <trkpt lat="47.47715" lon="6.74476">
        <ele>355.5</ele>
        <time>2017-05-14T07:31:09.000Z</time>
      </trkpt>
      <trkpt lat="47.47714" lon="6.74469">
        <ele>355.4</ele>
        <time>2017-05-14T07:31:10.000Z</time>
      </trkpt>
      <trkpt lat="47.47714" lon="6.74461">
        <ele>355.7</ele>
        <time>2017-05-14T07:31:11.000Z</time>
      </trkpt>
      <trkpt lat="47.47715" lon="6.74454">
        <ele>356.4</ele>
        <time>2017-05-14T07:31:12.000Z</time>
      </trkpt>
      <trkpt lat="47.47716" lon="6.74446">
        <ele>356.7</ele>
        <time>2017-05-14T07:31:13.000Z</time>
      </trkpt>
      <trkpt lat="47.47719" lon="6.74439">
        <ele>357.1</ele>
        <time>2017-05-14T07:31:14.000Z</time>
      </trkpt>
      <trkpt lat="47.47722" lon="6.74432">
        <ele>357.3</ele>
        <time>2017-05-14T07:31:15.000Z</time>
      </trkpt>
      <trkpt lat="47.47722" lon="6.74427">
        <ele>357.5</ele>
        <time>2017-05-14T07:31:16.000Z</time>
      </trkpt>
      <trkpt lat="47.4772" lon="6.74419">
        <ele>357.1</ele>
        <time>2017-05-14T07:31:17.000Z</time>
      </trkpt>
      <trkpt lat="47.4772" lon="6.74412">
        <ele>356.5</ele>
        <time>2017-05-14T07:31:18.000Z</time>
      </trkpt>
      <trkpt lat="47.47719" lon="6.74404">
        <ele>356.5</ele>
        <time>2017-05-14T07:31:19.000Z</time>
      </trkpt>
      <trkpt lat="47.47719" lon="6.74395">
        <ele>355.7</ele>
        <time>2017-05-14T07:31:20.000Z</time>
      </trkpt>
      <trkpt lat="47.47718" lon="6.74387">
        <ele>355.6</ele>
        <time>2017-05-14T07:31:21.000Z</time>
      </trkpt>
      <trkpt lat="47.47718" lon="6.74379">
        <ele>355.6</ele>
        <time>2017-05-14T07:31:22.000Z</time>
      </trkpt>
      <trkpt lat="47.47716" lon="6.74373">
        <ele>355.8</ele>
        <time>2017-05-14T07:31:23.000Z</time>
      </trkpt>
      <trkpt lat="47.47715" lon="6.74366">
        <ele>355.6</ele>
        <time>2017-05-14T07:31:24.000Z</time>
      </trkpt>
      <trkpt lat="47.47714" lon="6.74357">
        <ele>355.1</ele>
        <time>2017-05-14T07:31:25.000Z</time>
      </trkpt>
      <trkpt lat="47.47713" lon="6.74349">
        <ele>355.5</ele>
        <time>2017-05-14T07:31:26.000Z</time>
      </trkpt>
      <trkpt lat="47.47712" lon="6.74342">
        <ele>355.7</ele>
        <time>2017-05-14T07:31:27.000Z</time>
      </trkpt>
      <trkpt lat="47.47711" lon="6.74335">
        <ele>355.8</ele>
        <time>2017-05-14T07:31:28.000Z</time>
      </trkpt>
      <trkpt lat="47.4771" lon="6.74327">
        <ele>355.9</ele>
        <time>2017-05-14T07:31:29.000Z</time>
      </trkpt>
      <trkpt lat="47.47709" lon="6.74318">
        <ele>356.1</ele>
        <time>2017-05-14T07:31:30.000Z</time>
      </trkpt>
      <trkpt lat="47.47708" lon="6.7431">
        <ele>356.3</ele>
        <time>2017-05-14T07:31:31.000Z</time>
      </trkpt>
      <trkpt lat="47.47707" lon="6.74302">
        <ele>356.7</ele>
        <time>2017-05-14T07:31:32.000Z</time>
      </trkpt>
      <trkpt lat="47.47706" lon="6.74295">
        <ele>356.8</ele>
        <time>2017-05-14T07:31:33.000Z</time>
      </trkpt>
      <trkpt lat="47.47705" lon="6.74288">
        <ele>356.7</ele>
        <time>2017-05-14T07:31:34.000Z</time>
      </trkpt>
      <trkpt lat="47.47704" lon="6.74281">
        <ele>356.5</ele>
        <time>2017-05-14T07:31:35.000Z</time>
      </trkpt>
      <trkpt lat="47.47703" lon="6.74274">
        <ele>355.9</ele>
        <time>2017-05-14T07:31:36.000Z</time>
      </trkpt>
      <trkpt lat="47.47702" lon="6.74267">
        <ele>355.8</ele>
        <time>2017-05-14T07:31:37.000Z</time>
      </trkpt>
      <trkpt lat="47.47701" lon="6.74258">
        <ele>355.5</ele>
        <time>2017-05-14T07:31:38.000Z</time>
      </trkpt>
      <trkpt lat="47.47699" lon="6.74249">
        <ele>355.5</ele>
        <time>2017-05-14T07:31:39.000Z</time>
      </trkpt>
      <trkpt lat="47.47698" lon="6.74241">
        <ele>355.3</ele>
        <time>2017-05-14T07:31:40.000Z</time>
      </trkpt>
      <trkpt lat="47.47697" lon="6.74232">
        <ele>355.4</ele>
        <time>2017-05-14T07:31:41.000Z</time>
      </trkpt>
      <trkpt lat="47.47695" lon="6.74225">
        <ele>355.5</ele>
        <time>2017-05-14T07:31:42.000Z</time>
      </trkpt>
      <trkpt lat="47.47694" lon="6.74217">
        <ele>355.6</ele>
        <time>2017-05-14T07:31:43.000Z</time>
      </trkpt>
      <trkpt lat="47.47693" lon="6.74209">
        <ele>355.9</ele>
        <time>2017-05-14T07:31:44.000Z</time>
      </trkpt>
      <trkpt lat="47.47691" lon="6.74201">
        <ele>355.9</ele>
        <time>2017-05-14T07:31:45.000Z</time>
      </trkpt>
      <trkpt lat="47.4769" lon="6.74195">
        <ele>356</ele>
        <time>2017-05-14T07:31:46.000Z</time>
      </trkpt>
      <trkpt lat="47.47688" lon="6.74187">
        <ele>355.7</ele>
        <time>2017-05-14T07:31:47.000Z</time>
      </trkpt>
      <trkpt lat="47.47687" lon="6.7418">
        <ele>355.8</ele>
        <time>2017-05-14T07:31:48.000Z</time>
      </trkpt>
      <trkpt lat="47.47686" lon="6.74174">
        <ele>355.9</ele>
        <time>2017-05-14T07:31:49.000Z</time>
      </trkpt>
      <trkpt lat="47.47684" lon="6.74166">
        <ele>355.3</ele>
        <time>2017-05-14T07:31:50.000Z</time>
      </trkpt>
      <trkpt lat="47.47683" lon="6.74158">
        <ele>354.7</ele>
        <time>2017-05-14T07:31:51.000Z</time>
      </trkpt>
      <trkpt lat="47.47682" lon="6.7415">
        <ele>354.4</ele>
        <time>2017-05-14T07:31:52.000Z</time>
      </trkpt>
      <trkpt lat="47.4768" lon="6.74141">
        <ele>354.5</ele>
        <time>2017-05-14T07:31:53.000Z</time>
      </trkpt>
      <trkpt lat="47.47679" lon="6.74134">
        <ele>354.7</ele>
        <time>2017-05-14T07:31:54.000Z</time>
      </trkpt>
      <trkpt lat="47.47678" lon="6.74127">
        <ele>354.9</ele>
        <time>2017-05-14T07:31:55.000Z</time>
      </trkpt>
      <trkpt lat="47.47676" lon="6.7412">
        <ele>354.9</ele>
        <time>2017-05-14T07:31:56.000Z</time>
      </trkpt>
      <trkpt lat="47.47674" lon="6.74115">
        <ele>354.9</ele>
        <time>2017-05-14T07:31:57.000Z</time>
      </trkpt>
      <trkpt lat="47.47672" lon="6.74111">
        <ele>354.9</ele>
        <time>2017-05-14T07:31:58.000Z</time>
      </trkpt>
      <trkpt lat="47.4767" lon="6.7411">
        <ele>354.8</ele>
        <time>2017-05-14T07:31:59.000Z</time>
      </trkpt>
      <trkpt lat="47.47666" lon="6.74108">
        <ele>354.7</ele>
        <time>2017-05-14T07:32:00.000Z</time>
      </trkpt>
      <trkpt lat="47.47663" lon="6.74106">
        <ele>354.5</ele>
        <time>2017-05-14T07:32:01.000Z</time>
      </trkpt>
      <trkpt lat="47.4766" lon="6.74104">
        <ele>354.4</ele>
        <time>2017-05-14T07:32:02.000Z</time>
      </trkpt>
      <trkpt lat="47.47657" lon="6.74101">
        <ele>354.3</ele>
        <time>2017-05-14T07:32:03.000Z</time>
      </trkpt>
      <trkpt lat="47.47655" lon="6.74098">
        <ele>354.2</ele>
        <time>2017-05-14T07:32:04.000Z</time>
      </trkpt>
      <trkpt lat="47.47653" lon="6.74094">
        <ele>354.2</ele>
        <time>2017-05-14T07:32:05.000Z</time>
      </trkpt>
      <trkpt lat="47.47651" lon="6.7409">
        <ele>353.8</ele>
        <time>2017-05-14T07:32:06.000Z</time>
      </trkpt>
      <trkpt lat="47.47648" lon="6.74086">
        <ele>352.9</ele>
        <time>2017-05-14T07:32:07.000Z</time>
      </trkpt>
      <trkpt lat="47.47645" lon="6.7408">
        <ele>352.6</ele>
        <time>2017-05-14T07:32:08.000Z</time>
      </trkpt>
      <trkpt lat="47.47642" lon="6.74076">
        <ele>352.6</ele>
        <time>2017-05-14T07:32:09.000Z</time>
      </trkpt>
      <trkpt lat="47.47639" lon="6.74071">
        <ele>352.5</ele>
        <time>2017-05-14T07:32:10.000Z</time>
      </trkpt>
      <trkpt lat="47.47635" lon="6.74064">
        <ele>352.5</ele>
        <time>2017-05-14T07:32:11.000Z</time>
      </trkpt>
      <trkpt lat="47.47631" lon="6.7406">
        <ele>352.7</ele>
        <time>2017-05-14T07:32:12.000Z</time>
      </trkpt>
      <trkpt lat="47.47626" lon="6.74057">
        <ele>352.2</ele>
        <time>2017-05-14T07:32:13.000Z</time>
      </trkpt>
      <trkpt lat="47.47621" lon="6.74055">
        <ele>351.9</ele>
        <time>2017-05-14T07:32:14.000Z</time>
      </trkpt>
      <trkpt lat="47.47615" lon="6.74055">
        <ele>351.6</ele>
        <time>2017-05-14T07:32:15.000Z</time>
      </trkpt>
      <trkpt lat="47.4761" lon="6.74057">
        <ele>351.5</ele>
        <time>2017-05-14T07:32:16.000Z</time>
      </trkpt>
      <trkpt lat="47.47606" lon="6.7406">
        <ele>351.3</ele>
        <time>2017-05-14T07:32:17.000Z</time>
      </trkpt>
      <trkpt lat="47.47601" lon="6.74062">
        <ele>351.3</ele>
        <time>2017-05-14T07:32:18.000Z</time>
      </trkpt>
      <trkpt lat="47.47597" lon="6.74065">
        <ele>351.2</ele>
        <time>2017-05-14T07:32:19.000Z</time>
      </trkpt>
      <trkpt lat="47.47592" lon="6.74069">
        <ele>351.9</ele>
        <time>2017-05-14T07:32:20.000Z</time>
      </trkpt>
      <trkpt lat="47.47587" lon="6.74073">
        <ele>352.3</ele>
        <time>2017-05-14T07:32:21.000Z</time>
      </trkpt>
      <trkpt lat="47.47583" lon="6.74077">
        <ele>352.9</ele>
        <time>2017-05-14T07:32:22.000Z</time>
      </trkpt>
      <trkpt lat="47.47579" lon="6.74081">
        <ele>353.7</ele>
        <time>2017-05-14T07:32:23.000Z</time>
      </trkpt>
      <trkpt lat="47.47573" lon="6.74086">
        <ele>353.9</ele>
        <time>2017-05-14T07:32:24.000Z</time>
      </trkpt>
      <trkpt lat="47.47568" lon="6.7409">
        <ele>354.2</ele>
        <time>2017-05-14T07:32:25.000Z</time>
      </trkpt>
      <trkpt lat="47.47563" lon="6.74094">
        <ele>354.3</ele>
        <time>2017-05-14T07:32:26.000Z</time>
      </trkpt>
      <trkpt lat="47.47558" lon="6.74097">
        <ele>353.7</ele>
        <time>2017-05-14T07:32:27.000Z</time>
      </trkpt>
      <trkpt lat="47.47554" lon="6.741">
        <ele>353.8</ele>
        <time>2017-05-14T07:32:28.000Z</time>
      </trkpt>
      <trkpt lat="47.47548" lon="6.74105">
        <ele>354.1</ele>
        <time>2017-05-14T07:32:29.000Z</time>
      </trkpt>
      <trkpt lat="47.47543" lon="6.7411">
        <ele>354.4</ele>
        <time>2017-05-14T07:32:30.000Z</time>
      </trkpt>
      <trkpt lat="47.47537" lon="6.74114">
        <ele>355</ele>
        <time>2017-05-14T07:32:31.000Z</time>
      </trkpt>
      <trkpt lat="47.47531" lon="6.74119">
        <ele>356.3</ele>
        <time>2017-05-14T07:32:32.000Z</time>
      </trkpt>
      <trkpt lat="47.47526" lon="6.74122">
        <ele>357.5</ele>
        <time>2017-05-14T07:32:33.000Z</time>
      </trkpt>
      <trkpt lat="47.47521" lon="6.74125">
        <ele>358.2</ele>
        <time>2017-05-14T07:32:33.999Z</time>
      </trkpt>
      <trkpt lat="47.47516" lon="6.74129">
        <ele>358.6</ele>
        <time>2017-05-14T07:32:34.999Z</time>
      </trkpt>
      <trkpt lat="47.47511" lon="6.74132">
        <ele>359.4</ele>
        <time>2017-05-14T07:32:35.999Z</time>
      </trkpt>
      <trkpt lat="47.47507" lon="6.74135">
        <ele>359.7</ele>
        <time>2017-05-14T07:32:36.999Z</time>
      </trkpt>
      <trkpt lat="47.47504" lon="6.7414">
        <ele>360.1</ele>
        <time>2017-05-14T07:32:37.999Z</time>
      </trkpt>
      <trkpt lat="47.475" lon="6.74143">
        <ele>360.2</ele>
        <time>2017-05-14T07:32:38.999Z</time>
      </trkpt>
      <trkpt lat="47.47495" lon="6.74147">
        <ele>359.8</ele>
        <time>2017-05-14T07:32:39.999Z</time>
      </trkpt>
      <trkpt lat="47.47491" lon="6.7415">
        <ele>359.1</ele>
        <time>2017-05-14T07:32:40.999Z</time>
      </trkpt>
      <trkpt lat="47.47486" lon="6.74153">
        <ele>358.7</ele>
        <time>2017-05-14T07:32:41.999Z</time>
      </trkpt>
      <trkpt lat="47.47482" lon="6.74157">
        <ele>357.5</ele>
        <time>2017-05-14T07:32:42.999Z</time>
      </trkpt>
      <trkpt lat="47.47478" lon="6.74161">
        <ele>356.7</ele>
        <time>2017-05-14T07:32:43.999Z</time>
      </trkpt>
      <trkpt lat="47.47473" lon="6.74165">
        <ele>356.7</ele>
        <time>2017-05-14T07:32:44.999Z</time>
      </trkpt>
      <trkpt lat="47.47468" lon="6.74169">
        <ele>356.7</ele>
        <time>2017-05-14T07:32:45.999Z</time>
      </trkpt>
      <trkpt lat="47.47463" lon="6.74173">
        <ele>357</ele>
        <time>2017-05-14T07:32:46.999Z</time>
      </trkpt>
      <trkpt lat="47.47459" lon="6.74174">
        <ele>356.8</ele>
        <time>2017-05-14T07:32:47.999Z</time>
      </trkpt>
      <trkpt lat="47.47454" lon="6.74177">
        <ele>356.4</ele>
        <time>2017-05-14T07:32:48.999Z</time>
      </trkpt>
      <trkpt lat="47.47448" lon="6.7418">
        <ele>355.9</ele>
        <time>2017-05-14T07:32:49.999Z</time>
      </trkpt>
      <trkpt lat="47.47443" lon="6.74183">
        <ele>355.2</ele>
        <time>2017-05-14T07:32:50.999Z</time>
      </trkpt>
      <trkpt lat="47.47438" lon="6.74185">
        <ele>355.3</ele>
        <time>2017-05-14T07:32:51.999Z</time>
      </trkpt>
      <trkpt lat="47.47433" lon="6.74187">
        <ele>355.3</ele>
        <time>2017-05-14T07:32:52.999Z</time>
      </trkpt>
      <trkpt lat="47.47427" lon="6.74189">
        <ele>356</ele>
        <time>2017-05-14T07:32:53.999Z</time>
      </trkpt>
      <trkpt lat="47.47421" lon="6.74191">
        <ele>356.9</ele>
        <time>2017-05-14T07:32:54.999Z</time>
      </trkpt>
      <trkpt lat="47.47416" lon="6.74194">
        <ele>358</ele>
        <time>2017-05-14T07:32:55.999Z</time>
      </trkpt>
      <trkpt lat="47.47411" lon="6.74197">
        <ele>358.4</ele>
        <time>2017-05-14T07:32:56.999Z</time>
      </trkpt>
      <trkpt lat="47.47406" lon="6.742">
        <ele>359.4</ele>
        <time>2017-05-14T07:32:57.999Z</time>
      </trkpt>
      <trkpt lat="47.47401" lon="6.74203">
        <ele>361</ele>
        <time>2017-05-14T07:32:58.999Z</time>
      </trkpt>
      <trkpt lat="47.47396" lon="6.74205">
        <ele>362</ele>
        <time>2017-05-14T07:32:59.999Z</time>
      </trkpt>
      <trkpt lat="47.47391" lon="6.74207">
        <ele>362.5</ele>
        <time>2017-05-14T07:33:00.999Z</time>
      </trkpt>
      <trkpt lat="47.47387" lon="6.74209">
        <ele>362.4</ele>
        <time>2017-05-14T07:33:01.999Z</time>
      </trkpt>
      <trkpt lat="47.47383" lon="6.74212">
        <ele>362.6</ele>
        <time>2017-05-14T07:33:02.999Z</time>
      </trkpt>
      <trkpt lat="47.47378" lon="6.74214">
        <ele>362.9</ele>
        <time>2017-05-14T07:33:03.999Z</time>
      </trkpt>
      <trkpt lat="47.47374" lon="6.74216">
        <ele>362.8</ele>
        <time>2017-05-14T07:33:04.999Z</time>
      </trkpt>
      <trkpt lat="47.47369" lon="6.74217">
        <ele>362.3</ele>
        <time>2017-05-14T07:33:05.999Z</time>
      </trkpt>
      <trkpt lat="47.47365" lon="6.74219">
        <ele>362.4</ele>
        <time>2017-05-14T07:33:06.999Z</time>
      </trkpt>
      <trkpt lat="47.47361" lon="6.74221">
        <ele>362.1</ele>
        <time>2017-05-14T07:33:07.999Z</time>
      </trkpt>
      <trkpt lat="47.47357" lon="6.74222">
        <ele>361.3</ele>
        <time>2017-05-14T07:33:08.999Z</time>
      </trkpt>
      <trkpt lat="47.47352" lon="6.74225">
        <ele>360.3</ele>
        <time>2017-05-14T07:33:09.999Z</time>
      </trkpt>
      <trkpt lat="47.47348" lon="6.74228">
        <ele>359.4</ele>
        <time>2017-05-14T07:33:10.999Z</time>
      </trkpt>
      <trkpt lat="47.47343" lon="6.7423">
        <ele>358</ele>
        <time>2017-05-14T07:33:11.999Z</time>
      </trkpt>
      <trkpt lat="47.47338" lon="6.74232">
        <ele>356.8</ele>
        <time>2017-05-14T07:33:12.999Z</time>
      </trkpt>
      <trkpt lat="47.47334" lon="6.74234">
        <ele>356.1</ele>
        <time>2017-05-14T07:33:13.999Z</time>
      </trkpt>
      <trkpt lat="47.4733" lon="6.74237">
        <ele>355.6</ele>
        <time>2017-05-14T07:33:14.999Z</time>
      </trkpt>
      <trkpt lat="47.47326" lon="6.74239">
        <ele>354.9</ele>
        <time>2017-05-14T07:33:15.999Z</time>
      </trkpt>
      <trkpt lat="47.47321" lon="6.74242">
        <ele>354.7</ele>
        <time>2017-05-14T07:33:16.999Z</time>
      </trkpt>
      <trkpt lat="47.47316" lon="6.74245">
        <ele>354.7</ele>
        <time>2017-05-14T07:33:17.999Z</time>
      </trkpt>
      <trkpt lat="47.47311" lon="6.74248">
        <ele>354.6</ele>
        <time>2017-05-14T07:33:18.999Z</time>
      </trkpt>
      <trkpt lat="47.47306" lon="6.7425">
        <ele>353.9</ele>
        <time>2017-05-14T07:33:19.999Z</time>
      </trkpt>
      <trkpt lat="47.47301" lon="6.74253">
        <ele>352.9</ele>
        <time>2017-05-14T07:33:20.999Z</time>
      </trkpt>
      <trkpt lat="47.47296" lon="6.74255">
        <ele>352.3</ele>
        <time>2017-05-14T07:33:21.999Z</time>
      </trkpt>
      <trkpt lat="47.47292" lon="6.74256">
        <ele>352.3</ele>
        <time>2017-05-14T07:33:22.999Z</time>
      </trkpt>
      <trkpt lat="47.47287" lon="6.74257">
        <ele>352</ele>
        <time>2017-05-14T07:33:23.999Z</time>
      </trkpt>
      <trkpt lat="47.47283" lon="6.74259">
        <ele>351.8</ele>
        <time>2017-05-14T07:33:24.999Z</time>
      </trkpt>
      <trkpt lat="47.4728" lon="6.7426">
        <ele>351</ele>
        <time>2017-05-14T07:33:25.999Z</time>
      </trkpt>
      <trkpt lat="47.47275" lon="6.7426">
        <ele>350.6</ele>
        <time>2017-05-14T07:33:26.999Z</time>
      </trkpt>
      <trkpt lat="47.4727" lon="6.74261">
        <ele>350.7</ele>
        <time>2017-05-14T07:33:27.999Z</time>
      </trkpt>
      <trkpt lat="47.47266" lon="6.74262">
        <ele>351.2</ele>
        <time>2017-05-14T07:33:28.999Z</time>
      </trkpt>
      <trkpt lat="47.47262" lon="6.74265">
        <ele>352.3</ele>
        <time>2017-05-14T07:33:29.999Z</time>
      </trkpt>
      <trkpt lat="47.47259" lon="6.7427">
        <ele>352.4</ele>
        <time>2017-05-14T07:33:30.999Z</time>
      </trkpt>
      <trkpt lat="47.47257" lon="6.74275">
        <ele>352.4</ele>
        <time>2017-05-14T07:33:31.999Z</time>
      </trkpt>
      <trkpt lat="47.47255" lon="6.74281">
        <ele>352.4</ele>
        <time>2017-05-14T07:33:32.999Z</time>
      </trkpt>
      <trkpt lat="47.47255" lon="6.74286">
        <ele>352.7</ele>
        <time>2017-05-14T07:33:33.999Z</time>
      </trkpt>
      <trkpt lat="47.47254" lon="6.74292">
        <ele>352.6</ele>
        <time>2017-05-14T07:33:34.999Z</time>
      </trkpt>
      <trkpt lat="47.47253" lon="6.74298">
        <ele>352.6</ele>
        <time>2017-05-14T07:33:35.999Z</time>
      </trkpt>
      <trkpt lat="47.47251" lon="6.74305">
        <ele>352.6</ele>
        <time>2017-05-14T07:33:36.999Z</time>
      </trkpt>
      <trkpt lat="47.4725" lon="6.74312">
        <ele>353.1</ele>
        <time>2017-05-14T07:33:37.999Z</time>
      </trkpt>
      <trkpt lat="47.47247" lon="6.74318">
        <ele>353.7</ele>
        <time>2017-05-14T07:33:38.999Z</time>
      </trkpt>
      <trkpt lat="47.47245" lon="6.74324">
        <ele>354.3</ele>
        <time>2017-05-14T07:33:39.999Z</time>
      </trkpt>
      <trkpt lat="47.47242" lon="6.7433">
        <ele>355.1</ele>
        <time>2017-05-14T07:33:40.999Z</time>
      </trkpt>
      <trkpt lat="47.47239" lon="6.74336">
        <ele>356.1</ele>
        <time>2017-05-14T07:33:41.999Z</time>
      </trkpt>
      <trkpt lat="47.47237" lon="6.74339">
        <ele>356.2</ele>
        <time>2017-05-14T07:33:42.999Z</time>
      </trkpt>
      <trkpt lat="47.47233" lon="6.74343">
        <ele>356.8</ele>
        <time>2017-05-14T07:33:43.999Z</time>
      </trkpt>
      <trkpt lat="47.47231" lon="6.74346">
        <ele>356.8</ele>
        <time>2017-05-14T07:33:44.999Z</time>
      </trkpt>
      <trkpt lat="47.47231" lon="6.74349">
        <ele>356.8</ele>
        <time>2017-05-14T07:33:45.999Z</time>
      </trkpt>
      <trkpt lat="47.4723" lon="6.74352">
        <ele>356.9</ele>
        <time>2017-05-14T07:33:46.999Z</time>
      </trkpt>
      <trkpt lat="47.47226" lon="6.74355">
        <ele>356.9</ele>
        <time>2017-05-14T07:33:47.999Z</time>
      </trkpt>
      <trkpt lat="47.47222" lon="6.74357">
        <ele>357</ele>
        <time>2017-05-14T07:33:48.999Z</time>
      </trkpt>
      <trkpt lat="47.47218" lon="6.74358">
        <ele>357</ele>
        <time>2017-05-14T07:33:49.999Z</time>
      </trkpt>
      <trkpt lat="47.47214" lon="6.7436">
        <ele>357</ele>
        <time>2017-05-14T07:33:50.999Z</time>
      </trkpt>
      <trkpt lat="47.4721" lon="6.74361">
        <ele>357</ele>
        <time>2017-05-14T07:33:51.999Z</time>
      </trkpt>
      <trkpt lat="47.47208" lon="6.74361">
        <ele>357</ele>
        <time>2017-05-14T07:33:52.999Z</time>
      </trkpt>
      <trkpt lat="47.47205" lon="6.74362">
        <ele>357</ele>
        <time>2017-05-14T07:33:53.999Z</time>
      </trkpt>
      <trkpt lat="47.47202" lon="6.74362">
        <ele>356.9</ele>
        <time>2017-05-14T07:33:55.999Z</time>
      </trkpt>
      <trkpt lat="47.472" lon="6.74362">
        <ele>356.8</ele>
        <time>2017-05-14T07:33:56.999Z</time>
      </trkpt>
      <trkpt lat="47.47196" lon="6.74362">
        <ele>356.7</ele>
        <time>2017-05-14T07:33:58.999Z</time>
      </trkpt>
      <trkpt lat="47.47194" lon="6.74362">
        <ele>356.6</ele>
        <time>2017-05-14T07:33:59.999Z</time>
      </trkpt>
      <trkpt lat="47.4719" lon="6.74362">
        <ele>356.4</ele>
        <time>2017-05-14T07:34:01.999Z</time>
      </trkpt>
      <trkpt lat="47.47188" lon="6.74362">
        <ele>356.3</ele>
        <time>2017-05-14T07:34:02.999Z</time>
      </trkpt>
      <trkpt lat="47.47185" lon="6.74363">
        <ele>356.3</ele>
        <time>2017-05-14T07:34:03.999Z</time>
      </trkpt>
      <trkpt lat="47.47182" lon="6.74363">
        <ele>356.3</ele>
        <time>2017-05-14T07:34:04.999Z</time>
      </trkpt>
      <trkpt lat="47.47178" lon="6.74365">
        <ele>356.3</ele>
        <time>2017-05-14T07:34:05.999Z</time>
      </trkpt>
      <trkpt lat="47.47175" lon="6.74365">
        <ele>356.4</ele>
        <time>2017-05-14T07:34:06.999Z</time>
      </trkpt>
      <trkpt lat="47.47171" lon="6.74364">
        <ele>356.5</ele>
        <time>2017-05-14T07:34:07.999Z</time>
      </trkpt>
      <trkpt lat="47.47168" lon="6.74364">
        <ele>356.7</ele>
        <time>2017-05-14T07:34:08.999Z</time>
      </trkpt>
      <trkpt lat="47.47165" lon="6.74364">
        <ele>356.8</ele>
        <time>2017-05-14T07:34:09.999Z</time>
      </trkpt>
      <trkpt lat="47.47162" lon="6.74364">
        <ele>356.9</ele>
        <time>2017-05-14T07:34:10.999Z</time>
      </trkpt>
      <trkpt lat="47.47158" lon="6.74363">
        <ele>357.2</ele>
        <time>2017-05-14T07:34:12.999Z</time>
      </trkpt>
      <trkpt lat="47.47156" lon="6.74363">
        <ele>357.4</ele>
        <time>2017-05-14T07:34:13.999Z</time>
      </trkpt>
      <trkpt lat="47.47154" lon="6.74364">
        <ele>357.5</ele>
        <time>2017-05-14T07:34:14.999Z</time>
      </trkpt>
      <trkpt lat="47.47151" lon="6.74365">
        <ele>357.7</ele>
        <time>2017-05-14T07:34:15.999Z</time>
      </trkpt>
      <trkpt lat="47.47149" lon="6.74365">
        <ele>357.8</ele>
        <time>2017-05-14T07:34:16.999Z</time>
      </trkpt>
      <trkpt lat="47.47147" lon="6.74366">
        <ele>358</ele>
        <time>2017-05-14T07:34:17.999Z</time>
      </trkpt>
      <trkpt lat="47.47143" lon="6.74366">
        <ele>358.2</ele>
        <time>2017-05-14T07:34:19.999Z</time>
      </trkpt>
      <trkpt lat="47.47141" lon="6.74367">
        <ele>358.4</ele>
        <time>2017-05-14T07:34:20.999Z</time>
      </trkpt>
      <trkpt lat="47.47137" lon="6.74368">
        <ele>358.9</ele>
        <time>2017-05-14T07:34:22.999Z</time>
      </trkpt>
      <trkpt lat="47.47135" lon="6.74368">
        <ele>359.1</ele>
        <time>2017-05-14T07:34:23.999Z</time>
      </trkpt>
      <trkpt lat="47.47133" lon="6.74369">
        <ele>359.3</ele>
        <time>2017-05-14T07:34:24.999Z</time>
      </trkpt>
      <trkpt lat="47.4713" lon="6.74369">
        <ele>359.5</ele>
        <time>2017-05-14T07:34:25.999Z</time>
      </trkpt>
      <trkpt lat="47.47128" lon="6.74369">
        <ele>359.6</ele>
        <time>2017-05-14T07:34:26.999Z</time>
      </trkpt>
      <trkpt lat="47.47126" lon="6.7437">
        <ele>359.8</ele>
        <time>2017-05-14T07:34:27.999Z</time>
      </trkpt>
      <trkpt lat="47.47123" lon="6.7437">
        <ele>359.9</ele>
        <time>2017-05-14T07:34:28.999Z</time>
      </trkpt>
      <trkpt lat="47.47121" lon="6.7437">
        <ele>360</ele>
        <time>2017-05-14T07:34:29.999Z</time>
      </trkpt>
      <trkpt lat="47.47118" lon="6.74372">
        <ele>360.4</ele>
        <time>2017-05-14T07:34:31.999Z</time>
      </trkpt>
      <trkpt lat="47.47116" lon="6.74372">
        <ele>360.6</ele>
        <time>2017-05-14T07:34:32.999Z</time>
      </trkpt>
      <trkpt lat="47.47112" lon="6.74374">
        <ele>361</ele>
        <time>2017-05-14T07:34:34.999Z</time>
      </trkpt>
      <trkpt lat="47.47111" lon="6.74375">
        <ele>361.2</ele>
        <time>2017-05-14T07:34:35.999Z</time>
      </trkpt>
      <trkpt lat="47.47107" lon="6.74377">
        <ele>361.6</ele>
        <time>2017-05-14T07:34:37.999Z</time>
      </trkpt>
      <trkpt lat="47.47105" lon="6.74378">
        <ele>361.9</ele>
        <time>2017-05-14T07:34:38.999Z</time>
      </trkpt>
      <trkpt lat="47.47103" lon="6.74379">
        <ele>362</ele>
        <time>2017-05-14T07:34:39.999Z</time>
      </trkpt>
      <trkpt lat="47.471" lon="6.7438">
        <ele>362.2</ele>
        <time>2017-05-14T07:34:40.999Z</time>
      </trkpt>
      <trkpt lat="47.47097" lon="6.7438">
        <ele>362.9</ele>
        <time>2017-05-14T07:34:43.999Z</time>
      </trkpt>
      <trkpt lat="47.47095" lon="6.7438">
        <ele>363</ele>
        <time>2017-05-14T07:34:44.999Z</time>
      </trkpt>
      <trkpt lat="47.47092" lon="6.74381">
        <ele>363.2</ele>
        <time>2017-05-14T07:34:46.999Z</time>
      </trkpt>
      <trkpt lat="47.4709" lon="6.74381">
        <ele>363.4</ele>
        <time>2017-05-14T07:34:47.999Z</time>
      </trkpt>
      <trkpt lat="47.47087" lon="6.74383">
        <ele>363.7</ele>
        <time>2017-05-14T07:34:49.999Z</time>
      </trkpt>
      <trkpt lat="47.47086" lon="6.74384">
        <ele>363.9</ele>
        <time>2017-05-14T07:34:50.999Z</time>
      </trkpt>
      <trkpt lat="47.47083" lon="6.74386">
        <ele>364.5</ele>
        <time>2017-05-14T07:34:53.999Z</time>
      </trkpt>
      <trkpt lat="47.47082" lon="6.74388">
        <ele>364.7</ele>
        <time>2017-05-14T07:34:54.999Z</time>
      </trkpt>
      <trkpt lat="47.47079" lon="6.74391">
        <ele>365.1</ele>
        <time>2017-05-14T07:34:56.999Z</time>
      </trkpt>
      <trkpt lat="47.47078" lon="6.74392">
        <ele>365.3</ele>
        <time>2017-05-14T07:34:57.999Z</time>
      </trkpt>
      <trkpt lat="47.47075" lon="6.74393">
        <ele>365.9</ele>
        <time>2017-05-14T07:35:00.999Z</time>
      </trkpt>
      <trkpt lat="47.47073" lon="6.74394">
        <ele>366</ele>
        <time>2017-05-14T07:35:01.999Z</time>
      </trkpt>
      <trkpt lat="47.47069" lon="6.74396">
        <ele>366.2</ele>
        <time>2017-05-14T07:35:04.999Z</time>
      </trkpt>
      <trkpt lat="47.47068" lon="6.74396">
        <ele>366.3</ele>
        <time>2017-05-14T07:35:05.999Z</time>
      </trkpt>
      <trkpt lat="47.47065" lon="6.74398">
        <ele>366.5</ele>
        <time>2017-05-14T07:35:07.999Z</time>
      </trkpt>
      <trkpt lat="47.47063" lon="6.74399">
        <ele>366.6</ele>
        <time>2017-05-14T07:35:08.999Z</time>
      </trkpt>
      <trkpt lat="47.4706" lon="6.744">
        <ele>366.9</ele>
        <time>2017-05-14T07:35:10.999Z</time>
      </trkpt>
      <trkpt lat="47.47058" lon="6.74401">
        <ele>367</ele>
        <time>2017-05-14T07:35:11.999Z</time>
      </trkpt>
      <trkpt lat="47.47054" lon="6.74403">
        <ele>367.3</ele>
        <time>2017-05-14T07:35:14.999Z</time>
      </trkpt>
      <trkpt lat="47.47052" lon="6.74403">
        <ele>367.5</ele>
        <time>2017-05-14T07:35:15.999Z</time>
      </trkpt>
      <trkpt lat="47.47048" lon="6.74402">
        <ele>368.6</ele>
        <time>2017-05-14T07:35:21.999Z</time>
      </trkpt>
      <trkpt lat="47.47047" lon="6.74403">
        <ele>368.9</ele>
        <time>2017-05-14T07:35:22.999Z</time>
      </trkpt>
      <trkpt lat="47.47044" lon="6.74404">
        <ele>369.4</ele>
        <time>2017-05-14T07:35:24.999Z</time>
      </trkpt>
      <trkpt lat="47.47043" lon="6.74408">
        <ele>369.7</ele>
        <time>2017-05-14T07:35:25.999Z</time>
      </trkpt>
      <trkpt lat="47.47041" lon="6.74411">
        <ele>369.9</ele>
        <time>2017-05-14T07:35:26.999Z</time>
      </trkpt>
      <trkpt lat="47.4704" lon="6.74413">
        <ele>370.2</ele>
        <time>2017-05-14T07:35:27.999Z</time>
      </trkpt>
      <trkpt lat="47.47038" lon="6.74415">
        <ele>370.4</ele>
        <time>2017-05-14T07:35:28.999Z</time>
      </trkpt>
      <trkpt lat="47.47036" lon="6.74417">
        <ele>370.5</ele>
        <time>2017-05-14T07:35:29.999Z</time>
      </trkpt>
      <trkpt lat="47.47033" lon="6.7442">
        <ele>371</ele>
        <time>2017-05-14T07:35:31.999Z</time>
      </trkpt>
      <trkpt lat="47.47032" lon="6.74421">
        <ele>371.1</ele>
        <time>2017-05-14T07:35:32.999Z</time>
      </trkpt>
      <trkpt lat="47.47029" lon="6.74425">
        <ele>371.6</ele>
        <time>2017-05-14T07:35:35.999Z</time>
      </trkpt>
      <trkpt lat="47.47028" lon="6.74426">
        <ele>371.8</ele>
        <time>2017-05-14T07:35:36.999Z</time>
      </trkpt>
      <trkpt lat="47.47025" lon="6.74429">
        <ele>372</ele>
        <time>2017-05-14T07:35:38.999Z</time>
      </trkpt>
      <trkpt lat="47.47024" lon="6.74431">
        <ele>372</ele>
        <time>2017-05-14T07:35:39.999Z</time>
      </trkpt>
      <trkpt lat="47.47021" lon="6.74435">
        <ele>372.3</ele>
        <time>2017-05-14T07:35:42.999Z</time>
      </trkpt>
      <trkpt lat="47.4702" lon="6.74436">
        <ele>372.4</ele>
        <time>2017-05-14T07:35:43.999Z</time>
      </trkpt>
      <trkpt lat="47.47017" lon="6.7444">
        <ele>372.4</ele>
        <time>2017-05-14T07:35:47.999Z</time>
      </trkpt>
      <trkpt lat="47.47016" lon="6.74442">
        <ele>372.4</ele>
        <time>2017-05-14T07:35:48.999Z</time>
      </trkpt>
      <trkpt lat="47.47013" lon="6.74445">
        <ele>372.7</ele>
        <time>2017-05-14T07:35:52.999Z</time>
      </trkpt>
      <trkpt lat="47.47013" lon="6.74446">
        <ele>372.8</ele>
        <time>2017-05-14T07:35:53.999Z</time>
      </trkpt>
      <trkpt lat="47.47011" lon="6.74451">
        <ele>372.2</ele>
        <time>2017-05-14T07:35:57.999Z</time>
      </trkpt>
      <trkpt lat="47.4701" lon="6.74452">
        <ele>372.1</ele>
        <time>2017-05-14T07:35:58.999Z</time>
      </trkpt>
      <trkpt lat="47.47008" lon="6.74457">
        <ele>371.9</ele>
        <time>2017-05-14T07:36:01.999Z</time>
      </trkpt>
      <trkpt lat="47.47007" lon="6.74457">
        <ele>371.8</ele>
        <time>2017-05-14T07:36:02.999Z</time>
      </trkpt>
      <trkpt lat="47.47003" lon="6.7446">
        <ele>371.5</ele>
        <time>2017-05-14T07:36:06.999Z</time>
      </trkpt>
      <trkpt lat="47.47002" lon="6.7446">
        <ele>371.5</ele>
        <time>2017-05-14T07:36:07.999Z</time>
      </trkpt>
      <trkpt lat="47.46999" lon="6.74462">
        <ele>371.4</ele>
        <time>2017-05-14T07:36:10.999Z</time>
      </trkpt>
      <trkpt lat="47.46999" lon="6.74463">
        <ele>371.4</ele>
        <time>2017-05-14T07:36:11.999Z</time>
      </trkpt>
      <trkpt lat="47.46996" lon="6.74466">
        <ele>371.4</ele>
        <time>2017-05-14T07:36:13.999Z</time>
      </trkpt>
      <trkpt lat="47.46995" lon="6.74468">
        <ele>371.4</ele>
        <time>2017-05-14T07:36:14.999Z</time>
      </trkpt>
      <trkpt lat="47.46993" lon="6.74472">
        <ele>371.7</ele>
        <time>2017-05-14T07:36:16.999Z</time>
      </trkpt>
      <trkpt lat="47.46991" lon="6.74472">
        <ele>371.9</ele>
        <time>2017-05-14T07:36:17.999Z</time>
      </trkpt>
      <trkpt lat="47.46989" lon="6.74476">
        <ele>372.4</ele>
        <time>2017-05-14T07:36:19.999Z</time>
      </trkpt>
      <trkpt lat="47.46987" lon="6.74479">
        <ele>372.7</ele>
        <time>2017-05-14T07:36:20.999Z</time>
      </trkpt>
      <trkpt lat="47.46984" lon="6.74483">
        <ele>373.3</ele>
        <time>2017-05-14T07:36:22.999Z</time>
      </trkpt>
      <trkpt lat="47.46982" lon="6.74485">
        <ele>373.6</ele>
        <time>2017-05-14T07:36:23.999Z</time>
      </trkpt>
      <trkpt lat="47.46979" lon="6.74488">
        <ele>373.9</ele>
        <time>2017-05-14T07:36:24.999Z</time>
      </trkpt>
      <trkpt lat="47.46977" lon="6.74491">
        <ele>374.2</ele>
        <time>2017-05-14T07:36:25.999Z</time>
      </trkpt>
      <trkpt lat="47.46973" lon="6.74493">
        <ele>374.6</ele>
        <time>2017-05-14T07:36:27.999Z</time>
      </trkpt>
      <trkpt lat="47.46972" lon="6.74494">
        <ele>374.7</ele>
        <time>2017-05-14T07:36:28.999Z</time>
      </trkpt>
      <trkpt lat="47.46968" lon="6.74497">
        <ele>375.2</ele>
        <time>2017-05-14T07:36:30.999Z</time>
      </trkpt>
      <trkpt lat="47.46963" lon="6.74503">
        <ele>375.4</ele>
        <time>2017-05-14T07:36:31.999Z</time>
      </trkpt>
      <trkpt lat="47.46959" lon="6.74505">
        <ele>375.7</ele>
        <time>2017-05-14T07:36:33.999Z</time>
      </trkpt>
      <trkpt lat="47.46957" lon="6.74506">
        <ele>375.8</ele>
        <time>2017-05-14T07:36:34.999Z</time>
      </trkpt>
      <trkpt lat="47.46954" lon="6.74509">
        <ele>376</ele>
        <time>2017-05-14T07:36:36.999Z</time>
      </trkpt>
      <trkpt lat="47.46953" lon="6.7451">
        <ele>376.1</ele>
        <time>2017-05-14T07:36:37.999Z</time>
      </trkpt>
      <trkpt lat="47.46949" lon="6.74512">
        <ele>376.6</ele>
        <time>2017-05-14T07:36:39.999Z</time>
      </trkpt>
      <trkpt lat="47.46948" lon="6.74513">
        <ele>376.8</ele>
        <time>2017-05-14T07:36:40.999Z</time>
      </trkpt>
      <trkpt lat="47.46944" lon="6.74515">
        <ele>377.1</ele>
        <time>2017-05-14T07:36:42.999Z</time>
      </trkpt>
      <trkpt lat="47.46942" lon="6.74516">
        <ele>377.3</ele>
        <time>2017-05-14T07:36:43.999Z</time>
      </trkpt>
      <trkpt lat="47.46939" lon="6.74519">
        <ele>377.7</ele>
        <time>2017-05-14T07:36:45.999Z</time>
      </trkpt>
      <trkpt lat="47.46937" lon="6.7452">
        <ele>378</ele>
        <time>2017-05-14T07:36:46.999Z</time>
      </trkpt>
      <trkpt lat="47.46933" lon="6.74522">
        <ele>378.7</ele>
        <time>2017-05-14T07:36:48.999Z</time>
      </trkpt>
      <trkpt lat="47.46931" lon="6.74523">
        <ele>378.9</ele>
        <time>2017-05-14T07:36:49.999Z</time>
      </trkpt>
      <trkpt lat="47.46928" lon="6.74526">
        <ele>379.6</ele>
        <time>2017-05-14T07:36:51.999Z</time>
      </trkpt>
      <trkpt lat="47.46927" lon="6.74526">
        <ele>380</ele>
        <time>2017-05-14T07:36:52.999Z</time>
      </trkpt>
      <trkpt lat="47.46923" lon="6.74526">
        <ele>380.8</ele>
        <time>2017-05-14T07:36:55.999Z</time>
      </trkpt>
      <trkpt lat="47.46921" lon="6.74524">
        <ele>381</ele>
        <time>2017-05-14T07:36:56.999Z</time>
      </trkpt>
      <trkpt lat="47.4692" lon="6.74519">
        <ele>381.6</ele>
        <time>2017-05-14T07:36:58.999Z</time>
      </trkpt>
      <trkpt lat="47.4692" lon="6.74515">
        <ele>381.9</ele>
        <time>2017-05-14T07:36:59.999Z</time>
      </trkpt>
      <trkpt lat="47.4692" lon="6.74511">
        <ele>382.2</ele>
        <time>2017-05-14T07:37:00.999Z</time>
      </trkpt>
      <trkpt lat="47.46919" lon="6.74508">
        <ele>382.5</ele>
        <time>2017-05-14T07:37:01.999Z</time>
      </trkpt>
      <trkpt lat="47.46919" lon="6.74504">
        <ele>382.7</ele>
        <time>2017-05-14T07:37:02.999Z</time>
      </trkpt>
      <trkpt lat="47.46919" lon="6.74501">
        <ele>383</ele>
        <time>2017-05-14T07:37:03.999Z</time>
      </trkpt>
      <trkpt lat="47.46918" lon="6.74496">
        <ele>383.5</ele>
        <time>2017-05-14T07:37:05.999Z</time>
      </trkpt>
      <trkpt lat="47.46918" lon="6.74494">
        <ele>383.7</ele>
        <time>2017-05-14T07:37:06.999Z</time>
      </trkpt>
      <trkpt lat="47.46917" lon="6.74491">
        <ele>384</ele>
        <time>2017-05-14T07:37:07.999Z</time>
      </trkpt>
      <trkpt lat="47.46916" lon="6.74486">
        <ele>384.2</ele>
        <time>2017-05-14T07:37:08.999Z</time>
      </trkpt>
      <trkpt lat="47.46914" lon="6.7448">
        <ele>384.5</ele>
        <time>2017-05-14T07:37:09.999Z</time>
      </trkpt>
      <trkpt lat="47.46912" lon="6.74476">
        <ele>384.8</ele>
        <time>2017-05-14T07:37:10.999Z</time>
      </trkpt>
      <trkpt lat="47.46911" lon="6.74473">
        <ele>385.2</ele>
        <time>2017-05-14T07:37:11.999Z</time>
      </trkpt>
      <trkpt lat="47.4691" lon="6.7447">
        <ele>385.5</ele>
        <time>2017-05-14T07:37:12.999Z</time>
      </trkpt>
      <trkpt lat="47.46908" lon="6.74465">
        <ele>386</ele>
        <time>2017-05-14T07:37:14.999Z</time>
      </trkpt>
      <trkpt lat="47.46907" lon="6.74463">
        <ele>386.3</ele>
        <time>2017-05-14T07:37:15.999Z</time>
      </trkpt>
      <trkpt lat="47.46906" lon="6.74459">
        <ele>386.9</ele>
        <time>2017-05-14T07:37:17.999Z</time>
      </trkpt>
      <trkpt lat="47.46906" lon="6.74456">
        <ele>387.1</ele>
        <time>2017-05-14T07:37:18.999Z</time>
      </trkpt>
      <trkpt lat="47.46905" lon="6.7445">
        <ele>388</ele>
        <time>2017-05-14T07:37:21.999Z</time>
      </trkpt>
      <trkpt lat="47.46904" lon="6.74449">
        <ele>388.2</ele>
        <time>2017-05-14T07:37:22.999Z</time>
      </trkpt>
      <trkpt lat="47.46903" lon="6.74443">
        <ele>388.7</ele>
        <time>2017-05-14T07:37:25.999Z</time>
      </trkpt>
      <trkpt lat="47.46902" lon="6.74441">
        <ele>388.9</ele>
        <time>2017-05-14T07:37:26.999Z</time>
      </trkpt>
      <trkpt lat="47.46902" lon="6.74436">
        <ele>389.2</ele>
        <time>2017-05-14T07:37:28.999Z</time>
      </trkpt>
      <trkpt lat="47.46901" lon="6.74432">
        <ele>389.6</ele>
        <time>2017-05-14T07:37:29.999Z</time>
      </trkpt>
      <trkpt lat="47.469" lon="6.74426">
        <ele>390.3</ele>
        <time>2017-05-14T07:37:31.999Z</time>
      </trkpt>
      <trkpt lat="47.46899" lon="6.74424">
        <ele>390.4</ele>
        <time>2017-05-14T07:37:32.999Z</time>
      </trkpt>
      <trkpt lat="47.46897" lon="6.7442">
        <ele>390.9</ele>
        <time>2017-05-14T07:37:35.999Z</time>
      </trkpt>
      <trkpt lat="47.46896" lon="6.74417">
        <ele>391.1</ele>
        <time>2017-05-14T07:37:36.999Z</time>
      </trkpt>
      <trkpt lat="47.46894" lon="6.74411">
        <ele>391.7</ele>
        <time>2017-05-14T07:37:39.999Z</time>
      </trkpt>
      <trkpt lat="47.46893" lon="6.7441">
        <ele>391.9</ele>
        <time>2017-05-14T07:37:40.999Z</time>
      </trkpt>
      <trkpt lat="47.46893" lon="6.74404">
        <ele>392.4</ele>
        <time>2017-05-14T07:37:42.999Z</time>
      </trkpt>
      <trkpt lat="47.46892" lon="6.74402">
        <ele>392.8</ele>
        <time>2017-05-14T07:37:43.999Z</time>
      </trkpt>
      <trkpt lat="47.46891" lon="6.74396">
        <ele>393.8</ele>
        <time>2017-05-14T07:37:46.999Z</time>
      </trkpt>
      <trkpt lat="47.46891" lon="6.74394">
        <ele>394</ele>
        <time>2017-05-14T07:37:47.999Z</time>
      </trkpt>
      <trkpt lat="47.46891" lon="6.74389">
        <ele>394.8</ele>
        <time>2017-05-14T07:37:50.999Z</time>
      </trkpt>
      <trkpt lat="47.46891" lon="6.74387">
        <ele>395</ele>
        <time>2017-05-14T07:37:51.999Z</time>
      </trkpt>
      <trkpt lat="47.46891" lon="6.74381">
        <ele>395.9</ele>
        <time>2017-05-14T07:37:56.999Z</time>
      </trkpt>
      <trkpt lat="47.46891" lon="6.74379">
        <ele>396.1</ele>
        <time>2017-05-14T07:37:57.999Z</time>
      </trkpt>
      <trkpt lat="47.46889" lon="6.74373">
        <ele>397.1</ele>
        <time>2017-05-14T07:38:01.999Z</time>
      </trkpt>
      <trkpt lat="47.46889" lon="6.74371">
        <ele>397.4</ele>
        <time>2017-05-14T07:38:02.999Z</time>
      </trkpt>
      <trkpt lat="47.46885" lon="6.74367">
        <ele>397.6</ele>
        <time>2017-05-14T07:38:03.999Z</time>
      </trkpt>
      <trkpt lat="47.46882" lon="6.74362">
        <ele>397.9</ele>
        <time>2017-05-14T07:38:05.999Z</time>
      </trkpt>
      <trkpt lat="47.46882" lon="6.7436">
        <ele>397.8</ele>
        <time>2017-05-14T07:38:06.999Z</time>
      </trkpt>
      <trkpt lat="47.46883" lon="6.74353">
        <ele>397.9</ele>
        <time>2017-05-14T07:38:08.999Z</time>
      </trkpt>
      <trkpt lat="47.46883" lon="6.74352">
        <ele>397.9</ele>
        <time>2017-05-14T07:38:09.999Z</time>
      </trkpt>
      <trkpt lat="47.46884" lon="6.74346">
        <ele>397.8</ele>
        <time>2017-05-14T07:38:13.999Z</time>
      </trkpt>
      <trkpt lat="47.46884" lon="6.74344">
        <ele>397.8</ele>
        <time>2017-05-14T07:38:14.999Z</time>
      </trkpt>
      <trkpt lat="47.46886" lon="6.74339">
        <ele>398.4</ele>
        <time>2017-05-14T07:38:20.999Z</time>
      </trkpt>
      <trkpt lat="47.46887" lon="6.74337">
        <ele>398.5</ele>
        <time>2017-05-14T07:38:21.999Z</time>
      </trkpt>
      <trkpt lat="47.46889" lon="6.74333">
        <ele>398.8</ele>
        <time>2017-05-14T07:38:24.999Z</time>
      </trkpt>
      <trkpt lat="47.46889" lon="6.7433">
        <ele>399.1</ele>
        <time>2017-05-14T07:38:25.999Z</time>
      </trkpt>
      <trkpt lat="47.46891" lon="6.74326">
        <ele>399.6</ele>
        <time>2017-05-14T07:38:26.999Z</time>
      </trkpt>
      <trkpt lat="47.46891" lon="6.74323">
        <ele>400</ele>
        <time>2017-05-14T07:38:27.999Z</time>
      </trkpt>
      <trkpt lat="47.46893" lon="6.74318">
        <ele>400.9</ele>
        <time>2017-05-14T07:38:29.999Z</time>
      </trkpt>
      <trkpt lat="47.46893" lon="6.74316">
        <ele>401.3</ele>
        <time>2017-05-14T07:38:30.999Z</time>
      </trkpt>
      <trkpt lat="47.46893" lon="6.7431">
        <ele>402.9</ele>
        <time>2017-05-14T07:38:34.999Z</time>
      </trkpt>
      <trkpt lat="47.46893" lon="6.74308">
        <ele>403.4</ele>
        <time>2017-05-14T07:38:35.999Z</time>
      </trkpt>
      <trkpt lat="47.46893" lon="6.74304">
        <ele>403.9</ele>
        <time>2017-05-14T07:38:36.999Z</time>
      </trkpt>
      <trkpt lat="47.46896" lon="6.743">
        <ele>404.4</ele>
        <time>2017-05-14T07:38:37.999Z</time>
      </trkpt>
      <trkpt lat="47.46898" lon="6.74295">
        <ele>406.3</ele>
        <time>2017-05-14T07:38:42.999Z</time>
      </trkpt>
      <trkpt lat="47.46897" lon="6.74293">
        <ele>406.4</ele>
        <time>2017-05-14T07:38:43.999Z</time>
      </trkpt>
      <trkpt lat="47.46897" lon="6.74287">
        <ele>406.9</ele>
        <time>2017-05-14T07:38:47.999Z</time>
      </trkpt>
      <trkpt lat="47.46899" lon="6.74285">
        <ele>407</ele>
        <time>2017-05-14T07:38:48.999Z</time>
      </trkpt>
      <trkpt lat="47.46901" lon="6.74281">
        <ele>407.2</ele>
        <time>2017-05-14T07:38:49.999Z</time>
      </trkpt>
      <trkpt lat="47.46902" lon="6.74278">
        <ele>407.2</ele>
        <time>2017-05-14T07:38:50.999Z</time>
      </trkpt>
      <trkpt lat="47.46902" lon="6.74272">
        <ele>408</ele>
        <time>2017-05-14T07:38:56.999Z</time>
      </trkpt>
      <trkpt lat="47.46904" lon="6.7427">
        <ele>408.1</ele>
        <time>2017-05-14T07:38:57.999Z</time>
      </trkpt>
      <trkpt lat="47.46905" lon="6.74264">
        <ele>408.7</ele>
        <time>2017-05-14T07:38:59.999Z</time>
      </trkpt>
      <trkpt lat="47.46906" lon="6.74261">
        <ele>409</ele>
        <time>2017-05-14T07:39:00.999Z</time>
      </trkpt>
      <trkpt lat="47.46905" lon="6.74257">
        <ele>409.4</ele>
        <time>2017-05-14T07:39:01.999Z</time>
      </trkpt>
      <trkpt lat="47.46906" lon="6.74254">
        <ele>409.7</ele>
        <time>2017-05-14T07:39:02.999Z</time>
      </trkpt>
      <trkpt lat="47.46906" lon="6.74248">
        <ele>411</ele>
        <time>2017-05-14T07:39:05.999Z</time>
      </trkpt>
      <trkpt lat="47.46906" lon="6.74245">
        <ele>411.5</ele>
        <time>2017-05-14T07:39:06.999Z</time>
      </trkpt>
      <trkpt lat="47.46907" lon="6.74239">
        <ele>413.2</ele>
        <time>2017-05-14T07:39:11.999Z</time>
      </trkpt>
      <trkpt lat="47.46908" lon="6.74234">
        <ele>413.5</ele>
        <time>2017-05-14T07:39:12.999Z</time>
      </trkpt>
      <trkpt lat="47.46908" lon="6.74232">
        <ele>413.9</ele>
        <time>2017-05-14T07:39:13.999Z</time>
      </trkpt>
      <trkpt lat="47.46908" lon="6.74227">
        <ele>414.1</ele>
        <time>2017-05-14T07:39:14.999Z</time>
      </trkpt>
      <trkpt lat="47.46907" lon="6.74221">
        <ele>415.2</ele>
        <time>2017-05-14T07:39:20.999Z</time>
      </trkpt>
      <trkpt lat="47.46908" lon="6.7422">
        <ele>415.3</ele>
        <time>2017-05-14T07:39:21.999Z</time>
      </trkpt>
      <trkpt lat="47.46906" lon="6.74215">
        <ele>415.6</ele>
        <time>2017-05-14T07:39:24.999Z</time>
      </trkpt>
      <trkpt lat="47.46906" lon="6.74213">
        <ele>415.7</ele>
        <time>2017-05-14T07:39:25.999Z</time>
      </trkpt>
      <trkpt lat="47.46906" lon="6.74207">
        <ele>415.6</ele>
        <time>2017-05-14T07:39:31.999Z</time>
      </trkpt>
      <trkpt lat="47.46906" lon="6.74204">
        <ele>415.7</ele>
        <time>2017-05-14T07:39:32.999Z</time>
      </trkpt>
      <trkpt lat="47.46903" lon="6.74199">
        <ele>416.2</ele>
        <time>2017-05-14T07:39:38.999Z</time>
      </trkpt>
      <trkpt lat="47.46902" lon="6.74197">
        <ele>416.2</ele>
        <time>2017-05-14T07:39:39.999Z</time>
      </trkpt>
      <trkpt lat="47.469" lon="6.74191">
        <ele>417.1</ele>
        <time>2017-05-14T07:39:45.999Z</time>
      </trkpt>
      <trkpt lat="47.469" lon="6.74188">
        <ele>417.4</ele>
        <time>2017-05-14T07:39:46.999Z</time>
      </trkpt>
      <trkpt lat="47.46899" lon="6.74186">
        <ele>417.8</ele>
        <time>2017-05-14T07:39:48.999Z</time>
      </trkpt>
      <trkpt lat="47.46897" lon="6.74181">
        <ele>418</ele>
        <time>2017-05-14T07:39:49.999Z</time>
      </trkpt>
      <trkpt lat="47.46897" lon="6.74174">
        <ele>418.3</ele>
        <time>2017-05-14T07:39:50.999Z</time>
      </trkpt>
      <trkpt lat="47.46897" lon="6.74171">
        <ele>418.6</ele>
        <time>2017-05-14T07:39:51.999Z</time>
      </trkpt>
      <trkpt lat="47.46899" lon="6.74165">
        <ele>418.8</ele>
        <time>2017-05-14T07:39:52.999Z</time>
      </trkpt>
      <trkpt lat="47.46902" lon="6.74162">
        <ele>418.9</ele>
        <time>2017-05-14T07:39:53.999Z</time>
      </trkpt>
      <trkpt lat="47.46902" lon="6.74156">
        <ele>419</ele>
        <time>2017-05-14T07:39:54.999Z</time>
      </trkpt>
      <trkpt lat="47.469" lon="6.74152">
        <ele>419.1</ele>
        <time>2017-05-14T07:39:55.999Z</time>
      </trkpt>
      <trkpt lat="47.46903" lon="6.74147">
        <ele>419.1</ele>
        <time>2017-05-14T07:39:56.999Z</time>
      </trkpt>
      <trkpt lat="47.46903" lon="6.74141">
        <ele>420.2</ele>
        <time>2017-05-14T07:40:01.999Z</time>
      </trkpt>
      <trkpt lat="47.46903" lon="6.74137">
        <ele>420.4</ele>
        <time>2017-05-14T07:40:02.999Z</time>
      </trkpt>
      <trkpt lat="47.46903" lon="6.74132">
        <ele>421.4</ele>
        <time>2017-05-14T07:40:05.999Z</time>
      </trkpt>
      <trkpt lat="47.46903" lon="6.74128">
        <ele>421.7</ele>
        <time>2017-05-14T07:40:06.999Z</time>
      </trkpt>
      <trkpt lat="47.46903" lon="6.74123">
        <ele>422.8</ele>
        <time>2017-05-14T07:40:10.999Z</time>
      </trkpt>
      <trkpt lat="47.46903" lon="6.74121">
        <ele>423</ele>
        <time>2017-05-14T07:40:11.999Z</time>
      </trkpt>
      <trkpt lat="47.46902" lon="6.74115">
        <ele>423.4</ele>
        <time>2017-05-14T07:40:13.999Z</time>
      </trkpt>
      <trkpt lat="47.46903" lon="6.74113">
        <ele>423.4</ele>
        <time>2017-05-14T07:40:14.999Z</time>
      </trkpt>
      <trkpt lat="47.46904" lon="6.74107">
        <ele>423.8</ele>
        <time>2017-05-14T07:40:19.999Z</time>
      </trkpt>
      <trkpt lat="47.46904" lon="6.74104">
        <ele>423.9</ele>
        <time>2017-05-14T07:40:20.999Z</time>
      </trkpt>
      <trkpt lat="47.46901" lon="6.74099">
        <ele>424.8</ele>
        <time>2017-05-14T07:40:25.999Z</time>
      </trkpt>
      <trkpt lat="47.469" lon="6.74097">
        <ele>425</ele>
        <time>2017-05-14T07:40:26.999Z</time>
      </trkpt>
      <trkpt lat="47.469" lon="6.74095">
        <ele>425.2</ele>
        <time>2017-05-14T07:40:27.999Z</time>
      </trkpt>
      <trkpt lat="47.46899" lon="6.7409">
        <ele>425.4</ele>
        <time>2017-05-14T07:40:28.999Z</time>
      </trkpt>
      <trkpt lat="47.46898" lon="6.74085">
        <ele>425.7</ele>
        <time>2017-05-14T07:40:30.999Z</time>
      </trkpt>
      <trkpt lat="47.46898" lon="6.74083">
        <ele>425.7</ele>
        <time>2017-05-14T07:40:31.999Z</time>
      </trkpt>
      <trkpt lat="47.469" lon="6.74078">
        <ele>425.7</ele>
        <time>2017-05-14T07:40:36.999Z</time>
      </trkpt>
      <trkpt lat="47.46899" lon="6.74075">
        <ele>425.6</ele>
        <time>2017-05-14T07:40:37.999Z</time>
      </trkpt>
      <trkpt lat="47.46899" lon="6.74072">
        <ele>425.5</ele>
        <time>2017-05-14T07:40:38.999Z</time>
      </trkpt>
      <trkpt lat="47.46899" lon="6.74068">
        <ele>425.5</ele>
        <time>2017-05-14T07:40:39.999Z</time>
      </trkpt>
      <trkpt lat="47.46898" lon="6.74063">
        <ele>425</ele>
        <time>2017-05-14T07:40:42.999Z</time>
      </trkpt>
      <trkpt lat="47.46898" lon="6.74061">
        <ele>424.9</ele>
        <time>2017-05-14T07:40:43.999Z</time>
      </trkpt>
      <trkpt lat="47.46897" lon="6.74057">
        <ele>424.7</ele>
        <time>2017-05-14T07:40:45.999Z</time>
      </trkpt>
      <trkpt lat="47.46895" lon="6.74052">
        <ele>424.7</ele>
        <time>2017-05-14T07:40:46.999Z</time>
      </trkpt>
      <trkpt lat="47.46893" lon="6.74047">
        <ele>424.5</ele>
        <time>2017-05-14T07:40:50.999Z</time>
      </trkpt>
      <trkpt lat="47.46892" lon="6.74043">
        <ele>424.5</ele>
        <time>2017-05-14T07:40:51.999Z</time>
      </trkpt>
      <trkpt lat="47.46892" lon="6.74036">
        <ele>424.5</ele>
        <time>2017-05-14T07:40:52.999Z</time>
      </trkpt>
      <trkpt lat="47.46892" lon="6.74032">
        <ele>424.3</ele>
        <time>2017-05-14T07:40:57.999Z</time>
      </trkpt>
      <trkpt lat="47.46892" lon="6.7403">
        <ele>424.2</ele>
        <time>2017-05-14T07:40:58.999Z</time>
      </trkpt>
      <trkpt lat="47.46891" lon="6.74027">
        <ele>424.1</ele>
        <time>2017-05-14T07:40:59.999Z</time>
      </trkpt>
      <trkpt lat="47.46887" lon="6.74023">
        <ele>424</ele>
        <time>2017-05-14T07:41:00.999Z</time>
      </trkpt>
      <trkpt lat="47.46884" lon="6.74018">
        <ele>424</ele>
        <time>2017-05-14T07:41:06.999Z</time>
      </trkpt>
      <trkpt lat="47.46884" lon="6.74017">
        <ele>423.9</ele>
        <time>2017-05-14T07:41:07.999Z</time>
      </trkpt>
      <trkpt lat="47.46883" lon="6.74013">
        <ele>424</ele>
        <time>2017-05-14T07:41:10.999Z</time>
      </trkpt>
      <trkpt lat="47.46882" lon="6.7401">
        <ele>423.9</ele>
        <time>2017-05-14T07:41:11.999Z</time>
      </trkpt>
      <trkpt lat="47.46881" lon="6.74004">
        <ele>424</ele>
        <time>2017-05-14T07:41:15.999Z</time>
      </trkpt>
      <trkpt lat="47.4688" lon="6.74003">
        <ele>424.1</ele>
        <time>2017-05-14T07:41:16.999Z</time>
      </trkpt>
      <trkpt lat="47.46877" lon="6.73998">
        <ele>424.6</ele>
        <time>2017-05-14T07:41:21.999Z</time>
      </trkpt>
      <trkpt lat="47.46877" lon="6.73996">
        <ele>424.8</ele>
        <time>2017-05-14T07:41:22.999Z</time>
      </trkpt>
      <trkpt lat="47.46876" lon="6.73991">
        <ele>425.9</ele>
        <time>2017-05-14T07:41:31.999Z</time>
      </trkpt>
      <trkpt lat="47.46874" lon="6.73984">
        <ele>426.3</ele>
        <time>2017-05-14T07:41:32.999Z</time>
      </trkpt>
      <trkpt lat="47.46873" lon="6.7398">
        <ele>426.8</ele>
        <time>2017-05-14T07:41:33.999Z</time>
      </trkpt>
      <trkpt lat="47.46872" lon="6.73977">
        <ele>427.1</ele>
        <time>2017-05-14T07:41:34.999Z</time>
      </trkpt>
      <trkpt lat="47.46871" lon="6.73973">
        <ele>427.7</ele>
        <time>2017-05-14T07:41:36.999Z</time>
      </trkpt>
      <trkpt lat="47.46869" lon="6.7397">
        <ele>428.1</ele>
        <time>2017-05-14T07:41:37.999Z</time>
      </trkpt>
      <trkpt lat="47.46869" lon="6.73965">
        <ele>428.9</ele>
        <time>2017-05-14T07:41:41.999Z</time>
      </trkpt>
      <trkpt lat="47.4687" lon="6.73961">
        <ele>429.1</ele>
        <time>2017-05-14T07:41:42.999Z</time>
      </trkpt>
      <trkpt lat="47.46866" lon="6.73958">
        <ele>429.7</ele>
        <time>2017-05-14T07:41:45.999Z</time>
      </trkpt>
      <trkpt lat="47.46865" lon="6.73955">
        <ele>429.9</ele>
        <time>2017-05-14T07:41:46.999Z</time>
      </trkpt>
      <trkpt lat="47.46865" lon="6.7395">
        <ele>430.4</ele>
        <time>2017-05-14T07:41:50.999Z</time>
      </trkpt>
      <trkpt lat="47.46864" lon="6.73946">
        <ele>430.6</ele>
        <time>2017-05-14T07:41:51.999Z</time>
      </trkpt>
      <trkpt lat="47.46864" lon="6.73941">
        <ele>431.1</ele>
        <time>2017-05-14T07:41:55.999Z</time>
      </trkpt>
      <trkpt lat="47.46862" lon="6.73937">
        <ele>431.1</ele>
        <time>2017-05-14T07:41:56.999Z</time>
      </trkpt>
      <trkpt lat="47.4686" lon="6.73933">
        <ele>431.1</ele>
        <time>2017-05-14T07:42:01.999Z</time>
      </trkpt>
      <trkpt lat="47.46859" lon="6.73931">
        <ele>431.2</ele>
        <time>2017-05-14T07:42:02.999Z</time>
      </trkpt>
      <trkpt lat="47.46855" lon="6.73922">
        <ele>431.4</ele>
        <time>2017-05-14T07:42:03.999Z</time>
      </trkpt>
      <trkpt lat="47.46852" lon="6.73911">
        <ele>431.5</ele>
        <time>2017-05-14T07:42:04.999Z</time>
      </trkpt>
      <trkpt lat="47.46852" lon="6.73902">
        <ele>431.6</ele>
        <time>2017-05-14T07:42:05.999Z</time>
      </trkpt>
      <trkpt lat="47.46852" lon="6.73896">
        <ele>431.8</ele>
        <time>2017-05-14T07:42:06.999Z</time>
      </trkpt>
      <trkpt lat="47.46852" lon="6.73895">
        <ele>431.9</ele>
        <time>2017-05-14T07:42:07.999Z</time>
      </trkpt>
      <trkpt lat="47.46849" lon="6.7389">
        <ele>432.6</ele>
        <time>2017-05-14T07:42:10.999Z</time>
      </trkpt>
      <trkpt lat="47.46849" lon="6.73889">
        <ele>432.9</ele>
        <time>2017-05-14T07:42:11.999Z</time>
      </trkpt>
      <trkpt lat="47.46846" lon="6.73884">
        <ele>434.5</ele>
        <time>2017-05-14T07:42:20.999Z</time>
      </trkpt>
      <trkpt lat="47.46846" lon="6.73879">
        <ele>434.6</ele>
        <time>2017-05-14T07:42:21.999Z</time>
      </trkpt>
      <trkpt lat="47.46846" lon="6.73874">
        <ele>434.6</ele>
        <time>2017-05-14T07:42:22.999Z</time>
      </trkpt>
      <trkpt lat="47.46846" lon="6.73869">
        <ele>434.6</ele>
        <time>2017-05-14T07:42:23.999Z</time>
      </trkpt>
      <trkpt lat="47.46845" lon="6.73862">
        <ele>434.4</ele>
        <time>2017-05-14T07:42:27.999Z</time>
      </trkpt>
      <trkpt lat="47.46845" lon="6.7386">
        <ele>434.4</ele>
        <time>2017-05-14T07:42:28.999Z</time>
      </trkpt>
      <trkpt lat="47.46844" lon="6.73856">
        <ele>434.3</ele>
        <time>2017-05-14T07:42:31.999Z</time>
      </trkpt>
      <trkpt lat="47.46843" lon="6.73853">
        <ele>434.3</ele>
        <time>2017-05-14T07:42:32.999Z</time>
      </trkpt>
      <trkpt lat="47.46843" lon="6.73847">
        <ele>435.8</ele>
        <time>2017-05-14T07:43:27.999Z</time>
      </trkpt>
      <trkpt lat="47.46841" lon="6.73845">
        <ele>436.8</ele>
        <time>2017-05-14T07:43:28.999Z</time>
      </trkpt>
      <trkpt lat="47.46839" lon="6.73841">
        <ele>447.2</ele>
        <time>2017-05-14T07:44:44.999Z</time>
      </trkpt>
      <trkpt lat="47.46836" lon="6.73833">
        <ele>448.9</ele>
        <time>2017-05-14T07:44:45.999Z</time>
      </trkpt>
      <trkpt lat="47.46835" lon="6.7383">
        <ele>452.9</ele>
        <time>2017-05-14T07:45:08.999Z</time>
      </trkpt>
      <trkpt lat="47.46834" lon="6.73823">
        <ele>453.8</ele>
        <time>2017-05-14T07:45:09.999Z</time>
      </trkpt>
      <trkpt lat="47.46833" lon="6.73819">
        <ele>455.1</ele>
        <time>2017-05-14T07:45:11.999Z</time>
      </trkpt>
      <trkpt lat="47.46833" lon="6.73812">
        <ele>455.6</ele>
        <time>2017-05-14T07:45:12.999Z</time>
      </trkpt>
      <trkpt lat="47.4683" lon="6.73805">
        <ele>456</ele>
        <time>2017-05-14T07:45:13.999Z</time>
      </trkpt>
      <trkpt lat="47.46828" lon="6.73799">
        <ele>456.4</ele>
        <time>2017-05-14T07:45:14.999Z</time>
      </trkpt>
      <trkpt lat="47.46826" lon="6.73795">
        <ele>456.9</ele>
        <time>2017-05-14T07:45:16.999Z</time>
      </trkpt>
      <trkpt lat="47.46823" lon="6.7379">
        <ele>457.1</ele>
        <time>2017-05-14T07:45:17.999Z</time>
      </trkpt>
      <trkpt lat="47.46821" lon="6.73784">
        <ele>457.3</ele>
        <time>2017-05-14T07:45:19.999Z</time>
      </trkpt>
      <trkpt lat="47.46821" lon="6.73782">
        <ele>457.3</ele>
        <time>2017-05-14T07:45:20.999Z</time>
      </trkpt>
      <trkpt lat="47.46818" lon="6.73778">
        <ele>457.1</ele>
        <time>2017-05-14T07:45:22.999Z</time>
      </trkpt>
      <trkpt lat="47.46814" lon="6.73776">
        <ele>456.9</ele>
        <time>2017-05-14T07:45:23.999Z</time>
      </trkpt>
      <trkpt lat="47.4681" lon="6.73775">
        <ele>456.6</ele>
        <time>2017-05-14T07:45:24.999Z</time>
      </trkpt>
      <trkpt lat="47.46808" lon="6.73776">
        <ele>456.3</ele>
        <time>2017-05-14T07:45:25.999Z</time>
      </trkpt>
      <trkpt lat="47.46805" lon="6.73777">
        <ele>456</ele>
        <time>2017-05-14T07:45:26.999Z</time>
      </trkpt>
      <trkpt lat="47.46802" lon="6.73779">
        <ele>455.8</ele>
        <time>2017-05-14T07:45:27.999Z</time>
      </trkpt>
      <trkpt lat="47.468" lon="6.7378">
        <ele>455.5</ele>
        <time>2017-05-14T07:45:28.999Z</time>
      </trkpt>
      <trkpt lat="47.46797" lon="6.7378">
        <ele>455.1</ele>
        <time>2017-05-14T07:45:29.999Z</time>
      </trkpt>
      <trkpt lat="47.46793" lon="6.73781">
        <ele>454.7</ele>
        <time>2017-05-14T07:45:30.999Z</time>
      </trkpt>
      <trkpt lat="47.4679" lon="6.73782">
        <ele>454.3</ele>
        <time>2017-05-14T07:45:31.999Z</time>
      </trkpt>
      <trkpt lat="47.46786" lon="6.73784">
        <ele>453.8</ele>
        <time>2017-05-14T07:45:32.999Z</time>
      </trkpt>
      <trkpt lat="47.46783" lon="6.73785">
        <ele>453.4</ele>
        <time>2017-05-14T07:45:33.999Z</time>
      </trkpt>
      <trkpt lat="47.46779" lon="6.73786">
        <ele>453.1</ele>
        <time>2017-05-14T07:45:34.999Z</time>
      </trkpt>
      <trkpt lat="47.46775" lon="6.73787">
        <ele>452.6</ele>
        <time>2017-05-14T07:45:35.999Z</time>
      </trkpt>
      <trkpt lat="47.4677" lon="6.7379">
        <ele>452.1</ele>
        <time>2017-05-14T07:45:36.999Z</time>
      </trkpt>
      <trkpt lat="47.46767" lon="6.73792">
        <ele>451.6</ele>
        <time>2017-05-14T07:45:37.999Z</time>
      </trkpt>
      <trkpt lat="47.46762" lon="6.73796">
        <ele>451</ele>
        <time>2017-05-14T07:45:38.999Z</time>
      </trkpt>
      <trkpt lat="47.46758" lon="6.73797">
        <ele>450.6</ele>
        <time>2017-05-14T07:45:39.999Z</time>
      </trkpt>
      <trkpt lat="47.46755" lon="6.73799">
        <ele>450.1</ele>
        <time>2017-05-14T07:45:40.999Z</time>
      </trkpt>
      <trkpt lat="47.4675" lon="6.73802">
        <ele>449.6</ele>
        <time>2017-05-14T07:45:41.999Z</time>
      </trkpt>
      <trkpt lat="47.46745" lon="6.73803">
        <ele>449.1</ele>
        <time>2017-05-14T07:45:42.999Z</time>
      </trkpt>
      <trkpt lat="47.46741" lon="6.73804">
        <ele>448.6</ele>
        <time>2017-05-14T07:45:43.999Z</time>
      </trkpt>
      <trkpt lat="47.46736" lon="6.73805">
        <ele>448.2</ele>
        <time>2017-05-14T07:45:44.999Z</time>
      </trkpt>
      <trkpt lat="47.46733" lon="6.73806">
        <ele>447.8</ele>
        <time>2017-05-14T07:45:45.999Z</time>
      </trkpt>
      <trkpt lat="47.46731" lon="6.73811">
        <ele>447</ele>
        <time>2017-05-14T07:45:48.999Z</time>
      </trkpt>
      <trkpt lat="47.46732" lon="6.73815">
        <ele>446.6</ele>
        <time>2017-05-14T07:45:49.999Z</time>
      </trkpt>
      <trkpt lat="47.4673" lon="6.73823">
        <ele>446.3</ele>
        <time>2017-05-14T07:45:50.999Z</time>
      </trkpt>
      <trkpt lat="47.46726" lon="6.73828">
        <ele>445.9</ele>
        <time>2017-05-14T07:45:51.999Z</time>
      </trkpt>
      <trkpt lat="47.46719" lon="6.73831">
        <ele>445.6</ele>
        <time>2017-05-14T07:45:52.999Z</time>
      </trkpt>
      <trkpt lat="47.46708" lon="6.73831">
        <ele>445.4</ele>
        <time>2017-05-14T07:45:53.999Z</time>
      </trkpt>
      <trkpt lat="47.46701" lon="6.73831">
        <ele>443.8</ele>
        <time>2017-05-14T07:45:54.999Z</time>
      </trkpt>
      <trkpt lat="47.46691" lon="6.7383">
        <ele>441.5</ele>
        <time>2017-05-14T07:45:55.999Z</time>
      </trkpt>
      <trkpt lat="47.4668" lon="6.73831">
        <ele>439</ele>
        <time>2017-05-14T07:45:56.999Z</time>
      </trkpt>
      <trkpt lat="47.46676" lon="6.73829">
        <ele>438.4</ele>
        <time>2017-05-14T07:45:58.999Z</time>
      </trkpt>
      <trkpt lat="47.46675" lon="6.73827">
        <ele>438</ele>
        <time>2017-05-14T07:45:59.999Z</time>
      </trkpt>
      <trkpt lat="47.46674" lon="6.73823">
        <ele>437.7</ele>
        <time>2017-05-14T07:46:00.999Z</time>
      </trkpt>
      <trkpt lat="47.46673" lon="6.73816">
        <ele>434.2</ele>
        <time>2017-05-14T07:46:01.999Z</time>
      </trkpt>
      <trkpt lat="47.46673" lon="6.7381">
        <ele>433.3</ele>
        <time>2017-05-14T07:46:04.999Z</time>
      </trkpt>
      <trkpt lat="47.46672" lon="6.73806">
        <ele>433.1</ele>
        <time>2017-05-14T07:46:05.999Z</time>
      </trkpt>
      <trkpt lat="47.46671" lon="6.73803">
        <ele>432.8</ele>
        <time>2017-05-14T07:46:06.999Z</time>
      </trkpt>
      <trkpt lat="47.4667" lon="6.73799">
        <ele>432.6</ele>
        <time>2017-05-14T07:46:07.999Z</time>
      </trkpt>
      <trkpt lat="47.46669" lon="6.73794">
        <ele>432.3</ele>
        <time>2017-05-14T07:46:08.999Z</time>
      </trkpt>
      <trkpt lat="47.46665" lon="6.73787">
        <ele>432.1</ele>
        <time>2017-05-14T07:46:09.999Z</time>
      </trkpt>
      <trkpt lat="47.46664" lon="6.73784">
        <ele>431.9</ele>
        <time>2017-05-14T07:46:10.999Z</time>
      </trkpt>
      <trkpt lat="47.46662" lon="6.73779">
        <ele>431.8</ele>
        <time>2017-05-14T07:46:11.999Z</time>
      </trkpt>
      <trkpt lat="47.4666" lon="6.73774">
        <ele>431.7</ele>
        <time>2017-05-14T07:46:13.999Z</time>
      </trkpt>
      <trkpt lat="47.46658" lon="6.7377">
        <ele>431.7</ele>
        <time>2017-05-14T07:46:14.999Z</time>
      </trkpt>
      <trkpt lat="47.46655" lon="6.73768">
        <ele>431.8</ele>
        <time>2017-05-14T07:46:15.999Z</time>
      </trkpt>
      <trkpt lat="47.46653" lon="6.73766">
        <ele>431.9</ele>
        <time>2017-05-14T07:46:16.999Z</time>
      </trkpt>
      <trkpt lat="47.4665" lon="6.73763">
        <ele>432</ele>
        <time>2017-05-14T07:46:17.999Z</time>
      </trkpt>
      <trkpt lat="47.46647" lon="6.7376">
        <ele>432.2</ele>
        <time>2017-05-14T07:46:18.999Z</time>
      </trkpt>
      <trkpt lat="47.46643" lon="6.73759">
        <ele>432.3</ele>
        <time>2017-05-14T07:46:19.999Z</time>
      </trkpt>
      <trkpt lat="47.4664" lon="6.73757">
        <ele>432.4</ele>
        <time>2017-05-14T07:46:20.999Z</time>
      </trkpt>
      <trkpt lat="47.46637" lon="6.73755">
        <ele>432.5</ele>
        <time>2017-05-14T07:46:21.999Z</time>
      </trkpt>
      <trkpt lat="47.46635" lon="6.73752">
        <ele>432.6</ele>
        <time>2017-05-14T07:46:22.999Z</time>
      </trkpt>
      <trkpt lat="47.46633" lon="6.73749">
        <ele>432.6</ele>
        <time>2017-05-14T07:46:23.999Z</time>
      </trkpt>
      <trkpt lat="47.4663" lon="6.73749">
        <ele>432.7</ele>
        <time>2017-05-14T07:46:24.999Z</time>
      </trkpt>
      <trkpt lat="47.46626" lon="6.73748">
        <ele>432.8</ele>
        <time>2017-05-14T07:46:25.999Z</time>
      </trkpt>
      <trkpt lat="47.46622" lon="6.73745">
        <ele>432.9</ele>
        <time>2017-05-14T07:46:26.999Z</time>
      </trkpt>
      <trkpt lat="47.46617" lon="6.73743">
        <ele>433</ele>
        <time>2017-05-14T07:46:27.999Z</time>
      </trkpt>
      <trkpt lat="47.46613" lon="6.73741">
        <ele>433.1</ele>
        <time>2017-05-14T07:46:28.999Z</time>
      </trkpt>
      <trkpt lat="47.4661" lon="6.7374">
        <ele>433.3</ele>
        <time>2017-05-14T07:46:29.999Z</time>
      </trkpt>
      <trkpt lat="47.46607" lon="6.73738">
        <ele>433.4</ele>
        <time>2017-05-14T07:46:30.999Z</time>
      </trkpt>
      <trkpt lat="47.46605" lon="6.73738">
        <ele>433.5</ele>
        <time>2017-05-14T07:46:31.999Z</time>
      </trkpt>
      <trkpt lat="47.46602" lon="6.73737">
        <ele>433.9</ele>
        <time>2017-05-14T07:46:33.999Z</time>
      </trkpt>
      <trkpt lat="47.46599" lon="6.73737">
        <ele>434</ele>
        <time>2017-05-14T07:46:34.999Z</time>
      </trkpt>
      <trkpt lat="47.46595" lon="6.73735">
        <ele>434.2</ele>
        <time>2017-05-14T07:46:36.999Z</time>
      </trkpt>
      <trkpt lat="47.46594" lon="6.73736">
        <ele>434.4</ele>
        <time>2017-05-14T07:46:37.999Z</time>
      </trkpt>
      <trkpt lat="47.4659" lon="6.73736">
        <ele>434.9</ele>
        <time>2017-05-14T07:46:40.999Z</time>
      </trkpt>
      <trkpt lat="47.46588" lon="6.73736">
        <ele>435.2</ele>
        <time>2017-05-14T07:46:41.999Z</time>
      </trkpt>
      <trkpt lat="47.46586" lon="6.73735">
        <ele>435.3</ele>
        <time>2017-05-14T07:46:42.999Z</time>
      </trkpt>
      <trkpt lat="47.46582" lon="6.73733">
        <ele>435.4</ele>
        <time>2017-05-14T07:46:43.999Z</time>
      </trkpt>
      <trkpt lat="47.46579" lon="6.73733">
        <ele>435.4</ele>
        <time>2017-05-14T07:46:44.999Z</time>
      </trkpt>
      <trkpt lat="47.46576" lon="6.73732">
        <ele>435.4</ele>
        <time>2017-05-14T07:46:45.999Z</time>
      </trkpt>
      <trkpt lat="47.46573" lon="6.73731">
        <ele>435.3</ele>
        <time>2017-05-14T07:46:46.999Z</time>
      </trkpt>
      <trkpt lat="47.4657" lon="6.73729">
        <ele>435.4</ele>
        <time>2017-05-14T07:46:47.999Z</time>
      </trkpt>
      <trkpt lat="47.46567" lon="6.73727">
        <ele>435.3</ele>
        <time>2017-05-14T07:46:48.999Z</time>
      </trkpt>
      <trkpt lat="47.46564" lon="6.73726">
        <ele>435.3</ele>
        <time>2017-05-14T07:46:49.999Z</time>
      </trkpt>
      <trkpt lat="47.46561" lon="6.73726">
        <ele>435.3</ele>
        <time>2017-05-14T07:46:50.999Z</time>
      </trkpt>
      <trkpt lat="47.46558" lon="6.73725">
        <ele>435.2</ele>
        <time>2017-05-14T07:46:51.999Z</time>
      </trkpt>
      <trkpt lat="47.46555" lon="6.73726">
        <ele>435.2</ele>
        <time>2017-05-14T07:46:52.999Z</time>
      </trkpt>
      <trkpt lat="47.4655" lon="6.73724">
        <ele>435.2</ele>
        <time>2017-05-14T07:46:53.999Z</time>
      </trkpt>
      <trkpt lat="47.46544" lon="6.73719">
        <ele>435.1</ele>
        <time>2017-05-14T07:46:54.999Z</time>
      </trkpt>
      <trkpt lat="47.4654" lon="6.73716">
        <ele>435.1</ele>
        <time>2017-05-14T07:46:55.999Z</time>
      </trkpt>
      <trkpt lat="47.46535" lon="6.73714">
        <ele>435</ele>
        <time>2017-05-14T07:46:56.999Z</time>
      </trkpt>
      <trkpt lat="47.4653" lon="6.73712">
        <ele>435.1</ele>
        <time>2017-05-14T07:46:57.999Z</time>
      </trkpt>
      <trkpt lat="47.46525" lon="6.73711">
        <ele>435.1</ele>
        <time>2017-05-14T07:46:58.999Z</time>
      </trkpt>
      <trkpt lat="47.46521" lon="6.7371">
        <ele>435.2</ele>
        <time>2017-05-14T07:46:59.999Z</time>
      </trkpt>
      <trkpt lat="47.46517" lon="6.73709">
        <ele>435.2</ele>
        <time>2017-05-14T07:47:00.999Z</time>
      </trkpt>
      <trkpt lat="47.46513" lon="6.73709">
        <ele>435.2</ele>
        <time>2017-05-14T07:47:01.999Z</time>
      </trkpt>
      <trkpt lat="47.4651" lon="6.73709">
        <ele>435.2</ele>
        <time>2017-05-14T07:47:02.999Z</time>
      </trkpt>
      <trkpt lat="47.46506" lon="6.73711">
        <ele>435.1</ele>
        <time>2017-05-14T07:47:03.999Z</time>
      </trkpt>
      <trkpt lat="47.46503" lon="6.73713">
        <ele>435.1</ele>
        <time>2017-05-14T07:47:04.999Z</time>
      </trkpt>
      <trkpt lat="47.465" lon="6.73715">
        <ele>435.1</ele>
        <time>2017-05-14T07:47:05.999Z</time>
      </trkpt>
      <trkpt lat="47.46497" lon="6.73717">
        <ele>435.1</ele>
        <time>2017-05-14T07:47:06.999Z</time>
      </trkpt>
      <trkpt lat="47.46495" lon="6.73719">
        <ele>435.1</ele>
        <time>2017-05-14T07:47:07.999Z</time>
      </trkpt>
      <trkpt lat="47.46492" lon="6.73721">
        <ele>435</ele>
        <time>2017-05-14T07:47:09.999Z</time>
      </trkpt>
      <trkpt lat="47.4649" lon="6.73721">
        <ele>435.2</ele>
        <time>2017-05-14T07:47:10.999Z</time>
      </trkpt>
      <trkpt lat="47.46486" lon="6.73724">
        <ele>436.2</ele>
        <time>2017-05-14T07:47:16.999Z</time>
      </trkpt>
      <trkpt lat="47.46485" lon="6.73725">
        <ele>436.4</ele>
        <time>2017-05-14T07:47:17.999Z</time>
      </trkpt>
      <trkpt lat="47.46483" lon="6.73728">
        <ele>436.9</ele>
        <time>2017-05-14T07:47:19.999Z</time>
      </trkpt>
      <trkpt lat="47.46481" lon="6.73732">
        <ele>437.1</ele>
        <time>2017-05-14T07:47:20.999Z</time>
      </trkpt>
      <trkpt lat="47.46477" lon="6.73736">
        <ele>437.7</ele>
        <time>2017-05-14T07:47:24.999Z</time>
      </trkpt>
      <trkpt lat="47.46476" lon="6.73736">
        <ele>438</ele>
        <time>2017-05-14T07:47:25.999Z</time>
      </trkpt>
      <trkpt lat="47.46474" lon="6.73738">
        <ele>438.2</ele>
        <time>2017-05-14T07:47:27.999Z</time>
      </trkpt>
      <trkpt lat="47.46472" lon="6.7374">
        <ele>438.4</ele>
        <time>2017-05-14T07:47:28.999Z</time>
      </trkpt>
      <trkpt lat="47.4647" lon="6.73742">
        <ele>438.6</ele>
        <time>2017-05-14T07:47:29.999Z</time>
      </trkpt>
      <trkpt lat="47.46468" lon="6.73744">
        <ele>438.7</ele>
        <time>2017-05-14T07:47:30.999Z</time>
      </trkpt>
      <trkpt lat="47.46464" lon="6.73745">
        <ele>438.8</ele>
        <time>2017-05-14T07:47:31.999Z</time>
      </trkpt>
      <trkpt lat="47.46461" lon="6.73748">
        <ele>438.8</ele>
        <time>2017-05-14T07:47:32.999Z</time>
      </trkpt>
      <trkpt lat="47.46458" lon="6.73749">
        <ele>439</ele>
        <time>2017-05-14T07:47:33.999Z</time>
      </trkpt>
      <trkpt lat="47.46454" lon="6.73749">
        <ele>439.2</ele>
        <time>2017-05-14T07:47:34.999Z</time>
      </trkpt>
      <trkpt lat="47.46451" lon="6.73749">
        <ele>439.4</ele>
        <time>2017-05-14T07:47:35.999Z</time>
      </trkpt>
      <trkpt lat="47.46448" lon="6.73748">
        <ele>439.5</ele>
        <time>2017-05-14T07:47:36.999Z</time>
      </trkpt>
      <trkpt lat="47.46445" lon="6.73748">
        <ele>439.7</ele>
        <time>2017-05-14T07:47:37.999Z</time>
      </trkpt>
      <trkpt lat="47.46442" lon="6.73748">
        <ele>439.9</ele>
        <time>2017-05-14T07:47:38.999Z</time>
      </trkpt>
      <trkpt lat="47.46437" lon="6.73747">
        <ele>440.3</ele>
        <time>2017-05-14T07:47:40.999Z</time>
      </trkpt>
      <trkpt lat="47.46435" lon="6.73747">
        <ele>440.6</ele>
        <time>2017-05-14T07:47:41.999Z</time>
      </trkpt>
      <trkpt lat="47.46431" lon="6.73746">
        <ele>440.9</ele>
        <time>2017-05-14T07:47:43.999Z</time>
      </trkpt>
      <trkpt lat="47.46429" lon="6.73746">
        <ele>441</ele>
        <time>2017-05-14T07:47:44.999Z</time>
      </trkpt>
      <trkpt lat="47.46425" lon="6.73744">
        <ele>441.3</ele>
        <time>2017-05-14T07:47:46.999Z</time>
      </trkpt>
      <trkpt lat="47.46423" lon="6.73744">
        <ele>441.5</ele>
        <time>2017-05-14T07:47:47.999Z</time>
      </trkpt>
      <trkpt lat="47.46421" lon="6.73744">
        <ele>441.8</ele>
        <time>2017-05-14T07:47:48.999Z</time>
      </trkpt>
      <trkpt lat="47.46419" lon="6.73743">
        <ele>442</ele>
        <time>2017-05-14T07:47:49.999Z</time>
      </trkpt>
      <trkpt lat="47.46416" lon="6.73743">
        <ele>442.5</ele>
        <time>2017-05-14T07:47:51.999Z</time>
      </trkpt>
      <trkpt lat="47.46414" lon="6.73744">
        <ele>442.7</ele>
        <time>2017-05-14T07:47:52.999Z</time>
      </trkpt>
      <trkpt lat="47.46412" lon="6.73744">
        <ele>443</ele>
        <time>2017-05-14T07:47:53.999Z</time>
      </trkpt>
      <trkpt lat="47.46408" lon="6.73745">
        <ele>443.2</ele>
        <time>2017-05-14T07:47:54.999Z</time>
      </trkpt>
      <trkpt lat="47.46404" lon="6.73744">
        <ele>443.7</ele>
        <time>2017-05-14T07:47:56.999Z</time>
      </trkpt>
      <trkpt lat="47.46402" lon="6.73743">
        <ele>443.9</ele>
        <time>2017-05-14T07:47:57.999Z</time>
      </trkpt>
      <trkpt lat="47.46398" lon="6.73742">
        <ele>444.7</ele>
        <time>2017-05-14T07:48:00.999Z</time>
      </trkpt>
      <trkpt lat="47.46397" lon="6.73741">
        <ele>445</ele>
        <time>2017-05-14T07:48:01.999Z</time>
      </trkpt>
      <trkpt lat="47.46396" lon="6.73741">
        <ele>445.2</ele>
        <time>2017-05-14T07:48:02.999Z</time>
      </trkpt>
      <trkpt lat="47.46392" lon="6.73741">
        <ele>445.4</ele>
        <time>2017-05-14T07:48:03.999Z</time>
      </trkpt>
      <trkpt lat="47.4639" lon="6.73741">
        <ele>445.6</ele>
        <time>2017-05-14T07:48:04.999Z</time>
      </trkpt>
      <trkpt lat="47.46387" lon="6.73741">
        <ele>445.8</ele>
        <time>2017-05-14T07:48:05.999Z</time>
      </trkpt>
      <trkpt lat="47.46383" lon="6.7374">
        <ele>446.2</ele>
        <time>2017-05-14T07:48:07.999Z</time>
      </trkpt>
      <trkpt lat="47.4638" lon="6.7374">
        <ele>446.4</ele>
        <time>2017-05-14T07:48:08.999Z</time>
      </trkpt>
      <trkpt lat="47.46376" lon="6.73738">
        <ele>446.8</ele>
        <time>2017-05-14T07:48:10.999Z</time>
      </trkpt>
      <trkpt lat="47.46375" lon="6.73738">
        <ele>447.1</ele>
        <time>2017-05-14T07:48:11.999Z</time>
      </trkpt>
      <trkpt lat="47.46371" lon="6.73737">
        <ele>447.7</ele>
        <time>2017-05-14T07:48:13.999Z</time>
      </trkpt>
      <trkpt lat="47.46369" lon="6.73736">
        <ele>447.9</ele>
        <time>2017-05-14T07:48:14.999Z</time>
      </trkpt>
      <trkpt lat="47.46365" lon="6.73736">
        <ele>448.5</ele>
        <time>2017-05-14T07:48:17.999Z</time>
      </trkpt>
      <trkpt lat="47.46363" lon="6.73736">
        <ele>448.8</ele>
        <time>2017-05-14T07:48:18.999Z</time>
      </trkpt>
      <trkpt lat="47.4636" lon="6.73737">
        <ele>449.5</ele>
        <time>2017-05-14T07:48:20.999Z</time>
      </trkpt>
      <trkpt lat="47.46358" lon="6.73737">
        <ele>449.8</ele>
        <time>2017-05-14T07:48:21.999Z</time>
      </trkpt>
      <trkpt lat="47.46354" lon="6.73736">
        <ele>450.7</ele>
        <time>2017-05-14T07:48:24.999Z</time>
      </trkpt>
      <trkpt lat="47.46352" lon="6.73736">
        <ele>450.9</ele>
        <time>2017-05-14T07:48:25.999Z</time>
      </trkpt>
      <trkpt lat="47.46348" lon="6.73733">
        <ele>451.3</ele>
        <time>2017-05-14T07:48:27.999Z</time>
      </trkpt>
      <trkpt lat="47.46346" lon="6.73732">
        <ele>451.5</ele>
        <time>2017-05-14T07:48:28.999Z</time>
      </trkpt>
      <trkpt lat="47.46343" lon="6.73731">
        <ele>451.8</ele>
        <time>2017-05-14T07:48:30.999Z</time>
      </trkpt>
      <trkpt lat="47.46341" lon="6.73731">
        <ele>451.9</ele>
        <time>2017-05-14T07:48:31.999Z</time>
      </trkpt>
      <trkpt lat="47.46338" lon="6.7373">
        <ele>452.2</ele>
        <time>2017-05-14T07:48:33.999Z</time>
      </trkpt>
      <trkpt lat="47.46336" lon="6.73729">
        <ele>452.3</ele>
        <time>2017-05-14T07:48:34.999Z</time>
      </trkpt>
      <trkpt lat="47.46332" lon="6.73727">
        <ele>452.5</ele>
        <time>2017-05-14T07:48:36.999Z</time>
      </trkpt>
      <trkpt lat="47.4633" lon="6.73725">
        <ele>452.6</ele>
        <time>2017-05-14T07:48:37.999Z</time>
      </trkpt>
      <trkpt lat="47.46326" lon="6.73723">
        <ele>452.9</ele>
        <time>2017-05-14T07:48:39.999Z</time>
      </trkpt>
      <trkpt lat="47.46324" lon="6.73723">
        <ele>453.1</ele>
        <time>2017-05-14T07:48:40.999Z</time>
      </trkpt>
      <trkpt lat="47.46321" lon="6.73723">
        <ele>453.5</ele>
        <time>2017-05-14T07:48:42.999Z</time>
      </trkpt>
      <trkpt lat="47.46319" lon="6.73722">
        <ele>453.7</ele>
        <time>2017-05-14T07:48:43.999Z</time>
      </trkpt>
      <trkpt lat="47.46315" lon="6.7372">
        <ele>454.2</ele>
        <time>2017-05-14T07:48:45.999Z</time>
      </trkpt>
      <trkpt lat="47.46314" lon="6.73719">
        <ele>454.5</ele>
        <time>2017-05-14T07:48:46.999Z</time>
      </trkpt>
      <trkpt lat="47.4631" lon="6.73718">
        <ele>454.9</ele>
        <time>2017-05-14T07:48:48.999Z</time>
      </trkpt>
      <trkpt lat="47.46309" lon="6.73717">
        <ele>455.1</ele>
        <time>2017-05-14T07:48:49.999Z</time>
      </trkpt>
      <trkpt lat="47.46306" lon="6.73716">
        <ele>455.5</ele>
        <time>2017-05-14T07:48:51.999Z</time>
      </trkpt>
      <trkpt lat="47.46304" lon="6.73716">
        <ele>455.7</ele>
        <time>2017-05-14T07:48:52.999Z</time>
      </trkpt>
      <trkpt lat="47.46302" lon="6.73715">
        <ele>455.9</ele>
        <time>2017-05-14T07:48:53.999Z</time>
      </trkpt>
      <trkpt lat="47.46299" lon="6.73714">
        <ele>456.2</ele>
        <time>2017-05-14T07:48:54.999Z</time>
      </trkpt>
      <trkpt lat="47.46296" lon="6.73713">
        <ele>456.5</ele>
        <time>2017-05-14T07:48:56.999Z</time>
      </trkpt>
      <trkpt lat="47.46294" lon="6.73713">
        <ele>456.7</ele>
        <time>2017-05-14T07:48:57.999Z</time>
      </trkpt>
      <trkpt lat="47.46291" lon="6.73712">
        <ele>457</ele>
        <time>2017-05-14T07:49:00.999Z</time>
      </trkpt>
      <trkpt lat="47.46289" lon="6.73711">
        <ele>457.1</ele>
        <time>2017-05-14T07:49:01.999Z</time>
      </trkpt>
      <trkpt lat="47.46286" lon="6.7371">
        <ele>457.1</ele>
        <time>2017-05-14T07:49:03.999Z</time>
      </trkpt>
      <trkpt lat="47.46284" lon="6.73709">
        <ele>457.1</ele>
        <time>2017-05-14T07:49:04.999Z</time>
      </trkpt>
      <trkpt lat="47.46281" lon="6.73708">
        <ele>457.1</ele>
        <time>2017-05-14T07:49:06.999Z</time>
      </trkpt>
      <trkpt lat="47.46279" lon="6.73708">
        <ele>457.2</ele>
        <time>2017-05-14T07:49:07.999Z</time>
      </trkpt>
      <trkpt lat="47.46275" lon="6.73709">
        <ele>457.7</ele>
        <time>2017-05-14T07:49:13.999Z</time>
      </trkpt>
      <trkpt lat="47.46274" lon="6.73709">
        <ele>457.8</ele>
        <time>2017-05-14T07:49:14.999Z</time>
      </trkpt>
      <trkpt lat="47.4627" lon="6.73708">
        <ele>458.1</ele>
        <time>2017-05-14T07:49:16.999Z</time>
      </trkpt>
      <trkpt lat="47.46268" lon="6.73708">
        <ele>458.2</ele>
        <time>2017-05-14T07:49:17.999Z</time>
      </trkpt>
      <trkpt lat="47.46266" lon="6.73708">
        <ele>458.4</ele>
        <time>2017-05-14T07:49:18.999Z</time>
      </trkpt>
      <trkpt lat="47.46264" lon="6.73707">
        <ele>458.6</ele>
        <time>2017-05-14T07:49:19.999Z</time>
      </trkpt>
      <trkpt lat="47.46259" lon="6.73706">
        <ele>459</ele>
        <time>2017-05-14T07:49:21.999Z</time>
      </trkpt>
      <trkpt lat="47.46258" lon="6.73706">
        <ele>459.1</ele>
        <time>2017-05-14T07:49:22.999Z</time>
      </trkpt>
      <trkpt lat="47.46255" lon="6.73706">
        <ele>459.4</ele>
        <time>2017-05-14T07:49:24.999Z</time>
      </trkpt>
      <trkpt lat="47.46253" lon="6.73706">
        <ele>459.4</ele>
        <time>2017-05-14T07:49:25.999Z</time>
      </trkpt>
      <trkpt lat="47.46249" lon="6.73705">
        <ele>459.5</ele>
        <time>2017-05-14T07:49:27.999Z</time>
      </trkpt>
      <trkpt lat="47.46247" lon="6.73705">
        <ele>459.6</ele>
        <time>2017-05-14T07:49:28.999Z</time>
      </trkpt>
      <trkpt lat="47.46245" lon="6.73705">
        <ele>459.7</ele>
        <time>2017-05-14T07:49:29.999Z</time>
      </trkpt>
      <trkpt lat="47.46243" lon="6.73704">
        <ele>459.8</ele>
        <time>2017-05-14T07:49:30.999Z</time>
      </trkpt>
      <trkpt lat="47.46239" lon="6.73704">
        <ele>460.1</ele>
        <time>2017-05-14T07:49:32.999Z</time>
      </trkpt>
      <trkpt lat="47.46237" lon="6.73704">
        <ele>460.3</ele>
        <time>2017-05-14T07:49:33.999Z</time>
      </trkpt>
      <trkpt lat="47.46233" lon="6.73704">
        <ele>460.6</ele>
        <time>2017-05-14T07:49:35.999Z</time>
      </trkpt>
      <trkpt lat="47.46231" lon="6.73704">
        <ele>460.8</ele>
        <time>2017-05-14T07:49:36.999Z</time>
      </trkpt>
      <trkpt lat="47.46227" lon="6.73704">
        <ele>461</ele>
        <time>2017-05-14T07:49:38.999Z</time>
      </trkpt>
      <trkpt lat="47.46226" lon="6.73705">
        <ele>461.1</ele>
        <time>2017-05-14T07:49:39.999Z</time>
      </trkpt>
      <trkpt lat="47.46222" lon="6.73704">
        <ele>461.4</ele>
        <time>2017-05-14T07:49:42.999Z</time>
      </trkpt>
      <trkpt lat="47.46221" lon="6.73703">
        <ele>461.4</ele>
        <time>2017-05-14T07:49:43.999Z</time>
      </trkpt>
      <trkpt lat="47.46218" lon="6.73702">
        <ele>461.7</ele>
        <time>2017-05-14T07:49:46.999Z</time>
      </trkpt>
      <trkpt lat="47.46216" lon="6.73703">
        <ele>461.9</ele>
        <time>2017-05-14T07:49:47.999Z</time>
      </trkpt>
      <trkpt lat="47.46214" lon="6.73704">
        <ele>462</ele>
        <time>2017-05-14T07:49:49.999Z</time>
      </trkpt>
      <trkpt lat="47.46211" lon="6.73704">
        <ele>462.1</ele>
        <time>2017-05-14T07:49:50.999Z</time>
      </trkpt>
      <trkpt lat="47.46208" lon="6.73706">
        <ele>462.1</ele>
        <time>2017-05-14T07:49:51.999Z</time>
      </trkpt>
      <trkpt lat="47.46206" lon="6.73707">
        <ele>462.2</ele>
        <time>2017-05-14T07:49:52.999Z</time>
      </trkpt>
      <trkpt lat="47.46202" lon="6.73706">
        <ele>462.2</ele>
        <time>2017-05-14T07:49:54.999Z</time>
      </trkpt>
      <trkpt lat="47.46199" lon="6.73705">
        <ele>462.3</ele>
        <time>2017-05-14T07:49:55.999Z</time>
      </trkpt>
      <trkpt lat="47.46196" lon="6.73703">
        <ele>462.4</ele>
        <time>2017-05-14T07:49:57.999Z</time>
      </trkpt>
      <trkpt lat="47.46193" lon="6.73703">
        <ele>462.5</ele>
        <time>2017-05-14T07:49:58.999Z</time>
      </trkpt>
      <trkpt lat="47.46188" lon="6.73703">
        <ele>462.9</ele>
        <time>2017-05-14T07:50:00.999Z</time>
      </trkpt>
      <trkpt lat="47.46187" lon="6.73703">
        <ele>463.2</ele>
        <time>2017-05-14T07:50:01.999Z</time>
      </trkpt>
      <trkpt lat="47.46182" lon="6.73703">
        <ele>463.8</ele>
        <time>2017-05-14T07:50:04.999Z</time>
      </trkpt>
      <trkpt lat="47.46181" lon="6.73703">
        <ele>464</ele>
        <time>2017-05-14T07:50:05.999Z</time>
      </trkpt>
      <trkpt lat="47.46177" lon="6.73701">
        <ele>464.7</ele>
        <time>2017-05-14T07:50:08.999Z</time>
      </trkpt>
      <trkpt lat="47.46175" lon="6.73701">
        <ele>464.9</ele>
        <time>2017-05-14T07:50:09.999Z</time>
      </trkpt>
      <trkpt lat="47.46171" lon="6.73699">
        <ele>465.3</ele>
        <time>2017-05-14T07:50:11.999Z</time>
      </trkpt>
      <trkpt lat="47.46168" lon="6.73699">
        <ele>465.6</ele>
        <time>2017-05-14T07:50:12.999Z</time>
      </trkpt>
      <trkpt lat="47.46165" lon="6.73699">
        <ele>466.2</ele>
        <time>2017-05-14T07:50:15.999Z</time>
      </trkpt>
      <trkpt lat="47.46163" lon="6.73699">
        <ele>466.4</ele>
        <time>2017-05-14T07:50:16.999Z</time>
      </trkpt>
      <trkpt lat="47.46159" lon="6.73697">
        <ele>466.7</ele>
        <time>2017-05-14T07:50:20.999Z</time>
      </trkpt>
      <trkpt lat="47.46158" lon="6.73696">
        <ele>466.7</ele>
        <time>2017-05-14T07:50:21.999Z</time>
      </trkpt>
      <trkpt lat="47.46155" lon="6.73693">
        <ele>466.6</ele>
        <time>2017-05-14T07:50:23.999Z</time>
      </trkpt>
      <trkpt lat="47.46154" lon="6.73692">
        <ele>466.5</ele>
        <time>2017-05-14T07:50:24.999Z</time>
      </trkpt>
      <trkpt lat="47.4615" lon="6.73691">
        <ele>466.5</ele>
        <time>2017-05-14T07:50:26.999Z</time>
      </trkpt>
      <trkpt lat="47.46148" lon="6.73691">
        <ele>466.5</ele>
        <time>2017-05-14T07:50:27.999Z</time>
      </trkpt>
      <trkpt lat="47.46144" lon="6.7369">
        <ele>466.5</ele>
        <time>2017-05-14T07:50:29.999Z</time>
      </trkpt>
      <trkpt lat="47.46142" lon="6.73689">
        <ele>466.6</ele>
        <time>2017-05-14T07:50:30.999Z</time>
      </trkpt>
      <trkpt lat="47.46139" lon="6.73687">
        <ele>466.9</ele>
        <time>2017-05-14T07:50:32.999Z</time>
      </trkpt>
      <trkpt lat="47.46137" lon="6.73685">
        <ele>467</ele>
        <time>2017-05-14T07:50:33.999Z</time>
      </trkpt>
      <trkpt lat="47.46134" lon="6.73682">
        <ele>467.4</ele>
        <time>2017-05-14T07:50:36.999Z</time>
      </trkpt>
      <trkpt lat="47.46133" lon="6.73681">
        <ele>467.5</ele>
        <time>2017-05-14T07:50:37.999Z</time>
      </trkpt>
      <trkpt lat="47.46131" lon="6.73678">
        <ele>467.6</ele>
        <time>2017-05-14T07:50:38.999Z</time>
      </trkpt>
      <trkpt lat="47.4613" lon="6.73676">
        <ele>467.7</ele>
        <time>2017-05-14T07:50:39.999Z</time>
      </trkpt>
      <trkpt lat="47.46128" lon="6.73674">
        <ele>467.7</ele>
        <time>2017-05-14T07:50:41.999Z</time>
      </trkpt>
      <trkpt lat="47.46126" lon="6.73672">
        <ele>467.8</ele>
        <time>2017-05-14T07:50:42.999Z</time>
      </trkpt>
      <trkpt lat="47.46122" lon="6.73669">
        <ele>467.9</ele>
        <time>2017-05-14T07:50:44.999Z</time>
      </trkpt>
      <trkpt lat="47.4612" lon="6.73667">
        <ele>468</ele>
        <time>2017-05-14T07:50:45.999Z</time>
      </trkpt>
      <trkpt lat="47.46116" lon="6.73664">
        <ele>468.1</ele>
        <time>2017-05-14T07:50:47.999Z</time>
      </trkpt>
      <trkpt lat="47.46114" lon="6.73663">
        <ele>468.2</ele>
        <time>2017-05-14T07:50:48.999Z</time>
      </trkpt>
      <trkpt lat="47.46112" lon="6.73658">
        <ele>468.2</ele>
        <time>2017-05-14T07:50:50.999Z</time>
      </trkpt>
      <trkpt lat="47.4611" lon="6.73657">
        <ele>468.1</ele>
        <time>2017-05-14T07:50:51.999Z</time>
      </trkpt>
      <trkpt lat="47.46106" lon="6.73654">
        <ele>467.8</ele>
        <time>2017-05-14T07:50:53.999Z</time>
      </trkpt>
      <trkpt lat="47.46104" lon="6.73652">
        <ele>467.8</ele>
        <time>2017-05-14T07:50:54.999Z</time>
      </trkpt>
      <trkpt lat="47.46101" lon="6.7365">
        <ele>467.7</ele>
        <time>2017-05-14T07:50:55.999Z</time>
      </trkpt>
      <trkpt lat="47.46099" lon="6.73648">
        <ele>467.6</ele>
        <time>2017-05-14T07:50:56.999Z</time>
      </trkpt>
      <trkpt lat="47.46096" lon="6.73646">
        <ele>467.3</ele>
        <time>2017-05-14T07:50:58.999Z</time>
      </trkpt>
      <trkpt lat="47.46094" lon="6.73645">
        <ele>467.2</ele>
        <time>2017-05-14T07:50:59.999Z</time>
      </trkpt>
      <trkpt lat="47.46091" lon="6.73642">
        <ele>467.2</ele>
        <time>2017-05-14T07:51:02.999Z</time>
      </trkpt>
      <trkpt lat="47.46089" lon="6.73641">
        <ele>467.2</ele>
        <time>2017-05-14T07:51:03.999Z</time>
      </trkpt>
      <trkpt lat="47.46087" lon="6.73639">
        <ele>467.3</ele>
        <time>2017-05-14T07:51:04.999Z</time>
      </trkpt>
      <trkpt lat="47.46084" lon="6.73638">
        <ele>467.4</ele>
        <time>2017-05-14T07:51:05.999Z</time>
      </trkpt>
      <trkpt lat="47.46081" lon="6.73637">
        <ele>467.6</ele>
        <time>2017-05-14T07:51:06.999Z</time>
      </trkpt>
      <trkpt lat="47.46079" lon="6.73636">
        <ele>467.8</ele>
        <time>2017-05-14T07:51:07.999Z</time>
      </trkpt>
      <trkpt lat="47.46075" lon="6.73634">
        <ele>468.1</ele>
        <time>2017-05-14T07:51:09.999Z</time>
      </trkpt>
      <trkpt lat="47.46073" lon="6.73633">
        <ele>468.2</ele>
        <time>2017-05-14T07:51:10.999Z</time>
      </trkpt>
      <trkpt lat="47.4607" lon="6.73628">
        <ele>468.7</ele>
        <time>2017-05-14T07:51:13.999Z</time>
      </trkpt>
      <trkpt lat="47.46069" lon="6.73627">
        <ele>468.8</ele>
        <time>2017-05-14T07:51:14.999Z</time>
      </trkpt>
      <trkpt lat="47.46066" lon="6.73623">
        <ele>469.1</ele>
        <time>2017-05-14T07:51:16.999Z</time>
      </trkpt>
      <trkpt lat="47.46065" lon="6.73621">
        <ele>469.2</ele>
        <time>2017-05-14T07:51:17.999Z</time>
      </trkpt>
      <trkpt lat="47.46062" lon="6.73618">
        <ele>469.4</ele>
        <time>2017-05-14T07:51:19.999Z</time>
      </trkpt>
      <trkpt lat="47.4606" lon="6.73617">
        <ele>469.5</ele>
        <time>2017-05-14T07:51:20.999Z</time>
      </trkpt>
      <trkpt lat="47.46057" lon="6.73614">
        <ele>469.8</ele>
        <time>2017-05-14T07:51:22.999Z</time>
      </trkpt>
      <trkpt lat="47.46054" lon="6.73613">
        <ele>469.9</ele>
        <time>2017-05-14T07:51:23.999Z</time>
      </trkpt>
      <trkpt lat="47.4605" lon="6.73611">
        <ele>470.3</ele>
        <time>2017-05-14T07:51:25.999Z</time>
      </trkpt>
      <trkpt lat="47.46048" lon="6.73609">
        <ele>470.4</ele>
        <time>2017-05-14T07:51:26.999Z</time>
      </trkpt>
      <trkpt lat="47.46045" lon="6.73609">
        <ele>470.7</ele>
        <time>2017-05-14T07:51:28.999Z</time>
      </trkpt>
      <trkpt lat="47.46043" lon="6.73608">
        <ele>470.8</ele>
        <time>2017-05-14T07:51:29.999Z</time>
      </trkpt>
      <trkpt lat="47.4604" lon="6.73607">
        <ele>471.1</ele>
        <time>2017-05-14T07:51:31.999Z</time>
      </trkpt>
      <trkpt lat="47.46038" lon="6.73606">
        <ele>471.2</ele>
        <time>2017-05-14T07:51:32.999Z</time>
      </trkpt>
      <trkpt lat="47.46033" lon="6.73605">
        <ele>471.4</ele>
        <time>2017-05-14T07:51:34.999Z</time>
      </trkpt>
      <trkpt lat="47.46032" lon="6.73606">
        <ele>471.5</ele>
        <time>2017-05-14T07:51:35.999Z</time>
      </trkpt>
      <trkpt lat="47.46028" lon="6.73605">
        <ele>471.6</ele>
        <time>2017-05-14T07:51:37.999Z</time>
      </trkpt>
      <trkpt lat="47.46027" lon="6.73606">
        <ele>471.7</ele>
        <time>2017-05-14T07:51:38.999Z</time>
      </trkpt>
      <trkpt lat="47.46022" lon="6.73605">
        <ele>471.9</ele>
        <time>2017-05-14T07:51:40.999Z</time>
      </trkpt>
      <trkpt lat="47.4602" lon="6.73605">
        <ele>472</ele>
        <time>2017-05-14T07:51:41.999Z</time>
      </trkpt>
      <trkpt lat="47.46017" lon="6.73605">
        <ele>472.3</ele>
        <time>2017-05-14T07:51:43.999Z</time>
      </trkpt>
      <trkpt lat="47.46015" lon="6.73605">
        <ele>472.4</ele>
        <time>2017-05-14T07:51:44.999Z</time>
      </trkpt>
      <trkpt lat="47.46012" lon="6.73606">
        <ele>472.7</ele>
        <time>2017-05-14T07:51:46.999Z</time>
      </trkpt>
      <trkpt lat="47.4601" lon="6.73606">
        <ele>472.7</ele>
        <time>2017-05-14T07:51:47.999Z</time>
      </trkpt>
      <trkpt lat="47.46007" lon="6.73607">
        <ele>472.7</ele>
        <time>2017-05-14T07:51:49.999Z</time>
      </trkpt>
      <trkpt lat="47.46004" lon="6.73607">
        <ele>472.8</ele>
        <time>2017-05-14T07:51:50.999Z</time>
      </trkpt>
      <trkpt lat="47.46" lon="6.73606">
        <ele>473</ele>
        <time>2017-05-14T07:51:52.999Z</time>
      </trkpt>
      <trkpt lat="47.45998" lon="6.73606">
        <ele>473.2</ele>
        <time>2017-05-14T07:51:53.999Z</time>
      </trkpt>
      <trkpt lat="47.45995" lon="6.73607">
        <ele>473.4</ele>
        <time>2017-05-14T07:51:55.999Z</time>
      </trkpt>
      <trkpt lat="47.45993" lon="6.73608">
        <ele>473.6</ele>
        <time>2017-05-14T07:51:56.999Z</time>
      </trkpt>
      <trkpt lat="47.4599" lon="6.73609">
        <ele>473.9</ele>
        <time>2017-05-14T07:51:58.999Z</time>
      </trkpt>
      <trkpt lat="47.45988" lon="6.73609">
        <ele>474</ele>
        <time>2017-05-14T07:51:59.999Z</time>
      </trkpt>
      <trkpt lat="47.45985" lon="6.7361">
        <ele>474.1</ele>
        <time>2017-05-14T07:52:01.999Z</time>
      </trkpt>
      <trkpt lat="47.45983" lon="6.73611">
        <ele>474.2</ele>
        <time>2017-05-14T07:52:02.999Z</time>
      </trkpt>
      <trkpt lat="47.4598" lon="6.73611">
        <ele>474.4</ele>
        <time>2017-05-14T07:52:03.999Z</time>
      </trkpt>
      <trkpt lat="47.45978" lon="6.73612">
        <ele>474.6</ele>
        <time>2017-05-14T07:52:04.999Z</time>
      </trkpt>
      <trkpt lat="47.45973" lon="6.73613">
        <ele>475</ele>
        <time>2017-05-14T07:52:06.999Z</time>
      </trkpt>
      <trkpt lat="47.45971" lon="6.73613">
        <ele>475.2</ele>
        <time>2017-05-14T07:52:07.999Z</time>
      </trkpt>
      <trkpt lat="47.45968" lon="6.73614">
        <ele>475.3</ele>
        <time>2017-05-14T07:52:08.999Z</time>
      </trkpt>
      <trkpt lat="47.45966" lon="6.73614">
        <ele>475.5</ele>
        <time>2017-05-14T07:52:09.999Z</time>
      </trkpt>
      <trkpt lat="47.45962" lon="6.73615">
        <ele>475.8</ele>
        <time>2017-05-14T07:52:11.999Z</time>
      </trkpt>
      <trkpt lat="47.4596" lon="6.73616">
        <ele>475.9</ele>
        <time>2017-05-14T07:52:12.999Z</time>
      </trkpt>
      <trkpt lat="47.45956" lon="6.73617">
        <ele>476.1</ele>
        <time>2017-05-14T07:52:14.999Z</time>
      </trkpt>
      <trkpt lat="47.45954" lon="6.73618">
        <ele>476.1</ele>
        <time>2017-05-14T07:52:15.999Z</time>
      </trkpt>
      <trkpt lat="47.45952" lon="6.73619">
        <ele>476.1</ele>
        <time>2017-05-14T07:52:16.999Z</time>
      </trkpt>
      <trkpt lat="47.4595" lon="6.7362">
        <ele>476.1</ele>
        <time>2017-05-14T07:52:17.999Z</time>
      </trkpt>
      <trkpt lat="47.45948" lon="6.73621">
        <ele>476.1</ele>
        <time>2017-05-14T07:52:18.999Z</time>
      </trkpt>
      <trkpt lat="47.45945" lon="6.73623">
        <ele>476.3</ele>
        <time>2017-05-14T07:52:19.999Z</time>
      </trkpt>
      <trkpt lat="47.45942" lon="6.73625">
        <ele>476.4</ele>
        <time>2017-05-14T07:52:20.999Z</time>
      </trkpt>
      <trkpt lat="47.4594" lon="6.73626">
        <ele>476.7</ele>
        <time>2017-05-14T07:52:21.999Z</time>
      </trkpt>
      <trkpt lat="47.45938" lon="6.73628">
        <ele>476.9</ele>
        <time>2017-05-14T07:52:22.999Z</time>
      </trkpt>
      <trkpt lat="47.45936" lon="6.7363">
        <ele>477.2</ele>
        <time>2017-05-14T07:52:23.999Z</time>
      </trkpt>
      <trkpt lat="47.45934" lon="6.73632">
        <ele>477.4</ele>
        <time>2017-05-14T07:52:24.999Z</time>
      </trkpt>
      <trkpt lat="47.45932" lon="6.73635">
        <ele>477.7</ele>
        <time>2017-05-14T07:52:25.999Z</time>
      </trkpt>
      <trkpt lat="47.4593" lon="6.73637">
        <ele>478</ele>
        <time>2017-05-14T07:52:26.999Z</time>
      </trkpt>
      <trkpt lat="47.45928" lon="6.7364">
        <ele>478.2</ele>
        <time>2017-05-14T07:52:27.999Z</time>
      </trkpt>
      <trkpt lat="47.45926" lon="6.73642">
        <ele>478.4</ele>
        <time>2017-05-14T07:52:28.999Z</time>
      </trkpt>
      <trkpt lat="47.45924" lon="6.73644">
        <ele>478.6</ele>
        <time>2017-05-14T07:52:29.999Z</time>
      </trkpt>
      <trkpt lat="47.45922" lon="6.73645">
        <ele>478.8</ele>
        <time>2017-05-14T07:52:30.999Z</time>
      </trkpt>
      <trkpt lat="47.45919" lon="6.73647">
        <ele>479</ele>
        <time>2017-05-14T07:52:31.999Z</time>
      </trkpt>
      <trkpt lat="47.45916" lon="6.73649">
        <ele>479.3</ele>
        <time>2017-05-14T07:52:32.999Z</time>
      </trkpt>
      <trkpt lat="47.45913" lon="6.73649">
        <ele>479.5</ele>
        <time>2017-05-14T07:52:33.999Z</time>
      </trkpt>
      <trkpt lat="47.4591" lon="6.7365">
        <ele>479.9</ele>
        <time>2017-05-14T07:52:35.999Z</time>
      </trkpt>
      <trkpt lat="47.45908" lon="6.73651">
        <ele>480.2</ele>
        <time>2017-05-14T07:52:36.999Z</time>
      </trkpt>
      <trkpt lat="47.45905" lon="6.73652">
        <ele>480.4</ele>
        <time>2017-05-14T07:52:37.999Z</time>
      </trkpt>
      <trkpt lat="47.45903" lon="6.73653">
        <ele>480.7</ele>
        <time>2017-05-14T07:52:38.999Z</time>
      </trkpt>
      <trkpt lat="47.45901" lon="6.73653">
        <ele>480.9</ele>
        <time>2017-05-14T07:52:39.999Z</time>
      </trkpt>
      <trkpt lat="47.45898" lon="6.73654">
        <ele>481.1</ele>
        <time>2017-05-14T07:52:40.999Z</time>
      </trkpt>
      <trkpt lat="47.45894" lon="6.73655">
        <ele>481.6</ele>
        <time>2017-05-14T07:52:42.999Z</time>
      </trkpt>
      <trkpt lat="47.45892" lon="6.73654">
        <ele>481.8</ele>
        <time>2017-05-14T07:52:43.999Z</time>
      </trkpt>
      <trkpt lat="47.45889" lon="6.73655">
        <ele>482</ele>
        <time>2017-05-14T07:52:44.999Z</time>
      </trkpt>
      <trkpt lat="47.45887" lon="6.73654">
        <ele>482.1</ele>
        <time>2017-05-14T07:52:45.999Z</time>
      </trkpt>
      <trkpt lat="47.45884" lon="6.73654">
        <ele>482.2</ele>
        <time>2017-05-14T07:52:46.999Z</time>
      </trkpt>
      <trkpt lat="47.45881" lon="6.73653">
        <ele>482.2</ele>
        <time>2017-05-14T07:52:47.999Z</time>
      </trkpt>
      <trkpt lat="47.45878" lon="6.73652">
        <ele>482.3</ele>
        <time>2017-05-14T07:52:48.999Z</time>
      </trkpt>
      <trkpt lat="47.45876" lon="6.73652">
        <ele>482.3</ele>
        <time>2017-05-14T07:52:49.999Z</time>
      </trkpt>
      <trkpt lat="47.45872" lon="6.73651">
        <ele>482.6</ele>
        <time>2017-05-14T07:52:51.999Z</time>
      </trkpt>
      <trkpt lat="47.45869" lon="6.73651">
        <ele>482.6</ele>
        <time>2017-05-14T07:52:52.999Z</time>
      </trkpt>
      <trkpt lat="47.45866" lon="6.73651">
        <ele>482.7</ele>
        <time>2017-05-14T07:52:53.999Z</time>
      </trkpt>
      <trkpt lat="47.45863" lon="6.73651">
        <ele>482.7</ele>
        <time>2017-05-14T07:52:54.999Z</time>
      </trkpt>
      <trkpt lat="47.4586" lon="6.7365">
        <ele>482.7</ele>
        <time>2017-05-14T07:52:55.999Z</time>
      </trkpt>
      <trkpt lat="47.45856" lon="6.7365">
        <ele>482.8</ele>
        <time>2017-05-14T07:52:56.999Z</time>
      </trkpt>
      <trkpt lat="47.45853" lon="6.7365">
        <ele>482.8</ele>
        <time>2017-05-14T07:52:57.999Z</time>
      </trkpt>
      <trkpt lat="47.45851" lon="6.7365">
        <ele>482.8</ele>
        <time>2017-05-14T07:52:58.999Z</time>
      </trkpt>
      <trkpt lat="47.45846" lon="6.73651">
        <ele>482.7</ele>
        <time>2017-05-14T07:53:00.999Z</time>
      </trkpt>
      <trkpt lat="47.45844" lon="6.73652">
        <ele>482.7</ele>
        <time>2017-05-14T07:53:01.999Z</time>
      </trkpt>
      <trkpt lat="47.45842" lon="6.73652">
        <ele>482.6</ele>
        <time>2017-05-14T07:53:02.999Z</time>
      </trkpt>
      <trkpt lat="47.45839" lon="6.73652">
        <ele>482.5</ele>
        <time>2017-05-14T07:53:03.999Z</time>
      </trkpt>
      <trkpt lat="47.45835" lon="6.73652">
        <ele>482.5</ele>
        <time>2017-05-14T07:53:05.999Z</time>
      </trkpt>
      <trkpt lat="47.45833" lon="6.73652">
        <ele>482.5</ele>
        <time>2017-05-14T07:53:06.999Z</time>
      </trkpt>
      <trkpt lat="47.4583" lon="6.73652">
        <ele>482.6</ele>
        <time>2017-05-14T07:53:07.999Z</time>
      </trkpt>
      <trkpt lat="47.45827" lon="6.73652">
        <ele>482.6</ele>
        <time>2017-05-14T07:53:08.999Z</time>
      </trkpt>
      <trkpt lat="47.45825" lon="6.73651">
        <ele>482.7</ele>
        <time>2017-05-14T07:53:09.999Z</time>
      </trkpt>
      <trkpt lat="47.45822" lon="6.73652">
        <ele>482.8</ele>
        <time>2017-05-14T07:53:10.999Z</time>
      </trkpt>
      <trkpt lat="47.4582" lon="6.73653">
        <ele>482.8</ele>
        <time>2017-05-14T07:53:11.999Z</time>
      </trkpt>
      <trkpt lat="47.45817" lon="6.73654">
        <ele>482.8</ele>
        <time>2017-05-14T07:53:12.999Z</time>
      </trkpt>
      <trkpt lat="47.45814" lon="6.73654">
        <ele>482.8</ele>
        <time>2017-05-14T07:53:13.999Z</time>
      </trkpt>
      <trkpt lat="47.45811" lon="6.73654">
        <ele>482.8</ele>
        <time>2017-05-14T07:53:14.999Z</time>
      </trkpt>
      <trkpt lat="47.45809" lon="6.73654">
        <ele>482.9</ele>
        <time>2017-05-14T07:53:15.999Z</time>
      </trkpt>
      <trkpt lat="47.45806" lon="6.73654">
        <ele>482.9</ele>
        <time>2017-05-14T07:53:16.999Z</time>
      </trkpt>
      <trkpt lat="47.45804" lon="6.73654">
        <ele>483.1</ele>
        <time>2017-05-14T07:53:17.999Z</time>
      </trkpt>
      <trkpt lat="47.45801" lon="6.73654">
        <ele>483.2</ele>
        <time>2017-05-14T07:53:18.999Z</time>
      </trkpt>
      <trkpt lat="47.45799" lon="6.73655">
        <ele>483.4</ele>
        <time>2017-05-14T07:53:19.999Z</time>
      </trkpt>
      <trkpt lat="47.45796" lon="6.73655">
        <ele>483.6</ele>
        <time>2017-05-14T07:53:20.999Z</time>
      </trkpt>
      <trkpt lat="47.45794" lon="6.73655">
        <ele>483.7</ele>
        <time>2017-05-14T07:53:21.999Z</time>
      </trkpt>
      <trkpt lat="47.45791" lon="6.73656">
        <ele>483.8</ele>
        <time>2017-05-14T07:53:22.999Z</time>
      </trkpt>
      <trkpt lat="47.45789" lon="6.73657">
        <ele>483.9</ele>
        <time>2017-05-14T07:53:23.999Z</time>
      </trkpt>
      <trkpt lat="47.45786" lon="6.73657">
        <ele>483.9</ele>
        <time>2017-05-14T07:53:24.999Z</time>
      </trkpt>
      <trkpt lat="47.45784" lon="6.73657">
        <ele>484.1</ele>
        <time>2017-05-14T07:53:25.999Z</time>
      </trkpt>
      <trkpt lat="47.45781" lon="6.73657">
        <ele>484.2</ele>
        <time>2017-05-14T07:53:26.999Z</time>
      </trkpt>
      <trkpt lat="47.45778" lon="6.73657">
        <ele>484.4</ele>
        <time>2017-05-14T07:53:27.999Z</time>
      </trkpt>
      <trkpt lat="47.45776" lon="6.73657">
        <ele>484.5</ele>
        <time>2017-05-14T07:53:28.999Z</time>
      </trkpt>
      <trkpt lat="47.45774" lon="6.73658">
        <ele>484.6</ele>
        <time>2017-05-14T07:53:29.999Z</time>
      </trkpt>
      <trkpt lat="47.45771" lon="6.73659">
        <ele>484.7</ele>
        <time>2017-05-14T07:53:30.999Z</time>
      </trkpt>
      <trkpt lat="47.45769" lon="6.73659">
        <ele>484.7</ele>
        <time>2017-05-14T07:53:31.999Z</time>
      </trkpt>
      <trkpt lat="47.45766" lon="6.7366">
        <ele>484.8</ele>
        <time>2017-05-14T07:53:32.999Z</time>
      </trkpt>
      <trkpt lat="47.45764" lon="6.7366">
        <ele>484.9</ele>
        <time>2017-05-14T07:53:33.999Z</time>
      </trkpt>
      <trkpt lat="47.45761" lon="6.7366">
        <ele>485</ele>
        <time>2017-05-14T07:53:34.999Z</time>
      </trkpt>
      <trkpt lat="47.45758" lon="6.7366">
        <ele>485</ele>
        <time>2017-05-14T07:53:35.999Z</time>
      </trkpt>
      <trkpt lat="47.45756" lon="6.73661">
        <ele>485.1</ele>
        <time>2017-05-14T07:53:36.999Z</time>
      </trkpt>
      <trkpt lat="47.45752" lon="6.73661">
        <ele>485.2</ele>
        <time>2017-05-14T07:53:38.999Z</time>
      </trkpt>
      <trkpt lat="47.4575" lon="6.73662">
        <ele>485.3</ele>
        <time>2017-05-14T07:53:39.999Z</time>
      </trkpt>
      <trkpt lat="47.45747" lon="6.73662">
        <ele>485.4</ele>
        <time>2017-05-14T07:53:40.999Z</time>
      </trkpt>
      <trkpt lat="47.45745" lon="6.73662">
        <ele>485.5</ele>
        <time>2017-05-14T07:53:41.999Z</time>
      </trkpt>
      <trkpt lat="47.45743" lon="6.73662">
        <ele>485.6</ele>
        <time>2017-05-14T07:53:42.999Z</time>
      </trkpt>
      <trkpt lat="47.4574" lon="6.73663">
        <ele>485.7</ele>
        <time>2017-05-14T07:53:43.999Z</time>
      </trkpt>
      <trkpt lat="47.45738" lon="6.73663">
        <ele>485.8</ele>
        <time>2017-05-14T07:53:44.999Z</time>
      </trkpt>
      <trkpt lat="47.45735" lon="6.73663">
        <ele>485.9</ele>
        <time>2017-05-14T07:53:45.999Z</time>
      </trkpt>
      <trkpt lat="47.45731" lon="6.73663">
        <ele>486.1</ele>
        <time>2017-05-14T07:53:47.999Z</time>
      </trkpt>
      <trkpt lat="47.45728" lon="6.73663">
        <ele>486.2</ele>
        <time>2017-05-14T07:53:48.999Z</time>
      </trkpt>
      <trkpt lat="47.45724" lon="6.73664">
        <ele>486.4</ele>
        <time>2017-05-14T07:53:50.999Z</time>
      </trkpt>
      <trkpt lat="47.45722" lon="6.73664">
        <ele>486.5</ele>
        <time>2017-05-14T07:53:51.999Z</time>
      </trkpt>
      <trkpt lat="47.45719" lon="6.73665">
        <ele>486.5</ele>
        <time>2017-05-14T07:53:52.999Z</time>
      </trkpt>
      <trkpt lat="47.45715" lon="6.73665">
        <ele>486.6</ele>
        <time>2017-05-14T07:53:53.999Z</time>
      </trkpt>
      <trkpt lat="47.45712" lon="6.73665">
        <ele>486.6</ele>
        <time>2017-05-14T07:53:54.999Z</time>
      </trkpt>
      <trkpt lat="47.4571" lon="6.73665">
        <ele>486.7</ele>
        <time>2017-05-14T07:53:55.999Z</time>
      </trkpt>
      <trkpt lat="47.45708" lon="6.73664">
        <ele>486.7</ele>
        <time>2017-05-14T07:53:56.999Z</time>
      </trkpt>
      <trkpt lat="47.45705" lon="6.73664">
        <ele>486.8</ele>
        <time>2017-05-14T07:53:57.999Z</time>
      </trkpt>
      <trkpt lat="47.45703" lon="6.73664">
        <ele>486.9</ele>
        <time>2017-05-14T07:53:58.999Z</time>
      </trkpt>
      <trkpt lat="47.457" lon="6.73664">
        <ele>487</ele>
        <time>2017-05-14T07:53:59.999Z</time>
      </trkpt>
      <trkpt lat="47.45697" lon="6.73664">
        <ele>487.1</ele>
        <time>2017-05-14T07:54:00.999Z</time>
      </trkpt>
      <trkpt lat="47.45694" lon="6.73665">
        <ele>487.1</ele>
        <time>2017-05-14T07:54:01.999Z</time>
      </trkpt>
      <trkpt lat="47.45692" lon="6.73665">
        <ele>487.2</ele>
        <time>2017-05-14T07:54:02.999Z</time>
      </trkpt>
      <trkpt lat="47.45689" lon="6.73665">
        <ele>487.3</ele>
        <time>2017-05-14T07:54:03.999Z</time>
      </trkpt>
      <trkpt lat="47.45687" lon="6.73666">
        <ele>487.3</ele>
        <time>2017-05-14T07:54:04.999Z</time>
      </trkpt>
      <trkpt lat="47.45684" lon="6.73666">
        <ele>487.4</ele>
        <time>2017-05-14T07:54:05.999Z</time>
      </trkpt>
      <trkpt lat="47.45681" lon="6.73667">
        <ele>487.4</ele>
        <time>2017-05-14T07:54:06.999Z</time>
      </trkpt>
      <trkpt lat="47.45679" lon="6.73668">
        <ele>487.4</ele>
        <time>2017-05-14T07:54:07.999Z</time>
      </trkpt>
      <trkpt lat="47.45677" lon="6.73668">
        <ele>487.5</ele>
        <time>2017-05-14T07:54:08.999Z</time>
      </trkpt>
      <trkpt lat="47.45674" lon="6.73669">
        <ele>487.5</ele>
        <time>2017-05-14T07:54:09.999Z</time>
      </trkpt>
      <trkpt lat="47.45671" lon="6.7367">
        <ele>487.6</ele>
        <time>2017-05-14T07:54:10.999Z</time>
      </trkpt>
      <trkpt lat="47.45669" lon="6.7367">
        <ele>487.7</ele>
        <time>2017-05-14T07:54:11.999Z</time>
      </trkpt>
      <trkpt lat="47.45665" lon="6.7367">
        <ele>487.6</ele>
        <time>2017-05-14T07:54:13.999Z</time>
      </trkpt>
      <trkpt lat="47.45662" lon="6.7367">
        <ele>487.7</ele>
        <time>2017-05-14T07:54:14.999Z</time>
      </trkpt>
      <trkpt lat="47.45661" lon="6.7367">
        <ele>487.7</ele>
        <time>2017-05-14T07:54:15.999Z</time>
      </trkpt>
      <trkpt lat="47.45658" lon="6.73671">
        <ele>487.6</ele>
        <time>2017-05-14T07:54:16.999Z</time>
      </trkpt>
      <trkpt lat="47.45655" lon="6.73671">
        <ele>487.6</ele>
        <time>2017-05-14T07:54:17.999Z</time>
      </trkpt>
      <trkpt lat="47.45653" lon="6.73672">
        <ele>487.6</ele>
        <time>2017-05-14T07:54:18.999Z</time>
      </trkpt>
      <trkpt lat="47.4565" lon="6.73673">
        <ele>487.6</ele>
        <time>2017-05-14T07:54:19.999Z</time>
      </trkpt>
      <trkpt lat="47.45647" lon="6.73674">
        <ele>487.6</ele>
        <time>2017-05-14T07:54:20.999Z</time>
      </trkpt>
      <trkpt lat="47.45645" lon="6.73674">
        <ele>487.7</ele>
        <time>2017-05-14T07:54:21.999Z</time>
      </trkpt>
      <trkpt lat="47.45642" lon="6.73674">
        <ele>487.8</ele>
        <time>2017-05-14T07:54:22.999Z</time>
      </trkpt>
      <trkpt lat="47.45639" lon="6.73674">
        <ele>487.9</ele>
        <time>2017-05-14T07:54:23.999Z</time>
      </trkpt>
      <trkpt lat="47.45637" lon="6.73674">
        <ele>488</ele>
        <time>2017-05-14T07:54:24.999Z</time>
      </trkpt>
      <trkpt lat="47.45634" lon="6.73673">
        <ele>488.1</ele>
        <time>2017-05-14T07:54:25.999Z</time>
      </trkpt>
      <trkpt lat="47.4563" lon="6.73673">
        <ele>488.2</ele>
        <time>2017-05-14T07:54:26.999Z</time>
      </trkpt>
      <trkpt lat="47.45627" lon="6.73672">
        <ele>488.6</ele>
        <time>2017-05-14T07:54:28.999Z</time>
      </trkpt>
      <trkpt lat="47.45625" lon="6.7367">
        <ele>488.8</ele>
        <time>2017-05-14T07:54:29.999Z</time>
      </trkpt>
      <trkpt lat="47.45622" lon="6.73669">
        <ele>489.4</ele>
        <time>2017-05-14T07:54:32.999Z</time>
      </trkpt>
      <trkpt lat="47.4562" lon="6.73668">
        <ele>489.6</ele>
        <time>2017-05-14T07:54:33.999Z</time>
      </trkpt>
      <trkpt lat="47.45617" lon="6.73668">
        <ele>489.8</ele>
        <time>2017-05-14T07:54:34.999Z</time>
      </trkpt>
      <trkpt lat="47.45614" lon="6.73669">
        <ele>490</ele>
        <time>2017-05-14T07:54:35.999Z</time>
      </trkpt>
      <trkpt lat="47.4561" lon="6.7367">
        <ele>490.2</ele>
        <time>2017-05-14T07:54:37.999Z</time>
      </trkpt>
      <trkpt lat="47.45608" lon="6.7367">
        <ele>490.4</ele>
        <time>2017-05-14T07:54:38.999Z</time>
      </trkpt>
      <trkpt lat="47.45606" lon="6.73673">
        <ele>490.4</ele>
        <time>2017-05-14T07:54:39.999Z</time>
      </trkpt>
      <trkpt lat="47.45604" lon="6.73674">
        <ele>490.4</ele>
        <time>2017-05-14T07:54:40.999Z</time>
      </trkpt>
      <trkpt lat="47.45601" lon="6.73675">
        <ele>490.4</ele>
        <time>2017-05-14T07:54:41.999Z</time>
      </trkpt>
      <trkpt lat="47.45598" lon="6.73676">
        <ele>490.4</ele>
        <time>2017-05-14T07:54:42.999Z</time>
      </trkpt>
      <trkpt lat="47.45594" lon="6.73676">
        <ele>490.4</ele>
        <time>2017-05-14T07:54:44.999Z</time>
      </trkpt>
      <trkpt lat="47.45592" lon="6.73676">
        <ele>490.4</ele>
        <time>2017-05-14T07:54:45.999Z</time>
      </trkpt>
      <trkpt lat="47.45587" lon="6.73675">
        <ele>490.5</ele>
        <time>2017-05-14T07:54:47.999Z</time>
      </trkpt>
      <trkpt lat="47.45584" lon="6.73677">
        <ele>490.7</ele>
        <time>2017-05-14T07:54:48.999Z</time>
      </trkpt>
      <trkpt lat="47.45579" lon="6.73677">
        <ele>490.9</ele>
        <time>2017-05-14T07:54:50.999Z</time>
      </trkpt>
      <trkpt lat="47.45577" lon="6.73677">
        <ele>490.9</ele>
        <time>2017-05-14T07:54:51.999Z</time>
      </trkpt>
      <trkpt lat="47.45573" lon="6.73678">
        <ele>490.9</ele>
        <time>2017-05-14T07:54:53.999Z</time>
      </trkpt>
      <trkpt lat="47.45571" lon="6.73679">
        <ele>490.8</ele>
        <time>2017-05-14T07:54:54.999Z</time>
      </trkpt>
      <trkpt lat="47.45567" lon="6.73681">
        <ele>490.7</ele>
        <time>2017-05-14T07:54:56.999Z</time>
      </trkpt>
      <trkpt lat="47.45565" lon="6.73681">
        <ele>490.6</ele>
        <time>2017-05-14T07:54:57.999Z</time>
      </trkpt>
      <trkpt lat="47.45562" lon="6.7368">
        <ele>490.5</ele>
        <time>2017-05-14T07:54:58.999Z</time>
      </trkpt>
      <trkpt lat="47.45559" lon="6.7368">
        <ele>490.3</ele>
        <time>2017-05-14T07:54:59.999Z</time>
      </trkpt>
      <trkpt lat="47.45557" lon="6.7368">
        <ele>490.1</ele>
        <time>2017-05-14T07:55:00.999Z</time>
      </trkpt>
      <trkpt lat="47.45554" lon="6.7368">
        <ele>489.9</ele>
        <time>2017-05-14T07:55:01.999Z</time>
      </trkpt>
      <trkpt lat="47.4555" lon="6.7368">
        <ele>486.7</ele>
        <time>2017-05-14T07:55:02.999Z</time>
      </trkpt>
      <trkpt lat="47.45548" lon="6.7368">
        <ele>486.5</ele>
        <time>2017-05-14T07:55:03.999Z</time>
      </trkpt>
      <trkpt lat="47.45545" lon="6.73678">
        <ele>486.3</ele>
        <time>2017-05-14T07:55:04.999Z</time>
      </trkpt>
      <trkpt lat="47.45542" lon="6.73677">
        <ele>486.2</ele>
        <time>2017-05-14T07:55:05.999Z</time>
      </trkpt>
      <trkpt lat="47.45539" lon="6.73675">
        <ele>486.1</ele>
        <time>2017-05-14T07:55:06.999Z</time>
      </trkpt>
      <trkpt lat="47.45535" lon="6.73674">
        <ele>485.9</ele>
        <time>2017-05-14T07:55:07.999Z</time>
      </trkpt>
      <trkpt lat="47.45532" lon="6.73672">
        <ele>485.7</ele>
        <time>2017-05-14T07:55:08.999Z</time>
      </trkpt>
      <trkpt lat="47.45529" lon="6.7367">
        <ele>485.5</ele>
        <time>2017-05-14T07:55:09.999Z</time>
      </trkpt>
      <trkpt lat="47.45527" lon="6.73669">
        <ele>485.3</ele>
        <time>2017-05-14T07:55:10.999Z</time>
      </trkpt>
      <trkpt lat="47.45524" lon="6.73666">
        <ele>485</ele>
        <time>2017-05-14T07:55:11.999Z</time>
      </trkpt>
      <trkpt lat="47.45521" lon="6.73663">
        <ele>484.9</ele>
        <time>2017-05-14T07:55:12.999Z</time>
      </trkpt>
      <trkpt lat="47.45518" lon="6.73661">
        <ele>484.8</ele>
        <time>2017-05-14T07:55:13.999Z</time>
      </trkpt>
      <trkpt lat="47.45516" lon="6.73657">
        <ele>484.7</ele>
        <time>2017-05-14T07:55:14.999Z</time>
      </trkpt>
      <trkpt lat="47.45511" lon="6.73651">
        <ele>484.6</ele>
        <time>2017-05-14T07:55:15.999Z</time>
      </trkpt>
      <trkpt lat="47.45505" lon="6.73647">
        <ele>484.6</ele>
        <time>2017-05-14T07:55:16.999Z</time>
      </trkpt>
      <trkpt lat="47.45502" lon="6.73642">
        <ele>484.6</ele>
        <time>2017-05-14T07:55:17.999Z</time>
      </trkpt>
      <trkpt lat="47.45499" lon="6.73638">
        <ele>484.6</ele>
        <time>2017-05-14T07:55:18.999Z</time>
      </trkpt>
      <trkpt lat="47.45496" lon="6.73635">
        <ele>484.4</ele>
        <time>2017-05-14T07:55:19.999Z</time>
      </trkpt>
      <trkpt lat="47.45494" lon="6.73631">
        <ele>484.4</ele>
        <time>2017-05-14T07:55:20.999Z</time>
      </trkpt>
      <trkpt lat="47.45492" lon="6.73626">
        <ele>484.3</ele>
        <time>2017-05-14T07:55:21.999Z</time>
      </trkpt>
      <trkpt lat="47.45491" lon="6.7362">
        <ele>484.4</ele>
        <time>2017-05-14T07:55:22.999Z</time>
      </trkpt>
      <trkpt lat="47.4549" lon="6.73614">
        <ele>484.5</ele>
        <time>2017-05-14T07:55:23.999Z</time>
      </trkpt>
      <trkpt lat="47.45487" lon="6.73608">
        <ele>484.6</ele>
        <time>2017-05-14T07:55:24.999Z</time>
      </trkpt>
      <trkpt lat="47.45481" lon="6.73593">
        <ele>484.7</ele>
        <time>2017-05-14T07:55:25.999Z</time>
      </trkpt>
      <trkpt lat="47.45477" lon="6.73584">
        <ele>484.8</ele>
        <time>2017-05-14T07:55:26.999Z</time>
      </trkpt>
      <trkpt lat="47.45475" lon="6.73579">
        <ele>485</ele>
        <time>2017-05-14T07:55:27.999Z</time>
      </trkpt>
      <trkpt lat="47.45474" lon="6.73571">
        <ele>485</ele>
        <time>2017-05-14T07:55:28.999Z</time>
      </trkpt>
      <trkpt lat="47.45471" lon="6.73559">
        <ele>485.1</ele>
        <time>2017-05-14T07:55:29.999Z</time>
      </trkpt>
      <trkpt lat="47.45467" lon="6.73553">
        <ele>485.3</ele>
        <time>2017-05-14T07:55:30.999Z</time>
      </trkpt>
      <trkpt lat="47.45467" lon="6.73551">
        <ele>485.3</ele>
        <time>2017-05-14T07:55:31.999Z</time>
      </trkpt>
      <trkpt lat="47.45464" lon="6.73547">
        <ele>485.4</ele>
        <time>2017-05-14T07:55:32.999Z</time>
      </trkpt>
      <trkpt lat="47.45464" lon="6.73541">
        <ele>485.1</ele>
        <time>2017-05-14T07:55:34.999Z</time>
      </trkpt>
      <trkpt lat="47.45463" lon="6.73537">
        <ele>485</ele>
        <time>2017-05-14T07:55:35.999Z</time>
      </trkpt>
      <trkpt lat="47.45463" lon="6.73533">
        <ele>485</ele>
        <time>2017-05-14T07:55:36.999Z</time>
      </trkpt>
      <trkpt lat="47.45462" lon="6.73528">
        <ele>484.9</ele>
        <time>2017-05-14T07:55:37.999Z</time>
      </trkpt>
      <trkpt lat="47.45461" lon="6.73523">
        <ele>484.9</ele>
        <time>2017-05-14T07:55:39.999Z</time>
      </trkpt>
      <trkpt lat="47.4546" lon="6.73518">
        <ele>485</ele>
        <time>2017-05-14T07:55:40.999Z</time>
      </trkpt>
      <trkpt lat="47.4546" lon="6.73513">
        <ele>485.1</ele>
        <time>2017-05-14T07:55:41.999Z</time>
      </trkpt>
      <trkpt lat="47.45459" lon="6.73509">
        <ele>485.2</ele>
        <time>2017-05-14T07:55:42.999Z</time>
      </trkpt>
      <trkpt lat="47.45459" lon="6.73504">
        <ele>485.3</ele>
        <time>2017-05-14T07:55:43.999Z</time>
      </trkpt>
      <trkpt lat="47.45459" lon="6.73499">
        <ele>485.5</ele>
        <time>2017-05-14T07:55:44.999Z</time>
      </trkpt>
      <trkpt lat="47.45459" lon="6.73496">
        <ele>485.7</ele>
        <time>2017-05-14T07:55:45.999Z</time>
      </trkpt>
      <trkpt lat="47.4546" lon="6.73492">
        <ele>485.8</ele>
        <time>2017-05-14T07:55:46.999Z</time>
      </trkpt>
      <trkpt lat="47.4546" lon="6.73488">
        <ele>486.1</ele>
        <time>2017-05-14T07:55:47.999Z</time>
      </trkpt>
      <trkpt lat="47.45461" lon="6.73484">
        <ele>486.3</ele>
        <time>2017-05-14T07:55:48.999Z</time>
      </trkpt>
      <trkpt lat="47.45461" lon="6.7348">
        <ele>486.5</ele>
        <time>2017-05-14T07:55:49.999Z</time>
      </trkpt>
      <trkpt lat="47.45461" lon="6.73477">
        <ele>486.7</ele>
        <time>2017-05-14T07:55:50.999Z</time>
      </trkpt>
      <trkpt lat="47.4546" lon="6.73473">
        <ele>486.9</ele>
        <time>2017-05-14T07:55:51.999Z</time>
      </trkpt>
      <trkpt lat="47.4546" lon="6.7347">
        <ele>487.2</ele>
        <time>2017-05-14T07:55:52.999Z</time>
      </trkpt>
      <trkpt lat="47.45459" lon="6.73461">
        <ele>487.5</ele>
        <time>2017-05-14T07:55:53.999Z</time>
      </trkpt>
      <trkpt lat="47.45459" lon="6.73457">
        <ele>487.8</ele>
        <time>2017-05-14T07:55:54.999Z</time>
      </trkpt>
      <trkpt lat="47.45459" lon="6.73452">
        <ele>488</ele>
        <time>2017-05-14T07:55:55.999Z</time>
      </trkpt>
      <trkpt lat="47.45459" lon="6.73448">
        <ele>488.2</ele>
        <time>2017-05-14T07:55:56.999Z</time>
      </trkpt>
      <trkpt lat="47.45459" lon="6.73445">
        <ele>488.4</ele>
        <time>2017-05-14T07:55:57.999Z</time>
      </trkpt>
      <trkpt lat="47.45459" lon="6.7344">
        <ele>488.8</ele>
        <time>2017-05-14T07:55:59.999Z</time>
      </trkpt>
      <trkpt lat="47.45459" lon="6.73437">
        <ele>489</ele>
        <time>2017-05-14T07:56:00.999Z</time>
      </trkpt>
      <trkpt lat="47.45459" lon="6.73432">
        <ele>489.2</ele>
        <time>2017-05-14T07:56:02.999Z</time>
      </trkpt>
      <trkpt lat="47.45458" lon="6.73428">
        <ele>489.2</ele>
        <time>2017-05-14T07:56:03.999Z</time>
      </trkpt>
      <trkpt lat="47.45458" lon="6.73424">
        <ele>489.3</ele>
        <time>2017-05-14T07:56:04.999Z</time>
      </trkpt>
      <trkpt lat="47.45459" lon="6.7342">
        <ele>489.3</ele>
        <time>2017-05-14T07:56:05.999Z</time>
      </trkpt>
      <trkpt lat="47.4546" lon="6.73415">
        <ele>489.3</ele>
        <time>2017-05-14T07:56:06.999Z</time>
      </trkpt>
      <trkpt lat="47.45461" lon="6.73411">
        <ele>489.3</ele>
        <time>2017-05-14T07:56:07.999Z</time>
      </trkpt>
      <trkpt lat="47.45461" lon="6.73406">
        <ele>489.2</ele>
        <time>2017-05-14T07:56:09.999Z</time>
      </trkpt>
      <trkpt lat="47.45462" lon="6.73401">
        <ele>489.2</ele>
        <time>2017-05-14T07:56:10.999Z</time>
      </trkpt>
      <trkpt lat="47.45464" lon="6.73398">
        <ele>489.3</ele>
        <time>2017-05-14T07:56:11.999Z</time>
      </trkpt>
      <trkpt lat="47.45466" lon="6.73396">
        <ele>489.3</ele>
        <time>2017-05-14T07:56:12.999Z</time>
      </trkpt>
      <trkpt lat="47.45467" lon="6.73394">
        <ele>489.3</ele>
        <time>2017-05-14T07:56:13.999Z</time>
      </trkpt>
      <trkpt lat="47.45469" lon="6.73391">
        <ele>489.3</ele>
        <time>2017-05-14T07:56:14.999Z</time>
      </trkpt>
      <trkpt lat="47.45469" lon="6.73387">
        <ele>489.3</ele>
        <time>2017-05-14T07:56:15.999Z</time>
      </trkpt>
      <trkpt lat="47.45469" lon="6.73384">
        <ele>489.3</ele>
        <time>2017-05-14T07:56:16.999Z</time>
      </trkpt>
      <trkpt lat="47.45467" lon="6.7338">
        <ele>489.3</ele>
        <time>2017-05-14T07:56:17.999Z</time>
      </trkpt>
      <trkpt lat="47.45467" lon="6.73375">
        <ele>489.4</ele>
        <time>2017-05-14T07:56:18.999Z</time>
      </trkpt>
      <trkpt lat="47.45467" lon="6.73373">
        <ele>489.5</ele>
        <time>2017-05-14T07:56:19.999Z</time>
      </trkpt>
      <trkpt lat="47.45467" lon="6.73366">
        <ele>489.4</ele>
        <time>2017-05-14T07:56:20.999Z</time>
      </trkpt>
      <trkpt lat="47.45467" lon="6.73359">
        <ele>489.3</ele>
        <time>2017-05-14T07:56:21.999Z</time>
      </trkpt>
      <trkpt lat="47.45467" lon="6.73357">
        <ele>489.2</ele>
        <time>2017-05-14T07:56:22.999Z</time>
      </trkpt>
      <trkpt lat="47.4547" lon="6.73352">
        <ele>489.1</ele>
        <time>2017-05-14T07:56:23.999Z</time>
      </trkpt>
      <trkpt lat="47.45475" lon="6.73349">
        <ele>489.1</ele>
        <time>2017-05-14T07:56:24.999Z</time>
      </trkpt>
      <trkpt lat="47.45476" lon="6.73347">
        <ele>489.1</ele>
        <time>2017-05-14T07:56:25.999Z</time>
      </trkpt>
      <trkpt lat="47.45479" lon="6.73343">
        <ele>488.9</ele>
        <time>2017-05-14T07:56:26.999Z</time>
      </trkpt>
      <trkpt lat="47.45482" lon="6.73341">
        <ele>488.7</ele>
        <time>2017-05-14T07:56:28.999Z</time>
      </trkpt>
      <trkpt lat="47.45485" lon="6.73339">
        <ele>488.6</ele>
        <time>2017-05-14T07:56:29.999Z</time>
      </trkpt>
      <trkpt lat="47.45487" lon="6.73336">
        <ele>488.4</ele>
        <time>2017-05-14T07:56:31.999Z</time>
      </trkpt>
      <trkpt lat="47.45489" lon="6.73333">
        <ele>488.3</ele>
        <time>2017-05-14T07:56:32.999Z</time>
      </trkpt>
      <trkpt lat="47.45493" lon="6.73329">
        <ele>488.3</ele>
        <time>2017-05-14T07:56:33.999Z</time>
      </trkpt>
      <trkpt lat="47.45499" lon="6.73324">
        <ele>488.3</ele>
        <time>2017-05-14T07:56:34.999Z</time>
      </trkpt>
      <trkpt lat="47.45503" lon="6.7332">
        <ele>488.3</ele>
        <time>2017-05-14T07:56:35.999Z</time>
      </trkpt>
      <trkpt lat="47.45505" lon="6.73314">
        <ele>488.4</ele>
        <time>2017-05-14T07:56:37.999Z</time>
      </trkpt>
      <trkpt lat="47.45509" lon="6.73308">
        <ele>488.3</ele>
        <time>2017-05-14T07:56:38.999Z</time>
      </trkpt>
      <trkpt lat="47.45515" lon="6.73302">
        <ele>488.4</ele>
        <time>2017-05-14T07:56:39.999Z</time>
      </trkpt>
      <trkpt lat="47.45516" lon="6.73299">
        <ele>488.3</ele>
        <time>2017-05-14T07:56:40.999Z</time>
      </trkpt>
      <trkpt lat="47.45519" lon="6.73297">
        <ele>488.2</ele>
        <time>2017-05-14T07:56:41.999Z</time>
      </trkpt>
      <trkpt lat="47.45522" lon="6.73298">
        <ele>488.2</ele>
        <time>2017-05-14T07:56:45.999Z</time>
      </trkpt>
      <trkpt lat="47.45524" lon="6.73298">
        <ele>488.2</ele>
        <time>2017-05-14T07:56:46.999Z</time>
      </trkpt>
      <trkpt lat="47.45526" lon="6.73298">
        <ele>488.2</ele>
        <time>2017-05-14T07:56:47.999Z</time>
      </trkpt>
      <trkpt lat="47.4553" lon="6.73296">
        <ele>488.3</ele>
        <time>2017-05-14T07:56:48.999Z</time>
      </trkpt>
      <trkpt lat="47.45534" lon="6.73295">
        <ele>488.4</ele>
        <time>2017-05-14T07:56:49.999Z</time>
      </trkpt>
      <trkpt lat="47.45538" lon="6.73294">
        <ele>488.5</ele>
        <time>2017-05-14T07:56:53.999Z</time>
      </trkpt>
      <trkpt lat="47.4554" lon="6.73293">
        <ele>488.6</ele>
        <time>2017-05-14T07:56:54.999Z</time>
      </trkpt>
      <trkpt lat="47.45542" lon="6.7329">
        <ele>488.7</ele>
        <time>2017-05-14T07:56:55.999Z</time>
      </trkpt>
      <trkpt lat="47.45547" lon="6.73287">
        <ele>488.8</ele>
        <time>2017-05-14T07:56:56.999Z</time>
      </trkpt>
      <trkpt lat="47.45552" lon="6.73284">
        <ele>488.9</ele>
        <time>2017-05-14T07:56:57.999Z</time>
      </trkpt>
      <trkpt lat="47.45554" lon="6.73282">
        <ele>489</ele>
        <time>2017-05-14T07:56:58.999Z</time>
      </trkpt>
      <trkpt lat="47.45557" lon="6.73276">
        <ele>489.1</ele>
        <time>2017-05-14T07:56:59.999Z</time>
      </trkpt>
      <trkpt lat="47.45559" lon="6.73272">
        <ele>489.2</ele>
        <time>2017-05-14T07:57:00.999Z</time>
      </trkpt>
      <trkpt lat="47.45563" lon="6.73268">
        <ele>489.4</ele>
        <time>2017-05-14T07:57:01.999Z</time>
      </trkpt>
      <trkpt lat="47.45565" lon="6.73266">
        <ele>489.6</ele>
        <time>2017-05-14T07:57:02.999Z</time>
      </trkpt>
      <trkpt lat="47.45567" lon="6.73263">
        <ele>489.8</ele>
        <time>2017-05-14T07:57:03.999Z</time>
      </trkpt>
      <trkpt lat="47.45569" lon="6.73258">
        <ele>490.1</ele>
        <time>2017-05-14T07:57:05.999Z</time>
      </trkpt>
      <trkpt lat="47.4557" lon="6.73256">
        <ele>490.2</ele>
        <time>2017-05-14T07:57:06.999Z</time>
      </trkpt>
      <trkpt lat="47.45572" lon="6.73252">
        <ele>490.5</ele>
        <time>2017-05-14T07:57:08.999Z</time>
      </trkpt>
      <trkpt lat="47.45573" lon="6.73249">
        <ele>490.6</ele>
        <time>2017-05-14T07:57:09.999Z</time>
      </trkpt>
      <trkpt lat="47.45575" lon="6.73246">
        <ele>490.7</ele>
        <time>2017-05-14T07:57:10.999Z</time>
      </trkpt>
      <trkpt lat="47.45577" lon="6.73243">
        <ele>490.8</ele>
        <time>2017-05-14T07:57:11.999Z</time>
      </trkpt>
      <trkpt lat="47.45579" lon="6.7324">
        <ele>491.1</ele>
        <time>2017-05-14T07:57:12.999Z</time>
      </trkpt>
      <trkpt lat="47.45581" lon="6.73236">
        <ele>491.3</ele>
        <time>2017-05-14T07:57:13.999Z</time>
      </trkpt>
      <trkpt lat="47.45583" lon="6.73232">
        <ele>491.6</ele>
        <time>2017-05-14T07:57:14.999Z</time>
      </trkpt>
      <trkpt lat="47.45584" lon="6.73229">
        <ele>491.7</ele>
        <time>2017-05-14T07:57:15.999Z</time>
      </trkpt>
      <trkpt lat="47.45583" lon="6.73226">
        <ele>492</ele>
        <time>2017-05-14T07:57:16.999Z</time>
      </trkpt>
      <trkpt lat="47.45583" lon="6.73222">
        <ele>492.2</ele>
        <time>2017-05-14T07:57:17.999Z</time>
      </trkpt>
      <trkpt lat="47.45583" lon="6.73217">
        <ele>492.5</ele>
        <time>2017-05-14T07:57:19.999Z</time>
      </trkpt>
      <trkpt lat="47.45584" lon="6.73215">
        <ele>492.6</ele>
        <time>2017-05-14T07:57:20.999Z</time>
      </trkpt>
      <trkpt lat="47.45586" lon="6.73212">
        <ele>492.7</ele>
        <time>2017-05-14T07:57:21.999Z</time>
      </trkpt>
      <trkpt lat="47.45586" lon="6.73208">
        <ele>492.7</ele>
        <time>2017-05-14T07:57:22.999Z</time>
      </trkpt>
      <trkpt lat="47.45587" lon="6.73205">
        <ele>492.6</ele>
        <time>2017-05-14T07:57:23.999Z</time>
      </trkpt>
      <trkpt lat="47.45588" lon="6.73201">
        <ele>492.5</ele>
        <time>2017-05-14T07:57:24.999Z</time>
      </trkpt>
      <trkpt lat="47.45588" lon="6.73198">
        <ele>492.3</ele>
        <time>2017-05-14T07:57:25.999Z</time>
      </trkpt>
      <trkpt lat="47.45589" lon="6.73193">
        <ele>492.1</ele>
        <time>2017-05-14T07:57:26.999Z</time>
      </trkpt>
      <trkpt lat="47.4559" lon="6.73189">
        <ele>492.1</ele>
        <time>2017-05-14T07:57:27.999Z</time>
      </trkpt>
      <trkpt lat="47.45591" lon="6.73183">
        <ele>492.1</ele>
        <time>2017-05-14T07:57:28.999Z</time>
      </trkpt>
      <trkpt lat="47.45592" lon="6.73177">
        <ele>492.1</ele>
        <time>2017-05-14T07:57:29.999Z</time>
      </trkpt>
      <trkpt lat="47.45593" lon="6.73168">
        <ele>492.2</ele>
        <time>2017-05-14T07:57:30.999Z</time>
      </trkpt>
      <trkpt lat="47.45593" lon="6.73162">
        <ele>492.3</ele>
        <time>2017-05-14T07:57:31.999Z</time>
      </trkpt>
      <trkpt lat="47.45592" lon="6.73157">
        <ele>492.3</ele>
        <time>2017-05-14T07:57:32.999Z</time>
      </trkpt>
      <trkpt lat="47.45591" lon="6.73152">
        <ele>492.3</ele>
        <time>2017-05-14T07:57:33.999Z</time>
      </trkpt>
      <trkpt lat="47.45591" lon="6.73147">
        <ele>492.4</ele>
        <time>2017-05-14T07:57:34.999Z</time>
      </trkpt>
      <trkpt lat="47.45591" lon="6.73142">
        <ele>492.6</ele>
        <time>2017-05-14T07:57:35.999Z</time>
      </trkpt>
      <trkpt lat="47.45591" lon="6.73138">
        <ele>492.7</ele>
        <time>2017-05-14T07:57:36.999Z</time>
      </trkpt>
      <trkpt lat="47.45592" lon="6.73134">
        <ele>492.8</ele>
        <time>2017-05-14T07:57:37.999Z</time>
      </trkpt>
      <trkpt lat="47.45593" lon="6.73132">
        <ele>492.9</ele>
        <time>2017-05-14T07:57:38.999Z</time>
      </trkpt>
      <trkpt lat="47.45593" lon="6.73128">
        <ele>493</ele>
        <time>2017-05-14T07:57:39.999Z</time>
      </trkpt>
      <trkpt lat="47.45592" lon="6.73124">
        <ele>493.1</ele>
        <time>2017-05-14T07:57:40.999Z</time>
      </trkpt>
      <trkpt lat="47.45591" lon="6.73119">
        <ele>493.3</ele>
        <time>2017-05-14T07:57:42.999Z</time>
      </trkpt>
      <trkpt lat="47.4559" lon="6.73116">
        <ele>493.4</ele>
        <time>2017-05-14T07:57:43.999Z</time>
      </trkpt>
      <trkpt lat="47.45589" lon="6.73111">
        <ele>493.6</ele>
        <time>2017-05-14T07:57:45.999Z</time>
      </trkpt>
      <trkpt lat="47.45589" lon="6.73107">
        <ele>493.6</ele>
        <time>2017-05-14T07:57:46.999Z</time>
      </trkpt>
      <trkpt lat="47.45589" lon="6.73103">
        <ele>493.7</ele>
        <time>2017-05-14T07:57:47.999Z</time>
      </trkpt>
      <trkpt lat="47.45589" lon="6.731">
        <ele>493.7</ele>
        <time>2017-05-14T07:57:48.999Z</time>
      </trkpt>
      <trkpt lat="47.45589" lon="6.73096">
        <ele>493.7</ele>
        <time>2017-05-14T07:57:49.999Z</time>
      </trkpt>
      <trkpt lat="47.45589" lon="6.73092">
        <ele>493.6</ele>
        <time>2017-05-14T07:57:50.999Z</time>
      </trkpt>
      <trkpt lat="47.4559" lon="6.73088">
        <ele>493.5</ele>
        <time>2017-05-14T07:57:51.999Z</time>
      </trkpt>
      <trkpt lat="47.4559" lon="6.73085">
        <ele>493.5</ele>
        <time>2017-05-14T07:57:52.999Z</time>
      </trkpt>
      <trkpt lat="47.4559" lon="6.73082">
        <ele>493.5</ele>
        <time>2017-05-14T07:57:53.999Z</time>
      </trkpt>
      <trkpt lat="47.45589" lon="6.73077">
        <ele>493.5</ele>
        <time>2017-05-14T07:57:54.999Z</time>
      </trkpt>
      <trkpt lat="47.45588" lon="6.73073">
        <ele>493.5</ele>
        <time>2017-05-14T07:57:55.999Z</time>
      </trkpt>
      <trkpt lat="47.45586" lon="6.73069">
        <ele>493.5</ele>
        <time>2017-05-14T07:57:56.999Z</time>
      </trkpt>
      <trkpt lat="47.45585" lon="6.73066">
        <ele>493.5</ele>
        <time>2017-05-14T07:57:57.999Z</time>
      </trkpt>
      <trkpt lat="47.45583" lon="6.73062">
        <ele>493.6</ele>
        <time>2017-05-14T07:57:58.999Z</time>
      </trkpt>
      <trkpt lat="47.45582" lon="6.73058">
        <ele>493.7</ele>
        <time>2017-05-14T07:57:59.999Z</time>
      </trkpt>
      <trkpt lat="47.45582" lon="6.73055">
        <ele>493.8</ele>
        <time>2017-05-14T07:58:00.999Z</time>
      </trkpt>
      <trkpt lat="47.45581" lon="6.73051">
        <ele>493.9</ele>
        <time>2017-05-14T07:58:01.999Z</time>
      </trkpt>
      <trkpt lat="47.45579" lon="6.73043">
        <ele>494</ele>
        <time>2017-05-14T07:58:02.999Z</time>
      </trkpt>
      <trkpt lat="47.45578" lon="6.73039">
        <ele>494.1</ele>
        <time>2017-05-14T07:58:03.999Z</time>
      </trkpt>
      <trkpt lat="47.45577" lon="6.73035">
        <ele>494.2</ele>
        <time>2017-05-14T07:58:04.999Z</time>
      </trkpt>
      <trkpt lat="47.45575" lon="6.73029">
        <ele>494.7</ele>
        <time>2017-05-14T07:58:06.999Z</time>
      </trkpt>
      <trkpt lat="47.45574" lon="6.73027">
        <ele>495</ele>
        <time>2017-05-14T07:58:07.999Z</time>
      </trkpt>
      <trkpt lat="47.45572" lon="6.73024">
        <ele>495.4</ele>
        <time>2017-05-14T07:58:08.999Z</time>
      </trkpt>
      <trkpt lat="47.4557" lon="6.7302">
        <ele>495.7</ele>
        <time>2017-05-14T07:58:09.999Z</time>
      </trkpt>
      <trkpt lat="47.45568" lon="6.73016">
        <ele>496.1</ele>
        <time>2017-05-14T07:58:10.999Z</time>
      </trkpt>
      <trkpt lat="47.45565" lon="6.73013">
        <ele>496.4</ele>
        <time>2017-05-14T07:58:11.999Z</time>
      </trkpt>
      <trkpt lat="47.45561" lon="6.73009">
        <ele>496.8</ele>
        <time>2017-05-14T07:58:12.999Z</time>
      </trkpt>
      <trkpt lat="47.45558" lon="6.73006">
        <ele>497.4</ele>
        <time>2017-05-14T07:58:15.999Z</time>
      </trkpt>
      <trkpt lat="47.45553" lon="6.73003">
        <ele>497.6</ele>
        <time>2017-05-14T07:58:16.999Z</time>
      </trkpt>
      <trkpt lat="47.45549" lon="6.73001">
        <ele>497.9</ele>
        <time>2017-05-14T07:58:17.999Z</time>
      </trkpt>
      <trkpt lat="47.45546" lon="6.72999">
        <ele>498</ele>
        <time>2017-05-14T07:58:18.999Z</time>
      </trkpt>
      <trkpt lat="47.45544" lon="6.72997">
        <ele>498.2</ele>
        <time>2017-05-14T07:58:19.999Z</time>
      </trkpt>
      <trkpt lat="47.45541" lon="6.72994">
        <ele>498.7</ele>
        <time>2017-05-14T07:58:21.999Z</time>
      </trkpt>
      <trkpt lat="47.4554" lon="6.72992">
        <ele>498.9</ele>
        <time>2017-05-14T07:58:22.999Z</time>
      </trkpt>
      <trkpt lat="47.45538" lon="6.72988">
        <ele>499.3</ele>
        <time>2017-05-14T07:58:24.999Z</time>
      </trkpt>
      <trkpt lat="47.45537" lon="6.72985">
        <ele>499.5</ele>
        <time>2017-05-14T07:58:25.999Z</time>
      </trkpt>
      <trkpt lat="47.45535" lon="6.72982">
        <ele>499.8</ele>
        <time>2017-05-14T07:58:27.999Z</time>
      </trkpt>
      <trkpt lat="47.45534" lon="6.72979">
        <ele>499.8</ele>
        <time>2017-05-14T07:58:28.999Z</time>
      </trkpt>
      <trkpt lat="47.45532" lon="6.72975">
        <ele>499.8</ele>
        <time>2017-05-14T07:58:29.999Z</time>
      </trkpt>
      <trkpt lat="47.45531" lon="6.72972">
        <ele>499.8</ele>
        <time>2017-05-14T07:58:30.999Z</time>
      </trkpt>
      <trkpt lat="47.45529" lon="6.72967">
        <ele>499.5</ele>
        <time>2017-05-14T07:58:32.999Z</time>
      </trkpt>
      <trkpt lat="47.45528" lon="6.72965">
        <ele>499.3</ele>
        <time>2017-05-14T07:58:33.999Z</time>
      </trkpt>
      <trkpt lat="47.45527" lon="6.72961">
        <ele>499</ele>
        <time>2017-05-14T07:58:35.999Z</time>
      </trkpt>
      <trkpt lat="47.45526" lon="6.72958">
        <ele>498.8</ele>
        <time>2017-05-14T07:58:36.999Z</time>
      </trkpt>
      <trkpt lat="47.45525" lon="6.72955">
        <ele>498.7</ele>
        <time>2017-05-14T07:58:37.999Z</time>
      </trkpt>
      <trkpt lat="47.45524" lon="6.72951">
        <ele>498.5</ele>
        <time>2017-05-14T07:58:38.999Z</time>
      </trkpt>
      <trkpt lat="47.45523" lon="6.72948">
        <ele>498.3</ele>
        <time>2017-05-14T07:58:39.999Z</time>
      </trkpt>
      <trkpt lat="47.45521" lon="6.72944">
        <ele>498</ele>
        <time>2017-05-14T07:58:40.999Z</time>
      </trkpt>
      <trkpt lat="47.45519" lon="6.72941">
        <ele>497.8</ele>
        <time>2017-05-14T07:58:41.999Z</time>
      </trkpt>
      <trkpt lat="47.45517" lon="6.72938">
        <ele>497.6</ele>
        <time>2017-05-14T07:58:42.999Z</time>
      </trkpt>
      <trkpt lat="47.45515" lon="6.72934">
        <ele>497.5</ele>
        <time>2017-05-14T07:58:43.999Z</time>
      </trkpt>
      <trkpt lat="47.45512" lon="6.72929">
        <ele>497.4</ele>
        <time>2017-05-14T07:58:44.999Z</time>
      </trkpt>
      <trkpt lat="47.4551" lon="6.72927">
        <ele>497.2</ele>
        <time>2017-05-14T07:58:45.999Z</time>
      </trkpt>
      <trkpt lat="47.45508" lon="6.72925">
        <ele>497.1</ele>
        <time>2017-05-14T07:58:46.999Z</time>
      </trkpt>
      <trkpt lat="47.45505" lon="6.7292">
        <ele>496.7</ele>
        <time>2017-05-14T07:58:48.999Z</time>
      </trkpt>
      <trkpt lat="47.45503" lon="6.72918">
        <ele>496.4</ele>
        <time>2017-05-14T07:58:49.999Z</time>
      </trkpt>
      <trkpt lat="47.45498" lon="6.72915">
        <ele>496.2</ele>
        <time>2017-05-14T07:58:50.999Z</time>
      </trkpt>
      <trkpt lat="47.45495" lon="6.7291">
        <ele>495.9</ele>
        <time>2017-05-14T07:58:51.999Z</time>
      </trkpt>
      <trkpt lat="47.45493" lon="6.72907">
        <ele>495.7</ele>
        <time>2017-05-14T07:58:52.999Z</time>
      </trkpt>
      <trkpt lat="47.4549" lon="6.72902">
        <ele>495.6</ele>
        <time>2017-05-14T07:58:53.999Z</time>
      </trkpt>
      <trkpt lat="47.45488" lon="6.72896">
        <ele>495.5</ele>
        <time>2017-05-14T07:58:54.999Z</time>
      </trkpt>
      <trkpt lat="47.45486" lon="6.72891">
        <ele>495.5</ele>
        <time>2017-05-14T07:58:55.999Z</time>
      </trkpt>
      <trkpt lat="47.45483" lon="6.7288">
        <ele>495.5</ele>
        <time>2017-05-14T07:58:56.999Z</time>
      </trkpt>
      <trkpt lat="47.45482" lon="6.72874">
        <ele>495.4</ele>
        <time>2017-05-14T07:58:57.999Z</time>
      </trkpt>
      <trkpt lat="47.4548" lon="6.72869">
        <ele>495.4</ele>
        <time>2017-05-14T07:58:58.999Z</time>
      </trkpt>
      <trkpt lat="47.45478" lon="6.72865">
        <ele>495.5</ele>
        <time>2017-05-14T07:58:59.999Z</time>
      </trkpt>
      <trkpt lat="47.45478" lon="6.7286">
        <ele>495.5</ele>
        <time>2017-05-14T07:59:00.999Z</time>
      </trkpt>
      <trkpt lat="47.45476" lon="6.72855">
        <ele>495.6</ele>
        <time>2017-05-14T07:59:01.999Z</time>
      </trkpt>
      <trkpt lat="47.45475" lon="6.7285">
        <ele>495.8</ele>
        <time>2017-05-14T07:59:02.999Z</time>
      </trkpt>
      <trkpt lat="47.45474" lon="6.72844">
        <ele>496</ele>
        <time>2017-05-14T07:59:03.999Z</time>
      </trkpt>
      <trkpt lat="47.45472" lon="6.72838">
        <ele>496.2</ele>
        <time>2017-05-14T07:59:04.999Z</time>
      </trkpt>
      <trkpt lat="47.45469" lon="6.72833">
        <ele>496.4</ele>
        <time>2017-05-14T07:59:05.999Z</time>
      </trkpt>
      <trkpt lat="47.45467" lon="6.72828">
        <ele>496.5</ele>
        <time>2017-05-14T07:59:06.999Z</time>
      </trkpt>
      <trkpt lat="47.45465" lon="6.72823">
        <ele>496.7</ele>
        <time>2017-05-14T07:59:07.999Z</time>
      </trkpt>
      <trkpt lat="47.45464" lon="6.72818">
        <ele>496.9</ele>
        <time>2017-05-14T07:59:08.999Z</time>
      </trkpt>
      <trkpt lat="47.45462" lon="6.72814">
        <ele>497.1</ele>
        <time>2017-05-14T07:59:09.999Z</time>
      </trkpt>
      <trkpt lat="47.45461" lon="6.72808">
        <ele>497.3</ele>
        <time>2017-05-14T07:59:10.999Z</time>
      </trkpt>
      <trkpt lat="47.4546" lon="6.72803">
        <ele>497.5</ele>
        <time>2017-05-14T07:59:11.999Z</time>
      </trkpt>
      <trkpt lat="47.45459" lon="6.72799">
        <ele>497.7</ele>
        <time>2017-05-14T07:59:12.999Z</time>
      </trkpt>
      <trkpt lat="47.45457" lon="6.72795">
        <ele>498</ele>
        <time>2017-05-14T07:59:13.999Z</time>
      </trkpt>
      <trkpt lat="47.45455" lon="6.72791">
        <ele>498.2</ele>
        <time>2017-05-14T07:59:14.999Z</time>
      </trkpt>
      <trkpt lat="47.45454" lon="6.72787">
        <ele>498.4</ele>
        <time>2017-05-14T07:59:15.999Z</time>
      </trkpt>
      <trkpt lat="47.45452" lon="6.72784">
        <ele>498.5</ele>
        <time>2017-05-14T07:59:16.999Z</time>
      </trkpt>
      <trkpt lat="47.4545" lon="6.72781">
        <ele>498.5</ele>
        <time>2017-05-14T07:59:17.999Z</time>
      </trkpt>
      <trkpt lat="47.45448" lon="6.72779">
        <ele>498.5</ele>
        <time>2017-05-14T07:59:18.999Z</time>
      </trkpt>
      <trkpt lat="47.45448" lon="6.72773">
        <ele>504.9</ele>
        <time>2017-05-14T08:01:08.999Z</time>
      </trkpt>
      <trkpt lat="47.45448" lon="6.72772">
        <ele>504.9</ele>
        <time>2017-05-14T08:01:09.999Z</time>
      </trkpt>
      <trkpt lat="47.45448" lon="6.72766">
        <ele>503.7</ele>
        <time>2017-05-14T08:02:28.999Z</time>
      </trkpt>
      <trkpt lat="47.45447" lon="6.72764">
        <ele>503.6</ele>
        <time>2017-05-14T08:02:29.999Z</time>
      </trkpt>
      <trkpt lat="47.45448" lon="6.7276">
        <ele>503.4</ele>
        <time>2017-05-14T08:02:31.999Z</time>
      </trkpt>
      <trkpt lat="47.45448" lon="6.72757">
        <ele>503.4</ele>
        <time>2017-05-14T08:02:32.999Z</time>
      </trkpt>
      <trkpt lat="47.45448" lon="6.72753">
        <ele>503.4</ele>
        <time>2017-05-14T08:02:33.999Z</time>
      </trkpt>
      <trkpt lat="47.45448" lon="6.7275">
        <ele>503.3</ele>
        <time>2017-05-14T08:02:34.999Z</time>
      </trkpt>
      <trkpt lat="47.45447" lon="6.72746">
        <ele>503.3</ele>
        <time>2017-05-14T08:02:35.999Z</time>
      </trkpt>
      <trkpt lat="47.45445" lon="6.72741">
        <ele>503.2</ele>
        <time>2017-05-14T08:02:36.999Z</time>
      </trkpt>
      <trkpt lat="47.45443" lon="6.72738">
        <ele>503.2</ele>
        <time>2017-05-14T08:02:37.999Z</time>
      </trkpt>
      <trkpt lat="47.45441" lon="6.72736">
        <ele>503</ele>
        <time>2017-05-14T08:02:38.999Z</time>
      </trkpt>
      <trkpt lat="47.45438" lon="6.72734">
        <ele>502.9</ele>
        <time>2017-05-14T08:02:39.999Z</time>
      </trkpt>
      <trkpt lat="47.45436" lon="6.72732">
        <ele>502.9</ele>
        <time>2017-05-14T08:02:40.999Z</time>
      </trkpt>
      <trkpt lat="47.45434" lon="6.7273">
        <ele>502.9</ele>
        <time>2017-05-14T08:02:41.999Z</time>
      </trkpt>
      <trkpt lat="47.45431" lon="6.72728">
        <ele>502.9</ele>
        <time>2017-05-14T08:02:42.999Z</time>
      </trkpt>
      <trkpt lat="47.45429" lon="6.72726">
        <ele>502.9</ele>
        <time>2017-05-14T08:02:43.999Z</time>
      </trkpt>
      <trkpt lat="47.45427" lon="6.72724">
        <ele>502.9</ele>
        <time>2017-05-14T08:02:44.999Z</time>
      </trkpt>
      <trkpt lat="47.45424" lon="6.72722">
        <ele>502.9</ele>
        <time>2017-05-14T08:02:46.999Z</time>
      </trkpt>
      <trkpt lat="47.45421" lon="6.72721">
        <ele>502.9</ele>
        <time>2017-05-14T08:02:47.999Z</time>
      </trkpt>
      <trkpt lat="47.45419" lon="6.7272">
        <ele>503</ele>
        <time>2017-05-14T08:02:48.999Z</time>
      </trkpt>
      <trkpt lat="47.45416" lon="6.72719">
        <ele>503</ele>
        <time>2017-05-14T08:02:49.999Z</time>
      </trkpt>
      <trkpt lat="47.45413" lon="6.72718">
        <ele>503.1</ele>
        <time>2017-05-14T08:02:50.999Z</time>
      </trkpt>
      <trkpt lat="47.45411" lon="6.72716">
        <ele>503.1</ele>
        <time>2017-05-14T08:02:51.999Z</time>
      </trkpt>
      <trkpt lat="47.45408" lon="6.72714">
        <ele>503.1</ele>
        <time>2017-05-14T08:02:52.999Z</time>
      </trkpt>
      <trkpt lat="47.45405" lon="6.72712">
        <ele>503.1</ele>
        <time>2017-05-14T08:02:53.999Z</time>
      </trkpt>
      <trkpt lat="47.45402" lon="6.72711">
        <ele>503.1</ele>
        <time>2017-05-14T08:02:54.999Z</time>
      </trkpt>
      <trkpt lat="47.45399" lon="6.72709">
        <ele>503.1</ele>
        <time>2017-05-14T08:02:55.999Z</time>
      </trkpt>
      <trkpt lat="47.45397" lon="6.72707">
        <ele>503</ele>
        <time>2017-05-14T08:02:56.999Z</time>
      </trkpt>
      <trkpt lat="47.45394" lon="6.72704">
        <ele>503</ele>
        <time>2017-05-14T08:02:57.999Z</time>
      </trkpt>
      <trkpt lat="47.45392" lon="6.72701">
        <ele>502.9</ele>
        <time>2017-05-14T08:02:58.999Z</time>
      </trkpt>
      <trkpt lat="47.45389" lon="6.72698">
        <ele>502.9</ele>
        <time>2017-05-14T08:02:59.999Z</time>
      </trkpt>
      <trkpt lat="47.45386" lon="6.72696">
        <ele>502.8</ele>
        <time>2017-05-14T08:03:00.999Z</time>
      </trkpt>
      <trkpt lat="47.45383" lon="6.72693">
        <ele>502.7</ele>
        <time>2017-05-14T08:03:01.999Z</time>
      </trkpt>
      <trkpt lat="47.4538" lon="6.72689">
        <ele>502.4</ele>
        <time>2017-05-14T08:03:02.999Z</time>
      </trkpt>
      <trkpt lat="47.45377" lon="6.72685">
        <ele>502.3</ele>
        <time>2017-05-14T08:03:03.999Z</time>
      </trkpt>
      <trkpt lat="47.45373" lon="6.72681">
        <ele>502.5</ele>
        <time>2017-05-14T08:03:04.999Z</time>
      </trkpt>
      <trkpt lat="47.4537" lon="6.72678">
        <ele>502.5</ele>
        <time>2017-05-14T08:03:05.999Z</time>
      </trkpt>
      <trkpt lat="47.45366" lon="6.72674">
        <ele>502.4</ele>
        <time>2017-05-14T08:03:06.999Z</time>
      </trkpt>
      <trkpt lat="47.45363" lon="6.7267">
        <ele>502</ele>
        <time>2017-05-14T08:03:07.999Z</time>
      </trkpt>
      <trkpt lat="47.45359" lon="6.72666">
        <ele>501.3</ele>
        <time>2017-05-14T08:03:08.999Z</time>
      </trkpt>
      <trkpt lat="47.45356" lon="6.72662">
        <ele>501</ele>
        <time>2017-05-14T08:03:09.999Z</time>
      </trkpt>
      <trkpt lat="47.45352" lon="6.72657">
        <ele>500.4</ele>
        <time>2017-05-14T08:03:10.999Z</time>
      </trkpt>
      <trkpt lat="47.45349" lon="6.72653">
        <ele>500.3</ele>
        <time>2017-05-14T08:03:11.999Z</time>
      </trkpt>
      <trkpt lat="47.45345" lon="6.72649">
        <ele>500.3</ele>
        <time>2017-05-14T08:03:12.999Z</time>
      </trkpt>
      <trkpt lat="47.45342" lon="6.72645">
        <ele>500.2</ele>
        <time>2017-05-14T08:03:13.999Z</time>
      </trkpt>
      <trkpt lat="47.45338" lon="6.72641">
        <ele>499.8</ele>
        <time>2017-05-14T08:03:14.999Z</time>
      </trkpt>
      <trkpt lat="47.45335" lon="6.72637">
        <ele>499</ele>
        <time>2017-05-14T08:03:15.999Z</time>
      </trkpt>
      <trkpt lat="47.45332" lon="6.72633">
        <ele>497.9</ele>
        <time>2017-05-14T08:03:16.999Z</time>
      </trkpt>
      <trkpt lat="47.45328" lon="6.7263">
        <ele>497.8</ele>
        <time>2017-05-14T08:03:17.999Z</time>
      </trkpt>
      <trkpt lat="47.45324" lon="6.72626">
        <ele>497.8</ele>
        <time>2017-05-14T08:03:18.999Z</time>
      </trkpt>
      <trkpt lat="47.4532" lon="6.72621">
        <ele>497.3</ele>
        <time>2017-05-14T08:03:19.999Z</time>
      </trkpt>
      <trkpt lat="47.45316" lon="6.72618">
        <ele>497.4</ele>
        <time>2017-05-14T08:03:20.999Z</time>
      </trkpt>
      <trkpt lat="47.45313" lon="6.72614">
        <ele>497.8</ele>
        <time>2017-05-14T08:03:21.999Z</time>
      </trkpt>
      <trkpt lat="47.45309" lon="6.72611">
        <ele>498.4</ele>
        <time>2017-05-14T08:03:22.999Z</time>
      </trkpt>
      <trkpt lat="47.45304" lon="6.72608">
        <ele>499.2</ele>
        <time>2017-05-14T08:03:23.999Z</time>
      </trkpt>
      <trkpt lat="47.453" lon="6.72605">
        <ele>499.4</ele>
        <time>2017-05-14T08:03:24.999Z</time>
      </trkpt>
      <trkpt lat="47.45296" lon="6.72602">
        <ele>499.6</ele>
        <time>2017-05-14T08:03:25.999Z</time>
      </trkpt>
      <trkpt lat="47.45291" lon="6.72599">
        <ele>499.8</ele>
        <time>2017-05-14T08:03:26.999Z</time>
      </trkpt>
      <trkpt lat="47.45286" lon="6.72596">
        <ele>500.9</ele>
        <time>2017-05-14T08:03:27.999Z</time>
      </trkpt>
      <trkpt lat="47.45282" lon="6.72593">
        <ele>501.7</ele>
        <time>2017-05-14T08:03:28.999Z</time>
      </trkpt>
      <trkpt lat="47.45277" lon="6.7259">
        <ele>501.8</ele>
        <time>2017-05-14T08:03:29.999Z</time>
      </trkpt>
      <trkpt lat="47.45273" lon="6.72587">
        <ele>501.5</ele>
        <time>2017-05-14T08:03:30.999Z</time>
      </trkpt>
      <trkpt lat="47.45269" lon="6.72584">
        <ele>501.1</ele>
        <time>2017-05-14T08:03:31.999Z</time>
      </trkpt>
      <trkpt lat="47.45265" lon="6.7258">
        <ele>500.5</ele>
        <time>2017-05-14T08:03:32.999Z</time>
      </trkpt>
      <trkpt lat="47.45261" lon="6.72577">
        <ele>500.4</ele>
        <time>2017-05-14T08:03:33.999Z</time>
      </trkpt>
      <trkpt lat="47.45256" lon="6.72574">
        <ele>499.6</ele>
        <time>2017-05-14T08:03:34.999Z</time>
      </trkpt>
      <trkpt lat="47.45252" lon="6.72571">
        <ele>498.6</ele>
        <time>2017-05-14T08:03:35.999Z</time>
      </trkpt>
      <trkpt lat="47.45249" lon="6.72568">
        <ele>498</ele>
        <time>2017-05-14T08:03:36.999Z</time>
      </trkpt>
      <trkpt lat="47.45244" lon="6.72565">
        <ele>496.9</ele>
        <time>2017-05-14T08:03:37.999Z</time>
      </trkpt>
      <trkpt lat="47.45239" lon="6.72561">
        <ele>495.9</ele>
        <time>2017-05-14T08:03:38.999Z</time>
      </trkpt>
      <trkpt lat="47.45234" lon="6.72557">
        <ele>495</ele>
        <time>2017-05-14T08:03:39.999Z</time>
      </trkpt>
      <trkpt lat="47.45229" lon="6.72553">
        <ele>494.8</ele>
        <time>2017-05-14T08:03:40.999Z</time>
      </trkpt>
      <trkpt lat="47.45224" lon="6.7255">
        <ele>495.1</ele>
        <time>2017-05-14T08:03:41.999Z</time>
      </trkpt>
      <trkpt lat="47.45219" lon="6.72546">
        <ele>494.8</ele>
        <time>2017-05-14T08:03:42.999Z</time>
      </trkpt>
      <trkpt lat="47.45214" lon="6.72542">
        <ele>495.2</ele>
        <time>2017-05-14T08:03:43.999Z</time>
      </trkpt>
      <trkpt lat="47.45208" lon="6.72538">
        <ele>495.4</ele>
        <time>2017-05-14T08:03:44.999Z</time>
      </trkpt>
      <trkpt lat="47.45202" lon="6.72534">
        <ele>495.3</ele>
        <time>2017-05-14T08:03:45.999Z</time>
      </trkpt>
      <trkpt lat="47.45197" lon="6.72531">
        <ele>495.1</ele>
        <time>2017-05-14T08:03:46.999Z</time>
      </trkpt>
      <trkpt lat="47.45191" lon="6.72527">
        <ele>494.8</ele>
        <time>2017-05-14T08:03:47.999Z</time>
      </trkpt>
      <trkpt lat="47.45185" lon="6.72523">
        <ele>494.6</ele>
        <time>2017-05-14T08:03:48.999Z</time>
      </trkpt>
      <trkpt lat="47.4518" lon="6.72519">
        <ele>494.3</ele>
        <time>2017-05-14T08:03:49.999Z</time>
      </trkpt>
      <trkpt lat="47.45175" lon="6.72515">
        <ele>493.9</ele>
        <time>2017-05-14T08:03:50.999Z</time>
      </trkpt>
      <trkpt lat="47.45169" lon="6.72511">
        <ele>493.5</ele>
        <time>2017-05-14T08:03:51.999Z</time>
      </trkpt>
      <trkpt lat="47.45164" lon="6.72508">
        <ele>493.2</ele>
        <time>2017-05-14T08:03:52.999Z</time>
      </trkpt>
      <trkpt lat="47.4516" lon="6.72504">
        <ele>493</ele>
        <time>2017-05-14T08:03:53.999Z</time>
      </trkpt>
      <trkpt lat="47.45155" lon="6.72501">
        <ele>493.3</ele>
        <time>2017-05-14T08:03:54.999Z</time>
      </trkpt>
      <trkpt lat="47.4515" lon="6.72497">
        <ele>493.1</ele>
        <time>2017-05-14T08:03:55.999Z</time>
      </trkpt>
      <trkpt lat="47.45145" lon="6.72494">
        <ele>493</ele>
        <time>2017-05-14T08:03:56.999Z</time>
      </trkpt>
      <trkpt lat="47.4514" lon="6.7249">
        <ele>492.9</ele>
        <time>2017-05-14T08:03:57.999Z</time>
      </trkpt>
      <trkpt lat="47.45135" lon="6.72487">
        <ele>492.8</ele>
        <time>2017-05-14T08:03:58.999Z</time>
      </trkpt>
      <trkpt lat="47.45131" lon="6.72483">
        <ele>492.6</ele>
        <time>2017-05-14T08:03:59.999Z</time>
      </trkpt>
      <trkpt lat="47.45126" lon="6.7248">
        <ele>492.8</ele>
        <time>2017-05-14T08:04:00.999Z</time>
      </trkpt>
      <trkpt lat="47.45121" lon="6.72477">
        <ele>493.2</ele>
        <time>2017-05-14T08:04:01.999Z</time>
      </trkpt>
      <trkpt lat="47.45117" lon="6.72474">
        <ele>493.7</ele>
        <time>2017-05-14T08:04:02.999Z</time>
      </trkpt>
      <trkpt lat="47.45112" lon="6.72472">
        <ele>494</ele>
        <time>2017-05-14T08:04:03.999Z</time>
      </trkpt>
      <trkpt lat="47.45107" lon="6.72469">
        <ele>494.2</ele>
        <time>2017-05-14T08:04:04.999Z</time>
      </trkpt>
      <trkpt lat="47.45103" lon="6.72466">
        <ele>494.7</ele>
        <time>2017-05-14T08:04:05.999Z</time>
      </trkpt>
      <trkpt lat="47.45098" lon="6.72463">
        <ele>495.1</ele>
        <time>2017-05-14T08:04:06.999Z</time>
      </trkpt>
      <trkpt lat="47.45094" lon="6.72461">
        <ele>495.7</ele>
        <time>2017-05-14T08:04:07.999Z</time>
      </trkpt>
      <trkpt lat="47.4509" lon="6.72457">
        <ele>496</ele>
        <time>2017-05-14T08:04:08.999Z</time>
      </trkpt>
      <trkpt lat="47.45086" lon="6.72454">
        <ele>495.9</ele>
        <time>2017-05-14T08:04:09.999Z</time>
      </trkpt>
      <trkpt lat="47.45082" lon="6.72451">
        <ele>495.7</ele>
        <time>2017-05-14T08:04:10.999Z</time>
      </trkpt>
      <trkpt lat="47.45079" lon="6.72449">
        <ele>495.2</ele>
        <time>2017-05-14T08:04:11.999Z</time>
      </trkpt>
      <trkpt lat="47.45075" lon="6.72446">
        <ele>494.7</ele>
        <time>2017-05-14T08:04:12.999Z</time>
      </trkpt>
      <trkpt lat="47.45071" lon="6.72443">
        <ele>494.5</ele>
        <time>2017-05-14T08:04:13.999Z</time>
      </trkpt>
      <trkpt lat="47.45067" lon="6.7244">
        <ele>493.9</ele>
        <time>2017-05-14T08:04:14.999Z</time>
      </trkpt>
      <trkpt lat="47.45062" lon="6.72437">
        <ele>493.2</ele>
        <time>2017-05-14T08:04:15.999Z</time>
      </trkpt>
      <trkpt lat="47.45058" lon="6.72434">
        <ele>493.3</ele>
        <time>2017-05-14T08:04:16.999Z</time>
      </trkpt>
      <trkpt lat="47.45053" lon="6.72431">
        <ele>493.5</ele>
        <time>2017-05-14T08:04:17.999Z</time>
      </trkpt>
      <trkpt lat="47.45048" lon="6.72428">
        <ele>494.3</ele>
        <time>2017-05-14T08:04:18.999Z</time>
      </trkpt>
      <trkpt lat="47.45044" lon="6.72424">
        <ele>494.9</ele>
        <time>2017-05-14T08:04:19.999Z</time>
      </trkpt>
      <trkpt lat="47.4504" lon="6.72422">
        <ele>494.6</ele>
        <time>2017-05-14T08:04:20.999Z</time>
      </trkpt>
      <trkpt lat="47.45037" lon="6.72419">
        <ele>494.9</ele>
        <time>2017-05-14T08:04:21.999Z</time>
      </trkpt>
      <trkpt lat="47.45033" lon="6.72417">
        <ele>496.3</ele>
        <time>2017-05-14T08:04:22.999Z</time>
      </trkpt>
      <trkpt lat="47.45029" lon="6.72414">
        <ele>497</ele>
        <time>2017-05-14T08:04:23.999Z</time>
      </trkpt>
      <trkpt lat="47.45025" lon="6.72411">
        <ele>497.4</ele>
        <time>2017-05-14T08:04:24.999Z</time>
      </trkpt>
      <trkpt lat="47.45022" lon="6.72409">
        <ele>497.5</ele>
        <time>2017-05-14T08:04:25.999Z</time>
      </trkpt>
      <trkpt lat="47.45019" lon="6.72406">
        <ele>497.4</ele>
        <time>2017-05-14T08:04:26.999Z</time>
      </trkpt>
      <trkpt lat="47.45015" lon="6.72403">
        <ele>497.7</ele>
        <time>2017-05-14T08:04:27.999Z</time>
      </trkpt>
      <trkpt lat="47.45012" lon="6.724">
        <ele>498.2</ele>
        <time>2017-05-14T08:04:28.999Z</time>
      </trkpt>
      <trkpt lat="47.45008" lon="6.72398">
        <ele>498.8</ele>
        <time>2017-05-14T08:04:29.999Z</time>
      </trkpt>
      <trkpt lat="47.45003" lon="6.72395">
        <ele>499.2</ele>
        <time>2017-05-14T08:04:30.999Z</time>
      </trkpt>
      <trkpt lat="47.44999" lon="6.72391">
        <ele>498.8</ele>
        <time>2017-05-14T08:04:31.999Z</time>
      </trkpt>
      <trkpt lat="47.44996" lon="6.72389">
        <ele>498.8</ele>
        <time>2017-05-14T08:04:32.999Z</time>
      </trkpt>
      <trkpt lat="47.44993" lon="6.72386">
        <ele>498.5</ele>
        <time>2017-05-14T08:04:33.999Z</time>
      </trkpt>
      <trkpt lat="47.44989" lon="6.72383">
        <ele>497.9</ele>
        <time>2017-05-14T08:04:34.999Z</time>
      </trkpt>
      <trkpt lat="47.44987" lon="6.7238">
        <ele>497.9</ele>
        <time>2017-05-14T08:04:35.999Z</time>
      </trkpt>
      <trkpt lat="47.44983" lon="6.72377">
        <ele>497.7</ele>
        <time>2017-05-14T08:04:36.999Z</time>
      </trkpt>
      <trkpt lat="47.4498" lon="6.72373">
        <ele>497.3</ele>
        <time>2017-05-14T08:04:37.999Z</time>
      </trkpt>
      <trkpt lat="47.44976" lon="6.7237">
        <ele>497.8</ele>
        <time>2017-05-14T08:04:38.999Z</time>
      </trkpt>
      <trkpt lat="47.44973" lon="6.72366">
        <ele>497.8</ele>
        <time>2017-05-14T08:04:39.999Z</time>
      </trkpt>
      <trkpt lat="47.4497" lon="6.72363">
        <ele>497.8</ele>
        <time>2017-05-14T08:04:40.999Z</time>
      </trkpt>
      <trkpt lat="47.44967" lon="6.72361">
        <ele>498.1</ele>
        <time>2017-05-14T08:04:41.999Z</time>
      </trkpt>
      <trkpt lat="47.44965" lon="6.72357">
        <ele>498.1</ele>
        <time>2017-05-14T08:04:42.999Z</time>
      </trkpt>
      <trkpt lat="47.44962" lon="6.72354">
        <ele>498.2</ele>
        <time>2017-05-14T08:04:43.999Z</time>
      </trkpt>
      <trkpt lat="47.4496" lon="6.7235">
        <ele>498.3</ele>
        <time>2017-05-14T08:04:44.999Z</time>
      </trkpt>
      <trkpt lat="47.44957" lon="6.72348">
        <ele>498.3</ele>
        <time>2017-05-14T08:04:45.999Z</time>
      </trkpt>
      <trkpt lat="47.44954" lon="6.72345">
        <ele>498.3</ele>
        <time>2017-05-14T08:04:46.999Z</time>
      </trkpt>
      <trkpt lat="47.44951" lon="6.72341">
        <ele>498.3</ele>
        <time>2017-05-14T08:04:47.999Z</time>
      </trkpt>
      <trkpt lat="47.44947" lon="6.72337">
        <ele>498.3</ele>
        <time>2017-05-14T08:04:48.999Z</time>
      </trkpt>
      <trkpt lat="47.44944" lon="6.72334">
        <ele>498.3</ele>
        <time>2017-05-14T08:04:49.999Z</time>
      </trkpt>
      <trkpt lat="47.44941" lon="6.72332">
        <ele>498.3</ele>
        <time>2017-05-14T08:04:50.999Z</time>
      </trkpt>
      <trkpt lat="47.44937" lon="6.7233">
        <ele>498.3</ele>
        <time>2017-05-14T08:04:51.999Z</time>
      </trkpt>
      <trkpt lat="47.44933" lon="6.72327">
        <ele>498.3</ele>
        <time>2017-05-14T08:04:52.999Z</time>
      </trkpt>
      <trkpt lat="47.4493" lon="6.72325">
        <ele>498.3</ele>
        <time>2017-05-14T08:04:53.999Z</time>
      </trkpt>
      <trkpt lat="47.44928" lon="6.72324">
        <ele>498.3</ele>
        <time>2017-05-14T08:04:54.999Z</time>
      </trkpt>
      <trkpt lat="47.44925" lon="6.72322">
        <ele>498.2</ele>
        <time>2017-05-14T08:04:55.999Z</time>
      </trkpt>
      <trkpt lat="47.44921" lon="6.72319">
        <ele>498.2</ele>
        <time>2017-05-14T08:04:56.999Z</time>
      </trkpt>
      <trkpt lat="47.44918" lon="6.72317">
        <ele>498.1</ele>
        <time>2017-05-14T08:04:57.999Z</time>
      </trkpt>
      <trkpt lat="47.44915" lon="6.72315">
        <ele>498</ele>
        <time>2017-05-14T08:04:58.999Z</time>
      </trkpt>
      <trkpt lat="47.44912" lon="6.72314">
        <ele>497.9</ele>
        <time>2017-05-14T08:04:59.999Z</time>
      </trkpt>
      <trkpt lat="47.44909" lon="6.72312">
        <ele>497.9</ele>
        <time>2017-05-14T08:05:00.999Z</time>
      </trkpt>
      <trkpt lat="47.44907" lon="6.7231">
        <ele>497.8</ele>
        <time>2017-05-14T08:05:01.999Z</time>
      </trkpt>
      <trkpt lat="47.44904" lon="6.72308">
        <ele>497.8</ele>
        <time>2017-05-14T08:05:02.999Z</time>
      </trkpt>
      <trkpt lat="47.44901" lon="6.72306">
        <ele>497.7</ele>
        <time>2017-05-14T08:05:03.999Z</time>
      </trkpt>
      <trkpt lat="47.44898" lon="6.72305">
        <ele>497.7</ele>
        <time>2017-05-14T08:05:04.999Z</time>
      </trkpt>
      <trkpt lat="47.44895" lon="6.72304">
        <ele>497.6</ele>
        <time>2017-05-14T08:05:05.999Z</time>
      </trkpt>
      <trkpt lat="47.44892" lon="6.72301">
        <ele>497.6</ele>
        <time>2017-05-14T08:05:06.999Z</time>
      </trkpt>
      <trkpt lat="47.44889" lon="6.72299">
        <ele>497.5</ele>
        <time>2017-05-14T08:05:07.999Z</time>
      </trkpt>
      <trkpt lat="47.44886" lon="6.72297">
        <ele>497.4</ele>
        <time>2017-05-14T08:05:08.999Z</time>
      </trkpt>
      <trkpt lat="47.44883" lon="6.72295">
        <ele>497.3</ele>
        <time>2017-05-14T08:05:09.999Z</time>
      </trkpt>
      <trkpt lat="47.4488" lon="6.72293">
        <ele>497.3</ele>
        <time>2017-05-14T08:05:10.999Z</time>
      </trkpt>
      <trkpt lat="47.44877" lon="6.72291">
        <ele>497.2</ele>
        <time>2017-05-14T08:05:11.999Z</time>
      </trkpt>
      <trkpt lat="47.44875" lon="6.72288">
        <ele>497.2</ele>
        <time>2017-05-14T08:05:12.999Z</time>
      </trkpt>
      <trkpt lat="47.44872" lon="6.72286">
        <ele>497.1</ele>
        <time>2017-05-14T08:05:13.999Z</time>
      </trkpt>
      <trkpt lat="47.4487" lon="6.72284">
        <ele>497.1</ele>
        <time>2017-05-14T08:05:14.999Z</time>
      </trkpt>
      <trkpt lat="47.44868" lon="6.72282">
        <ele>497.1</ele>
        <time>2017-05-14T08:05:15.999Z</time>
      </trkpt>
      <trkpt lat="47.44866" lon="6.72281">
        <ele>497</ele>
        <time>2017-05-14T08:05:16.999Z</time>
      </trkpt>
      <trkpt lat="47.44864" lon="6.72279">
        <ele>496.9</ele>
        <time>2017-05-14T08:05:17.999Z</time>
      </trkpt>
      <trkpt lat="47.44862" lon="6.72278">
        <ele>496.9</ele>
        <time>2017-05-14T08:05:18.999Z</time>
      </trkpt>
      <trkpt lat="47.44859" lon="6.72275">
        <ele>496.9</ele>
        <time>2017-05-14T08:05:19.999Z</time>
      </trkpt>
      <trkpt lat="47.44856" lon="6.72274">
        <ele>497</ele>
        <time>2017-05-14T08:05:20.999Z</time>
      </trkpt>
      <trkpt lat="47.44854" lon="6.72272">
        <ele>497.1</ele>
        <time>2017-05-14T08:05:21.999Z</time>
      </trkpt>
      <trkpt lat="47.44851" lon="6.72268">
        <ele>498.3</ele>
        <time>2017-05-14T08:05:22.999Z</time>
      </trkpt>
      <trkpt lat="47.44847" lon="6.72266">
        <ele>498.4</ele>
        <time>2017-05-14T08:05:24.999Z</time>
      </trkpt>
      <trkpt lat="47.44844" lon="6.72264">
        <ele>498.4</ele>
        <time>2017-05-14T08:05:25.999Z</time>
      </trkpt>
      <trkpt lat="47.44841" lon="6.72261">
        <ele>498.4</ele>
        <time>2017-05-14T08:05:26.999Z</time>
      </trkpt>
      <trkpt lat="47.44838" lon="6.7226">
        <ele>498.4</ele>
        <time>2017-05-14T08:05:27.999Z</time>
      </trkpt>
      <trkpt lat="47.44834" lon="6.72259">
        <ele>498.5</ele>
        <time>2017-05-14T08:05:29.999Z</time>
      </trkpt>
      <trkpt lat="47.44832" lon="6.72259">
        <ele>498.5</ele>
        <time>2017-05-14T08:05:30.999Z</time>
      </trkpt>
      <trkpt lat="47.4483" lon="6.72256">
        <ele>498.7</ele>
        <time>2017-05-14T08:05:31.999Z</time>
      </trkpt>
      <trkpt lat="47.44828" lon="6.72254">
        <ele>498.9</ele>
        <time>2017-05-14T08:05:32.999Z</time>
      </trkpt>
      <trkpt lat="47.44825" lon="6.7225">
        <ele>499.1</ele>
        <time>2017-05-14T08:05:33.999Z</time>
      </trkpt>
      <trkpt lat="47.44823" lon="6.72246">
        <ele>499.4</ele>
        <time>2017-05-14T08:05:34.999Z</time>
      </trkpt>
      <trkpt lat="47.4482" lon="6.72242">
        <ele>499.7</ele>
        <time>2017-05-14T08:05:35.999Z</time>
      </trkpt>
      <trkpt lat="47.44818" lon="6.72237">
        <ele>500</ele>
        <time>2017-05-14T08:05:36.999Z</time>
      </trkpt>
      <trkpt lat="47.44816" lon="6.72234">
        <ele>500.2</ele>
        <time>2017-05-14T08:05:37.999Z</time>
      </trkpt>
      <trkpt lat="47.44814" lon="6.7223">
        <ele>500.5</ele>
        <time>2017-05-14T08:05:38.999Z</time>
      </trkpt>
      <trkpt lat="47.44812" lon="6.72226">
        <ele>500.8</ele>
        <time>2017-05-14T08:05:39.999Z</time>
      </trkpt>
      <trkpt lat="47.44809" lon="6.72224">
        <ele>501.1</ele>
        <time>2017-05-14T08:05:40.999Z</time>
      </trkpt>
      <trkpt lat="47.44806" lon="6.72221">
        <ele>501.4</ele>
        <time>2017-05-14T08:05:41.999Z</time>
      </trkpt>
      <trkpt lat="47.44804" lon="6.72218">
        <ele>501.8</ele>
        <time>2017-05-14T08:05:42.999Z</time>
      </trkpt>
      <trkpt lat="47.44803" lon="6.72214">
        <ele>502.1</ele>
        <time>2017-05-14T08:05:43.999Z</time>
      </trkpt>
      <trkpt lat="47.44802" lon="6.72209">
        <ele>502.4</ele>
        <time>2017-05-14T08:05:44.999Z</time>
      </trkpt>
      <trkpt lat="47.448" lon="6.72204">
        <ele>502.7</ele>
        <time>2017-05-14T08:05:45.999Z</time>
      </trkpt>
      <trkpt lat="47.44799" lon="6.72199">
        <ele>503.1</ele>
        <time>2017-05-14T08:05:46.999Z</time>
      </trkpt>
      <trkpt lat="47.44797" lon="6.72195">
        <ele>503.4</ele>
        <time>2017-05-14T08:05:47.999Z</time>
      </trkpt>
      <trkpt lat="47.44797" lon="6.72192">
        <ele>503.7</ele>
        <time>2017-05-14T08:05:48.999Z</time>
      </trkpt>
      <trkpt lat="47.44797" lon="6.72188">
        <ele>504.1</ele>
        <time>2017-05-14T08:05:49.999Z</time>
      </trkpt>
      <trkpt lat="47.44796" lon="6.72184">
        <ele>504.5</ele>
        <time>2017-05-14T08:05:50.999Z</time>
      </trkpt>
      <trkpt lat="47.44795" lon="6.72178">
        <ele>505.2</ele>
        <time>2017-05-14T08:05:52.999Z</time>
      </trkpt>
      <trkpt lat="47.44795" lon="6.72174">
        <ele>505.5</ele>
        <time>2017-05-14T08:05:53.999Z</time>
      </trkpt>
      <trkpt lat="47.44794" lon="6.72171">
        <ele>505.9</ele>
        <time>2017-05-14T08:05:54.999Z</time>
      </trkpt>
      <trkpt lat="47.44794" lon="6.72168">
        <ele>506.2</ele>
        <time>2017-05-14T08:05:55.999Z</time>
      </trkpt>
      <trkpt lat="47.44793" lon="6.72164">
        <ele>506.6</ele>
        <time>2017-05-14T08:05:56.999Z</time>
      </trkpt>
      <trkpt lat="47.44792" lon="6.7216">
        <ele>506.9</ele>
        <time>2017-05-14T08:05:57.999Z</time>
      </trkpt>
      <trkpt lat="47.44791" lon="6.72157">
        <ele>507.2</ele>
        <time>2017-05-14T08:05:58.999Z</time>
      </trkpt>
      <trkpt lat="47.4479" lon="6.72151">
        <ele>507.5</ele>
        <time>2017-05-14T08:05:59.999Z</time>
      </trkpt>
      <trkpt lat="47.44788" lon="6.72146">
        <ele>507.8</ele>
        <time>2017-05-14T08:06:00.999Z</time>
      </trkpt>
      <trkpt lat="47.44787" lon="6.72141">
        <ele>508.1</ele>
        <time>2017-05-14T08:06:01.999Z</time>
      </trkpt>
      <trkpt lat="47.44785" lon="6.72137">
        <ele>508.4</ele>
        <time>2017-05-14T08:06:02.999Z</time>
      </trkpt>
      <trkpt lat="47.44784" lon="6.72134">
        <ele>508.6</ele>
        <time>2017-05-14T08:06:03.999Z</time>
      </trkpt>
      <trkpt lat="47.44783" lon="6.72129">
        <ele>508.8</ele>
        <time>2017-05-14T08:06:04.999Z</time>
      </trkpt>
      <trkpt lat="47.44781" lon="6.72124">
        <ele>509</ele>
        <time>2017-05-14T08:06:05.999Z</time>
      </trkpt>
      <trkpt lat="47.44779" lon="6.72119">
        <ele>509.2</ele>
        <time>2017-05-14T08:06:06.999Z</time>
      </trkpt>
      <trkpt lat="47.44777" lon="6.72113">
        <ele>509.4</ele>
        <time>2017-05-14T08:06:07.999Z</time>
      </trkpt>
      <trkpt lat="47.44776" lon="6.72108">
        <ele>509.6</ele>
        <time>2017-05-14T08:06:08.999Z</time>
      </trkpt>
      <trkpt lat="47.44774" lon="6.72103">
        <ele>509.8</ele>
        <time>2017-05-14T08:06:09.999Z</time>
      </trkpt>
      <trkpt lat="47.44773" lon="6.72098">
        <ele>510</ele>
        <time>2017-05-14T08:06:10.999Z</time>
      </trkpt>
      <trkpt lat="47.44772" lon="6.72094">
        <ele>510.1</ele>
        <time>2017-05-14T08:06:11.999Z</time>
      </trkpt>
      <trkpt lat="47.44771" lon="6.72089">
        <ele>510.1</ele>
        <time>2017-05-14T08:06:12.999Z</time>
      </trkpt>
      <trkpt lat="47.4477" lon="6.72084">
        <ele>510.1</ele>
        <time>2017-05-14T08:06:13.999Z</time>
      </trkpt>
      <trkpt lat="47.44769" lon="6.72079">
        <ele>509.6</ele>
        <time>2017-05-14T08:06:14.999Z</time>
      </trkpt>
      <trkpt lat="47.44769" lon="6.72074">
        <ele>509</ele>
        <time>2017-05-14T08:06:15.999Z</time>
      </trkpt>
      <trkpt lat="47.44769" lon="6.72069">
        <ele>508.7</ele>
        <time>2017-05-14T08:06:16.999Z</time>
      </trkpt>
      <trkpt lat="47.44768" lon="6.72062">
        <ele>509.2</ele>
        <time>2017-05-14T08:06:17.999Z</time>
      </trkpt>
      <trkpt lat="47.44767" lon="6.72056">
        <ele>510.2</ele>
        <time>2017-05-14T08:06:18.999Z</time>
      </trkpt>
      <trkpt lat="47.44767" lon="6.72051">
        <ele>511.5</ele>
        <time>2017-05-14T08:06:19.999Z</time>
      </trkpt>
      <trkpt lat="47.44766" lon="6.72046">
        <ele>512.3</ele>
        <time>2017-05-14T08:06:20.999Z</time>
      </trkpt>
      <trkpt lat="47.44766" lon="6.72041">
        <ele>512.4</ele>
        <time>2017-05-14T08:06:21.999Z</time>
      </trkpt>
      <trkpt lat="47.44765" lon="6.72035">
        <ele>512.4</ele>
        <time>2017-05-14T08:06:22.999Z</time>
      </trkpt>
      <trkpt lat="47.44765" lon="6.72028">
        <ele>512.5</ele>
        <time>2017-05-14T08:06:23.999Z</time>
      </trkpt>
      <trkpt lat="47.44765" lon="6.72023">
        <ele>512.5</ele>
        <time>2017-05-14T08:06:24.999Z</time>
      </trkpt>
      <trkpt lat="47.44766" lon="6.72019">
        <ele>512.6</ele>
        <time>2017-05-14T08:06:25.999Z</time>
      </trkpt>
      <trkpt lat="47.44769" lon="6.72016">
        <ele>512.4</ele>
        <time>2017-05-14T08:06:26.999Z</time>
      </trkpt>
      <trkpt lat="47.44772" lon="6.72014">
        <ele>512.2</ele>
        <time>2017-05-14T08:06:27.999Z</time>
      </trkpt>
      <trkpt lat="47.44776" lon="6.72012">
        <ele>512.2</ele>
        <time>2017-05-14T08:06:28.999Z</time>
      </trkpt>
      <trkpt lat="47.44779" lon="6.7201">
        <ele>512.3</ele>
        <time>2017-05-14T08:06:29.999Z</time>
      </trkpt>
      <trkpt lat="47.44784" lon="6.72008">
        <ele>512.2</ele>
        <time>2017-05-14T08:06:30.999Z</time>
      </trkpt>
      <trkpt lat="47.44788" lon="6.72006">
        <ele>512.1</ele>
        <time>2017-05-14T08:06:31.999Z</time>
      </trkpt>
      <trkpt lat="47.44793" lon="6.72004">
        <ele>512.1</ele>
        <time>2017-05-14T08:06:32.999Z</time>
      </trkpt>
      <trkpt lat="47.44797" lon="6.72003">
        <ele>512.1</ele>
        <time>2017-05-14T08:06:33.999Z</time>
      </trkpt>
      <trkpt lat="47.44801" lon="6.72001">
        <ele>512.1</ele>
        <time>2017-05-14T08:06:34.999Z</time>
      </trkpt>
      <trkpt lat="47.44805" lon="6.72">
        <ele>512</ele>
        <time>2017-05-14T08:06:35.999Z</time>
      </trkpt>
      <trkpt lat="47.4481" lon="6.71998">
        <ele>511.9</ele>
        <time>2017-05-14T08:06:36.999Z</time>
      </trkpt>
      <trkpt lat="47.44814" lon="6.71996">
        <ele>511.8</ele>
        <time>2017-05-14T08:06:37.999Z</time>
      </trkpt>
      <trkpt lat="47.44819" lon="6.71994">
        <ele>511.7</ele>
        <time>2017-05-14T08:06:38.999Z</time>
      </trkpt>
      <trkpt lat="47.44825" lon="6.71991">
        <ele>511.5</ele>
        <time>2017-05-14T08:06:39.999Z</time>
      </trkpt>
      <trkpt lat="47.44831" lon="6.71989">
        <ele>511.4</ele>
        <time>2017-05-14T08:06:40.999Z</time>
      </trkpt>
      <trkpt lat="47.44838" lon="6.71986">
        <ele>511.2</ele>
        <time>2017-05-14T08:06:41.999Z</time>
      </trkpt>
      <trkpt lat="47.44845" lon="6.71983">
        <ele>511</ele>
        <time>2017-05-14T08:06:42.999Z</time>
      </trkpt>
      <trkpt lat="47.44852" lon="6.7198">
        <ele>511.1</ele>
        <time>2017-05-14T08:06:43.999Z</time>
      </trkpt>
      <trkpt lat="47.44861" lon="6.71976">
        <ele>511.3</ele>
        <time>2017-05-14T08:06:44.999Z</time>
      </trkpt>
      <trkpt lat="47.4487" lon="6.71973">
        <ele>511.2</ele>
        <time>2017-05-14T08:06:45.999Z</time>
      </trkpt>
      <trkpt lat="47.44878" lon="6.7197">
        <ele>510.6</ele>
        <time>2017-05-14T08:06:46.999Z</time>
      </trkpt>
      <trkpt lat="47.44887" lon="6.71966">
        <ele>510.7</ele>
        <time>2017-05-14T08:06:47.999Z</time>
      </trkpt>
      <trkpt lat="47.44895" lon="6.71962">
        <ele>510.6</ele>
        <time>2017-05-14T08:06:48.999Z</time>
      </trkpt>
      <trkpt lat="47.44903" lon="6.71958">
        <ele>510.6</ele>
        <time>2017-05-14T08:06:49.999Z</time>
      </trkpt>
      <trkpt lat="47.44913" lon="6.71954">
        <ele>510.6</ele>
        <time>2017-05-14T08:06:50.999Z</time>
      </trkpt>
      <trkpt lat="47.44922" lon="6.71949">
        <ele>510.7</ele>
        <time>2017-05-14T08:06:51.999Z</time>
      </trkpt>
      <trkpt lat="47.4493" lon="6.71946">
        <ele>511</ele>
        <time>2017-05-14T08:06:52.999Z</time>
      </trkpt>
      <trkpt lat="47.44938" lon="6.71941">
        <ele>510.9</ele>
        <time>2017-05-14T08:06:53.999Z</time>
      </trkpt>
      <trkpt lat="47.44946" lon="6.71937">
        <ele>510.8</ele>
        <time>2017-05-14T08:06:54.999Z</time>
      </trkpt>
      <trkpt lat="47.44954" lon="6.71933">
        <ele>510.5</ele>
        <time>2017-05-14T08:06:55.999Z</time>
      </trkpt>
      <trkpt lat="47.44962" lon="6.71929">
        <ele>510.4</ele>
        <time>2017-05-14T08:06:56.999Z</time>
      </trkpt>
      <trkpt lat="47.4497" lon="6.71924">
        <ele>510.4</ele>
        <time>2017-05-14T08:06:57.999Z</time>
      </trkpt>
      <trkpt lat="47.44977" lon="6.7192">
        <ele>510.2</ele>
        <time>2017-05-14T08:06:58.999Z</time>
      </trkpt>
      <trkpt lat="47.44984" lon="6.71916">
        <ele>510.2</ele>
        <time>2017-05-14T08:06:59.999Z</time>
      </trkpt>
      <trkpt lat="47.44991" lon="6.71913">
        <ele>510.6</ele>
        <time>2017-05-14T08:07:00.999Z</time>
      </trkpt>
      <trkpt lat="47.44998" lon="6.71909">
        <ele>510.3</ele>
        <time>2017-05-14T08:07:01.999Z</time>
      </trkpt>
      <trkpt lat="47.45003" lon="6.71906">
        <ele>510.7</ele>
        <time>2017-05-14T08:07:02.999Z</time>
      </trkpt>
      <trkpt lat="47.4501" lon="6.71902">
        <ele>511.3</ele>
        <time>2017-05-14T08:07:03.999Z</time>
      </trkpt>
      <trkpt lat="47.45015" lon="6.71898">
        <ele>511.5</ele>
        <time>2017-05-14T08:07:04.999Z</time>
      </trkpt>
      <trkpt lat="47.45021" lon="6.71895">
        <ele>512.2</ele>
        <time>2017-05-14T08:07:05.999Z</time>
      </trkpt>
      <trkpt lat="47.45027" lon="6.71891">
        <ele>511.8</ele>
        <time>2017-05-14T08:07:06.999Z</time>
      </trkpt>
      <trkpt lat="47.45032" lon="6.71887">
        <ele>511.4</ele>
        <time>2017-05-14T08:07:07.999Z</time>
      </trkpt>
      <trkpt lat="47.45037" lon="6.71884">
        <ele>511.3</ele>
        <time>2017-05-14T08:07:08.999Z</time>
      </trkpt>
      <trkpt lat="47.45042" lon="6.7188">
        <ele>510.9</ele>
        <time>2017-05-14T08:07:09.999Z</time>
      </trkpt>
      <trkpt lat="47.45048" lon="6.71877">
        <ele>510.9</ele>
        <time>2017-05-14T08:07:10.999Z</time>
      </trkpt>
      <trkpt lat="47.45054" lon="6.71874">
        <ele>511.5</ele>
        <time>2017-05-14T08:07:11.999Z</time>
      </trkpt>
      <trkpt lat="47.4506" lon="6.7187">
        <ele>511.7</ele>
        <time>2017-05-14T08:07:12.999Z</time>
      </trkpt>
      <trkpt lat="47.45065" lon="6.71868">
        <ele>511.9</ele>
        <time>2017-05-14T08:07:13.999Z</time>
      </trkpt>
      <trkpt lat="47.4507" lon="6.71865">
        <ele>512</ele>
        <time>2017-05-14T08:07:14.999Z</time>
      </trkpt>
      <trkpt lat="47.45075" lon="6.71861">
        <ele>512</ele>
        <time>2017-05-14T08:07:15.999Z</time>
      </trkpt>
      <trkpt lat="47.45081" lon="6.71858">
        <ele>512.1</ele>
        <time>2017-05-14T08:07:16.999Z</time>
      </trkpt>
      <trkpt lat="47.45088" lon="6.71855">
        <ele>512</ele>
        <time>2017-05-14T08:07:17.999Z</time>
      </trkpt>
      <trkpt lat="47.45095" lon="6.71851">
        <ele>511.8</ele>
        <time>2017-05-14T08:07:18.999Z</time>
      </trkpt>
      <trkpt lat="47.45102" lon="6.71848">
        <ele>511.8</ele>
        <time>2017-05-14T08:07:19.999Z</time>
      </trkpt>
      <trkpt lat="47.45109" lon="6.71845">
        <ele>511.9</ele>
        <time>2017-05-14T08:07:20.999Z</time>
      </trkpt>
      <trkpt lat="47.45116" lon="6.71842">
        <ele>511.9</ele>
        <time>2017-05-14T08:07:21.999Z</time>
      </trkpt>
      <trkpt lat="47.45123" lon="6.71838">
        <ele>512.1</ele>
        <time>2017-05-14T08:07:22.999Z</time>
      </trkpt>
      <trkpt lat="47.45129" lon="6.71834">
        <ele>512.4</ele>
        <time>2017-05-14T08:07:23.999Z</time>
      </trkpt>
      <trkpt lat="47.45136" lon="6.7183">
        <ele>512.3</ele>
        <time>2017-05-14T08:07:24.999Z</time>
      </trkpt>
      <trkpt lat="47.45143" lon="6.71824">
        <ele>511.6</ele>
        <time>2017-05-14T08:07:25.999Z</time>
      </trkpt>
      <trkpt lat="47.45149" lon="6.71818">
        <ele>510.7</ele>
        <time>2017-05-14T08:07:26.999Z</time>
      </trkpt>
      <trkpt lat="47.45153" lon="6.71812">
        <ele>509.6</ele>
        <time>2017-05-14T08:07:28.000Z</time>
      </trkpt>
      <trkpt lat="47.45156" lon="6.71808">
        <ele>508.5</ele>
        <time>2017-05-14T08:07:28.999Z</time>
      </trkpt>
      <trkpt lat="47.45161" lon="6.71806">
        <ele>507.6</ele>
        <time>2017-05-14T08:07:29.999Z</time>
      </trkpt>
      <trkpt lat="47.45164" lon="6.71804">
        <ele>507.5</ele>
        <time>2017-05-14T08:07:31.000Z</time>
      </trkpt>
      <trkpt lat="47.45168" lon="6.71802">
        <ele>507.5</ele>
        <time>2017-05-14T08:07:32.000Z</time>
      </trkpt>
      <trkpt lat="47.45172" lon="6.71799">
        <ele>507.4</ele>
        <time>2017-05-14T08:07:33.000Z</time>
      </trkpt>
      <trkpt lat="47.45174" lon="6.71797">
        <ele>507.4</ele>
        <time>2017-05-14T08:07:34.000Z</time>
      </trkpt>
      <trkpt lat="47.45176" lon="6.71796">
        <ele>507.4</ele>
        <time>2017-05-14T08:07:35.000Z</time>
      </trkpt>
      <trkpt lat="47.45179" lon="6.71793">
        <ele>507.4</ele>
        <time>2017-05-14T08:07:36.000Z</time>
      </trkpt>
      <trkpt lat="47.45181" lon="6.7179">
        <ele>507.4</ele>
        <time>2017-05-14T08:07:37.000Z</time>
      </trkpt>
      <trkpt lat="47.45183" lon="6.71788">
        <ele>507.4</ele>
        <time>2017-05-14T08:07:38.000Z</time>
      </trkpt>
      <trkpt lat="47.45186" lon="6.71783">
        <ele>507.4</ele>
        <time>2017-05-14T08:07:39.000Z</time>
      </trkpt>
      <trkpt lat="47.45189" lon="6.71778">
        <ele>507.4</ele>
        <time>2017-05-14T08:07:40.000Z</time>
      </trkpt>
      <trkpt lat="47.45192" lon="6.71772">
        <ele>507.4</ele>
        <time>2017-05-14T08:07:41.000Z</time>
      </trkpt>
      <trkpt lat="47.45195" lon="6.71766">
        <ele>507.3</ele>
        <time>2017-05-14T08:07:42.000Z</time>
      </trkpt>
      <trkpt lat="47.45198" lon="6.7176">
        <ele>506.1</ele>
        <time>2017-05-14T08:07:43.000Z</time>
      </trkpt>
      <trkpt lat="47.45201" lon="6.71753">
        <ele>505.1</ele>
        <time>2017-05-14T08:07:44.000Z</time>
      </trkpt>
      <trkpt lat="47.45205" lon="6.71747">
        <ele>504.5</ele>
        <time>2017-05-14T08:07:45.000Z</time>
      </trkpt>
      <trkpt lat="47.45208" lon="6.7174">
        <ele>503.6</ele>
        <time>2017-05-14T08:07:46.000Z</time>
      </trkpt>
      <trkpt lat="47.45212" lon="6.71734">
        <ele>502.4</ele>
        <time>2017-05-14T08:07:47.000Z</time>
      </trkpt>
      <trkpt lat="47.45215" lon="6.71727">
        <ele>501.6</ele>
        <time>2017-05-14T08:07:48.000Z</time>
      </trkpt>
      <trkpt lat="47.45218" lon="6.71721">
        <ele>500.7</ele>
        <time>2017-05-14T08:07:49.000Z</time>
      </trkpt>
      <trkpt lat="47.45221" lon="6.71716">
        <ele>500.7</ele>
        <time>2017-05-14T08:07:50.000Z</time>
      </trkpt>
      <trkpt lat="47.45223" lon="6.71712">
        <ele>499.4</ele>
        <time>2017-05-14T08:07:51.000Z</time>
      </trkpt>
      <trkpt lat="47.45224" lon="6.71707">
        <ele>499.2</ele>
        <time>2017-05-14T08:07:52.000Z</time>
      </trkpt>
      <trkpt lat="47.45225" lon="6.71703">
        <ele>497.5</ele>
        <time>2017-05-14T08:07:53.000Z</time>
      </trkpt>
      <trkpt lat="47.45226" lon="6.71699">
        <ele>497.3</ele>
        <time>2017-05-14T08:07:54.000Z</time>
      </trkpt>
      <trkpt lat="47.45228" lon="6.71692">
        <ele>496.1</ele>
        <time>2017-05-14T08:07:55.000Z</time>
      </trkpt>
      <trkpt lat="47.45229" lon="6.71683">
        <ele>494.6</ele>
        <time>2017-05-14T08:07:56.000Z</time>
      </trkpt>
      <trkpt lat="47.45231" lon="6.71676">
        <ele>493.3</ele>
        <time>2017-05-14T08:07:57.000Z</time>
      </trkpt>
      <trkpt lat="47.45234" lon="6.71668">
        <ele>491.7</ele>
        <time>2017-05-14T08:07:58.000Z</time>
      </trkpt>
      <trkpt lat="47.45237" lon="6.71661">
        <ele>491.3</ele>
        <time>2017-05-14T08:07:59.000Z</time>
      </trkpt>
      <trkpt lat="47.45242" lon="6.71656">
        <ele>490.8</ele>
        <time>2017-05-14T08:08:00.000Z</time>
      </trkpt>
      <trkpt lat="47.45245" lon="6.7165">
        <ele>489.8</ele>
        <time>2017-05-14T08:08:01.000Z</time>
      </trkpt>
      <trkpt lat="47.45245" lon="6.71643">
        <ele>488.6</ele>
        <time>2017-05-14T08:08:02.000Z</time>
      </trkpt>
      <trkpt lat="47.45248" lon="6.71637">
        <ele>486.9</ele>
        <time>2017-05-14T08:08:03.000Z</time>
      </trkpt>
      <trkpt lat="47.45251" lon="6.71631">
        <ele>484.9</ele>
        <time>2017-05-14T08:08:04.000Z</time>
      </trkpt>
      <trkpt lat="47.45254" lon="6.71626">
        <ele>483.4</ele>
        <time>2017-05-14T08:08:05.000Z</time>
      </trkpt>
      <trkpt lat="47.45257" lon="6.71621">
        <ele>482.3</ele>
        <time>2017-05-14T08:08:06.000Z</time>
      </trkpt>
      <trkpt lat="47.45261" lon="6.71615">
        <ele>480.6</ele>
        <time>2017-05-14T08:08:07.000Z</time>
      </trkpt>
      <trkpt lat="47.45266" lon="6.71607">
        <ele>478.5</ele>
        <time>2017-05-14T08:08:08.000Z</time>
      </trkpt>
      <trkpt lat="47.4527" lon="6.71601">
        <ele>476.5</ele>
        <time>2017-05-14T08:08:09.000Z</time>
      </trkpt>
      <trkpt lat="47.45274" lon="6.71594">
        <ele>473.9</ele>
        <time>2017-05-14T08:08:10.000Z</time>
      </trkpt>
      <trkpt lat="47.45278" lon="6.71591">
        <ele>471.2</ele>
        <time>2017-05-14T08:08:11.000Z</time>
      </trkpt>
      <trkpt lat="47.45283" lon="6.71585">
        <ele>471.3</ele>
        <time>2017-05-14T08:08:12.000Z</time>
      </trkpt>
      <trkpt lat="47.45288" lon="6.71576">
        <ele>472.6</ele>
        <time>2017-05-14T08:08:13.000Z</time>
      </trkpt>
      <trkpt lat="47.45293" lon="6.71572">
        <ele>473.7</ele>
        <time>2017-05-14T08:08:14.000Z</time>
      </trkpt>
      <trkpt lat="47.45295" lon="6.71566">
        <ele>475.5</ele>
        <time>2017-05-14T08:08:15.000Z</time>
      </trkpt>
      <trkpt lat="47.45297" lon="6.71561">
        <ele>475.6</ele>
        <time>2017-05-14T08:08:16.000Z</time>
      </trkpt>
      <trkpt lat="47.45299" lon="6.71558">
        <ele>475.7</ele>
        <time>2017-05-14T08:08:17.000Z</time>
      </trkpt>
      <trkpt lat="47.45302" lon="6.71555">
        <ele>478.4</ele>
        <time>2017-05-14T08:08:26.000Z</time>
      </trkpt>
      <trkpt lat="47.45317" lon="6.71558">
        <ele>478.8</ele>
        <time>2017-05-14T08:08:27.000Z</time>
      </trkpt>
      <trkpt lat="47.45317" lon="6.71558">
        <ele>479.2</ele>
        <time>2017-05-14T08:08:28.000Z</time>
      </trkpt>
      <trkpt lat="47.4532" lon="6.71566">
        <ele>479.5</ele>
        <time>2017-05-14T08:08:29.000Z</time>
      </trkpt>
      <trkpt lat="47.45321" lon="6.7157">
        <ele>479.9</ele>
        <time>2017-05-14T08:08:30.000Z</time>
      </trkpt>
      <trkpt lat="47.45321" lon="6.71573">
        <ele>480.2</ele>
        <time>2017-05-14T08:08:31.000Z</time>
      </trkpt>
      <trkpt lat="47.45322" lon="6.71577">
        <ele>480.7</ele>
        <time>2017-05-14T08:08:32.000Z</time>
      </trkpt>
      <trkpt lat="47.45323" lon="6.7158">
        <ele>481</ele>
        <time>2017-05-14T08:08:33.000Z</time>
      </trkpt>
      <trkpt lat="47.45323" lon="6.71586">
        <ele>481.7</ele>
        <time>2017-05-14T08:08:36.000Z</time>
      </trkpt>
      <trkpt lat="47.45322" lon="6.71588">
        <ele>481.9</ele>
        <time>2017-05-14T08:08:37.000Z</time>
      </trkpt>
      <trkpt lat="47.4532" lon="6.71589">
        <ele>485</ele>
        <time>2017-05-14T08:08:58.000Z</time>
      </trkpt>
      <trkpt lat="47.45325" lon="6.71578">
        <ele>485.1</ele>
        <time>2017-05-14T08:08:59.000Z</time>
      </trkpt>
      <trkpt lat="47.45325" lon="6.71578">
        <ele>486</ele>
        <time>2017-05-14T08:09:10.000Z</time>
      </trkpt>
      <trkpt lat="47.45322" lon="6.71567">
        <ele>486.1</ele>
        <time>2017-05-14T08:09:11.000Z</time>
      </trkpt>
      <trkpt lat="47.4532" lon="6.71562">
        <ele>486.1</ele>
        <time>2017-05-14T08:09:12.000Z</time>
      </trkpt>
      <trkpt lat="47.4532" lon="6.71559">
        <ele>486.2</ele>
        <time>2017-05-14T08:09:13.000Z</time>
      </trkpt>
      <trkpt lat="47.45319" lon="6.71552">
        <ele>486.3</ele>
        <time>2017-05-14T08:09:14.000Z</time>
      </trkpt>
      <trkpt lat="47.45319" lon="6.71546">
        <ele>486.4</ele>
        <time>2017-05-14T08:09:15.000Z</time>
      </trkpt>
      <trkpt lat="47.45318" lon="6.71541">
        <ele>486.5</ele>
        <time>2017-05-14T08:09:16.000Z</time>
      </trkpt>
      <trkpt lat="47.45318" lon="6.71536">
        <ele>486.6</ele>
        <time>2017-05-14T08:09:17.000Z</time>
      </trkpt>
      <trkpt lat="47.45318" lon="6.7153">
        <ele>488.1</ele>
        <time>2017-05-14T08:09:18.000Z</time>
      </trkpt>
      <trkpt lat="47.45317" lon="6.71523">
        <ele>489.5</ele>
        <time>2017-05-14T08:09:19.000Z</time>
      </trkpt>
      <trkpt lat="47.45316" lon="6.71516">
        <ele>490.3</ele>
        <time>2017-05-14T08:09:20.000Z</time>
      </trkpt>
      <trkpt lat="47.45315" lon="6.71509">
        <ele>491.1</ele>
        <time>2017-05-14T08:09:21.000Z</time>
      </trkpt>
      <trkpt lat="47.45314" lon="6.71501">
        <ele>491.7</ele>
        <time>2017-05-14T08:09:22.000Z</time>
      </trkpt>
      <trkpt lat="47.45313" lon="6.71493">
        <ele>492.1</ele>
        <time>2017-05-14T08:09:23.000Z</time>
      </trkpt>
      <trkpt lat="47.45311" lon="6.71486">
        <ele>491.5</ele>
        <time>2017-05-14T08:09:24.000Z</time>
      </trkpt>
      <trkpt lat="47.45309" lon="6.71478">
        <ele>491.2</ele>
        <time>2017-05-14T08:09:25.000Z</time>
      </trkpt>
      <trkpt lat="47.45306" lon="6.71469">
        <ele>491.4</ele>
        <time>2017-05-14T08:09:26.000Z</time>
      </trkpt>
      <trkpt lat="47.45302" lon="6.71463">
        <ele>491.2</ele>
        <time>2017-05-14T08:09:27.000Z</time>
      </trkpt>
      <trkpt lat="47.453" lon="6.71458">
        <ele>491.2</ele>
        <time>2017-05-14T08:09:28.000Z</time>
      </trkpt>
      <trkpt lat="47.45297" lon="6.71454">
        <ele>491.2</ele>
        <time>2017-05-14T08:09:29.000Z</time>
      </trkpt>
      <trkpt lat="47.45295" lon="6.71449">
        <ele>491.1</ele>
        <time>2017-05-14T08:09:30.000Z</time>
      </trkpt>
      <trkpt lat="47.45293" lon="6.71445">
        <ele>491.1</ele>
        <time>2017-05-14T08:09:31.000Z</time>
      </trkpt>
      <trkpt lat="47.45292" lon="6.71439">
        <ele>490.5</ele>
        <time>2017-05-14T08:09:32.000Z</time>
      </trkpt>
      <trkpt lat="47.45291" lon="6.71435">
        <ele>490.5</ele>
        <time>2017-05-14T08:09:33.000Z</time>
      </trkpt>
      <trkpt lat="47.4529" lon="6.71428">
        <ele>489.7</ele>
        <time>2017-05-14T08:09:34.000Z</time>
      </trkpt>
      <trkpt lat="47.45289" lon="6.71422">
        <ele>488.9</ele>
        <time>2017-05-14T08:09:35.000Z</time>
      </trkpt>
      <trkpt lat="47.45288" lon="6.71416">
        <ele>488.8</ele>
        <time>2017-05-14T08:09:36.000Z</time>
      </trkpt>
      <trkpt lat="47.45287" lon="6.7141">
        <ele>488.8</ele>
        <time>2017-05-14T08:09:37.000Z</time>
      </trkpt>
      <trkpt lat="47.45286" lon="6.71404">
        <ele>488.4</ele>
        <time>2017-05-14T08:09:38.000Z</time>
      </trkpt>
      <trkpt lat="47.45285" lon="6.71398">
        <ele>488.5</ele>
        <time>2017-05-14T08:09:39.000Z</time>
      </trkpt>
      <trkpt lat="47.45284" lon="6.71391">
        <ele>488.9</ele>
        <time>2017-05-14T08:09:40.000Z</time>
      </trkpt>
      <trkpt lat="47.45283" lon="6.71387">
        <ele>490</ele>
        <time>2017-05-14T08:09:41.000Z</time>
      </trkpt>
      <trkpt lat="47.4528" lon="6.7138">
        <ele>490</ele>
        <time>2017-05-14T08:09:42.000Z</time>
      </trkpt>
      <trkpt lat="47.45278" lon="6.71376">
        <ele>490.5</ele>
        <time>2017-05-14T08:09:43.000Z</time>
      </trkpt>
      <trkpt lat="47.45277" lon="6.71372">
        <ele>490.7</ele>
        <time>2017-05-14T08:09:44.000Z</time>
      </trkpt>
      <trkpt lat="47.45275" lon="6.71366">
        <ele>490.9</ele>
        <time>2017-05-14T08:09:45.000Z</time>
      </trkpt>
      <trkpt lat="47.45273" lon="6.71362">
        <ele>490.9</ele>
        <time>2017-05-14T08:09:46.000Z</time>
      </trkpt>
      <trkpt lat="47.45271" lon="6.71357">
        <ele>490.8</ele>
        <time>2017-05-14T08:09:47.000Z</time>
      </trkpt>
      <trkpt lat="47.45269" lon="6.7135">
        <ele>490.7</ele>
        <time>2017-05-14T08:09:48.000Z</time>
      </trkpt>
      <trkpt lat="47.45267" lon="6.71344">
        <ele>490.7</ele>
        <time>2017-05-14T08:09:49.000Z</time>
      </trkpt>
      <trkpt lat="47.45265" lon="6.71341">
        <ele>490.6</ele>
        <time>2017-05-14T08:09:50.000Z</time>
      </trkpt>
      <trkpt lat="47.45264" lon="6.71337">
        <ele>490.5</ele>
        <time>2017-05-14T08:09:51.000Z</time>
      </trkpt>
      <trkpt lat="47.45263" lon="6.71332">
        <ele>490.5</ele>
        <time>2017-05-14T08:09:52.000Z</time>
      </trkpt>
      <trkpt lat="47.45261" lon="6.71327">
        <ele>490</ele>
        <time>2017-05-14T08:09:53.000Z</time>
      </trkpt>
      <trkpt lat="47.4526" lon="6.71321">
        <ele>489.9</ele>
        <time>2017-05-14T08:09:54.000Z</time>
      </trkpt>
      <trkpt lat="47.45258" lon="6.71316">
        <ele>489.9</ele>
        <time>2017-05-14T08:09:55.000Z</time>
      </trkpt>
      <trkpt lat="47.45257" lon="6.71309">
        <ele>489.6</ele>
        <time>2017-05-14T08:09:56.000Z</time>
      </trkpt>
      <trkpt lat="47.45256" lon="6.71304">
        <ele>489.6</ele>
        <time>2017-05-14T08:09:57.000Z</time>
      </trkpt>
      <trkpt lat="47.45256" lon="6.71299">
        <ele>489.5</ele>
        <time>2017-05-14T08:09:58.000Z</time>
      </trkpt>
      <trkpt lat="47.45256" lon="6.71293">
        <ele>489.4</ele>
        <time>2017-05-14T08:09:59.000Z</time>
      </trkpt>
      <trkpt lat="47.45254" lon="6.71289">
        <ele>489.3</ele>
        <time>2017-05-14T08:10:00.000Z</time>
      </trkpt>
      <trkpt lat="47.45252" lon="6.71284">
        <ele>489</ele>
        <time>2017-05-14T08:10:02.000Z</time>
      </trkpt>
      <trkpt lat="47.4525" lon="6.71282">
        <ele>488.9</ele>
        <time>2017-05-14T08:10:03.000Z</time>
      </trkpt>
      <trkpt lat="47.45249" lon="6.71278">
        <ele>487.7</ele>
        <time>2017-05-14T08:10:08.000Z</time>
      </trkpt>
      <trkpt lat="47.45247" lon="6.71276">
        <ele>487.4</ele>
        <time>2017-05-14T08:10:09.000Z</time>
      </trkpt>
      <trkpt lat="47.45244" lon="6.71273">
        <ele>486.7</ele>
        <time>2017-05-14T08:10:11.000Z</time>
      </trkpt>
      <trkpt lat="47.45242" lon="6.71271">
        <ele>486.2</ele>
        <time>2017-05-14T08:10:12.000Z</time>
      </trkpt>
      <trkpt lat="47.4524" lon="6.7127">
        <ele>485.7</ele>
        <time>2017-05-14T08:10:13.000Z</time>
      </trkpt>
      <trkpt lat="47.45238" lon="6.71268">
        <ele>485.1</ele>
        <time>2017-05-14T08:10:14.000Z</time>
      </trkpt>
      <trkpt lat="47.45235" lon="6.71266">
        <ele>484.6</ele>
        <time>2017-05-14T08:10:15.000Z</time>
      </trkpt>
      <trkpt lat="47.45233" lon="6.71264">
        <ele>484.1</ele>
        <time>2017-05-14T08:10:16.000Z</time>
      </trkpt>
      <trkpt lat="47.4523" lon="6.7126">
        <ele>480.5</ele>
        <time>2017-05-14T08:10:23.000Z</time>
      </trkpt>
      <trkpt lat="47.4522" lon="6.7125">
        <ele>480</ele>
        <time>2017-05-14T08:10:24.000Z</time>
      </trkpt>
      <trkpt lat="47.4522" lon="6.7125">
        <ele>477.9</ele>
        <time>2017-05-14T08:10:29.000Z</time>
      </trkpt>
      <trkpt lat="47.45201" lon="6.71235">
        <ele>477.5</ele>
        <time>2017-05-14T08:10:30.000Z</time>
      </trkpt>
      <trkpt lat="47.45201" lon="6.71235">
        <ele>476.9</ele>
        <time>2017-05-14T08:10:32.000Z</time>
      </trkpt>
      <trkpt lat="47.45191" lon="6.71225">
        <ele>476.8</ele>
        <time>2017-05-14T08:10:33.000Z</time>
      </trkpt>
      <trkpt lat="47.45191" lon="6.71225">
        <ele>476.7</ele>
        <time>2017-05-14T08:10:35.000Z</time>
      </trkpt>
      <trkpt lat="47.4518" lon="6.71206">
        <ele>476.7</ele>
        <time>2017-05-14T08:10:36.000Z</time>
      </trkpt>
      <trkpt lat="47.45177" lon="6.71199">
        <ele>476.8</ele>
        <time>2017-05-14T08:10:37.000Z</time>
      </trkpt>
      <trkpt lat="47.45174" lon="6.71192">
        <ele>477</ele>
        <time>2017-05-14T08:10:38.000Z</time>
      </trkpt>
      <trkpt lat="47.45167" lon="6.71179">
        <ele>477.2</ele>
        <time>2017-05-14T08:10:39.000Z</time>
      </trkpt>
      <trkpt lat="47.45164" lon="6.71172">
        <ele>477.6</ele>
        <time>2017-05-14T08:10:40.000Z</time>
      </trkpt>
      <trkpt lat="47.45162" lon="6.71168">
        <ele>477.8</ele>
        <time>2017-05-14T08:10:41.000Z</time>
      </trkpt>
      <trkpt lat="47.4516" lon="6.71166">
        <ele>478.1</ele>
        <time>2017-05-14T08:10:42.000Z</time>
      </trkpt>
      <trkpt lat="47.4516" lon="6.71166">
        <ele>479.1</ele>
        <time>2017-05-14T08:10:48.000Z</time>
      </trkpt>
      <trkpt lat="47.45146" lon="6.7115">
        <ele>479.4</ele>
        <time>2017-05-14T08:10:49.000Z</time>
      </trkpt>
      <trkpt lat="47.45146" lon="6.7115">
        <ele>479.6</ele>
        <time>2017-05-14T08:10:50.000Z</time>
      </trkpt>
      <trkpt lat="47.45135" lon="6.71139">
        <ele>479.8</ele>
        <time>2017-05-14T08:10:51.000Z</time>
      </trkpt>
      <trkpt lat="47.45131" lon="6.71134">
        <ele>479.9</ele>
        <time>2017-05-14T08:10:52.000Z</time>
      </trkpt>
      <trkpt lat="47.45128" lon="6.71129">
        <ele>480.2</ele>
        <time>2017-05-14T08:10:53.000Z</time>
      </trkpt>
      <trkpt lat="47.45124" lon="6.7112">
        <ele>480.4</ele>
        <time>2017-05-14T08:10:54.000Z</time>
      </trkpt>
      <trkpt lat="47.45122" lon="6.71116">
        <ele>480.7</ele>
        <time>2017-05-14T08:10:55.000Z</time>
      </trkpt>
      <trkpt lat="47.45121" lon="6.71113">
        <ele>480.9</ele>
        <time>2017-05-14T08:10:56.000Z</time>
      </trkpt>
      <trkpt lat="47.4512" lon="6.7111">
        <ele>481.6</ele>
        <time>2017-05-14T08:10:59.000Z</time>
      </trkpt>
      <trkpt lat="47.45115" lon="6.71095">
        <ele>481.8</ele>
        <time>2017-05-14T08:11:00.000Z</time>
      </trkpt>
      <trkpt lat="47.45115" lon="6.71095">
        <ele>482.3</ele>
        <time>2017-05-14T08:11:02.000Z</time>
      </trkpt>
      <trkpt lat="47.4511" lon="6.71086">
        <ele>482.5</ele>
        <time>2017-05-14T08:11:03.000Z</time>
      </trkpt>
      <trkpt lat="47.45107" lon="6.71082">
        <ele>483.6</ele>
        <time>2017-05-14T08:11:29.000Z</time>
      </trkpt>
      <trkpt lat="47.45116" lon="6.71058">
        <ele>483.5</ele>
        <time>2017-05-14T08:11:30.000Z</time>
      </trkpt>
      <trkpt lat="47.45116" lon="6.71058">
        <ele>482.8</ele>
        <time>2017-05-14T08:11:35.000Z</time>
      </trkpt>
      <trkpt lat="47.45127" lon="6.71032">
        <ele>482.7</ele>
        <time>2017-05-14T08:11:36.000Z</time>
      </trkpt>
      <trkpt lat="47.45127" lon="6.71032">
        <ele>482.3</ele>
        <time>2017-05-14T08:11:39.000Z</time>
      </trkpt>
      <trkpt lat="47.45132" lon="6.71004">
        <ele>482.1</ele>
        <time>2017-05-14T08:11:40.000Z</time>
      </trkpt>
      <trkpt lat="47.45132" lon="6.71004">
        <ele>481.6</ele>
        <time>2017-05-14T08:11:45.000Z</time>
      </trkpt>
      <trkpt lat="47.45141" lon="6.70973">
        <ele>481.5</ele>
        <time>2017-05-14T08:11:46.000Z</time>
      </trkpt>
      <trkpt lat="47.45141" lon="6.70973">
        <ele>481.6</ele>
        <time>2017-05-14T08:11:47.000Z</time>
      </trkpt>
      <trkpt lat="47.45145" lon="6.70963">
        <ele>481.7</ele>
        <time>2017-05-14T08:11:48.000Z</time>
      </trkpt>
      <trkpt lat="47.45147" lon="6.70959">
        <ele>481.2</ele>
        <time>2017-05-14T08:11:55.000Z</time>
      </trkpt>
      <trkpt lat="47.45156" lon="6.70946">
        <ele>481.3</ele>
        <time>2017-05-14T08:11:56.000Z</time>
      </trkpt>
      <trkpt lat="47.45156" lon="6.70946">
        <ele>481.2</ele>
        <time>2017-05-14T08:11:58.000Z</time>
      </trkpt>
      <trkpt lat="47.45158" lon="6.70936">
        <ele>481.3</ele>
        <time>2017-05-14T08:11:59.000Z</time>
      </trkpt>
      <trkpt lat="47.45158" lon="6.70933">
        <ele>481.2</ele>
        <time>2017-05-14T08:12:00.000Z</time>
      </trkpt>
      <trkpt lat="47.45159" lon="6.70929">
        <ele>481.2</ele>
        <time>2017-05-14T08:12:01.000Z</time>
      </trkpt>
      <trkpt lat="47.45159" lon="6.70925">
        <ele>481.2</ele>
        <time>2017-05-14T08:12:02.000Z</time>
      </trkpt>
      <trkpt lat="47.45159" lon="6.7092">
        <ele>481.1</ele>
        <time>2017-05-14T08:12:03.000Z</time>
      </trkpt>
      <trkpt lat="47.45159" lon="6.70915">
        <ele>481</ele>
        <time>2017-05-14T08:12:04.000Z</time>
      </trkpt>
      <trkpt lat="47.45158" lon="6.70912">
        <ele>481</ele>
        <time>2017-05-14T08:12:05.000Z</time>
      </trkpt>
      <trkpt lat="47.45157" lon="6.70906">
        <ele>480.7</ele>
        <time>2017-05-14T08:12:08.000Z</time>
      </trkpt>
      <trkpt lat="47.45156" lon="6.70904">
        <ele>480.5</ele>
        <time>2017-05-14T08:12:09.000Z</time>
      </trkpt>
      <trkpt lat="47.45155" lon="6.70901">
        <ele>480.3</ele>
        <time>2017-05-14T08:12:10.000Z</time>
      </trkpt>
      <trkpt lat="47.45152" lon="6.70898">
        <ele>480.1</ele>
        <time>2017-05-14T08:12:11.000Z</time>
      </trkpt>
      <trkpt lat="47.45151" lon="6.70894">
        <ele>479.8</ele>
        <time>2017-05-14T08:12:12.000Z</time>
      </trkpt>
      <trkpt lat="47.45149" lon="6.70889">
        <ele>479.7</ele>
        <time>2017-05-14T08:12:13.000Z</time>
      </trkpt>
      <trkpt lat="47.45148" lon="6.70887">
        <ele>479.5</ele>
        <time>2017-05-14T08:12:14.000Z</time>
      </trkpt>
      <trkpt lat="47.45147" lon="6.70884">
        <ele>479.3</ele>
        <time>2017-05-14T08:12:15.000Z</time>
      </trkpt>
      <trkpt lat="47.45145" lon="6.70879">
        <ele>479</ele>
        <time>2017-05-14T08:12:16.000Z</time>
      </trkpt>
      <trkpt lat="47.45144" lon="6.70872">
        <ele>478.8</ele>
        <time>2017-05-14T08:12:17.000Z</time>
      </trkpt>
      <trkpt lat="47.45141" lon="6.70868">
        <ele>478.7</ele>
        <time>2017-05-14T08:12:18.000Z</time>
      </trkpt>
      <trkpt lat="47.45137" lon="6.70864">
        <ele>478.5</ele>
        <time>2017-05-14T08:12:19.000Z</time>
      </trkpt>
      <trkpt lat="47.45134" lon="6.7086">
        <ele>478.4</ele>
        <time>2017-05-14T08:12:20.000Z</time>
      </trkpt>
      <trkpt lat="47.45132" lon="6.70856">
        <ele>478.1</ele>
        <time>2017-05-14T08:12:21.000Z</time>
      </trkpt>
      <trkpt lat="47.45129" lon="6.70853">
        <ele>477.7</ele>
        <time>2017-05-14T08:12:22.000Z</time>
      </trkpt>
      <trkpt lat="47.45126" lon="6.7085">
        <ele>477.3</ele>
        <time>2017-05-14T08:12:23.000Z</time>
      </trkpt>
      <trkpt lat="47.45124" lon="6.70848">
        <ele>476.9</ele>
        <time>2017-05-14T08:12:24.000Z</time>
      </trkpt>
      <trkpt lat="47.45122" lon="6.70845">
        <ele>476.5</ele>
        <time>2017-05-14T08:12:25.000Z</time>
      </trkpt>
      <trkpt lat="47.45119" lon="6.70842">
        <ele>476</ele>
        <time>2017-05-14T08:12:26.000Z</time>
      </trkpt>
      <trkpt lat="47.45117" lon="6.70838">
        <ele>475.5</ele>
        <time>2017-05-14T08:12:27.000Z</time>
      </trkpt>
      <trkpt lat="47.45115" lon="6.70835">
        <ele>475.1</ele>
        <time>2017-05-14T08:12:28.000Z</time>
      </trkpt>
      <trkpt lat="47.45114" lon="6.70831">
        <ele>474.6</ele>
        <time>2017-05-14T08:12:29.000Z</time>
      </trkpt>
      <trkpt lat="47.45113" lon="6.70825">
        <ele>474.2</ele>
        <time>2017-05-14T08:12:30.000Z</time>
      </trkpt>
      <trkpt lat="47.4511" lon="6.7082">
        <ele>473.8</ele>
        <time>2017-05-14T08:12:31.000Z</time>
      </trkpt>
      <trkpt lat="47.45109" lon="6.70815">
        <ele>473.4</ele>
        <time>2017-05-14T08:12:32.000Z</time>
      </trkpt>
      <trkpt lat="47.45107" lon="6.70807">
        <ele>473.1</ele>
        <time>2017-05-14T08:12:33.000Z</time>
      </trkpt>
      <trkpt lat="47.45104" lon="6.708">
        <ele>472.8</ele>
        <time>2017-05-14T08:12:34.000Z</time>
      </trkpt>
      <trkpt lat="47.45101" lon="6.70794">
        <ele>472.4</ele>
        <time>2017-05-14T08:12:35.000Z</time>
      </trkpt>
      <trkpt lat="47.45096" lon="6.70786">
        <ele>468.4</ele>
        <time>2017-05-14T08:12:36.000Z</time>
      </trkpt>
      <trkpt lat="47.45094" lon="6.70781">
        <ele>468.1</ele>
        <time>2017-05-14T08:12:37.000Z</time>
      </trkpt>
      <trkpt lat="47.45089" lon="6.70775">
        <ele>467.7</ele>
        <time>2017-05-14T08:12:38.000Z</time>
      </trkpt>
      <trkpt lat="47.45086" lon="6.70766">
        <ele>467.4</ele>
        <time>2017-05-14T08:12:39.000Z</time>
      </trkpt>
      <trkpt lat="47.45084" lon="6.70761">
        <ele>467.1</ele>
        <time>2017-05-14T08:12:40.000Z</time>
      </trkpt>
      <trkpt lat="47.45081" lon="6.70754">
        <ele>466.7</ele>
        <time>2017-05-14T08:12:41.000Z</time>
      </trkpt>
      <trkpt lat="47.45077" lon="6.70747">
        <ele>466.4</ele>
        <time>2017-05-14T08:12:42.000Z</time>
      </trkpt>
      <trkpt lat="47.45076" lon="6.70742">
        <ele>466</ele>
        <time>2017-05-14T08:12:43.000Z</time>
      </trkpt>
      <trkpt lat="47.45075" lon="6.70736">
        <ele>465.8</ele>
        <time>2017-05-14T08:12:44.000Z</time>
      </trkpt>
      <trkpt lat="47.45073" lon="6.70732">
        <ele>465.5</ele>
        <time>2017-05-14T08:12:45.000Z</time>
      </trkpt>
      <trkpt lat="47.45071" lon="6.70729">
        <ele>465.2</ele>
        <time>2017-05-14T08:12:46.000Z</time>
      </trkpt>
      <trkpt lat="47.45069" lon="6.70723">
        <ele>464.7</ele>
        <time>2017-05-14T08:12:48.000Z</time>
      </trkpt>
      <trkpt lat="47.45069" lon="6.70721">
        <ele>464.6</ele>
        <time>2017-05-14T08:12:49.000Z</time>
      </trkpt>
      <trkpt lat="47.4507" lon="6.70717">
        <ele>464.5</ele>
        <time>2017-05-14T08:12:50.000Z</time>
      </trkpt>
      <trkpt lat="47.4507" lon="6.70714">
        <ele>464.3</ele>
        <time>2017-05-14T08:12:51.000Z</time>
      </trkpt>
      <trkpt lat="47.4507" lon="6.7071">
        <ele>464.2</ele>
        <time>2017-05-14T08:12:52.000Z</time>
      </trkpt>
      <trkpt lat="47.45072" lon="6.70706">
        <ele>464</ele>
        <time>2017-05-14T08:12:53.000Z</time>
      </trkpt>
      <trkpt lat="47.45075" lon="6.70704">
        <ele>463.7</ele>
        <time>2017-05-14T08:12:56.000Z</time>
      </trkpt>
      <trkpt lat="47.45076" lon="6.70703">
        <ele>463.5</ele>
        <time>2017-05-14T08:12:57.000Z</time>
      </trkpt>
      <trkpt lat="47.45076" lon="6.707">
        <ele>463.3</ele>
        <time>2017-05-14T08:12:59.000Z</time>
      </trkpt>
      <trkpt lat="47.45078" lon="6.70696">
        <ele>463.2</ele>
        <time>2017-05-14T08:13:00.000Z</time>
      </trkpt>
      <trkpt lat="47.45081" lon="6.70691">
        <ele>462.6</ele>
        <time>2017-05-14T08:13:03.000Z</time>
      </trkpt>
      <trkpt lat="47.45081" lon="6.70689">
        <ele>462.5</ele>
        <time>2017-05-14T08:13:04.000Z</time>
      </trkpt>
      <trkpt lat="47.45085" lon="6.70689">
        <ele>462.3</ele>
        <time>2017-05-14T08:13:10.000Z</time>
      </trkpt>
      <trkpt lat="47.45086" lon="6.70688">
        <ele>462.5</ele>
        <time>2017-05-14T08:13:11.000Z</time>
      </trkpt>
      <trkpt lat="47.4509" lon="6.70687">
        <ele>462.7</ele>
        <time>2017-05-14T08:13:15.000Z</time>
      </trkpt>
      <trkpt lat="47.4509" lon="6.70686">
        <ele>462.6</ele>
        <time>2017-05-14T08:13:16.000Z</time>
      </trkpt>
      <trkpt lat="47.45088" lon="6.70682">
        <ele>462.1</ele>
        <time>2017-05-14T08:13:22.000Z</time>
      </trkpt>
      <trkpt lat="47.45088" lon="6.7068">
        <ele>461.9</ele>
        <time>2017-05-14T08:13:23.000Z</time>
      </trkpt>
      <trkpt lat="47.45087" lon="6.70674">
        <ele>461.5</ele>
        <time>2017-05-14T08:13:26.000Z</time>
      </trkpt>
      <trkpt lat="47.45086" lon="6.70673">
        <ele>461.3</ele>
        <time>2017-05-14T08:13:27.000Z</time>
      </trkpt>
      <trkpt lat="47.45082" lon="6.70672">
        <ele>459.1</ele>
        <time>2017-05-14T08:13:46.000Z</time>
      </trkpt>
      <trkpt lat="47.45081" lon="6.70672">
        <ele>458.9</ele>
        <time>2017-05-14T08:13:47.000Z</time>
      </trkpt>
      <trkpt lat="47.45079" lon="6.70669">
        <ele>458.5</ele>
        <time>2017-05-14T08:13:49.000Z</time>
      </trkpt>
      <trkpt lat="47.45076" lon="6.70667">
        <ele>458.5</ele>
        <time>2017-05-14T08:13:50.000Z</time>
      </trkpt>
      <trkpt lat="47.45073" lon="6.70666">
        <ele>458.7</ele>
        <time>2017-05-14T08:14:01.000Z</time>
      </trkpt>
      <trkpt lat="47.45071" lon="6.70665">
        <ele>458.6</ele>
        <time>2017-05-14T08:14:02.000Z</time>
      </trkpt>
      <trkpt lat="47.4507" lon="6.70663">
        <ele>458.6</ele>
        <time>2017-05-14T08:14:03.000Z</time>
      </trkpt>
      <trkpt lat="47.45069" lon="6.70659">
        <ele>458.7</ele>
        <time>2017-05-14T08:14:04.000Z</time>
      </trkpt>
      <trkpt lat="47.45066" lon="6.70653">
        <ele>458.8</ele>
        <time>2017-05-14T08:14:05.000Z</time>
      </trkpt>
      <trkpt lat="47.45063" lon="6.70648">
        <ele>458.9</ele>
        <time>2017-05-14T08:14:06.000Z</time>
      </trkpt>
      <trkpt lat="47.45059" lon="6.70644">
        <ele>459</ele>
        <time>2017-05-14T08:14:07.000Z</time>
      </trkpt>
      <trkpt lat="47.45055" lon="6.70641">
        <ele>459.1</ele>
        <time>2017-05-14T08:14:08.000Z</time>
      </trkpt>
      <trkpt lat="47.45054" lon="6.7064">
        <ele>459.2</ele>
        <time>2017-05-14T08:14:09.000Z</time>
      </trkpt>
      <trkpt lat="47.45052" lon="6.70639">
        <ele>459.3</ele>
        <time>2017-05-14T08:14:10.000Z</time>
      </trkpt>
      <trkpt lat="47.4505" lon="6.70634">
        <ele>459.3</ele>
        <time>2017-05-14T08:14:11.000Z</time>
      </trkpt>
      <trkpt lat="47.45053" lon="6.7063">
        <ele>459.7</ele>
        <time>2017-05-14T08:14:30.000Z</time>
      </trkpt>
      <trkpt lat="47.45054" lon="6.70628">
        <ele>459.7</ele>
        <time>2017-05-14T08:14:31.000Z</time>
      </trkpt>
      <trkpt lat="47.45055" lon="6.70623">
        <ele>459.4</ele>
        <time>2017-05-14T08:14:34.000Z</time>
      </trkpt>
      <trkpt lat="47.45056" lon="6.7062">
        <ele>459.2</ele>
        <time>2017-05-14T08:14:35.000Z</time>
      </trkpt>
      <trkpt lat="47.45058" lon="6.70617">
        <ele>459.1</ele>
        <time>2017-05-14T08:14:36.000Z</time>
      </trkpt>
      <trkpt lat="47.4506" lon="6.70614">
        <ele>459.1</ele>
        <time>2017-05-14T08:14:37.000Z</time>
      </trkpt>
      <trkpt lat="47.4506" lon="6.7061">
        <ele>459.1</ele>
        <time>2017-05-14T08:14:38.000Z</time>
      </trkpt>
      <trkpt lat="47.4506" lon="6.70607">
        <ele>459</ele>
        <time>2017-05-14T08:14:39.000Z</time>
      </trkpt>
      <trkpt lat="47.45061" lon="6.70603">
        <ele>459</ele>
        <time>2017-05-14T08:14:40.000Z</time>
      </trkpt>
      <trkpt lat="47.45067" lon="6.70597">
        <ele>459</ele>
        <time>2017-05-14T08:14:41.000Z</time>
      </trkpt>
      <trkpt lat="47.45071" lon="6.70591">
        <ele>458.9</ele>
        <time>2017-05-14T08:14:42.000Z</time>
      </trkpt>
      <trkpt lat="47.45074" lon="6.70586">
        <ele>458.8</ele>
        <time>2017-05-14T08:14:43.000Z</time>
      </trkpt>
      <trkpt lat="47.45077" lon="6.7058">
        <ele>458.7</ele>
        <time>2017-05-14T08:14:44.000Z</time>
      </trkpt>
      <trkpt lat="47.45079" lon="6.70578">
        <ele>458.4</ele>
        <time>2017-05-14T08:14:46.000Z</time>
      </trkpt>
      <trkpt lat="47.45081" lon="6.70575">
        <ele>458.4</ele>
        <time>2017-05-14T08:14:47.000Z</time>
      </trkpt>
      <trkpt lat="47.45083" lon="6.70571">
        <ele>458.3</ele>
        <time>2017-05-14T08:14:49.000Z</time>
      </trkpt>
      <trkpt lat="47.45083" lon="6.70569">
        <ele>458.4</ele>
        <time>2017-05-14T08:14:50.000Z</time>
      </trkpt>
      <trkpt lat="47.45085" lon="6.70564">
        <ele>458.4</ele>
        <time>2017-05-14T08:14:52.000Z</time>
      </trkpt>
      <trkpt lat="47.45086" lon="6.70561">
        <ele>458.4</ele>
        <time>2017-05-14T08:14:53.000Z</time>
      </trkpt>
      <trkpt lat="47.45089" lon="6.70557">
        <ele>458.8</ele>
        <time>2017-05-14T08:14:57.000Z</time>
      </trkpt>
      <trkpt lat="47.4509" lon="6.70556">
        <ele>458.9</ele>
        <time>2017-05-14T08:14:58.000Z</time>
      </trkpt>
      <trkpt lat="47.45093" lon="6.70551">
        <ele>458.9</ele>
        <time>2017-05-14T08:14:59.000Z</time>
      </trkpt>
      <trkpt lat="47.45094" lon="6.70549">
        <ele>458.9</ele>
        <time>2017-05-14T08:15:00.000Z</time>
      </trkpt>
      <trkpt lat="47.45096" lon="6.70544">
        <ele>458.9</ele>
        <time>2017-05-14T08:15:01.000Z</time>
      </trkpt>
      <trkpt lat="47.45097" lon="6.70543">
        <ele>458.9</ele>
        <time>2017-05-14T08:15:02.000Z</time>
      </trkpt>
      <trkpt lat="47.451" lon="6.70538">
        <ele>459.3</ele>
        <time>2017-05-14T08:15:08.000Z</time>
      </trkpt>
      <trkpt lat="47.451" lon="6.70536">
        <ele>459.4</ele>
        <time>2017-05-14T08:15:09.000Z</time>
      </trkpt>
      <trkpt lat="47.45103" lon="6.70532">
        <ele>459.6</ele>
        <time>2017-05-14T08:15:10.000Z</time>
      </trkpt>
      <trkpt lat="47.45104" lon="6.70531">
        <ele>459.8</ele>
        <time>2017-05-14T08:15:11.000Z</time>
      </trkpt>
      <trkpt lat="47.45108" lon="6.70528">
        <ele>460.1</ele>
        <time>2017-05-14T08:15:14.000Z</time>
      </trkpt>
      <trkpt lat="47.45109" lon="6.70527">
        <ele>460.3</ele>
        <time>2017-05-14T08:15:15.000Z</time>
      </trkpt>
      <trkpt lat="47.4511" lon="6.70524">
        <ele>460.4</ele>
        <time>2017-05-14T08:15:17.000Z</time>
      </trkpt>
      <trkpt lat="47.45111" lon="6.7052">
        <ele>460.4</ele>
        <time>2017-05-14T08:15:18.000Z</time>
      </trkpt>
      <trkpt lat="47.45113" lon="6.70518">
        <ele>460.6</ele>
        <time>2017-05-14T08:15:21.000Z</time>
      </trkpt>
      <trkpt lat="47.45117" lon="6.70517">
        <ele>460.6</ele>
        <time>2017-05-14T08:15:22.000Z</time>
      </trkpt>
      <trkpt lat="47.45121" lon="6.70514">
        <ele>460.7</ele>
        <time>2017-05-14T08:15:24.000Z</time>
      </trkpt>
      <trkpt lat="47.45124" lon="6.70513">
        <ele>460.8</ele>
        <time>2017-05-14T08:15:25.000Z</time>
      </trkpt>
      <trkpt lat="47.45126" lon="6.70511">
        <ele>460.7</ele>
        <time>2017-05-14T08:15:26.000Z</time>
      </trkpt>
      <trkpt lat="47.45128" lon="6.7051">
        <ele>460.8</ele>
        <time>2017-05-14T08:15:27.000Z</time>
      </trkpt>
      <trkpt lat="47.45132" lon="6.70507">
        <ele>460.7</ele>
        <time>2017-05-14T08:15:29.000Z</time>
      </trkpt>
      <trkpt lat="47.45135" lon="6.70504">
        <ele>460.5</ele>
        <time>2017-05-14T08:15:30.000Z</time>
      </trkpt>
      <trkpt lat="47.45139" lon="6.70501">
        <ele>460.3</ele>
        <time>2017-05-14T08:15:31.000Z</time>
      </trkpt>
      <trkpt lat="47.45142" lon="6.70499">
        <ele>460.1</ele>
        <time>2017-05-14T08:15:32.000Z</time>
      </trkpt>
      <trkpt lat="47.45146" lon="6.70498">
        <ele>460.1</ele>
        <time>2017-05-14T08:15:33.000Z</time>
      </trkpt>
      <trkpt lat="47.4515" lon="6.70495">
        <ele>460</ele>
        <time>2017-05-14T08:15:34.000Z</time>
      </trkpt>
      <trkpt lat="47.45152" lon="6.70493">
        <ele>460</ele>
        <time>2017-05-14T08:15:35.000Z</time>
      </trkpt>
      <trkpt lat="47.45154" lon="6.7049">
        <ele>460</ele>
        <time>2017-05-14T08:15:36.000Z</time>
      </trkpt>
      <trkpt lat="47.45157" lon="6.70489">
        <ele>459.9</ele>
        <time>2017-05-14T08:15:37.000Z</time>
      </trkpt>
      <trkpt lat="47.45161" lon="6.70487">
        <ele>459.9</ele>
        <time>2017-05-14T08:15:39.000Z</time>
      </trkpt>
      <trkpt lat="47.45162" lon="6.70486">
        <ele>459.9</ele>
        <time>2017-05-14T08:15:40.000Z</time>
      </trkpt>
      <trkpt lat="47.45166" lon="6.70487">
        <ele>460</ele>
        <time>2017-05-14T08:15:43.000Z</time>
      </trkpt>
      <trkpt lat="47.45169" lon="6.70484">
        <ele>460</ele>
        <time>2017-05-14T08:15:44.000Z</time>
      </trkpt>
      <trkpt lat="47.45173" lon="6.70484">
        <ele>460</ele>
        <time>2017-05-14T08:15:48.000Z</time>
      </trkpt>
      <trkpt lat="47.45176" lon="6.70481">
        <ele>460.1</ele>
        <time>2017-05-14T08:15:49.000Z</time>
      </trkpt>
      <trkpt lat="47.4518" lon="6.70479">
        <ele>460.3</ele>
        <time>2017-05-14T08:15:51.000Z</time>
      </trkpt>
      <trkpt lat="47.45181" lon="6.70479">
        <ele>460.5</ele>
        <time>2017-05-14T08:15:52.000Z</time>
      </trkpt>
      <trkpt lat="47.45185" lon="6.70476">
        <ele>464.3</ele>
        <time>2017-05-14T08:16:06.000Z</time>
      </trkpt>
      <trkpt lat="47.45186" lon="6.70476">
        <ele>464.7</ele>
        <time>2017-05-14T08:16:07.000Z</time>
      </trkpt>
      <trkpt lat="47.45191" lon="6.70477">
        <ele>466.2</ele>
        <time>2017-05-14T08:16:12.000Z</time>
      </trkpt>
      <trkpt lat="47.45194" lon="6.70477">
        <ele>466.7</ele>
        <time>2017-05-14T08:16:13.000Z</time>
      </trkpt>
      <trkpt lat="47.45197" lon="6.70476">
        <ele>468</ele>
        <time>2017-05-14T08:16:18.000Z</time>
      </trkpt>
      <trkpt lat="47.452" lon="6.70476">
        <ele>468.4</ele>
        <time>2017-05-14T08:16:19.000Z</time>
      </trkpt>
      <trkpt lat="47.45204" lon="6.70473">
        <ele>468.7</ele>
        <time>2017-05-14T08:16:20.000Z</time>
      </trkpt>
      <trkpt lat="47.45209" lon="6.7047">
        <ele>468.9</ele>
        <time>2017-05-14T08:16:21.000Z</time>
      </trkpt>
      <trkpt lat="47.45213" lon="6.70468">
        <ele>469.2</ele>
        <time>2017-05-14T08:16:22.000Z</time>
      </trkpt>
      <trkpt lat="47.45217" lon="6.70468">
        <ele>469.5</ele>
        <time>2017-05-14T08:16:23.000Z</time>
      </trkpt>
      <trkpt lat="47.45221" lon="6.70468">
        <ele>469.9</ele>
        <time>2017-05-14T08:16:24.000Z</time>
      </trkpt>
      <trkpt lat="47.45225" lon="6.70466">
        <ele>470.1</ele>
        <time>2017-05-14T08:16:25.000Z</time>
      </trkpt>
      <trkpt lat="47.45227" lon="6.70463">
        <ele>470.7</ele>
        <time>2017-05-14T08:16:27.000Z</time>
      </trkpt>
      <trkpt lat="47.45228" lon="6.70461">
        <ele>471</ele>
        <time>2017-05-14T08:16:28.000Z</time>
      </trkpt>
      <trkpt lat="47.45232" lon="6.70458">
        <ele>471.3</ele>
        <time>2017-05-14T08:16:29.000Z</time>
      </trkpt>
      <trkpt lat="47.45235" lon="6.70455">
        <ele>472</ele>
        <time>2017-05-14T08:16:31.000Z</time>
      </trkpt>
      <trkpt lat="47.45238" lon="6.70451">
        <ele>472.3</ele>
        <time>2017-05-14T08:16:32.000Z</time>
      </trkpt>
      <trkpt lat="47.4524" lon="6.70449">
        <ele>472.5</ele>
        <time>2017-05-14T08:16:33.000Z</time>
      </trkpt>
      <trkpt lat="47.45242" lon="6.70446">
        <ele>472.6</ele>
        <time>2017-05-14T08:16:34.000Z</time>
      </trkpt>
      <trkpt lat="47.45245" lon="6.70443">
        <ele>472.8</ele>
        <time>2017-05-14T08:16:35.000Z</time>
      </trkpt>
      <trkpt lat="47.45246" lon="6.70442">
        <ele>472.9</ele>
        <time>2017-05-14T08:16:36.000Z</time>
      </trkpt>
      <trkpt lat="47.4525" lon="6.70439">
        <ele>473.2</ele>
        <time>2017-05-14T08:16:38.000Z</time>
      </trkpt>
      <trkpt lat="47.45251" lon="6.70438">
        <ele>473.3</ele>
        <time>2017-05-14T08:16:39.000Z</time>
      </trkpt>
      <trkpt lat="47.45254" lon="6.70436">
        <ele>473.4</ele>
        <time>2017-05-14T08:16:41.000Z</time>
      </trkpt>
      <trkpt lat="47.45256" lon="6.70433">
        <ele>473.4</ele>
        <time>2017-05-14T08:16:42.000Z</time>
      </trkpt>
      <trkpt lat="47.45258" lon="6.7043">
        <ele>473.5</ele>
        <time>2017-05-14T08:16:43.000Z</time>
      </trkpt>
      <trkpt lat="47.45261" lon="6.70429">
        <ele>473.5</ele>
        <time>2017-05-14T08:16:44.000Z</time>
      </trkpt>
      <trkpt lat="47.45264" lon="6.70426">
        <ele>473.5</ele>
        <time>2017-05-14T08:16:45.000Z</time>
      </trkpt>
      <trkpt lat="47.45267" lon="6.70423">
        <ele>473.4</ele>
        <time>2017-05-14T08:16:46.000Z</time>
      </trkpt>
      <trkpt lat="47.45269" lon="6.70418">
        <ele>473.3</ele>
        <time>2017-05-14T08:16:47.000Z</time>
      </trkpt>
      <trkpt lat="47.45271" lon="6.70414">
        <ele>473.2</ele>
        <time>2017-05-14T08:16:48.000Z</time>
      </trkpt>
      <trkpt lat="47.45274" lon="6.70411">
        <ele>473.1</ele>
        <time>2017-05-14T08:16:49.000Z</time>
      </trkpt>
      <trkpt lat="47.45276" lon="6.70406">
        <ele>473</ele>
        <time>2017-05-14T08:16:50.000Z</time>
      </trkpt>
      <trkpt lat="47.45279" lon="6.70402">
        <ele>472.9</ele>
        <time>2017-05-14T08:16:51.000Z</time>
      </trkpt>
      <trkpt lat="47.45282" lon="6.70399">
        <ele>472.8</ele>
        <time>2017-05-14T08:16:52.000Z</time>
      </trkpt>
      <trkpt lat="47.45286" lon="6.70392">
        <ele>472.2</ele>
        <time>2017-05-14T08:16:53.000Z</time>
      </trkpt>
      <trkpt lat="47.45288" lon="6.70389">
        <ele>472.1</ele>
        <time>2017-05-14T08:16:54.000Z</time>
      </trkpt>
      <trkpt lat="47.4529" lon="6.70382">
        <ele>470.7</ele>
        <time>2017-05-14T08:16:55.000Z</time>
      </trkpt>
      <trkpt lat="47.4529" lon="6.70374">
        <ele>468.5</ele>
        <time>2017-05-14T08:16:56.000Z</time>
      </trkpt>
      <trkpt lat="47.4529" lon="6.70367">
        <ele>467</ele>
        <time>2017-05-14T08:16:57.000Z</time>
      </trkpt>
      <trkpt lat="47.4529" lon="6.70361">
        <ele>466.9</ele>
        <time>2017-05-14T08:16:58.000Z</time>
      </trkpt>
      <trkpt lat="47.45289" lon="6.70355">
        <ele>466.7</ele>
        <time>2017-05-14T08:16:59.000Z</time>
      </trkpt>
      <trkpt lat="47.45288" lon="6.70348">
        <ele>466.5</ele>
        <time>2017-05-14T08:17:00.000Z</time>
      </trkpt>
      <trkpt lat="47.45289" lon="6.70341">
        <ele>465</ele>
        <time>2017-05-14T08:17:01.000Z</time>
      </trkpt>
      <trkpt lat="47.4529" lon="6.70334">
        <ele>464.8</ele>
        <time>2017-05-14T08:17:02.000Z</time>
      </trkpt>
      <trkpt lat="47.45289" lon="6.70325">
        <ele>463.1</ele>
        <time>2017-05-14T08:17:03.000Z</time>
      </trkpt>
      <trkpt lat="47.45291" lon="6.70319">
        <ele>462.9</ele>
        <time>2017-05-14T08:17:04.000Z</time>
      </trkpt>
      <trkpt lat="47.4529" lon="6.70312">
        <ele>461.2</ele>
        <time>2017-05-14T08:17:05.000Z</time>
      </trkpt>
      <trkpt lat="47.4529" lon="6.70304">
        <ele>459.4</ele>
        <time>2017-05-14T08:17:06.000Z</time>
      </trkpt>
      <trkpt lat="47.4529" lon="6.70297">
        <ele>458.2</ele>
        <time>2017-05-14T08:17:07.000Z</time>
      </trkpt>
      <trkpt lat="47.45291" lon="6.70289">
        <ele>456.4</ele>
        <time>2017-05-14T08:17:08.000Z</time>
      </trkpt>
      <trkpt lat="47.45291" lon="6.70283">
        <ele>454.9</ele>
        <time>2017-05-14T08:17:09.000Z</time>
      </trkpt>
      <trkpt lat="47.45291" lon="6.70278">
        <ele>454.8</ele>
        <time>2017-05-14T08:17:10.000Z</time>
      </trkpt>
      <trkpt lat="47.4529" lon="6.70274">
        <ele>454.6</ele>
        <time>2017-05-14T08:17:11.000Z</time>
      </trkpt>
      <trkpt lat="47.45289" lon="6.70269">
        <ele>454.5</ele>
        <time>2017-05-14T08:17:12.000Z</time>
      </trkpt>
      <trkpt lat="47.45288" lon="6.7026">
        <ele>454.3</ele>
        <time>2017-05-14T08:17:13.000Z</time>
      </trkpt>
      <trkpt lat="47.45288" lon="6.70251">
        <ele>454</ele>
        <time>2017-05-14T08:17:14.000Z</time>
      </trkpt>
      <trkpt lat="47.45286" lon="6.70245">
        <ele>453.7</ele>
        <time>2017-05-14T08:17:15.000Z</time>
      </trkpt>
      <trkpt lat="47.45283" lon="6.70241">
        <ele>453.3</ele>
        <time>2017-05-14T08:17:16.000Z</time>
      </trkpt>
      <trkpt lat="47.45282" lon="6.70236">
        <ele>452.9</ele>
        <time>2017-05-14T08:17:17.000Z</time>
      </trkpt>
      <trkpt lat="47.45282" lon="6.70229">
        <ele>452.5</ele>
        <time>2017-05-14T08:17:18.000Z</time>
      </trkpt>
      <trkpt lat="47.4528" lon="6.70223">
        <ele>452</ele>
        <time>2017-05-14T08:17:19.000Z</time>
      </trkpt>
      <trkpt lat="47.45279" lon="6.70215">
        <ele>451.5</ele>
        <time>2017-05-14T08:17:20.000Z</time>
      </trkpt>
      <trkpt lat="47.45278" lon="6.70207">
        <ele>451</ele>
        <time>2017-05-14T08:17:21.000Z</time>
      </trkpt>
      <trkpt lat="47.45277" lon="6.702">
        <ele>450.5</ele>
        <time>2017-05-14T08:17:22.000Z</time>
      </trkpt>
      <trkpt lat="47.45276" lon="6.70194">
        <ele>449.9</ele>
        <time>2017-05-14T08:17:23.000Z</time>
      </trkpt>
      <trkpt lat="47.45275" lon="6.70189">
        <ele>449.4</ele>
        <time>2017-05-14T08:17:24.000Z</time>
      </trkpt>
      <trkpt lat="47.45274" lon="6.70185">
        <ele>448.8</ele>
        <time>2017-05-14T08:17:25.000Z</time>
      </trkpt>
      <trkpt lat="47.45272" lon="6.70182">
        <ele>448.3</ele>
        <time>2017-05-14T08:17:26.000Z</time>
      </trkpt>
      <trkpt lat="47.45271" lon="6.70176">
        <ele>449.7</ele>
        <time>2017-05-14T08:18:15.000Z</time>
      </trkpt>
      <trkpt lat="47.45272" lon="6.70175">
        <ele>449.7</ele>
        <time>2017-05-14T08:18:16.000Z</time>
      </trkpt>
      <trkpt lat="47.45275" lon="6.70176">
        <ele>449.6</ele>
        <time>2017-05-14T08:18:18.000Z</time>
      </trkpt>
      <trkpt lat="47.45278" lon="6.70176">
        <ele>449.6</ele>
        <time>2017-05-14T08:18:19.000Z</time>
      </trkpt>
      <trkpt lat="47.45281" lon="6.70176">
        <ele>449.6</ele>
        <time>2017-05-14T08:18:20.000Z</time>
      </trkpt>
      <trkpt lat="47.45284" lon="6.70177">
        <ele>449.6</ele>
        <time>2017-05-14T08:18:21.000Z</time>
      </trkpt>
      <trkpt lat="47.45286" lon="6.70177">
        <ele>449.5</ele>
        <time>2017-05-14T08:18:22.000Z</time>
      </trkpt>
      <trkpt lat="47.45289" lon="6.70178">
        <ele>449.5</ele>
        <time>2017-05-14T08:18:23.000Z</time>
      </trkpt>
      <trkpt lat="47.45292" lon="6.7018">
        <ele>449.5</ele>
        <time>2017-05-14T08:18:24.000Z</time>
      </trkpt>
      <trkpt lat="47.45296" lon="6.7018">
        <ele>450.1</ele>
        <time>2017-05-14T08:18:25.000Z</time>
      </trkpt>
      <trkpt lat="47.45299" lon="6.70181">
        <ele>450.2</ele>
        <time>2017-05-14T08:18:26.000Z</time>
      </trkpt>
      <trkpt lat="47.45303" lon="6.70182">
        <ele>450.1</ele>
        <time>2017-05-14T08:18:27.000Z</time>
      </trkpt>
      <trkpt lat="47.45307" lon="6.70183">
        <ele>450.7</ele>
        <time>2017-05-14T08:18:28.000Z</time>
      </trkpt>
      <trkpt lat="47.45311" lon="6.70185">
        <ele>450.7</ele>
        <time>2017-05-14T08:18:29.000Z</time>
      </trkpt>
      <trkpt lat="47.45315" lon="6.70187">
        <ele>450.5</ele>
        <time>2017-05-14T08:18:30.000Z</time>
      </trkpt>
      <trkpt lat="47.45319" lon="6.70189">
        <ele>450.3</ele>
        <time>2017-05-14T08:18:31.000Z</time>
      </trkpt>
      <trkpt lat="47.45324" lon="6.70191">
        <ele>450.6</ele>
        <time>2017-05-14T08:18:32.000Z</time>
      </trkpt>
      <trkpt lat="47.45327" lon="6.70196">
        <ele>450.6</ele>
        <time>2017-05-14T08:18:33.000Z</time>
      </trkpt>
      <trkpt lat="47.45331" lon="6.70201">
        <ele>451.9</ele>
        <time>2017-05-14T08:18:34.000Z</time>
      </trkpt>
      <trkpt lat="47.45335" lon="6.70207">
        <ele>452.2</ele>
        <time>2017-05-14T08:18:35.000Z</time>
      </trkpt>
      <trkpt lat="47.45338" lon="6.70214">
        <ele>451.9</ele>
        <time>2017-05-14T08:18:36.000Z</time>
      </trkpt>
      <trkpt lat="47.45342" lon="6.70221">
        <ele>450.3</ele>
        <time>2017-05-14T08:18:37.000Z</time>
      </trkpt>
      <trkpt lat="47.45345" lon="6.70228">
        <ele>448.5</ele>
        <time>2017-05-14T08:18:38.000Z</time>
      </trkpt>
      <trkpt lat="47.45352" lon="6.70233">
        <ele>446.9</ele>
        <time>2017-05-14T08:18:39.000Z</time>
      </trkpt>
      <trkpt lat="47.45356" lon="6.70241">
        <ele>445.8</ele>
        <time>2017-05-14T08:18:40.000Z</time>
      </trkpt>
      <trkpt lat="47.4536" lon="6.70247">
        <ele>445.1</ele>
        <time>2017-05-14T08:18:41.000Z</time>
      </trkpt>
      <trkpt lat="47.45365" lon="6.70251">
        <ele>444.3</ele>
        <time>2017-05-14T08:18:42.000Z</time>
      </trkpt>
      <trkpt lat="47.45369" lon="6.70254">
        <ele>443.2</ele>
        <time>2017-05-14T08:18:43.000Z</time>
      </trkpt>
      <trkpt lat="47.45377" lon="6.70256">
        <ele>443.1</ele>
        <time>2017-05-14T08:18:44.000Z</time>
      </trkpt>
      <trkpt lat="47.45379" lon="6.70255">
        <ele>442.9</ele>
        <time>2017-05-14T08:18:45.000Z</time>
      </trkpt>
      <trkpt lat="47.45383" lon="6.70252">
        <ele>440.6</ele>
        <time>2017-05-14T08:18:46.000Z</time>
      </trkpt>
      <trkpt lat="47.45388" lon="6.70248">
        <ele>438.3</ele>
        <time>2017-05-14T08:18:47.000Z</time>
      </trkpt>
      <trkpt lat="47.45392" lon="6.70245">
        <ele>436.3</ele>
        <time>2017-05-14T08:18:48.000Z</time>
      </trkpt>
      <trkpt lat="47.45393" lon="6.70241">
        <ele>436.3</ele>
        <time>2017-05-14T08:18:51.000Z</time>
      </trkpt>
      <trkpt lat="47.45392" lon="6.70235">
        <ele>436.4</ele>
        <time>2017-05-14T08:18:52.000Z</time>
      </trkpt>
      <trkpt lat="47.45394" lon="6.70227">
        <ele>436.5</ele>
        <time>2017-05-14T08:18:53.000Z</time>
      </trkpt>
      <trkpt lat="47.45396" lon="6.70223">
        <ele>436.6</ele>
        <time>2017-05-14T08:18:54.000Z</time>
      </trkpt>
      <trkpt lat="47.45396" lon="6.70221">
        <ele>436.7</ele>
        <time>2017-05-14T08:18:55.000Z</time>
      </trkpt>
      <trkpt lat="47.45397" lon="6.70218">
        <ele>436.8</ele>
        <time>2017-05-14T08:18:56.000Z</time>
      </trkpt>
      <trkpt lat="47.45397" lon="6.70214">
        <ele>436.8</ele>
        <time>2017-05-14T08:18:57.000Z</time>
      </trkpt>
      <trkpt lat="47.45397" lon="6.70209">
        <ele>436.8</ele>
        <time>2017-05-14T08:18:58.000Z</time>
      </trkpt>
      <trkpt lat="47.45399" lon="6.70202">
        <ele>436.9</ele>
        <time>2017-05-14T08:18:59.000Z</time>
      </trkpt>
      <trkpt lat="47.45399" lon="6.70197">
        <ele>436.8</ele>
        <time>2017-05-14T08:19:00.000Z</time>
      </trkpt>
      <trkpt lat="47.45398" lon="6.70192">
        <ele>436.9</ele>
        <time>2017-05-14T08:19:01.000Z</time>
      </trkpt>
      <trkpt lat="47.45397" lon="6.70186">
        <ele>436.8</ele>
        <time>2017-05-14T08:19:02.000Z</time>
      </trkpt>
      <trkpt lat="47.45395" lon="6.70181">
        <ele>436.7</ele>
        <time>2017-05-14T08:19:03.000Z</time>
      </trkpt>
      <trkpt lat="47.45392" lon="6.70174">
        <ele>436</ele>
        <time>2017-05-14T08:19:04.000Z</time>
      </trkpt>
      <trkpt lat="47.45389" lon="6.70166">
        <ele>435.3</ele>
        <time>2017-05-14T08:19:05.000Z</time>
      </trkpt>
      <trkpt lat="47.45385" lon="6.7016">
        <ele>435.6</ele>
        <time>2017-05-14T08:19:06.000Z</time>
      </trkpt>
      <trkpt lat="47.45381" lon="6.70154">
        <ele>434.5</ele>
        <time>2017-05-14T08:19:07.000Z</time>
      </trkpt>
      <trkpt lat="47.45377" lon="6.70149">
        <ele>433.2</ele>
        <time>2017-05-14T08:19:08.000Z</time>
      </trkpt>
      <trkpt lat="47.45372" lon="6.70145">
        <ele>431.8</ele>
        <time>2017-05-14T08:19:09.000Z</time>
      </trkpt>
      <trkpt lat="47.45368" lon="6.70141">
        <ele>431.1</ele>
        <time>2017-05-14T08:19:10.000Z</time>
      </trkpt>
      <trkpt lat="47.45364" lon="6.70137">
        <ele>430.1</ele>
        <time>2017-05-14T08:19:11.000Z</time>
      </trkpt>
      <trkpt lat="47.45362" lon="6.70134">
        <ele>430</ele>
        <time>2017-05-14T08:19:12.000Z</time>
      </trkpt>
      <trkpt lat="47.45358" lon="6.7013">
        <ele>429</ele>
        <time>2017-05-14T08:19:13.000Z</time>
      </trkpt>
      <trkpt lat="47.45355" lon="6.70126">
        <ele>427.7</ele>
        <time>2017-05-14T08:19:14.000Z</time>
      </trkpt>
      <trkpt lat="47.45351" lon="6.70121">
        <ele>426.6</ele>
        <time>2017-05-14T08:19:15.000Z</time>
      </trkpt>
      <trkpt lat="47.45348" lon="6.70115">
        <ele>425.5</ele>
        <time>2017-05-14T08:19:16.000Z</time>
      </trkpt>
      <trkpt lat="47.45343" lon="6.7011">
        <ele>425.1</ele>
        <time>2017-05-14T08:19:17.000Z</time>
      </trkpt>
      <trkpt lat="47.45339" lon="6.70105">
        <ele>423.7</ele>
        <time>2017-05-14T08:19:18.000Z</time>
      </trkpt>
      <trkpt lat="47.45335" lon="6.70098">
        <ele>420.7</ele>
        <time>2017-05-14T08:19:19.000Z</time>
      </trkpt>
      <trkpt lat="47.45332" lon="6.7009">
        <ele>419.5</ele>
        <time>2017-05-14T08:19:20.000Z</time>
      </trkpt>
      <trkpt lat="47.45329" lon="6.70083">
        <ele>417.9</ele>
        <time>2017-05-14T08:19:21.000Z</time>
      </trkpt>
      <trkpt lat="47.45325" lon="6.70077">
        <ele>416.4</ele>
        <time>2017-05-14T08:19:22.000Z</time>
      </trkpt>
      <trkpt lat="47.45321" lon="6.7007">
        <ele>416</ele>
        <time>2017-05-14T08:19:23.000Z</time>
      </trkpt>
      <trkpt lat="47.45317" lon="6.70062">
        <ele>414.2</ele>
        <time>2017-05-14T08:19:24.000Z</time>
      </trkpt>
      <trkpt lat="47.45314" lon="6.70053">
        <ele>413.2</ele>
        <time>2017-05-14T08:19:25.000Z</time>
      </trkpt>
      <trkpt lat="47.4531" lon="6.70043">
        <ele>412.8</ele>
        <time>2017-05-14T08:19:26.000Z</time>
      </trkpt>
      <trkpt lat="47.45305" lon="6.70031">
        <ele>412.4</ele>
        <time>2017-05-14T08:19:27.000Z</time>
      </trkpt>
      <trkpt lat="47.453" lon="6.70018">
        <ele>413.5</ele>
        <time>2017-05-14T08:19:28.000Z</time>
      </trkpt>
      <trkpt lat="47.45295" lon="6.70006">
        <ele>414.4</ele>
        <time>2017-05-14T08:19:29.000Z</time>
      </trkpt>
      <trkpt lat="47.4529" lon="6.69996">
        <ele>415.1</ele>
        <time>2017-05-14T08:19:30.000Z</time>
      </trkpt>
      <trkpt lat="47.45286" lon="6.69987">
        <ele>416.8</ele>
        <time>2017-05-14T08:19:31.000Z</time>
      </trkpt>
      <trkpt lat="47.4528" lon="6.69977">
        <ele>417.8</ele>
        <time>2017-05-14T08:19:32.000Z</time>
      </trkpt>
      <trkpt lat="47.45274" lon="6.69969">
        <ele>418.1</ele>
        <time>2017-05-14T08:19:33.000Z</time>
      </trkpt>
      <trkpt lat="47.4527" lon="6.69963">
        <ele>417.7</ele>
        <time>2017-05-14T08:19:34.000Z</time>
      </trkpt>
      <trkpt lat="47.45265" lon="6.69956">
        <ele>416.9</ele>
        <time>2017-05-14T08:19:35.000Z</time>
      </trkpt>
      <trkpt lat="47.4526" lon="6.69949">
        <ele>416.8</ele>
        <time>2017-05-14T08:19:36.000Z</time>
      </trkpt>
      <trkpt lat="47.45255" lon="6.69941">
        <ele>416.1</ele>
        <time>2017-05-14T08:19:37.000Z</time>
      </trkpt>
      <trkpt lat="47.45252" lon="6.69933">
        <ele>415.3</ele>
        <time>2017-05-14T08:19:38.000Z</time>
      </trkpt>
      <trkpt lat="47.45248" lon="6.69924">
        <ele>414.4</ele>
        <time>2017-05-14T08:19:39.000Z</time>
      </trkpt>
      <trkpt lat="47.45246" lon="6.69919">
        <ele>413.6</ele>
        <time>2017-05-14T08:19:40.000Z</time>
      </trkpt>
      <trkpt lat="47.45244" lon="6.69913">
        <ele>413.5</ele>
        <time>2017-05-14T08:19:41.000Z</time>
      </trkpt>
      <trkpt lat="47.45241" lon="6.69906">
        <ele>412.4</ele>
        <time>2017-05-14T08:19:42.000Z</time>
      </trkpt>
      <trkpt lat="47.45238" lon="6.699">
        <ele>411.6</ele>
        <time>2017-05-14T08:19:43.000Z</time>
      </trkpt>
      <trkpt lat="47.45234" lon="6.69894">
        <ele>410.5</ele>
        <time>2017-05-14T08:19:44.000Z</time>
      </trkpt>
      <trkpt lat="47.45229" lon="6.69887">
        <ele>408.7</ele>
        <time>2017-05-14T08:19:45.000Z</time>
      </trkpt>
      <trkpt lat="47.45225" lon="6.6988">
        <ele>407.8</ele>
        <time>2017-05-14T08:19:46.000Z</time>
      </trkpt>
      <trkpt lat="47.45221" lon="6.69872">
        <ele>408</ele>
        <time>2017-05-14T08:19:47.000Z</time>
      </trkpt>
      <trkpt lat="47.45217" lon="6.69865">
        <ele>408.1</ele>
        <time>2017-05-14T08:19:48.000Z</time>
      </trkpt>
      <trkpt lat="47.45214" lon="6.69857">
        <ele>408.4</ele>
        <time>2017-05-14T08:19:49.000Z</time>
      </trkpt>
      <trkpt lat="47.4521" lon="6.69848">
        <ele>408.9</ele>
        <time>2017-05-14T08:19:50.000Z</time>
      </trkpt>
      <trkpt lat="47.45206" lon="6.6984">
        <ele>409.4</ele>
        <time>2017-05-14T08:19:51.000Z</time>
      </trkpt>
      <trkpt lat="47.45203" lon="6.69834">
        <ele>410</ele>
        <time>2017-05-14T08:19:52.000Z</time>
      </trkpt>
      <trkpt lat="47.45201" lon="6.69829">
        <ele>410.1</ele>
        <time>2017-05-14T08:19:56.000Z</time>
      </trkpt>
      <trkpt lat="47.452" lon="6.69826">
        <ele>410.1</ele>
        <time>2017-05-14T08:19:57.000Z</time>
      </trkpt>
      <trkpt lat="47.45198" lon="6.69823">
        <ele>410.1</ele>
        <time>2017-05-14T08:19:58.000Z</time>
      </trkpt>
      <trkpt lat="47.45197" lon="6.69819">
        <ele>410.1</ele>
        <time>2017-05-14T08:19:59.000Z</time>
      </trkpt>
      <trkpt lat="47.45195" lon="6.69814">
        <ele>410.3</ele>
        <time>2017-05-14T08:20:01.000Z</time>
      </trkpt>
      <trkpt lat="47.45195" lon="6.69812">
        <ele>410.4</ele>
        <time>2017-05-14T08:20:02.000Z</time>
      </trkpt>
      <trkpt lat="47.45195" lon="6.69812">
        <ele>410.1</ele>
        <time>2017-05-14T08:20:08.000Z</time>
      </trkpt>
      <trkpt lat="47.45191" lon="6.69798">
        <ele>410.1</ele>
        <time>2017-05-14T08:20:09.000Z</time>
      </trkpt>
      <trkpt lat="47.4519" lon="6.69795">
        <ele>410</ele>
        <time>2017-05-14T08:20:10.000Z</time>
      </trkpt>
      <trkpt lat="47.45189" lon="6.69792">
        <ele>409.9</ele>
        <time>2017-05-14T08:20:11.000Z</time>
      </trkpt>
      <trkpt lat="47.45187" lon="6.69786">
        <ele>409.8</ele>
        <time>2017-05-14T08:20:13.000Z</time>
      </trkpt>
      <trkpt lat="47.45185" lon="6.69783">
        <ele>409.7</ele>
        <time>2017-05-14T08:20:14.000Z</time>
      </trkpt>
      <trkpt lat="47.45184" lon="6.6978">
        <ele>409.6</ele>
        <time>2017-05-14T08:20:15.000Z</time>
      </trkpt>
      <trkpt lat="47.45183" lon="6.69776">
        <ele>409.6</ele>
        <time>2017-05-14T08:20:16.000Z</time>
      </trkpt>
      <trkpt lat="47.45182" lon="6.69772">
        <ele>409.5</ele>
        <time>2017-05-14T08:20:17.000Z</time>
      </trkpt>
      <trkpt lat="47.4518" lon="6.69769">
        <ele>409.5</ele>
        <time>2017-05-14T08:20:18.000Z</time>
      </trkpt>
      <trkpt lat="47.45178" lon="6.69764">
        <ele>409.4</ele>
        <time>2017-05-14T08:20:19.000Z</time>
      </trkpt>
      <trkpt lat="47.45178" lon="6.69762">
        <ele>409.3</ele>
        <time>2017-05-14T08:20:20.000Z</time>
      </trkpt>
      <trkpt lat="47.45175" lon="6.69756">
        <ele>409.1</ele>
        <time>2017-05-14T08:20:22.000Z</time>
      </trkpt>
      <trkpt lat="47.45173" lon="6.69752">
        <ele>408.8</ele>
        <time>2017-05-14T08:20:23.000Z</time>
      </trkpt>
      <trkpt lat="47.45172" lon="6.69748">
        <ele>408.6</ele>
        <time>2017-05-14T08:20:24.000Z</time>
      </trkpt>
      <trkpt lat="47.45171" lon="6.69744">
        <ele>408.3</ele>
        <time>2017-05-14T08:20:25.000Z</time>
      </trkpt>
      <trkpt lat="47.45171" lon="6.69738">
        <ele>407.9</ele>
        <time>2017-05-14T08:20:27.000Z</time>
      </trkpt>
      <trkpt lat="47.45171" lon="6.69737">
        <ele>407.8</ele>
        <time>2017-05-14T08:20:28.000Z</time>
      </trkpt>
      <trkpt lat="47.45174" lon="6.69737">
        <ele>407.2</ele>
        <time>2017-05-14T08:21:07.000Z</time>
      </trkpt>
      <trkpt lat="47.4518" lon="6.69737">
        <ele>407.2</ele>
        <time>2017-05-14T08:21:08.000Z</time>
      </trkpt>
      <trkpt lat="47.4518" lon="6.69737">
        <ele>407.2</ele>
        <time>2017-05-14T08:21:24.000Z</time>
      </trkpt>
      <trkpt lat="47.45193" lon="6.69742">
        <ele>407.2</ele>
        <time>2017-05-14T08:21:25.000Z</time>
      </trkpt>
      <trkpt lat="47.45197" lon="6.69745">
        <ele>407.2</ele>
        <time>2017-05-14T08:21:26.000Z</time>
      </trkpt>
      <trkpt lat="47.45199" lon="6.69747">
        <ele>407.2</ele>
        <time>2017-05-14T08:21:27.000Z</time>
      </trkpt>
      <trkpt lat="47.45201" lon="6.69749">
        <ele>407.1</ele>
        <time>2017-05-14T08:21:28.000Z</time>
      </trkpt>
      <trkpt lat="47.45203" lon="6.69751">
        <ele>407</ele>
        <time>2017-05-14T08:21:29.000Z</time>
      </trkpt>
      <trkpt lat="47.45205" lon="6.69752">
        <ele>406.9</ele>
        <time>2017-05-14T08:21:30.000Z</time>
      </trkpt>
      <trkpt lat="47.45208" lon="6.69755">
        <ele>406.8</ele>
        <time>2017-05-14T08:21:31.000Z</time>
      </trkpt>
      <trkpt lat="47.45209" lon="6.69758">
        <ele>406.6</ele>
        <time>2017-05-14T08:21:32.000Z</time>
      </trkpt>
      <trkpt lat="47.45212" lon="6.69761">
        <ele>406.5</ele>
        <time>2017-05-14T08:21:33.000Z</time>
      </trkpt>
      <trkpt lat="47.45215" lon="6.69765">
        <ele>406.4</ele>
        <time>2017-05-14T08:21:34.000Z</time>
      </trkpt>
      <trkpt lat="47.45218" lon="6.69769">
        <ele>406.2</ele>
        <time>2017-05-14T08:21:35.000Z</time>
      </trkpt>
      <trkpt lat="47.45221" lon="6.69772">
        <ele>406</ele>
        <time>2017-05-14T08:21:36.000Z</time>
      </trkpt>
      <trkpt lat="47.45223" lon="6.69776">
        <ele>405.9</ele>
        <time>2017-05-14T08:21:37.000Z</time>
      </trkpt>
      <trkpt lat="47.45227" lon="6.69781">
        <ele>405.8</ele>
        <time>2017-05-14T08:21:38.000Z</time>
      </trkpt>
      <trkpt lat="47.45229" lon="6.69784">
        <ele>405.6</ele>
        <time>2017-05-14T08:21:39.000Z</time>
      </trkpt>
      <trkpt lat="47.45232" lon="6.69788">
        <ele>405.4</ele>
        <time>2017-05-14T08:21:40.000Z</time>
      </trkpt>
      <trkpt lat="47.45234" lon="6.69791">
        <ele>405.2</ele>
        <time>2017-05-14T08:21:41.000Z</time>
      </trkpt>
      <trkpt lat="47.45235" lon="6.69794">
        <ele>405</ele>
        <time>2017-05-14T08:21:42.000Z</time>
      </trkpt>
      <trkpt lat="47.45238" lon="6.69798">
        <ele>404.8</ele>
        <time>2017-05-14T08:21:43.000Z</time>
      </trkpt>
      <trkpt lat="47.45241" lon="6.69801">
        <ele>404.7</ele>
        <time>2017-05-14T08:21:44.000Z</time>
      </trkpt>
      <trkpt lat="47.45243" lon="6.69804">
        <ele>404.6</ele>
        <time>2017-05-14T08:21:45.000Z</time>
      </trkpt>
      <trkpt lat="47.45245" lon="6.69808">
        <ele>404.5</ele>
        <time>2017-05-14T08:21:46.000Z</time>
      </trkpt>
      <trkpt lat="47.45247" lon="6.69812">
        <ele>404.5</ele>
        <time>2017-05-14T08:21:47.000Z</time>
      </trkpt>
      <trkpt lat="47.45249" lon="6.69816">
        <ele>404.5</ele>
        <time>2017-05-14T08:21:48.000Z</time>
      </trkpt>
      <trkpt lat="47.45251" lon="6.6982">
        <ele>404.4</ele>
        <time>2017-05-14T08:21:49.000Z</time>
      </trkpt>
      <trkpt lat="47.45254" lon="6.69824">
        <ele>404.3</ele>
        <time>2017-05-14T08:21:50.000Z</time>
      </trkpt>
      <trkpt lat="47.45255" lon="6.69829">
        <ele>404.3</ele>
        <time>2017-05-14T08:21:51.000Z</time>
      </trkpt>
      <trkpt lat="47.45257" lon="6.69833">
        <ele>404.2</ele>
        <time>2017-05-14T08:21:52.000Z</time>
      </trkpt>
      <trkpt lat="47.45259" lon="6.69836">
        <ele>404.2</ele>
        <time>2017-05-14T08:21:53.000Z</time>
      </trkpt>
      <trkpt lat="47.45261" lon="6.69837">
        <ele>404.2</ele>
        <time>2017-05-14T08:21:54.000Z</time>
      </trkpt>
      <trkpt lat="47.45262" lon="6.69841">
        <ele>404.2</ele>
        <time>2017-05-14T08:21:55.000Z</time>
      </trkpt>
      <trkpt lat="47.45265" lon="6.69844">
        <ele>404.1</ele>
        <time>2017-05-14T08:21:56.000Z</time>
      </trkpt>
      <trkpt lat="47.45267" lon="6.69848">
        <ele>404</ele>
        <time>2017-05-14T08:21:57.000Z</time>
      </trkpt>
      <trkpt lat="47.45269" lon="6.69851">
        <ele>404</ele>
        <time>2017-05-14T08:21:58.000Z</time>
      </trkpt>
      <trkpt lat="47.45272" lon="6.69855">
        <ele>403.9</ele>
        <time>2017-05-14T08:21:59.000Z</time>
      </trkpt>
      <trkpt lat="47.45274" lon="6.69858">
        <ele>403.8</ele>
        <time>2017-05-14T08:22:00.000Z</time>
      </trkpt>
      <trkpt lat="47.45277" lon="6.69861">
        <ele>403.7</ele>
        <time>2017-05-14T08:22:01.000Z</time>
      </trkpt>
      <trkpt lat="47.45281" lon="6.69865">
        <ele>403.6</ele>
        <time>2017-05-14T08:22:02.000Z</time>
      </trkpt>
      <trkpt lat="47.45284" lon="6.69869">
        <ele>403.5</ele>
        <time>2017-05-14T08:22:03.000Z</time>
      </trkpt>
      <trkpt lat="47.45287" lon="6.69871">
        <ele>403.4</ele>
        <time>2017-05-14T08:22:04.000Z</time>
      </trkpt>
      <trkpt lat="47.4529" lon="6.69875">
        <ele>403.3</ele>
        <time>2017-05-14T08:22:05.000Z</time>
      </trkpt>
      <trkpt lat="47.45293" lon="6.69878">
        <ele>403.2</ele>
        <time>2017-05-14T08:22:06.000Z</time>
      </trkpt>
      <trkpt lat="47.45296" lon="6.69881">
        <ele>403</ele>
        <time>2017-05-14T08:22:07.000Z</time>
      </trkpt>
      <trkpt lat="47.45298" lon="6.69883">
        <ele>402.9</ele>
        <time>2017-05-14T08:22:08.000Z</time>
      </trkpt>
      <trkpt lat="47.453" lon="6.69886">
        <ele>402.8</ele>
        <time>2017-05-14T08:22:09.000Z</time>
      </trkpt>
      <trkpt lat="47.45303" lon="6.69889">
        <ele>402.6</ele>
        <time>2017-05-14T08:22:10.000Z</time>
      </trkpt>
      <trkpt lat="47.45305" lon="6.6989">
        <ele>402.4</ele>
        <time>2017-05-14T08:22:11.000Z</time>
      </trkpt>
      <trkpt lat="47.45309" lon="6.69891">
        <ele>402.2</ele>
        <time>2017-05-14T08:22:12.000Z</time>
      </trkpt>
      <trkpt lat="47.4531" lon="6.69895">
        <ele>402.1</ele>
        <time>2017-05-14T08:22:13.000Z</time>
      </trkpt>
      <trkpt lat="47.45314" lon="6.69896">
        <ele>401.7</ele>
        <time>2017-05-14T08:22:15.000Z</time>
      </trkpt>
      <trkpt lat="47.45317" lon="6.69894">
        <ele>401.5</ele>
        <time>2017-05-14T08:22:16.000Z</time>
      </trkpt>
      <trkpt lat="47.45321" lon="6.69891">
        <ele>401.4</ele>
        <time>2017-05-14T08:22:17.000Z</time>
      </trkpt>
      <trkpt lat="47.45325" lon="6.69888">
        <ele>401.1</ele>
        <time>2017-05-14T08:22:18.000Z</time>
      </trkpt>
      <trkpt lat="47.45328" lon="6.69885">
        <ele>400.9</ele>
        <time>2017-05-14T08:22:19.000Z</time>
      </trkpt>
      <trkpt lat="47.4533" lon="6.69885">
        <ele>400.6</ele>
        <time>2017-05-14T08:22:20.000Z</time>
      </trkpt>
      <trkpt lat="47.45332" lon="6.69885">
        <ele>400.4</ele>
        <time>2017-05-14T08:22:21.000Z</time>
      </trkpt>
      <trkpt lat="47.45334" lon="6.69883">
        <ele>400.2</ele>
        <time>2017-05-14T08:22:22.000Z</time>
      </trkpt>
      <trkpt lat="47.45337" lon="6.6988">
        <ele>400</ele>
        <time>2017-05-14T08:22:23.000Z</time>
      </trkpt>
      <trkpt lat="47.45338" lon="6.69876">
        <ele>399.8</ele>
        <time>2017-05-14T08:22:24.000Z</time>
      </trkpt>
      <trkpt lat="47.45337" lon="6.69869">
        <ele>399.5</ele>
        <time>2017-05-14T08:22:25.000Z</time>
      </trkpt>
      <trkpt lat="47.45336" lon="6.69864">
        <ele>399.4</ele>
        <time>2017-05-14T08:22:26.000Z</time>
      </trkpt>
      <trkpt lat="47.45334" lon="6.69857">
        <ele>398.9</ele>
        <time>2017-05-14T08:22:27.000Z</time>
      </trkpt>
      <trkpt lat="47.45332" lon="6.69853">
        <ele>399</ele>
        <time>2017-05-14T08:22:28.000Z</time>
      </trkpt>
      <trkpt lat="47.4533" lon="6.69849">
        <ele>398.9</ele>
        <time>2017-05-14T08:22:29.000Z</time>
      </trkpt>
      <trkpt lat="47.45328" lon="6.69845">
        <ele>398.3</ele>
        <time>2017-05-14T08:22:30.000Z</time>
      </trkpt>
      <trkpt lat="47.45326" lon="6.69838">
        <ele>398.1</ele>
        <time>2017-05-14T08:22:31.000Z</time>
      </trkpt>
      <trkpt lat="47.45323" lon="6.69832">
        <ele>397</ele>
        <time>2017-05-14T08:22:32.000Z</time>
      </trkpt>
      <trkpt lat="47.45319" lon="6.69827">
        <ele>395.7</ele>
        <time>2017-05-14T08:22:33.000Z</time>
      </trkpt>
      <trkpt lat="47.45315" lon="6.69822">
        <ele>394.6</ele>
        <time>2017-05-14T08:22:34.000Z</time>
      </trkpt>
      <trkpt lat="47.4531" lon="6.69816">
        <ele>394.1</ele>
        <time>2017-05-14T08:22:35.000Z</time>
      </trkpt>
      <trkpt lat="47.45306" lon="6.69811">
        <ele>393.3</ele>
        <time>2017-05-14T08:22:36.000Z</time>
      </trkpt>
      <trkpt lat="47.45303" lon="6.69807">
        <ele>393.1</ele>
        <time>2017-05-14T08:22:37.000Z</time>
      </trkpt>
      <trkpt lat="47.453" lon="6.698">
        <ele>393</ele>
        <time>2017-05-14T08:22:38.000Z</time>
      </trkpt>
      <trkpt lat="47.453" lon="6.69794">
        <ele>393.1</ele>
        <time>2017-05-14T08:22:39.000Z</time>
      </trkpt>
      <trkpt lat="47.45301" lon="6.69785">
        <ele>393</ele>
        <time>2017-05-14T08:22:40.000Z</time>
      </trkpt>
      <trkpt lat="47.45304" lon="6.69775">
        <ele>392.8</ele>
        <time>2017-05-14T08:22:41.000Z</time>
      </trkpt>
      <trkpt lat="47.45306" lon="6.69767">
        <ele>392.6</ele>
        <time>2017-05-14T08:22:42.000Z</time>
      </trkpt>
      <trkpt lat="47.45309" lon="6.69757">
        <ele>392.5</ele>
        <time>2017-05-14T08:22:43.000Z</time>
      </trkpt>
      <trkpt lat="47.45314" lon="6.69748">
        <ele>392.1</ele>
        <time>2017-05-14T08:22:44.000Z</time>
      </trkpt>
      <trkpt lat="47.4532" lon="6.6974">
        <ele>391.9</ele>
        <time>2017-05-14T08:22:45.000Z</time>
      </trkpt>
      <trkpt lat="47.45326" lon="6.69732">
        <ele>391.6</ele>
        <time>2017-05-14T08:22:46.000Z</time>
      </trkpt>
      <trkpt lat="47.45333" lon="6.69724">
        <ele>389.9</ele>
        <time>2017-05-14T08:22:47.000Z</time>
      </trkpt>
      <trkpt lat="47.4534" lon="6.69715">
        <ele>388.5</ele>
        <time>2017-05-14T08:22:48.000Z</time>
      </trkpt>
      <trkpt lat="47.45349" lon="6.69705">
        <ele>386.8</ele>
        <time>2017-05-14T08:22:49.000Z</time>
      </trkpt>
      <trkpt lat="47.45358" lon="6.69694">
        <ele>385.4</ele>
        <time>2017-05-14T08:22:50.000Z</time>
      </trkpt>
      <trkpt lat="47.45367" lon="6.69684">
        <ele>383.7</ele>
        <time>2017-05-14T08:22:51.000Z</time>
      </trkpt>
      <trkpt lat="47.45375" lon="6.69674">
        <ele>381.7</ele>
        <time>2017-05-14T08:22:52.000Z</time>
      </trkpt>
      <trkpt lat="47.45383" lon="6.69664">
        <ele>379.9</ele>
        <time>2017-05-14T08:22:53.000Z</time>
      </trkpt>
      <trkpt lat="47.45391" lon="6.69656">
        <ele>378.5</ele>
        <time>2017-05-14T08:22:54.000Z</time>
      </trkpt>
      <trkpt lat="47.45399" lon="6.69649">
        <ele>376.5</ele>
        <time>2017-05-14T08:22:55.000Z</time>
      </trkpt>
      <trkpt lat="47.45406" lon="6.69641">
        <ele>374.7</ele>
        <time>2017-05-14T08:22:56.000Z</time>
      </trkpt>
      <trkpt lat="47.45412" lon="6.69635">
        <ele>372.8</ele>
        <time>2017-05-14T08:22:57.000Z</time>
      </trkpt>
      <trkpt lat="47.45417" lon="6.69629">
        <ele>371.5</ele>
        <time>2017-05-14T08:22:58.000Z</time>
      </trkpt>
      <trkpt lat="47.45422" lon="6.69623">
        <ele>370.8</ele>
        <time>2017-05-14T08:22:59.000Z</time>
      </trkpt>
      <trkpt lat="47.45427" lon="6.69618">
        <ele>370</ele>
        <time>2017-05-14T08:23:00.000Z</time>
      </trkpt>
      <trkpt lat="47.4543" lon="6.69615">
        <ele>369.8</ele>
        <time>2017-05-14T08:23:01.000Z</time>
      </trkpt>
      <trkpt lat="47.45433" lon="6.69613">
        <ele>369.7</ele>
        <time>2017-05-14T08:23:02.000Z</time>
      </trkpt>
      <trkpt lat="47.45435" lon="6.69611">
        <ele>369.6</ele>
        <time>2017-05-14T08:23:03.000Z</time>
      </trkpt>
      <trkpt lat="47.45437" lon="6.69608">
        <ele>369.4</ele>
        <time>2017-05-14T08:23:04.000Z</time>
      </trkpt>
      <trkpt lat="47.45437" lon="6.69608">
        <ele>368.8</ele>
        <time>2017-05-14T08:23:26.000Z</time>
      </trkpt>
      <trkpt lat="47.45446" lon="6.6961">
        <ele>368.7</ele>
        <time>2017-05-14T08:23:27.000Z</time>
      </trkpt>
      <trkpt lat="47.45449" lon="6.69613">
        <ele>368.4</ele>
        <time>2017-05-14T08:23:28.000Z</time>
      </trkpt>
      <trkpt lat="47.45451" lon="6.69616">
        <ele>368.2</ele>
        <time>2017-05-14T08:23:29.000Z</time>
      </trkpt>
      <trkpt lat="47.45453" lon="6.6962">
        <ele>368</ele>
        <time>2017-05-14T08:23:30.000Z</time>
      </trkpt>
      <trkpt lat="47.45454" lon="6.69623">
        <ele>367.8</ele>
        <time>2017-05-14T08:23:31.000Z</time>
      </trkpt>
      <trkpt lat="47.45457" lon="6.69627">
        <ele>367.6</ele>
        <time>2017-05-14T08:23:32.000Z</time>
      </trkpt>
      <trkpt lat="47.45459" lon="6.69631">
        <ele>367.5</ele>
        <time>2017-05-14T08:23:33.000Z</time>
      </trkpt>
      <trkpt lat="47.45462" lon="6.69635">
        <ele>367.3</ele>
        <time>2017-05-14T08:23:34.000Z</time>
      </trkpt>
      <trkpt lat="47.45465" lon="6.6964">
        <ele>365.7</ele>
        <time>2017-05-14T08:23:35.000Z</time>
      </trkpt>
      <trkpt lat="47.45468" lon="6.69644">
        <ele>364.1</ele>
        <time>2017-05-14T08:23:36.000Z</time>
      </trkpt>
      <trkpt lat="47.45471" lon="6.69648">
        <ele>364</ele>
        <time>2017-05-14T08:23:37.000Z</time>
      </trkpt>
      <trkpt lat="47.45474" lon="6.69652">
        <ele>363.8</ele>
        <time>2017-05-14T08:23:38.000Z</time>
      </trkpt>
      <trkpt lat="47.45477" lon="6.69656">
        <ele>362.5</ele>
        <time>2017-05-14T08:23:39.000Z</time>
      </trkpt>
      <trkpt lat="47.4548" lon="6.69659">
        <ele>362.4</ele>
        <time>2017-05-14T08:23:40.000Z</time>
      </trkpt>
      <trkpt lat="47.45483" lon="6.69662">
        <ele>362.3</ele>
        <time>2017-05-14T08:23:41.000Z</time>
      </trkpt>
      <trkpt lat="47.45487" lon="6.69666">
        <ele>361.8</ele>
        <time>2017-05-14T08:23:42.000Z</time>
      </trkpt>
      <trkpt lat="47.4549" lon="6.69669">
        <ele>361.7</ele>
        <time>2017-05-14T08:23:43.000Z</time>
      </trkpt>
      <trkpt lat="47.45492" lon="6.69671">
        <ele>361.7</ele>
        <time>2017-05-14T08:23:44.000Z</time>
      </trkpt>
      <trkpt lat="47.45495" lon="6.69674">
        <ele>361.7</ele>
        <time>2017-05-14T08:23:45.000Z</time>
      </trkpt>
      <trkpt lat="47.45498" lon="6.69678">
        <ele>361.3</ele>
        <time>2017-05-14T08:23:46.000Z</time>
      </trkpt>
      <trkpt lat="47.455" lon="6.69681">
        <ele>361.2</ele>
        <time>2017-05-14T08:23:47.000Z</time>
      </trkpt>
      <trkpt lat="47.45504" lon="6.69684">
        <ele>361.2</ele>
        <time>2017-05-14T08:23:48.000Z</time>
      </trkpt>
      <trkpt lat="47.45506" lon="6.69685">
        <ele>361.2</ele>
        <time>2017-05-14T08:23:49.000Z</time>
      </trkpt>
      <trkpt lat="47.45509" lon="6.69688">
        <ele>361.2</ele>
        <time>2017-05-14T08:23:50.000Z</time>
      </trkpt>
      <trkpt lat="47.45512" lon="6.69693">
        <ele>361.1</ele>
        <time>2017-05-14T08:23:51.000Z</time>
      </trkpt>
      <trkpt lat="47.45514" lon="6.69696">
        <ele>361.1</ele>
        <time>2017-05-14T08:23:52.000Z</time>
      </trkpt>
      <trkpt lat="47.45517" lon="6.69698">
        <ele>361.1</ele>
        <time>2017-05-14T08:23:53.000Z</time>
      </trkpt>
      <trkpt lat="47.45521" lon="6.69702">
        <ele>361</ele>
        <time>2017-05-14T08:23:54.000Z</time>
      </trkpt>
      <trkpt lat="47.45523" lon="6.69704">
        <ele>361.1</ele>
        <time>2017-05-14T08:23:55.000Z</time>
      </trkpt>
      <trkpt lat="47.45526" lon="6.69705">
        <ele>361.1</ele>
        <time>2017-05-14T08:23:56.000Z</time>
      </trkpt>
      <trkpt lat="47.45528" lon="6.69707">
        <ele>361.1</ele>
        <time>2017-05-14T08:23:57.000Z</time>
      </trkpt>
      <trkpt lat="47.4553" lon="6.6971">
        <ele>361.1</ele>
        <time>2017-05-14T08:23:58.000Z</time>
      </trkpt>
      <trkpt lat="47.45533" lon="6.69713">
        <ele>361.1</ele>
        <time>2017-05-14T08:23:59.000Z</time>
      </trkpt>
      <trkpt lat="47.45535" lon="6.69715">
        <ele>361</ele>
        <time>2017-05-14T08:24:00.000Z</time>
      </trkpt>
      <trkpt lat="47.45539" lon="6.69718">
        <ele>360.9</ele>
        <time>2017-05-14T08:24:01.000Z</time>
      </trkpt>
      <trkpt lat="47.45542" lon="6.69721">
        <ele>361</ele>
        <time>2017-05-14T08:24:02.000Z</time>
      </trkpt>
      <trkpt lat="47.45546" lon="6.69724">
        <ele>361.1</ele>
        <time>2017-05-14T08:24:03.000Z</time>
      </trkpt>
      <trkpt lat="47.45549" lon="6.69726">
        <ele>361.2</ele>
        <time>2017-05-14T08:24:04.000Z</time>
      </trkpt>
      <trkpt lat="47.4555" lon="6.69729">
        <ele>361.3</ele>
        <time>2017-05-14T08:24:05.000Z</time>
      </trkpt>
      <trkpt lat="47.45553" lon="6.69731">
        <ele>361.4</ele>
        <time>2017-05-14T08:24:06.000Z</time>
      </trkpt>
      <trkpt lat="47.45556" lon="6.69733">
        <ele>361.5</ele>
        <time>2017-05-14T08:24:07.000Z</time>
      </trkpt>
      <trkpt lat="47.45558" lon="6.69734">
        <ele>361.5</ele>
        <time>2017-05-14T08:24:08.000Z</time>
      </trkpt>
      <trkpt lat="47.45561" lon="6.69735">
        <ele>361.6</ele>
        <time>2017-05-14T08:24:09.000Z</time>
      </trkpt>
      <trkpt lat="47.45564" lon="6.69737">
        <ele>361.7</ele>
        <time>2017-05-14T08:24:10.000Z</time>
      </trkpt>
      <trkpt lat="47.45567" lon="6.69739">
        <ele>361.8</ele>
        <time>2017-05-14T08:24:11.000Z</time>
      </trkpt>
      <trkpt lat="47.45569" lon="6.69741">
        <ele>361.9</ele>
        <time>2017-05-14T08:24:12.000Z</time>
      </trkpt>
      <trkpt lat="47.45572" lon="6.69743">
        <ele>361.9</ele>
        <time>2017-05-14T08:24:13.000Z</time>
      </trkpt>
      <trkpt lat="47.45574" lon="6.69745">
        <ele>361.9</ele>
        <time>2017-05-14T08:24:14.000Z</time>
      </trkpt>
      <trkpt lat="47.45577" lon="6.69748">
        <ele>362</ele>
        <time>2017-05-14T08:24:15.000Z</time>
      </trkpt>
      <trkpt lat="47.4558" lon="6.69751">
        <ele>363</ele>
        <time>2017-05-14T08:24:16.000Z</time>
      </trkpt>
      <trkpt lat="47.45583" lon="6.69753">
        <ele>363</ele>
        <time>2017-05-14T08:24:17.000Z</time>
      </trkpt>
      <trkpt lat="47.45586" lon="6.69755">
        <ele>363.1</ele>
        <time>2017-05-14T08:24:18.000Z</time>
      </trkpt>
      <trkpt lat="47.45589" lon="6.69757">
        <ele>363.2</ele>
        <time>2017-05-14T08:24:19.000Z</time>
      </trkpt>
      <trkpt lat="47.45592" lon="6.69759">
        <ele>363.3</ele>
        <time>2017-05-14T08:24:20.000Z</time>
      </trkpt>
      <trkpt lat="47.45595" lon="6.69762">
        <ele>363.4</ele>
        <time>2017-05-14T08:24:21.000Z</time>
      </trkpt>
      <trkpt lat="47.45599" lon="6.69765">
        <ele>363.5</ele>
        <time>2017-05-14T08:24:22.000Z</time>
      </trkpt>
      <trkpt lat="47.45602" lon="6.69767">
        <ele>363.5</ele>
        <time>2017-05-14T08:24:23.000Z</time>
      </trkpt>
      <trkpt lat="47.45604" lon="6.69768">
        <ele>363.6</ele>
        <time>2017-05-14T08:24:24.000Z</time>
      </trkpt>
      <trkpt lat="47.45607" lon="6.69769">
        <ele>363.6</ele>
        <time>2017-05-14T08:24:25.000Z</time>
      </trkpt>
      <trkpt lat="47.4561" lon="6.69771">
        <ele>363.6</ele>
        <time>2017-05-14T08:24:26.000Z</time>
      </trkpt>
      <trkpt lat="47.45612" lon="6.69774">
        <ele>363.7</ele>
        <time>2017-05-14T08:24:27.000Z</time>
      </trkpt>
      <trkpt lat="47.45615" lon="6.69776">
        <ele>363.9</ele>
        <time>2017-05-14T08:24:28.000Z</time>
      </trkpt>
      <trkpt lat="47.45617" lon="6.69779">
        <ele>364</ele>
        <time>2017-05-14T08:24:29.000Z</time>
      </trkpt>
      <trkpt lat="47.4562" lon="6.69781">
        <ele>364.1</ele>
        <time>2017-05-14T08:24:30.000Z</time>
      </trkpt>
      <trkpt lat="47.45622" lon="6.69784">
        <ele>364.2</ele>
        <time>2017-05-14T08:24:31.000Z</time>
      </trkpt>
      <trkpt lat="47.45624" lon="6.69787">
        <ele>364.3</ele>
        <time>2017-05-14T08:24:32.000Z</time>
      </trkpt>
      <trkpt lat="47.45627" lon="6.6979">
        <ele>364.4</ele>
        <time>2017-05-14T08:24:33.000Z</time>
      </trkpt>
      <trkpt lat="47.45631" lon="6.69794">
        <ele>364.4</ele>
        <time>2017-05-14T08:24:34.000Z</time>
      </trkpt>
      <trkpt lat="47.45634" lon="6.69798">
        <ele>364.5</ele>
        <time>2017-05-14T08:24:35.000Z</time>
      </trkpt>
      <trkpt lat="47.45637" lon="6.69803">
        <ele>364.7</ele>
        <time>2017-05-14T08:24:36.000Z</time>
      </trkpt>
      <trkpt lat="47.45639" lon="6.69806">
        <ele>364.8</ele>
        <time>2017-05-14T08:24:37.000Z</time>
      </trkpt>
      <trkpt lat="47.45642" lon="6.6981">
        <ele>364.9</ele>
        <time>2017-05-14T08:24:38.000Z</time>
      </trkpt>
      <trkpt lat="47.45644" lon="6.69815">
        <ele>365</ele>
        <time>2017-05-14T08:24:39.000Z</time>
      </trkpt>
      <trkpt lat="47.45646" lon="6.69817">
        <ele>365</ele>
        <time>2017-05-14T08:24:40.000Z</time>
      </trkpt>
      <trkpt lat="47.45648" lon="6.69822">
        <ele>365.1</ele>
        <time>2017-05-14T08:24:41.000Z</time>
      </trkpt>
      <trkpt lat="47.4565" lon="6.69826">
        <ele>365.1</ele>
        <time>2017-05-14T08:24:42.000Z</time>
      </trkpt>
      <trkpt lat="47.45652" lon="6.69829">
        <ele>365.1</ele>
        <time>2017-05-14T08:24:43.000Z</time>
      </trkpt>
      <trkpt lat="47.45654" lon="6.69833">
        <ele>365.1</ele>
        <time>2017-05-14T08:24:44.000Z</time>
      </trkpt>
      <trkpt lat="47.45657" lon="6.69837">
        <ele>365.1</ele>
        <time>2017-05-14T08:24:45.000Z</time>
      </trkpt>
      <trkpt lat="47.45659" lon="6.69841">
        <ele>365.2</ele>
        <time>2017-05-14T08:24:46.000Z</time>
      </trkpt>
      <trkpt lat="47.4566" lon="6.69844">
        <ele>365.2</ele>
        <time>2017-05-14T08:24:47.000Z</time>
      </trkpt>
      <trkpt lat="47.45663" lon="6.69848">
        <ele>365.3</ele>
        <time>2017-05-14T08:24:48.000Z</time>
      </trkpt>
      <trkpt lat="47.45665" lon="6.69852">
        <ele>365.3</ele>
        <time>2017-05-14T08:24:49.000Z</time>
      </trkpt>
      <trkpt lat="47.45667" lon="6.69855">
        <ele>365.3</ele>
        <time>2017-05-14T08:24:50.000Z</time>
      </trkpt>
      <trkpt lat="47.4567" lon="6.6986">
        <ele>365.5</ele>
        <time>2017-05-14T08:24:51.000Z</time>
      </trkpt>
      <trkpt lat="47.45672" lon="6.69863">
        <ele>365.6</ele>
        <time>2017-05-14T08:24:52.000Z</time>
      </trkpt>
      <trkpt lat="47.45674" lon="6.69869">
        <ele>365.6</ele>
        <time>2017-05-14T08:24:53.000Z</time>
      </trkpt>
      <trkpt lat="47.45677" lon="6.69874">
        <ele>365.6</ele>
        <time>2017-05-14T08:24:54.000Z</time>
      </trkpt>
      <trkpt lat="47.45679" lon="6.6988">
        <ele>365.6</ele>
        <time>2017-05-14T08:24:55.000Z</time>
      </trkpt>
      <trkpt lat="47.4568" lon="6.69884">
        <ele>365.6</ele>
        <time>2017-05-14T08:24:56.000Z</time>
      </trkpt>
      <trkpt lat="47.45681" lon="6.69888">
        <ele>365.6</ele>
        <time>2017-05-14T08:24:57.000Z</time>
      </trkpt>
      <trkpt lat="47.45683" lon="6.69893">
        <ele>365.5</ele>
        <time>2017-05-14T08:24:58.000Z</time>
      </trkpt>
      <trkpt lat="47.45684" lon="6.69897">
        <ele>365.4</ele>
        <time>2017-05-14T08:24:59.000Z</time>
      </trkpt>
      <trkpt lat="47.45685" lon="6.69901">
        <ele>365.3</ele>
        <time>2017-05-14T08:25:00.000Z</time>
      </trkpt>
      <trkpt lat="47.45687" lon="6.69906">
        <ele>365.3</ele>
        <time>2017-05-14T08:25:01.000Z</time>
      </trkpt>
      <trkpt lat="47.45688" lon="6.6991">
        <ele>365.2</ele>
        <time>2017-05-14T08:25:02.000Z</time>
      </trkpt>
      <trkpt lat="47.45689" lon="6.69915">
        <ele>365.1</ele>
        <time>2017-05-14T08:25:03.000Z</time>
      </trkpt>
      <trkpt lat="47.45691" lon="6.69919">
        <ele>364.2</ele>
        <time>2017-05-14T08:25:04.000Z</time>
      </trkpt>
      <trkpt lat="47.45692" lon="6.69924">
        <ele>364.2</ele>
        <time>2017-05-14T08:25:05.000Z</time>
      </trkpt>
      <trkpt lat="47.45694" lon="6.69929">
        <ele>364.1</ele>
        <time>2017-05-14T08:25:06.000Z</time>
      </trkpt>
      <trkpt lat="47.45695" lon="6.69934">
        <ele>363.5</ele>
        <time>2017-05-14T08:25:07.000Z</time>
      </trkpt>
      <trkpt lat="47.45698" lon="6.6994">
        <ele>363.5</ele>
        <time>2017-05-14T08:25:08.000Z</time>
      </trkpt>
      <trkpt lat="47.45699" lon="6.69945">
        <ele>363.4</ele>
        <time>2017-05-14T08:25:09.000Z</time>
      </trkpt>
      <trkpt lat="47.45701" lon="6.6995">
        <ele>363.1</ele>
        <time>2017-05-14T08:25:10.000Z</time>
      </trkpt>
      <trkpt lat="47.45703" lon="6.69957">
        <ele>363.5</ele>
        <time>2017-05-14T08:25:11.000Z</time>
      </trkpt>
      <trkpt lat="47.45705" lon="6.69962">
        <ele>364.4</ele>
        <time>2017-05-14T08:25:12.000Z</time>
      </trkpt>
      <trkpt lat="47.45707" lon="6.69968">
        <ele>365.2</ele>
        <time>2017-05-14T08:25:13.000Z</time>
      </trkpt>
      <trkpt lat="47.45708" lon="6.69973">
        <ele>365.6</ele>
        <time>2017-05-14T08:25:14.000Z</time>
      </trkpt>
      <trkpt lat="47.4571" lon="6.69978">
        <ele>365.7</ele>
        <time>2017-05-14T08:25:15.000Z</time>
      </trkpt>
      <trkpt lat="47.45711" lon="6.69983">
        <ele>365.7</ele>
        <time>2017-05-14T08:25:16.000Z</time>
      </trkpt>
      <trkpt lat="47.45713" lon="6.69988">
        <ele>365.7</ele>
        <time>2017-05-14T08:25:17.000Z</time>
      </trkpt>
      <trkpt lat="47.45715" lon="6.69993">
        <ele>365.4</ele>
        <time>2017-05-14T08:25:18.000Z</time>
      </trkpt>
      <trkpt lat="47.45717" lon="6.69998">
        <ele>365</ele>
        <time>2017-05-14T08:25:19.000Z</time>
      </trkpt>
      <trkpt lat="47.45718" lon="6.70003">
        <ele>365.1</ele>
        <time>2017-05-14T08:25:20.000Z</time>
      </trkpt>
      <trkpt lat="47.4572" lon="6.70009">
        <ele>365.2</ele>
        <time>2017-05-14T08:25:21.000Z</time>
      </trkpt>
      <trkpt lat="47.45721" lon="6.70015">
        <ele>365.2</ele>
        <time>2017-05-14T08:25:22.000Z</time>
      </trkpt>
      <trkpt lat="47.45722" lon="6.70019">
        <ele>365.3</ele>
        <time>2017-05-14T08:25:23.000Z</time>
      </trkpt>
      <trkpt lat="47.45724" lon="6.70025">
        <ele>365.4</ele>
        <time>2017-05-14T08:25:24.000Z</time>
      </trkpt>
      <trkpt lat="47.45725" lon="6.70031">
        <ele>365.5</ele>
        <time>2017-05-14T08:25:25.000Z</time>
      </trkpt>
      <trkpt lat="47.45726" lon="6.70035">
        <ele>365.5</ele>
        <time>2017-05-14T08:25:26.000Z</time>
      </trkpt>
      <trkpt lat="47.45727" lon="6.7004">
        <ele>365.5</ele>
        <time>2017-05-14T08:25:27.000Z</time>
      </trkpt>
      <trkpt lat="47.45728" lon="6.70045">
        <ele>365.6</ele>
        <time>2017-05-14T08:25:28.000Z</time>
      </trkpt>
      <trkpt lat="47.45729" lon="6.70049">
        <ele>365.5</ele>
        <time>2017-05-14T08:25:29.000Z</time>
      </trkpt>
      <trkpt lat="47.45729" lon="6.70055">
        <ele>365.5</ele>
        <time>2017-05-14T08:25:30.000Z</time>
      </trkpt>
      <trkpt lat="47.4573" lon="6.70059">
        <ele>365.4</ele>
        <time>2017-05-14T08:25:31.000Z</time>
      </trkpt>
      <trkpt lat="47.45731" lon="6.70063">
        <ele>365.2</ele>
        <time>2017-05-14T08:25:32.000Z</time>
      </trkpt>
      <trkpt lat="47.45732" lon="6.70069">
        <ele>365.1</ele>
        <time>2017-05-14T08:25:33.000Z</time>
      </trkpt>
      <trkpt lat="47.45733" lon="6.70074">
        <ele>365</ele>
        <time>2017-05-14T08:25:34.000Z</time>
      </trkpt>
      <trkpt lat="47.45734" lon="6.70078">
        <ele>364.9</ele>
        <time>2017-05-14T08:25:35.000Z</time>
      </trkpt>
      <trkpt lat="47.45735" lon="6.70085">
        <ele>364.7</ele>
        <time>2017-05-14T08:25:36.000Z</time>
      </trkpt>
      <trkpt lat="47.45736" lon="6.70092">
        <ele>364.6</ele>
        <time>2017-05-14T08:25:37.000Z</time>
      </trkpt>
      <trkpt lat="47.45737" lon="6.70098">
        <ele>364.4</ele>
        <time>2017-05-14T08:25:38.000Z</time>
      </trkpt>
      <trkpt lat="47.45738" lon="6.70103">
        <ele>364.3</ele>
        <time>2017-05-14T08:25:39.000Z</time>
      </trkpt>
      <trkpt lat="47.45738" lon="6.70106">
        <ele>364.3</ele>
        <time>2017-05-14T08:25:40.000Z</time>
      </trkpt>
      <trkpt lat="47.45738" lon="6.7011">
        <ele>364.2</ele>
        <time>2017-05-14T08:25:41.000Z</time>
      </trkpt>
      <trkpt lat="47.45739" lon="6.70113">
        <ele>364.1</ele>
        <time>2017-05-14T08:25:42.000Z</time>
      </trkpt>
      <trkpt lat="47.4574" lon="6.70117">
        <ele>364</ele>
        <time>2017-05-14T08:25:43.000Z</time>
      </trkpt>
      <trkpt lat="47.45741" lon="6.70121">
        <ele>363.9</ele>
        <time>2017-05-14T08:25:44.000Z</time>
      </trkpt>
      <trkpt lat="47.45743" lon="6.70126">
        <ele>363.9</ele>
        <time>2017-05-14T08:25:45.000Z</time>
      </trkpt>
      <trkpt lat="47.45745" lon="6.70133">
        <ele>363.9</ele>
        <time>2017-05-14T08:25:46.000Z</time>
      </trkpt>
      <trkpt lat="47.45748" lon="6.70139">
        <ele>364</ele>
        <time>2017-05-14T08:25:47.000Z</time>
      </trkpt>
      <trkpt lat="47.45751" lon="6.70143">
        <ele>364</ele>
        <time>2017-05-14T08:25:48.000Z</time>
      </trkpt>
      <trkpt lat="47.45754" lon="6.70148">
        <ele>364</ele>
        <time>2017-05-14T08:25:49.000Z</time>
      </trkpt>
      <trkpt lat="47.45757" lon="6.70153">
        <ele>364</ele>
        <time>2017-05-14T08:25:50.000Z</time>
      </trkpt>
      <trkpt lat="47.4576" lon="6.70158">
        <ele>364.3</ele>
        <time>2017-05-14T08:25:51.000Z</time>
      </trkpt>
      <trkpt lat="47.45763" lon="6.70163">
        <ele>364.4</ele>
        <time>2017-05-14T08:25:52.000Z</time>
      </trkpt>
      <trkpt lat="47.45765" lon="6.70167">
        <ele>364.4</ele>
        <time>2017-05-14T08:25:53.000Z</time>
      </trkpt>
      <trkpt lat="47.45767" lon="6.70171">
        <ele>364.3</ele>
        <time>2017-05-14T08:25:54.000Z</time>
      </trkpt>
      <trkpt lat="47.45768" lon="6.70176">
        <ele>364.2</ele>
        <time>2017-05-14T08:25:55.000Z</time>
      </trkpt>
      <trkpt lat="47.45772" lon="6.70181">
        <ele>363</ele>
        <time>2017-05-14T08:25:56.000Z</time>
      </trkpt>
      <trkpt lat="47.45776" lon="6.70187">
        <ele>362.9</ele>
        <time>2017-05-14T08:25:57.000Z</time>
      </trkpt>
      <trkpt lat="47.45779" lon="6.70192">
        <ele>362.8</ele>
        <time>2017-05-14T08:25:58.000Z</time>
      </trkpt>
      <trkpt lat="47.45782" lon="6.70197">
        <ele>362.7</ele>
        <time>2017-05-14T08:25:59.000Z</time>
      </trkpt>
      <trkpt lat="47.45785" lon="6.70204">
        <ele>362.5</ele>
        <time>2017-05-14T08:26:00.000Z</time>
      </trkpt>
      <trkpt lat="47.45788" lon="6.7021">
        <ele>362.4</ele>
        <time>2017-05-14T08:26:01.000Z</time>
      </trkpt>
      <trkpt lat="47.4579" lon="6.70216">
        <ele>362.3</ele>
        <time>2017-05-14T08:26:02.000Z</time>
      </trkpt>
      <trkpt lat="47.45791" lon="6.7022">
        <ele>362.3</ele>
        <time>2017-05-14T08:26:03.000Z</time>
      </trkpt>
      <trkpt lat="47.45794" lon="6.70224">
        <ele>362.8</ele>
        <time>2017-05-14T08:26:04.000Z</time>
      </trkpt>
      <trkpt lat="47.45795" lon="6.70227">
        <ele>362.8</ele>
        <time>2017-05-14T08:26:05.000Z</time>
      </trkpt>
      <trkpt lat="47.45797" lon="6.70232">
        <ele>362.7</ele>
        <time>2017-05-14T08:26:06.000Z</time>
      </trkpt>
      <trkpt lat="47.45799" lon="6.70236">
        <ele>362.5</ele>
        <time>2017-05-14T08:26:07.000Z</time>
      </trkpt>
      <trkpt lat="47.45801" lon="6.70239">
        <ele>362.3</ele>
        <time>2017-05-14T08:26:08.000Z</time>
      </trkpt>
      <trkpt lat="47.45803" lon="6.70243">
        <ele>362.1</ele>
        <time>2017-05-14T08:26:09.000Z</time>
      </trkpt>
      <trkpt lat="47.45805" lon="6.70246">
        <ele>361.9</ele>
        <time>2017-05-14T08:26:10.000Z</time>
      </trkpt>
      <trkpt lat="47.45807" lon="6.70249">
        <ele>361.8</ele>
        <time>2017-05-14T08:26:11.000Z</time>
      </trkpt>
      <trkpt lat="47.45808" lon="6.70252">
        <ele>361.7</ele>
        <time>2017-05-14T08:26:12.000Z</time>
      </trkpt>
      <trkpt lat="47.45811" lon="6.70256">
        <ele>361.5</ele>
        <time>2017-05-14T08:26:13.000Z</time>
      </trkpt>
      <trkpt lat="47.45812" lon="6.70257">
        <ele>361.4</ele>
        <time>2017-05-14T08:26:14.000Z</time>
      </trkpt>
      <trkpt lat="47.45814" lon="6.70261">
        <ele>361.2</ele>
        <time>2017-05-14T08:26:15.000Z</time>
      </trkpt>
      <trkpt lat="47.45816" lon="6.70266">
        <ele>360.9</ele>
        <time>2017-05-14T08:26:16.000Z</time>
      </trkpt>
      <trkpt lat="47.45819" lon="6.70272">
        <ele>360.7</ele>
        <time>2017-05-14T08:26:17.000Z</time>
      </trkpt>
      <trkpt lat="47.45822" lon="6.70276">
        <ele>360.5</ele>
        <time>2017-05-14T08:26:18.000Z</time>
      </trkpt>
      <trkpt lat="47.45825" lon="6.70281">
        <ele>360.3</ele>
        <time>2017-05-14T08:26:19.000Z</time>
      </trkpt>
      <trkpt lat="47.45828" lon="6.70286">
        <ele>360.1</ele>
        <time>2017-05-14T08:26:20.000Z</time>
      </trkpt>
      <trkpt lat="47.4583" lon="6.7029">
        <ele>360</ele>
        <time>2017-05-14T08:26:21.000Z</time>
      </trkpt>
      <trkpt lat="47.45833" lon="6.70295">
        <ele>359.9</ele>
        <time>2017-05-14T08:26:22.000Z</time>
      </trkpt>
      <trkpt lat="47.45835" lon="6.703">
        <ele>359.9</ele>
        <time>2017-05-14T08:26:23.000Z</time>
      </trkpt>
      <trkpt lat="47.45837" lon="6.70304">
        <ele>359.8</ele>
        <time>2017-05-14T08:26:24.000Z</time>
      </trkpt>
      <trkpt lat="47.45838" lon="6.70308">
        <ele>359.7</ele>
        <time>2017-05-14T08:26:25.000Z</time>
      </trkpt>
      <trkpt lat="47.45839" lon="6.70313">
        <ele>359.6</ele>
        <time>2017-05-14T08:26:26.000Z</time>
      </trkpt>
      <trkpt lat="47.4584" lon="6.70317">
        <ele>359.4</ele>
        <time>2017-05-14T08:26:27.000Z</time>
      </trkpt>
      <trkpt lat="47.4584" lon="6.70322">
        <ele>359.2</ele>
        <time>2017-05-14T08:26:28.000Z</time>
      </trkpt>
      <trkpt lat="47.45842" lon="6.70326">
        <ele>358.9</ele>
        <time>2017-05-14T08:26:29.000Z</time>
      </trkpt>
      <trkpt lat="47.45843" lon="6.7033">
        <ele>358.6</ele>
        <time>2017-05-14T08:26:30.000Z</time>
      </trkpt>
      <trkpt lat="47.45845" lon="6.70334">
        <ele>358.3</ele>
        <time>2017-05-14T08:26:31.000Z</time>
      </trkpt>
      <trkpt lat="47.45847" lon="6.70338">
        <ele>358.1</ele>
        <time>2017-05-14T08:26:32.000Z</time>
      </trkpt>
      <trkpt lat="47.45848" lon="6.70342">
        <ele>357.8</ele>
        <time>2017-05-14T08:26:33.000Z</time>
      </trkpt>
      <trkpt lat="47.4585" lon="6.70347">
        <ele>357.5</ele>
        <time>2017-05-14T08:26:34.000Z</time>
      </trkpt>
      <trkpt lat="47.45852" lon="6.70352">
        <ele>357.3</ele>
        <time>2017-05-14T08:26:35.000Z</time>
      </trkpt>
      <trkpt lat="47.45853" lon="6.70356">
        <ele>357</ele>
        <time>2017-05-14T08:26:36.000Z</time>
      </trkpt>
      <trkpt lat="47.45855" lon="6.70361">
        <ele>356.8</ele>
        <time>2017-05-14T08:26:37.000Z</time>
      </trkpt>
      <trkpt lat="47.45856" lon="6.70365">
        <ele>356.6</ele>
        <time>2017-05-14T08:26:38.000Z</time>
      </trkpt>
      <trkpt lat="47.45857" lon="6.70369">
        <ele>356.4</ele>
        <time>2017-05-14T08:26:39.000Z</time>
      </trkpt>
      <trkpt lat="47.45859" lon="6.70373">
        <ele>356.2</ele>
        <time>2017-05-14T08:26:40.000Z</time>
      </trkpt>
      <trkpt lat="47.4586" lon="6.70378">
        <ele>356</ele>
        <time>2017-05-14T08:26:41.000Z</time>
      </trkpt>
      <trkpt lat="47.4586" lon="6.70384">
        <ele>355.8</ele>
        <time>2017-05-14T08:26:42.000Z</time>
      </trkpt>
      <trkpt lat="47.45861" lon="6.70392">
        <ele>355.8</ele>
        <time>2017-05-14T08:26:43.000Z</time>
      </trkpt>
      <trkpt lat="47.45862" lon="6.70396">
        <ele>355.7</ele>
        <time>2017-05-14T08:26:44.000Z</time>
      </trkpt>
      <trkpt lat="47.45862" lon="6.70398">
        <ele>355.6</ele>
        <time>2017-05-14T08:26:45.000Z</time>
      </trkpt>
      <trkpt lat="47.45864" lon="6.70404">
        <ele>355.4</ele>
        <time>2017-05-14T08:26:48.000Z</time>
      </trkpt>
      <trkpt lat="47.45864" lon="6.70406">
        <ele>355.3</ele>
        <time>2017-05-14T08:26:49.000Z</time>
      </trkpt>
      <trkpt lat="47.45865" lon="6.70409">
        <ele>355.3</ele>
        <time>2017-05-14T08:26:50.000Z</time>
      </trkpt>
      <trkpt lat="47.45866" lon="6.70413">
        <ele>355.2</ele>
        <time>2017-05-14T08:26:51.000Z</time>
      </trkpt>
      <trkpt lat="47.45869" lon="6.70418">
        <ele>355</ele>
        <time>2017-05-14T08:26:53.000Z</time>
      </trkpt>
      <trkpt lat="47.45871" lon="6.70421">
        <ele>354.8</ele>
        <time>2017-05-14T08:26:54.000Z</time>
      </trkpt>
      <trkpt lat="47.45872" lon="6.70424">
        <ele>354.7</ele>
        <time>2017-05-14T08:26:55.000Z</time>
      </trkpt>
      <trkpt lat="47.45874" lon="6.70427">
        <ele>354.6</ele>
        <time>2017-05-14T08:26:56.000Z</time>
      </trkpt>
      <trkpt lat="47.45877" lon="6.70429">
        <ele>354.5</ele>
        <time>2017-05-14T08:26:57.000Z</time>
      </trkpt>
      <trkpt lat="47.45878" lon="6.70432">
        <ele>354.3</ele>
        <time>2017-05-14T08:26:58.000Z</time>
      </trkpt>
      <trkpt lat="47.4588" lon="6.70435">
        <ele>354.1</ele>
        <time>2017-05-14T08:27:00.000Z</time>
      </trkpt>
      <trkpt lat="47.45882" lon="6.70438">
        <ele>354</ele>
        <time>2017-05-14T08:27:01.000Z</time>
      </trkpt>
      <trkpt lat="47.45883" lon="6.70441">
        <ele>353.8</ele>
        <time>2017-05-14T08:27:02.000Z</time>
      </trkpt>
      <trkpt lat="47.45884" lon="6.70444">
        <ele>353.7</ele>
        <time>2017-05-14T08:27:03.000Z</time>
      </trkpt>
      <trkpt lat="47.45885" lon="6.70449">
        <ele>353.8</ele>
        <time>2017-05-14T08:27:07.000Z</time>
      </trkpt>
      <trkpt lat="47.45884" lon="6.70471">
        <ele>354.2</ele>
        <time>2017-05-14T08:27:08.000Z</time>
      </trkpt>
      <trkpt lat="47.45884" lon="6.70471">
        <ele>356.2</ele>
        <time>2017-05-14T08:27:13.000Z</time>
      </trkpt>
      <trkpt lat="47.45878" lon="6.70493">
        <ele>356.6</ele>
        <time>2017-05-14T08:27:14.000Z</time>
      </trkpt>
      <trkpt lat="47.45878" lon="6.70493">
        <ele>357</ele>
        <time>2017-05-14T08:27:15.000Z</time>
      </trkpt>
      <trkpt lat="47.45875" lon="6.70501">
        <ele>357.5</ele>
        <time>2017-05-14T08:27:16.000Z</time>
      </trkpt>
      <trkpt lat="47.45874" lon="6.70505">
        <ele>358</ele>
        <time>2017-05-14T08:27:17.000Z</time>
      </trkpt>
      <trkpt lat="47.45873" lon="6.70508">
        <ele>358.5</ele>
        <time>2017-05-14T08:27:18.000Z</time>
      </trkpt>
      <trkpt lat="47.45872" lon="6.70514">
        <ele>359.7</ele>
        <time>2017-05-14T08:27:20.000Z</time>
      </trkpt>
      <trkpt lat="47.45872" lon="6.70517">
        <ele>360.2</ele>
        <time>2017-05-14T08:27:21.000Z</time>
      </trkpt>
      <trkpt lat="47.45872" lon="6.70523">
        <ele>361.2</ele>
        <time>2017-05-14T08:27:23.000Z</time>
      </trkpt>
      <trkpt lat="47.45871" lon="6.70525">
        <ele>361.7</ele>
        <time>2017-05-14T08:27:24.000Z</time>
      </trkpt>
      <trkpt lat="47.45871" lon="6.7053">
        <ele>362.6</ele>
        <time>2017-05-14T08:27:26.000Z</time>
      </trkpt>
      <trkpt lat="47.45871" lon="6.70532">
        <ele>363.1</ele>
        <time>2017-05-14T08:27:27.000Z</time>
      </trkpt>
      <trkpt lat="47.45869" lon="6.70537">
        <ele>367.3</ele>
        <time>2017-05-14T08:27:37.000Z</time>
      </trkpt>
      <trkpt lat="47.45866" lon="6.70548">
        <ele>367.6</ele>
        <time>2017-05-14T08:27:38.000Z</time>
      </trkpt>
      <trkpt lat="47.45866" lon="6.70548">
        <ele>370</ele>
        <time>2017-05-14T08:27:47.000Z</time>
      </trkpt>
      <trkpt lat="47.45862" lon="6.70566">
        <ele>370.2</ele>
        <time>2017-05-14T08:27:48.000Z</time>
      </trkpt>
      <trkpt lat="47.45862" lon="6.70566">
        <ele>371.8</ele>
        <time>2017-05-14T08:27:54.000Z</time>
      </trkpt>
      <trkpt lat="47.45859" lon="6.70579">
        <ele>372</ele>
        <time>2017-05-14T08:27:55.000Z</time>
      </trkpt>
      <trkpt lat="47.45859" lon="6.70579">
        <ele>373.1</ele>
        <time>2017-05-14T08:27:59.000Z</time>
      </trkpt>
      <trkpt lat="47.45857" lon="6.70588">
        <ele>373.3</ele>
        <time>2017-05-14T08:28:00.000Z</time>
      </trkpt>
      <trkpt lat="47.45856" lon="6.70593">
        <ele>373.9</ele>
        <time>2017-05-14T08:28:03.000Z</time>
      </trkpt>
      <trkpt lat="47.45855" lon="6.70594">
        <ele>374.2</ele>
        <time>2017-05-14T08:28:04.000Z</time>
      </trkpt>
      <trkpt lat="47.45853" lon="6.706">
        <ele>375.2</ele>
        <time>2017-05-14T08:28:08.000Z</time>
      </trkpt>
      <trkpt lat="47.45852" lon="6.70601">
        <ele>375.4</ele>
        <time>2017-05-14T08:28:09.000Z</time>
      </trkpt>
      <trkpt lat="47.45851" lon="6.70604">
        <ele>375.8</ele>
        <time>2017-05-14T08:28:11.000Z</time>
      </trkpt>
      <trkpt lat="47.4585" lon="6.70607">
        <ele>376</ele>
        <time>2017-05-14T08:28:12.000Z</time>
      </trkpt>
      <trkpt lat="47.45849" lon="6.70612">
        <ele>376.5</ele>
        <time>2017-05-14T08:28:14.000Z</time>
      </trkpt>
      <trkpt lat="47.45849" lon="6.70614">
        <ele>376.8</ele>
        <time>2017-05-14T08:28:15.000Z</time>
      </trkpt>
      <trkpt lat="47.45849" lon="6.70619">
        <ele>377.3</ele>
        <time>2017-05-14T08:28:17.000Z</time>
      </trkpt>
      <trkpt lat="47.45849" lon="6.70622">
        <ele>377.6</ele>
        <time>2017-05-14T08:28:18.000Z</time>
      </trkpt>
      <trkpt lat="47.4585" lon="6.70627">
        <ele>378.5</ele>
        <time>2017-05-14T08:28:22.000Z</time>
      </trkpt>
      <trkpt lat="47.4585" lon="6.7063">
        <ele>378.7</ele>
        <time>2017-05-14T08:28:23.000Z</time>
      </trkpt>
      <trkpt lat="47.4585" lon="6.70633">
        <ele>378.9</ele>
        <time>2017-05-14T08:28:24.000Z</time>
      </trkpt>
      <trkpt lat="47.4585" lon="6.70637">
        <ele>379.1</ele>
        <time>2017-05-14T08:28:25.000Z</time>
      </trkpt>
      <trkpt lat="47.45851" lon="6.7064">
        <ele>379.3</ele>
        <time>2017-05-14T08:28:26.000Z</time>
      </trkpt>
      <trkpt lat="47.45852" lon="6.70644">
        <ele>379.6</ele>
        <time>2017-05-14T08:28:27.000Z</time>
      </trkpt>
      <trkpt lat="47.45853" lon="6.70648">
        <ele>379.9</ele>
        <time>2017-05-14T08:28:28.000Z</time>
      </trkpt>
      <trkpt lat="47.45854" lon="6.70651">
        <ele>380.1</ele>
        <time>2017-05-14T08:28:29.000Z</time>
      </trkpt>
      <trkpt lat="47.45856" lon="6.70654">
        <ele>380.5</ele>
        <time>2017-05-14T08:28:30.000Z</time>
      </trkpt>
      <trkpt lat="47.45857" lon="6.70657">
        <ele>380.9</ele>
        <time>2017-05-14T08:28:31.000Z</time>
      </trkpt>
      <trkpt lat="47.45857" lon="6.70661">
        <ele>381.2</ele>
        <time>2017-05-14T08:28:32.000Z</time>
      </trkpt>
      <trkpt lat="47.45857" lon="6.70666">
        <ele>381.5</ele>
        <time>2017-05-14T08:28:33.000Z</time>
      </trkpt>
      <trkpt lat="47.45859" lon="6.70669">
        <ele>381.8</ele>
        <time>2017-05-14T08:28:34.000Z</time>
      </trkpt>
      <trkpt lat="47.45859" lon="6.70672">
        <ele>382.1</ele>
        <time>2017-05-14T08:28:35.000Z</time>
      </trkpt>
      <trkpt lat="47.45859" lon="6.70678">
        <ele>382.7</ele>
        <time>2017-05-14T08:28:37.000Z</time>
      </trkpt>
      <trkpt lat="47.45858" lon="6.70681">
        <ele>383</ele>
        <time>2017-05-14T08:28:38.000Z</time>
      </trkpt>
      <trkpt lat="47.45858" lon="6.70685">
        <ele>383.3</ele>
        <time>2017-05-14T08:28:39.000Z</time>
      </trkpt>
      <trkpt lat="47.45858" lon="6.70689">
        <ele>383.5</ele>
        <time>2017-05-14T08:28:40.000Z</time>
      </trkpt>
      <trkpt lat="47.45858" lon="6.70694">
        <ele>383.7</ele>
        <time>2017-05-14T08:28:41.000Z</time>
      </trkpt>
      <trkpt lat="47.45858" lon="6.70699">
        <ele>383.9</ele>
        <time>2017-05-14T08:28:42.000Z</time>
      </trkpt>
      <trkpt lat="47.45859" lon="6.70704">
        <ele>384.2</ele>
        <time>2017-05-14T08:28:43.000Z</time>
      </trkpt>
      <trkpt lat="47.4586" lon="6.70708">
        <ele>384.4</ele>
        <time>2017-05-14T08:28:44.000Z</time>
      </trkpt>
      <trkpt lat="47.45859" lon="6.70713">
        <ele>384.6</ele>
        <time>2017-05-14T08:28:45.000Z</time>
      </trkpt>
      <trkpt lat="47.45859" lon="6.70717">
        <ele>384.8</ele>
        <time>2017-05-14T08:28:46.000Z</time>
      </trkpt>
      <trkpt lat="47.4586" lon="6.70721">
        <ele>384.9</ele>
        <time>2017-05-14T08:28:47.000Z</time>
      </trkpt>
      <trkpt lat="47.45862" lon="6.70727">
        <ele>385</ele>
        <time>2017-05-14T08:28:48.000Z</time>
      </trkpt>
      <trkpt lat="47.45863" lon="6.70732">
        <ele>385.1</ele>
        <time>2017-05-14T08:28:49.000Z</time>
      </trkpt>
      <trkpt lat="47.45863" lon="6.70737">
        <ele>385.2</ele>
        <time>2017-05-14T08:28:50.000Z</time>
      </trkpt>
      <trkpt lat="47.45863" lon="6.70742">
        <ele>385.3</ele>
        <time>2017-05-14T08:28:51.000Z</time>
      </trkpt>
      <trkpt lat="47.45864" lon="6.70747">
        <ele>385.5</ele>
        <time>2017-05-14T08:28:52.000Z</time>
      </trkpt>
      <trkpt lat="47.45865" lon="6.70751">
        <ele>385.7</ele>
        <time>2017-05-14T08:28:53.000Z</time>
      </trkpt>
      <trkpt lat="47.45866" lon="6.70756">
        <ele>385.8</ele>
        <time>2017-05-14T08:28:54.000Z</time>
      </trkpt>
      <trkpt lat="47.45866" lon="6.70762">
        <ele>385.9</ele>
        <time>2017-05-14T08:28:55.000Z</time>
      </trkpt>
      <trkpt lat="47.45866" lon="6.70769">
        <ele>386</ele>
        <time>2017-05-14T08:28:56.000Z</time>
      </trkpt>
      <trkpt lat="47.45867" lon="6.70775">
        <ele>386.1</ele>
        <time>2017-05-14T08:28:57.000Z</time>
      </trkpt>
      <trkpt lat="47.45867" lon="6.70781">
        <ele>386.3</ele>
        <time>2017-05-14T08:28:58.000Z</time>
      </trkpt>
      <trkpt lat="47.45868" lon="6.70786">
        <ele>386.4</ele>
        <time>2017-05-14T08:28:59.000Z</time>
      </trkpt>
      <trkpt lat="47.45868" lon="6.70789">
        <ele>386.6</ele>
        <time>2017-05-14T08:29:00.000Z</time>
      </trkpt>
      <trkpt lat="47.45869" lon="6.70794">
        <ele>386.8</ele>
        <time>2017-05-14T08:29:01.000Z</time>
      </trkpt>
      <trkpt lat="47.45868" lon="6.70799">
        <ele>386.9</ele>
        <time>2017-05-14T08:29:02.000Z</time>
      </trkpt>
      <trkpt lat="47.45868" lon="6.70804">
        <ele>386.9</ele>
        <time>2017-05-14T08:29:03.000Z</time>
      </trkpt>
      <trkpt lat="47.45868" lon="6.70811">
        <ele>387</ele>
        <time>2017-05-14T08:29:04.000Z</time>
      </trkpt>
      <trkpt lat="47.45868" lon="6.70816">
        <ele>387</ele>
        <time>2017-05-14T08:29:05.000Z</time>
      </trkpt>
      <trkpt lat="47.45868" lon="6.7082">
        <ele>387.1</ele>
        <time>2017-05-14T08:29:06.000Z</time>
      </trkpt>
      <trkpt lat="47.45868" lon="6.70823">
        <ele>387.2</ele>
        <time>2017-05-14T08:29:07.000Z</time>
      </trkpt>
      <trkpt lat="47.45868" lon="6.70829">
        <ele>387.7</ele>
        <time>2017-05-14T08:29:08.000Z</time>
      </trkpt>
      <trkpt lat="47.45867" lon="6.70833">
        <ele>387.8</ele>
        <time>2017-05-14T08:29:09.000Z</time>
      </trkpt>
      <trkpt lat="47.45867" lon="6.70838">
        <ele>387.8</ele>
        <time>2017-05-14T08:29:10.000Z</time>
      </trkpt>
      <trkpt lat="47.45867" lon="6.70843">
        <ele>387.8</ele>
        <time>2017-05-14T08:29:11.000Z</time>
      </trkpt>
      <trkpt lat="47.45866" lon="6.70848">
        <ele>387.8</ele>
        <time>2017-05-14T08:29:12.000Z</time>
      </trkpt>
      <trkpt lat="47.45865" lon="6.70855">
        <ele>387.8</ele>
        <time>2017-05-14T08:29:13.000Z</time>
      </trkpt>
      <trkpt lat="47.45864" lon="6.70863">
        <ele>387.9</ele>
        <time>2017-05-14T08:29:14.000Z</time>
      </trkpt>
      <trkpt lat="47.45864" lon="6.70869">
        <ele>387.9</ele>
        <time>2017-05-14T08:29:15.000Z</time>
      </trkpt>
      <trkpt lat="47.45862" lon="6.70877">
        <ele>387.7</ele>
        <time>2017-05-14T08:29:16.000Z</time>
      </trkpt>
      <trkpt lat="47.45862" lon="6.70885">
        <ele>388</ele>
        <time>2017-05-14T08:29:17.000Z</time>
      </trkpt>
      <trkpt lat="47.45861" lon="6.70891">
        <ele>388</ele>
        <time>2017-05-14T08:29:18.000Z</time>
      </trkpt>
      <trkpt lat="47.45861" lon="6.70897">
        <ele>388.1</ele>
        <time>2017-05-14T08:29:19.000Z</time>
      </trkpt>
      <trkpt lat="47.4586" lon="6.70902">
        <ele>388.1</ele>
        <time>2017-05-14T08:29:20.000Z</time>
      </trkpt>
      <trkpt lat="47.4586" lon="6.70908">
        <ele>388.1</ele>
        <time>2017-05-14T08:29:21.000Z</time>
      </trkpt>
      <trkpt lat="47.4586" lon="6.70912">
        <ele>388.1</ele>
        <time>2017-05-14T08:29:22.000Z</time>
      </trkpt>
      <trkpt lat="47.45859" lon="6.70917">
        <ele>388.1</ele>
        <time>2017-05-14T08:29:23.000Z</time>
      </trkpt>
      <trkpt lat="47.45858" lon="6.70923">
        <ele>388.1</ele>
        <time>2017-05-14T08:29:24.000Z</time>
      </trkpt>
      <trkpt lat="47.45855" lon="6.70929">
        <ele>388.1</ele>
        <time>2017-05-14T08:29:25.000Z</time>
      </trkpt>
      <trkpt lat="47.45853" lon="6.70934">
        <ele>388.2</ele>
        <time>2017-05-14T08:29:26.000Z</time>
      </trkpt>
      <trkpt lat="47.45852" lon="6.70937">
        <ele>388.3</ele>
        <time>2017-05-14T08:29:27.000Z</time>
      </trkpt>
      <trkpt lat="47.45851" lon="6.7094">
        <ele>388.3</ele>
        <time>2017-05-14T08:29:28.000Z</time>
      </trkpt>
      <trkpt lat="47.45851" lon="6.70943">
        <ele>388.4</ele>
        <time>2017-05-14T08:29:29.000Z</time>
      </trkpt>
      <trkpt lat="47.4585" lon="6.70946">
        <ele>388.5</ele>
        <time>2017-05-14T08:29:30.000Z</time>
      </trkpt>
      <trkpt lat="47.45848" lon="6.70949">
        <ele>388.6</ele>
        <time>2017-05-14T08:29:31.000Z</time>
      </trkpt>
      <trkpt lat="47.45846" lon="6.70951">
        <ele>388.7</ele>
        <time>2017-05-14T08:29:32.000Z</time>
      </trkpt>
      <trkpt lat="47.45845" lon="6.70954">
        <ele>388.9</ele>
        <time>2017-05-14T08:29:33.000Z</time>
      </trkpt>
      <trkpt lat="47.45842" lon="6.70957">
        <ele>389.1</ele>
        <time>2017-05-14T08:29:34.000Z</time>
      </trkpt>
      <trkpt lat="47.4584" lon="6.70959">
        <ele>389.2</ele>
        <time>2017-05-14T08:29:35.000Z</time>
      </trkpt>
      <trkpt lat="47.45837" lon="6.70963">
        <ele>389.4</ele>
        <time>2017-05-14T08:29:37.000Z</time>
      </trkpt>
      <trkpt lat="47.45835" lon="6.70963">
        <ele>389.5</ele>
        <time>2017-05-14T08:29:38.000Z</time>
      </trkpt>
      <trkpt lat="47.45832" lon="6.70965">
        <ele>389.6</ele>
        <time>2017-05-14T08:29:39.000Z</time>
      </trkpt>
      <trkpt lat="47.4583" lon="6.70967">
        <ele>389.6</ele>
        <time>2017-05-14T08:29:40.000Z</time>
      </trkpt>
      <trkpt lat="47.45827" lon="6.70969">
        <ele>389.7</ele>
        <time>2017-05-14T08:29:42.000Z</time>
      </trkpt>
      <trkpt lat="47.45825" lon="6.70971">
        <ele>389.8</ele>
        <time>2017-05-14T08:29:43.000Z</time>
      </trkpt>
      <trkpt lat="47.45822" lon="6.70973">
        <ele>389.9</ele>
        <time>2017-05-14T08:29:44.000Z</time>
      </trkpt>
      <trkpt lat="47.45821" lon="6.70975">
        <ele>390.1</ele>
        <time>2017-05-14T08:29:45.000Z</time>
      </trkpt>
      <trkpt lat="47.45817" lon="6.70979">
        <ele>390.4</ele>
        <time>2017-05-14T08:29:47.000Z</time>
      </trkpt>
      <trkpt lat="47.45816" lon="6.70981">
        <ele>390.5</ele>
        <time>2017-05-14T08:29:48.000Z</time>
      </trkpt>
      <trkpt lat="47.45813" lon="6.70983">
        <ele>390.7</ele>
        <time>2017-05-14T08:29:49.000Z</time>
      </trkpt>
      <trkpt lat="47.45811" lon="6.70985">
        <ele>390.9</ele>
        <time>2017-05-14T08:29:50.000Z</time>
      </trkpt>
      <trkpt lat="47.45807" lon="6.70988">
        <ele>391.4</ele>
        <time>2017-05-14T08:29:52.000Z</time>
      </trkpt>
      <trkpt lat="47.45806" lon="6.7099">
        <ele>391.6</ele>
        <time>2017-05-14T08:29:53.000Z</time>
      </trkpt>
      <trkpt lat="47.45804" lon="6.70992">
        <ele>391.8</ele>
        <time>2017-05-14T08:29:54.000Z</time>
      </trkpt>
      <trkpt lat="47.45801" lon="6.70994">
        <ele>392.1</ele>
        <time>2017-05-14T08:29:55.000Z</time>
      </trkpt>
      <trkpt lat="47.458" lon="6.70995">
        <ele>392.3</ele>
        <time>2017-05-14T08:29:56.000Z</time>
      </trkpt>
      <trkpt lat="47.45797" lon="6.70997">
        <ele>392.6</ele>
        <time>2017-05-14T08:29:57.000Z</time>
      </trkpt>
      <trkpt lat="47.45794" lon="6.71001">
        <ele>392.8</ele>
        <time>2017-05-14T08:29:58.000Z</time>
      </trkpt>
      <trkpt lat="47.4579" lon="6.71006">
        <ele>393</ele>
        <time>2017-05-14T08:29:59.000Z</time>
      </trkpt>
      <trkpt lat="47.45787" lon="6.71009">
        <ele>393.3</ele>
        <time>2017-05-14T08:30:00.000Z</time>
      </trkpt>
      <trkpt lat="47.45785" lon="6.71011">
        <ele>393.6</ele>
        <time>2017-05-14T08:30:01.000Z</time>
      </trkpt>
      <trkpt lat="47.45782" lon="6.71014">
        <ele>393.9</ele>
        <time>2017-05-14T08:30:02.000Z</time>
      </trkpt>
      <trkpt lat="47.45781" lon="6.71015">
        <ele>394.2</ele>
        <time>2017-05-14T08:30:03.000Z</time>
      </trkpt>
      <trkpt lat="47.45779" lon="6.71016">
        <ele>394.5</ele>
        <time>2017-05-14T08:30:04.000Z</time>
      </trkpt>
      <trkpt lat="47.45776" lon="6.71018">
        <ele>394.8</ele>
        <time>2017-05-14T08:30:05.000Z</time>
      </trkpt>
      <trkpt lat="47.45773" lon="6.71021">
        <ele>395</ele>
        <time>2017-05-14T08:30:06.000Z</time>
      </trkpt>
      <trkpt lat="47.4577" lon="6.71023">
        <ele>395.3</ele>
        <time>2017-05-14T08:30:07.000Z</time>
      </trkpt>
      <trkpt lat="47.45767" lon="6.71026">
        <ele>395.9</ele>
        <time>2017-05-14T08:30:09.000Z</time>
      </trkpt>
      <trkpt lat="47.45765" lon="6.71029">
        <ele>396.3</ele>
        <time>2017-05-14T08:30:10.000Z</time>
      </trkpt>
      <trkpt lat="47.45764" lon="6.71032">
        <ele>396.5</ele>
        <time>2017-05-14T08:30:11.000Z</time>
      </trkpt>
      <trkpt lat="47.45761" lon="6.71036">
        <ele>396.8</ele>
        <time>2017-05-14T08:30:12.000Z</time>
      </trkpt>
      <trkpt lat="47.45758" lon="6.71039">
        <ele>397</ele>
        <time>2017-05-14T08:30:13.000Z</time>
      </trkpt>
      <trkpt lat="47.45755" lon="6.71042">
        <ele>397.3</ele>
        <time>2017-05-14T08:30:14.000Z</time>
      </trkpt>
      <trkpt lat="47.45751" lon="6.71044">
        <ele>400</ele>
        <time>2017-05-14T08:30:15.000Z</time>
      </trkpt>
      <trkpt lat="47.45752" lon="6.71049">
        <ele>400.2</ele>
        <time>2017-05-14T08:30:16.000Z</time>
      </trkpt>
      <trkpt lat="47.4575" lon="6.71054">
        <ele>400.4</ele>
        <time>2017-05-14T08:30:17.000Z</time>
      </trkpt>
      <trkpt lat="47.45747" lon="6.71059">
        <ele>400.5</ele>
        <time>2017-05-14T08:30:18.000Z</time>
      </trkpt>
      <trkpt lat="47.45742" lon="6.71064">
        <ele>402.4</ele>
        <time>2017-05-14T08:30:19.000Z</time>
      </trkpt>
      <trkpt lat="47.45741" lon="6.71067">
        <ele>402.5</ele>
        <time>2017-05-14T08:30:20.000Z</time>
      </trkpt>
      <trkpt lat="47.45739" lon="6.71071">
        <ele>402.6</ele>
        <time>2017-05-14T08:30:21.000Z</time>
      </trkpt>
      <trkpt lat="47.45736" lon="6.71074">
        <ele>402.7</ele>
        <time>2017-05-14T08:30:22.000Z</time>
      </trkpt>
      <trkpt lat="47.45731" lon="6.71077">
        <ele>402.8</ele>
        <time>2017-05-14T08:30:23.000Z</time>
      </trkpt>
      <trkpt lat="47.45727" lon="6.71079">
        <ele>403.8</ele>
        <time>2017-05-14T08:30:24.000Z</time>
      </trkpt>
      <trkpt lat="47.45723" lon="6.71082">
        <ele>403.9</ele>
        <time>2017-05-14T08:30:25.000Z</time>
      </trkpt>
      <trkpt lat="47.4572" lon="6.71084">
        <ele>403.9</ele>
        <time>2017-05-14T08:30:26.000Z</time>
      </trkpt>
      <trkpt lat="47.45716" lon="6.71087">
        <ele>403.9</ele>
        <time>2017-05-14T08:30:27.000Z</time>
      </trkpt>
      <trkpt lat="47.45713" lon="6.7109">
        <ele>403.8</ele>
        <time>2017-05-14T08:30:28.000Z</time>
      </trkpt>
      <trkpt lat="47.4571" lon="6.71092">
        <ele>403.8</ele>
        <time>2017-05-14T08:30:29.000Z</time>
      </trkpt>
      <trkpt lat="47.45707" lon="6.71095">
        <ele>403.8</ele>
        <time>2017-05-14T08:30:30.000Z</time>
      </trkpt>
      <trkpt lat="47.45704" lon="6.71098">
        <ele>403.7</ele>
        <time>2017-05-14T08:30:31.000Z</time>
      </trkpt>
      <trkpt lat="47.457" lon="6.71103">
        <ele>403.7</ele>
        <time>2017-05-14T08:30:32.000Z</time>
      </trkpt>
      <trkpt lat="47.45696" lon="6.71105">
        <ele>403.6</ele>
        <time>2017-05-14T08:30:33.000Z</time>
      </trkpt>
      <trkpt lat="47.45693" lon="6.71108">
        <ele>403.5</ele>
        <time>2017-05-14T08:30:34.000Z</time>
      </trkpt>
      <trkpt lat="47.45689" lon="6.71112">
        <ele>403.5</ele>
        <time>2017-05-14T08:30:35.000Z</time>
      </trkpt>
      <trkpt lat="47.45684" lon="6.71115">
        <ele>403.5</ele>
        <time>2017-05-14T08:30:36.000Z</time>
      </trkpt>
      <trkpt lat="47.45681" lon="6.71118">
        <ele>403.5</ele>
        <time>2017-05-14T08:30:38.000Z</time>
      </trkpt>
      <trkpt lat="47.45676" lon="6.7112">
        <ele>403.5</ele>
        <time>2017-05-14T08:30:39.000Z</time>
      </trkpt>
      <trkpt lat="47.45672" lon="6.71123">
        <ele>403.6</ele>
        <time>2017-05-14T08:30:41.000Z</time>
      </trkpt>
      <trkpt lat="47.45669" lon="6.71125">
        <ele>403.6</ele>
        <time>2017-05-14T08:30:42.000Z</time>
      </trkpt>
      <trkpt lat="47.45667" lon="6.71126">
        <ele>403.6</ele>
        <time>2017-05-14T08:30:43.000Z</time>
      </trkpt>
      <trkpt lat="47.45665" lon="6.71127">
        <ele>403.5</ele>
        <time>2017-05-14T08:30:44.000Z</time>
      </trkpt>
      <trkpt lat="47.4566" lon="6.71129">
        <ele>403.5</ele>
        <time>2017-05-14T08:30:45.000Z</time>
      </trkpt>
      <trkpt lat="47.45657" lon="6.7113">
        <ele>403.2</ele>
        <time>2017-05-14T08:30:47.000Z</time>
      </trkpt>
      <trkpt lat="47.45652" lon="6.7113">
        <ele>403.1</ele>
        <time>2017-05-14T08:30:48.000Z</time>
      </trkpt>
      <trkpt lat="47.4565" lon="6.71132">
        <ele>403</ele>
        <time>2017-05-14T08:30:49.000Z</time>
      </trkpt>
      <trkpt lat="47.45645" lon="6.71136">
        <ele>403.1</ele>
        <time>2017-05-14T08:30:50.000Z</time>
      </trkpt>
      <trkpt lat="47.45643" lon="6.71137">
        <ele>403.2</ele>
        <time>2017-05-14T08:30:51.000Z</time>
      </trkpt>
      <trkpt lat="47.45641" lon="6.71137">
        <ele>403.2</ele>
        <time>2017-05-14T08:30:52.000Z</time>
      </trkpt>
      <trkpt lat="47.45637" lon="6.71138">
        <ele>403.2</ele>
        <time>2017-05-14T08:30:53.000Z</time>
      </trkpt>
      <trkpt lat="47.45634" lon="6.71138">
        <ele>403.2</ele>
        <time>2017-05-14T08:30:54.000Z</time>
      </trkpt>
      <trkpt lat="47.45632" lon="6.71138">
        <ele>403.2</ele>
        <time>2017-05-14T08:30:55.000Z</time>
      </trkpt>
      <trkpt lat="47.45628" lon="6.71136">
        <ele>403.2</ele>
        <time>2017-05-14T08:30:56.000Z</time>
      </trkpt>
      <trkpt lat="47.45622" lon="6.71133">
        <ele>403.1</ele>
        <time>2017-05-14T08:30:57.000Z</time>
      </trkpt>
      <trkpt lat="47.45619" lon="6.71133">
        <ele>403.1</ele>
        <time>2017-05-14T08:30:58.000Z</time>
      </trkpt>
      <trkpt lat="47.45617" lon="6.71133">
        <ele>403</ele>
        <time>2017-05-14T08:30:59.000Z</time>
      </trkpt>
      <trkpt lat="47.45614" lon="6.71133">
        <ele>403</ele>
        <time>2017-05-14T08:31:00.000Z</time>
      </trkpt>
      <trkpt lat="47.45611" lon="6.71133">
        <ele>403.1</ele>
        <time>2017-05-14T08:31:01.000Z</time>
      </trkpt>
      <trkpt lat="47.45608" lon="6.71132">
        <ele>403.1</ele>
        <time>2017-05-14T08:31:02.000Z</time>
      </trkpt>
      <trkpt lat="47.45604" lon="6.71132">
        <ele>403.2</ele>
        <time>2017-05-14T08:31:03.000Z</time>
      </trkpt>
      <trkpt lat="47.45599" lon="6.7113">
        <ele>403.4</ele>
        <time>2017-05-14T08:31:04.000Z</time>
      </trkpt>
      <trkpt lat="47.45595" lon="6.7113">
        <ele>403.4</ele>
        <time>2017-05-14T08:31:05.000Z</time>
      </trkpt>
      <trkpt lat="47.45593" lon="6.7113">
        <ele>403.4</ele>
        <time>2017-05-14T08:31:06.000Z</time>
      </trkpt>
      <trkpt lat="47.45589" lon="6.71128">
        <ele>403.4</ele>
        <time>2017-05-14T08:31:09.000Z</time>
      </trkpt>
      <trkpt lat="47.45587" lon="6.71127">
        <ele>403.5</ele>
        <time>2017-05-14T08:31:10.000Z</time>
      </trkpt>
      <trkpt lat="47.45585" lon="6.71126">
        <ele>403.7</ele>
        <time>2017-05-14T08:31:11.000Z</time>
      </trkpt>
      <trkpt lat="47.4558" lon="6.71124">
        <ele>403.9</ele>
        <time>2017-05-14T08:31:12.000Z</time>
      </trkpt>
      <trkpt lat="47.45576" lon="6.71123">
        <ele>404</ele>
        <time>2017-05-14T08:31:13.000Z</time>
      </trkpt>
      <trkpt lat="47.45574" lon="6.71122">
        <ele>404.2</ele>
        <time>2017-05-14T08:31:14.000Z</time>
      </trkpt>
      <trkpt lat="47.4557" lon="6.7112">
        <ele>405</ele>
        <time>2017-05-14T08:31:18.000Z</time>
      </trkpt>
      <trkpt lat="47.45569" lon="6.71119">
        <ele>405.2</ele>
        <time>2017-05-14T08:31:19.000Z</time>
      </trkpt>
      <trkpt lat="47.45565" lon="6.71122">
        <ele>405.9</ele>
        <time>2017-05-14T08:31:22.000Z</time>
      </trkpt>
      <trkpt lat="47.45564" lon="6.71122">
        <ele>406.2</ele>
        <time>2017-05-14T08:31:23.000Z</time>
      </trkpt>
      <trkpt lat="47.45561" lon="6.71119">
        <ele>407.6</ele>
        <time>2017-05-14T08:31:27.000Z</time>
      </trkpt>
      <trkpt lat="47.45555" lon="6.71113">
        <ele>408</ele>
        <time>2017-05-14T08:31:28.000Z</time>
      </trkpt>
      <trkpt lat="47.45551" lon="6.71109">
        <ele>408.5</ele>
        <time>2017-05-14T08:31:29.000Z</time>
      </trkpt>
      <trkpt lat="47.45549" lon="6.71106">
        <ele>409</ele>
        <time>2017-05-14T08:31:30.000Z</time>
      </trkpt>
      <trkpt lat="47.45546" lon="6.71105">
        <ele>409.4</ele>
        <time>2017-05-14T08:31:31.000Z</time>
      </trkpt>
      <trkpt lat="47.45542" lon="6.71103">
        <ele>410.2</ele>
        <time>2017-05-14T08:31:33.000Z</time>
      </trkpt>
      <trkpt lat="47.4554" lon="6.71103">
        <ele>410.6</ele>
        <time>2017-05-14T08:31:34.000Z</time>
      </trkpt>
      <trkpt lat="47.45535" lon="6.71103">
        <ele>411.3</ele>
        <time>2017-05-14T08:31:36.000Z</time>
      </trkpt>
      <trkpt lat="47.45534" lon="6.71102">
        <ele>411.4</ele>
        <time>2017-05-14T08:31:37.000Z</time>
      </trkpt>
      <trkpt lat="47.45529" lon="6.71101">
        <ele>411.6</ele>
        <time>2017-05-14T08:31:38.000Z</time>
      </trkpt>
      <trkpt lat="47.45524" lon="6.711">
        <ele>411.9</ele>
        <time>2017-05-14T08:31:39.000Z</time>
      </trkpt>
      <trkpt lat="47.45522" lon="6.71099">
        <ele>412</ele>
        <time>2017-05-14T08:31:40.000Z</time>
      </trkpt>
      <trkpt lat="47.45519" lon="6.71098">
        <ele>412.2</ele>
        <time>2017-05-14T08:31:41.000Z</time>
      </trkpt>
      <trkpt lat="47.45517" lon="6.71095">
        <ele>412.1</ele>
        <time>2017-05-14T08:31:42.000Z</time>
      </trkpt>
      <trkpt lat="47.45513" lon="6.71093">
        <ele>412.1</ele>
        <time>2017-05-14T08:31:43.000Z</time>
      </trkpt>
      <trkpt lat="47.4551" lon="6.71092">
        <ele>412.2</ele>
        <time>2017-05-14T08:31:45.000Z</time>
      </trkpt>
      <trkpt lat="47.45508" lon="6.71091">
        <ele>412.2</ele>
        <time>2017-05-14T08:31:46.000Z</time>
      </trkpt>
      <trkpt lat="47.45504" lon="6.71093">
        <ele>414.6</ele>
        <time>2017-05-14T08:31:59.000Z</time>
      </trkpt>
      <trkpt lat="47.45504" lon="6.71094">
        <ele>415</ele>
        <time>2017-05-14T08:32:00.000Z</time>
      </trkpt>
      <trkpt lat="47.45503" lon="6.71096">
        <ele>415.3</ele>
        <time>2017-05-14T08:32:01.000Z</time>
      </trkpt>
      <trkpt lat="47.455" lon="6.71102">
        <ele>415.7</ele>
        <time>2017-05-14T08:32:02.000Z</time>
      </trkpt>
      <trkpt lat="47.45498" lon="6.71108">
        <ele>417.7</ele>
        <time>2017-05-14T08:32:17.000Z</time>
      </trkpt>
      <trkpt lat="47.45497" lon="6.71113">
        <ele>418</ele>
        <time>2017-05-14T08:32:18.000Z</time>
      </trkpt>
      <trkpt lat="47.45498" lon="6.71119">
        <ele>418.3</ele>
        <time>2017-05-14T08:32:19.000Z</time>
      </trkpt>
      <trkpt lat="47.455" lon="6.71124">
        <ele>418.5</ele>
        <time>2017-05-14T08:32:20.000Z</time>
      </trkpt>
      <trkpt lat="47.45502" lon="6.71128">
        <ele>418.8</ele>
        <time>2017-05-14T08:32:21.000Z</time>
      </trkpt>
      <trkpt lat="47.45504" lon="6.71129">
        <ele>419</ele>
        <time>2017-05-14T08:32:22.000Z</time>
      </trkpt>
      <trkpt lat="47.45507" lon="6.7113">
        <ele>419.3</ele>
        <time>2017-05-14T08:32:23.000Z</time>
      </trkpt>
      <trkpt lat="47.4551" lon="6.71133">
        <ele>419.6</ele>
        <time>2017-05-14T08:32:24.000Z</time>
      </trkpt>
      <trkpt lat="47.45512" lon="6.71136">
        <ele>419.8</ele>
        <time>2017-05-14T08:32:25.000Z</time>
      </trkpt>
      <trkpt lat="47.45511" lon="6.71144">
        <ele>419.8</ele>
        <time>2017-05-14T08:32:26.000Z</time>
      </trkpt>
      <trkpt lat="47.45508" lon="6.71152">
        <ele>419.1</ele>
        <time>2017-05-14T08:32:27.000Z</time>
      </trkpt>
      <trkpt lat="47.45508" lon="6.71157">
        <ele>419</ele>
        <time>2017-05-14T08:32:28.000Z</time>
      </trkpt>
      <trkpt lat="47.4551" lon="6.7116">
        <ele>418.9</ele>
        <time>2017-05-14T08:32:29.000Z</time>
      </trkpt>
      <trkpt lat="47.45513" lon="6.71163">
        <ele>418.7</ele>
        <time>2017-05-14T08:32:30.000Z</time>
      </trkpt>
      <trkpt lat="47.45519" lon="6.71165">
        <ele>418.6</ele>
        <time>2017-05-14T08:32:31.000Z</time>
      </trkpt>
      <trkpt lat="47.45524" lon="6.71167">
        <ele>418.6</ele>
        <time>2017-05-14T08:32:32.000Z</time>
      </trkpt>
      <trkpt lat="47.45526" lon="6.7117">
        <ele>418.5</ele>
        <time>2017-05-14T08:32:33.000Z</time>
      </trkpt>
      <trkpt lat="47.4553" lon="6.71172">
        <ele>419</ele>
        <time>2017-05-14T08:32:34.000Z</time>
      </trkpt>
      <trkpt lat="47.45535" lon="6.71173">
        <ele>420.8</ele>
        <time>2017-05-14T08:32:35.000Z</time>
      </trkpt>
      <trkpt lat="47.45537" lon="6.71178">
        <ele>420.8</ele>
        <time>2017-05-14T08:32:36.000Z</time>
      </trkpt>
      <trkpt lat="47.4554" lon="6.71187">
        <ele>420.7</ele>
        <time>2017-05-14T08:32:37.000Z</time>
      </trkpt>
      <trkpt lat="47.45541" lon="6.71193">
        <ele>420.2</ele>
        <time>2017-05-14T08:32:40.000Z</time>
      </trkpt>
      <trkpt lat="47.45543" lon="6.71195">
        <ele>420</ele>
        <time>2017-05-14T08:32:41.000Z</time>
      </trkpt>
      <trkpt lat="47.45544" lon="6.71198">
        <ele>419.8</ele>
        <time>2017-05-14T08:32:42.000Z</time>
      </trkpt>
      <trkpt lat="47.45546" lon="6.71202">
        <ele>419.6</ele>
        <time>2017-05-14T08:32:43.000Z</time>
      </trkpt>
      <trkpt lat="47.45547" lon="6.71206">
        <ele>419.3</ele>
        <time>2017-05-14T08:32:44.000Z</time>
      </trkpt>
      <trkpt lat="47.45548" lon="6.7121">
        <ele>419.2</ele>
        <time>2017-05-14T08:32:45.000Z</time>
      </trkpt>
      <trkpt lat="47.45548" lon="6.71215">
        <ele>419.1</ele>
        <time>2017-05-14T08:32:46.000Z</time>
      </trkpt>
      <trkpt lat="47.45549" lon="6.71218">
        <ele>419</ele>
        <time>2017-05-14T08:32:47.000Z</time>
      </trkpt>
      <trkpt lat="47.45552" lon="6.71224">
        <ele>419</ele>
        <time>2017-05-14T08:32:48.000Z</time>
      </trkpt>
      <trkpt lat="47.45553" lon="6.71229">
        <ele>419</ele>
        <time>2017-05-14T08:32:50.000Z</time>
      </trkpt>
      <trkpt lat="47.45554" lon="6.71231">
        <ele>419.1</ele>
        <time>2017-05-14T08:32:51.000Z</time>
      </trkpt>
      <trkpt lat="47.45556" lon="6.71232">
        <ele>419.3</ele>
        <time>2017-05-14T08:32:53.000Z</time>
      </trkpt>
      <trkpt lat="47.45558" lon="6.71234">
        <ele>419.5</ele>
        <time>2017-05-14T08:32:54.000Z</time>
      </trkpt>
      <trkpt lat="47.45559" lon="6.71237">
        <ele>419.7</ele>
        <time>2017-05-14T08:32:55.000Z</time>
      </trkpt>
      <trkpt lat="47.45561" lon="6.7124">
        <ele>420</ele>
        <time>2017-05-14T08:32:56.000Z</time>
      </trkpt>
      <trkpt lat="47.45563" lon="6.71244">
        <ele>420.3</ele>
        <time>2017-05-14T08:32:57.000Z</time>
      </trkpt>
      <trkpt lat="47.45566" lon="6.71246">
        <ele>420.7</ele>
        <time>2017-05-14T08:32:58.000Z</time>
      </trkpt>
      <trkpt lat="47.45568" lon="6.7125">
        <ele>421.1</ele>
        <time>2017-05-14T08:32:59.000Z</time>
      </trkpt>
      <trkpt lat="47.45568" lon="6.71255">
        <ele>421.3</ele>
        <time>2017-05-14T08:33:00.000Z</time>
      </trkpt>
      <trkpt lat="47.45569" lon="6.71259">
        <ele>421.5</ele>
        <time>2017-05-14T08:33:01.000Z</time>
      </trkpt>
      <trkpt lat="47.45571" lon="6.71263">
        <ele>421.7</ele>
        <time>2017-05-14T08:33:02.000Z</time>
      </trkpt>
      <trkpt lat="47.45572" lon="6.71266">
        <ele>421.8</ele>
        <time>2017-05-14T08:33:03.000Z</time>
      </trkpt>
      <trkpt lat="47.45572" lon="6.71271">
        <ele>421.9</ele>
        <time>2017-05-14T08:33:04.000Z</time>
      </trkpt>
      <trkpt lat="47.45573" lon="6.71274">
        <ele>421.9</ele>
        <time>2017-05-14T08:33:05.000Z</time>
      </trkpt>
      <trkpt lat="47.45574" lon="6.71278">
        <ele>422</ele>
        <time>2017-05-14T08:33:06.000Z</time>
      </trkpt>
      <trkpt lat="47.45574" lon="6.71284">
        <ele>422</ele>
        <time>2017-05-14T08:33:08.000Z</time>
      </trkpt>
      <trkpt lat="47.45576" lon="6.71286">
        <ele>421.9</ele>
        <time>2017-05-14T08:33:09.000Z</time>
      </trkpt>
      <trkpt lat="47.45578" lon="6.71291">
        <ele>421.5</ele>
        <time>2017-05-14T08:33:12.000Z</time>
      </trkpt>
      <trkpt lat="47.4558" lon="6.71294">
        <ele>421.5</ele>
        <time>2017-05-14T08:33:13.000Z</time>
      </trkpt>
      <trkpt lat="47.45581" lon="6.71297">
        <ele>421.2</ele>
        <time>2017-05-14T08:33:14.000Z</time>
      </trkpt>
      <trkpt lat="47.45582" lon="6.71301">
        <ele>421.2</ele>
        <time>2017-05-14T08:33:15.000Z</time>
      </trkpt>
      <trkpt lat="47.45583" lon="6.71305">
        <ele>421.3</ele>
        <time>2017-05-14T08:33:16.000Z</time>
      </trkpt>
      <trkpt lat="47.45583" lon="6.71308">
        <ele>421.5</ele>
        <time>2017-05-14T08:33:17.000Z</time>
      </trkpt>
      <trkpt lat="47.45583" lon="6.71311">
        <ele>421.8</ele>
        <time>2017-05-14T08:33:18.000Z</time>
      </trkpt>
      <trkpt lat="47.45582" lon="6.71318">
        <ele>422</ele>
        <time>2017-05-14T08:33:19.000Z</time>
      </trkpt>
      <trkpt lat="47.45581" lon="6.71312">
        <ele>419</ele>
        <time>2017-05-14T08:33:44.000Z</time>
      </trkpt>
      <trkpt lat="47.4558" lon="6.71311">
        <ele>418.7</ele>
        <time>2017-05-14T08:33:45.000Z</time>
      </trkpt>
      <trkpt lat="47.45579" lon="6.71308">
        <ele>418.5</ele>
        <time>2017-05-14T08:33:46.000Z</time>
      </trkpt>
      <trkpt lat="47.45578" lon="6.71304">
        <ele>418.4</ele>
        <time>2017-05-14T08:33:47.000Z</time>
      </trkpt>
      <trkpt lat="47.45576" lon="6.71298">
        <ele>418.1</ele>
        <time>2017-05-14T08:33:49.000Z</time>
      </trkpt>
      <trkpt lat="47.45575" lon="6.71295">
        <ele>418</ele>
        <time>2017-05-14T08:33:50.000Z</time>
      </trkpt>
      <trkpt lat="47.45572" lon="6.7129">
        <ele>417.9</ele>
        <time>2017-05-14T08:33:51.000Z</time>
      </trkpt>
      <trkpt lat="47.45571" lon="6.71286">
        <ele>417.9</ele>
        <time>2017-05-14T08:33:52.000Z</time>
      </trkpt>
      <trkpt lat="47.45569" lon="6.71281">
        <ele>417.7</ele>
        <time>2017-05-14T08:33:53.000Z</time>
      </trkpt>
      <trkpt lat="47.45567" lon="6.71274">
        <ele>416.1</ele>
        <time>2017-05-14T08:33:54.000Z</time>
      </trkpt>
      <trkpt lat="47.45565" lon="6.71267">
        <ele>414.5</ele>
        <time>2017-05-14T08:33:55.000Z</time>
      </trkpt>
      <trkpt lat="47.45564" lon="6.71262">
        <ele>414.4</ele>
        <time>2017-05-14T08:33:56.000Z</time>
      </trkpt>
      <trkpt lat="47.45561" lon="6.71256">
        <ele>413.9</ele>
        <time>2017-05-14T08:33:57.000Z</time>
      </trkpt>
      <trkpt lat="47.45559" lon="6.71249">
        <ele>413.8</ele>
        <time>2017-05-14T08:33:58.000Z</time>
      </trkpt>
      <trkpt lat="47.45556" lon="6.71242">
        <ele>413.7</ele>
        <time>2017-05-14T08:33:59.000Z</time>
      </trkpt>
      <trkpt lat="47.45554" lon="6.71235">
        <ele>413.6</ele>
        <time>2017-05-14T08:34:00.000Z</time>
      </trkpt>
      <trkpt lat="47.45549" lon="6.71226">
        <ele>412.6</ele>
        <time>2017-05-14T08:34:01.000Z</time>
      </trkpt>
      <trkpt lat="47.45548" lon="6.71214">
        <ele>412.5</ele>
        <time>2017-05-14T08:34:02.000Z</time>
      </trkpt>
      <trkpt lat="47.45546" lon="6.71206">
        <ele>412.4</ele>
        <time>2017-05-14T08:34:03.000Z</time>
      </trkpt>
      <trkpt lat="47.45546" lon="6.71197">
        <ele>412.3</ele>
        <time>2017-05-14T08:34:04.000Z</time>
      </trkpt>
      <trkpt lat="47.45545" lon="6.71193">
        <ele>412.2</ele>
        <time>2017-05-14T08:34:05.000Z</time>
      </trkpt>
      <trkpt lat="47.45544" lon="6.71188">
        <ele>412.2</ele>
        <time>2017-05-14T08:34:06.000Z</time>
      </trkpt>
      <trkpt lat="47.45542" lon="6.71183">
        <ele>412.2</ele>
        <time>2017-05-14T08:34:07.000Z</time>
      </trkpt>
      <trkpt lat="47.45542" lon="6.71178">
        <ele>412.2</ele>
        <time>2017-05-14T08:34:08.000Z</time>
      </trkpt>
      <trkpt lat="47.45541" lon="6.71173">
        <ele>412.2</ele>
        <time>2017-05-14T08:34:09.000Z</time>
      </trkpt>
      <trkpt lat="47.45541" lon="6.71169">
        <ele>412</ele>
        <time>2017-05-14T08:34:10.000Z</time>
      </trkpt>
      <trkpt lat="47.45538" lon="6.71162">
        <ele>411.8</ele>
        <time>2017-05-14T08:34:11.000Z</time>
      </trkpt>
      <trkpt lat="47.45536" lon="6.71155">
        <ele>411.7</ele>
        <time>2017-05-14T08:34:12.000Z</time>
      </trkpt>
      <trkpt lat="47.45535" lon="6.71151">
        <ele>411.7</ele>
        <time>2017-05-14T08:34:13.000Z</time>
      </trkpt>
      <trkpt lat="47.45533" lon="6.71147">
        <ele>411.6</ele>
        <time>2017-05-14T08:34:14.000Z</time>
      </trkpt>
      <trkpt lat="47.45531" lon="6.71142">
        <ele>411.5</ele>
        <time>2017-05-14T08:34:16.000Z</time>
      </trkpt>
      <trkpt lat="47.45531" lon="6.71137">
        <ele>411.5</ele>
        <time>2017-05-14T08:34:17.000Z</time>
      </trkpt>
      <trkpt lat="47.45531" lon="6.71133">
        <ele>411.4</ele>
        <time>2017-05-14T08:34:18.000Z</time>
      </trkpt>
      <trkpt lat="47.45529" lon="6.7113">
        <ele>411.2</ele>
        <time>2017-05-14T08:34:19.000Z</time>
      </trkpt>
      <trkpt lat="47.45526" lon="6.71128">
        <ele>411.1</ele>
        <time>2017-05-14T08:34:20.000Z</time>
      </trkpt>
      <trkpt lat="47.45524" lon="6.71122">
        <ele>410.9</ele>
        <time>2017-05-14T08:34:21.000Z</time>
      </trkpt>
      <trkpt lat="47.45521" lon="6.71117">
        <ele>410.4</ele>
        <time>2017-05-14T08:34:24.000Z</time>
      </trkpt>
      <trkpt lat="47.45521" lon="6.71115">
        <ele>410.2</ele>
        <time>2017-05-14T08:34:25.000Z</time>
      </trkpt>
      <trkpt lat="47.4552" lon="6.71112">
        <ele>409.7</ele>
        <time>2017-05-14T08:34:27.000Z</time>
      </trkpt>
      <trkpt lat="47.45517" lon="6.71109">
        <ele>409.4</ele>
        <time>2017-05-14T08:34:28.000Z</time>
      </trkpt>
      <trkpt lat="47.45514" lon="6.71103">
        <ele>408.7</ele>
        <time>2017-05-14T08:34:31.000Z</time>
      </trkpt>
      <trkpt lat="47.45513" lon="6.71101">
        <ele>408.6</ele>
        <time>2017-05-14T08:34:32.000Z</time>
      </trkpt>
      <trkpt lat="47.45511" lon="6.71097">
        <ele>408.3</ele>
        <time>2017-05-14T08:34:35.000Z</time>
      </trkpt>
      <trkpt lat="47.45512" lon="6.71094">
        <ele>408.4</ele>
        <time>2017-05-14T08:34:36.000Z</time>
      </trkpt>
      <trkpt lat="47.4551" lon="6.71089">
        <ele>409</ele>
        <time>2017-05-14T08:34:40.000Z</time>
      </trkpt>
      <trkpt lat="47.45508" lon="6.71085">
        <ele>409.2</ele>
        <time>2017-05-14T08:34:41.000Z</time>
      </trkpt>
      <trkpt lat="47.45505" lon="6.71081">
        <ele>409.5</ele>
        <time>2017-05-14T08:34:43.000Z</time>
      </trkpt>
      <trkpt lat="47.45503" lon="6.71077">
        <ele>409.6</ele>
        <time>2017-05-14T08:34:44.000Z</time>
      </trkpt>
      <trkpt lat="47.455" lon="6.71073">
        <ele>411.8</ele>
        <time>2017-05-14T08:34:55.000Z</time>
      </trkpt>
      <trkpt lat="47.45498" lon="6.71072">
        <ele>412</ele>
        <time>2017-05-14T08:34:56.000Z</time>
      </trkpt>
      <trkpt lat="47.45495" lon="6.71067">
        <ele>412.2</ele>
        <time>2017-05-14T08:34:57.000Z</time>
      </trkpt>
      <trkpt lat="47.45491" lon="6.71061">
        <ele>412.5</ele>
        <time>2017-05-14T08:34:58.000Z</time>
      </trkpt>
      <trkpt lat="47.45488" lon="6.71056">
        <ele>412.8</ele>
        <time>2017-05-14T08:34:59.000Z</time>
      </trkpt>
      <trkpt lat="47.45484" lon="6.71055">
        <ele>413</ele>
        <time>2017-05-14T08:35:00.000Z</time>
      </trkpt>
      <trkpt lat="47.45482" lon="6.71053">
        <ele>413.4</ele>
        <time>2017-05-14T08:35:03.000Z</time>
      </trkpt>
      <trkpt lat="47.45479" lon="6.7105">
        <ele>413.5</ele>
        <time>2017-05-14T08:35:04.000Z</time>
      </trkpt>
      <trkpt lat="47.45476" lon="6.71047">
        <ele>413.5</ele>
        <time>2017-05-14T08:35:05.000Z</time>
      </trkpt>
      <trkpt lat="47.45472" lon="6.71043">
        <ele>413.5</ele>
        <time>2017-05-14T08:35:06.000Z</time>
      </trkpt>
      <trkpt lat="47.4547" lon="6.71041">
        <ele>413.5</ele>
        <time>2017-05-14T08:35:08.000Z</time>
      </trkpt>
      <trkpt lat="47.45469" lon="6.71038">
        <ele>413.6</ele>
        <time>2017-05-14T08:35:09.000Z</time>
      </trkpt>
      <trkpt lat="47.45467" lon="6.71032">
        <ele>413.7</ele>
        <time>2017-05-14T08:35:10.000Z</time>
      </trkpt>
      <trkpt lat="47.45462" lon="6.71029">
        <ele>413.8</ele>
        <time>2017-05-14T08:35:11.000Z</time>
      </trkpt>
      <trkpt lat="47.45457" lon="6.71027">
        <ele>413.9</ele>
        <time>2017-05-14T08:35:12.000Z</time>
      </trkpt>
      <trkpt lat="47.45453" lon="6.71023">
        <ele>414.1</ele>
        <time>2017-05-14T08:35:13.000Z</time>
      </trkpt>
      <trkpt lat="47.45448" lon="6.71021">
        <ele>414.3</ele>
        <time>2017-05-14T08:35:14.000Z</time>
      </trkpt>
      <trkpt lat="47.45445" lon="6.71018">
        <ele>414.4</ele>
        <time>2017-05-14T08:35:15.000Z</time>
      </trkpt>
      <trkpt lat="47.45444" lon="6.71017">
        <ele>414.6</ele>
        <time>2017-05-14T08:35:16.000Z</time>
      </trkpt>
      <trkpt lat="47.4544" lon="6.71014">
        <ele>415</ele>
        <time>2017-05-14T08:35:19.000Z</time>
      </trkpt>
      <trkpt lat="47.4544" lon="6.71012">
        <ele>415.3</ele>
        <time>2017-05-14T08:35:20.000Z</time>
      </trkpt>
      <trkpt lat="47.45439" lon="6.71006">
        <ele>415.6</ele>
        <time>2017-05-14T08:35:21.000Z</time>
      </trkpt>
      <trkpt lat="47.45439" lon="6.71006">
        <ele>415.8</ele>
        <time>2017-05-14T08:35:22.000Z</time>
      </trkpt>
      <trkpt lat="47.45437" lon="6.71003">
        <ele>417.3</ele>
        <time>2017-05-14T08:35:27.000Z</time>
      </trkpt>
      <trkpt lat="47.45433" lon="6.71001">
        <ele>417.6</ele>
        <time>2017-05-14T08:35:28.000Z</time>
      </trkpt>
      <trkpt lat="47.45428" lon="6.70999">
        <ele>417.9</ele>
        <time>2017-05-14T08:35:29.000Z</time>
      </trkpt>
      <trkpt lat="47.45424" lon="6.70995">
        <ele>418.1</ele>
        <time>2017-05-14T08:35:30.000Z</time>
      </trkpt>
      <trkpt lat="47.4542" lon="6.7099">
        <ele>418.3</ele>
        <time>2017-05-14T08:35:31.000Z</time>
      </trkpt>
      <trkpt lat="47.45418" lon="6.70985">
        <ele>418.6</ele>
        <time>2017-05-14T08:35:32.000Z</time>
      </trkpt>
      <trkpt lat="47.45418" lon="6.70979">
        <ele>418.7</ele>
        <time>2017-05-14T08:35:33.000Z</time>
      </trkpt>
      <trkpt lat="47.45416" lon="6.70973">
        <ele>419.1</ele>
        <time>2017-05-14T08:35:35.000Z</time>
      </trkpt>
      <trkpt lat="47.45415" lon="6.70972">
        <ele>419.2</ele>
        <time>2017-05-14T08:35:36.000Z</time>
      </trkpt>
      <trkpt lat="47.45412" lon="6.70968">
        <ele>419.1</ele>
        <time>2017-05-14T08:35:39.000Z</time>
      </trkpt>
      <trkpt lat="47.45412" lon="6.70966">
        <ele>419.1</ele>
        <time>2017-05-14T08:35:40.000Z</time>
      </trkpt>
      <trkpt lat="47.4541" lon="6.7096">
        <ele>419.2</ele>
        <time>2017-05-14T08:35:44.000Z</time>
      </trkpt>
      <trkpt lat="47.45409" lon="6.70959">
        <ele>419.1</ele>
        <time>2017-05-14T08:35:45.000Z</time>
      </trkpt>
      <trkpt lat="47.45407" lon="6.70955">
        <ele>419.2</ele>
        <time>2017-05-14T08:35:47.000Z</time>
      </trkpt>
      <trkpt lat="47.45405" lon="6.70953">
        <ele>419.3</ele>
        <time>2017-05-14T08:35:48.000Z</time>
      </trkpt>
      <trkpt lat="47.45401" lon="6.70953">
        <ele>419.8</ele>
        <time>2017-05-14T08:35:52.000Z</time>
      </trkpt>
      <trkpt lat="47.454" lon="6.70952">
        <ele>420</ele>
        <time>2017-05-14T08:35:53.000Z</time>
      </trkpt>
      <trkpt lat="47.45398" lon="6.7095">
        <ele>421.1</ele>
        <time>2017-05-14T08:35:57.000Z</time>
      </trkpt>
      <trkpt lat="47.45395" lon="6.70946">
        <ele>421.4</ele>
        <time>2017-05-14T08:35:58.000Z</time>
      </trkpt>
      <trkpt lat="47.45392" lon="6.70943">
        <ele>421.6</ele>
        <time>2017-05-14T08:36:00.000Z</time>
      </trkpt>
      <trkpt lat="47.45391" lon="6.70942">
        <ele>421.9</ele>
        <time>2017-05-14T08:36:01.000Z</time>
      </trkpt>
      <trkpt lat="47.45389" lon="6.70937">
        <ele>423.7</ele>
        <time>2017-05-14T08:36:08.000Z</time>
      </trkpt>
      <trkpt lat="47.45389" lon="6.70935">
        <ele>424.1</ele>
        <time>2017-05-14T08:36:09.000Z</time>
      </trkpt>
      <trkpt lat="47.45389" lon="6.70929">
        <ele>424.9</ele>
        <time>2017-05-14T08:36:13.000Z</time>
      </trkpt>
      <trkpt lat="47.45389" lon="6.70927">
        <ele>425.3</ele>
        <time>2017-05-14T08:36:14.000Z</time>
      </trkpt>
      <trkpt lat="47.45389" lon="6.70921">
        <ele>426.1</ele>
        <time>2017-05-14T08:36:16.000Z</time>
      </trkpt>
      <trkpt lat="47.45389" lon="6.70915">
        <ele>426.4</ele>
        <time>2017-05-14T08:36:17.000Z</time>
      </trkpt>
      <trkpt lat="47.45387" lon="6.7091">
        <ele>427.4</ele>
        <time>2017-05-14T08:36:23.000Z</time>
      </trkpt>
      <trkpt lat="47.45387" lon="6.70907">
        <ele>427.5</ele>
        <time>2017-05-14T08:36:24.000Z</time>
      </trkpt>
      <trkpt lat="47.45389" lon="6.70902">
        <ele>427.9</ele>
        <time>2017-05-14T08:36:28.000Z</time>
      </trkpt>
      <trkpt lat="47.4539" lon="6.70899">
        <ele>428.1</ele>
        <time>2017-05-14T08:36:29.000Z</time>
      </trkpt>
      <trkpt lat="47.4539" lon="6.70894">
        <ele>428.8</ele>
        <time>2017-05-14T08:36:34.000Z</time>
      </trkpt>
      <trkpt lat="47.45387" lon="6.70891">
        <ele>428.8</ele>
        <time>2017-05-14T08:36:35.000Z</time>
      </trkpt>
      <trkpt lat="47.45385" lon="6.70887">
        <ele>429.1</ele>
        <time>2017-05-14T08:36:37.000Z</time>
      </trkpt>
      <trkpt lat="47.45382" lon="6.7088">
        <ele>429.4</ele>
        <time>2017-05-14T08:36:38.000Z</time>
      </trkpt>
      <trkpt lat="47.45378" lon="6.70876">
        <ele>429.7</ele>
        <time>2017-05-14T08:36:39.000Z</time>
      </trkpt>
      <trkpt lat="47.45375" lon="6.70872">
        <ele>430</ele>
        <time>2017-05-14T08:36:40.000Z</time>
      </trkpt>
      <trkpt lat="47.45373" lon="6.70867">
        <ele>430.3</ele>
        <time>2017-05-14T08:36:41.000Z</time>
      </trkpt>
      <trkpt lat="47.45372" lon="6.70862">
        <ele>431</ele>
        <time>2017-05-14T08:36:45.000Z</time>
      </trkpt>
      <trkpt lat="47.45372" lon="6.7086">
        <ele>431.1</ele>
        <time>2017-05-14T08:36:46.000Z</time>
      </trkpt>
      <trkpt lat="47.45369" lon="6.70857">
        <ele>431.7</ele>
        <time>2017-05-14T08:36:48.000Z</time>
      </trkpt>
      <trkpt lat="47.45366" lon="6.70854">
        <ele>432</ele>
        <time>2017-05-14T08:36:49.000Z</time>
      </trkpt>
      <trkpt lat="47.45363" lon="6.70847">
        <ele>432.4</ele>
        <time>2017-05-14T08:36:50.000Z</time>
      </trkpt>
      <trkpt lat="47.4536" lon="6.70843">
        <ele>432.7</ele>
        <time>2017-05-14T08:36:51.000Z</time>
      </trkpt>
      <trkpt lat="47.45356" lon="6.7084">
        <ele>433</ele>
        <time>2017-05-14T08:36:52.000Z</time>
      </trkpt>
      <trkpt lat="47.45353" lon="6.70837">
        <ele>433</ele>
        <time>2017-05-14T08:36:53.000Z</time>
      </trkpt>
      <trkpt lat="47.45352" lon="6.70836">
        <ele>433.1</ele>
        <time>2017-05-14T08:36:54.000Z</time>
      </trkpt>
      <trkpt lat="47.45349" lon="6.7083">
        <ele>433.5</ele>
        <time>2017-05-14T08:36:56.000Z</time>
      </trkpt>
      <trkpt lat="47.45347" lon="6.70827">
        <ele>433.8</ele>
        <time>2017-05-14T08:36:58.000Z</time>
      </trkpt>
      <trkpt lat="47.45345" lon="6.70822">
        <ele>433.8</ele>
        <time>2017-05-14T08:36:59.000Z</time>
      </trkpt>
      <trkpt lat="47.45343" lon="6.70816">
        <ele>433.8</ele>
        <time>2017-05-14T08:37:00.000Z</time>
      </trkpt>
      <trkpt lat="47.45341" lon="6.70814">
        <ele>433.8</ele>
        <time>2017-05-14T08:37:01.000Z</time>
      </trkpt>
      <trkpt lat="47.45338" lon="6.70809">
        <ele>433.4</ele>
        <time>2017-05-14T08:37:05.000Z</time>
      </trkpt>
      <trkpt lat="47.45337" lon="6.70808">
        <ele>433.3</ele>
        <time>2017-05-14T08:37:06.000Z</time>
      </trkpt>
      <trkpt lat="47.45334" lon="6.70804">
        <ele>432.9</ele>
        <time>2017-05-14T08:37:10.000Z</time>
      </trkpt>
      <trkpt lat="47.45333" lon="6.70802">
        <ele>432.8</ele>
        <time>2017-05-14T08:37:11.000Z</time>
      </trkpt>
      <trkpt lat="47.45331" lon="6.708">
        <ele>432.8</ele>
        <time>2017-05-14T08:37:12.000Z</time>
      </trkpt>
      <trkpt lat="47.45329" lon="6.70798">
        <ele>432.7</ele>
        <time>2017-05-14T08:37:13.000Z</time>
      </trkpt>
      <trkpt lat="47.45327" lon="6.70795">
        <ele>432.8</ele>
        <time>2017-05-14T08:37:14.000Z</time>
      </trkpt>
      <trkpt lat="47.45325" lon="6.70793">
        <ele>432.8</ele>
        <time>2017-05-14T08:37:15.000Z</time>
      </trkpt>
      <trkpt lat="47.45323" lon="6.70788">
        <ele>433.3</ele>
        <time>2017-05-14T08:37:20.000Z</time>
      </trkpt>
      <trkpt lat="47.45323" lon="6.70786">
        <ele>433.4</ele>
        <time>2017-05-14T08:37:21.000Z</time>
      </trkpt>
      <trkpt lat="47.45322" lon="6.70781">
        <ele>434.2</ele>
        <time>2017-05-14T08:37:27.000Z</time>
      </trkpt>
      <trkpt lat="47.45321" lon="6.70778">
        <ele>434.3</ele>
        <time>2017-05-14T08:37:28.000Z</time>
      </trkpt>
      <trkpt lat="47.45319" lon="6.70773">
        <ele>434.4</ele>
        <time>2017-05-14T08:37:29.000Z</time>
      </trkpt>
      <trkpt lat="47.45318" lon="6.70771">
        <ele>434.5</ele>
        <time>2017-05-14T08:37:30.000Z</time>
      </trkpt>
      <trkpt lat="47.45316" lon="6.70766">
        <ele>434.6</ele>
        <time>2017-05-14T08:37:31.000Z</time>
      </trkpt>
      <trkpt lat="47.45315" lon="6.70765">
        <ele>434.6</ele>
        <time>2017-05-14T08:37:32.000Z</time>
      </trkpt>
      <trkpt lat="47.45313" lon="6.70761">
        <ele>434.7</ele>
        <time>2017-05-14T08:37:34.000Z</time>
      </trkpt>
      <trkpt lat="47.45311" lon="6.7076">
        <ele>434.8</ele>
        <time>2017-05-14T08:37:35.000Z</time>
      </trkpt>
      <trkpt lat="47.45309" lon="6.70756">
        <ele>435.4</ele>
        <time>2017-05-14T08:37:38.000Z</time>
      </trkpt>
      <trkpt lat="47.45309" lon="6.70753">
        <ele>435.7</ele>
        <time>2017-05-14T08:37:39.000Z</time>
      </trkpt>
      <trkpt lat="47.45309" lon="6.70752">
        <ele>436</ele>
        <time>2017-05-14T08:37:40.000Z</time>
      </trkpt>
      <trkpt lat="47.45307" lon="6.70747">
        <ele>436.3</ele>
        <time>2017-05-14T08:37:41.000Z</time>
      </trkpt>
      <trkpt lat="47.45306" lon="6.70746">
        <ele>436.6</ele>
        <time>2017-05-14T08:37:42.000Z</time>
      </trkpt>
      <trkpt lat="47.45304" lon="6.70741">
        <ele>436.9</ele>
        <time>2017-05-14T08:37:43.000Z</time>
      </trkpt>
      <trkpt lat="47.45305" lon="6.70735">
        <ele>438</ele>
        <time>2017-05-14T08:37:52.000Z</time>
      </trkpt>
      <trkpt lat="47.45305" lon="6.70733">
        <ele>438</ele>
        <time>2017-05-14T08:37:53.000Z</time>
      </trkpt>
      <trkpt lat="47.45303" lon="6.70727">
        <ele>438.5</ele>
        <time>2017-05-14T08:37:57.000Z</time>
      </trkpt>
      <trkpt lat="47.45304" lon="6.70726">
        <ele>438.8</ele>
        <time>2017-05-14T08:37:58.000Z</time>
      </trkpt>
      <trkpt lat="47.45301" lon="6.70722">
        <ele>440.7</ele>
        <time>2017-05-14T08:38:03.000Z</time>
      </trkpt>
      <trkpt lat="47.45301" lon="6.7072">
        <ele>441.1</ele>
        <time>2017-05-14T08:38:04.000Z</time>
      </trkpt>
      <trkpt lat="47.45299" lon="6.70715">
        <ele>441.8</ele>
        <time>2017-05-14T08:38:06.000Z</time>
      </trkpt>
      <trkpt lat="47.45298" lon="6.70706">
        <ele>442.1</ele>
        <time>2017-05-14T08:38:07.000Z</time>
      </trkpt>
      <trkpt lat="47.45297" lon="6.707">
        <ele>442.4</ele>
        <time>2017-05-14T08:38:08.000Z</time>
      </trkpt>
      <trkpt lat="47.45294" lon="6.70697">
        <ele>442.6</ele>
        <time>2017-05-14T08:38:09.000Z</time>
      </trkpt>
      <trkpt lat="47.45293" lon="6.70697">
        <ele>442.9</ele>
        <time>2017-05-14T08:38:10.000Z</time>
      </trkpt>
      <trkpt lat="47.45291" lon="6.70693">
        <ele>443.8</ele>
        <time>2017-05-14T08:38:13.000Z</time>
      </trkpt>
      <trkpt lat="47.4529" lon="6.70691">
        <ele>444</ele>
        <time>2017-05-14T08:38:14.000Z</time>
      </trkpt>
      <trkpt lat="47.45287" lon="6.70686">
        <ele>444.5</ele>
        <time>2017-05-14T08:38:17.000Z</time>
      </trkpt>
      <trkpt lat="47.45287" lon="6.70685">
        <ele>444.5</ele>
        <time>2017-05-14T08:38:18.000Z</time>
      </trkpt>
      <trkpt lat="47.45285" lon="6.70682">
        <ele>444.7</ele>
        <time>2017-05-14T08:38:23.000Z</time>
      </trkpt>
      <trkpt lat="47.45284" lon="6.70677">
        <ele>444.7</ele>
        <time>2017-05-14T08:38:24.000Z</time>
      </trkpt>
      <trkpt lat="47.45282" lon="6.70673">
        <ele>444.6</ele>
        <time>2017-05-14T08:38:28.000Z</time>
      </trkpt>
      <trkpt lat="47.4528" lon="6.7067">
        <ele>444.5</ele>
        <time>2017-05-14T08:38:29.000Z</time>
      </trkpt>
      <trkpt lat="47.45277" lon="6.70665">
        <ele>443.9</ele>
        <time>2017-05-14T08:38:33.000Z</time>
      </trkpt>
      <trkpt lat="47.45276" lon="6.70665">
        <ele>443.8</ele>
        <time>2017-05-14T08:38:34.000Z</time>
      </trkpt>
      <trkpt lat="47.45274" lon="6.70661">
        <ele>444</ele>
        <time>2017-05-14T08:38:37.000Z</time>
      </trkpt>
      <trkpt lat="47.45271" lon="6.70657">
        <ele>444.1</ele>
        <time>2017-05-14T08:38:38.000Z</time>
      </trkpt>
      <trkpt lat="47.45271" lon="6.70654">
        <ele>444.2</ele>
        <time>2017-05-14T08:38:39.000Z</time>
      </trkpt>
      <trkpt lat="47.45268" lon="6.70649">
        <ele>444.2</ele>
        <time>2017-05-14T08:38:40.000Z</time>
      </trkpt>
      <trkpt lat="47.45266" lon="6.70646">
        <ele>444.3</ele>
        <time>2017-05-14T08:38:42.000Z</time>
      </trkpt>
      <trkpt lat="47.45263" lon="6.70644">
        <ele>444.3</ele>
        <time>2017-05-14T08:38:43.000Z</time>
      </trkpt>
      <trkpt lat="47.45259" lon="6.70642">
        <ele>443.8</ele>
        <time>2017-05-14T08:38:49.000Z</time>
      </trkpt>
      <trkpt lat="47.45258" lon="6.7064">
        <ele>443.6</ele>
        <time>2017-05-14T08:38:50.000Z</time>
      </trkpt>
      <trkpt lat="47.45256" lon="6.70637">
        <ele>443.5</ele>
        <time>2017-05-14T08:38:53.000Z</time>
      </trkpt>
      <trkpt lat="47.45252" lon="6.70635">
        <ele>443.5</ele>
        <time>2017-05-14T08:38:54.000Z</time>
      </trkpt>
      <trkpt lat="47.45248" lon="6.70632">
        <ele>443.3</ele>
        <time>2017-05-14T08:38:58.000Z</time>
      </trkpt>
      <trkpt lat="47.45246" lon="6.70631">
        <ele>443.5</ele>
        <time>2017-05-14T08:38:59.000Z</time>
      </trkpt>
      <trkpt lat="47.45246" lon="6.7063">
        <ele>443.8</ele>
        <time>2017-05-14T08:39:01.000Z</time>
      </trkpt>
      <trkpt lat="47.45239" lon="6.7063">
        <ele>443.9</ele>
        <time>2017-05-14T08:39:02.000Z</time>
      </trkpt>
      <trkpt lat="47.45236" lon="6.70628">
        <ele>444</ele>
        <time>2017-05-14T08:39:04.000Z</time>
      </trkpt>
      <trkpt lat="47.45231" lon="6.70627">
        <ele>444.1</ele>
        <time>2017-05-14T08:39:05.000Z</time>
      </trkpt>
      <trkpt lat="47.45228" lon="6.70625">
        <ele>444.3</ele>
        <time>2017-05-14T08:39:06.000Z</time>
      </trkpt>
      <trkpt lat="47.45223" lon="6.70621">
        <ele>444.5</ele>
        <time>2017-05-14T08:39:07.000Z</time>
      </trkpt>
      <trkpt lat="47.45221" lon="6.70619">
        <ele>444.7</ele>
        <time>2017-05-14T08:39:08.000Z</time>
      </trkpt>
      <trkpt lat="47.45218" lon="6.70616">
        <ele>444.8</ele>
        <time>2017-05-14T08:39:09.000Z</time>
      </trkpt>
      <trkpt lat="47.45216" lon="6.70614">
        <ele>444.9</ele>
        <time>2017-05-14T08:39:10.000Z</time>
      </trkpt>
      <trkpt lat="47.45214" lon="6.70612">
        <ele>445.1</ele>
        <time>2017-05-14T08:39:11.000Z</time>
      </trkpt>
      <trkpt lat="47.4521" lon="6.70609">
        <ele>445.3</ele>
        <time>2017-05-14T08:39:14.000Z</time>
      </trkpt>
      <trkpt lat="47.45209" lon="6.70608">
        <ele>445.3</ele>
        <time>2017-05-14T08:39:15.000Z</time>
      </trkpt>
      <trkpt lat="47.45206" lon="6.70608">
        <ele>445.5</ele>
        <time>2017-05-14T08:39:17.000Z</time>
      </trkpt>
      <trkpt lat="47.45203" lon="6.70606">
        <ele>445.6</ele>
        <time>2017-05-14T08:39:18.000Z</time>
      </trkpt>
      <trkpt lat="47.45199" lon="6.70604">
        <ele>445.7</ele>
        <time>2017-05-14T08:39:19.000Z</time>
      </trkpt>
      <trkpt lat="47.45196" lon="6.70601">
        <ele>445.8</ele>
        <time>2017-05-14T08:39:20.000Z</time>
      </trkpt>
      <trkpt lat="47.45193" lon="6.70599">
        <ele>446.1</ele>
        <time>2017-05-14T08:39:22.000Z</time>
      </trkpt>
      <trkpt lat="47.45191" lon="6.70598">
        <ele>446.3</ele>
        <time>2017-05-14T08:39:23.000Z</time>
      </trkpt>
      <trkpt lat="47.45188" lon="6.70596">
        <ele>446.5</ele>
        <time>2017-05-14T08:39:25.000Z</time>
      </trkpt>
      <trkpt lat="47.45186" lon="6.70595">
        <ele>446.8</ele>
        <time>2017-05-14T08:39:26.000Z</time>
      </trkpt>
      <trkpt lat="47.45184" lon="6.70594">
        <ele>447</ele>
        <time>2017-05-14T08:39:27.000Z</time>
      </trkpt>
      <trkpt lat="47.45181" lon="6.70593">
        <ele>447.2</ele>
        <time>2017-05-14T08:39:28.000Z</time>
      </trkpt>
      <trkpt lat="47.45179" lon="6.70591">
        <ele>447.4</ele>
        <time>2017-05-14T08:39:29.000Z</time>
      </trkpt>
      <trkpt lat="47.45177" lon="6.7059">
        <ele>447.5</ele>
        <time>2017-05-14T08:39:30.000Z</time>
      </trkpt>
      <trkpt lat="47.45175" lon="6.70589">
        <ele>447.7</ele>
        <time>2017-05-14T08:39:31.000Z</time>
      </trkpt>
      <trkpt lat="47.4517" lon="6.70589">
        <ele>447.8</ele>
        <time>2017-05-14T08:39:32.000Z</time>
      </trkpt>
      <trkpt lat="47.45167" lon="6.70588">
        <ele>448</ele>
        <time>2017-05-14T08:39:33.000Z</time>
      </trkpt>
      <trkpt lat="47.45165" lon="6.70588">
        <ele>448.1</ele>
        <time>2017-05-14T08:39:34.000Z</time>
      </trkpt>
      <trkpt lat="47.45161" lon="6.70588">
        <ele>448.6</ele>
        <time>2017-05-14T08:39:37.000Z</time>
      </trkpt>
      <trkpt lat="47.4516" lon="6.70588">
        <ele>448.8</ele>
        <time>2017-05-14T08:39:38.000Z</time>
      </trkpt>
      <trkpt lat="47.45155" lon="6.70589">
        <ele>449.5</ele>
        <time>2017-05-14T08:39:41.000Z</time>
      </trkpt>
      <trkpt lat="47.45154" lon="6.70589">
        <ele>449.7</ele>
        <time>2017-05-14T08:39:42.000Z</time>
      </trkpt>
      <trkpt lat="47.45151" lon="6.70589">
        <ele>450.2</ele>
        <time>2017-05-14T08:39:45.000Z</time>
      </trkpt>
      <trkpt lat="47.4515" lon="6.70588">
        <ele>450.4</ele>
        <time>2017-05-14T08:39:46.000Z</time>
      </trkpt>
      <trkpt lat="47.45146" lon="6.70589">
        <ele>451</ele>
        <time>2017-05-14T08:39:48.000Z</time>
      </trkpt>
      <trkpt lat="47.45144" lon="6.70588">
        <ele>451.2</ele>
        <time>2017-05-14T08:39:49.000Z</time>
      </trkpt>
      <trkpt lat="47.45141" lon="6.70586">
        <ele>451.8</ele>
        <time>2017-05-14T08:39:51.000Z</time>
      </trkpt>
      <trkpt lat="47.45139" lon="6.70585">
        <ele>452.1</ele>
        <time>2017-05-14T08:39:52.000Z</time>
      </trkpt>
      <trkpt lat="47.45136" lon="6.70586">
        <ele>452.6</ele>
        <time>2017-05-14T08:39:54.000Z</time>
      </trkpt>
      <trkpt lat="47.45133" lon="6.70589">
        <ele>452.8</ele>
        <time>2017-05-14T08:39:55.000Z</time>
      </trkpt>
      <trkpt lat="47.4513" lon="6.70591">
        <ele>453</ele>
        <time>2017-05-14T08:39:56.000Z</time>
      </trkpt>
      <trkpt lat="47.45126" lon="6.70593">
        <ele>453.2</ele>
        <time>2017-05-14T08:39:57.000Z</time>
      </trkpt>
      <trkpt lat="47.45123" lon="6.70596">
        <ele>453.3</ele>
        <time>2017-05-14T08:39:58.000Z</time>
      </trkpt>
      <trkpt lat="47.45121" lon="6.70597">
        <ele>453.5</ele>
        <time>2017-05-14T08:39:59.000Z</time>
      </trkpt>
      <trkpt lat="47.45117" lon="6.706">
        <ele>454</ele>
        <time>2017-05-14T08:40:02.000Z</time>
      </trkpt>
      <trkpt lat="47.45117" lon="6.70601">
        <ele>454.1</ele>
        <time>2017-05-14T08:40:03.000Z</time>
      </trkpt>
      <trkpt lat="47.45114" lon="6.70603">
        <ele>454.1</ele>
        <time>2017-05-14T08:40:04.000Z</time>
      </trkpt>
      <trkpt lat="47.45112" lon="6.70605">
        <ele>454.2</ele>
        <time>2017-05-14T08:40:05.000Z</time>
      </trkpt>
      <trkpt lat="47.45108" lon="6.70606">
        <ele>454.8</ele>
        <time>2017-05-14T08:40:10.000Z</time>
      </trkpt>
      <trkpt lat="47.45107" lon="6.70608">
        <ele>455</ele>
        <time>2017-05-14T08:40:11.000Z</time>
      </trkpt>
      <trkpt lat="47.45106" lon="6.7061">
        <ele>455.2</ele>
        <time>2017-05-14T08:40:12.000Z</time>
      </trkpt>
      <trkpt lat="47.45101" lon="6.70612">
        <ele>455.4</ele>
        <time>2017-05-14T08:40:13.000Z</time>
      </trkpt>
      <trkpt lat="47.45098" lon="6.70614">
        <ele>455.7</ele>
        <time>2017-05-14T08:40:15.000Z</time>
      </trkpt>
      <trkpt lat="47.45096" lon="6.70615">
        <ele>455.8</ele>
        <time>2017-05-14T08:40:16.000Z</time>
      </trkpt>
      <trkpt lat="47.45094" lon="6.70617">
        <ele>455.9</ele>
        <time>2017-05-14T08:40:17.000Z</time>
      </trkpt>
      <trkpt lat="47.4509" lon="6.70619">
        <ele>456</ele>
        <time>2017-05-14T08:40:18.000Z</time>
      </trkpt>
      <trkpt lat="47.45087" lon="6.70623">
        <ele>456.1</ele>
        <time>2017-05-14T08:40:19.000Z</time>
      </trkpt>
      <trkpt lat="47.45084" lon="6.70627">
        <ele>456.3</ele>
        <time>2017-05-14T08:40:20.000Z</time>
      </trkpt>
      <trkpt lat="47.45082" lon="6.70631">
        <ele>456.3</ele>
        <time>2017-05-14T08:40:21.000Z</time>
      </trkpt>
      <trkpt lat="47.45081" lon="6.70634">
        <ele>456.4</ele>
        <time>2017-05-14T08:40:22.000Z</time>
      </trkpt>
      <trkpt lat="47.45079" lon="6.70639">
        <ele>456.5</ele>
        <time>2017-05-14T08:40:23.000Z</time>
      </trkpt>
      <trkpt lat="47.4508" lon="6.70644">
        <ele>456.6</ele>
        <time>2017-05-14T08:40:26.000Z</time>
      </trkpt>
      <trkpt lat="47.4508" lon="6.70647">
        <ele>456.6</ele>
        <time>2017-05-14T08:40:27.000Z</time>
      </trkpt>
      <trkpt lat="47.45081" lon="6.70651">
        <ele>456.7</ele>
        <time>2017-05-14T08:40:28.000Z</time>
      </trkpt>
      <trkpt lat="47.45082" lon="6.70654">
        <ele>456.8</ele>
        <time>2017-05-14T08:40:29.000Z</time>
      </trkpt>
      <trkpt lat="47.45085" lon="6.70659">
        <ele>456.9</ele>
        <time>2017-05-14T08:40:32.000Z</time>
      </trkpt>
      <trkpt lat="47.45086" lon="6.7066">
        <ele>456.9</ele>
        <time>2017-05-14T08:40:33.000Z</time>
      </trkpt>
      <trkpt lat="47.45088" lon="6.70663">
        <ele>456.8</ele>
        <time>2017-05-14T08:40:35.000Z</time>
      </trkpt>
      <trkpt lat="47.45089" lon="6.70665">
        <ele>456.7</ele>
        <time>2017-05-14T08:40:36.000Z</time>
      </trkpt>
      <trkpt lat="47.45091" lon="6.70668">
        <ele>456.8</ele>
        <time>2017-05-14T08:40:38.000Z</time>
      </trkpt>
      <trkpt lat="47.45092" lon="6.70671">
        <ele>456.9</ele>
        <time>2017-05-14T08:40:39.000Z</time>
      </trkpt>
      <trkpt lat="47.45094" lon="6.70675">
        <ele>457</ele>
        <time>2017-05-14T08:40:41.000Z</time>
      </trkpt>
      <trkpt lat="47.45094" lon="6.70677">
        <ele>457.1</ele>
        <time>2017-05-14T08:40:42.000Z</time>
      </trkpt>
      <trkpt lat="47.45096" lon="6.70682">
        <ele>457.1</ele>
        <time>2017-05-14T08:40:45.000Z</time>
      </trkpt>
      <trkpt lat="47.45097" lon="6.70683">
        <ele>457.1</ele>
        <time>2017-05-14T08:40:46.000Z</time>
      </trkpt>
      <trkpt lat="47.451" lon="6.70688">
        <ele>457.2</ele>
        <time>2017-05-14T08:40:50.000Z</time>
      </trkpt>
      <trkpt lat="47.45101" lon="6.70689">
        <ele>457.3</ele>
        <time>2017-05-14T08:40:51.000Z</time>
      </trkpt>
      <trkpt lat="47.45105" lon="6.7069">
        <ele>457.6</ele>
        <time>2017-05-14T08:40:54.000Z</time>
      </trkpt>
      <trkpt lat="47.45107" lon="6.70691">
        <ele>457.7</ele>
        <time>2017-05-14T08:40:55.000Z</time>
      </trkpt>
      <trkpt lat="47.45111" lon="6.70693">
        <ele>457.8</ele>
        <time>2017-05-14T08:40:57.000Z</time>
      </trkpt>
      <trkpt lat="47.45112" lon="6.70693">
        <ele>457.8</ele>
        <time>2017-05-14T08:40:58.000Z</time>
      </trkpt>
      <trkpt lat="47.45115" lon="6.70696">
        <ele>458</ele>
        <time>2017-05-14T08:41:00.000Z</time>
      </trkpt>
      <trkpt lat="47.45116" lon="6.70698">
        <ele>458.2</ele>
        <time>2017-05-14T08:41:01.000Z</time>
      </trkpt>
      <trkpt lat="47.45119" lon="6.70703">
        <ele>458.7</ele>
        <time>2017-05-14T08:41:04.000Z</time>
      </trkpt>
      <trkpt lat="47.4512" lon="6.70705">
        <ele>458.9</ele>
        <time>2017-05-14T08:41:05.000Z</time>
      </trkpt>
      <trkpt lat="47.45121" lon="6.7071">
        <ele>459.2</ele>
        <time>2017-05-14T08:41:07.000Z</time>
      </trkpt>
      <trkpt lat="47.45122" lon="6.70712">
        <ele>459.4</ele>
        <time>2017-05-14T08:41:08.000Z</time>
      </trkpt>
      <trkpt lat="47.45123" lon="6.70719">
        <ele>459.8</ele>
        <time>2017-05-14T08:41:10.000Z</time>
      </trkpt>
      <trkpt lat="47.45123" lon="6.70721">
        <ele>460.1</ele>
        <time>2017-05-14T08:41:11.000Z</time>
      </trkpt>
      <trkpt lat="47.45122" lon="6.70727">
        <ele>460.3</ele>
        <time>2017-05-14T08:41:13.000Z</time>
      </trkpt>
      <trkpt lat="47.45122" lon="6.7073">
        <ele>460.4</ele>
        <time>2017-05-14T08:41:14.000Z</time>
      </trkpt>
      <trkpt lat="47.45122" lon="6.70735">
        <ele>460.8</ele>
        <time>2017-05-14T08:41:16.000Z</time>
      </trkpt>
      <trkpt lat="47.45123" lon="6.70738">
        <ele>461</ele>
        <time>2017-05-14T08:41:17.000Z</time>
      </trkpt>
      <trkpt lat="47.45123" lon="6.70743">
        <ele>461.4</ele>
        <time>2017-05-14T08:41:19.000Z</time>
      </trkpt>
      <trkpt lat="47.45123" lon="6.70746">
        <ele>461.6</ele>
        <time>2017-05-14T08:41:20.000Z</time>
      </trkpt>
      <trkpt lat="47.45123" lon="6.7075">
        <ele>462</ele>
        <time>2017-05-14T08:41:22.000Z</time>
      </trkpt>
      <trkpt lat="47.45123" lon="6.70753">
        <ele>462.2</ele>
        <time>2017-05-14T08:41:23.000Z</time>
      </trkpt>
      <trkpt lat="47.45123" lon="6.70759">
        <ele>462.8</ele>
        <time>2017-05-14T08:41:26.000Z</time>
      </trkpt>
      <trkpt lat="47.45123" lon="6.70761">
        <ele>462.9</ele>
        <time>2017-05-14T08:41:27.000Z</time>
      </trkpt>
      <trkpt lat="47.45121" lon="6.70764">
        <ele>463.4</ele>
        <time>2017-05-14T08:41:30.000Z</time>
      </trkpt>
      <trkpt lat="47.4512" lon="6.70766">
        <ele>463.5</ele>
        <time>2017-05-14T08:41:31.000Z</time>
      </trkpt>
      <trkpt lat="47.45118" lon="6.70772">
        <ele>463.9</ele>
        <time>2017-05-14T08:41:34.000Z</time>
      </trkpt>
      <trkpt lat="47.45118" lon="6.70774">
        <ele>464</ele>
        <time>2017-05-14T08:41:35.000Z</time>
      </trkpt>
      <trkpt lat="47.45117" lon="6.7078">
        <ele>464.4</ele>
        <time>2017-05-14T08:41:39.000Z</time>
      </trkpt>
      <trkpt lat="47.45117" lon="6.70782">
        <ele>464.5</ele>
        <time>2017-05-14T08:41:40.000Z</time>
      </trkpt>
      <trkpt lat="47.45115" lon="6.70787">
        <ele>464.8</ele>
        <time>2017-05-14T08:41:43.000Z</time>
      </trkpt>
      <trkpt lat="47.45114" lon="6.7079">
        <ele>464.8</ele>
        <time>2017-05-14T08:41:44.000Z</time>
      </trkpt>
      <trkpt lat="47.45114" lon="6.70796">
        <ele>465.1</ele>
        <time>2017-05-14T08:41:49.000Z</time>
      </trkpt>
      <trkpt lat="47.45115" lon="6.70797">
        <ele>465.1</ele>
        <time>2017-05-14T08:41:50.000Z</time>
      </trkpt>
      <trkpt lat="47.45116" lon="6.70801">
        <ele>465</ele>
        <time>2017-05-14T08:41:53.000Z</time>
      </trkpt>
      <trkpt lat="47.45117" lon="6.70803">
        <ele>465</ele>
        <time>2017-05-14T08:41:54.000Z</time>
      </trkpt>
      <trkpt lat="47.45119" lon="6.70807">
        <ele>464.7</ele>
        <time>2017-05-14T08:41:56.000Z</time>
      </trkpt>
      <trkpt lat="47.4512" lon="6.7081">
        <ele>464.6</ele>
        <time>2017-05-14T08:41:57.000Z</time>
      </trkpt>
      <trkpt lat="47.45122" lon="6.70815">
        <ele>464.2</ele>
        <time>2017-05-14T08:42:00.000Z</time>
      </trkpt>
      <trkpt lat="47.45122" lon="6.70818">
        <ele>464.2</ele>
        <time>2017-05-14T08:42:01.000Z</time>
      </trkpt>
      <trkpt lat="47.45123" lon="6.70823">
        <ele>464</ele>
        <time>2017-05-14T08:42:03.000Z</time>
      </trkpt>
      <trkpt lat="47.45124" lon="6.70827">
        <ele>463.9</ele>
        <time>2017-05-14T08:42:04.000Z</time>
      </trkpt>
      <trkpt lat="47.45124" lon="6.70833">
        <ele>463.5</ele>
        <time>2017-05-14T08:42:06.000Z</time>
      </trkpt>
      <trkpt lat="47.45125" lon="6.70835">
        <ele>463.3</ele>
        <time>2017-05-14T08:42:07.000Z</time>
      </trkpt>
      <trkpt lat="47.45126" lon="6.70841">
        <ele>462.2</ele>
        <time>2017-05-14T08:42:11.000Z</time>
      </trkpt>
      <trkpt lat="47.45126" lon="6.70842">
        <ele>461.9</ele>
        <time>2017-05-14T08:42:12.000Z</time>
      </trkpt>
      <trkpt lat="47.45128" lon="6.70848">
        <ele>461.2</ele>
        <time>2017-05-14T08:42:15.000Z</time>
      </trkpt>
      <trkpt lat="47.45128" lon="6.7085">
        <ele>461</ele>
        <time>2017-05-14T08:42:15.999Z</time>
      </trkpt>
      <trkpt lat="47.4513" lon="6.70854">
        <ele>460.5</ele>
        <time>2017-05-14T08:42:17.999Z</time>
      </trkpt>
      <trkpt lat="47.45131" lon="6.70857">
        <ele>460.3</ele>
        <time>2017-05-14T08:42:18.999Z</time>
      </trkpt>
      <trkpt lat="47.45132" lon="6.70863">
        <ele>459.8</ele>
        <time>2017-05-14T08:42:20.999Z</time>
      </trkpt>
      <trkpt lat="47.45133" lon="6.70866">
        <ele>459.7</ele>
        <time>2017-05-14T08:42:21.999Z</time>
      </trkpt>
      <trkpt lat="47.45135" lon="6.70869">
        <ele>459.4</ele>
        <time>2017-05-14T08:42:22.999Z</time>
      </trkpt>
      <trkpt lat="47.45135" lon="6.70873">
        <ele>459.2</ele>
        <time>2017-05-14T08:42:23.999Z</time>
      </trkpt>
      <trkpt lat="47.45137" lon="6.70878">
        <ele>457.7</ele>
        <time>2017-05-14T08:42:27.999Z</time>
      </trkpt>
      <trkpt lat="47.45137" lon="6.7088">
        <ele>457.5</ele>
        <time>2017-05-14T08:42:28.999Z</time>
      </trkpt>
      <trkpt lat="47.45139" lon="6.70883">
        <ele>457</ele>
        <time>2017-05-14T08:42:30.999Z</time>
      </trkpt>
      <trkpt lat="47.45142" lon="6.70888">
        <ele>456.6</ele>
        <time>2017-05-14T08:42:31.999Z</time>
      </trkpt>
      <trkpt lat="47.45145" lon="6.70891">
        <ele>456.3</ele>
        <time>2017-05-14T08:42:32.999Z</time>
      </trkpt>
      <trkpt lat="47.45146" lon="6.70894">
        <ele>456</ele>
        <time>2017-05-14T08:42:33.999Z</time>
      </trkpt>
      <trkpt lat="47.45147" lon="6.70897">
        <ele>455.9</ele>
        <time>2017-05-14T08:42:34.999Z</time>
      </trkpt>
      <trkpt lat="47.45149" lon="6.709">
        <ele>455.7</ele>
        <time>2017-05-14T08:42:35.999Z</time>
      </trkpt>
      <trkpt lat="47.45151" lon="6.70903">
        <ele>455.6</ele>
        <time>2017-05-14T08:42:36.999Z</time>
      </trkpt>
      <trkpt lat="47.45152" lon="6.70905">
        <ele>455.3</ele>
        <time>2017-05-14T08:42:37.999Z</time>
      </trkpt>
      <trkpt lat="47.45153" lon="6.70908">
        <ele>455.1</ele>
        <time>2017-05-14T08:42:38.999Z</time>
      </trkpt>
      <trkpt lat="47.45154" lon="6.70911">
        <ele>455.2</ele>
        <time>2017-05-14T08:42:39.999Z</time>
      </trkpt>
      <trkpt lat="47.45156" lon="6.70918">
        <ele>455.1</ele>
        <time>2017-05-14T08:42:40.999Z</time>
      </trkpt>
      <trkpt lat="47.45157" lon="6.70923">
        <ele>454.9</ele>
        <time>2017-05-14T08:42:42.999Z</time>
      </trkpt>
      <trkpt lat="47.45157" lon="6.70925">
        <ele>454.9</ele>
        <time>2017-05-14T08:42:43.999Z</time>
      </trkpt>
      <trkpt lat="47.4516" lon="6.7093">
        <ele>455</ele>
        <time>2017-05-14T08:42:45.999Z</time>
      </trkpt>
      <trkpt lat="47.45162" lon="6.70933">
        <ele>455</ele>
        <time>2017-05-14T08:42:46.999Z</time>
      </trkpt>
      <trkpt lat="47.45163" lon="6.70935">
        <ele>455.1</ele>
        <time>2017-05-14T08:42:47.999Z</time>
      </trkpt>
      <trkpt lat="47.45165" lon="6.70938">
        <ele>455.1</ele>
        <time>2017-05-14T08:42:48.999Z</time>
      </trkpt>
      <trkpt lat="47.45166" lon="6.7094">
        <ele>455.2</ele>
        <time>2017-05-14T08:42:49.999Z</time>
      </trkpt>
      <trkpt lat="47.45168" lon="6.70944">
        <ele>455.2</ele>
        <time>2017-05-14T08:42:50.999Z</time>
      </trkpt>
      <trkpt lat="47.45171" lon="6.70949">
        <ele>455.5</ele>
        <time>2017-05-14T08:42:52.999Z</time>
      </trkpt>
      <trkpt lat="47.45172" lon="6.70951">
        <ele>455.5</ele>
        <time>2017-05-14T08:42:53.999Z</time>
      </trkpt>
      <trkpt lat="47.45175" lon="6.70956">
        <ele>455.7</ele>
        <time>2017-05-14T08:42:55.999Z</time>
      </trkpt>
      <trkpt lat="47.45176" lon="6.70958">
        <ele>455.7</ele>
        <time>2017-05-14T08:42:56.999Z</time>
      </trkpt>
      <trkpt lat="47.45178" lon="6.70962">
        <ele>455.7</ele>
        <time>2017-05-14T08:42:58.999Z</time>
      </trkpt>
      <trkpt lat="47.45179" lon="6.70964">
        <ele>455.7</ele>
        <time>2017-05-14T08:42:59.999Z</time>
      </trkpt>
      <trkpt lat="47.45181" lon="6.70968">
        <ele>455.6</ele>
        <time>2017-05-14T08:43:00.999Z</time>
      </trkpt>
      <trkpt lat="47.45182" lon="6.7097">
        <ele>455.7</ele>
        <time>2017-05-14T08:43:01.999Z</time>
      </trkpt>
      <trkpt lat="47.45183" lon="6.70974">
        <ele>455.6</ele>
        <time>2017-05-14T08:43:02.999Z</time>
      </trkpt>
      <trkpt lat="47.45185" lon="6.70976">
        <ele>455.6</ele>
        <time>2017-05-14T08:43:03.999Z</time>
      </trkpt>
      <trkpt lat="47.45187" lon="6.7098">
        <ele>455.6</ele>
        <time>2017-05-14T08:43:05.999Z</time>
      </trkpt>
      <trkpt lat="47.45189" lon="6.70982">
        <ele>455.6</ele>
        <time>2017-05-14T08:43:06.999Z</time>
      </trkpt>
      <trkpt lat="47.4519" lon="6.70985">
        <ele>455.6</ele>
        <time>2017-05-14T08:43:07.999Z</time>
      </trkpt>
      <trkpt lat="47.45192" lon="6.70988">
        <ele>455.6</ele>
        <time>2017-05-14T08:43:08.999Z</time>
      </trkpt>
      <trkpt lat="47.45193" lon="6.70992">
        <ele>455.5</ele>
        <time>2017-05-14T08:43:09.999Z</time>
      </trkpt>
      <trkpt lat="47.45195" lon="6.70995">
        <ele>455.4</ele>
        <time>2017-05-14T08:43:10.999Z</time>
      </trkpt>
      <trkpt lat="47.45196" lon="6.70998">
        <ele>455.2</ele>
        <time>2017-05-14T08:43:11.999Z</time>
      </trkpt>
      <trkpt lat="47.45198" lon="6.71001">
        <ele>455.1</ele>
        <time>2017-05-14T08:43:12.999Z</time>
      </trkpt>
      <trkpt lat="47.452" lon="6.71006">
        <ele>454.9</ele>
        <time>2017-05-14T08:43:14.999Z</time>
      </trkpt>
      <trkpt lat="47.45201" lon="6.7101">
        <ele>454.8</ele>
        <time>2017-05-14T08:43:15.999Z</time>
      </trkpt>
      <trkpt lat="47.45203" lon="6.71013">
        <ele>454.8</ele>
        <time>2017-05-14T08:43:16.999Z</time>
      </trkpt>
      <trkpt lat="47.45205" lon="6.71017">
        <ele>454.8</ele>
        <time>2017-05-14T08:43:17.999Z</time>
      </trkpt>
      <trkpt lat="47.45206" lon="6.71022">
        <ele>454.7</ele>
        <time>2017-05-14T08:43:19.999Z</time>
      </trkpt>
      <trkpt lat="47.45206" lon="6.71024">
        <ele>454.7</ele>
        <time>2017-05-14T08:43:20.999Z</time>
      </trkpt>
      <trkpt lat="47.45206" lon="6.71029">
        <ele>454.8</ele>
        <time>2017-05-14T08:43:22.999Z</time>
      </trkpt>
      <trkpt lat="47.45206" lon="6.71031">
        <ele>454.9</ele>
        <time>2017-05-14T08:43:23.999Z</time>
      </trkpt>
      <trkpt lat="47.45207" lon="6.71036">
        <ele>455</ele>
        <time>2017-05-14T08:43:25.999Z</time>
      </trkpt>
      <trkpt lat="47.45208" lon="6.71037">
        <ele>455.1</ele>
        <time>2017-05-14T08:43:26.999Z</time>
      </trkpt>
      <trkpt lat="47.45211" lon="6.71042">
        <ele>455.1</ele>
        <time>2017-05-14T08:43:28.999Z</time>
      </trkpt>
      <trkpt lat="47.45212" lon="6.71045">
        <ele>455.1</ele>
        <time>2017-05-14T08:43:29.999Z</time>
      </trkpt>
      <trkpt lat="47.45213" lon="6.71048">
        <ele>455.3</ele>
        <time>2017-05-14T08:43:30.999Z</time>
      </trkpt>
      <trkpt lat="47.45214" lon="6.71052">
        <ele>455.4</ele>
        <time>2017-05-14T08:43:31.999Z</time>
      </trkpt>
      <trkpt lat="47.45216" lon="6.71057">
        <ele>455.8</ele>
        <time>2017-05-14T08:43:33.999Z</time>
      </trkpt>
      <trkpt lat="47.45217" lon="6.7106">
        <ele>456.1</ele>
        <time>2017-05-14T08:43:34.999Z</time>
      </trkpt>
      <trkpt lat="47.45218" lon="6.71065">
        <ele>456.4</ele>
        <time>2017-05-14T08:43:36.999Z</time>
      </trkpt>
      <trkpt lat="47.45219" lon="6.71067">
        <ele>456.6</ele>
        <time>2017-05-14T08:43:37.999Z</time>
      </trkpt>
      <trkpt lat="47.45221" lon="6.71071">
        <ele>456.8</ele>
        <time>2017-05-14T08:43:38.999Z</time>
      </trkpt>
      <trkpt lat="47.45221" lon="6.71073">
        <ele>456.9</ele>
        <time>2017-05-14T08:43:39.999Z</time>
      </trkpt>
      <trkpt lat="47.45221" lon="6.7108">
        <ele>457.7</ele>
        <time>2017-05-14T08:43:45.999Z</time>
      </trkpt>
      <trkpt lat="47.45221" lon="6.7108">
        <ele>457.8</ele>
        <time>2017-05-14T08:43:46.999Z</time>
      </trkpt>
      <trkpt lat="47.45222" lon="6.71086">
        <ele>459.7</ele>
        <time>2017-05-14T08:43:54.999Z</time>
      </trkpt>
      <trkpt lat="47.45222" lon="6.71087">
        <ele>460</ele>
        <time>2017-05-14T08:43:55.999Z</time>
      </trkpt>
      <trkpt lat="47.45222" lon="6.71094">
        <ele>461.3</ele>
        <time>2017-05-14T08:44:00.999Z</time>
      </trkpt>
      <trkpt lat="47.45222" lon="6.71094">
        <ele>461.6</ele>
        <time>2017-05-14T08:44:01.999Z</time>
      </trkpt>
      <trkpt lat="47.45224" lon="6.711">
        <ele>463</ele>
        <time>2017-05-14T08:44:13.999Z</time>
      </trkpt>
      <trkpt lat="47.45224" lon="6.711">
        <ele>463.1</ele>
        <time>2017-05-14T08:44:14.999Z</time>
      </trkpt>
      <trkpt lat="47.45227" lon="6.71099">
        <ele>463.1</ele>
        <time>2017-05-14T08:44:17.999Z</time>
      </trkpt>
      <trkpt lat="47.45229" lon="6.71099">
        <ele>463.2</ele>
        <time>2017-05-14T08:44:18.999Z</time>
      </trkpt>
      <trkpt lat="47.45231" lon="6.71099">
        <ele>463.4</ele>
        <time>2017-05-14T08:44:19.999Z</time>
      </trkpt>
      <trkpt lat="47.45234" lon="6.71101">
        <ele>463.5</ele>
        <time>2017-05-14T08:44:20.999Z</time>
      </trkpt>
      <trkpt lat="47.45236" lon="6.71105">
        <ele>463.5</ele>
        <time>2017-05-14T08:44:21.999Z</time>
      </trkpt>
      <trkpt lat="47.45237" lon="6.71108">
        <ele>463.6</ele>
        <time>2017-05-14T08:44:22.999Z</time>
      </trkpt>
      <trkpt lat="47.45239" lon="6.71111">
        <ele>463.6</ele>
        <time>2017-05-14T08:44:23.999Z</time>
      </trkpt>
      <trkpt lat="47.4524" lon="6.71113">
        <ele>463.7</ele>
        <time>2017-05-14T08:44:24.999Z</time>
      </trkpt>
      <trkpt lat="47.45242" lon="6.71117">
        <ele>463.7</ele>
        <time>2017-05-14T08:44:26.999Z</time>
      </trkpt>
      <trkpt lat="47.45243" lon="6.71118">
        <ele>463.7</ele>
        <time>2017-05-14T08:44:27.999Z</time>
      </trkpt>
      <trkpt lat="47.45245" lon="6.71122">
        <ele>463.8</ele>
        <time>2017-05-14T08:44:29.999Z</time>
      </trkpt>
      <trkpt lat="47.45246" lon="6.71124">
        <ele>463.9</ele>
        <time>2017-05-14T08:44:30.999Z</time>
      </trkpt>
      <trkpt lat="47.45248" lon="6.71126">
        <ele>463.9</ele>
        <time>2017-05-14T08:44:31.999Z</time>
      </trkpt>
      <trkpt lat="47.45249" lon="6.71129">
        <ele>463.9</ele>
        <time>2017-05-14T08:44:32.999Z</time>
      </trkpt>
      <trkpt lat="47.45252" lon="6.71132">
        <ele>463.8</ele>
        <time>2017-05-14T08:44:34.999Z</time>
      </trkpt>
      <trkpt lat="47.45253" lon="6.71134">
        <ele>463.7</ele>
        <time>2017-05-14T08:44:35.999Z</time>
      </trkpt>
      <trkpt lat="47.45255" lon="6.71138">
        <ele>463.5</ele>
        <time>2017-05-14T08:44:38.999Z</time>
      </trkpt>
      <trkpt lat="47.45255" lon="6.7114">
        <ele>463.4</ele>
        <time>2017-05-14T08:44:39.999Z</time>
      </trkpt>
      <trkpt lat="47.45258" lon="6.71144">
        <ele>463.4</ele>
        <time>2017-05-14T08:44:41.999Z</time>
      </trkpt>
      <trkpt lat="47.45259" lon="6.71145">
        <ele>463.3</ele>
        <time>2017-05-14T08:44:42.999Z</time>
      </trkpt>
      <trkpt lat="47.45261" lon="6.71149">
        <ele>463.2</ele>
        <time>2017-05-14T08:44:45.999Z</time>
      </trkpt>
      <trkpt lat="47.45262" lon="6.71151">
        <ele>463.1</ele>
        <time>2017-05-14T08:44:46.999Z</time>
      </trkpt>
      <trkpt lat="47.45263" lon="6.71156">
        <ele>463</ele>
        <time>2017-05-14T08:44:49.999Z</time>
      </trkpt>
      <trkpt lat="47.45263" lon="6.71158">
        <ele>462.9</ele>
        <time>2017-05-14T08:44:50.999Z</time>
      </trkpt>
      <trkpt lat="47.45263" lon="6.71162">
        <ele>462.6</ele>
        <time>2017-05-14T08:44:52.999Z</time>
      </trkpt>
      <trkpt lat="47.45262" lon="6.71167">
        <ele>462.4</ele>
        <time>2017-05-14T08:44:53.999Z</time>
      </trkpt>
      <trkpt lat="47.45263" lon="6.71173">
        <ele>462</ele>
        <time>2017-05-14T08:44:55.999Z</time>
      </trkpt>
      <trkpt lat="47.45263" lon="6.71179">
        <ele>462</ele>
        <time>2017-05-14T08:44:56.999Z</time>
      </trkpt>
      <trkpt lat="47.45263" lon="6.71181">
        <ele>461.9</ele>
        <time>2017-05-14T08:44:57.999Z</time>
      </trkpt>
      <trkpt lat="47.45264" lon="6.71186">
        <ele>461.7</ele>
        <time>2017-05-14T08:44:58.999Z</time>
      </trkpt>
      <trkpt lat="47.45266" lon="6.71192">
        <ele>460.7</ele>
        <time>2017-05-14T08:45:04.999Z</time>
      </trkpt>
      <trkpt lat="47.45267" lon="6.71192">
        <ele>460.7</ele>
        <time>2017-05-14T08:45:05.999Z</time>
      </trkpt>
      <trkpt lat="47.45268" lon="6.71198">
        <ele>461.5</ele>
        <time>2017-05-14T08:45:10.999Z</time>
      </trkpt>
      <trkpt lat="47.4527" lon="6.71205">
        <ele>461.7</ele>
        <time>2017-05-14T08:45:11.999Z</time>
      </trkpt>
      <trkpt lat="47.45271" lon="6.71208">
        <ele>461.9</ele>
        <time>2017-05-14T08:45:12.999Z</time>
      </trkpt>
      <trkpt lat="47.45272" lon="6.71212">
        <ele>462.2</ele>
        <time>2017-05-14T08:45:13.999Z</time>
      </trkpt>
      <trkpt lat="47.45274" lon="6.71216">
        <ele>462.5</ele>
        <time>2017-05-14T08:45:14.999Z</time>
      </trkpt>
      <trkpt lat="47.4528" lon="6.71223">
        <ele>462.8</ele>
        <time>2017-05-14T08:45:15.999Z</time>
      </trkpt>
      <trkpt lat="47.45283" lon="6.71227">
        <ele>463.2</ele>
        <time>2017-05-14T08:45:16.999Z</time>
      </trkpt>
      <trkpt lat="47.45285" lon="6.7123">
        <ele>463.6</ele>
        <time>2017-05-14T08:45:17.999Z</time>
      </trkpt>
      <trkpt lat="47.45287" lon="6.71233">
        <ele>464</ele>
        <time>2017-05-14T08:45:18.999Z</time>
      </trkpt>
      <trkpt lat="47.45289" lon="6.71236">
        <ele>464.3</ele>
        <time>2017-05-14T08:45:19.999Z</time>
      </trkpt>
      <trkpt lat="47.45293" lon="6.71241">
        <ele>464.6</ele>
        <time>2017-05-14T08:45:20.999Z</time>
      </trkpt>
      <trkpt lat="47.45296" lon="6.71246">
        <ele>464.8</ele>
        <time>2017-05-14T08:45:21.999Z</time>
      </trkpt>
      <trkpt lat="47.45297" lon="6.71249">
        <ele>465.1</ele>
        <time>2017-05-14T08:45:22.999Z</time>
      </trkpt>
      <trkpt lat="47.45298" lon="6.71253">
        <ele>465.4</ele>
        <time>2017-05-14T08:45:23.999Z</time>
      </trkpt>
      <trkpt lat="47.45299" lon="6.71258">
        <ele>465.7</ele>
        <time>2017-05-14T08:45:24.999Z</time>
      </trkpt>
      <trkpt lat="47.45298" lon="6.71264">
        <ele>466.2</ele>
        <time>2017-05-14T08:45:26.999Z</time>
      </trkpt>
      <trkpt lat="47.45298" lon="6.71266">
        <ele>466.5</ele>
        <time>2017-05-14T08:45:27.999Z</time>
      </trkpt>
      <trkpt lat="47.45294" lon="6.7127">
        <ele>468.3</ele>
        <time>2017-05-14T08:45:33.999Z</time>
      </trkpt>
      <trkpt lat="47.45294" lon="6.71271">
        <ele>468.5</ele>
        <time>2017-05-14T08:45:34.999Z</time>
      </trkpt>
      <trkpt lat="47.4529" lon="6.71274">
        <ele>469.7</ele>
        <time>2017-05-14T08:45:38.999Z</time>
      </trkpt>
      <trkpt lat="47.45289" lon="6.71275">
        <ele>470.1</ele>
        <time>2017-05-14T08:45:39.999Z</time>
      </trkpt>
      <trkpt lat="47.45285" lon="6.71279">
        <ele>471.1</ele>
        <time>2017-05-14T08:45:42.999Z</time>
      </trkpt>
      <trkpt lat="47.45284" lon="6.7128">
        <ele>471.4</ele>
        <time>2017-05-14T08:45:43.999Z</time>
      </trkpt>
      <trkpt lat="47.4528" lon="6.71281">
        <ele>472.5</ele>
        <time>2017-05-14T08:45:47.999Z</time>
      </trkpt>
      <trkpt lat="47.45279" lon="6.71281">
        <ele>472.8</ele>
        <time>2017-05-14T08:45:48.999Z</time>
      </trkpt>
      <trkpt lat="47.45275" lon="6.71283">
        <ele>473.9</ele>
        <time>2017-05-14T08:45:52.999Z</time>
      </trkpt>
      <trkpt lat="47.45274" lon="6.71283">
        <ele>474.2</ele>
        <time>2017-05-14T08:45:53.999Z</time>
      </trkpt>
      <trkpt lat="47.45272" lon="6.71285">
        <ele>474.6</ele>
        <time>2017-05-14T08:45:55.999Z</time>
      </trkpt>
      <trkpt lat="47.4527" lon="6.71287">
        <ele>474.8</ele>
        <time>2017-05-14T08:45:56.999Z</time>
      </trkpt>
      <trkpt lat="47.45266" lon="6.71291">
        <ele>475.3</ele>
        <time>2017-05-14T08:45:59.999Z</time>
      </trkpt>
      <trkpt lat="47.45265" lon="6.71292">
        <ele>475.5</ele>
        <time>2017-05-14T08:46:00.999Z</time>
      </trkpt>
      <trkpt lat="47.45261" lon="6.71296">
        <ele>476.2</ele>
        <time>2017-05-14T08:46:04.999Z</time>
      </trkpt>
      <trkpt lat="47.4526" lon="6.71297">
        <ele>476.4</ele>
        <time>2017-05-14T08:46:05.999Z</time>
      </trkpt>
      <trkpt lat="47.45257" lon="6.71299">
        <ele>477.7</ele>
        <time>2017-05-14T08:46:10.999Z</time>
      </trkpt>
      <trkpt lat="47.45256" lon="6.71299">
        <ele>477.9</ele>
        <time>2017-05-14T08:46:11.999Z</time>
      </trkpt>
      <trkpt lat="47.45253" lon="6.71295">
        <ele>478.3</ele>
        <time>2017-05-14T08:46:13.999Z</time>
      </trkpt>
      <trkpt lat="47.45253" lon="6.71294">
        <ele>478.5</ele>
        <time>2017-05-14T08:46:14.999Z</time>
      </trkpt>
      <trkpt lat="47.45257" lon="6.71295">
        <ele>479.9</ele>
        <time>2017-05-14T08:46:32.999Z</time>
      </trkpt>
      <trkpt lat="47.45257" lon="6.71295">
        <ele>479.9</ele>
        <time>2017-05-14T08:46:33.999Z</time>
      </trkpt>
      <trkpt lat="47.45259" lon="6.7129">
        <ele>481.9</ele>
        <time>2017-05-14T08:46:56.999Z</time>
      </trkpt>
      <trkpt lat="47.45259" lon="6.71289">
        <ele>482.1</ele>
        <time>2017-05-14T08:46:57.999Z</time>
      </trkpt>
      <trkpt lat="47.45263" lon="6.7129">
        <ele>484.8</ele>
        <time>2017-05-14T08:47:16.999Z</time>
      </trkpt>
      <trkpt lat="47.45264" lon="6.71291">
        <ele>484.8</ele>
        <time>2017-05-14T08:47:17.999Z</time>
      </trkpt>
      <trkpt lat="47.45262" lon="6.71296">
        <ele>484.8</ele>
        <time>2017-05-14T08:48:05.999Z</time>
      </trkpt>
      <trkpt lat="47.45261" lon="6.71298">
        <ele>484.7</ele>
        <time>2017-05-14T08:48:06.999Z</time>
      </trkpt>
      <trkpt lat="47.4526" lon="6.71302">
        <ele>484.6</ele>
        <time>2017-05-14T08:48:08.999Z</time>
      </trkpt>
      <trkpt lat="47.45259" lon="6.71305">
        <ele>484.5</ele>
        <time>2017-05-14T08:48:09.999Z</time>
      </trkpt>
      <trkpt lat="47.45259" lon="6.71309">
        <ele>484.5</ele>
        <time>2017-05-14T08:48:11.999Z</time>
      </trkpt>
      <trkpt lat="47.45259" lon="6.71312">
        <ele>484.4</ele>
        <time>2017-05-14T08:48:12.999Z</time>
      </trkpt>
      <trkpt lat="47.45258" lon="6.71316">
        <ele>484.3</ele>
        <time>2017-05-14T08:48:14.999Z</time>
      </trkpt>
      <trkpt lat="47.45258" lon="6.71319">
        <ele>484.3</ele>
        <time>2017-05-14T08:48:15.999Z</time>
      </trkpt>
      <trkpt lat="47.4526" lon="6.71325">
        <ele>485.7</ele>
        <time>2017-05-14T08:48:24.999Z</time>
      </trkpt>
      <trkpt lat="47.4526" lon="6.71327">
        <ele>486</ele>
        <time>2017-05-14T08:48:25.999Z</time>
      </trkpt>
      <trkpt lat="47.45261" lon="6.71332">
        <ele>486.4</ele>
        <time>2017-05-14T08:48:27.999Z</time>
      </trkpt>
      <trkpt lat="47.45262" lon="6.71334">
        <ele>486.7</ele>
        <time>2017-05-14T08:48:28.999Z</time>
      </trkpt>
      <trkpt lat="47.45263" lon="6.71339">
        <ele>487.2</ele>
        <time>2017-05-14T08:48:30.999Z</time>
      </trkpt>
      <trkpt lat="47.45264" lon="6.71342">
        <ele>487.5</ele>
        <time>2017-05-14T08:48:31.999Z</time>
      </trkpt>
      <trkpt lat="47.45266" lon="6.71347">
        <ele>487.8</ele>
        <time>2017-05-14T08:48:33.999Z</time>
      </trkpt>
      <trkpt lat="47.45266" lon="6.7135">
        <ele>487.8</ele>
        <time>2017-05-14T08:48:34.999Z</time>
      </trkpt>
      <trkpt lat="47.45267" lon="6.71356">
        <ele>487.7</ele>
        <time>2017-05-14T08:48:37.999Z</time>
      </trkpt>
      <trkpt lat="47.45267" lon="6.71358">
        <ele>487.6</ele>
        <time>2017-05-14T08:48:38.999Z</time>
      </trkpt>
      <trkpt lat="47.45268" lon="6.71363">
        <ele>487.2</ele>
        <time>2017-05-14T08:48:40.999Z</time>
      </trkpt>
      <trkpt lat="47.45268" lon="6.71366">
        <ele>486.8</ele>
        <time>2017-05-14T08:48:41.999Z</time>
      </trkpt>
      <trkpt lat="47.45269" lon="6.71371">
        <ele>486.4</ele>
        <time>2017-05-14T08:48:43.999Z</time>
      </trkpt>
      <trkpt lat="47.45269" lon="6.71373">
        <ele>486.2</ele>
        <time>2017-05-14T08:48:44.999Z</time>
      </trkpt>
      <trkpt lat="47.4527" lon="6.71378">
        <ele>485.9</ele>
        <time>2017-05-14T08:48:46.999Z</time>
      </trkpt>
      <trkpt lat="47.45271" lon="6.7138">
        <ele>485.7</ele>
        <time>2017-05-14T08:48:47.999Z</time>
      </trkpt>
      <trkpt lat="47.45272" lon="6.71385">
        <ele>485.3</ele>
        <time>2017-05-14T08:48:49.999Z</time>
      </trkpt>
      <trkpt lat="47.45272" lon="6.71388">
        <ele>485.2</ele>
        <time>2017-05-14T08:48:50.999Z</time>
      </trkpt>
      <trkpt lat="47.45273" lon="6.71393">
        <ele>485.1</ele>
        <time>2017-05-14T08:48:52.999Z</time>
      </trkpt>
      <trkpt lat="47.45274" lon="6.71396">
        <ele>485</ele>
        <time>2017-05-14T08:48:53.999Z</time>
      </trkpt>
      <trkpt lat="47.45276" lon="6.71402">
        <ele>485</ele>
        <time>2017-05-14T08:48:55.999Z</time>
      </trkpt>
      <trkpt lat="47.45278" lon="6.71404">
        <ele>485</ele>
        <time>2017-05-14T08:48:56.999Z</time>
      </trkpt>
      <trkpt lat="47.45279" lon="6.71408">
        <ele>484.9</ele>
        <time>2017-05-14T08:48:57.999Z</time>
      </trkpt>
      <trkpt lat="47.4528" lon="6.71411">
        <ele>484.9</ele>
        <time>2017-05-14T08:48:58.999Z</time>
      </trkpt>
      <trkpt lat="47.45282" lon="6.71415">
        <ele>484.8</ele>
        <time>2017-05-14T08:49:00.999Z</time>
      </trkpt>
      <trkpt lat="47.45283" lon="6.71417">
        <ele>484.8</ele>
        <time>2017-05-14T08:49:01.999Z</time>
      </trkpt>
      <trkpt lat="47.45284" lon="6.7142">
        <ele>484.8</ele>
        <time>2017-05-14T08:49:02.999Z</time>
      </trkpt>
      <trkpt lat="47.45285" lon="6.71424">
        <ele>484.9</ele>
        <time>2017-05-14T08:49:03.999Z</time>
      </trkpt>
      <trkpt lat="47.45287" lon="6.71428">
        <ele>485</ele>
        <time>2017-05-14T08:49:05.999Z</time>
      </trkpt>
      <trkpt lat="47.45287" lon="6.71431">
        <ele>485.1</ele>
        <time>2017-05-14T08:49:06.999Z</time>
      </trkpt>
      <trkpt lat="47.45288" lon="6.71433">
        <ele>485.2</ele>
        <time>2017-05-14T08:49:07.999Z</time>
      </trkpt>
      <trkpt lat="47.45288" lon="6.71437">
        <ele>485.3</ele>
        <time>2017-05-14T08:49:08.999Z</time>
      </trkpt>
      <trkpt lat="47.45289" lon="6.7144">
        <ele>485.4</ele>
        <time>2017-05-14T08:49:09.999Z</time>
      </trkpt>
      <trkpt lat="47.4529" lon="6.71443">
        <ele>485.6</ele>
        <time>2017-05-14T08:49:10.999Z</time>
      </trkpt>
      <trkpt lat="47.45291" lon="6.71447">
        <ele>485.6</ele>
        <time>2017-05-14T08:49:11.999Z</time>
      </trkpt>
      <trkpt lat="47.45291" lon="6.7145">
        <ele>485.7</ele>
        <time>2017-05-14T08:49:12.999Z</time>
      </trkpt>
      <trkpt lat="47.45291" lon="6.71455">
        <ele>485.9</ele>
        <time>2017-05-14T08:49:14.999Z</time>
      </trkpt>
      <trkpt lat="47.45292" lon="6.71458">
        <ele>485.9</ele>
        <time>2017-05-14T08:49:15.999Z</time>
      </trkpt>
      <trkpt lat="47.45294" lon="6.71462">
        <ele>485.9</ele>
        <time>2017-05-14T08:49:16.999Z</time>
      </trkpt>
      <trkpt lat="47.45296" lon="6.71466">
        <ele>485.9</ele>
        <time>2017-05-14T08:49:17.999Z</time>
      </trkpt>
      <trkpt lat="47.45298" lon="6.71469">
        <ele>486</ele>
        <time>2017-05-14T08:49:18.999Z</time>
      </trkpt>
      <trkpt lat="47.45299" lon="6.71471">
        <ele>486</ele>
        <time>2017-05-14T08:49:19.999Z</time>
      </trkpt>
      <trkpt lat="47.453" lon="6.71475">
        <ele>485.9</ele>
        <time>2017-05-14T08:49:21.999Z</time>
      </trkpt>
      <trkpt lat="47.453" lon="6.71478">
        <ele>485.9</ele>
        <time>2017-05-14T08:49:22.999Z</time>
      </trkpt>
      <trkpt lat="47.45302" lon="6.71482">
        <ele>485.9</ele>
        <time>2017-05-14T08:49:23.999Z</time>
      </trkpt>
      <trkpt lat="47.45303" lon="6.71485">
        <ele>486</ele>
        <time>2017-05-14T08:49:24.999Z</time>
      </trkpt>
      <trkpt lat="47.45305" lon="6.71488">
        <ele>486</ele>
        <time>2017-05-14T08:49:25.999Z</time>
      </trkpt>
      <trkpt lat="47.45306" lon="6.71491">
        <ele>486</ele>
        <time>2017-05-14T08:49:26.999Z</time>
      </trkpt>
      <trkpt lat="47.45307" lon="6.71495">
        <ele>486</ele>
        <time>2017-05-14T08:49:27.999Z</time>
      </trkpt>
      <trkpt lat="47.45308" lon="6.71498">
        <ele>486</ele>
        <time>2017-05-14T08:49:28.999Z</time>
      </trkpt>
      <trkpt lat="47.45309" lon="6.71504">
        <ele>486.4</ele>
        <time>2017-05-14T08:49:30.999Z</time>
      </trkpt>
      <trkpt lat="47.4531" lon="6.71508">
        <ele>486.5</ele>
        <time>2017-05-14T08:49:31.999Z</time>
      </trkpt>
      <trkpt lat="47.45311" lon="6.71511">
        <ele>486.6</ele>
        <time>2017-05-14T08:49:32.999Z</time>
      </trkpt>
      <trkpt lat="47.45312" lon="6.71514">
        <ele>486.8</ele>
        <time>2017-05-14T08:49:33.999Z</time>
      </trkpt>
      <trkpt lat="47.45313" lon="6.71518">
        <ele>487</ele>
        <time>2017-05-14T08:49:34.999Z</time>
      </trkpt>
      <trkpt lat="47.45314" lon="6.71522">
        <ele>487.2</ele>
        <time>2017-05-14T08:49:35.999Z</time>
      </trkpt>
      <trkpt lat="47.45315" lon="6.71526">
        <ele>487.4</ele>
        <time>2017-05-14T08:49:36.999Z</time>
      </trkpt>
      <trkpt lat="47.45316" lon="6.7153">
        <ele>487.7</ele>
        <time>2017-05-14T08:49:37.999Z</time>
      </trkpt>
      <trkpt lat="47.45317" lon="6.71533">
        <ele>488</ele>
        <time>2017-05-14T08:49:38.999Z</time>
      </trkpt>
      <trkpt lat="47.45317" lon="6.71537">
        <ele>488.3</ele>
        <time>2017-05-14T08:49:39.999Z</time>
      </trkpt>
      <trkpt lat="47.45318" lon="6.71541">
        <ele>488.7</ele>
        <time>2017-05-14T08:49:40.999Z</time>
      </trkpt>
      <trkpt lat="47.45319" lon="6.71545">
        <ele>489.1</ele>
        <time>2017-05-14T08:49:41.999Z</time>
      </trkpt>
      <trkpt lat="47.4532" lon="6.71549">
        <ele>489.4</ele>
        <time>2017-05-14T08:49:42.999Z</time>
      </trkpt>
      <trkpt lat="47.4532" lon="6.71553">
        <ele>489.8</ele>
        <time>2017-05-14T08:49:43.999Z</time>
      </trkpt>
      <trkpt lat="47.4532" lon="6.71557">
        <ele>490.2</ele>
        <time>2017-05-14T08:49:44.999Z</time>
      </trkpt>
      <trkpt lat="47.45321" lon="6.71561">
        <ele>490.6</ele>
        <time>2017-05-14T08:49:45.999Z</time>
      </trkpt>
      <trkpt lat="47.45322" lon="6.71565">
        <ele>491</ele>
        <time>2017-05-14T08:49:46.999Z</time>
      </trkpt>
      <trkpt lat="47.45322" lon="6.71568">
        <ele>491.4</ele>
        <time>2017-05-14T08:49:47.999Z</time>
      </trkpt>
      <trkpt lat="47.45323" lon="6.71572">
        <ele>491.9</ele>
        <time>2017-05-14T08:49:48.999Z</time>
      </trkpt>
      <trkpt lat="47.45324" lon="6.71575">
        <ele>492.3</ele>
        <time>2017-05-14T08:49:49.999Z</time>
      </trkpt>
      <trkpt lat="47.45325" lon="6.71578">
        <ele>492.7</ele>
        <time>2017-05-14T08:49:50.999Z</time>
      </trkpt>
      <trkpt lat="47.45327" lon="6.71581">
        <ele>493.1</ele>
        <time>2017-05-14T08:49:51.999Z</time>
      </trkpt>
      <trkpt lat="47.4533" lon="6.71584">
        <ele>494.2</ele>
        <time>2017-05-14T08:49:54.999Z</time>
      </trkpt>
      <trkpt lat="47.45331" lon="6.71584">
        <ele>494.6</ele>
        <time>2017-05-14T08:49:55.999Z</time>
      </trkpt>
      <trkpt lat="47.45335" lon="6.71586">
        <ele>495.5</ele>
        <time>2017-05-14T08:49:58.999Z</time>
      </trkpt>
      <trkpt lat="47.45337" lon="6.71587">
        <ele>495.7</ele>
        <time>2017-05-14T08:49:59.999Z</time>
      </trkpt>
      <trkpt lat="47.45341" lon="6.71589">
        <ele>496.1</ele>
        <time>2017-05-14T08:50:01.999Z</time>
      </trkpt>
      <trkpt lat="47.45343" lon="6.71591">
        <ele>496.1</ele>
        <time>2017-05-14T08:50:02.999Z</time>
      </trkpt>
      <trkpt lat="47.45346" lon="6.71593">
        <ele>496.2</ele>
        <time>2017-05-14T08:50:03.999Z</time>
      </trkpt>
      <trkpt lat="47.45348" lon="6.71598">
        <ele>496.5</ele>
        <time>2017-05-14T08:50:04.999Z</time>
      </trkpt>
      <trkpt lat="47.45351" lon="6.71602">
        <ele>496.5</ele>
        <time>2017-05-14T08:50:05.999Z</time>
      </trkpt>
      <trkpt lat="47.45353" lon="6.71606">
        <ele>496.5</ele>
        <time>2017-05-14T08:50:06.999Z</time>
      </trkpt>
      <trkpt lat="47.45355" lon="6.71611">
        <ele>496.4</ele>
        <time>2017-05-14T08:50:07.999Z</time>
      </trkpt>
      <trkpt lat="47.45357" lon="6.71617">
        <ele>496.3</ele>
        <time>2017-05-14T08:50:09.999Z</time>
      </trkpt>
      <trkpt lat="47.45358" lon="6.7162">
        <ele>496.2</ele>
        <time>2017-05-14T08:50:10.999Z</time>
      </trkpt>
      <trkpt lat="47.4536" lon="6.71624">
        <ele>496.3</ele>
        <time>2017-05-14T08:50:11.999Z</time>
      </trkpt>
      <trkpt lat="47.45361" lon="6.71627">
        <ele>496.3</ele>
        <time>2017-05-14T08:50:12.999Z</time>
      </trkpt>
      <trkpt lat="47.45357" lon="6.71627">
        <ele>496.2</ele>
        <time>2017-05-14T08:50:17.999Z</time>
      </trkpt>
      <trkpt lat="47.45356" lon="6.71626">
        <ele>496.2</ele>
        <time>2017-05-14T08:50:18.999Z</time>
      </trkpt>
      <trkpt lat="47.45355" lon="6.71621">
        <ele>495.8</ele>
        <time>2017-05-14T08:50:21.999Z</time>
      </trkpt>
      <trkpt lat="47.45354" lon="6.71617">
        <ele>495.7</ele>
        <time>2017-05-14T08:50:22.999Z</time>
      </trkpt>
      <trkpt lat="47.45352" lon="6.71614">
        <ele>495.6</ele>
        <time>2017-05-14T08:50:23.999Z</time>
      </trkpt>
      <trkpt lat="47.45351" lon="6.71611">
        <ele>495.4</ele>
        <time>2017-05-14T08:50:24.999Z</time>
      </trkpt>
      <trkpt lat="47.45349" lon="6.71607">
        <ele>495.3</ele>
        <time>2017-05-14T08:50:25.999Z</time>
      </trkpt>
      <trkpt lat="47.45348" lon="6.71603">
        <ele>495.1</ele>
        <time>2017-05-14T08:50:26.999Z</time>
      </trkpt>
      <trkpt lat="47.45345" lon="6.71599">
        <ele>494.8</ele>
        <time>2017-05-14T08:50:28.999Z</time>
      </trkpt>
      <trkpt lat="47.45344" lon="6.71597">
        <ele>494.6</ele>
        <time>2017-05-14T08:50:29.999Z</time>
      </trkpt>
      <trkpt lat="47.45341" lon="6.71593">
        <ele>494.5</ele>
        <time>2017-05-14T08:50:31.999Z</time>
      </trkpt>
      <trkpt lat="47.4534" lon="6.71591">
        <ele>494.4</ele>
        <time>2017-05-14T08:50:32.999Z</time>
      </trkpt>
      <trkpt lat="47.45336" lon="6.71588">
        <ele>494.4</ele>
        <time>2017-05-14T08:50:34.999Z</time>
      </trkpt>
      <trkpt lat="47.45334" lon="6.71586">
        <ele>494.3</ele>
        <time>2017-05-14T08:50:35.999Z</time>
      </trkpt>
      <trkpt lat="47.45332" lon="6.71585">
        <ele>494.1</ele>
        <time>2017-05-14T08:50:37.999Z</time>
      </trkpt>
      <trkpt lat="47.45329" lon="6.71585">
        <ele>493.9</ele>
        <time>2017-05-14T08:50:38.999Z</time>
      </trkpt>
      <trkpt lat="47.45327" lon="6.71585">
        <ele>493.9</ele>
        <time>2017-05-14T08:50:39.999Z</time>
      </trkpt>
      <trkpt lat="47.45324" lon="6.71585">
        <ele>493.9</ele>
        <time>2017-05-14T08:50:40.999Z</time>
      </trkpt>
      <trkpt lat="47.4532" lon="6.71587">
        <ele>493.9</ele>
        <time>2017-05-14T08:50:42.999Z</time>
      </trkpt>
      <trkpt lat="47.45318" lon="6.71588">
        <ele>494</ele>
        <time>2017-05-14T08:50:43.999Z</time>
      </trkpt>
      <trkpt lat="47.45314" lon="6.71592">
        <ele>494</ele>
        <time>2017-05-14T08:50:45.999Z</time>
      </trkpt>
      <trkpt lat="47.45313" lon="6.71594">
        <ele>494</ele>
        <time>2017-05-14T08:50:46.999Z</time>
      </trkpt>
      <trkpt lat="47.45309" lon="6.71597">
        <ele>494.1</ele>
        <time>2017-05-14T08:50:48.999Z</time>
      </trkpt>
      <trkpt lat="47.45307" lon="6.71599">
        <ele>494.1</ele>
        <time>2017-05-14T08:50:49.999Z</time>
      </trkpt>
      <trkpt lat="47.45305" lon="6.71604">
        <ele>494.3</ele>
        <time>2017-05-14T08:50:51.999Z</time>
      </trkpt>
      <trkpt lat="47.45304" lon="6.71606">
        <ele>494.5</ele>
        <time>2017-05-14T08:50:52.999Z</time>
      </trkpt>
      <trkpt lat="47.45301" lon="6.7161">
        <ele>494.7</ele>
        <time>2017-05-14T08:50:54.999Z</time>
      </trkpt>
      <trkpt lat="47.453" lon="6.71612">
        <ele>494.9</ele>
        <time>2017-05-14T08:50:55.999Z</time>
      </trkpt>
      <trkpt lat="47.45298" lon="6.71616">
        <ele>495.3</ele>
        <time>2017-05-14T08:50:57.999Z</time>
      </trkpt>
      <trkpt lat="47.45297" lon="6.71617">
        <ele>495.4</ele>
        <time>2017-05-14T08:50:58.999Z</time>
      </trkpt>
      <trkpt lat="47.45294" lon="6.71622">
        <ele>496</ele>
        <time>2017-05-14T08:51:01.999Z</time>
      </trkpt>
      <trkpt lat="47.45293" lon="6.71624">
        <ele>496.1</ele>
        <time>2017-05-14T08:51:02.999Z</time>
      </trkpt>
      <trkpt lat="47.4529" lon="6.71628">
        <ele>496</ele>
        <time>2017-05-14T08:51:04.999Z</time>
      </trkpt>
      <trkpt lat="47.45289" lon="6.71631">
        <ele>496</ele>
        <time>2017-05-14T08:51:05.999Z</time>
      </trkpt>
      <trkpt lat="47.45287" lon="6.71636">
        <ele>495.9</ele>
        <time>2017-05-14T08:51:07.999Z</time>
      </trkpt>
      <trkpt lat="47.45285" lon="6.71639">
        <ele>495.9</ele>
        <time>2017-05-14T08:51:08.999Z</time>
      </trkpt>
      <trkpt lat="47.45283" lon="6.71643">
        <ele>495.9</ele>
        <time>2017-05-14T08:51:10.999Z</time>
      </trkpt>
      <trkpt lat="47.45281" lon="6.71646">
        <ele>495.9</ele>
        <time>2017-05-14T08:51:11.999Z</time>
      </trkpt>
      <trkpt lat="47.45279" lon="6.71648">
        <ele>495.9</ele>
        <time>2017-05-14T08:51:12.999Z</time>
      </trkpt>
      <trkpt lat="47.45277" lon="6.71651">
        <ele>495.9</ele>
        <time>2017-05-14T08:51:13.999Z</time>
      </trkpt>
      <trkpt lat="47.45274" lon="6.71654">
        <ele>495.8</ele>
        <time>2017-05-14T08:51:14.999Z</time>
      </trkpt>
      <trkpt lat="47.45272" lon="6.71656">
        <ele>495.6</ele>
        <time>2017-05-14T08:51:15.999Z</time>
      </trkpt>
      <trkpt lat="47.4527" lon="6.71659">
        <ele>495.5</ele>
        <time>2017-05-14T08:51:16.999Z</time>
      </trkpt>
      <trkpt lat="47.45268" lon="6.71661">
        <ele>495.3</ele>
        <time>2017-05-14T08:51:17.999Z</time>
      </trkpt>
      <trkpt lat="47.45265" lon="6.71665">
        <ele>494.9</ele>
        <time>2017-05-14T08:51:19.999Z</time>
      </trkpt>
      <trkpt lat="47.45263" lon="6.71668">
        <ele>494.7</ele>
        <time>2017-05-14T08:51:20.999Z</time>
      </trkpt>
      <trkpt lat="47.45261" lon="6.71671">
        <ele>494.5</ele>
        <time>2017-05-14T08:51:21.999Z</time>
      </trkpt>
      <trkpt lat="47.45259" lon="6.71673">
        <ele>494.2</ele>
        <time>2017-05-14T08:51:22.999Z</time>
      </trkpt>
      <trkpt lat="47.45256" lon="6.71676">
        <ele>493.9</ele>
        <time>2017-05-14T08:51:23.999Z</time>
      </trkpt>
      <trkpt lat="47.45253" lon="6.71679">
        <ele>493.7</ele>
        <time>2017-05-14T08:51:24.999Z</time>
      </trkpt>
      <trkpt lat="47.4525" lon="6.71682">
        <ele>493.5</ele>
        <time>2017-05-14T08:51:25.999Z</time>
      </trkpt>
      <trkpt lat="47.45247" lon="6.71686">
        <ele>493.3</ele>
        <time>2017-05-14T08:51:26.999Z</time>
      </trkpt>
      <trkpt lat="47.45246" lon="6.71687">
        <ele>493</ele>
        <time>2017-05-14T08:51:27.999Z</time>
      </trkpt>
      <trkpt lat="47.45244" lon="6.7169">
        <ele>492.8</ele>
        <time>2017-05-14T08:51:28.999Z</time>
      </trkpt>
      <trkpt lat="47.45242" lon="6.71693">
        <ele>492.6</ele>
        <time>2017-05-14T08:51:29.999Z</time>
      </trkpt>
      <trkpt lat="47.4524" lon="6.71695">
        <ele>492.4</ele>
        <time>2017-05-14T08:51:30.999Z</time>
      </trkpt>
      <trkpt lat="47.45237" lon="6.71698">
        <ele>492.1</ele>
        <time>2017-05-14T08:51:32.999Z</time>
      </trkpt>
      <trkpt lat="47.45235" lon="6.71701">
        <ele>492.1</ele>
        <time>2017-05-14T08:51:33.999Z</time>
      </trkpt>
      <trkpt lat="47.45234" lon="6.71703">
        <ele>492</ele>
        <time>2017-05-14T08:51:34.999Z</time>
      </trkpt>
      <trkpt lat="47.45232" lon="6.71705">
        <ele>492</ele>
        <time>2017-05-14T08:51:35.999Z</time>
      </trkpt>
      <trkpt lat="47.4523" lon="6.71708">
        <ele>491.9</ele>
        <time>2017-05-14T08:51:36.999Z</time>
      </trkpt>
      <trkpt lat="47.45228" lon="6.71708">
        <ele>491.8</ele>
        <time>2017-05-14T08:51:37.999Z</time>
      </trkpt>
      <trkpt lat="47.45226" lon="6.7171">
        <ele>491.9</ele>
        <time>2017-05-14T08:51:38.999Z</time>
      </trkpt>
      <trkpt lat="47.45224" lon="6.71713">
        <ele>491.9</ele>
        <time>2017-05-14T08:51:39.999Z</time>
      </trkpt>
      <trkpt lat="47.45222" lon="6.71715">
        <ele>491.9</ele>
        <time>2017-05-14T08:51:40.999Z</time>
      </trkpt>
      <trkpt lat="47.45219" lon="6.71719">
        <ele>492</ele>
        <time>2017-05-14T08:51:41.999Z</time>
      </trkpt>
      <trkpt lat="47.45217" lon="6.71721">
        <ele>492.1</ele>
        <time>2017-05-14T08:51:42.999Z</time>
      </trkpt>
      <trkpt lat="47.45215" lon="6.71724">
        <ele>492.2</ele>
        <time>2017-05-14T08:51:43.999Z</time>
      </trkpt>
      <trkpt lat="47.45214" lon="6.71727">
        <ele>492.3</ele>
        <time>2017-05-14T08:51:44.999Z</time>
      </trkpt>
      <trkpt lat="47.45212" lon="6.71731">
        <ele>492.3</ele>
        <time>2017-05-14T08:51:45.999Z</time>
      </trkpt>
      <trkpt lat="47.45211" lon="6.71734">
        <ele>492.4</ele>
        <time>2017-05-14T08:51:46.999Z</time>
      </trkpt>
      <trkpt lat="47.45209" lon="6.71738">
        <ele>492.5</ele>
        <time>2017-05-14T08:51:47.999Z</time>
      </trkpt>
      <trkpt lat="47.45207" lon="6.71741">
        <ele>492.5</ele>
        <time>2017-05-14T08:51:48.999Z</time>
      </trkpt>
      <trkpt lat="47.45205" lon="6.71745">
        <ele>492.6</ele>
        <time>2017-05-14T08:51:49.999Z</time>
      </trkpt>
      <trkpt lat="47.45203" lon="6.71748">
        <ele>492.6</ele>
        <time>2017-05-14T08:51:50.999Z</time>
      </trkpt>
      <trkpt lat="47.45201" lon="6.7175">
        <ele>492.7</ele>
        <time>2017-05-14T08:51:51.999Z</time>
      </trkpt>
      <trkpt lat="47.45199" lon="6.71753">
        <ele>492.8</ele>
        <time>2017-05-14T08:51:52.999Z</time>
      </trkpt>
      <trkpt lat="47.45197" lon="6.71756">
        <ele>492.9</ele>
        <time>2017-05-14T08:51:53.999Z</time>
      </trkpt>
      <trkpt lat="47.45195" lon="6.71759">
        <ele>493.2</ele>
        <time>2017-05-14T08:51:54.999Z</time>
      </trkpt>
      <trkpt lat="47.45193" lon="6.71763">
        <ele>493.4</ele>
        <time>2017-05-14T08:51:55.999Z</time>
      </trkpt>
      <trkpt lat="47.4519" lon="6.71766">
        <ele>493.8</ele>
        <time>2017-05-14T08:51:56.999Z</time>
      </trkpt>
      <trkpt lat="47.45189" lon="6.71769">
        <ele>494.1</ele>
        <time>2017-05-14T08:51:57.999Z</time>
      </trkpt>
      <trkpt lat="47.45187" lon="6.71773">
        <ele>494.5</ele>
        <time>2017-05-14T08:51:58.999Z</time>
      </trkpt>
      <trkpt lat="47.45185" lon="6.71776">
        <ele>495</ele>
        <time>2017-05-14T08:51:59.999Z</time>
      </trkpt>
      <trkpt lat="47.45183" lon="6.71781">
        <ele>495.4</ele>
        <time>2017-05-14T08:52:00.999Z</time>
      </trkpt>
      <trkpt lat="47.45181" lon="6.71784">
        <ele>495.7</ele>
        <time>2017-05-14T08:52:01.999Z</time>
      </trkpt>
      <trkpt lat="47.45178" lon="6.71787">
        <ele>496.4</ele>
        <time>2017-05-14T08:52:03.999Z</time>
      </trkpt>
      <trkpt lat="47.45177" lon="6.71789">
        <ele>496.8</ele>
        <time>2017-05-14T08:52:04.999Z</time>
      </trkpt>
      <trkpt lat="47.45175" lon="6.71792">
        <ele>497.2</ele>
        <time>2017-05-14T08:52:05.999Z</time>
      </trkpt>
      <trkpt lat="47.45173" lon="6.71794">
        <ele>497.6</ele>
        <time>2017-05-14T08:52:06.999Z</time>
      </trkpt>
      <trkpt lat="47.45171" lon="6.71797">
        <ele>497.9</ele>
        <time>2017-05-14T08:52:07.999Z</time>
      </trkpt>
      <trkpt lat="47.45169" lon="6.71799">
        <ele>498.3</ele>
        <time>2017-05-14T08:52:08.999Z</time>
      </trkpt>
      <trkpt lat="47.45167" lon="6.718">
        <ele>498.6</ele>
        <time>2017-05-14T08:52:09.999Z</time>
      </trkpt>
      <trkpt lat="47.45164" lon="6.71804">
        <ele>498.9</ele>
        <time>2017-05-14T08:52:10.999Z</time>
      </trkpt>
      <trkpt lat="47.45162" lon="6.71806">
        <ele>499.2</ele>
        <time>2017-05-14T08:52:11.999Z</time>
      </trkpt>
      <trkpt lat="47.4516" lon="6.71808">
        <ele>499.5</ele>
        <time>2017-05-14T08:52:12.999Z</time>
      </trkpt>
      <trkpt lat="47.45158" lon="6.7181">
        <ele>499.8</ele>
        <time>2017-05-14T08:52:13.999Z</time>
      </trkpt>
      <trkpt lat="47.45155" lon="6.71812">
        <ele>500</ele>
        <time>2017-05-14T08:52:14.999Z</time>
      </trkpt>
      <trkpt lat="47.45153" lon="6.71815">
        <ele>500.3</ele>
        <time>2017-05-14T08:52:15.999Z</time>
      </trkpt>
      <trkpt lat="47.45151" lon="6.71817">
        <ele>500.6</ele>
        <time>2017-05-14T08:52:16.999Z</time>
      </trkpt>
      <trkpt lat="47.45148" lon="6.7182">
        <ele>500.9</ele>
        <time>2017-05-14T08:52:17.999Z</time>
      </trkpt>
      <trkpt lat="47.45145" lon="6.71822">
        <ele>501.1</ele>
        <time>2017-05-14T08:52:18.999Z</time>
      </trkpt>
      <trkpt lat="47.45143" lon="6.71825">
        <ele>501.2</ele>
        <time>2017-05-14T08:52:19.999Z</time>
      </trkpt>
      <trkpt lat="47.4514" lon="6.71828">
        <ele>501.4</ele>
        <time>2017-05-14T08:52:20.999Z</time>
      </trkpt>
      <trkpt lat="47.45138" lon="6.7183">
        <ele>501.5</ele>
        <time>2017-05-14T08:52:21.999Z</time>
      </trkpt>
      <trkpt lat="47.45136" lon="6.71832">
        <ele>501.6</ele>
        <time>2017-05-14T08:52:22.999Z</time>
      </trkpt>
      <trkpt lat="47.45133" lon="6.71835">
        <ele>501.8</ele>
        <time>2017-05-14T08:52:23.999Z</time>
      </trkpt>
      <trkpt lat="47.45131" lon="6.71836">
        <ele>501.9</ele>
        <time>2017-05-14T08:52:24.999Z</time>
      </trkpt>
      <trkpt lat="47.45128" lon="6.71838">
        <ele>502</ele>
        <time>2017-05-14T08:52:25.999Z</time>
      </trkpt>
      <trkpt lat="47.45126" lon="6.71839">
        <ele>502.1</ele>
        <time>2017-05-14T08:52:26.999Z</time>
      </trkpt>
      <trkpt lat="47.45122" lon="6.71842">
        <ele>502.3</ele>
        <time>2017-05-14T08:52:28.999Z</time>
      </trkpt>
      <trkpt lat="47.4512" lon="6.71843">
        <ele>502.5</ele>
        <time>2017-05-14T08:52:29.999Z</time>
      </trkpt>
      <trkpt lat="47.45118" lon="6.71844">
        <ele>502.6</ele>
        <time>2017-05-14T08:52:30.999Z</time>
      </trkpt>
      <trkpt lat="47.45115" lon="6.71846">
        <ele>502.7</ele>
        <time>2017-05-14T08:52:31.999Z</time>
      </trkpt>
      <trkpt lat="47.45112" lon="6.71847">
        <ele>502.9</ele>
        <time>2017-05-14T08:52:32.999Z</time>
      </trkpt>
      <trkpt lat="47.45108" lon="6.71849">
        <ele>503</ele>
        <time>2017-05-14T08:52:33.999Z</time>
      </trkpt>
      <trkpt lat="47.45105" lon="6.71851">
        <ele>503.2</ele>
        <time>2017-05-14T08:52:34.999Z</time>
      </trkpt>
      <trkpt lat="47.45103" lon="6.71852">
        <ele>503.4</ele>
        <time>2017-05-14T08:52:35.999Z</time>
      </trkpt>
      <trkpt lat="47.451" lon="6.71853">
        <ele>503.6</ele>
        <time>2017-05-14T08:52:36.999Z</time>
      </trkpt>
      <trkpt lat="47.45098" lon="6.71853">
        <ele>503.8</ele>
        <time>2017-05-14T08:52:37.999Z</time>
      </trkpt>
      <trkpt lat="47.45096" lon="6.71854">
        <ele>504.1</ele>
        <time>2017-05-14T08:52:38.999Z</time>
      </trkpt>
      <trkpt lat="47.45094" lon="6.71855">
        <ele>504.2</ele>
        <time>2017-05-14T08:52:39.999Z</time>
      </trkpt>
      <trkpt lat="47.45091" lon="6.71856">
        <ele>504.4</ele>
        <time>2017-05-14T08:52:40.999Z</time>
      </trkpt>
      <trkpt lat="47.45089" lon="6.71858">
        <ele>504.6</ele>
        <time>2017-05-14T08:52:41.999Z</time>
      </trkpt>
      <trkpt lat="47.45086" lon="6.71859">
        <ele>504.8</ele>
        <time>2017-05-14T08:52:42.999Z</time>
      </trkpt>
      <trkpt lat="47.45083" lon="6.71861">
        <ele>505.1</ele>
        <time>2017-05-14T08:52:43.999Z</time>
      </trkpt>
      <trkpt lat="47.45081" lon="6.71862">
        <ele>505.4</ele>
        <time>2017-05-14T08:52:44.999Z</time>
      </trkpt>
      <trkpt lat="47.45077" lon="6.71864">
        <ele>505.6</ele>
        <time>2017-05-14T08:52:45.999Z</time>
      </trkpt>
      <trkpt lat="47.45075" lon="6.71865">
        <ele>505.8</ele>
        <time>2017-05-14T08:52:46.999Z</time>
      </trkpt>
      <trkpt lat="47.45072" lon="6.71866">
        <ele>506</ele>
        <time>2017-05-14T08:52:47.999Z</time>
      </trkpt>
      <trkpt lat="47.4507" lon="6.71868">
        <ele>506.2</ele>
        <time>2017-05-14T08:52:48.999Z</time>
      </trkpt>
      <trkpt lat="47.45067" lon="6.71869">
        <ele>506.3</ele>
        <time>2017-05-14T08:52:49.999Z</time>
      </trkpt>
      <trkpt lat="47.45064" lon="6.71871">
        <ele>506.4</ele>
        <time>2017-05-14T08:52:50.999Z</time>
      </trkpt>
      <trkpt lat="47.4506" lon="6.71874">
        <ele>506.5</ele>
        <time>2017-05-14T08:52:51.999Z</time>
      </trkpt>
      <trkpt lat="47.45057" lon="6.71876">
        <ele>506.7</ele>
        <time>2017-05-14T08:52:52.999Z</time>
      </trkpt>
      <trkpt lat="47.45054" lon="6.71878">
        <ele>506.8</ele>
        <time>2017-05-14T08:52:53.999Z</time>
      </trkpt>
      <trkpt lat="47.45051" lon="6.71879">
        <ele>506.9</ele>
        <time>2017-05-14T08:52:54.999Z</time>
      </trkpt>
      <trkpt lat="47.45048" lon="6.71881">
        <ele>507.1</ele>
        <time>2017-05-14T08:52:55.999Z</time>
      </trkpt>
      <trkpt lat="47.45044" lon="6.71883">
        <ele>507.2</ele>
        <time>2017-05-14T08:52:56.999Z</time>
      </trkpt>
      <trkpt lat="47.45041" lon="6.71885">
        <ele>507.4</ele>
        <time>2017-05-14T08:52:57.999Z</time>
      </trkpt>
      <trkpt lat="47.45037" lon="6.71887">
        <ele>507.5</ele>
        <time>2017-05-14T08:52:58.999Z</time>
      </trkpt>
      <trkpt lat="47.45034" lon="6.71889">
        <ele>507.7</ele>
        <time>2017-05-14T08:52:59.999Z</time>
      </trkpt>
      <trkpt lat="47.4503" lon="6.71891">
        <ele>509.1</ele>
        <time>2017-05-14T08:53:00.999Z</time>
      </trkpt>
      <trkpt lat="47.45025" lon="6.71894">
        <ele>510.1</ele>
        <time>2017-05-14T08:53:01.999Z</time>
      </trkpt>
      <trkpt lat="47.45021" lon="6.71896">
        <ele>511</ele>
        <time>2017-05-14T08:53:02.999Z</time>
      </trkpt>
      <trkpt lat="47.45017" lon="6.71898">
        <ele>511.7</ele>
        <time>2017-05-14T08:53:03.999Z</time>
      </trkpt>
      <trkpt lat="47.45013" lon="6.719">
        <ele>512.3</ele>
        <time>2017-05-14T08:53:04.999Z</time>
      </trkpt>
      <trkpt lat="47.45009" lon="6.71903">
        <ele>512.8</ele>
        <time>2017-05-14T08:53:05.999Z</time>
      </trkpt>
      <trkpt lat="47.45004" lon="6.71905">
        <ele>513.1</ele>
        <time>2017-05-14T08:53:06.999Z</time>
      </trkpt>
      <trkpt lat="47.44999" lon="6.71908">
        <ele>513.5</ele>
        <time>2017-05-14T08:53:07.999Z</time>
      </trkpt>
      <trkpt lat="47.44994" lon="6.71911">
        <ele>513.8</ele>
        <time>2017-05-14T08:53:08.999Z</time>
      </trkpt>
      <trkpt lat="47.44989" lon="6.71913">
        <ele>513.9</ele>
        <time>2017-05-14T08:53:09.999Z</time>
      </trkpt>
      <trkpt lat="47.44985" lon="6.71916">
        <ele>514</ele>
        <time>2017-05-14T08:53:10.999Z</time>
      </trkpt>
      <trkpt lat="47.4498" lon="6.71918">
        <ele>514.2</ele>
        <time>2017-05-14T08:53:11.999Z</time>
      </trkpt>
      <trkpt lat="47.44976" lon="6.71921">
        <ele>514</ele>
        <time>2017-05-14T08:53:12.999Z</time>
      </trkpt>
      <trkpt lat="47.44971" lon="6.71923">
        <ele>514</ele>
        <time>2017-05-14T08:53:13.999Z</time>
      </trkpt>
      <trkpt lat="47.44965" lon="6.71926">
        <ele>514.1</ele>
        <time>2017-05-14T08:53:14.999Z</time>
      </trkpt>
      <trkpt lat="47.4496" lon="6.71929">
        <ele>514.1</ele>
        <time>2017-05-14T08:53:15.999Z</time>
      </trkpt>
      <trkpt lat="47.44955" lon="6.71931">
        <ele>514.3</ele>
        <time>2017-05-14T08:53:16.999Z</time>
      </trkpt>
      <trkpt lat="47.4495" lon="6.71934">
        <ele>514.2</ele>
        <time>2017-05-14T08:53:17.999Z</time>
      </trkpt>
      <trkpt lat="47.44945" lon="6.71936">
        <ele>514</ele>
        <time>2017-05-14T08:53:18.999Z</time>
      </trkpt>
      <trkpt lat="47.44939" lon="6.71939">
        <ele>513.7</ele>
        <time>2017-05-14T08:53:19.999Z</time>
      </trkpt>
      <trkpt lat="47.44934" lon="6.71942">
        <ele>513.3</ele>
        <time>2017-05-14T08:53:20.999Z</time>
      </trkpt>
      <trkpt lat="47.44928" lon="6.71944">
        <ele>513.1</ele>
        <time>2017-05-14T08:53:21.999Z</time>
      </trkpt>
      <trkpt lat="47.44923" lon="6.71947">
        <ele>513.2</ele>
        <time>2017-05-14T08:53:22.999Z</time>
      </trkpt>
      <trkpt lat="47.44919" lon="6.71948">
        <ele>513.4</ele>
        <time>2017-05-14T08:53:23.999Z</time>
      </trkpt>
      <trkpt lat="47.44915" lon="6.71951">
        <ele>513.3</ele>
        <time>2017-05-14T08:53:24.999Z</time>
      </trkpt>
      <trkpt lat="47.4491" lon="6.71953">
        <ele>512.8</ele>
        <time>2017-05-14T08:53:25.999Z</time>
      </trkpt>
      <trkpt lat="47.44905" lon="6.71956">
        <ele>512.4</ele>
        <time>2017-05-14T08:53:26.999Z</time>
      </trkpt>
      <trkpt lat="47.449" lon="6.71959">
        <ele>512.3</ele>
        <time>2017-05-14T08:53:27.999Z</time>
      </trkpt>
      <trkpt lat="47.44895" lon="6.71961">
        <ele>511.9</ele>
        <time>2017-05-14T08:53:28.999Z</time>
      </trkpt>
      <trkpt lat="47.4489" lon="6.71963">
        <ele>511.6</ele>
        <time>2017-05-14T08:53:29.999Z</time>
      </trkpt>
      <trkpt lat="47.44885" lon="6.71965">
        <ele>511.4</ele>
        <time>2017-05-14T08:53:30.999Z</time>
      </trkpt>
      <trkpt lat="47.4488" lon="6.71968">
        <ele>511.3</ele>
        <time>2017-05-14T08:53:31.999Z</time>
      </trkpt>
      <trkpt lat="47.44875" lon="6.7197">
        <ele>511.3</ele>
        <time>2017-05-14T08:53:32.999Z</time>
      </trkpt>
      <trkpt lat="47.4487" lon="6.71972">
        <ele>511.3</ele>
        <time>2017-05-14T08:53:33.999Z</time>
      </trkpt>
      <trkpt lat="47.44866" lon="6.71974">
        <ele>511.4</ele>
        <time>2017-05-14T08:53:34.999Z</time>
      </trkpt>
      <trkpt lat="47.44861" lon="6.71976">
        <ele>511.4</ele>
        <time>2017-05-14T08:53:35.999Z</time>
      </trkpt>
      <trkpt lat="47.44856" lon="6.71979">
        <ele>511.5</ele>
        <time>2017-05-14T08:53:36.999Z</time>
      </trkpt>
      <trkpt lat="47.44852" lon="6.71981">
        <ele>511.6</ele>
        <time>2017-05-14T08:53:37.999Z</time>
      </trkpt>
      <trkpt lat="47.44847" lon="6.71983">
        <ele>511.7</ele>
        <time>2017-05-14T08:53:38.999Z</time>
      </trkpt>
      <trkpt lat="47.44843" lon="6.71985">
        <ele>511.8</ele>
        <time>2017-05-14T08:53:39.999Z</time>
      </trkpt>
      <trkpt lat="47.44839" lon="6.71987">
        <ele>512</ele>
        <time>2017-05-14T08:53:40.999Z</time>
      </trkpt>
      <trkpt lat="47.44834" lon="6.7199">
        <ele>512.1</ele>
        <time>2017-05-14T08:53:41.999Z</time>
      </trkpt>
      <trkpt lat="47.4483" lon="6.71992">
        <ele>512.2</ele>
        <time>2017-05-14T08:53:42.999Z</time>
      </trkpt>
      <trkpt lat="47.44826" lon="6.71993">
        <ele>512.2</ele>
        <time>2017-05-14T08:53:43.999Z</time>
      </trkpt>
      <trkpt lat="47.44821" lon="6.71995">
        <ele>512.3</ele>
        <time>2017-05-14T08:53:44.999Z</time>
      </trkpt>
      <trkpt lat="47.44816" lon="6.71997">
        <ele>512.2</ele>
        <time>2017-05-14T08:53:45.999Z</time>
      </trkpt>
      <trkpt lat="47.44812" lon="6.71999">
        <ele>512.2</ele>
        <time>2017-05-14T08:53:46.999Z</time>
      </trkpt>
      <trkpt lat="47.44807" lon="6.72001">
        <ele>512.5</ele>
        <time>2017-05-14T08:53:47.999Z</time>
      </trkpt>
      <trkpt lat="47.44803" lon="6.72002">
        <ele>512.8</ele>
        <time>2017-05-14T08:53:48.999Z</time>
      </trkpt>
      <trkpt lat="47.44799" lon="6.72004">
        <ele>512.9</ele>
        <time>2017-05-14T08:53:49.999Z</time>
      </trkpt>
      <trkpt lat="47.44794" lon="6.72005">
        <ele>513.1</ele>
        <time>2017-05-14T08:53:50.999Z</time>
      </trkpt>
      <trkpt lat="47.4479" lon="6.72007">
        <ele>512.9</ele>
        <time>2017-05-14T08:53:51.999Z</time>
      </trkpt>
      <trkpt lat="47.44786" lon="6.72008">
        <ele>513.1</ele>
        <time>2017-05-14T08:53:52.999Z</time>
      </trkpt>
      <trkpt lat="47.44782" lon="6.7201">
        <ele>513.1</ele>
        <time>2017-05-14T08:53:53.999Z</time>
      </trkpt>
      <trkpt lat="47.44778" lon="6.72011">
        <ele>513</ele>
        <time>2017-05-14T08:53:54.999Z</time>
      </trkpt>
      <trkpt lat="47.44775" lon="6.72013">
        <ele>513.3</ele>
        <time>2017-05-14T08:53:55.999Z</time>
      </trkpt>
      <trkpt lat="47.44771" lon="6.72014">
        <ele>513.3</ele>
        <time>2017-05-14T08:53:56.999Z</time>
      </trkpt>
      <trkpt lat="47.44768" lon="6.72017">
        <ele>513.2</ele>
        <time>2017-05-14T08:53:57.999Z</time>
      </trkpt>
      <trkpt lat="47.44765" lon="6.72022">
        <ele>513.1</ele>
        <time>2017-05-14T08:53:58.999Z</time>
      </trkpt>
      <trkpt lat="47.44763" lon="6.72029">
        <ele>513.4</ele>
        <time>2017-05-14T08:53:59.999Z</time>
      </trkpt>
      <trkpt lat="47.44762" lon="6.72036">
        <ele>514</ele>
        <time>2017-05-14T08:54:00.999Z</time>
      </trkpt>
      <trkpt lat="47.44762" lon="6.72042">
        <ele>514.7</ele>
        <time>2017-05-14T08:54:01.999Z</time>
      </trkpt>
      <trkpt lat="47.44762" lon="6.72048">
        <ele>515.5</ele>
        <time>2017-05-14T08:54:02.999Z</time>
      </trkpt>
      <trkpt lat="47.44763" lon="6.72055">
        <ele>515.8</ele>
        <time>2017-05-14T08:54:03.999Z</time>
      </trkpt>
      <trkpt lat="47.44763" lon="6.72059">
        <ele>516</ele>
        <time>2017-05-14T08:54:04.999Z</time>
      </trkpt>
      <trkpt lat="47.44763" lon="6.72065">
        <ele>516.4</ele>
        <time>2017-05-14T08:54:05.999Z</time>
      </trkpt>
      <trkpt lat="47.44764" lon="6.7207">
        <ele>516.9</ele>
        <time>2017-05-14T08:54:06.999Z</time>
      </trkpt>
      <trkpt lat="47.44764" lon="6.72076">
        <ele>517</ele>
        <time>2017-05-14T08:54:07.999Z</time>
      </trkpt>
      <trkpt lat="47.44765" lon="6.72082">
        <ele>517</ele>
        <time>2017-05-14T08:54:08.999Z</time>
      </trkpt>
      <trkpt lat="47.44766" lon="6.72088">
        <ele>517</ele>
        <time>2017-05-14T08:54:09.999Z</time>
      </trkpt>
      <trkpt lat="47.44767" lon="6.72095">
        <ele>517</ele>
        <time>2017-05-14T08:54:10.999Z</time>
      </trkpt>
      <trkpt lat="47.44768" lon="6.72101">
        <ele>516.9</ele>
        <time>2017-05-14T08:54:11.999Z</time>
      </trkpt>
      <trkpt lat="47.44769" lon="6.72106">
        <ele>516.9</ele>
        <time>2017-05-14T08:54:12.999Z</time>
      </trkpt>
      <trkpt lat="47.44771" lon="6.7211">
        <ele>517</ele>
        <time>2017-05-14T08:54:13.999Z</time>
      </trkpt>
      <trkpt lat="47.44772" lon="6.72114">
        <ele>517</ele>
        <time>2017-05-14T08:54:14.999Z</time>
      </trkpt>
      <trkpt lat="47.44774" lon="6.72119">
        <ele>516.9</ele>
        <time>2017-05-14T08:54:15.999Z</time>
      </trkpt>
      <trkpt lat="47.44775" lon="6.72123">
        <ele>516.9</ele>
        <time>2017-05-14T08:54:16.999Z</time>
      </trkpt>
      <trkpt lat="47.44777" lon="6.72129">
        <ele>516.8</ele>
        <time>2017-05-14T08:54:17.999Z</time>
      </trkpt>
      <trkpt lat="47.44778" lon="6.72134">
        <ele>516.8</ele>
        <time>2017-05-14T08:54:18.999Z</time>
      </trkpt>
      <trkpt lat="47.4478" lon="6.72138">
        <ele>516.7</ele>
        <time>2017-05-14T08:54:19.999Z</time>
      </trkpt>
      <trkpt lat="47.44781" lon="6.72143">
        <ele>516.6</ele>
        <time>2017-05-14T08:54:20.999Z</time>
      </trkpt>
      <trkpt lat="47.44782" lon="6.72148">
        <ele>516.5</ele>
        <time>2017-05-14T08:54:21.999Z</time>
      </trkpt>
      <trkpt lat="47.44783" lon="6.72153">
        <ele>516.4</ele>
        <time>2017-05-14T08:54:22.999Z</time>
      </trkpt>
      <trkpt lat="47.44785" lon="6.72159">
        <ele>513.6</ele>
        <time>2017-05-14T08:54:23.999Z</time>
      </trkpt>
      <trkpt lat="47.44787" lon="6.72165">
        <ele>513.4</ele>
        <time>2017-05-14T08:54:24.999Z</time>
      </trkpt>
      <trkpt lat="47.44788" lon="6.7217">
        <ele>513.2</ele>
        <time>2017-05-14T08:54:25.999Z</time>
      </trkpt>
      <trkpt lat="47.4479" lon="6.72175">
        <ele>510.9</ele>
        <time>2017-05-14T08:54:26.999Z</time>
      </trkpt>
      <trkpt lat="47.44791" lon="6.72181">
        <ele>508.8</ele>
        <time>2017-05-14T08:54:27.999Z</time>
      </trkpt>
      <trkpt lat="47.44792" lon="6.72186">
        <ele>508.7</ele>
        <time>2017-05-14T08:54:28.999Z</time>
      </trkpt>
      <trkpt lat="47.44794" lon="6.72192">
        <ele>508.5</ele>
        <time>2017-05-14T08:54:29.999Z</time>
      </trkpt>
      <trkpt lat="47.44795" lon="6.72199">
        <ele>508.4</ele>
        <time>2017-05-14T08:54:30.999Z</time>
      </trkpt>
      <trkpt lat="47.44796" lon="6.72204">
        <ele>507.1</ele>
        <time>2017-05-14T08:54:31.999Z</time>
      </trkpt>
      <trkpt lat="47.44798" lon="6.7221">
        <ele>506.9</ele>
        <time>2017-05-14T08:54:32.999Z</time>
      </trkpt>
      <trkpt lat="47.44799" lon="6.72215">
        <ele>506.9</ele>
        <time>2017-05-14T08:54:33.999Z</time>
      </trkpt>
      <trkpt lat="47.44801" lon="6.72221">
        <ele>505.5</ele>
        <time>2017-05-14T08:54:34.999Z</time>
      </trkpt>
      <trkpt lat="47.44804" lon="6.72227">
        <ele>505.4</ele>
        <time>2017-05-14T08:54:35.999Z</time>
      </trkpt>
      <trkpt lat="47.44805" lon="6.72231">
        <ele>505.2</ele>
        <time>2017-05-14T08:54:36.999Z</time>
      </trkpt>
      <trkpt lat="47.44807" lon="6.72235">
        <ele>505.1</ele>
        <time>2017-05-14T08:54:37.999Z</time>
      </trkpt>
      <trkpt lat="47.44809" lon="6.72239">
        <ele>505</ele>
        <time>2017-05-14T08:54:38.999Z</time>
      </trkpt>
      <trkpt lat="47.44811" lon="6.72243">
        <ele>505</ele>
        <time>2017-05-14T08:54:39.999Z</time>
      </trkpt>
      <trkpt lat="47.44812" lon="6.72246">
        <ele>505</ele>
        <time>2017-05-14T08:54:40.999Z</time>
      </trkpt>
      <trkpt lat="47.44814" lon="6.72249">
        <ele>504.9</ele>
        <time>2017-05-14T08:54:41.999Z</time>
      </trkpt>
      <trkpt lat="47.44815" lon="6.72253">
        <ele>504.9</ele>
        <time>2017-05-14T08:54:43.999Z</time>
      </trkpt>
      <trkpt lat="47.44815" lon="6.72258">
        <ele>505</ele>
        <time>2017-05-14T08:54:44.999Z</time>
      </trkpt>
      <trkpt lat="47.44815" lon="6.72262">
        <ele>505</ele>
        <time>2017-05-14T08:54:45.999Z</time>
      </trkpt>
      <trkpt lat="47.44814" lon="6.72264">
        <ele>505.1</ele>
        <time>2017-05-14T08:54:46.999Z</time>
      </trkpt>
      <trkpt lat="47.44811" lon="6.72266">
        <ele>505.2</ele>
        <time>2017-05-14T08:54:48.999Z</time>
      </trkpt>
      <trkpt lat="47.44809" lon="6.72266">
        <ele>505.3</ele>
        <time>2017-05-14T08:54:49.999Z</time>
      </trkpt>
      <trkpt lat="47.44807" lon="6.72266">
        <ele>505.4</ele>
        <time>2017-05-14T08:54:50.999Z</time>
      </trkpt>
      <trkpt lat="47.44804" lon="6.72267">
        <ele>505.5</ele>
        <time>2017-05-14T08:54:51.999Z</time>
      </trkpt>
      <trkpt lat="47.44802" lon="6.72267">
        <ele>505.6</ele>
        <time>2017-05-14T08:54:52.999Z</time>
      </trkpt>
      <trkpt lat="47.44799" lon="6.72268">
        <ele>505.7</ele>
        <time>2017-05-14T08:54:53.999Z</time>
      </trkpt>
      <trkpt lat="47.44796" lon="6.72268">
        <ele>505.8</ele>
        <time>2017-05-14T08:54:54.999Z</time>
      </trkpt>
      <trkpt lat="47.44793" lon="6.72269">
        <ele>506</ele>
        <time>2017-05-14T08:54:55.999Z</time>
      </trkpt>
      <trkpt lat="47.4479" lon="6.7227">
        <ele>506.1</ele>
        <time>2017-05-14T08:54:56.999Z</time>
      </trkpt>
      <trkpt lat="47.44787" lon="6.72271">
        <ele>506.2</ele>
        <time>2017-05-14T08:54:57.999Z</time>
      </trkpt>
      <trkpt lat="47.44784" lon="6.72272">
        <ele>506.2</ele>
        <time>2017-05-14T08:54:58.999Z</time>
      </trkpt>
      <trkpt lat="47.44782" lon="6.72272">
        <ele>506.3</ele>
        <time>2017-05-14T08:54:59.999Z</time>
      </trkpt>
      <trkpt lat="47.44779" lon="6.72273">
        <ele>506.4</ele>
        <time>2017-05-14T08:55:00.999Z</time>
      </trkpt>
      <trkpt lat="47.44776" lon="6.72274">
        <ele>506.5</ele>
        <time>2017-05-14T08:55:01.999Z</time>
      </trkpt>
      <trkpt lat="47.44773" lon="6.72275">
        <ele>506.6</ele>
        <time>2017-05-14T08:55:02.999Z</time>
      </trkpt>
      <trkpt lat="47.44769" lon="6.72275">
        <ele>506.6</ele>
        <time>2017-05-14T08:55:03.999Z</time>
      </trkpt>
      <trkpt lat="47.44765" lon="6.72275">
        <ele>506.6</ele>
        <time>2017-05-14T08:55:04.999Z</time>
      </trkpt>
      <trkpt lat="47.44762" lon="6.72276">
        <ele>506.7</ele>
        <time>2017-05-14T08:55:05.999Z</time>
      </trkpt>
      <trkpt lat="47.44758" lon="6.72277">
        <ele>506.7</ele>
        <time>2017-05-14T08:55:06.999Z</time>
      </trkpt>
      <trkpt lat="47.44754" lon="6.72279">
        <ele>506.8</ele>
        <time>2017-05-14T08:55:07.999Z</time>
      </trkpt>
      <trkpt lat="47.44751" lon="6.7228">
        <ele>506.9</ele>
        <time>2017-05-14T08:55:08.999Z</time>
      </trkpt>
      <trkpt lat="47.44747" lon="6.72282">
        <ele>507</ele>
        <time>2017-05-14T08:55:09.999Z</time>
      </trkpt>
      <trkpt lat="47.44744" lon="6.72283">
        <ele>507.1</ele>
        <time>2017-05-14T08:55:10.999Z</time>
      </trkpt>
      <trkpt lat="47.44741" lon="6.72284">
        <ele>507.2</ele>
        <time>2017-05-14T08:55:11.999Z</time>
      </trkpt>
      <trkpt lat="47.44739" lon="6.72286">
        <ele>507.4</ele>
        <time>2017-05-14T08:55:12.999Z</time>
      </trkpt>
      <trkpt lat="47.44736" lon="6.72287">
        <ele>507.5</ele>
        <time>2017-05-14T08:55:13.999Z</time>
      </trkpt>
      <trkpt lat="47.44732" lon="6.72289">
        <ele>507.7</ele>
        <time>2017-05-14T08:55:14.999Z</time>
      </trkpt>
      <trkpt lat="47.44728" lon="6.7229">
        <ele>507.9</ele>
        <time>2017-05-14T08:55:15.999Z</time>
      </trkpt>
      <trkpt lat="47.44725" lon="6.72291">
        <ele>508.1</ele>
        <time>2017-05-14T08:55:16.999Z</time>
      </trkpt>
      <trkpt lat="47.44723" lon="6.72292">
        <ele>508.2</ele>
        <time>2017-05-14T08:55:17.999Z</time>
      </trkpt>
      <trkpt lat="47.44719" lon="6.72295">
        <ele>508.3</ele>
        <time>2017-05-14T08:55:19.999Z</time>
      </trkpt>
      <trkpt lat="47.44716" lon="6.72297">
        <ele>508.4</ele>
        <time>2017-05-14T08:55:20.999Z</time>
      </trkpt>
      <trkpt lat="47.44712" lon="6.72299">
        <ele>508.4</ele>
        <time>2017-05-14T08:55:21.999Z</time>
      </trkpt>
      <trkpt lat="47.44709" lon="6.72301">
        <ele>508.5</ele>
        <time>2017-05-14T08:55:22.999Z</time>
      </trkpt>
      <trkpt lat="47.44706" lon="6.72302">
        <ele>508.6</ele>
        <time>2017-05-14T08:55:23.999Z</time>
      </trkpt>
      <trkpt lat="47.44704" lon="6.72304">
        <ele>508.7</ele>
        <time>2017-05-14T08:55:24.999Z</time>
      </trkpt>
      <trkpt lat="47.44701" lon="6.72305">
        <ele>508.8</ele>
        <time>2017-05-14T08:55:25.999Z</time>
      </trkpt>
      <trkpt lat="47.44698" lon="6.72306">
        <ele>508.8</ele>
        <time>2017-05-14T08:55:26.999Z</time>
      </trkpt>
      <trkpt lat="47.44695" lon="6.72307">
        <ele>508.9</ele>
        <time>2017-05-14T08:55:27.999Z</time>
      </trkpt>
      <trkpt lat="47.44693" lon="6.72308">
        <ele>509</ele>
        <time>2017-05-14T08:55:28.999Z</time>
      </trkpt>
      <trkpt lat="47.44689" lon="6.7231">
        <ele>509.1</ele>
        <time>2017-05-14T08:55:29.999Z</time>
      </trkpt>
      <trkpt lat="47.44687" lon="6.72311">
        <ele>509.3</ele>
        <time>2017-05-14T08:55:30.999Z</time>
      </trkpt>
      <trkpt lat="47.44684" lon="6.72313">
        <ele>509.3</ele>
        <time>2017-05-14T08:55:31.999Z</time>
      </trkpt>
      <trkpt lat="47.44681" lon="6.72313">
        <ele>509.4</ele>
        <time>2017-05-14T08:55:32.999Z</time>
      </trkpt>
      <trkpt lat="47.44679" lon="6.72314">
        <ele>509.4</ele>
        <time>2017-05-14T08:55:33.999Z</time>
      </trkpt>
      <trkpt lat="47.44675" lon="6.72315">
        <ele>509.4</ele>
        <time>2017-05-14T08:55:34.999Z</time>
      </trkpt>
      <trkpt lat="47.44671" lon="6.72316">
        <ele>509.3</ele>
        <time>2017-05-14T08:55:35.999Z</time>
      </trkpt>
      <trkpt lat="47.44666" lon="6.72318">
        <ele>508.5</ele>
        <time>2017-05-14T08:55:36.999Z</time>
      </trkpt>
      <trkpt lat="47.44662" lon="6.72319">
        <ele>508.5</ele>
        <time>2017-05-14T08:55:37.999Z</time>
      </trkpt>
      <trkpt lat="47.44658" lon="6.72319">
        <ele>508.6</ele>
        <time>2017-05-14T08:55:38.999Z</time>
      </trkpt>
      <trkpt lat="47.44653" lon="6.7232">
        <ele>508.5</ele>
        <time>2017-05-14T08:55:39.999Z</time>
      </trkpt>
      <trkpt lat="47.44647" lon="6.7232">
        <ele>507.9</ele>
        <time>2017-05-14T08:55:40.999Z</time>
      </trkpt>
      <trkpt lat="47.44642" lon="6.7232">
        <ele>507.1</ele>
        <time>2017-05-14T08:55:41.999Z</time>
      </trkpt>
      <trkpt lat="47.44636" lon="6.72321">
        <ele>506.8</ele>
        <time>2017-05-14T08:55:42.999Z</time>
      </trkpt>
      <trkpt lat="47.44632" lon="6.72321">
        <ele>506.9</ele>
        <time>2017-05-14T08:55:43.999Z</time>
      </trkpt>
      <trkpt lat="47.4463" lon="6.72321">
        <ele>507</ele>
        <time>2017-05-14T08:55:44.999Z</time>
      </trkpt>
      <trkpt lat="47.44626" lon="6.72321">
        <ele>507.2</ele>
        <time>2017-05-14T08:55:46.999Z</time>
      </trkpt>
      <trkpt lat="47.44624" lon="6.72321">
        <ele>507.4</ele>
        <time>2017-05-14T08:55:47.999Z</time>
      </trkpt>
      <trkpt lat="47.44622" lon="6.72321">
        <ele>507.5</ele>
        <time>2017-05-14T08:55:48.999Z</time>
      </trkpt>
      <trkpt lat="47.44619" lon="6.7232">
        <ele>507.6</ele>
        <time>2017-05-14T08:55:49.999Z</time>
      </trkpt>
      <trkpt lat="47.44617" lon="6.72319">
        <ele>507.7</ele>
        <time>2017-05-14T08:55:50.999Z</time>
      </trkpt>
      <trkpt lat="47.44612" lon="6.72319">
        <ele>510</ele>
        <time>2017-05-14T08:55:51.999Z</time>
      </trkpt>
      <trkpt lat="47.44607" lon="6.72319">
        <ele>512.4</ele>
        <time>2017-05-14T08:55:52.999Z</time>
      </trkpt>
      <trkpt lat="47.44603" lon="6.7232">
        <ele>514.4</ele>
        <time>2017-05-14T08:55:53.999Z</time>
      </trkpt>
      <trkpt lat="47.44599" lon="6.7232">
        <ele>516</ele>
        <time>2017-05-14T08:55:54.999Z</time>
      </trkpt>
      <trkpt lat="47.44592" lon="6.72323">
        <ele>516.2</ele>
        <time>2017-05-14T08:55:56.999Z</time>
      </trkpt>
      <trkpt lat="47.44588" lon="6.72324">
        <ele>516.2</ele>
        <time>2017-05-14T08:55:57.999Z</time>
      </trkpt>
      <trkpt lat="47.44585" lon="6.72325">
        <ele>516.2</ele>
        <time>2017-05-14T08:55:58.999Z</time>
      </trkpt>
      <trkpt lat="47.44581" lon="6.72327">
        <ele>516.1</ele>
        <time>2017-05-14T08:55:59.999Z</time>
      </trkpt>
      <trkpt lat="47.44578" lon="6.72328">
        <ele>516</ele>
        <time>2017-05-14T08:56:00.999Z</time>
      </trkpt>
      <trkpt lat="47.44574" lon="6.72329">
        <ele>515.9</ele>
        <time>2017-05-14T08:56:01.999Z</time>
      </trkpt>
      <trkpt lat="47.44571" lon="6.7233">
        <ele>515.8</ele>
        <time>2017-05-14T08:56:02.999Z</time>
      </trkpt>
      <trkpt lat="47.44568" lon="6.72331">
        <ele>515.5</ele>
        <time>2017-05-14T08:56:03.999Z</time>
      </trkpt>
      <trkpt lat="47.44565" lon="6.72333">
        <ele>515.3</ele>
        <time>2017-05-14T08:56:04.999Z</time>
      </trkpt>
      <trkpt lat="47.44561" lon="6.72334">
        <ele>515</ele>
        <time>2017-05-14T08:56:05.999Z</time>
      </trkpt>
      <trkpt lat="47.44558" lon="6.72335">
        <ele>514.6</ele>
        <time>2017-05-14T08:56:06.999Z</time>
      </trkpt>
      <trkpt lat="47.44555" lon="6.72337">
        <ele>514.3</ele>
        <time>2017-05-14T08:56:07.999Z</time>
      </trkpt>
      <trkpt lat="47.44553" lon="6.72337">
        <ele>514</ele>
        <time>2017-05-14T08:56:08.999Z</time>
      </trkpt>
      <trkpt lat="47.4455" lon="6.72337">
        <ele>513.6</ele>
        <time>2017-05-14T08:56:09.999Z</time>
      </trkpt>
      <trkpt lat="47.44547" lon="6.72337">
        <ele>513.3</ele>
        <time>2017-05-14T08:56:10.999Z</time>
      </trkpt>
      <trkpt lat="47.44544" lon="6.72338">
        <ele>512.9</ele>
        <time>2017-05-14T08:56:11.999Z</time>
      </trkpt>
      <trkpt lat="47.44541" lon="6.72338">
        <ele>512.6</ele>
        <time>2017-05-14T08:56:12.999Z</time>
      </trkpt>
      <trkpt lat="47.44537" lon="6.7234">
        <ele>512.3</ele>
        <time>2017-05-14T08:56:13.999Z</time>
      </trkpt>
      <trkpt lat="47.44533" lon="6.72342">
        <ele>512.1</ele>
        <time>2017-05-14T08:56:14.999Z</time>
      </trkpt>
      <trkpt lat="47.44529" lon="6.72347">
        <ele>512</ele>
        <time>2017-05-14T08:56:15.999Z</time>
      </trkpt>
      <trkpt lat="47.44525" lon="6.72351">
        <ele>511.9</ele>
        <time>2017-05-14T08:56:16.999Z</time>
      </trkpt>
      <trkpt lat="47.44523" lon="6.72357">
        <ele>511.8</ele>
        <time>2017-05-14T08:56:17.999Z</time>
      </trkpt>
      <trkpt lat="47.4452" lon="6.7236">
        <ele>511.6</ele>
        <time>2017-05-14T08:56:18.999Z</time>
      </trkpt>
      <trkpt lat="47.44519" lon="6.72364">
        <ele>511.4</ele>
        <time>2017-05-14T08:56:19.999Z</time>
      </trkpt>
      <trkpt lat="47.44518" lon="6.72369">
        <ele>511.2</ele>
        <time>2017-05-14T08:56:20.999Z</time>
      </trkpt>
      <trkpt lat="47.44517" lon="6.72374">
        <ele>511.2</ele>
        <time>2017-05-14T08:56:21.999Z</time>
      </trkpt>
      <trkpt lat="47.44516" lon="6.72379">
        <ele>511.3</ele>
        <time>2017-05-14T08:56:22.999Z</time>
      </trkpt>
      <trkpt lat="47.44514" lon="6.72384">
        <ele>511.3</ele>
        <time>2017-05-14T08:56:23.999Z</time>
      </trkpt>
      <trkpt lat="47.44514" lon="6.72389">
        <ele>511.3</ele>
        <time>2017-05-14T08:56:24.999Z</time>
      </trkpt>
      <trkpt lat="47.44514" lon="6.72396">
        <ele>511.1</ele>
        <time>2017-05-14T08:56:25.999Z</time>
      </trkpt>
      <trkpt lat="47.44515" lon="6.72401">
        <ele>510.9</ele>
        <time>2017-05-14T08:56:26.999Z</time>
      </trkpt>
      <trkpt lat="47.44515" lon="6.72407">
        <ele>510.7</ele>
        <time>2017-05-14T08:56:27.999Z</time>
      </trkpt>
      <trkpt lat="47.44515" lon="6.72412">
        <ele>510.5</ele>
        <time>2017-05-14T08:56:28.999Z</time>
      </trkpt>
      <trkpt lat="47.44516" lon="6.72417">
        <ele>510.2</ele>
        <time>2017-05-14T08:56:29.999Z</time>
      </trkpt>
      <trkpt lat="47.44516" lon="6.72423">
        <ele>510</ele>
        <time>2017-05-14T08:56:30.999Z</time>
      </trkpt>
      <trkpt lat="47.44518" lon="6.72429">
        <ele>507.6</ele>
        <time>2017-05-14T08:56:31.999Z</time>
      </trkpt>
      <trkpt lat="47.44519" lon="6.72435">
        <ele>507.5</ele>
        <time>2017-05-14T08:56:32.999Z</time>
      </trkpt>
      <trkpt lat="47.4452" lon="6.72443">
        <ele>505.8</ele>
        <time>2017-05-14T08:56:33.999Z</time>
      </trkpt>
      <trkpt lat="47.44521" lon="6.7245">
        <ele>505.7</ele>
        <time>2017-05-14T08:56:34.999Z</time>
      </trkpt>
      <trkpt lat="47.44523" lon="6.72456">
        <ele>505.5</ele>
        <time>2017-05-14T08:56:35.999Z</time>
      </trkpt>
      <trkpt lat="47.44524" lon="6.7246">
        <ele>505.3</ele>
        <time>2017-05-14T08:56:36.999Z</time>
      </trkpt>
      <trkpt lat="47.44525" lon="6.72466">
        <ele>505.3</ele>
        <time>2017-05-14T08:56:37.999Z</time>
      </trkpt>
      <trkpt lat="47.44527" lon="6.72471">
        <ele>505.1</ele>
        <time>2017-05-14T08:56:38.999Z</time>
      </trkpt>
      <trkpt lat="47.44528" lon="6.72475">
        <ele>505</ele>
        <time>2017-05-14T08:56:39.999Z</time>
      </trkpt>
      <trkpt lat="47.44529" lon="6.72482">
        <ele>504.5</ele>
        <time>2017-05-14T08:56:40.999Z</time>
      </trkpt>
      <trkpt lat="47.4453" lon="6.7249">
        <ele>504.5</ele>
        <time>2017-05-14T08:56:41.999Z</time>
      </trkpt>
      <trkpt lat="47.44531" lon="6.72497">
        <ele>504.4</ele>
        <time>2017-05-14T08:56:42.999Z</time>
      </trkpt>
      <trkpt lat="47.44533" lon="6.72503">
        <ele>504.4</ele>
        <time>2017-05-14T08:56:43.999Z</time>
      </trkpt>
      <trkpt lat="47.44535" lon="6.72509">
        <ele>504.5</ele>
        <time>2017-05-14T08:56:44.999Z</time>
      </trkpt>
      <trkpt lat="47.44536" lon="6.72514">
        <ele>504.5</ele>
        <time>2017-05-14T08:56:45.999Z</time>
      </trkpt>
      <trkpt lat="47.44537" lon="6.72521">
        <ele>504.4</ele>
        <time>2017-05-14T08:56:46.999Z</time>
      </trkpt>
      <trkpt lat="47.44538" lon="6.72527">
        <ele>504.4</ele>
        <time>2017-05-14T08:56:47.999Z</time>
      </trkpt>
      <trkpt lat="47.4454" lon="6.72533">
        <ele>504.5</ele>
        <time>2017-05-14T08:56:48.999Z</time>
      </trkpt>
      <trkpt lat="47.44542" lon="6.72539">
        <ele>504.5</ele>
        <time>2017-05-14T08:56:49.999Z</time>
      </trkpt>
      <trkpt lat="47.44543" lon="6.72546">
        <ele>504.3</ele>
        <time>2017-05-14T08:56:50.999Z</time>
      </trkpt>
      <trkpt lat="47.44543" lon="6.72553">
        <ele>504.3</ele>
        <time>2017-05-14T08:56:51.999Z</time>
      </trkpt>
      <trkpt lat="47.44544" lon="6.7256">
        <ele>504.2</ele>
        <time>2017-05-14T08:56:52.999Z</time>
      </trkpt>
      <trkpt lat="47.44546" lon="6.72567">
        <ele>504.1</ele>
        <time>2017-05-14T08:56:53.999Z</time>
      </trkpt>
      <trkpt lat="47.44547" lon="6.72575">
        <ele>504.2</ele>
        <time>2017-05-14T08:56:54.999Z</time>
      </trkpt>
      <trkpt lat="47.44547" lon="6.72588">
        <ele>504.4</ele>
        <time>2017-05-14T08:56:56.999Z</time>
      </trkpt>
      <trkpt lat="47.44549" lon="6.72595">
        <ele>504.5</ele>
        <time>2017-05-14T08:56:57.999Z</time>
      </trkpt>
      <trkpt lat="47.4455" lon="6.72601">
        <ele>504.7</ele>
        <time>2017-05-14T08:56:58.999Z</time>
      </trkpt>
      <trkpt lat="47.44552" lon="6.72609">
        <ele>506.6</ele>
        <time>2017-05-14T08:56:59.999Z</time>
      </trkpt>
      <trkpt lat="47.44553" lon="6.72615">
        <ele>506.8</ele>
        <time>2017-05-14T08:57:00.999Z</time>
      </trkpt>
      <trkpt lat="47.44552" lon="6.72622">
        <ele>507.5</ele>
        <time>2017-05-14T08:57:01.999Z</time>
      </trkpt>
      <trkpt lat="47.44553" lon="6.72631">
        <ele>507.6</ele>
        <time>2017-05-14T08:57:02.999Z</time>
      </trkpt>
      <trkpt lat="47.44554" lon="6.72638">
        <ele>507.5</ele>
        <time>2017-05-14T08:57:03.999Z</time>
      </trkpt>
      <trkpt lat="47.44556" lon="6.72645">
        <ele>508.4</ele>
        <time>2017-05-14T08:57:04.999Z</time>
      </trkpt>
      <trkpt lat="47.44558" lon="6.72651">
        <ele>509</ele>
        <time>2017-05-14T08:57:05.999Z</time>
      </trkpt>
      <trkpt lat="47.4456" lon="6.72658">
        <ele>509.3</ele>
        <time>2017-05-14T08:57:06.999Z</time>
      </trkpt>
      <trkpt lat="47.44562" lon="6.72665">
        <ele>509</ele>
        <time>2017-05-14T08:57:07.999Z</time>
      </trkpt>
      <trkpt lat="47.44565" lon="6.72672">
        <ele>507.9</ele>
        <time>2017-05-14T08:57:08.999Z</time>
      </trkpt>
      <trkpt lat="47.44569" lon="6.72679">
        <ele>507.9</ele>
        <time>2017-05-14T08:57:09.999Z</time>
      </trkpt>
      <trkpt lat="47.44573" lon="6.72685">
        <ele>508.9</ele>
        <time>2017-05-14T08:57:10.999Z</time>
      </trkpt>
      <trkpt lat="47.44577" lon="6.7269">
        <ele>509</ele>
        <time>2017-05-14T08:57:11.999Z</time>
      </trkpt>
      <trkpt lat="47.4458" lon="6.72693">
        <ele>509.1</ele>
        <time>2017-05-14T08:57:12.999Z</time>
      </trkpt>
      <trkpt lat="47.44583" lon="6.72695">
        <ele>509.1</ele>
        <time>2017-05-14T08:57:13.999Z</time>
      </trkpt>
      <trkpt lat="47.44586" lon="6.72699">
        <ele>509.2</ele>
        <time>2017-05-14T08:57:14.999Z</time>
      </trkpt>
      <trkpt lat="47.4459" lon="6.72704">
        <ele>509.1</ele>
        <time>2017-05-14T08:57:15.999Z</time>
      </trkpt>
      <trkpt lat="47.44592" lon="6.7271">
        <ele>509.1</ele>
        <time>2017-05-14T08:57:16.999Z</time>
      </trkpt>
      <trkpt lat="47.44595" lon="6.72716">
        <ele>509.1</ele>
        <time>2017-05-14T08:57:17.999Z</time>
      </trkpt>
      <trkpt lat="47.44599" lon="6.72724">
        <ele>510.8</ele>
        <time>2017-05-14T08:57:18.999Z</time>
      </trkpt>
      <trkpt lat="47.44602" lon="6.7273">
        <ele>512.8</ele>
        <time>2017-05-14T08:57:19.999Z</time>
      </trkpt>
      <trkpt lat="47.44604" lon="6.72737">
        <ele>513</ele>
        <time>2017-05-14T08:57:20.999Z</time>
      </trkpt>
      <trkpt lat="47.44608" lon="6.72753">
        <ele>513.3</ele>
        <time>2017-05-14T08:57:21.999Z</time>
      </trkpt>
      <trkpt lat="47.44612" lon="6.72766">
        <ele>513.7</ele>
        <time>2017-05-14T08:57:22.999Z</time>
      </trkpt>
      <trkpt lat="47.44614" lon="6.72774">
        <ele>517.6</ele>
        <time>2017-05-14T08:57:23.999Z</time>
      </trkpt>
      <trkpt lat="47.44617" lon="6.72781">
        <ele>517.8</ele>
        <time>2017-05-14T08:57:24.999Z</time>
      </trkpt>
      <trkpt lat="47.44618" lon="6.72787">
        <ele>517.9</ele>
        <time>2017-05-14T08:57:25.999Z</time>
      </trkpt>
      <trkpt lat="47.44619" lon="6.72794">
        <ele>518.1</ele>
        <time>2017-05-14T08:57:26.999Z</time>
      </trkpt>
      <trkpt lat="47.44621" lon="6.728">
        <ele>518.2</ele>
        <time>2017-05-14T08:57:27.999Z</time>
      </trkpt>
      <trkpt lat="47.44621" lon="6.72805">
        <ele>518.4</ele>
        <time>2017-05-14T08:57:28.999Z</time>
      </trkpt>
      <trkpt lat="47.44623" lon="6.72811">
        <ele>518.5</ele>
        <time>2017-05-14T08:57:29.999Z</time>
      </trkpt>
      <trkpt lat="47.44623" lon="6.72816">
        <ele>518.5</ele>
        <time>2017-05-14T08:57:30.999Z</time>
      </trkpt>
      <trkpt lat="47.44624" lon="6.72823">
        <ele>519.1</ele>
        <time>2017-05-14T08:57:31.999Z</time>
      </trkpt>
      <trkpt lat="47.44625" lon="6.7283">
        <ele>519.9</ele>
        <time>2017-05-14T08:57:32.999Z</time>
      </trkpt>
      <trkpt lat="47.44626" lon="6.72838">
        <ele>519.9</ele>
        <time>2017-05-14T08:57:33.999Z</time>
      </trkpt>
      <trkpt lat="47.44627" lon="6.72845">
        <ele>519.9</ele>
        <time>2017-05-14T08:57:34.999Z</time>
      </trkpt>
      <trkpt lat="47.44628" lon="6.72853">
        <ele>519.5</ele>
        <time>2017-05-14T08:57:35.999Z</time>
      </trkpt>
      <trkpt lat="47.44629" lon="6.72859">
        <ele>519.5</ele>
        <time>2017-05-14T08:57:36.999Z</time>
      </trkpt>
      <trkpt lat="47.44629" lon="6.72863">
        <ele>519.4</ele>
        <time>2017-05-14T08:57:37.999Z</time>
      </trkpt>
      <trkpt lat="47.4463" lon="6.72868">
        <ele>519.2</ele>
        <time>2017-05-14T08:57:39.999Z</time>
      </trkpt>
      <trkpt lat="47.44631" lon="6.72869">
        <ele>519.1</ele>
        <time>2017-05-14T08:57:40.999Z</time>
      </trkpt>
      <trkpt lat="47.44633" lon="6.72875">
        <ele>519.1</ele>
        <time>2017-05-14T08:57:43.999Z</time>
      </trkpt>
      <trkpt lat="47.44633" lon="6.72878">
        <ele>519.1</ele>
        <time>2017-05-14T08:57:44.999Z</time>
      </trkpt>
      <trkpt lat="47.44634" lon="6.72882">
        <ele>519.1</ele>
        <time>2017-05-14T08:57:45.999Z</time>
      </trkpt>
      <trkpt lat="47.44635" lon="6.72887">
        <ele>519</ele>
        <time>2017-05-14T08:57:46.999Z</time>
      </trkpt>
      <trkpt lat="47.44636" lon="6.7289">
        <ele>518.8</ele>
        <time>2017-05-14T08:57:47.999Z</time>
      </trkpt>
      <trkpt lat="47.44636" lon="6.72895">
        <ele>518.8</ele>
        <time>2017-05-14T08:57:48.999Z</time>
      </trkpt>
      <trkpt lat="47.44638" lon="6.72899">
        <ele>518.7</ele>
        <time>2017-05-14T08:57:49.999Z</time>
      </trkpt>
      <trkpt lat="47.4464" lon="6.72903">
        <ele>518.5</ele>
        <time>2017-05-14T08:57:50.999Z</time>
      </trkpt>
      <trkpt lat="47.44641" lon="6.72906">
        <ele>518.3</ele>
        <time>2017-05-14T08:57:51.999Z</time>
      </trkpt>
      <trkpt lat="47.44643" lon="6.72909">
        <ele>518</ele>
        <time>2017-05-14T08:57:52.999Z</time>
      </trkpt>
      <trkpt lat="47.44644" lon="6.72913">
        <ele>517.8</ele>
        <time>2017-05-14T08:57:53.999Z</time>
      </trkpt>
      <trkpt lat="47.44646" lon="6.72915">
        <ele>517.8</ele>
        <time>2017-05-14T08:57:54.999Z</time>
      </trkpt>
      <trkpt lat="47.44654" lon="6.72929">
        <ele>517.7</ele>
        <time>2017-05-14T08:57:56.999Z</time>
      </trkpt>
      <trkpt lat="47.44657" lon="6.72934">
        <ele>517.2</ele>
        <time>2017-05-14T08:57:58.999Z</time>
      </trkpt>
      <trkpt lat="47.44659" lon="6.72936">
        <ele>517</ele>
        <time>2017-05-14T08:57:59.999Z</time>
      </trkpt>
      <trkpt lat="47.44662" lon="6.7294">
        <ele>516.7</ele>
        <time>2017-05-14T08:58:01.999Z</time>
      </trkpt>
      <trkpt lat="47.44664" lon="6.72943">
        <ele>516.5</ele>
        <time>2017-05-14T08:58:02.999Z</time>
      </trkpt>
      <trkpt lat="47.44666" lon="6.72948">
        <ele>516.2</ele>
        <time>2017-05-14T08:58:03.999Z</time>
      </trkpt>
      <trkpt lat="47.44667" lon="6.72952">
        <ele>515.8</ele>
        <time>2017-05-14T08:58:04.999Z</time>
      </trkpt>
      <trkpt lat="47.44668" lon="6.72957">
        <ele>515.5</ele>
        <time>2017-05-14T08:58:05.999Z</time>
      </trkpt>
      <trkpt lat="47.4467" lon="6.72961">
        <ele>515.2</ele>
        <time>2017-05-14T08:58:06.999Z</time>
      </trkpt>
      <trkpt lat="47.44672" lon="6.72963">
        <ele>514.9</ele>
        <time>2017-05-14T08:58:07.999Z</time>
      </trkpt>
      <trkpt lat="47.44674" lon="6.72967">
        <ele>514.5</ele>
        <time>2017-05-14T08:58:08.999Z</time>
      </trkpt>
      <trkpt lat="47.44676" lon="6.72969">
        <ele>514.2</ele>
        <time>2017-05-14T08:58:09.999Z</time>
      </trkpt>
      <trkpt lat="47.44679" lon="6.72973">
        <ele>514</ele>
        <time>2017-05-14T08:58:10.999Z</time>
      </trkpt>
      <trkpt lat="47.44681" lon="6.72978">
        <ele>513.7</ele>
        <time>2017-05-14T08:58:11.999Z</time>
      </trkpt>
      <trkpt lat="47.44684" lon="6.72983">
        <ele>510.1</ele>
        <time>2017-05-14T08:58:12.999Z</time>
      </trkpt>
      <trkpt lat="47.44686" lon="6.72988">
        <ele>509.8</ele>
        <time>2017-05-14T08:58:13.999Z</time>
      </trkpt>
      <trkpt lat="47.44689" lon="6.72993">
        <ele>509.3</ele>
        <time>2017-05-14T08:58:14.999Z</time>
      </trkpt>
      <trkpt lat="47.44692" lon="6.72997">
        <ele>509</ele>
        <time>2017-05-14T08:58:15.999Z</time>
      </trkpt>
      <trkpt lat="47.44694" lon="6.73003">
        <ele>506.2</ele>
        <time>2017-05-14T08:58:16.999Z</time>
      </trkpt>
      <trkpt lat="47.44697" lon="6.73007">
        <ele>505.9</ele>
        <time>2017-05-14T08:58:17.999Z</time>
      </trkpt>
      <trkpt lat="47.44699" lon="6.7301">
        <ele>505.5</ele>
        <time>2017-05-14T08:58:18.999Z</time>
      </trkpt>
      <trkpt lat="47.44701" lon="6.73013">
        <ele>505.1</ele>
        <time>2017-05-14T08:58:19.999Z</time>
      </trkpt>
      <trkpt lat="47.44703" lon="6.73017">
        <ele>504.9</ele>
        <time>2017-05-14T08:58:20.999Z</time>
      </trkpt>
      <trkpt lat="47.44706" lon="6.73021">
        <ele>504.6</ele>
        <time>2017-05-14T08:58:21.999Z</time>
      </trkpt>
      <trkpt lat="47.44708" lon="6.73027">
        <ele>504.5</ele>
        <time>2017-05-14T08:58:22.999Z</time>
      </trkpt>
      <trkpt lat="47.4471" lon="6.73032">
        <ele>504.3</ele>
        <time>2017-05-14T08:58:23.999Z</time>
      </trkpt>
      <trkpt lat="47.44712" lon="6.73037">
        <ele>504.1</ele>
        <time>2017-05-14T08:58:24.999Z</time>
      </trkpt>
      <trkpt lat="47.44714" lon="6.73041">
        <ele>504</ele>
        <time>2017-05-14T08:58:25.999Z</time>
      </trkpt>
      <trkpt lat="47.44716" lon="6.73046">
        <ele>503.7</ele>
        <time>2017-05-14T08:58:26.999Z</time>
      </trkpt>
      <trkpt lat="47.44718" lon="6.73051">
        <ele>503.4</ele>
        <time>2017-05-14T08:58:27.999Z</time>
      </trkpt>
      <trkpt lat="47.4472" lon="6.73055">
        <ele>503.1</ele>
        <time>2017-05-14T08:58:28.999Z</time>
      </trkpt>
      <trkpt lat="47.44721" lon="6.7306">
        <ele>502.7</ele>
        <time>2017-05-14T08:58:29.999Z</time>
      </trkpt>
      <trkpt lat="47.44723" lon="6.73067">
        <ele>502.4</ele>
        <time>2017-05-14T08:58:30.999Z</time>
      </trkpt>
      <trkpt lat="47.44725" lon="6.73072">
        <ele>502</ele>
        <time>2017-05-14T08:58:31.999Z</time>
      </trkpt>
      <trkpt lat="47.44727" lon="6.73077">
        <ele>501.7</ele>
        <time>2017-05-14T08:58:32.999Z</time>
      </trkpt>
      <trkpt lat="47.4473" lon="6.73084">
        <ele>501.5</ele>
        <time>2017-05-14T08:58:33.999Z</time>
      </trkpt>
      <trkpt lat="47.44732" lon="6.73089">
        <ele>501.1</ele>
        <time>2017-05-14T08:58:34.999Z</time>
      </trkpt>
      <trkpt lat="47.44734" lon="6.73094">
        <ele>500.7</ele>
        <time>2017-05-14T08:58:35.999Z</time>
      </trkpt>
      <trkpt lat="47.44736" lon="6.73098">
        <ele>500.2</ele>
        <time>2017-05-14T08:58:36.999Z</time>
      </trkpt>
      <trkpt lat="47.44738" lon="6.73102">
        <ele>499.5</ele>
        <time>2017-05-14T08:58:37.999Z</time>
      </trkpt>
      <trkpt lat="47.4474" lon="6.73107">
        <ele>499.1</ele>
        <time>2017-05-14T08:58:38.999Z</time>
      </trkpt>
      <trkpt lat="47.44741" lon="6.73112">
        <ele>498.7</ele>
        <time>2017-05-14T08:58:39.999Z</time>
      </trkpt>
      <trkpt lat="47.44741" lon="6.73116">
        <ele>498.2</ele>
        <time>2017-05-14T08:58:40.999Z</time>
      </trkpt>
      <trkpt lat="47.44743" lon="6.7312">
        <ele>497.6</ele>
        <time>2017-05-14T08:58:41.999Z</time>
      </trkpt>
      <trkpt lat="47.44744" lon="6.73124">
        <ele>497.1</ele>
        <time>2017-05-14T08:58:42.999Z</time>
      </trkpt>
      <trkpt lat="47.44745" lon="6.73129">
        <ele>496.5</ele>
        <time>2017-05-14T08:58:43.999Z</time>
      </trkpt>
      <trkpt lat="47.44746" lon="6.73131">
        <ele>496</ele>
        <time>2017-05-14T08:58:44.999Z</time>
      </trkpt>
      <trkpt lat="47.44745" lon="6.73137">
        <ele>495.6</ele>
        <time>2017-05-14T08:58:45.999Z</time>
      </trkpt>
      <trkpt lat="47.44746" lon="6.7314">
        <ele>495.2</ele>
        <time>2017-05-14T08:58:46.999Z</time>
      </trkpt>
      <trkpt lat="47.44747" lon="6.73144">
        <ele>495.1</ele>
        <time>2017-05-14T08:58:47.999Z</time>
      </trkpt>
      <trkpt lat="47.44747" lon="6.73148">
        <ele>494.9</ele>
        <time>2017-05-14T08:58:48.999Z</time>
      </trkpt>
      <trkpt lat="47.44749" lon="6.73153">
        <ele>494.9</ele>
        <time>2017-05-14T08:58:49.999Z</time>
      </trkpt>
      <trkpt lat="47.4475" lon="6.73157">
        <ele>495</ele>
        <time>2017-05-14T08:58:50.999Z</time>
      </trkpt>
      <trkpt lat="47.44752" lon="6.73161">
        <ele>495.2</ele>
        <time>2017-05-14T08:58:51.999Z</time>
      </trkpt>
      <trkpt lat="47.44754" lon="6.73164">
        <ele>495.4</ele>
        <time>2017-05-14T08:58:52.999Z</time>
      </trkpt>
      <trkpt lat="47.44755" lon="6.73168">
        <ele>495.6</ele>
        <time>2017-05-14T08:58:53.999Z</time>
      </trkpt>
      <trkpt lat="47.44757" lon="6.73171">
        <ele>495.8</ele>
        <time>2017-05-14T08:58:54.999Z</time>
      </trkpt>
      <trkpt lat="47.44761" lon="6.73182">
        <ele>496.3</ele>
        <time>2017-05-14T08:58:56.999Z</time>
      </trkpt>
      <trkpt lat="47.44762" lon="6.73186">
        <ele>496.5</ele>
        <time>2017-05-14T08:58:57.999Z</time>
      </trkpt>
      <trkpt lat="47.44763" lon="6.73189">
        <ele>496.6</ele>
        <time>2017-05-14T08:58:58.999Z</time>
      </trkpt>
      <trkpt lat="47.44765" lon="6.73192">
        <ele>496.8</ele>
        <time>2017-05-14T08:58:59.999Z</time>
      </trkpt>
      <trkpt lat="47.44767" lon="6.73195">
        <ele>496.9</ele>
        <time>2017-05-14T08:59:00.999Z</time>
      </trkpt>
      <trkpt lat="47.44769" lon="6.73197">
        <ele>497</ele>
        <time>2017-05-14T08:59:01.999Z</time>
      </trkpt>
      <trkpt lat="47.44771" lon="6.732">
        <ele>497.1</ele>
        <time>2017-05-14T08:59:02.999Z</time>
      </trkpt>
      <trkpt lat="47.44774" lon="6.73203">
        <ele>497.4</ele>
        <time>2017-05-14T08:59:03.999Z</time>
      </trkpt>
      <trkpt lat="47.44777" lon="6.73205">
        <ele>497.5</ele>
        <time>2017-05-14T08:59:04.999Z</time>
      </trkpt>
      <trkpt lat="47.4478" lon="6.73206">
        <ele>497.6</ele>
        <time>2017-05-14T08:59:05.999Z</time>
      </trkpt>
      <trkpt lat="47.44783" lon="6.73208">
        <ele>497.6</ele>
        <time>2017-05-14T08:59:06.999Z</time>
      </trkpt>
      <trkpt lat="47.44782" lon="6.73212">
        <ele>501.9</ele>
        <time>2017-05-14T08:59:24.999Z</time>
      </trkpt>
      <trkpt lat="47.4478" lon="6.73213">
        <ele>502.3</ele>
        <time>2017-05-14T08:59:25.999Z</time>
      </trkpt>
      <trkpt lat="47.44777" lon="6.73217">
        <ele>502.6</ele>
        <time>2017-05-14T08:59:26.999Z</time>
      </trkpt>
      <trkpt lat="47.44776" lon="6.73223">
        <ele>503</ele>
        <time>2017-05-14T08:59:27.999Z</time>
      </trkpt>
      <trkpt lat="47.44775" lon="6.73229">
        <ele>503.2</ele>
        <time>2017-05-14T08:59:28.999Z</time>
      </trkpt>
      <trkpt lat="47.44773" lon="6.73235">
        <ele>503.2</ele>
        <time>2017-05-14T08:59:29.999Z</time>
      </trkpt>
      <trkpt lat="47.44772" lon="6.7324">
        <ele>503.2</ele>
        <time>2017-05-14T08:59:30.999Z</time>
      </trkpt>
      <trkpt lat="47.4477" lon="6.73244">
        <ele>503.1</ele>
        <time>2017-05-14T08:59:31.999Z</time>
      </trkpt>
      <trkpt lat="47.44769" lon="6.73248">
        <ele>503</ele>
        <time>2017-05-14T08:59:32.999Z</time>
      </trkpt>
      <trkpt lat="47.44767" lon="6.73253">
        <ele>502.8</ele>
        <time>2017-05-14T08:59:33.999Z</time>
      </trkpt>
      <trkpt lat="47.44765" lon="6.73257">
        <ele>502.7</ele>
        <time>2017-05-14T08:59:34.999Z</time>
      </trkpt>
      <trkpt lat="47.44764" lon="6.73261">
        <ele>502.4</ele>
        <time>2017-05-14T08:59:35.999Z</time>
      </trkpt>
      <trkpt lat="47.44762" lon="6.73264">
        <ele>502.1</ele>
        <time>2017-05-14T08:59:36.999Z</time>
      </trkpt>
      <trkpt lat="47.44758" lon="6.73269">
        <ele>501.9</ele>
        <time>2017-05-14T08:59:37.999Z</time>
      </trkpt>
      <trkpt lat="47.44757" lon="6.73273">
        <ele>501.6</ele>
        <time>2017-05-14T08:59:38.999Z</time>
      </trkpt>
      <trkpt lat="47.44754" lon="6.73277">
        <ele>501.3</ele>
        <time>2017-05-14T08:59:39.999Z</time>
      </trkpt>
      <trkpt lat="47.44752" lon="6.73282">
        <ele>499.2</ele>
        <time>2017-05-14T08:59:40.999Z</time>
      </trkpt>
      <trkpt lat="47.44749" lon="6.73292">
        <ele>497.6</ele>
        <time>2017-05-14T08:59:41.999Z</time>
      </trkpt>
      <trkpt lat="47.44747" lon="6.73295">
        <ele>497.5</ele>
        <time>2017-05-14T08:59:42.999Z</time>
      </trkpt>
      <trkpt lat="47.44745" lon="6.73298">
        <ele>497.4</ele>
        <time>2017-05-14T08:59:43.999Z</time>
      </trkpt>
      <trkpt lat="47.44741" lon="6.73303">
        <ele>497.2</ele>
        <time>2017-05-14T08:59:44.999Z</time>
      </trkpt>
      <trkpt lat="47.44739" lon="6.73307">
        <ele>497.1</ele>
        <time>2017-05-14T08:59:45.999Z</time>
      </trkpt>
      <trkpt lat="47.44736" lon="6.73312">
        <ele>497.1</ele>
        <time>2017-05-14T08:59:46.999Z</time>
      </trkpt>
      <trkpt lat="47.44732" lon="6.73316">
        <ele>497</ele>
        <time>2017-05-14T08:59:47.999Z</time>
      </trkpt>
      <trkpt lat="47.44725" lon="6.73323">
        <ele>497</ele>
        <time>2017-05-14T08:59:48.999Z</time>
      </trkpt>
      <trkpt lat="47.44722" lon="6.73328">
        <ele>496.5</ele>
        <time>2017-05-14T08:59:49.999Z</time>
      </trkpt>
      <trkpt lat="47.4472" lon="6.73333">
        <ele>496.2</ele>
        <time>2017-05-14T08:59:50.999Z</time>
      </trkpt>
      <trkpt lat="47.44718" lon="6.73338">
        <ele>496.1</ele>
        <time>2017-05-14T08:59:51.999Z</time>
      </trkpt>
      <trkpt lat="47.44717" lon="6.73344">
        <ele>496.1</ele>
        <time>2017-05-14T08:59:53.999Z</time>
      </trkpt>
      <trkpt lat="47.44715" lon="6.73346">
        <ele>496.1</ele>
        <time>2017-05-14T08:59:54.999Z</time>
      </trkpt>
      <trkpt lat="47.44711" lon="6.7335">
        <ele>496</ele>
        <time>2017-05-14T08:59:56.999Z</time>
      </trkpt>
      <trkpt lat="47.44709" lon="6.73352">
        <ele>495.8</ele>
        <time>2017-05-14T08:59:57.999Z</time>
      </trkpt>
      <trkpt lat="47.44707" lon="6.73354">
        <ele>495.8</ele>
        <time>2017-05-14T08:59:58.999Z</time>
      </trkpt>
      <trkpt lat="47.44705" lon="6.73356">
        <ele>495.8</ele>
        <time>2017-05-14T08:59:59.999Z</time>
      </trkpt>
      <trkpt lat="47.44703" lon="6.73359">
        <ele>495.7</ele>
        <time>2017-05-14T09:00:00.999Z</time>
      </trkpt>
      <trkpt lat="47.447" lon="6.7336">
        <ele>495.6</ele>
        <time>2017-05-14T09:00:01.999Z</time>
      </trkpt>
      <trkpt lat="47.44698" lon="6.73362">
        <ele>495.6</ele>
        <time>2017-05-14T09:00:02.999Z</time>
      </trkpt>
      <trkpt lat="47.44694" lon="6.73361">
        <ele>495.3</ele>
        <time>2017-05-14T09:00:03.999Z</time>
      </trkpt>
      <trkpt lat="47.4469" lon="6.7336">
        <ele>491.1</ele>
        <time>2017-05-14T09:00:04.999Z</time>
      </trkpt>
      <trkpt lat="47.44688" lon="6.73363">
        <ele>490.7</ele>
        <time>2017-05-14T09:00:05.999Z</time>
      </trkpt>
      <trkpt lat="47.44687" lon="6.73367">
        <ele>490.5</ele>
        <time>2017-05-14T09:00:06.999Z</time>
      </trkpt>
      <trkpt lat="47.44686" lon="6.73371">
        <ele>490.3</ele>
        <time>2017-05-14T09:00:07.999Z</time>
      </trkpt>
      <trkpt lat="47.44684" lon="6.73373">
        <ele>490</ele>
        <time>2017-05-14T09:00:08.999Z</time>
      </trkpt>
      <trkpt lat="47.44681" lon="6.73376">
        <ele>489.5</ele>
        <time>2017-05-14T09:00:10.999Z</time>
      </trkpt>
      <trkpt lat="47.44679" lon="6.73376">
        <ele>489.2</ele>
        <time>2017-05-14T09:00:11.999Z</time>
      </trkpt>
      <trkpt lat="47.44675" lon="6.73375">
        <ele>488.9</ele>
        <time>2017-05-14T09:00:13.999Z</time>
      </trkpt>
      <trkpt lat="47.44674" lon="6.73376">
        <ele>488.9</ele>
        <time>2017-05-14T09:00:14.999Z</time>
      </trkpt>
      <trkpt lat="47.4467" lon="6.73375">
        <ele>488.6</ele>
        <time>2017-05-14T09:00:16.999Z</time>
      </trkpt>
      <trkpt lat="47.44668" lon="6.73375">
        <ele>488.5</ele>
        <time>2017-05-14T09:00:17.999Z</time>
      </trkpt>
      <trkpt lat="47.44665" lon="6.73375">
        <ele>488.7</ele>
        <time>2017-05-14T09:00:20.999Z</time>
      </trkpt>
      <trkpt lat="47.44663" lon="6.73376">
        <ele>488.7</ele>
        <time>2017-05-14T09:00:21.999Z</time>
      </trkpt>
      <trkpt lat="47.4466" lon="6.73377">
        <ele>488.8</ele>
        <time>2017-05-14T09:00:25.999Z</time>
      </trkpt>
      <trkpt lat="47.44658" lon="6.73378">
        <ele>488.7</ele>
        <time>2017-05-14T09:00:26.999Z</time>
      </trkpt>
      <trkpt lat="47.44654" lon="6.73381">
        <ele>488.5</ele>
        <time>2017-05-14T09:00:28.999Z</time>
      </trkpt>
      <trkpt lat="47.44651" lon="6.73382">
        <ele>488.3</ele>
        <time>2017-05-14T09:00:29.999Z</time>
      </trkpt>
      <trkpt lat="47.44648" lon="6.73382">
        <ele>488.1</ele>
        <time>2017-05-14T09:00:31.999Z</time>
      </trkpt>
      <trkpt lat="47.44646" lon="6.73383">
        <ele>488</ele>
        <time>2017-05-14T09:00:32.999Z</time>
      </trkpt>
      <trkpt lat="47.44642" lon="6.73383">
        <ele>487.8</ele>
        <time>2017-05-14T09:00:34.999Z</time>
      </trkpt>
      <trkpt lat="47.44639" lon="6.73383">
        <ele>487.7</ele>
        <time>2017-05-14T09:00:35.999Z</time>
      </trkpt>
      <trkpt lat="47.44636" lon="6.73381">
        <ele>487.8</ele>
        <time>2017-05-14T09:00:37.999Z</time>
      </trkpt>
      <trkpt lat="47.44634" lon="6.7338">
        <ele>487.8</ele>
        <time>2017-05-14T09:00:38.999Z</time>
      </trkpt>
      <trkpt lat="47.44633" lon="6.73385">
        <ele>487.8</ele>
        <time>2017-05-14T09:00:41.999Z</time>
      </trkpt>
      <trkpt lat="47.44634" lon="6.7339">
        <ele>487.7</ele>
        <time>2017-05-14T09:00:42.999Z</time>
      </trkpt>
      <trkpt lat="47.44631" lon="6.73394">
        <ele>487.3</ele>
        <time>2017-05-14T09:00:44.999Z</time>
      </trkpt>
      <trkpt lat="47.4463" lon="6.73395">
        <ele>487.1</ele>
        <time>2017-05-14T09:00:45.999Z</time>
      </trkpt>
      <trkpt lat="47.44626" lon="6.73396">
        <ele>486.9</ele>
        <time>2017-05-14T09:00:46.999Z</time>
      </trkpt>
      <trkpt lat="47.44624" lon="6.73397">
        <ele>486.8</ele>
        <time>2017-05-14T09:00:47.999Z</time>
      </trkpt>
      <trkpt lat="47.44621" lon="6.73399">
        <ele>486.6</ele>
        <time>2017-05-14T09:00:48.999Z</time>
      </trkpt>
      <trkpt lat="47.44619" lon="6.734">
        <ele>486.5</ele>
        <time>2017-05-14T09:00:49.999Z</time>
      </trkpt>
      <trkpt lat="47.44616" lon="6.73402">
        <ele>486.3</ele>
        <time>2017-05-14T09:00:50.999Z</time>
      </trkpt>
      <trkpt lat="47.44612" lon="6.73404">
        <ele>486.1</ele>
        <time>2017-05-14T09:00:51.999Z</time>
      </trkpt>
      <trkpt lat="47.44609" lon="6.73405">
        <ele>485.9</ele>
        <time>2017-05-14T09:00:52.999Z</time>
      </trkpt>
      <trkpt lat="47.44606" lon="6.73405">
        <ele>485.7</ele>
        <time>2017-05-14T09:00:53.999Z</time>
      </trkpt>
      <trkpt lat="47.44601" lon="6.73403">
        <ele>485.5</ele>
        <time>2017-05-14T09:00:54.999Z</time>
      </trkpt>
      <trkpt lat="47.44598" lon="6.73404">
        <ele>485.2</ele>
        <time>2017-05-14T09:00:55.999Z</time>
      </trkpt>
      <trkpt lat="47.44595" lon="6.73405">
        <ele>485</ele>
        <time>2017-05-14T09:00:56.999Z</time>
      </trkpt>
      <trkpt lat="47.44593" lon="6.73405">
        <ele>484.6</ele>
        <time>2017-05-14T09:00:57.999Z</time>
      </trkpt>
      <trkpt lat="47.44589" lon="6.73404">
        <ele>484.4</ele>
        <time>2017-05-14T09:00:58.999Z</time>
      </trkpt>
      <trkpt lat="47.44586" lon="6.73403">
        <ele>484.1</ele>
        <time>2017-05-14T09:00:59.999Z</time>
      </trkpt>
      <trkpt lat="47.44583" lon="6.73402">
        <ele>483.8</ele>
        <time>2017-05-14T09:01:00.999Z</time>
      </trkpt>
      <trkpt lat="47.44579" lon="6.73402">
        <ele>483.5</ele>
        <time>2017-05-14T09:01:01.999Z</time>
      </trkpt>
      <trkpt lat="47.44576" lon="6.73403">
        <ele>483.5</ele>
        <time>2017-05-14T09:01:02.999Z</time>
      </trkpt>
      <trkpt lat="47.44573" lon="6.73407">
        <ele>483.4</ele>
        <time>2017-05-14T09:01:03.999Z</time>
      </trkpt>
      <trkpt lat="47.44571" lon="6.73411">
        <ele>483.3</ele>
        <time>2017-05-14T09:01:04.999Z</time>
      </trkpt>
      <trkpt lat="47.44568" lon="6.73419">
        <ele>483.4</ele>
        <time>2017-05-14T09:01:05.999Z</time>
      </trkpt>
      <trkpt lat="47.44565" lon="6.73425">
        <ele>483.4</ele>
        <time>2017-05-14T09:01:06.999Z</time>
      </trkpt>
      <trkpt lat="47.44563" lon="6.7343">
        <ele>483.3</ele>
        <time>2017-05-14T09:01:07.999Z</time>
      </trkpt>
      <trkpt lat="47.44559" lon="6.73437">
        <ele>483.1</ele>
        <time>2017-05-14T09:01:08.999Z</time>
      </trkpt>
      <trkpt lat="47.44559" lon="6.73443">
        <ele>482.9</ele>
        <time>2017-05-14T09:01:09.999Z</time>
      </trkpt>
      <trkpt lat="47.44559" lon="6.73448">
        <ele>482.6</ele>
        <time>2017-05-14T09:01:10.999Z</time>
      </trkpt>
      <trkpt lat="47.4456" lon="6.73456">
        <ele>482.3</ele>
        <time>2017-05-14T09:01:11.999Z</time>
      </trkpt>
      <trkpt lat="47.44559" lon="6.73461">
        <ele>482</ele>
        <time>2017-05-14T09:01:12.999Z</time>
      </trkpt>
      <trkpt lat="47.44558" lon="6.73475">
        <ele>481.7</ele>
        <time>2017-05-14T09:01:13.999Z</time>
      </trkpt>
      <trkpt lat="47.44552" lon="6.73483">
        <ele>481.5</ele>
        <time>2017-05-14T09:01:14.999Z</time>
      </trkpt>
      <trkpt lat="47.44547" lon="6.7349">
        <ele>479.8</ele>
        <time>2017-05-14T09:01:15.999Z</time>
      </trkpt>
      <trkpt lat="47.44544" lon="6.73498">
        <ele>479.6</ele>
        <time>2017-05-14T09:01:16.999Z</time>
      </trkpt>
      <trkpt lat="47.4454" lon="6.73505">
        <ele>479.5</ele>
        <time>2017-05-14T09:01:17.999Z</time>
      </trkpt>
      <trkpt lat="47.44538" lon="6.73505">
        <ele>479.4</ele>
        <time>2017-05-14T09:01:18.999Z</time>
      </trkpt>
      <trkpt lat="47.44534" lon="6.73503">
        <ele>479.4</ele>
        <time>2017-05-14T09:01:19.999Z</time>
      </trkpt>
      <trkpt lat="47.44535" lon="6.73507">
        <ele>474.8</ele>
        <time>2017-05-14T09:02:04.999Z</time>
      </trkpt>
      <trkpt lat="47.44536" lon="6.73509">
        <ele>474.6</ele>
        <time>2017-05-14T09:02:05.999Z</time>
      </trkpt>
      <trkpt lat="47.44537" lon="6.73512">
        <ele>473.9</ele>
        <time>2017-05-14T09:02:07.999Z</time>
      </trkpt>
      <trkpt lat="47.44539" lon="6.73513">
        <ele>473.6</ele>
        <time>2017-05-14T09:02:08.999Z</time>
      </trkpt>
      <trkpt lat="47.4454" lon="6.73516">
        <ele>473</ele>
        <time>2017-05-14T09:02:10.999Z</time>
      </trkpt>
      <trkpt lat="47.44544" lon="6.73518">
        <ele>472.7</ele>
        <time>2017-05-14T09:02:11.999Z</time>
      </trkpt>
      <trkpt lat="47.44548" lon="6.73521">
        <ele>471.9</ele>
        <time>2017-05-14T09:02:13.999Z</time>
      </trkpt>
      <trkpt lat="47.4455" lon="6.73524">
        <ele>471.2</ele>
        <time>2017-05-14T09:02:14.999Z</time>
      </trkpt>
      <trkpt lat="47.44552" lon="6.73527">
        <ele>470.7</ele>
        <time>2017-05-14T09:02:15.999Z</time>
      </trkpt>
      <trkpt lat="47.44553" lon="6.7353">
        <ele>470.2</ele>
        <time>2017-05-14T09:02:16.999Z</time>
      </trkpt>
      <trkpt lat="47.44556" lon="6.73534">
        <ele>469.9</ele>
        <time>2017-05-14T09:02:17.999Z</time>
      </trkpt>
      <trkpt lat="47.44561" lon="6.73544">
        <ele>469.4</ele>
        <time>2017-05-14T09:02:18.999Z</time>
      </trkpt>
      <trkpt lat="47.44563" lon="6.7355">
        <ele>469.1</ele>
        <time>2017-05-14T09:02:19.999Z</time>
      </trkpt>
      <trkpt lat="47.44566" lon="6.73555">
        <ele>468.8</ele>
        <time>2017-05-14T09:02:20.999Z</time>
      </trkpt>
      <trkpt lat="47.44568" lon="6.7356">
        <ele>468.5</ele>
        <time>2017-05-14T09:02:21.999Z</time>
      </trkpt>
      <trkpt lat="47.44571" lon="6.73563">
        <ele>468.1</ele>
        <time>2017-05-14T09:02:22.999Z</time>
      </trkpt>
      <trkpt lat="47.44573" lon="6.73566">
        <ele>467.7</ele>
        <time>2017-05-14T09:02:23.999Z</time>
      </trkpt>
      <trkpt lat="47.44577" lon="6.73569">
        <ele>467.2</ele>
        <time>2017-05-14T09:02:24.999Z</time>
      </trkpt>
      <trkpt lat="47.4458" lon="6.73574">
        <ele>466.7</ele>
        <time>2017-05-14T09:02:25.999Z</time>
      </trkpt>
      <trkpt lat="47.44584" lon="6.73578">
        <ele>466.1</ele>
        <time>2017-05-14T09:02:26.999Z</time>
      </trkpt>
      <trkpt lat="47.44587" lon="6.73582">
        <ele>465.6</ele>
        <time>2017-05-14T09:02:27.999Z</time>
      </trkpt>
      <trkpt lat="47.44592" lon="6.73586">
        <ele>464.9</ele>
        <time>2017-05-14T09:02:28.999Z</time>
      </trkpt>
      <trkpt lat="47.44596" lon="6.7359">
        <ele>457.2</ele>
        <time>2017-05-14T09:02:29.999Z</time>
      </trkpt>
      <trkpt lat="47.44599" lon="6.73594">
        <ele>456.4</ele>
        <time>2017-05-14T09:02:30.999Z</time>
      </trkpt>
      <trkpt lat="47.44602" lon="6.73593">
        <ele>455.6</ele>
        <time>2017-05-14T09:02:31.999Z</time>
      </trkpt>
      <trkpt lat="47.44605" lon="6.73594">
        <ele>454.7</ele>
        <time>2017-05-14T09:02:32.999Z</time>
      </trkpt>
      <trkpt lat="47.44607" lon="6.73602">
        <ele>453.9</ele>
        <time>2017-05-14T09:02:33.999Z</time>
      </trkpt>
      <trkpt lat="47.44612" lon="6.73611">
        <ele>447</ele>
        <time>2017-05-14T09:02:34.999Z</time>
      </trkpt>
      <trkpt lat="47.44616" lon="6.73617">
        <ele>446.4</ele>
        <time>2017-05-14T09:02:35.999Z</time>
      </trkpt>
      <trkpt lat="47.44619" lon="6.73624">
        <ele>445.8</ele>
        <time>2017-05-14T09:02:36.999Z</time>
      </trkpt>
      <trkpt lat="47.44625" lon="6.73631">
        <ele>445.1</ele>
        <time>2017-05-14T09:02:37.999Z</time>
      </trkpt>
      <trkpt lat="47.44627" lon="6.73641">
        <ele>444.5</ele>
        <time>2017-05-14T09:02:38.999Z</time>
      </trkpt>
      <trkpt lat="47.44629" lon="6.73651">
        <ele>443.9</ele>
        <time>2017-05-14T09:02:39.999Z</time>
      </trkpt>
      <trkpt lat="47.44631" lon="6.73659">
        <ele>443.5</ele>
        <time>2017-05-14T09:02:40.999Z</time>
      </trkpt>
      <trkpt lat="47.44637" lon="6.73675">
        <ele>443.1</ele>
        <time>2017-05-14T09:02:41.999Z</time>
      </trkpt>
      <trkpt lat="47.44637" lon="6.73679">
        <ele>443.7</ele>
        <time>2017-05-14T09:02:56.999Z</time>
      </trkpt>
      <trkpt lat="47.44638" lon="6.73682">
        <ele>444.1</ele>
        <time>2017-05-14T09:02:57.999Z</time>
      </trkpt>
      <trkpt lat="47.44639" lon="6.73683">
        <ele>447.8</ele>
        <time>2017-05-14T09:03:04.999Z</time>
      </trkpt>
      <trkpt lat="47.44641" lon="6.73688">
        <ele>448.5</ele>
        <time>2017-05-14T09:03:05.999Z</time>
      </trkpt>
      <trkpt lat="47.44643" lon="6.73692">
        <ele>449</ele>
        <time>2017-05-14T09:03:06.999Z</time>
      </trkpt>
      <trkpt lat="47.44644" lon="6.73694">
        <ele>449.4</ele>
        <time>2017-05-14T09:03:07.999Z</time>
      </trkpt>
      <trkpt lat="47.44647" lon="6.73699">
        <ele>449.9</ele>
        <time>2017-05-14T09:03:08.999Z</time>
      </trkpt>
      <trkpt lat="47.44649" lon="6.73704">
        <ele>450.5</ele>
        <time>2017-05-14T09:03:09.999Z</time>
      </trkpt>
      <trkpt lat="47.44651" lon="6.73709">
        <ele>450.8</ele>
        <time>2017-05-14T09:03:10.999Z</time>
      </trkpt>
      <trkpt lat="47.44654" lon="6.73716">
        <ele>451</ele>
        <time>2017-05-14T09:03:11.999Z</time>
      </trkpt>
      <trkpt lat="47.44658" lon="6.73724">
        <ele>451.3</ele>
        <time>2017-05-14T09:03:12.999Z</time>
      </trkpt>
      <trkpt lat="47.44664" lon="6.73738">
        <ele>451.5</ele>
        <time>2017-05-14T09:03:13.999Z</time>
      </trkpt>
      <trkpt lat="47.44666" lon="6.73748">
        <ele>451.8</ele>
        <time>2017-05-14T09:03:14.999Z</time>
      </trkpt>
      <trkpt lat="47.44668" lon="6.73756">
        <ele>452</ele>
        <time>2017-05-14T09:03:15.999Z</time>
      </trkpt>
      <trkpt lat="47.44669" lon="6.73761">
        <ele>452.3</ele>
        <time>2017-05-14T09:03:16.999Z</time>
      </trkpt>
      <trkpt lat="47.4467" lon="6.73766">
        <ele>452.6</ele>
        <time>2017-05-14T09:03:17.999Z</time>
      </trkpt>
      <trkpt lat="47.44672" lon="6.73777">
        <ele>452.9</ele>
        <time>2017-05-14T09:03:18.999Z</time>
      </trkpt>
      <trkpt lat="47.4467" lon="6.73784">
        <ele>452.9</ele>
        <time>2017-05-14T09:03:19.999Z</time>
      </trkpt>
      <trkpt lat="47.44671" lon="6.7379">
        <ele>453</ele>
        <time>2017-05-14T09:03:20.999Z</time>
      </trkpt>
      <trkpt lat="47.44673" lon="6.73791">
        <ele>453</ele>
        <time>2017-05-14T09:03:21.999Z</time>
      </trkpt>
      <trkpt lat="47.44676" lon="6.73794">
        <ele>452.9</ele>
        <time>2017-05-14T09:03:23.999Z</time>
      </trkpt>
      <trkpt lat="47.44678" lon="6.73797">
        <ele>452.8</ele>
        <time>2017-05-14T09:03:24.999Z</time>
      </trkpt>
      <trkpt lat="47.4468" lon="6.73799">
        <ele>452.5</ele>
        <time>2017-05-14T09:03:25.999Z</time>
      </trkpt>
      <trkpt lat="47.44681" lon="6.73802">
        <ele>452.5</ele>
        <time>2017-05-14T09:03:26.999Z</time>
      </trkpt>
      <trkpt lat="47.44683" lon="6.73806">
        <ele>452.4</ele>
        <time>2017-05-14T09:03:27.999Z</time>
      </trkpt>
      <trkpt lat="47.44684" lon="6.73813">
        <ele>451.6</ele>
        <time>2017-05-14T09:03:28.999Z</time>
      </trkpt>
      <trkpt lat="47.44686" lon="6.7382">
        <ele>451.7</ele>
        <time>2017-05-14T09:03:29.999Z</time>
      </trkpt>
      <trkpt lat="47.44687" lon="6.73824">
        <ele>451.8</ele>
        <time>2017-05-14T09:03:30.999Z</time>
      </trkpt>
      <trkpt lat="47.4469" lon="6.73832">
        <ele>452</ele>
        <time>2017-05-14T09:03:31.999Z</time>
      </trkpt>
      <trkpt lat="47.44693" lon="6.73839">
        <ele>452.1</ele>
        <time>2017-05-14T09:03:32.999Z</time>
      </trkpt>
      <trkpt lat="47.44696" lon="6.73849">
        <ele>452.2</ele>
        <time>2017-05-14T09:03:33.999Z</time>
      </trkpt>
      <trkpt lat="47.44695" lon="6.73856">
        <ele>452.2</ele>
        <time>2017-05-14T09:03:34.999Z</time>
      </trkpt>
      <trkpt lat="47.44694" lon="6.73866">
        <ele>452.3</ele>
        <time>2017-05-14T09:03:35.999Z</time>
      </trkpt>
      <trkpt lat="47.44691" lon="6.73875">
        <ele>452</ele>
        <time>2017-05-14T09:03:36.999Z</time>
      </trkpt>
      <trkpt lat="47.44687" lon="6.73886">
        <ele>451.4</ele>
        <time>2017-05-14T09:03:37.999Z</time>
      </trkpt>
      <trkpt lat="47.44683" lon="6.73894">
        <ele>451.2</ele>
        <time>2017-05-14T09:03:38.999Z</time>
      </trkpt>
      <trkpt lat="47.44679" lon="6.73903">
        <ele>450.8</ele>
        <time>2017-05-14T09:03:39.999Z</time>
      </trkpt>
      <trkpt lat="47.44679" lon="6.73912">
        <ele>450.4</ele>
        <time>2017-05-14T09:03:40.999Z</time>
      </trkpt>
      <trkpt lat="47.44677" lon="6.73923">
        <ele>450.1</ele>
        <time>2017-05-14T09:03:41.999Z</time>
      </trkpt>
      <trkpt lat="47.44675" lon="6.73933">
        <ele>449.9</ele>
        <time>2017-05-14T09:03:42.999Z</time>
      </trkpt>
      <trkpt lat="47.44673" lon="6.73938">
        <ele>449.7</ele>
        <time>2017-05-14T09:03:43.999Z</time>
      </trkpt>
      <trkpt lat="47.44671" lon="6.73948">
        <ele>449.3</ele>
        <time>2017-05-14T09:03:44.999Z</time>
      </trkpt>
      <trkpt lat="47.44669" lon="6.73953">
        <ele>449</ele>
        <time>2017-05-14T09:03:45.999Z</time>
      </trkpt>
      <trkpt lat="47.44667" lon="6.73957">
        <ele>448.8</ele>
        <time>2017-05-14T09:03:46.999Z</time>
      </trkpt>
      <trkpt lat="47.44668" lon="6.73962">
        <ele>448.6</ele>
        <time>2017-05-14T09:03:47.999Z</time>
      </trkpt>
      <trkpt lat="47.44669" lon="6.73967">
        <ele>448.6</ele>
        <time>2017-05-14T09:03:48.999Z</time>
      </trkpt>
      <trkpt lat="47.44671" lon="6.73975">
        <ele>448.4</ele>
        <time>2017-05-14T09:03:49.999Z</time>
      </trkpt>
      <trkpt lat="47.44673" lon="6.7398">
        <ele>448.3</ele>
        <time>2017-05-14T09:03:50.999Z</time>
      </trkpt>
      <trkpt lat="47.44674" lon="6.73985">
        <ele>448.3</ele>
        <time>2017-05-14T09:03:51.999Z</time>
      </trkpt>
      <trkpt lat="47.44676" lon="6.73989">
        <ele>448.2</ele>
        <time>2017-05-14T09:03:52.999Z</time>
      </trkpt>
      <trkpt lat="47.44676" lon="6.73991">
        <ele>448.1</ele>
        <time>2017-05-14T09:03:53.999Z</time>
      </trkpt>
      <trkpt lat="47.44678" lon="6.73993">
        <ele>447.9</ele>
        <time>2017-05-14T09:03:54.999Z</time>
      </trkpt>
      <trkpt lat="47.44679" lon="6.73996">
        <ele>447.8</ele>
        <time>2017-05-14T09:03:55.999Z</time>
      </trkpt>
      <trkpt lat="47.4468" lon="6.74">
        <ele>447.6</ele>
        <time>2017-05-14T09:03:56.999Z</time>
      </trkpt>
      <trkpt lat="47.44681" lon="6.74004">
        <ele>447.4</ele>
        <time>2017-05-14T09:03:57.999Z</time>
      </trkpt>
      <trkpt lat="47.44682" lon="6.74009">
        <ele>447.2</ele>
        <time>2017-05-14T09:03:58.999Z</time>
      </trkpt>
      <trkpt lat="47.44684" lon="6.74013">
        <ele>446.9</ele>
        <time>2017-05-14T09:03:59.999Z</time>
      </trkpt>
      <trkpt lat="47.44684" lon="6.74016">
        <ele>446.4</ele>
        <time>2017-05-14T09:04:01.999Z</time>
      </trkpt>
      <trkpt lat="47.44685" lon="6.74019">
        <ele>446.1</ele>
        <time>2017-05-14T09:04:02.999Z</time>
      </trkpt>
      <trkpt lat="47.44686" lon="6.74025">
        <ele>444.6</ele>
        <time>2017-05-14T09:04:07.999Z</time>
      </trkpt>
      <trkpt lat="47.44687" lon="6.74028">
        <ele>444.3</ele>
        <time>2017-05-14T09:04:08.999Z</time>
      </trkpt>
      <trkpt lat="47.44686" lon="6.74033">
        <ele>443.9</ele>
        <time>2017-05-14T09:04:09.999Z</time>
      </trkpt>
      <trkpt lat="47.44686" lon="6.74047">
        <ele>443.6</ele>
        <time>2017-05-14T09:04:10.999Z</time>
      </trkpt>
      <trkpt lat="47.44687" lon="6.74055">
        <ele>443.1</ele>
        <time>2017-05-14T09:04:11.999Z</time>
      </trkpt>
      <trkpt lat="47.44689" lon="6.7406">
        <ele>442.6</ele>
        <time>2017-05-14T09:04:12.999Z</time>
      </trkpt>
      <trkpt lat="47.4469" lon="6.74066">
        <ele>442</ele>
        <time>2017-05-14T09:04:13.999Z</time>
      </trkpt>
      <trkpt lat="47.44691" lon="6.7407">
        <ele>441.3</ele>
        <time>2017-05-14T09:04:14.999Z</time>
      </trkpt>
      <trkpt lat="47.44691" lon="6.74074">
        <ele>440.8</ele>
        <time>2017-05-14T09:04:15.999Z</time>
      </trkpt>
      <trkpt lat="47.44693" lon="6.74083">
        <ele>440.2</ele>
        <time>2017-05-14T09:04:16.999Z</time>
      </trkpt>
      <trkpt lat="47.44694" lon="6.74087">
        <ele>439.5</ele>
        <time>2017-05-14T09:04:17.999Z</time>
      </trkpt>
      <trkpt lat="47.44695" lon="6.74091">
        <ele>438.9</ele>
        <time>2017-05-14T09:04:18.999Z</time>
      </trkpt>
      <trkpt lat="47.44697" lon="6.74095">
        <ele>438.3</ele>
        <time>2017-05-14T09:04:19.999Z</time>
      </trkpt>
      <trkpt lat="47.44701" lon="6.741">
        <ele>437.7</ele>
        <time>2017-05-14T09:04:20.999Z</time>
      </trkpt>
      <trkpt lat="47.44703" lon="6.74104">
        <ele>437.1</ele>
        <time>2017-05-14T09:04:21.999Z</time>
      </trkpt>
      <trkpt lat="47.44708" lon="6.74112">
        <ele>436.4</ele>
        <time>2017-05-14T09:04:22.999Z</time>
      </trkpt>
      <trkpt lat="47.4471" lon="6.74118">
        <ele>435.6</ele>
        <time>2017-05-14T09:04:23.999Z</time>
      </trkpt>
      <trkpt lat="47.44711" lon="6.74122">
        <ele>435</ele>
        <time>2017-05-14T09:04:24.999Z</time>
      </trkpt>
      <trkpt lat="47.44712" lon="6.74129">
        <ele>434.3</ele>
        <time>2017-05-14T09:04:25.999Z</time>
      </trkpt>
      <trkpt lat="47.44714" lon="6.74137">
        <ele>433.7</ele>
        <time>2017-05-14T09:04:26.999Z</time>
      </trkpt>
      <trkpt lat="47.44717" lon="6.7414">
        <ele>430.3</ele>
        <time>2017-05-14T09:04:31.999Z</time>
      </trkpt>
      <trkpt lat="47.44717" lon="6.74141">
        <ele>429.8</ele>
        <time>2017-05-14T09:04:32.999Z</time>
      </trkpt>
      <trkpt lat="47.44719" lon="6.74145">
        <ele>428</ele>
        <time>2017-05-14T09:04:35.999Z</time>
      </trkpt>
      <trkpt lat="47.4472" lon="6.74147">
        <ele>427.6</ele>
        <time>2017-05-14T09:04:36.999Z</time>
      </trkpt>
      <trkpt lat="47.44721" lon="6.74153">
        <ele>426.1</ele>
        <time>2017-05-14T09:04:39.999Z</time>
      </trkpt>
      <trkpt lat="47.44721" lon="6.74156">
        <ele>425.6</ele>
        <time>2017-05-14T09:04:40.999Z</time>
      </trkpt>
      <trkpt lat="47.44723" lon="6.74162">
        <ele>424.7</ele>
        <time>2017-05-14T09:04:42.999Z</time>
      </trkpt>
      <trkpt lat="47.44724" lon="6.74168">
        <ele>424.2</ele>
        <time>2017-05-14T09:04:43.999Z</time>
      </trkpt>
      <trkpt lat="47.44725" lon="6.74172">
        <ele>422.9</ele>
        <time>2017-05-14T09:04:45.999Z</time>
      </trkpt>
      <trkpt lat="47.44727" lon="6.74174">
        <ele>422.4</ele>
        <time>2017-05-14T09:04:46.999Z</time>
      </trkpt>
      <trkpt lat="47.44727" lon="6.74175">
        <ele>421.8</ele>
        <time>2017-05-14T09:04:47.999Z</time>
      </trkpt>
      <trkpt lat="47.44731" lon="6.74177">
        <ele>421.2</ele>
        <time>2017-05-14T09:04:48.999Z</time>
      </trkpt>
      <trkpt lat="47.44732" lon="6.74181">
        <ele>419.8</ele>
        <time>2017-05-14T09:04:50.999Z</time>
      </trkpt>
      <trkpt lat="47.44733" lon="6.74183">
        <ele>419.1</ele>
        <time>2017-05-14T09:04:51.999Z</time>
      </trkpt>
      <trkpt lat="47.44736" lon="6.74189">
        <ele>418.6</ele>
        <time>2017-05-14T09:04:52.999Z</time>
      </trkpt>
      <trkpt lat="47.4474" lon="6.74195">
        <ele>418.2</ele>
        <time>2017-05-14T09:04:53.999Z</time>
      </trkpt>
      <trkpt lat="47.44741" lon="6.74199">
        <ele>417.8</ele>
        <time>2017-05-14T09:04:54.999Z</time>
      </trkpt>
      <trkpt lat="47.44742" lon="6.74204">
        <ele>417.5</ele>
        <time>2017-05-14T09:04:55.999Z</time>
      </trkpt>
      <trkpt lat="47.44743" lon="6.74207">
        <ele>417.2</ele>
        <time>2017-05-14T09:04:56.999Z</time>
      </trkpt>
      <trkpt lat="47.44744" lon="6.74215">
        <ele>416.8</ele>
        <time>2017-05-14T09:04:57.999Z</time>
      </trkpt>
      <trkpt lat="47.44747" lon="6.7422">
        <ele>416.4</ele>
        <time>2017-05-14T09:04:58.999Z</time>
      </trkpt>
      <trkpt lat="47.44748" lon="6.74223">
        <ele>415.9</ele>
        <time>2017-05-14T09:04:59.999Z</time>
      </trkpt>
      <trkpt lat="47.44751" lon="6.74228">
        <ele>415.5</ele>
        <time>2017-05-14T09:05:00.999Z</time>
      </trkpt>
      <trkpt lat="47.44754" lon="6.74233">
        <ele>414.5</ele>
        <time>2017-05-14T09:05:02.999Z</time>
      </trkpt>
      <trkpt lat="47.44755" lon="6.74237">
        <ele>414</ele>
        <time>2017-05-14T09:05:03.999Z</time>
      </trkpt>
      <trkpt lat="47.44755" lon="6.7424">
        <ele>413.4</ele>
        <time>2017-05-14T09:05:04.999Z</time>
      </trkpt>
      <trkpt lat="47.44757" lon="6.74243">
        <ele>413</ele>
        <time>2017-05-14T09:05:05.999Z</time>
      </trkpt>
      <trkpt lat="47.44759" lon="6.74247">
        <ele>412.6</ele>
        <time>2017-05-14T09:05:06.999Z</time>
      </trkpt>
      <trkpt lat="47.44762" lon="6.74254">
        <ele>412.1</ele>
        <time>2017-05-14T09:05:07.999Z</time>
      </trkpt>
      <trkpt lat="47.44763" lon="6.74256">
        <ele>411.5</ele>
        <time>2017-05-14T09:05:08.999Z</time>
      </trkpt>
      <trkpt lat="47.44767" lon="6.74261">
        <ele>411</ele>
        <time>2017-05-14T09:05:09.999Z</time>
      </trkpt>
      <trkpt lat="47.44769" lon="6.74264">
        <ele>410.4</ele>
        <time>2017-05-14T09:05:10.999Z</time>
      </trkpt>
      <trkpt lat="47.4477" lon="6.74267">
        <ele>409.8</ele>
        <time>2017-05-14T09:05:11.999Z</time>
      </trkpt>
      <trkpt lat="47.44773" lon="6.74271">
        <ele>408.8</ele>
        <time>2017-05-14T09:05:13.999Z</time>
      </trkpt>
      <trkpt lat="47.44774" lon="6.74273">
        <ele>408.4</ele>
        <time>2017-05-14T09:05:14.999Z</time>
      </trkpt>
      <trkpt lat="47.44777" lon="6.74277">
        <ele>407.4</ele>
        <time>2017-05-14T09:05:16.999Z</time>
      </trkpt>
      <trkpt lat="47.44778" lon="6.7428">
        <ele>407</ele>
        <time>2017-05-14T09:05:17.999Z</time>
      </trkpt>
      <trkpt lat="47.44779" lon="6.74281">
        <ele>406.6</ele>
        <time>2017-05-14T09:05:18.999Z</time>
      </trkpt>
      <trkpt lat="47.44781" lon="6.74287">
        <ele>406.4</ele>
        <time>2017-05-14T09:05:19.999Z</time>
      </trkpt>
      <trkpt lat="47.44784" lon="6.74288">
        <ele>405.9</ele>
        <time>2017-05-14T09:05:21.999Z</time>
      </trkpt>
      <trkpt lat="47.44788" lon="6.7429">
        <ele>405.7</ele>
        <time>2017-05-14T09:05:22.999Z</time>
      </trkpt>
      <trkpt lat="47.44788" lon="6.74296">
        <ele>405.2</ele>
        <time>2017-05-14T09:05:25.999Z</time>
      </trkpt>
      <trkpt lat="47.44789" lon="6.74299">
        <ele>405</ele>
        <time>2017-05-14T09:05:26.999Z</time>
      </trkpt>
      <trkpt lat="47.44791" lon="6.74301">
        <ele>404.9</ele>
        <time>2017-05-14T09:05:27.999Z</time>
      </trkpt>
      <trkpt lat="47.44792" lon="6.74305">
        <ele>404.9</ele>
        <time>2017-05-14T09:05:28.999Z</time>
      </trkpt>
      <trkpt lat="47.44794" lon="6.74309">
        <ele>404.9</ele>
        <time>2017-05-14T09:05:29.999Z</time>
      </trkpt>
      <trkpt lat="47.44795" lon="6.74313">
        <ele>404.9</ele>
        <time>2017-05-14T09:05:30.999Z</time>
      </trkpt>
      <trkpt lat="47.44797" lon="6.74318">
        <ele>404.8</ele>
        <time>2017-05-14T09:05:31.999Z</time>
      </trkpt>
      <trkpt lat="47.44799" lon="6.74321">
        <ele>404.7</ele>
        <time>2017-05-14T09:05:32.999Z</time>
      </trkpt>
      <trkpt lat="47.448" lon="6.74325">
        <ele>404.5</ele>
        <time>2017-05-14T09:05:33.999Z</time>
      </trkpt>
      <trkpt lat="47.44803" lon="6.74329">
        <ele>404.5</ele>
        <time>2017-05-14T09:05:34.999Z</time>
      </trkpt>
      <trkpt lat="47.44805" lon="6.74332">
        <ele>404.5</ele>
        <time>2017-05-14T09:05:35.999Z</time>
      </trkpt>
      <trkpt lat="47.44807" lon="6.74337">
        <ele>404.5</ele>
        <time>2017-05-14T09:05:36.999Z</time>
      </trkpt>
      <trkpt lat="47.44811" lon="6.74342">
        <ele>404.4</ele>
        <time>2017-05-14T09:05:37.999Z</time>
      </trkpt>
      <trkpt lat="47.44813" lon="6.74346">
        <ele>404.4</ele>
        <time>2017-05-14T09:05:38.999Z</time>
      </trkpt>
      <trkpt lat="47.44815" lon="6.74351">
        <ele>404.2</ele>
        <time>2017-05-14T09:05:39.999Z</time>
      </trkpt>
      <trkpt lat="47.44818" lon="6.74355">
        <ele>404</ele>
        <time>2017-05-14T09:05:40.999Z</time>
      </trkpt>
      <trkpt lat="47.44822" lon="6.74361">
        <ele>403.7</ele>
        <time>2017-05-14T09:05:41.999Z</time>
      </trkpt>
      <trkpt lat="47.44825" lon="6.74365">
        <ele>403.5</ele>
        <time>2017-05-14T09:05:42.999Z</time>
      </trkpt>
      <trkpt lat="47.44828" lon="6.74368">
        <ele>403.3</ele>
        <time>2017-05-14T09:05:43.999Z</time>
      </trkpt>
      <trkpt lat="47.44831" lon="6.74371">
        <ele>403.1</ele>
        <time>2017-05-14T09:05:44.999Z</time>
      </trkpt>
      <trkpt lat="47.44838" lon="6.74376">
        <ele>402.9</ele>
        <time>2017-05-14T09:05:45.999Z</time>
      </trkpt>
      <trkpt lat="47.44843" lon="6.74381">
        <ele>402.7</ele>
        <time>2017-05-14T09:05:46.999Z</time>
      </trkpt>
      <trkpt lat="47.44846" lon="6.74384">
        <ele>402.5</ele>
        <time>2017-05-14T09:05:47.999Z</time>
      </trkpt>
      <trkpt lat="47.44849" lon="6.74388">
        <ele>402.1</ele>
        <time>2017-05-14T09:05:48.999Z</time>
      </trkpt>
      <trkpt lat="47.44852" lon="6.74389">
        <ele>401.6</ele>
        <time>2017-05-14T09:05:50.999Z</time>
      </trkpt>
      <trkpt lat="47.44855" lon="6.7439">
        <ele>401.5</ele>
        <time>2017-05-14T09:05:51.999Z</time>
      </trkpt>
      <trkpt lat="47.4486" lon="6.74389">
        <ele>401.3</ele>
        <time>2017-05-14T09:05:52.999Z</time>
      </trkpt>
      <trkpt lat="47.44866" lon="6.74391">
        <ele>401.2</ele>
        <time>2017-05-14T09:05:53.999Z</time>
      </trkpt>
      <trkpt lat="47.44872" lon="6.74395">
        <ele>401.1</ele>
        <time>2017-05-14T09:05:54.999Z</time>
      </trkpt>
      <trkpt lat="47.44879" lon="6.744">
        <ele>401.1</ele>
        <time>2017-05-14T09:05:55.999Z</time>
      </trkpt>
      <trkpt lat="47.44884" lon="6.74407">
        <ele>401.1</ele>
        <time>2017-05-14T09:05:56.999Z</time>
      </trkpt>
      <trkpt lat="47.44887" lon="6.74413">
        <ele>401</ele>
        <time>2017-05-14T09:05:57.999Z</time>
      </trkpt>
      <trkpt lat="47.44891" lon="6.74416">
        <ele>400.9</ele>
        <time>2017-05-14T09:05:58.999Z</time>
      </trkpt>
      <trkpt lat="47.44895" lon="6.7442">
        <ele>400.9</ele>
        <time>2017-05-14T09:05:59.999Z</time>
      </trkpt>
      <trkpt lat="47.44899" lon="6.74427">
        <ele>401</ele>
        <time>2017-05-14T09:06:00.999Z</time>
      </trkpt>
      <trkpt lat="47.44902" lon="6.74433">
        <ele>401.3</ele>
        <time>2017-05-14T09:06:01.999Z</time>
      </trkpt>
      <trkpt lat="47.44906" lon="6.74439">
        <ele>401.6</ele>
        <time>2017-05-14T09:06:02.999Z</time>
      </trkpt>
      <trkpt lat="47.4491" lon="6.74445">
        <ele>402</ele>
        <time>2017-05-14T09:06:03.999Z</time>
      </trkpt>
      <trkpt lat="47.44914" lon="6.74449">
        <ele>402.4</ele>
        <time>2017-05-14T09:06:04.999Z</time>
      </trkpt>
      <trkpt lat="47.44917" lon="6.74453">
        <ele>402.8</ele>
        <time>2017-05-14T09:06:05.999Z</time>
      </trkpt>
      <trkpt lat="47.44922" lon="6.74458">
        <ele>403.2</ele>
        <time>2017-05-14T09:06:06.999Z</time>
      </trkpt>
      <trkpt lat="47.44927" lon="6.74462">
        <ele>403.6</ele>
        <time>2017-05-14T09:06:07.999Z</time>
      </trkpt>
      <trkpt lat="47.44933" lon="6.74466">
        <ele>404.1</ele>
        <time>2017-05-14T09:06:08.999Z</time>
      </trkpt>
      <trkpt lat="47.44938" lon="6.74469">
        <ele>404.6</ele>
        <time>2017-05-14T09:06:09.999Z</time>
      </trkpt>
      <trkpt lat="47.44945" lon="6.74472">
        <ele>405</ele>
        <time>2017-05-14T09:06:10.999Z</time>
      </trkpt>
      <trkpt lat="47.44949" lon="6.74473">
        <ele>405.4</ele>
        <time>2017-05-14T09:06:11.999Z</time>
      </trkpt>
      <trkpt lat="47.44954" lon="6.74474">
        <ele>405.8</ele>
        <time>2017-05-14T09:06:12.999Z</time>
      </trkpt>
      <trkpt lat="47.44959" lon="6.74476">
        <ele>406.2</ele>
        <time>2017-05-14T09:06:13.999Z</time>
      </trkpt>
      <trkpt lat="47.44963" lon="6.74478">
        <ele>406.7</ele>
        <time>2017-05-14T09:06:14.999Z</time>
      </trkpt>
      <trkpt lat="47.44965" lon="6.7448">
        <ele>407.9</ele>
        <time>2017-05-14T09:06:17.999Z</time>
      </trkpt>
      <trkpt lat="47.44966" lon="6.74483">
        <ele>408.1</ele>
        <time>2017-05-14T09:06:18.999Z</time>
      </trkpt>
      <trkpt lat="47.4497" lon="6.74485">
        <ele>408.1</ele>
        <time>2017-05-14T09:06:40.999Z</time>
      </trkpt>
      <trkpt lat="47.44971" lon="6.74486">
        <ele>408</ele>
        <time>2017-05-14T09:06:41.999Z</time>
      </trkpt>
      <trkpt lat="47.44972" lon="6.74486">
        <ele>408</ele>
        <time>2017-05-14T09:06:42.999Z</time>
      </trkpt>
      <trkpt lat="47.44976" lon="6.74486">
        <ele>408</ele>
        <time>2017-05-14T09:06:43.999Z</time>
      </trkpt>
      <trkpt lat="47.4498" lon="6.74484">
        <ele>408.1</ele>
        <time>2017-05-14T09:06:44.999Z</time>
      </trkpt>
      <trkpt lat="47.44983" lon="6.74482">
        <ele>408.2</ele>
        <time>2017-05-14T09:06:45.999Z</time>
      </trkpt>
      <trkpt lat="47.44987" lon="6.7448">
        <ele>409.2</ele>
        <time>2017-05-14T09:06:50.999Z</time>
      </trkpt>
      <trkpt lat="47.44988" lon="6.74481">
        <ele>409.2</ele>
        <time>2017-05-14T09:06:51.999Z</time>
      </trkpt>
      <trkpt lat="47.4499" lon="6.74483">
        <ele>408.9</ele>
        <time>2017-05-14T09:06:53.999Z</time>
      </trkpt>
      <trkpt lat="47.44993" lon="6.74484">
        <ele>408.9</ele>
        <time>2017-05-14T09:06:54.999Z</time>
      </trkpt>
      <trkpt lat="47.44996" lon="6.74486">
        <ele>410</ele>
        <time>2017-05-14T09:07:09.999Z</time>
      </trkpt>
      <trkpt lat="47.44998" lon="6.74487">
        <ele>410.3</ele>
        <time>2017-05-14T09:07:10.999Z</time>
      </trkpt>
      <trkpt lat="47.45003" lon="6.74489">
        <ele>410.4</ele>
        <time>2017-05-14T09:07:11.999Z</time>
      </trkpt>
      <trkpt lat="47.45007" lon="6.74494">
        <ele>410.6</ele>
        <time>2017-05-14T09:07:12.999Z</time>
      </trkpt>
      <trkpt lat="47.4501" lon="6.74499">
        <ele>410.7</ele>
        <time>2017-05-14T09:07:13.999Z</time>
      </trkpt>
      <trkpt lat="47.45015" lon="6.74501">
        <ele>410.8</ele>
        <time>2017-05-14T09:07:14.999Z</time>
      </trkpt>
      <trkpt lat="47.45018" lon="6.74505">
        <ele>410.8</ele>
        <time>2017-05-14T09:07:15.999Z</time>
      </trkpt>
      <trkpt lat="47.45021" lon="6.74508">
        <ele>411</ele>
        <time>2017-05-14T09:07:16.999Z</time>
      </trkpt>
      <trkpt lat="47.45024" lon="6.74512">
        <ele>411.1</ele>
        <time>2017-05-14T09:07:17.999Z</time>
      </trkpt>
      <trkpt lat="47.45028" lon="6.74515">
        <ele>411.2</ele>
        <time>2017-05-14T09:07:18.999Z</time>
      </trkpt>
      <trkpt lat="47.45032" lon="6.74518">
        <ele>411.1</ele>
        <time>2017-05-14T09:07:19.999Z</time>
      </trkpt>
      <trkpt lat="47.45034" lon="6.74518">
        <ele>411</ele>
        <time>2017-05-14T09:07:20.999Z</time>
      </trkpt>
      <trkpt lat="47.45037" lon="6.7452">
        <ele>410.7</ele>
        <time>2017-05-14T09:07:22.999Z</time>
      </trkpt>
      <trkpt lat="47.45041" lon="6.7452">
        <ele>410.6</ele>
        <time>2017-05-14T09:07:23.999Z</time>
      </trkpt>
      <trkpt lat="47.45044" lon="6.74524">
        <ele>410.7</ele>
        <time>2017-05-14T09:07:24.999Z</time>
      </trkpt>
      <trkpt lat="47.45045" lon="6.74526">
        <ele>410.7</ele>
        <time>2017-05-14T09:07:25.999Z</time>
      </trkpt>
      <trkpt lat="47.45047" lon="6.7453">
        <ele>410.2</ele>
        <time>2017-05-14T09:07:29.999Z</time>
      </trkpt>
      <trkpt lat="47.4505" lon="6.74535">
        <ele>410</ele>
        <time>2017-05-14T09:07:30.999Z</time>
      </trkpt>
      <trkpt lat="47.45051" lon="6.74539">
        <ele>409.8</ele>
        <time>2017-05-14T09:07:31.999Z</time>
      </trkpt>
      <trkpt lat="47.45055" lon="6.74547">
        <ele>409.4</ele>
        <time>2017-05-14T09:07:32.999Z</time>
      </trkpt>
      <trkpt lat="47.45058" lon="6.74554">
        <ele>409.2</ele>
        <time>2017-05-14T09:07:33.999Z</time>
      </trkpt>
      <trkpt lat="47.4506" lon="6.74558">
        <ele>409</ele>
        <time>2017-05-14T09:07:34.999Z</time>
      </trkpt>
      <trkpt lat="47.45064" lon="6.74564">
        <ele>408.7</ele>
        <time>2017-05-14T09:07:35.999Z</time>
      </trkpt>
      <trkpt lat="47.45065" lon="6.74571">
        <ele>408.4</ele>
        <time>2017-05-14T09:07:36.999Z</time>
      </trkpt>
      <trkpt lat="47.45068" lon="6.74577">
        <ele>408.1</ele>
        <time>2017-05-14T09:07:37.999Z</time>
      </trkpt>
      <trkpt lat="47.45066" lon="6.74582">
        <ele>407.5</ele>
        <time>2017-05-14T09:07:38.999Z</time>
      </trkpt>
      <trkpt lat="47.45066" lon="6.74583">
        <ele>407.1</ele>
        <time>2017-05-14T09:07:39.999Z</time>
      </trkpt>
      <trkpt lat="47.45069" lon="6.74589">
        <ele>406.7</ele>
        <time>2017-05-14T09:07:40.999Z</time>
      </trkpt>
      <trkpt lat="47.45073" lon="6.74592">
        <ele>406.2</ele>
        <time>2017-05-14T09:07:41.999Z</time>
      </trkpt>
      <trkpt lat="47.45076" lon="6.74598">
        <ele>405.8</ele>
        <time>2017-05-14T09:07:42.999Z</time>
      </trkpt>
      <trkpt lat="47.45079" lon="6.74604">
        <ele>405.4</ele>
        <time>2017-05-14T09:07:43.999Z</time>
      </trkpt>
      <trkpt lat="47.45083" lon="6.74606">
        <ele>404.6</ele>
        <time>2017-05-14T09:07:45.999Z</time>
      </trkpt>
      <trkpt lat="47.45084" lon="6.74608">
        <ele>404.2</ele>
        <time>2017-05-14T09:07:46.999Z</time>
      </trkpt>
      <trkpt lat="47.45085" lon="6.74611">
        <ele>403.8</ele>
        <time>2017-05-14T09:07:47.999Z</time>
      </trkpt>
      <trkpt lat="47.4509" lon="6.74614">
        <ele>403.5</ele>
        <time>2017-05-14T09:07:48.999Z</time>
      </trkpt>
      <trkpt lat="47.45095" lon="6.74616">
        <ele>403.1</ele>
        <time>2017-05-14T09:07:49.999Z</time>
      </trkpt>
      <trkpt lat="47.45098" lon="6.74619">
        <ele>402.7</ele>
        <time>2017-05-14T09:07:50.999Z</time>
      </trkpt>
      <trkpt lat="47.451" lon="6.74624">
        <ele>402.2</ele>
        <time>2017-05-14T09:07:51.999Z</time>
      </trkpt>
      <trkpt lat="47.45099" lon="6.7463">
        <ele>401.8</ele>
        <time>2017-05-14T09:07:52.999Z</time>
      </trkpt>
      <trkpt lat="47.45102" lon="6.74634">
        <ele>401.3</ele>
        <time>2017-05-14T09:07:53.999Z</time>
      </trkpt>
      <trkpt lat="47.45105" lon="6.74638">
        <ele>400.8</ele>
        <time>2017-05-14T09:07:54.999Z</time>
      </trkpt>
      <trkpt lat="47.45108" lon="6.74643">
        <ele>400.2</ele>
        <time>2017-05-14T09:07:55.999Z</time>
      </trkpt>
      <trkpt lat="47.4511" lon="6.74647">
        <ele>399.7</ele>
        <time>2017-05-14T09:07:56.999Z</time>
      </trkpt>
      <trkpt lat="47.45111" lon="6.74654">
        <ele>399.2</ele>
        <time>2017-05-14T09:07:57.999Z</time>
      </trkpt>
      <trkpt lat="47.45113" lon="6.74657">
        <ele>398.7</ele>
        <time>2017-05-14T09:07:58.999Z</time>
      </trkpt>
      <trkpt lat="47.45116" lon="6.7466">
        <ele>398.2</ele>
        <time>2017-05-14T09:07:59.999Z</time>
      </trkpt>
      <trkpt lat="47.45118" lon="6.74664">
        <ele>397.3</ele>
        <time>2017-05-14T09:08:01.999Z</time>
      </trkpt>
      <trkpt lat="47.45119" lon="6.74665">
        <ele>397</ele>
        <time>2017-05-14T09:08:02.999Z</time>
      </trkpt>
      <trkpt lat="47.45121" lon="6.74667">
        <ele>396.6</ele>
        <time>2017-05-14T09:08:03.999Z</time>
      </trkpt>
      <trkpt lat="47.45124" lon="6.74668">
        <ele>396</ele>
        <time>2017-05-14T09:08:04.999Z</time>
      </trkpt>
      <trkpt lat="47.45127" lon="6.74673">
        <ele>395.2</ele>
        <time>2017-05-14T09:08:08.999Z</time>
      </trkpt>
      <trkpt lat="47.4513" lon="6.74677">
        <ele>394.9</ele>
        <time>2017-05-14T09:08:09.999Z</time>
      </trkpt>
      <trkpt lat="47.45133" lon="6.74679">
        <ele>393.9</ele>
        <time>2017-05-14T09:08:14.999Z</time>
      </trkpt>
      <trkpt lat="47.45135" lon="6.74679">
        <ele>393.4</ele>
        <time>2017-05-14T09:08:15.999Z</time>
      </trkpt>
      <trkpt lat="47.45137" lon="6.74681">
        <ele>392.9</ele>
        <time>2017-05-14T09:08:16.999Z</time>
      </trkpt>
      <trkpt lat="47.45139" lon="6.74685">
        <ele>392.4</ele>
        <time>2017-05-14T09:08:17.999Z</time>
      </trkpt>
      <trkpt lat="47.45143" lon="6.74691">
        <ele>391.9</ele>
        <time>2017-05-14T09:08:18.999Z</time>
      </trkpt>
      <trkpt lat="47.45146" lon="6.74695">
        <ele>391.5</ele>
        <time>2017-05-14T09:08:19.999Z</time>
      </trkpt>
      <trkpt lat="47.4515" lon="6.74702">
        <ele>391.1</ele>
        <time>2017-05-14T09:08:20.999Z</time>
      </trkpt>
      <trkpt lat="47.45154" lon="6.74711">
        <ele>390.8</ele>
        <time>2017-05-14T09:08:21.999Z</time>
      </trkpt>
      <trkpt lat="47.45155" lon="6.74721">
        <ele>390.2</ele>
        <time>2017-05-14T09:08:22.999Z</time>
      </trkpt>
      <trkpt lat="47.45159" lon="6.74728">
        <ele>389.7</ele>
        <time>2017-05-14T09:08:23.999Z</time>
      </trkpt>
      <trkpt lat="47.45163" lon="6.74736">
        <ele>389.1</ele>
        <time>2017-05-14T09:08:24.999Z</time>
      </trkpt>
      <trkpt lat="47.45167" lon="6.74742">
        <ele>388.6</ele>
        <time>2017-05-14T09:08:25.999Z</time>
      </trkpt>
      <trkpt lat="47.4517" lon="6.74749">
        <ele>388.2</ele>
        <time>2017-05-14T09:08:26.999Z</time>
      </trkpt>
      <trkpt lat="47.45173" lon="6.74757">
        <ele>387.7</ele>
        <time>2017-05-14T09:08:27.999Z</time>
      </trkpt>
      <trkpt lat="47.45177" lon="6.74763">
        <ele>387.3</ele>
        <time>2017-05-14T09:08:28.999Z</time>
      </trkpt>
      <trkpt lat="47.45181" lon="6.7477">
        <ele>386.9</ele>
        <time>2017-05-14T09:08:29.999Z</time>
      </trkpt>
      <trkpt lat="47.45183" lon="6.74774">
        <ele>386.3</ele>
        <time>2017-05-14T09:08:30.999Z</time>
      </trkpt>
      <trkpt lat="47.45184" lon="6.74778">
        <ele>385.9</ele>
        <time>2017-05-14T09:08:31.999Z</time>
      </trkpt>
      <trkpt lat="47.45185" lon="6.74782">
        <ele>385.4</ele>
        <time>2017-05-14T09:08:32.999Z</time>
      </trkpt>
      <trkpt lat="47.45187" lon="6.74788">
        <ele>384.8</ele>
        <time>2017-05-14T09:08:33.999Z</time>
      </trkpt>
      <trkpt lat="47.45189" lon="6.74795">
        <ele>384.2</ele>
        <time>2017-05-14T09:08:34.999Z</time>
      </trkpt>
      <trkpt lat="47.45192" lon="6.74802">
        <ele>383.7</ele>
        <time>2017-05-14T09:08:35.999Z</time>
      </trkpt>
      <trkpt lat="47.45195" lon="6.74807">
        <ele>383.1</ele>
        <time>2017-05-14T09:08:36.999Z</time>
      </trkpt>
      <trkpt lat="47.45198" lon="6.74813">
        <ele>382.4</ele>
        <time>2017-05-14T09:08:37.999Z</time>
      </trkpt>
      <trkpt lat="47.452" lon="6.74817">
        <ele>381.8</ele>
        <time>2017-05-14T09:08:38.999Z</time>
      </trkpt>
      <trkpt lat="47.45202" lon="6.74821">
        <ele>381.1</ele>
        <time>2017-05-14T09:08:39.999Z</time>
      </trkpt>
      <trkpt lat="47.45207" lon="6.74827">
        <ele>374.9</ele>
        <time>2017-05-14T09:08:40.999Z</time>
      </trkpt>
      <trkpt lat="47.45212" lon="6.74832">
        <ele>374.4</ele>
        <time>2017-05-14T09:08:41.999Z</time>
      </trkpt>
      <trkpt lat="47.45215" lon="6.74835">
        <ele>374.1</ele>
        <time>2017-05-14T09:08:42.999Z</time>
      </trkpt>
      <trkpt lat="47.45218" lon="6.74841">
        <ele>370.1</ele>
        <time>2017-05-14T09:08:43.999Z</time>
      </trkpt>
      <trkpt lat="47.45222" lon="6.7485">
        <ele>366.5</ele>
        <time>2017-05-14T09:08:44.999Z</time>
      </trkpt>
      <trkpt lat="47.45227" lon="6.74855">
        <ele>366.2</ele>
        <time>2017-05-14T09:08:45.999Z</time>
      </trkpt>
      <trkpt lat="47.45231" lon="6.7486">
        <ele>365.8</ele>
        <time>2017-05-14T09:08:46.999Z</time>
      </trkpt>
      <trkpt lat="47.45232" lon="6.74866">
        <ele>365.3</ele>
        <time>2017-05-14T09:08:47.999Z</time>
      </trkpt>
      <trkpt lat="47.45232" lon="6.74873">
        <ele>365.1</ele>
        <time>2017-05-14T09:08:48.999Z</time>
      </trkpt>
      <trkpt lat="47.45233" lon="6.74879">
        <ele>364.7</ele>
        <time>2017-05-14T09:08:49.999Z</time>
      </trkpt>
      <trkpt lat="47.45233" lon="6.74885">
        <ele>364.7</ele>
        <time>2017-05-14T09:08:50.999Z</time>
      </trkpt>
      <trkpt lat="47.45232" lon="6.74892">
        <ele>364.7</ele>
        <time>2017-05-14T09:08:51.999Z</time>
      </trkpt>
      <trkpt lat="47.45232" lon="6.74898">
        <ele>364.8</ele>
        <time>2017-05-14T09:08:52.999Z</time>
      </trkpt>
      <trkpt lat="47.45232" lon="6.74904">
        <ele>364.8</ele>
        <time>2017-05-14T09:08:53.999Z</time>
      </trkpt>
      <trkpt lat="47.45231" lon="6.74909">
        <ele>365</ele>
        <time>2017-05-14T09:08:54.999Z</time>
      </trkpt>
      <trkpt lat="47.45232" lon="6.74915">
        <ele>365.2</ele>
        <time>2017-05-14T09:08:56.999Z</time>
      </trkpt>
      <trkpt lat="47.45232" lon="6.74918">
        <ele>365.5</ele>
        <time>2017-05-14T09:08:57.999Z</time>
      </trkpt>
      <trkpt lat="47.45233" lon="6.74923">
        <ele>365.8</ele>
        <time>2017-05-14T09:08:58.999Z</time>
      </trkpt>
      <trkpt lat="47.45233" lon="6.74927">
        <ele>366</ele>
        <time>2017-05-14T09:08:59.999Z</time>
      </trkpt>
      <trkpt lat="47.45234" lon="6.74931">
        <ele>366.3</ele>
        <time>2017-05-14T09:09:00.999Z</time>
      </trkpt>
      <trkpt lat="47.45235" lon="6.74936">
        <ele>366.5</ele>
        <time>2017-05-14T09:09:01.999Z</time>
      </trkpt>
      <trkpt lat="47.45236" lon="6.74945">
        <ele>366.8</ele>
        <time>2017-05-14T09:09:02.999Z</time>
      </trkpt>
      <trkpt lat="47.45237" lon="6.74951">
        <ele>367.1</ele>
        <time>2017-05-14T09:09:03.999Z</time>
      </trkpt>
      <trkpt lat="47.45238" lon="6.74955">
        <ele>367.5</ele>
        <time>2017-05-14T09:09:04.999Z</time>
      </trkpt>
      <trkpt lat="47.45239" lon="6.74959">
        <ele>367.8</ele>
        <time>2017-05-14T09:09:05.999Z</time>
      </trkpt>
      <trkpt lat="47.4524" lon="6.74963">
        <ele>368</ele>
        <time>2017-05-14T09:09:06.999Z</time>
      </trkpt>
      <trkpt lat="47.45241" lon="6.74968">
        <ele>368.3</ele>
        <time>2017-05-14T09:09:08.999Z</time>
      </trkpt>
      <trkpt lat="47.45241" lon="6.74971">
        <ele>368.4</ele>
        <time>2017-05-14T09:09:09.999Z</time>
      </trkpt>
      <trkpt lat="47.45243" lon="6.74977">
        <ele>368.7</ele>
        <time>2017-05-14T09:09:11.999Z</time>
      </trkpt>
      <trkpt lat="47.45243" lon="6.74981">
        <ele>368.7</ele>
        <time>2017-05-14T09:09:12.999Z</time>
      </trkpt>
      <trkpt lat="47.45244" lon="6.74985">
        <ele>368.6</ele>
        <time>2017-05-14T09:09:13.999Z</time>
      </trkpt>
      <trkpt lat="47.45244" lon="6.74989">
        <ele>368.6</ele>
        <time>2017-05-14T09:09:14.999Z</time>
      </trkpt>
      <trkpt lat="47.45245" lon="6.74993">
        <ele>368.6</ele>
        <time>2017-05-14T09:09:15.999Z</time>
      </trkpt>
      <trkpt lat="47.45245" lon="6.74998">
        <ele>368.7</ele>
        <time>2017-05-14T09:09:16.999Z</time>
      </trkpt>
      <trkpt lat="47.45245" lon="6.75003">
        <ele>368.7</ele>
        <time>2017-05-14T09:09:17.999Z</time>
      </trkpt>
      <trkpt lat="47.45246" lon="6.75008">
        <ele>368.8</ele>
        <time>2017-05-14T09:09:18.999Z</time>
      </trkpt>
      <trkpt lat="47.45247" lon="6.75013">
        <ele>368.8</ele>
        <time>2017-05-14T09:09:19.999Z</time>
      </trkpt>
      <trkpt lat="47.45248" lon="6.75017">
        <ele>368.7</ele>
        <time>2017-05-14T09:09:20.999Z</time>
      </trkpt>
      <trkpt lat="47.4525" lon="6.7502">
        <ele>368.8</ele>
        <time>2017-05-14T09:09:21.999Z</time>
      </trkpt>
      <trkpt lat="47.45251" lon="6.75025">
        <ele>368.7</ele>
        <time>2017-05-14T09:09:22.999Z</time>
      </trkpt>
      <trkpt lat="47.45252" lon="6.75029">
        <ele>368.6</ele>
        <time>2017-05-14T09:09:23.999Z</time>
      </trkpt>
      <trkpt lat="47.45254" lon="6.75033">
        <ele>368.6</ele>
        <time>2017-05-14T09:09:24.999Z</time>
      </trkpt>
      <trkpt lat="47.45256" lon="6.75037">
        <ele>368.6</ele>
        <time>2017-05-14T09:09:25.999Z</time>
      </trkpt>
      <trkpt lat="47.45258" lon="6.75042">
        <ele>368.6</ele>
        <time>2017-05-14T09:09:26.999Z</time>
      </trkpt>
      <trkpt lat="47.45259" lon="6.75047">
        <ele>368.7</ele>
        <time>2017-05-14T09:09:27.999Z</time>
      </trkpt>
      <trkpt lat="47.45261" lon="6.75052">
        <ele>368.6</ele>
        <time>2017-05-14T09:09:28.999Z</time>
      </trkpt>
      <trkpt lat="47.45263" lon="6.75056">
        <ele>368.6</ele>
        <time>2017-05-14T09:09:29.999Z</time>
      </trkpt>
      <trkpt lat="47.45264" lon="6.75061">
        <ele>368.6</ele>
        <time>2017-05-14T09:09:30.999Z</time>
      </trkpt>
      <trkpt lat="47.45265" lon="6.75065">
        <ele>368.5</ele>
        <time>2017-05-14T09:09:31.999Z</time>
      </trkpt>
      <trkpt lat="47.45267" lon="6.7507">
        <ele>368.4</ele>
        <time>2017-05-14T09:09:32.999Z</time>
      </trkpt>
      <trkpt lat="47.45269" lon="6.75074">
        <ele>368.4</ele>
        <time>2017-05-14T09:09:33.999Z</time>
      </trkpt>
      <trkpt lat="47.45271" lon="6.75078">
        <ele>368.4</ele>
        <time>2017-05-14T09:09:34.999Z</time>
      </trkpt>
      <trkpt lat="47.45272" lon="6.75083">
        <ele>368.4</ele>
        <time>2017-05-14T09:09:35.999Z</time>
      </trkpt>
      <trkpt lat="47.45274" lon="6.75088">
        <ele>368.3</ele>
        <time>2017-05-14T09:09:36.999Z</time>
      </trkpt>
      <trkpt lat="47.45276" lon="6.75091">
        <ele>368.3</ele>
        <time>2017-05-14T09:09:37.999Z</time>
      </trkpt>
      <trkpt lat="47.45278" lon="6.75096">
        <ele>368.1</ele>
        <time>2017-05-14T09:09:38.999Z</time>
      </trkpt>
      <trkpt lat="47.45279" lon="6.751">
        <ele>367.9</ele>
        <time>2017-05-14T09:09:39.999Z</time>
      </trkpt>
      <trkpt lat="47.45281" lon="6.75104">
        <ele>367.7</ele>
        <time>2017-05-14T09:09:40.999Z</time>
      </trkpt>
      <trkpt lat="47.45283" lon="6.75107">
        <ele>367.6</ele>
        <time>2017-05-14T09:09:41.999Z</time>
      </trkpt>
      <trkpt lat="47.45285" lon="6.75111">
        <ele>367.5</ele>
        <time>2017-05-14T09:09:42.999Z</time>
      </trkpt>
      <trkpt lat="47.45287" lon="6.75115">
        <ele>367.4</ele>
        <time>2017-05-14T09:09:43.999Z</time>
      </trkpt>
      <trkpt lat="47.45289" lon="6.75119">
        <ele>367.3</ele>
        <time>2017-05-14T09:09:44.999Z</time>
      </trkpt>
      <trkpt lat="47.45291" lon="6.75124">
        <ele>367.2</ele>
        <time>2017-05-14T09:09:45.999Z</time>
      </trkpt>
      <trkpt lat="47.45293" lon="6.75128">
        <ele>367.1</ele>
        <time>2017-05-14T09:09:46.999Z</time>
      </trkpt>
      <trkpt lat="47.45295" lon="6.75132">
        <ele>367.1</ele>
        <time>2017-05-14T09:09:47.999Z</time>
      </trkpt>
      <trkpt lat="47.45296" lon="6.75136">
        <ele>366.9</ele>
        <time>2017-05-14T09:09:48.999Z</time>
      </trkpt>
      <trkpt lat="47.45299" lon="6.75139">
        <ele>366.8</ele>
        <time>2017-05-14T09:09:49.999Z</time>
      </trkpt>
      <trkpt lat="47.45301" lon="6.75144">
        <ele>366.7</ele>
        <time>2017-05-14T09:09:50.999Z</time>
      </trkpt>
      <trkpt lat="47.45303" lon="6.75147">
        <ele>366.7</ele>
        <time>2017-05-14T09:09:51.999Z</time>
      </trkpt>
      <trkpt lat="47.45306" lon="6.7515">
        <ele>366.7</ele>
        <time>2017-05-14T09:09:52.999Z</time>
      </trkpt>
      <trkpt lat="47.45309" lon="6.75153">
        <ele>366.8</ele>
        <time>2017-05-14T09:09:53.999Z</time>
      </trkpt>
      <trkpt lat="47.45311" lon="6.75156">
        <ele>366.7</ele>
        <time>2017-05-14T09:09:54.999Z</time>
      </trkpt>
      <trkpt lat="47.45314" lon="6.7516">
        <ele>366.8</ele>
        <time>2017-05-14T09:09:55.999Z</time>
      </trkpt>
      <trkpt lat="47.45317" lon="6.75164">
        <ele>366.8</ele>
        <time>2017-05-14T09:09:56.999Z</time>
      </trkpt>
      <trkpt lat="47.45321" lon="6.75169">
        <ele>366.8</ele>
        <time>2017-05-14T09:09:57.999Z</time>
      </trkpt>
      <trkpt lat="47.45324" lon="6.75174">
        <ele>366.7</ele>
        <time>2017-05-14T09:09:58.999Z</time>
      </trkpt>
      <trkpt lat="47.45326" lon="6.75178">
        <ele>366.7</ele>
        <time>2017-05-14T09:09:59.999Z</time>
      </trkpt>
      <trkpt lat="47.45328" lon="6.75182">
        <ele>366.7</ele>
        <time>2017-05-14T09:10:00.999Z</time>
      </trkpt>
      <trkpt lat="47.45331" lon="6.75186">
        <ele>366.6</ele>
        <time>2017-05-14T09:10:01.999Z</time>
      </trkpt>
      <trkpt lat="47.45334" lon="6.75191">
        <ele>366.6</ele>
        <time>2017-05-14T09:10:02.999Z</time>
      </trkpt>
      <trkpt lat="47.45337" lon="6.75195">
        <ele>366.6</ele>
        <time>2017-05-14T09:10:03.999Z</time>
      </trkpt>
      <trkpt lat="47.45339" lon="6.75198">
        <ele>366.5</ele>
        <time>2017-05-14T09:10:04.999Z</time>
      </trkpt>
      <trkpt lat="47.45341" lon="6.75201">
        <ele>366.4</ele>
        <time>2017-05-14T09:10:05.999Z</time>
      </trkpt>
      <trkpt lat="47.45344" lon="6.75206">
        <ele>366.4</ele>
        <time>2017-05-14T09:10:06.999Z</time>
      </trkpt>
      <trkpt lat="47.45346" lon="6.7521">
        <ele>366.1</ele>
        <time>2017-05-14T09:10:07.999Z</time>
      </trkpt>
      <trkpt lat="47.45349" lon="6.75218">
        <ele>366</ele>
        <time>2017-05-14T09:10:08.999Z</time>
      </trkpt>
      <trkpt lat="47.45353" lon="6.75227">
        <ele>365.8</ele>
        <time>2017-05-14T09:10:09.999Z</time>
      </trkpt>
      <trkpt lat="47.45356" lon="6.75231">
        <ele>365.5</ele>
        <time>2017-05-14T09:10:10.999Z</time>
      </trkpt>
      <trkpt lat="47.4536" lon="6.75235">
        <ele>365.3</ele>
        <time>2017-05-14T09:10:11.999Z</time>
      </trkpt>
      <trkpt lat="47.45363" lon="6.7524">
        <ele>365.1</ele>
        <time>2017-05-14T09:10:12.999Z</time>
      </trkpt>
      <trkpt lat="47.45365" lon="6.75244">
        <ele>365</ele>
        <time>2017-05-14T09:10:13.999Z</time>
      </trkpt>
      <trkpt lat="47.45368" lon="6.75247">
        <ele>364.8</ele>
        <time>2017-05-14T09:10:14.999Z</time>
      </trkpt>
      <trkpt lat="47.45371" lon="6.7525">
        <ele>364.6</ele>
        <time>2017-05-14T09:10:15.999Z</time>
      </trkpt>
      <trkpt lat="47.45373" lon="6.75252">
        <ele>364.4</ele>
        <time>2017-05-14T09:10:16.999Z</time>
      </trkpt>
      <trkpt lat="47.45376" lon="6.75256">
        <ele>364.5</ele>
        <time>2017-05-14T09:10:17.999Z</time>
      </trkpt>
      <trkpt lat="47.45378" lon="6.7526">
        <ele>364.5</ele>
        <time>2017-05-14T09:10:18.999Z</time>
      </trkpt>
      <trkpt lat="47.4538" lon="6.75263">
        <ele>364.6</ele>
        <time>2017-05-14T09:10:19.999Z</time>
      </trkpt>
      <trkpt lat="47.45382" lon="6.75267">
        <ele>364.7</ele>
        <time>2017-05-14T09:10:20.999Z</time>
      </trkpt>
      <trkpt lat="47.45384" lon="6.75271">
        <ele>364.9</ele>
        <time>2017-05-14T09:10:21.999Z</time>
      </trkpt>
      <trkpt lat="47.45386" lon="6.75275">
        <ele>365.1</ele>
        <time>2017-05-14T09:10:22.999Z</time>
      </trkpt>
      <trkpt lat="47.45387" lon="6.75277">
        <ele>365.3</ele>
        <time>2017-05-14T09:10:23.999Z</time>
      </trkpt>
      <trkpt lat="47.4539" lon="6.7528">
        <ele>365.8</ele>
        <time>2017-05-14T09:10:25.999Z</time>
      </trkpt>
      <trkpt lat="47.45395" lon="6.75283">
        <ele>366</ele>
        <time>2017-05-14T09:10:26.999Z</time>
      </trkpt>
      <trkpt lat="47.45399" lon="6.75285">
        <ele>366.5</ele>
        <time>2017-05-14T09:10:29.999Z</time>
      </trkpt>
      <trkpt lat="47.454" lon="6.75285">
        <ele>366.6</ele>
        <time>2017-05-14T09:10:30.999Z</time>
      </trkpt>
      <trkpt lat="47.45404" lon="6.75285">
        <ele>369.7</ele>
        <time>2017-05-14T09:10:52.999Z</time>
      </trkpt>
      <trkpt lat="47.45407" lon="6.75286">
        <ele>370.1</ele>
        <time>2017-05-14T09:10:53.999Z</time>
      </trkpt>
      <trkpt lat="47.4541" lon="6.75286">
        <ele>370.7</ele>
        <time>2017-05-14T09:10:54.999Z</time>
      </trkpt>
      <trkpt lat="47.45413" lon="6.75288">
        <ele>371.2</ele>
        <time>2017-05-14T09:10:55.999Z</time>
      </trkpt>
      <trkpt lat="47.45416" lon="6.7529">
        <ele>371.7</ele>
        <time>2017-05-14T09:10:56.999Z</time>
      </trkpt>
      <trkpt lat="47.45421" lon="6.75293">
        <ele>376.7</ele>
        <time>2017-05-14T09:10:57.999Z</time>
      </trkpt>
      <trkpt lat="47.45425" lon="6.75296">
        <ele>380.6</ele>
        <time>2017-05-14T09:10:58.999Z</time>
      </trkpt>
      <trkpt lat="47.4543" lon="6.75298">
        <ele>384.1</ele>
        <time>2017-05-14T09:10:59.999Z</time>
      </trkpt>
      <trkpt lat="47.45435" lon="6.75301">
        <ele>387.1</ele>
        <time>2017-05-14T09:11:00.999Z</time>
      </trkpt>
      <trkpt lat="47.45441" lon="6.75304">
        <ele>389.5</ele>
        <time>2017-05-14T09:11:01.999Z</time>
      </trkpt>
      <trkpt lat="47.45447" lon="6.75307">
        <ele>391.3</ele>
        <time>2017-05-14T09:11:02.999Z</time>
      </trkpt>
      <trkpt lat="47.45452" lon="6.7531">
        <ele>392.8</ele>
        <time>2017-05-14T09:11:03.999Z</time>
      </trkpt>
      <trkpt lat="47.45458" lon="6.75313">
        <ele>393.4</ele>
        <time>2017-05-14T09:11:04.999Z</time>
      </trkpt>
      <trkpt lat="47.45464" lon="6.75315">
        <ele>394</ele>
        <time>2017-05-14T09:11:05.999Z</time>
      </trkpt>
      <trkpt lat="47.4547" lon="6.75318">
        <ele>394.8</ele>
        <time>2017-05-14T09:11:06.999Z</time>
      </trkpt>
      <trkpt lat="47.45476" lon="6.75321">
        <ele>395.5</ele>
        <time>2017-05-14T09:11:07.999Z</time>
      </trkpt>
      <trkpt lat="47.45482" lon="6.75323">
        <ele>396.7</ele>
        <time>2017-05-14T09:11:08.999Z</time>
      </trkpt>
      <trkpt lat="47.45489" lon="6.75325">
        <ele>397.5</ele>
        <time>2017-05-14T09:11:09.999Z</time>
      </trkpt>
      <trkpt lat="47.45495" lon="6.75328">
        <ele>398.4</ele>
        <time>2017-05-14T09:11:10.999Z</time>
      </trkpt>
      <trkpt lat="47.45502" lon="6.7533">
        <ele>399</ele>
        <time>2017-05-14T09:11:11.999Z</time>
      </trkpt>
      <trkpt lat="47.45508" lon="6.75333">
        <ele>399.5</ele>
        <time>2017-05-14T09:11:12.999Z</time>
      </trkpt>
      <trkpt lat="47.45514" lon="6.75335">
        <ele>399.7</ele>
        <time>2017-05-14T09:11:13.999Z</time>
      </trkpt>
      <trkpt lat="47.4552" lon="6.75338">
        <ele>399.8</ele>
        <time>2017-05-14T09:11:14.999Z</time>
      </trkpt>
      <trkpt lat="47.45525" lon="6.7534">
        <ele>399.8</ele>
        <time>2017-05-14T09:11:15.999Z</time>
      </trkpt>
      <trkpt lat="47.4553" lon="6.75343">
        <ele>399.3</ele>
        <time>2017-05-14T09:11:16.999Z</time>
      </trkpt>
      <trkpt lat="47.45536" lon="6.75345">
        <ele>399</ele>
        <time>2017-05-14T09:11:17.999Z</time>
      </trkpt>
      <trkpt lat="47.45542" lon="6.75348">
        <ele>399.3</ele>
        <time>2017-05-14T09:11:18.999Z</time>
      </trkpt>
      <trkpt lat="47.45548" lon="6.75351">
        <ele>399.9</ele>
        <time>2017-05-14T09:11:19.999Z</time>
      </trkpt>
      <trkpt lat="47.45553" lon="6.75354">
        <ele>400</ele>
        <time>2017-05-14T09:11:20.999Z</time>
      </trkpt>
      <trkpt lat="47.45559" lon="6.75357">
        <ele>400.1</ele>
        <time>2017-05-14T09:11:21.999Z</time>
      </trkpt>
      <trkpt lat="47.45565" lon="6.7536">
        <ele>400.2</ele>
        <time>2017-05-14T09:11:22.999Z</time>
      </trkpt>
      <trkpt lat="47.45571" lon="6.75363">
        <ele>400</ele>
        <time>2017-05-14T09:11:23.999Z</time>
      </trkpt>
      <trkpt lat="47.45577" lon="6.75366">
        <ele>400.2</ele>
        <time>2017-05-14T09:11:24.999Z</time>
      </trkpt>
      <trkpt lat="47.45582" lon="6.7537">
        <ele>400</ele>
        <time>2017-05-14T09:11:25.999Z</time>
      </trkpt>
      <trkpt lat="47.45588" lon="6.75373">
        <ele>398.3</ele>
        <time>2017-05-14T09:11:26.999Z</time>
      </trkpt>
      <trkpt lat="47.45593" lon="6.75376">
        <ele>396.2</ele>
        <time>2017-05-14T09:11:27.999Z</time>
      </trkpt>
      <trkpt lat="47.45599" lon="6.75379">
        <ele>395.4</ele>
        <time>2017-05-14T09:11:28.999Z</time>
      </trkpt>
      <trkpt lat="47.45603" lon="6.75382">
        <ele>395</ele>
        <time>2017-05-14T09:11:29.999Z</time>
      </trkpt>
      <trkpt lat="47.45609" lon="6.75385">
        <ele>394.7</ele>
        <time>2017-05-14T09:11:30.999Z</time>
      </trkpt>
      <trkpt lat="47.45614" lon="6.75389">
        <ele>394.9</ele>
        <time>2017-05-14T09:11:31.999Z</time>
      </trkpt>
      <trkpt lat="47.45618" lon="6.75392">
        <ele>394.9</ele>
        <time>2017-05-14T09:11:32.999Z</time>
      </trkpt>
      <trkpt lat="47.45623" lon="6.75395">
        <ele>394.8</ele>
        <time>2017-05-14T09:11:33.999Z</time>
      </trkpt>
      <trkpt lat="47.45627" lon="6.75398">
        <ele>394.4</ele>
        <time>2017-05-14T09:11:34.999Z</time>
      </trkpt>
      <trkpt lat="47.45633" lon="6.75402">
        <ele>393.7</ele>
        <time>2017-05-14T09:11:35.999Z</time>
      </trkpt>
      <trkpt lat="47.45637" lon="6.75407">
        <ele>393.8</ele>
        <time>2017-05-14T09:11:36.999Z</time>
      </trkpt>
      <trkpt lat="47.45642" lon="6.75412">
        <ele>394.3</ele>
        <time>2017-05-14T09:11:37.999Z</time>
      </trkpt>
      <trkpt lat="47.45646" lon="6.75416">
        <ele>394</ele>
        <time>2017-05-14T09:11:38.999Z</time>
      </trkpt>
      <trkpt lat="47.4565" lon="6.75421">
        <ele>393.6</ele>
        <time>2017-05-14T09:11:39.999Z</time>
      </trkpt>
      <trkpt lat="47.45654" lon="6.75424">
        <ele>392.8</ele>
        <time>2017-05-14T09:11:40.999Z</time>
      </trkpt>
      <trkpt lat="47.45658" lon="6.75429">
        <ele>392.4</ele>
        <time>2017-05-14T09:11:41.999Z</time>
      </trkpt>
      <trkpt lat="47.45662" lon="6.75434">
        <ele>391.5</ele>
        <time>2017-05-14T09:11:42.999Z</time>
      </trkpt>
      <trkpt lat="47.45666" lon="6.75438">
        <ele>390.3</ele>
        <time>2017-05-14T09:11:43.999Z</time>
      </trkpt>
      <trkpt lat="47.4567" lon="6.75443">
        <ele>389.2</ele>
        <time>2017-05-14T09:11:44.999Z</time>
      </trkpt>
      <trkpt lat="47.45674" lon="6.75448">
        <ele>388.3</ele>
        <time>2017-05-14T09:11:45.999Z</time>
      </trkpt>
      <trkpt lat="47.45678" lon="6.75453">
        <ele>388.2</ele>
        <time>2017-05-14T09:11:46.999Z</time>
      </trkpt>
      <trkpt lat="47.45682" lon="6.75458">
        <ele>388.1</ele>
        <time>2017-05-14T09:11:47.999Z</time>
      </trkpt>
      <trkpt lat="47.45687" lon="6.75463">
        <ele>387.5</ele>
        <time>2017-05-14T09:11:48.999Z</time>
      </trkpt>
      <trkpt lat="47.4569" lon="6.75468">
        <ele>386.7</ele>
        <time>2017-05-14T09:11:49.999Z</time>
      </trkpt>
      <trkpt lat="47.45695" lon="6.75473">
        <ele>385.2</ele>
        <time>2017-05-14T09:11:50.999Z</time>
      </trkpt>
      <trkpt lat="47.45699" lon="6.75478">
        <ele>384.9</ele>
        <time>2017-05-14T09:11:51.999Z</time>
      </trkpt>
      <trkpt lat="47.45703" lon="6.75483">
        <ele>385.4</ele>
        <time>2017-05-14T09:11:52.999Z</time>
      </trkpt>
      <trkpt lat="47.45708" lon="6.75489">
        <ele>385.7</ele>
        <time>2017-05-14T09:11:53.999Z</time>
      </trkpt>
      <trkpt lat="47.45712" lon="6.75494">
        <ele>386.2</ele>
        <time>2017-05-14T09:11:54.999Z</time>
      </trkpt>
      <trkpt lat="47.45716" lon="6.75499">
        <ele>386.6</ele>
        <time>2017-05-14T09:11:55.999Z</time>
      </trkpt>
      <trkpt lat="47.4572" lon="6.75506">
        <ele>386.9</ele>
        <time>2017-05-14T09:11:56.999Z</time>
      </trkpt>
      <trkpt lat="47.45724" lon="6.75512">
        <ele>387.1</ele>
        <time>2017-05-14T09:11:57.999Z</time>
      </trkpt>
      <trkpt lat="47.45728" lon="6.75519">
        <ele>387.7</ele>
        <time>2017-05-14T09:11:58.999Z</time>
      </trkpt>
      <trkpt lat="47.45732" lon="6.75526">
        <ele>388.3</ele>
        <time>2017-05-14T09:11:59.999Z</time>
      </trkpt>
      <trkpt lat="47.45737" lon="6.75533">
        <ele>388.1</ele>
        <time>2017-05-14T09:12:00.999Z</time>
      </trkpt>
      <trkpt lat="47.45741" lon="6.7554">
        <ele>388.4</ele>
        <time>2017-05-14T09:12:01.999Z</time>
      </trkpt>
      <trkpt lat="47.45745" lon="6.75547">
        <ele>388.6</ele>
        <time>2017-05-14T09:12:02.999Z</time>
      </trkpt>
      <trkpt lat="47.45748" lon="6.75554">
        <ele>388.8</ele>
        <time>2017-05-14T09:12:03.999Z</time>
      </trkpt>
      <trkpt lat="47.45752" lon="6.75562">
        <ele>389</ele>
        <time>2017-05-14T09:12:04.999Z</time>
      </trkpt>
      <trkpt lat="47.45757" lon="6.75569">
        <ele>389.7</ele>
        <time>2017-05-14T09:12:05.999Z</time>
      </trkpt>
      <trkpt lat="47.45761" lon="6.75577">
        <ele>389.9</ele>
        <time>2017-05-14T09:12:06.999Z</time>
      </trkpt>
      <trkpt lat="47.45766" lon="6.75584">
        <ele>390.5</ele>
        <time>2017-05-14T09:12:07.999Z</time>
      </trkpt>
      <trkpt lat="47.4577" lon="6.7559">
        <ele>390.5</ele>
        <time>2017-05-14T09:12:08.999Z</time>
      </trkpt>
      <trkpt lat="47.45774" lon="6.75597">
        <ele>390</ele>
        <time>2017-05-14T09:12:09.999Z</time>
      </trkpt>
      <trkpt lat="47.45778" lon="6.75604">
        <ele>389.4</ele>
        <time>2017-05-14T09:12:10.999Z</time>
      </trkpt>
      <trkpt lat="47.45782" lon="6.7561">
        <ele>388.4</ele>
        <time>2017-05-14T09:12:11.999Z</time>
      </trkpt>
      <trkpt lat="47.45787" lon="6.75618">
        <ele>387.6</ele>
        <time>2017-05-14T09:12:12.999Z</time>
      </trkpt>
      <trkpt lat="47.45792" lon="6.75624">
        <ele>386.7</ele>
        <time>2017-05-14T09:12:13.999Z</time>
      </trkpt>
      <trkpt lat="47.45798" lon="6.7563">
        <ele>386.4</ele>
        <time>2017-05-14T09:12:14.999Z</time>
      </trkpt>
      <trkpt lat="47.45803" lon="6.75636">
        <ele>386.3</ele>
        <time>2017-05-14T09:12:15.999Z</time>
      </trkpt>
      <trkpt lat="47.45809" lon="6.75641">
        <ele>386.6</ele>
        <time>2017-05-14T09:12:16.999Z</time>
      </trkpt>
      <trkpt lat="47.45816" lon="6.75647">
        <ele>387.1</ele>
        <time>2017-05-14T09:12:17.999Z</time>
      </trkpt>
      <trkpt lat="47.45821" lon="6.75653">
        <ele>387</ele>
        <time>2017-05-14T09:12:18.999Z</time>
      </trkpt>
      <trkpt lat="47.45827" lon="6.75658">
        <ele>387.4</ele>
        <time>2017-05-14T09:12:19.999Z</time>
      </trkpt>
      <trkpt lat="47.45834" lon="6.75663">
        <ele>387.4</ele>
        <time>2017-05-14T09:12:20.999Z</time>
      </trkpt>
      <trkpt lat="47.4584" lon="6.75668">
        <ele>386.9</ele>
        <time>2017-05-14T09:12:21.999Z</time>
      </trkpt>
      <trkpt lat="47.45845" lon="6.75672">
        <ele>386.7</ele>
        <time>2017-05-14T09:12:22.999Z</time>
      </trkpt>
      <trkpt lat="47.4585" lon="6.75676">
        <ele>386.8</ele>
        <time>2017-05-14T09:12:23.999Z</time>
      </trkpt>
      <trkpt lat="47.45854" lon="6.7568">
        <ele>386.8</ele>
        <time>2017-05-14T09:12:24.999Z</time>
      </trkpt>
      <trkpt lat="47.45859" lon="6.75684">
        <ele>386.3</ele>
        <time>2017-05-14T09:12:25.999Z</time>
      </trkpt>
      <trkpt lat="47.45864" lon="6.75689">
        <ele>385.8</ele>
        <time>2017-05-14T09:12:26.999Z</time>
      </trkpt>
      <trkpt lat="47.4587" lon="6.75693">
        <ele>385.5</ele>
        <time>2017-05-14T09:12:27.999Z</time>
      </trkpt>
      <trkpt lat="47.45875" lon="6.75697">
        <ele>385.6</ele>
        <time>2017-05-14T09:12:28.999Z</time>
      </trkpt>
      <trkpt lat="47.45882" lon="6.75702">
        <ele>386.6</ele>
        <time>2017-05-14T09:12:29.999Z</time>
      </trkpt>
      <trkpt lat="47.45888" lon="6.75707">
        <ele>387.9</ele>
        <time>2017-05-14T09:12:30.999Z</time>
      </trkpt>
      <trkpt lat="47.45894" lon="6.75711">
        <ele>388.9</ele>
        <time>2017-05-14T09:12:31.999Z</time>
      </trkpt>
      <trkpt lat="47.459" lon="6.75715">
        <ele>389.5</ele>
        <time>2017-05-14T09:12:32.999Z</time>
      </trkpt>
      <trkpt lat="47.45906" lon="6.75719">
        <ele>390</ele>
        <time>2017-05-14T09:12:33.999Z</time>
      </trkpt>
      <trkpt lat="47.45911" lon="6.75723">
        <ele>390.5</ele>
        <time>2017-05-14T09:12:34.999Z</time>
      </trkpt>
      <trkpt lat="47.45916" lon="6.75727">
        <ele>390.4</ele>
        <time>2017-05-14T09:12:35.999Z</time>
      </trkpt>
      <trkpt lat="47.45922" lon="6.75732">
        <ele>389.5</ele>
        <time>2017-05-14T09:12:36.999Z</time>
      </trkpt>
      <trkpt lat="47.45926" lon="6.75736">
        <ele>389.2</ele>
        <time>2017-05-14T09:12:37.999Z</time>
      </trkpt>
      <trkpt lat="47.45931" lon="6.7574">
        <ele>388.8</ele>
        <time>2017-05-14T09:12:38.999Z</time>
      </trkpt>
      <trkpt lat="47.45936" lon="6.75744">
        <ele>388.7</ele>
        <time>2017-05-14T09:12:39.999Z</time>
      </trkpt>
      <trkpt lat="47.4594" lon="6.75748">
        <ele>388.6</ele>
        <time>2017-05-14T09:12:40.999Z</time>
      </trkpt>
      <trkpt lat="47.45944" lon="6.75751">
        <ele>388.7</ele>
        <time>2017-05-14T09:12:41.999Z</time>
      </trkpt>
      <trkpt lat="47.45949" lon="6.75756">
        <ele>388.9</ele>
        <time>2017-05-14T09:12:42.999Z</time>
      </trkpt>
      <trkpt lat="47.45954" lon="6.7576">
        <ele>388.8</ele>
        <time>2017-05-14T09:12:43.999Z</time>
      </trkpt>
      <trkpt lat="47.45959" lon="6.75765">
        <ele>388.3</ele>
        <time>2017-05-14T09:12:44.999Z</time>
      </trkpt>
      <trkpt lat="47.45964" lon="6.75771">
        <ele>387.9</ele>
        <time>2017-05-14T09:12:45.999Z</time>
      </trkpt>
      <trkpt lat="47.45969" lon="6.75776">
        <ele>387.3</ele>
        <time>2017-05-14T09:12:46.999Z</time>
      </trkpt>
      <trkpt lat="47.45974" lon="6.75781">
        <ele>386.2</ele>
        <time>2017-05-14T09:12:47.999Z</time>
      </trkpt>
      <trkpt lat="47.45978" lon="6.75786">
        <ele>385.1</ele>
        <time>2017-05-14T09:12:48.999Z</time>
      </trkpt>
      <trkpt lat="47.45983" lon="6.75792">
        <ele>384.2</ele>
        <time>2017-05-14T09:12:49.999Z</time>
      </trkpt>
      <trkpt lat="47.45987" lon="6.75797">
        <ele>384.3</ele>
        <time>2017-05-14T09:12:50.999Z</time>
      </trkpt>
      <trkpt lat="47.45992" lon="6.75802">
        <ele>384.5</ele>
        <time>2017-05-14T09:12:51.999Z</time>
      </trkpt>
      <trkpt lat="47.45997" lon="6.75807">
        <ele>384.2</ele>
        <time>2017-05-14T09:12:52.999Z</time>
      </trkpt>
      <trkpt lat="47.46001" lon="6.75812">
        <ele>383.9</ele>
        <time>2017-05-14T09:12:53.999Z</time>
      </trkpt>
      <trkpt lat="47.46005" lon="6.75817">
        <ele>383.7</ele>
        <time>2017-05-14T09:12:54.999Z</time>
      </trkpt>
      <trkpt lat="47.46008" lon="6.75821">
        <ele>383.2</ele>
        <time>2017-05-14T09:12:55.999Z</time>
      </trkpt>
      <trkpt lat="47.46011" lon="6.75825">
        <ele>383.1</ele>
        <time>2017-05-14T09:12:56.999Z</time>
      </trkpt>
      <trkpt lat="47.46014" lon="6.7583">
        <ele>382</ele>
        <time>2017-05-14T09:12:57.999Z</time>
      </trkpt>
      <trkpt lat="47.46017" lon="6.75833">
        <ele>381.5</ele>
        <time>2017-05-14T09:12:58.999Z</time>
      </trkpt>
      <trkpt lat="47.46021" lon="6.75835">
        <ele>381.5</ele>
        <time>2017-05-14T09:12:59.999Z</time>
      </trkpt>
      <trkpt lat="47.46024" lon="6.75834">
        <ele>381.4</ele>
        <time>2017-05-14T09:13:00.999Z</time>
      </trkpt>
      <trkpt lat="47.46028" lon="6.75838">
        <ele>381</ele>
        <time>2017-05-14T09:13:01.999Z</time>
      </trkpt>
      <trkpt lat="47.46031" lon="6.75842">
        <ele>381.2</ele>
        <time>2017-05-14T09:13:02.999Z</time>
      </trkpt>
      <trkpt lat="47.46035" lon="6.75846">
        <ele>381.5</ele>
        <time>2017-05-14T09:13:03.999Z</time>
      </trkpt>
      <trkpt lat="47.46039" lon="6.75851">
        <ele>381.7</ele>
        <time>2017-05-14T09:13:04.999Z</time>
      </trkpt>
      <trkpt lat="47.46044" lon="6.75858">
        <ele>381.8</ele>
        <time>2017-05-14T09:13:05.999Z</time>
      </trkpt>
      <trkpt lat="47.4605" lon="6.75867">
        <ele>381.5</ele>
        <time>2017-05-14T09:13:06.999Z</time>
      </trkpt>
      <trkpt lat="47.46054" lon="6.75876">
        <ele>381.4</ele>
        <time>2017-05-14T09:13:07.999Z</time>
      </trkpt>
      <trkpt lat="47.46059" lon="6.75886">
        <ele>381.5</ele>
        <time>2017-05-14T09:13:08.999Z</time>
      </trkpt>
      <trkpt lat="47.46062" lon="6.75894">
        <ele>381.7</ele>
        <time>2017-05-14T09:13:09.999Z</time>
      </trkpt>
      <trkpt lat="47.46066" lon="6.75903">
        <ele>381.2</ele>
        <time>2017-05-14T09:13:10.999Z</time>
      </trkpt>
      <trkpt lat="47.4607" lon="6.75912">
        <ele>380.8</ele>
        <time>2017-05-14T09:13:11.999Z</time>
      </trkpt>
      <trkpt lat="47.46073" lon="6.75921">
        <ele>380</ele>
        <time>2017-05-14T09:13:12.999Z</time>
      </trkpt>
      <trkpt lat="47.46075" lon="6.75931">
        <ele>379.6</ele>
        <time>2017-05-14T09:13:13.999Z</time>
      </trkpt>
      <trkpt lat="47.46078" lon="6.75939">
        <ele>379</ele>
        <time>2017-05-14T09:13:14.999Z</time>
      </trkpt>
      <trkpt lat="47.46081" lon="6.75948">
        <ele>377.8</ele>
        <time>2017-05-14T09:13:15.999Z</time>
      </trkpt>
      <trkpt lat="47.46084" lon="6.75956">
        <ele>377.3</ele>
        <time>2017-05-14T09:13:16.999Z</time>
      </trkpt>
      <trkpt lat="47.46087" lon="6.75962">
        <ele>377.3</ele>
        <time>2017-05-14T09:13:17.999Z</time>
      </trkpt>
      <trkpt lat="47.46089" lon="6.7597">
        <ele>377.8</ele>
        <time>2017-05-14T09:13:18.999Z</time>
      </trkpt>
      <trkpt lat="47.46092" lon="6.75979">
        <ele>378.1</ele>
        <time>2017-05-14T09:13:19.999Z</time>
      </trkpt>
      <trkpt lat="47.46096" lon="6.75989">
        <ele>378.3</ele>
        <time>2017-05-14T09:13:20.999Z</time>
      </trkpt>
      <trkpt lat="47.461" lon="6.75998">
        <ele>378.2</ele>
        <time>2017-05-14T09:13:21.999Z</time>
      </trkpt>
      <trkpt lat="47.46104" lon="6.76006">
        <ele>378.2</ele>
        <time>2017-05-14T09:13:22.999Z</time>
      </trkpt>
      <trkpt lat="47.46109" lon="6.76016">
        <ele>378.4</ele>
        <time>2017-05-14T09:13:23.999Z</time>
      </trkpt>
      <trkpt lat="47.46113" lon="6.76024">
        <ele>378.2</ele>
        <time>2017-05-14T09:13:24.999Z</time>
      </trkpt>
      <trkpt lat="47.46117" lon="6.76031">
        <ele>378.6</ele>
        <time>2017-05-14T09:13:25.999Z</time>
      </trkpt>
      <trkpt lat="47.46121" lon="6.76039">
        <ele>379.3</ele>
        <time>2017-05-14T09:13:26.999Z</time>
      </trkpt>
      <trkpt lat="47.46124" lon="6.76046">
        <ele>379.7</ele>
        <time>2017-05-14T09:13:27.999Z</time>
      </trkpt>
      <trkpt lat="47.46128" lon="6.7605">
        <ele>380.1</ele>
        <time>2017-05-14T09:13:28.999Z</time>
      </trkpt>
      <trkpt lat="47.46132" lon="6.76055">
        <ele>380</ele>
        <time>2017-05-14T09:13:29.999Z</time>
      </trkpt>
      <trkpt lat="47.46136" lon="6.76059">
        <ele>380.1</ele>
        <time>2017-05-14T09:13:30.999Z</time>
      </trkpt>
      <trkpt lat="47.46141" lon="6.76065">
        <ele>380.2</ele>
        <time>2017-05-14T09:13:31.999Z</time>
      </trkpt>
      <trkpt lat="47.46147" lon="6.76073">
        <ele>380</ele>
        <time>2017-05-14T09:13:32.999Z</time>
      </trkpt>
      <trkpt lat="47.46153" lon="6.76082">
        <ele>379.5</ele>
        <time>2017-05-14T09:13:33.999Z</time>
      </trkpt>
      <trkpt lat="47.46158" lon="6.7609">
        <ele>379.2</ele>
        <time>2017-05-14T09:13:34.999Z</time>
      </trkpt>
      <trkpt lat="47.46164" lon="6.76099">
        <ele>378.5</ele>
        <time>2017-05-14T09:13:35.999Z</time>
      </trkpt>
      <trkpt lat="47.46169" lon="6.76108">
        <ele>377.8</ele>
        <time>2017-05-14T09:13:36.999Z</time>
      </trkpt>
      <trkpt lat="47.46173" lon="6.76116">
        <ele>377.5</ele>
        <time>2017-05-14T09:13:37.999Z</time>
      </trkpt>
      <trkpt lat="47.46178" lon="6.76124">
        <ele>377.6</ele>
        <time>2017-05-14T09:13:38.999Z</time>
      </trkpt>
      <trkpt lat="47.46184" lon="6.76133">
        <ele>377.9</ele>
        <time>2017-05-14T09:13:39.999Z</time>
      </trkpt>
      <trkpt lat="47.46189" lon="6.7614">
        <ele>378.2</ele>
        <time>2017-05-14T09:13:40.999Z</time>
      </trkpt>
      <trkpt lat="47.46194" lon="6.76148">
        <ele>378.3</ele>
        <time>2017-05-14T09:13:41.999Z</time>
      </trkpt>
      <trkpt lat="47.462" lon="6.76156">
        <ele>378.2</ele>
        <time>2017-05-14T09:13:42.999Z</time>
      </trkpt>
      <trkpt lat="47.46205" lon="6.76165">
        <ele>377.9</ele>
        <time>2017-05-14T09:13:43.999Z</time>
      </trkpt>
      <trkpt lat="47.4621" lon="6.76172">
        <ele>377.3</ele>
        <time>2017-05-14T09:13:44.999Z</time>
      </trkpt>
      <trkpt lat="47.46216" lon="6.76179">
        <ele>376.7</ele>
        <time>2017-05-14T09:13:45.999Z</time>
      </trkpt>
      <trkpt lat="47.46221" lon="6.76187">
        <ele>376.8</ele>
        <time>2017-05-14T09:13:46.999Z</time>
      </trkpt>
      <trkpt lat="47.46228" lon="6.76195">
        <ele>376.9</ele>
        <time>2017-05-14T09:13:47.999Z</time>
      </trkpt>
      <trkpt lat="47.46233" lon="6.76201">
        <ele>377</ele>
        <time>2017-05-14T09:13:48.999Z</time>
      </trkpt>
      <trkpt lat="47.46238" lon="6.76207">
        <ele>377</ele>
        <time>2017-05-14T09:13:49.999Z</time>
      </trkpt>
      <trkpt lat="47.46243" lon="6.76213">
        <ele>376</ele>
        <time>2017-05-14T09:13:50.999Z</time>
      </trkpt>
      <trkpt lat="47.46249" lon="6.76219">
        <ele>375.4</ele>
        <time>2017-05-14T09:13:51.999Z</time>
      </trkpt>
      <trkpt lat="47.46253" lon="6.76225">
        <ele>374.8</ele>
        <time>2017-05-14T09:13:52.999Z</time>
      </trkpt>
      <trkpt lat="47.46257" lon="6.76229">
        <ele>373.7</ele>
        <time>2017-05-14T09:13:53.999Z</time>
      </trkpt>
      <trkpt lat="47.4626" lon="6.76233">
        <ele>372.2</ele>
        <time>2017-05-14T09:13:54.999Z</time>
      </trkpt>
      <trkpt lat="47.46264" lon="6.76232">
        <ele>370.9</ele>
        <time>2017-05-14T09:13:55.999Z</time>
      </trkpt>
      <trkpt lat="47.46269" lon="6.76233">
        <ele>370.7</ele>
        <time>2017-05-14T09:13:56.999Z</time>
      </trkpt>
      <trkpt lat="47.46271" lon="6.76234">
        <ele>370.6</ele>
        <time>2017-05-14T09:13:57.999Z</time>
      </trkpt>
      <trkpt lat="47.46274" lon="6.76236">
        <ele>370.6</ele>
        <time>2017-05-14T09:13:58.999Z</time>
      </trkpt>
      <trkpt lat="47.46278" lon="6.76237">
        <ele>370.5</ele>
        <time>2017-05-14T09:13:59.999Z</time>
      </trkpt>
      <trkpt lat="47.46281" lon="6.76237">
        <ele>370.4</ele>
        <time>2017-05-14T09:14:00.999Z</time>
      </trkpt>
      <trkpt lat="47.46285" lon="6.76236">
        <ele>368.7</ele>
        <time>2017-05-14T09:14:01.999Z</time>
      </trkpt>
      <trkpt lat="47.46289" lon="6.76234">
        <ele>368.5</ele>
        <time>2017-05-14T09:14:02.999Z</time>
      </trkpt>
      <trkpt lat="47.46293" lon="6.76234">
        <ele>368</ele>
        <time>2017-05-14T09:14:04.999Z</time>
      </trkpt>
      <trkpt lat="47.46295" lon="6.76237">
        <ele>367.7</ele>
        <time>2017-05-14T09:14:05.999Z</time>
      </trkpt>
      <trkpt lat="47.46298" lon="6.76239">
        <ele>367.4</ele>
        <time>2017-05-14T09:14:06.999Z</time>
      </trkpt>
      <trkpt lat="47.463" lon="6.76241">
        <ele>367.1</ele>
        <time>2017-05-14T09:14:07.999Z</time>
      </trkpt>
      <trkpt lat="47.46302" lon="6.76243">
        <ele>366.7</ele>
        <time>2017-05-14T09:14:08.999Z</time>
      </trkpt>
      <trkpt lat="47.46304" lon="6.76244">
        <ele>366.3</ele>
        <time>2017-05-14T09:14:09.999Z</time>
      </trkpt>
      <trkpt lat="47.46308" lon="6.76247">
        <ele>365.6</ele>
        <time>2017-05-14T09:14:11.999Z</time>
      </trkpt>
      <trkpt lat="47.4631" lon="6.76248">
        <ele>365.3</ele>
        <time>2017-05-14T09:14:12.999Z</time>
      </trkpt>
      <trkpt lat="47.46314" lon="6.76248">
        <ele>364.9</ele>
        <time>2017-05-14T09:14:13.999Z</time>
      </trkpt>
      <trkpt lat="47.46319" lon="6.76247">
        <ele>360.6</ele>
        <time>2017-05-14T09:14:14.999Z</time>
      </trkpt>
      <trkpt lat="47.46323" lon="6.76247">
        <ele>357.2</ele>
        <time>2017-05-14T09:14:15.999Z</time>
      </trkpt>
      <trkpt lat="47.46329" lon="6.7625">
        <ele>353.4</ele>
        <time>2017-05-14T09:14:16.999Z</time>
      </trkpt>
      <trkpt lat="47.46333" lon="6.76253">
        <ele>353.1</ele>
        <time>2017-05-14T09:14:17.999Z</time>
      </trkpt>
      <trkpt lat="47.46337" lon="6.76251">
        <ele>352.7</ele>
        <time>2017-05-14T09:14:18.999Z</time>
      </trkpt>
      <trkpt lat="47.4634" lon="6.7625">
        <ele>352.4</ele>
        <time>2017-05-14T09:14:19.999Z</time>
      </trkpt>
      <trkpt lat="47.46344" lon="6.7625">
        <ele>352</ele>
        <time>2017-05-14T09:14:20.999Z</time>
      </trkpt>
      <trkpt lat="47.4635" lon="6.76249">
        <ele>347.2</ele>
        <time>2017-05-14T09:14:21.999Z</time>
      </trkpt>
      <trkpt lat="47.46354" lon="6.76251">
        <ele>346.8</ele>
        <time>2017-05-14T09:14:22.999Z</time>
      </trkpt>
      <trkpt lat="47.46357" lon="6.76251">
        <ele>346.5</ele>
        <time>2017-05-14T09:14:23.999Z</time>
      </trkpt>
      <trkpt lat="47.46361" lon="6.7625">
        <ele>346.1</ele>
        <time>2017-05-14T09:14:24.999Z</time>
      </trkpt>
      <trkpt lat="47.46364" lon="6.7625">
        <ele>345.7</ele>
        <time>2017-05-14T09:14:25.999Z</time>
      </trkpt>
      <trkpt lat="47.46367" lon="6.76251">
        <ele>345.3</ele>
        <time>2017-05-14T09:14:26.999Z</time>
      </trkpt>
      <trkpt lat="47.46371" lon="6.76253">
        <ele>344.9</ele>
        <time>2017-05-14T09:14:27.999Z</time>
      </trkpt>
      <trkpt lat="47.46374" lon="6.76253">
        <ele>344.2</ele>
        <time>2017-05-14T09:14:29.999Z</time>
      </trkpt>
      <trkpt lat="47.46376" lon="6.76253">
        <ele>343.9</ele>
        <time>2017-05-14T09:14:30.999Z</time>
      </trkpt>
      <trkpt lat="47.46378" lon="6.76254">
        <ele>343.6</ele>
        <time>2017-05-14T09:14:31.999Z</time>
      </trkpt>
      <trkpt lat="47.46381" lon="6.76254">
        <ele>343.3</ele>
        <time>2017-05-14T09:14:32.999Z</time>
      </trkpt>
      <trkpt lat="47.46383" lon="6.76254">
        <ele>342.9</ele>
        <time>2017-05-14T09:14:33.999Z</time>
      </trkpt>
      <trkpt lat="47.46386" lon="6.76255">
        <ele>342.5</ele>
        <time>2017-05-14T09:14:34.999Z</time>
      </trkpt>
      <trkpt lat="47.46388" lon="6.76255">
        <ele>342.1</ele>
        <time>2017-05-14T09:14:35.999Z</time>
      </trkpt>
      <trkpt lat="47.4639" lon="6.76256">
        <ele>341.7</ele>
        <time>2017-05-14T09:14:36.999Z</time>
      </trkpt>
      <trkpt lat="47.46394" lon="6.76255">
        <ele>341.2</ele>
        <time>2017-05-14T09:14:37.999Z</time>
      </trkpt>
      <trkpt lat="47.46398" lon="6.76257">
        <ele>340.9</ele>
        <time>2017-05-14T09:14:38.999Z</time>
      </trkpt>
      <trkpt lat="47.46402" lon="6.76259">
        <ele>340.4</ele>
        <time>2017-05-14T09:14:39.999Z</time>
      </trkpt>
      <trkpt lat="47.46405" lon="6.76261">
        <ele>340</ele>
        <time>2017-05-14T09:14:40.999Z</time>
      </trkpt>
      <trkpt lat="47.46407" lon="6.7626">
        <ele>339.6</ele>
        <time>2017-05-14T09:14:41.999Z</time>
      </trkpt>
      <trkpt lat="47.46411" lon="6.7626">
        <ele>339.1</ele>
        <time>2017-05-14T09:14:42.999Z</time>
      </trkpt>
      <trkpt lat="47.46414" lon="6.7626">
        <ele>338.7</ele>
        <time>2017-05-14T09:14:43.999Z</time>
      </trkpt>
      <trkpt lat="47.46418" lon="6.76261">
        <ele>338.3</ele>
        <time>2017-05-14T09:14:44.999Z</time>
      </trkpt>
      <trkpt lat="47.46422" lon="6.76261">
        <ele>337.8</ele>
        <time>2017-05-14T09:14:45.999Z</time>
      </trkpt>
      <trkpt lat="47.46426" lon="6.76261">
        <ele>337.4</ele>
        <time>2017-05-14T09:14:46.999Z</time>
      </trkpt>
      <trkpt lat="47.46431" lon="6.7626">
        <ele>337</ele>
        <time>2017-05-14T09:14:47.999Z</time>
      </trkpt>
      <trkpt lat="47.46435" lon="6.76258">
        <ele>336.7</ele>
        <time>2017-05-14T09:14:48.999Z</time>
      </trkpt>
      <trkpt lat="47.46437" lon="6.76258">
        <ele>336.3</ele>
        <time>2017-05-14T09:14:49.999Z</time>
      </trkpt>
      <trkpt lat="47.46442" lon="6.76257">
        <ele>335.6</ele>
        <time>2017-05-14T09:14:51.999Z</time>
      </trkpt>
      <trkpt lat="47.46446" lon="6.76257">
        <ele>335.3</ele>
        <time>2017-05-14T09:14:52.999Z</time>
      </trkpt>
      <trkpt lat="47.46451" lon="6.76257">
        <ele>335</ele>
        <time>2017-05-14T09:14:53.999Z</time>
      </trkpt>
      <trkpt lat="47.46454" lon="6.76256">
        <ele>334.7</ele>
        <time>2017-05-14T09:14:54.999Z</time>
      </trkpt>
      <trkpt lat="47.46457" lon="6.76258">
        <ele>334.4</ele>
        <time>2017-05-14T09:14:55.999Z</time>
      </trkpt>
      <trkpt lat="47.46461" lon="6.76259">
        <ele>334</ele>
        <time>2017-05-14T09:14:56.999Z</time>
      </trkpt>
      <trkpt lat="47.46465" lon="6.7626">
        <ele>333.6</ele>
        <time>2017-05-14T09:14:57.999Z</time>
      </trkpt>
      <trkpt lat="47.46468" lon="6.76261">
        <ele>333.2</ele>
        <time>2017-05-14T09:14:58.999Z</time>
      </trkpt>
      <trkpt lat="47.46474" lon="6.76264">
        <ele>332.8</ele>
        <time>2017-05-14T09:14:59.999Z</time>
      </trkpt>
      <trkpt lat="47.4648" lon="6.76266">
        <ele>332.5</ele>
        <time>2017-05-14T09:15:00.999Z</time>
      </trkpt>
      <trkpt lat="47.46486" lon="6.76267">
        <ele>332.4</ele>
        <time>2017-05-14T09:15:01.999Z</time>
      </trkpt>
      <trkpt lat="47.4649" lon="6.76268">
        <ele>332.4</ele>
        <time>2017-05-14T09:15:02.999Z</time>
      </trkpt>
      <trkpt lat="47.46495" lon="6.76269">
        <ele>332.4</ele>
        <time>2017-05-14T09:15:03.999Z</time>
      </trkpt>
      <trkpt lat="47.46503" lon="6.76269">
        <ele>332.4</ele>
        <time>2017-05-14T09:15:04.999Z</time>
      </trkpt>
      <trkpt lat="47.46509" lon="6.7627">
        <ele>332.5</ele>
        <time>2017-05-14T09:15:05.999Z</time>
      </trkpt>
      <trkpt lat="47.46517" lon="6.7627">
        <ele>332.7</ele>
        <time>2017-05-14T09:15:06.999Z</time>
      </trkpt>
      <trkpt lat="47.46523" lon="6.76271">
        <ele>332.9</ele>
        <time>2017-05-14T09:15:07.999Z</time>
      </trkpt>
      <trkpt lat="47.46529" lon="6.76271">
        <ele>333.2</ele>
        <time>2017-05-14T09:15:08.999Z</time>
      </trkpt>
      <trkpt lat="47.46536" lon="6.76272">
        <ele>333.5</ele>
        <time>2017-05-14T09:15:09.999Z</time>
      </trkpt>
      <trkpt lat="47.4654" lon="6.76272">
        <ele>333.7</ele>
        <time>2017-05-14T09:15:10.999Z</time>
      </trkpt>
      <trkpt lat="47.46545" lon="6.76272">
        <ele>333.9</ele>
        <time>2017-05-14T09:15:11.999Z</time>
      </trkpt>
      <trkpt lat="47.4655" lon="6.76273">
        <ele>334.2</ele>
        <time>2017-05-14T09:15:12.999Z</time>
      </trkpt>
      <trkpt lat="47.46555" lon="6.76275">
        <ele>334.4</ele>
        <time>2017-05-14T09:15:13.999Z</time>
      </trkpt>
      <trkpt lat="47.4656" lon="6.76278">
        <ele>334.7</ele>
        <time>2017-05-14T09:15:14.999Z</time>
      </trkpt>
      <trkpt lat="47.46567" lon="6.76283">
        <ele>335</ele>
        <time>2017-05-14T09:15:15.999Z</time>
      </trkpt>
      <trkpt lat="47.46573" lon="6.76286">
        <ele>335.4</ele>
        <time>2017-05-14T09:15:16.999Z</time>
      </trkpt>
      <trkpt lat="47.46576" lon="6.76287">
        <ele>335.8</ele>
        <time>2017-05-14T09:15:17.999Z</time>
      </trkpt>
      <trkpt lat="47.4658" lon="6.76291">
        <ele>340.3</ele>
        <time>2017-05-14T09:15:18.999Z</time>
      </trkpt>
      <trkpt lat="47.46585" lon="6.76294">
        <ele>344.3</ele>
        <time>2017-05-14T09:15:19.999Z</time>
      </trkpt>
      <trkpt lat="47.4659" lon="6.76298">
        <ele>347.7</ele>
        <time>2017-05-14T09:15:20.999Z</time>
      </trkpt>
      <trkpt lat="47.46595" lon="6.76301">
        <ele>350.3</ele>
        <time>2017-05-14T09:15:21.999Z</time>
      </trkpt>
      <trkpt lat="47.46602" lon="6.76303">
        <ele>352.7</ele>
        <time>2017-05-14T09:15:22.999Z</time>
      </trkpt>
      <trkpt lat="47.46608" lon="6.76305">
        <ele>355.3</ele>
        <time>2017-05-14T09:15:23.999Z</time>
      </trkpt>
      <trkpt lat="47.46613" lon="6.76306">
        <ele>355.4</ele>
        <time>2017-05-14T09:15:24.999Z</time>
      </trkpt>
      <trkpt lat="47.46618" lon="6.76307">
        <ele>355.7</ele>
        <time>2017-05-14T09:15:25.999Z</time>
      </trkpt>
      <trkpt lat="47.46623" lon="6.76308">
        <ele>356.3</ele>
        <time>2017-05-14T09:15:26.999Z</time>
      </trkpt>
      <trkpt lat="47.46629" lon="6.76309">
        <ele>356.8</ele>
        <time>2017-05-14T09:15:27.999Z</time>
      </trkpt>
      <trkpt lat="47.46634" lon="6.7631">
        <ele>356.7</ele>
        <time>2017-05-14T09:15:28.999Z</time>
      </trkpt>
      <trkpt lat="47.46639" lon="6.7631">
        <ele>356.8</ele>
        <time>2017-05-14T09:15:29.999Z</time>
      </trkpt>
      <trkpt lat="47.46644" lon="6.76309">
        <ele>356.8</ele>
        <time>2017-05-14T09:15:30.999Z</time>
      </trkpt>
      <trkpt lat="47.4665" lon="6.76309">
        <ele>356.9</ele>
        <time>2017-05-14T09:15:31.999Z</time>
      </trkpt>
      <trkpt lat="47.46655" lon="6.76309">
        <ele>357.2</ele>
        <time>2017-05-14T09:15:32.999Z</time>
      </trkpt>
      <trkpt lat="47.46659" lon="6.76309">
        <ele>357.3</ele>
        <time>2017-05-14T09:15:33.999Z</time>
      </trkpt>
      <trkpt lat="47.46664" lon="6.76308">
        <ele>358.8</ele>
        <time>2017-05-14T09:15:34.999Z</time>
      </trkpt>
      <trkpt lat="47.4667" lon="6.76308">
        <ele>358.9</ele>
        <time>2017-05-14T09:15:35.999Z</time>
      </trkpt>
      <trkpt lat="47.46675" lon="6.76309">
        <ele>359</ele>
        <time>2017-05-14T09:15:36.999Z</time>
      </trkpt>
      <trkpt lat="47.46681" lon="6.76309">
        <ele>359.2</ele>
        <time>2017-05-14T09:15:37.999Z</time>
      </trkpt>
      <trkpt lat="47.46685" lon="6.7631">
        <ele>359.4</ele>
        <time>2017-05-14T09:15:38.999Z</time>
      </trkpt>
      <trkpt lat="47.46689" lon="6.7631">
        <ele>359.5</ele>
        <time>2017-05-14T09:15:39.999Z</time>
      </trkpt>
      <trkpt lat="47.46692" lon="6.7631">
        <ele>359.6</ele>
        <time>2017-05-14T09:15:40.999Z</time>
      </trkpt>
      <trkpt lat="47.46695" lon="6.7631">
        <ele>359.7</ele>
        <time>2017-05-14T09:15:41.999Z</time>
      </trkpt>
      <trkpt lat="47.467" lon="6.76308">
        <ele>359.9</ele>
        <time>2017-05-14T09:15:42.999Z</time>
      </trkpt>
      <trkpt lat="47.46704" lon="6.76306">
        <ele>360</ele>
        <time>2017-05-14T09:15:43.999Z</time>
      </trkpt>
      <trkpt lat="47.46707" lon="6.76305">
        <ele>360.2</ele>
        <time>2017-05-14T09:15:44.999Z</time>
      </trkpt>
      <trkpt lat="47.4671" lon="6.76304">
        <ele>360.4</ele>
        <time>2017-05-14T09:15:45.999Z</time>
      </trkpt>
      <trkpt lat="47.46714" lon="6.76302">
        <ele>360.6</ele>
        <time>2017-05-14T09:15:46.999Z</time>
      </trkpt>
      <trkpt lat="47.46719" lon="6.763">
        <ele>360.7</ele>
        <time>2017-05-14T09:15:47.999Z</time>
      </trkpt>
      <trkpt lat="47.46723" lon="6.76298">
        <ele>360.9</ele>
        <time>2017-05-14T09:15:48.999Z</time>
      </trkpt>
      <trkpt lat="47.46727" lon="6.76296">
        <ele>361</ele>
        <time>2017-05-14T09:15:49.999Z</time>
      </trkpt>
      <trkpt lat="47.4673" lon="6.76295">
        <ele>361.1</ele>
        <time>2017-05-14T09:15:50.999Z</time>
      </trkpt>
      <trkpt lat="47.46733" lon="6.76293">
        <ele>361.1</ele>
        <time>2017-05-14T09:15:51.999Z</time>
      </trkpt>
      <trkpt lat="47.46736" lon="6.76292">
        <ele>361.1</ele>
        <time>2017-05-14T09:15:52.999Z</time>
      </trkpt>
      <trkpt lat="47.46739" lon="6.76291">
        <ele>361.1</ele>
        <time>2017-05-14T09:15:53.999Z</time>
      </trkpt>
      <trkpt lat="47.46742" lon="6.76291">
        <ele>361</ele>
        <time>2017-05-14T09:15:54.999Z</time>
      </trkpt>
      <trkpt lat="47.46745" lon="6.76292">
        <ele>360.7</ele>
        <time>2017-05-14T09:15:55.999Z</time>
      </trkpt>
      <trkpt lat="47.46749" lon="6.76292">
        <ele>360.6</ele>
        <time>2017-05-14T09:15:56.999Z</time>
      </trkpt>
      <trkpt lat="47.46753" lon="6.76291">
        <ele>360.5</ele>
        <time>2017-05-14T09:15:57.999Z</time>
      </trkpt>
      <trkpt lat="47.46756" lon="6.76291">
        <ele>360.4</ele>
        <time>2017-05-14T09:15:58.999Z</time>
      </trkpt>
      <trkpt lat="47.4676" lon="6.76291">
        <ele>360.3</ele>
        <time>2017-05-14T09:15:59.999Z</time>
      </trkpt>
      <trkpt lat="47.46764" lon="6.76291">
        <ele>360.2</ele>
        <time>2017-05-14T09:16:00.999Z</time>
      </trkpt>
      <trkpt lat="47.46769" lon="6.76291">
        <ele>360.1</ele>
        <time>2017-05-14T09:16:01.999Z</time>
      </trkpt>
      <trkpt lat="47.46775" lon="6.76291">
        <ele>359.2</ele>
        <time>2017-05-14T09:16:02.999Z</time>
      </trkpt>
      <trkpt lat="47.46781" lon="6.76294">
        <ele>359</ele>
        <time>2017-05-14T09:16:03.999Z</time>
      </trkpt>
      <trkpt lat="47.46787" lon="6.76297">
        <ele>359.4</ele>
        <time>2017-05-14T09:16:04.999Z</time>
      </trkpt>
      <trkpt lat="47.46792" lon="6.763">
        <ele>360.6</ele>
        <time>2017-05-14T09:16:05.999Z</time>
      </trkpt>
      <trkpt lat="47.46799" lon="6.76303">
        <ele>361.5</ele>
        <time>2017-05-14T09:16:06.999Z</time>
      </trkpt>
      <trkpt lat="47.46804" lon="6.76306">
        <ele>362.3</ele>
        <time>2017-05-14T09:16:07.999Z</time>
      </trkpt>
      <trkpt lat="47.4681" lon="6.76308">
        <ele>362.5</ele>
        <time>2017-05-14T09:16:08.999Z</time>
      </trkpt>
      <trkpt lat="47.46815" lon="6.7631">
        <ele>362.6</ele>
        <time>2017-05-14T09:16:09.999Z</time>
      </trkpt>
      <trkpt lat="47.46819" lon="6.76313">
        <ele>361.5</ele>
        <time>2017-05-14T09:16:10.999Z</time>
      </trkpt>
      <trkpt lat="47.46823" lon="6.76315">
        <ele>360.3</ele>
        <time>2017-05-14T09:16:11.999Z</time>
      </trkpt>
      <trkpt lat="47.46828" lon="6.76318">
        <ele>360.1</ele>
        <time>2017-05-14T09:16:12.999Z</time>
      </trkpt>
      <trkpt lat="47.46832" lon="6.76321">
        <ele>360.4</ele>
        <time>2017-05-14T09:16:13.999Z</time>
      </trkpt>
      <trkpt lat="47.46836" lon="6.76324">
        <ele>361</ele>
        <time>2017-05-14T09:16:14.999Z</time>
      </trkpt>
      <trkpt lat="47.46841" lon="6.76327">
        <ele>360.7</ele>
        <time>2017-05-14T09:16:15.999Z</time>
      </trkpt>
      <trkpt lat="47.46846" lon="6.7633">
        <ele>360.9</ele>
        <time>2017-05-14T09:16:16.999Z</time>
      </trkpt>
      <trkpt lat="47.4685" lon="6.76334">
        <ele>360.8</ele>
        <time>2017-05-14T09:16:17.999Z</time>
      </trkpt>
      <trkpt lat="47.46855" lon="6.76337">
        <ele>361</ele>
        <time>2017-05-14T09:16:18.999Z</time>
      </trkpt>
      <trkpt lat="47.46861" lon="6.76337">
        <ele>360.7</ele>
        <time>2017-05-14T09:16:19.999Z</time>
      </trkpt>
      <trkpt lat="47.46866" lon="6.76336">
        <ele>361.1</ele>
        <time>2017-05-14T09:16:20.999Z</time>
      </trkpt>
      <trkpt lat="47.46872" lon="6.76335">
        <ele>362.3</ele>
        <time>2017-05-14T09:16:21.999Z</time>
      </trkpt>
      <trkpt lat="47.46877" lon="6.76333">
        <ele>363.1</ele>
        <time>2017-05-14T09:16:22.999Z</time>
      </trkpt>
      <trkpt lat="47.46883" lon="6.76332">
        <ele>363.8</ele>
        <time>2017-05-14T09:16:23.999Z</time>
      </trkpt>
      <trkpt lat="47.46889" lon="6.76331">
        <ele>364.4</ele>
        <time>2017-05-14T09:16:24.999Z</time>
      </trkpt>
      <trkpt lat="47.46895" lon="6.76329">
        <ele>365.1</ele>
        <time>2017-05-14T09:16:25.999Z</time>
      </trkpt>
      <trkpt lat="47.46902" lon="6.76328">
        <ele>365.9</ele>
        <time>2017-05-14T09:16:26.999Z</time>
      </trkpt>
      <trkpt lat="47.46906" lon="6.76327">
        <ele>366.4</ele>
        <time>2017-05-14T09:16:27.999Z</time>
      </trkpt>
      <trkpt lat="47.4691" lon="6.76327">
        <ele>366.5</ele>
        <time>2017-05-14T09:16:28.999Z</time>
      </trkpt>
      <trkpt lat="47.46913" lon="6.76327">
        <ele>366.5</ele>
        <time>2017-05-14T09:16:29.999Z</time>
      </trkpt>
      <trkpt lat="47.46917" lon="6.76327">
        <ele>366.5</ele>
        <time>2017-05-14T09:16:30.999Z</time>
      </trkpt>
      <trkpt lat="47.46918" lon="6.76327">
        <ele>366.6</ele>
        <time>2017-05-14T09:16:31.999Z</time>
      </trkpt>
      <trkpt lat="47.46921" lon="6.76328">
        <ele>366.8</ele>
        <time>2017-05-14T09:16:34.999Z</time>
      </trkpt>
      <trkpt lat="47.46922" lon="6.76328">
        <ele>366.9</ele>
        <time>2017-05-14T09:16:35.999Z</time>
      </trkpt>
      <trkpt lat="47.46924" lon="6.76328">
        <ele>367</ele>
        <time>2017-05-14T09:16:36.999Z</time>
      </trkpt>
      <trkpt lat="47.46927" lon="6.76328">
        <ele>367</ele>
        <time>2017-05-14T09:16:37.999Z</time>
      </trkpt>
      <trkpt lat="47.4693" lon="6.76329">
        <ele>367</ele>
        <time>2017-05-14T09:16:38.999Z</time>
      </trkpt>
      <trkpt lat="47.46932" lon="6.76329">
        <ele>367</ele>
        <time>2017-05-14T09:16:39.999Z</time>
      </trkpt>
      <trkpt lat="47.46935" lon="6.76329">
        <ele>367</ele>
        <time>2017-05-14T09:16:40.999Z</time>
      </trkpt>
      <trkpt lat="47.46937" lon="6.7633">
        <ele>367.1</ele>
        <time>2017-05-14T09:16:41.999Z</time>
      </trkpt>
      <trkpt lat="47.4694" lon="6.7633">
        <ele>367.2</ele>
        <time>2017-05-14T09:16:42.999Z</time>
      </trkpt>
      <trkpt lat="47.46943" lon="6.7633">
        <ele>367.3</ele>
        <time>2017-05-14T09:16:43.999Z</time>
      </trkpt>
      <trkpt lat="47.46946" lon="6.7633">
        <ele>367.3</ele>
        <time>2017-05-14T09:16:44.999Z</time>
      </trkpt>
      <trkpt lat="47.46949" lon="6.76331">
        <ele>367.4</ele>
        <time>2017-05-14T09:16:45.999Z</time>
      </trkpt>
      <trkpt lat="47.46952" lon="6.76331">
        <ele>367.4</ele>
        <time>2017-05-14T09:16:46.999Z</time>
      </trkpt>
      <trkpt lat="47.46956" lon="6.76332">
        <ele>367.4</ele>
        <time>2017-05-14T09:16:48.000Z</time>
      </trkpt>
      <trkpt lat="47.46959" lon="6.76332">
        <ele>367.4</ele>
        <time>2017-05-14T09:16:48.999Z</time>
      </trkpt>
      <trkpt lat="47.46962" lon="6.76332">
        <ele>367.5</ele>
        <time>2017-05-14T09:16:49.999Z</time>
      </trkpt>
      <trkpt lat="47.46965" lon="6.76333">
        <ele>367.5</ele>
        <time>2017-05-14T09:16:51.000Z</time>
      </trkpt>
      <trkpt lat="47.46969" lon="6.76334">
        <ele>367.6</ele>
        <time>2017-05-14T09:16:52.000Z</time>
      </trkpt>
      <trkpt lat="47.46972" lon="6.76334">
        <ele>367.7</ele>
        <time>2017-05-14T09:16:53.000Z</time>
      </trkpt>
      <trkpt lat="47.46976" lon="6.76335">
        <ele>367.8</ele>
        <time>2017-05-14T09:16:54.000Z</time>
      </trkpt>
      <trkpt lat="47.4698" lon="6.76336">
        <ele>367.9</ele>
        <time>2017-05-14T09:16:55.000Z</time>
      </trkpt>
      <trkpt lat="47.46983" lon="6.76337">
        <ele>368</ele>
        <time>2017-05-14T09:16:56.000Z</time>
      </trkpt>
      <trkpt lat="47.46986" lon="6.76337">
        <ele>368</ele>
        <time>2017-05-14T09:16:57.000Z</time>
      </trkpt>
      <trkpt lat="47.46989" lon="6.76338">
        <ele>368</ele>
        <time>2017-05-14T09:16:58.000Z</time>
      </trkpt>
      <trkpt lat="47.46992" lon="6.76339">
        <ele>368</ele>
        <time>2017-05-14T09:16:59.000Z</time>
      </trkpt>
      <trkpt lat="47.46997" lon="6.76339">
        <ele>368.1</ele>
        <time>2017-05-14T09:17:00.000Z</time>
      </trkpt>
      <trkpt lat="47.47001" lon="6.7634">
        <ele>368.1</ele>
        <time>2017-05-14T09:17:01.000Z</time>
      </trkpt>
      <trkpt lat="47.47004" lon="6.76341">
        <ele>368.1</ele>
        <time>2017-05-14T09:17:02.000Z</time>
      </trkpt>
      <trkpt lat="47.47008" lon="6.76342">
        <ele>368.1</ele>
        <time>2017-05-14T09:17:03.000Z</time>
      </trkpt>
      <trkpt lat="47.47012" lon="6.76343">
        <ele>368.1</ele>
        <time>2017-05-14T09:17:04.000Z</time>
      </trkpt>
      <trkpt lat="47.47016" lon="6.76344">
        <ele>368</ele>
        <time>2017-05-14T09:17:05.000Z</time>
      </trkpt>
      <trkpt lat="47.47021" lon="6.76345">
        <ele>368.9</ele>
        <time>2017-05-14T09:17:06.000Z</time>
      </trkpt>
      <trkpt lat="47.47026" lon="6.76347">
        <ele>369.5</ele>
        <time>2017-05-14T09:17:07.000Z</time>
      </trkpt>
      <trkpt lat="47.47031" lon="6.76348">
        <ele>369.8</ele>
        <time>2017-05-14T09:17:08.000Z</time>
      </trkpt>
      <trkpt lat="47.47036" lon="6.76349">
        <ele>370.1</ele>
        <time>2017-05-14T09:17:09.000Z</time>
      </trkpt>
      <trkpt lat="47.47041" lon="6.7635">
        <ele>371.1</ele>
        <time>2017-05-14T09:17:10.000Z</time>
      </trkpt>
      <trkpt lat="47.47046" lon="6.76351">
        <ele>372</ele>
        <time>2017-05-14T09:17:11.000Z</time>
      </trkpt>
      <trkpt lat="47.4705" lon="6.76352">
        <ele>372.8</ele>
        <time>2017-05-14T09:17:12.000Z</time>
      </trkpt>
      <trkpt lat="47.47055" lon="6.76354">
        <ele>373.6</ele>
        <time>2017-05-14T09:17:13.000Z</time>
      </trkpt>
      <trkpt lat="47.4706" lon="6.76355">
        <ele>373.4</ele>
        <time>2017-05-14T09:17:14.000Z</time>
      </trkpt>
      <trkpt lat="47.47064" lon="6.76356">
        <ele>373.6</ele>
        <time>2017-05-14T09:17:15.000Z</time>
      </trkpt>
      <trkpt lat="47.47069" lon="6.76357">
        <ele>373.8</ele>
        <time>2017-05-14T09:17:16.000Z</time>
      </trkpt>
      <trkpt lat="47.47075" lon="6.76358">
        <ele>373.3</ele>
        <time>2017-05-14T09:17:17.000Z</time>
      </trkpt>
      <trkpt lat="47.47081" lon="6.7636">
        <ele>373.2</ele>
        <time>2017-05-14T09:17:18.000Z</time>
      </trkpt>
      <trkpt lat="47.47087" lon="6.76361">
        <ele>373.1</ele>
        <time>2017-05-14T09:17:19.000Z</time>
      </trkpt>
      <trkpt lat="47.47092" lon="6.76362">
        <ele>372.6</ele>
        <time>2017-05-14T09:17:20.000Z</time>
      </trkpt>
      <trkpt lat="47.47098" lon="6.76364">
        <ele>372.5</ele>
        <time>2017-05-14T09:17:21.000Z</time>
      </trkpt>
      <trkpt lat="47.47105" lon="6.76365">
        <ele>372.4</ele>
        <time>2017-05-14T09:17:22.000Z</time>
      </trkpt>
      <trkpt lat="47.4711" lon="6.76367">
        <ele>372.4</ele>
        <time>2017-05-14T09:17:23.000Z</time>
      </trkpt>
      <trkpt lat="47.47118" lon="6.76369">
        <ele>372.3</ele>
        <time>2017-05-14T09:17:24.000Z</time>
      </trkpt>
      <trkpt lat="47.47125" lon="6.76371">
        <ele>371.8</ele>
        <time>2017-05-14T09:17:25.000Z</time>
      </trkpt>
      <trkpt lat="47.47131" lon="6.76373">
        <ele>371.4</ele>
        <time>2017-05-14T09:17:26.000Z</time>
      </trkpt>
      <trkpt lat="47.47138" lon="6.76375">
        <ele>371</ele>
        <time>2017-05-14T09:17:27.000Z</time>
      </trkpt>
      <trkpt lat="47.47146" lon="6.76377">
        <ele>370.1</ele>
        <time>2017-05-14T09:17:28.000Z</time>
      </trkpt>
      <trkpt lat="47.47152" lon="6.76379">
        <ele>369.4</ele>
        <time>2017-05-14T09:17:29.000Z</time>
      </trkpt>
      <trkpt lat="47.47159" lon="6.7638">
        <ele>368.4</ele>
        <time>2017-05-14T09:17:30.000Z</time>
      </trkpt>
      <trkpt lat="47.47166" lon="6.76382">
        <ele>367.6</ele>
        <time>2017-05-14T09:17:31.000Z</time>
      </trkpt>
      <trkpt lat="47.47172" lon="6.76384">
        <ele>367</ele>
        <time>2017-05-14T09:17:32.000Z</time>
      </trkpt>
      <trkpt lat="47.47178" lon="6.76386">
        <ele>366.5</ele>
        <time>2017-05-14T09:17:33.000Z</time>
      </trkpt>
      <trkpt lat="47.47185" lon="6.76389">
        <ele>366.3</ele>
        <time>2017-05-14T09:17:34.000Z</time>
      </trkpt>
      <trkpt lat="47.47192" lon="6.76391">
        <ele>366.2</ele>
        <time>2017-05-14T09:17:35.000Z</time>
      </trkpt>
      <trkpt lat="47.47198" lon="6.76393">
        <ele>366.4</ele>
        <time>2017-05-14T09:17:36.000Z</time>
      </trkpt>
      <trkpt lat="47.47205" lon="6.76394">
        <ele>366.8</ele>
        <time>2017-05-14T09:17:37.000Z</time>
      </trkpt>
      <trkpt lat="47.47212" lon="6.76396">
        <ele>367.3</ele>
        <time>2017-05-14T09:17:38.000Z</time>
      </trkpt>
      <trkpt lat="47.47218" lon="6.76398">
        <ele>368.1</ele>
        <time>2017-05-14T09:17:39.000Z</time>
      </trkpt>
      <trkpt lat="47.47224" lon="6.76399">
        <ele>368.3</ele>
        <time>2017-05-14T09:17:40.000Z</time>
      </trkpt>
      <trkpt lat="47.4723" lon="6.76399">
        <ele>368.8</ele>
        <time>2017-05-14T09:17:41.000Z</time>
      </trkpt>
      <trkpt lat="47.47236" lon="6.764">
        <ele>369.3</ele>
        <time>2017-05-14T09:17:42.000Z</time>
      </trkpt>
      <trkpt lat="47.47243" lon="6.764">
        <ele>370.1</ele>
        <time>2017-05-14T09:17:43.000Z</time>
      </trkpt>
      <trkpt lat="47.47249" lon="6.76399">
        <ele>370.5</ele>
        <time>2017-05-14T09:17:44.000Z</time>
      </trkpt>
      <trkpt lat="47.47256" lon="6.76397">
        <ele>370.7</ele>
        <time>2017-05-14T09:17:45.000Z</time>
      </trkpt>
      <trkpt lat="47.47263" lon="6.76396">
        <ele>370.4</ele>
        <time>2017-05-14T09:17:46.000Z</time>
      </trkpt>
      <trkpt lat="47.47269" lon="6.76394">
        <ele>370.3</ele>
        <time>2017-05-14T09:17:47.000Z</time>
      </trkpt>
      <trkpt lat="47.47275" lon="6.76392">
        <ele>369.7</ele>
        <time>2017-05-14T09:17:48.000Z</time>
      </trkpt>
      <trkpt lat="47.47281" lon="6.7639">
        <ele>369.1</ele>
        <time>2017-05-14T09:17:49.000Z</time>
      </trkpt>
      <trkpt lat="47.47285" lon="6.76389">
        <ele>369</ele>
        <time>2017-05-14T09:17:50.000Z</time>
      </trkpt>
      <trkpt lat="47.47291" lon="6.76387">
        <ele>368.7</ele>
        <time>2017-05-14T09:17:51.000Z</time>
      </trkpt>
      <trkpt lat="47.47295" lon="6.76385">
        <ele>368.4</ele>
        <time>2017-05-14T09:17:52.000Z</time>
      </trkpt>
      <trkpt lat="47.473" lon="6.76383">
        <ele>368.1</ele>
        <time>2017-05-14T09:17:53.000Z</time>
      </trkpt>
      <trkpt lat="47.47306" lon="6.76383">
        <ele>367.8</ele>
        <time>2017-05-14T09:17:54.000Z</time>
      </trkpt>
      <trkpt lat="47.47312" lon="6.76384">
        <ele>366.9</ele>
        <time>2017-05-14T09:17:55.000Z</time>
      </trkpt>
      <trkpt lat="47.47317" lon="6.76386">
        <ele>366.8</ele>
        <time>2017-05-14T09:17:56.000Z</time>
      </trkpt>
      <trkpt lat="47.47322" lon="6.76388">
        <ele>366.7</ele>
        <time>2017-05-14T09:17:57.000Z</time>
      </trkpt>
      <trkpt lat="47.47328" lon="6.76391">
        <ele>366.5</ele>
        <time>2017-05-14T09:17:58.000Z</time>
      </trkpt>
      <trkpt lat="47.47334" lon="6.76393">
        <ele>366.6</ele>
        <time>2017-05-14T09:17:59.000Z</time>
      </trkpt>
      <trkpt lat="47.47339" lon="6.76395">
        <ele>366.8</ele>
        <time>2017-05-14T09:18:00.000Z</time>
      </trkpt>
      <trkpt lat="47.47345" lon="6.76398">
        <ele>366.5</ele>
        <time>2017-05-14T09:18:01.000Z</time>
      </trkpt>
      <trkpt lat="47.47351" lon="6.76401">
        <ele>366.3</ele>
        <time>2017-05-14T09:18:02.000Z</time>
      </trkpt>
      <trkpt lat="47.47356" lon="6.76405">
        <ele>365.6</ele>
        <time>2017-05-14T09:18:03.000Z</time>
      </trkpt>
      <trkpt lat="47.47362" lon="6.76409">
        <ele>365.1</ele>
        <time>2017-05-14T09:18:04.000Z</time>
      </trkpt>
      <trkpt lat="47.47367" lon="6.76412">
        <ele>365.1</ele>
        <time>2017-05-14T09:18:05.000Z</time>
      </trkpt>
      <trkpt lat="47.47371" lon="6.76415">
        <ele>365.1</ele>
        <time>2017-05-14T09:18:06.000Z</time>
      </trkpt>
      <trkpt lat="47.47376" lon="6.76418">
        <ele>365.4</ele>
        <time>2017-05-14T09:18:07.000Z</time>
      </trkpt>
      <trkpt lat="47.4738" lon="6.76421">
        <ele>365.4</ele>
        <time>2017-05-14T09:18:08.000Z</time>
      </trkpt>
      <trkpt lat="47.47384" lon="6.76424">
        <ele>365.1</ele>
        <time>2017-05-14T09:18:09.000Z</time>
      </trkpt>
      <trkpt lat="47.47389" lon="6.76427">
        <ele>364.6</ele>
        <time>2017-05-14T09:18:10.000Z</time>
      </trkpt>
      <trkpt lat="47.47394" lon="6.76431">
        <ele>364</ele>
        <time>2017-05-14T09:18:11.000Z</time>
      </trkpt>
      <trkpt lat="47.474" lon="6.76436">
        <ele>363.4</ele>
        <time>2017-05-14T09:18:12.000Z</time>
      </trkpt>
      <trkpt lat="47.47405" lon="6.7644">
        <ele>362.9</ele>
        <time>2017-05-14T09:18:13.000Z</time>
      </trkpt>
      <trkpt lat="47.4741" lon="6.76445">
        <ele>361.9</ele>
        <time>2017-05-14T09:18:14.000Z</time>
      </trkpt>
      <trkpt lat="47.47414" lon="6.76448">
        <ele>361.5</ele>
        <time>2017-05-14T09:18:15.000Z</time>
      </trkpt>
      <trkpt lat="47.47418" lon="6.76452">
        <ele>361.7</ele>
        <time>2017-05-14T09:18:16.000Z</time>
      </trkpt>
      <trkpt lat="47.47423" lon="6.76456">
        <ele>361.7</ele>
        <time>2017-05-14T09:18:17.000Z</time>
      </trkpt>
      <trkpt lat="47.47426" lon="6.76458">
        <ele>361.7</ele>
        <time>2017-05-14T09:18:18.000Z</time>
      </trkpt>
      <trkpt lat="47.47428" lon="6.76459">
        <ele>361.7</ele>
        <time>2017-05-14T09:18:19.000Z</time>
      </trkpt>
      <trkpt lat="47.47431" lon="6.76462">
        <ele>361.8</ele>
        <time>2017-05-14T09:18:21.000Z</time>
      </trkpt>
      <trkpt lat="47.47434" lon="6.76462">
        <ele>361.8</ele>
        <time>2017-05-14T09:18:22.000Z</time>
      </trkpt>
      <trkpt lat="47.47437" lon="6.76462">
        <ele>361.9</ele>
        <time>2017-05-14T09:18:23.000Z</time>
      </trkpt>
      <trkpt lat="47.4744" lon="6.76459">
        <ele>361.9</ele>
        <time>2017-05-14T09:18:24.000Z</time>
      </trkpt>
      <trkpt lat="47.47443" lon="6.76454">
        <ele>362.4</ele>
        <time>2017-05-14T09:18:25.000Z</time>
      </trkpt>
      <trkpt lat="47.47446" lon="6.76447">
        <ele>362.6</ele>
        <time>2017-05-14T09:18:26.000Z</time>
      </trkpt>
      <trkpt lat="47.47449" lon="6.76442">
        <ele>362.9</ele>
        <time>2017-05-14T09:18:27.000Z</time>
      </trkpt>
      <trkpt lat="47.47453" lon="6.76439">
        <ele>362.5</ele>
        <time>2017-05-14T09:18:28.000Z</time>
      </trkpt>
      <trkpt lat="47.47459" lon="6.76438">
        <ele>362.2</ele>
        <time>2017-05-14T09:18:29.000Z</time>
      </trkpt>
      <trkpt lat="47.47462" lon="6.76438">
        <ele>362.2</ele>
        <time>2017-05-14T09:18:30.000Z</time>
      </trkpt>
      <trkpt lat="47.47466" lon="6.76441">
        <ele>361.8</ele>
        <time>2017-05-14T09:18:31.000Z</time>
      </trkpt>
      <trkpt lat="47.47471" lon="6.76444">
        <ele>360.9</ele>
        <time>2017-05-14T09:18:32.000Z</time>
      </trkpt>
      <trkpt lat="47.47477" lon="6.76447">
        <ele>359.7</ele>
        <time>2017-05-14T09:18:33.000Z</time>
      </trkpt>
      <trkpt lat="47.47481" lon="6.76451">
        <ele>360</ele>
        <time>2017-05-14T09:18:34.000Z</time>
      </trkpt>
      <trkpt lat="47.47485" lon="6.76455">
        <ele>360.7</ele>
        <time>2017-05-14T09:18:35.000Z</time>
      </trkpt>
      <trkpt lat="47.47489" lon="6.76459">
        <ele>360.4</ele>
        <time>2017-05-14T09:18:36.000Z</time>
      </trkpt>
      <trkpt lat="47.47494" lon="6.76462">
        <ele>359.6</ele>
        <time>2017-05-14T09:18:37.000Z</time>
      </trkpt>
      <trkpt lat="47.47497" lon="6.76465">
        <ele>358.9</ele>
        <time>2017-05-14T09:18:38.000Z</time>
      </trkpt>
      <trkpt lat="47.475" lon="6.76464">
        <ele>358.9</ele>
        <time>2017-05-14T09:18:39.000Z</time>
      </trkpt>
      <trkpt lat="47.47504" lon="6.76459">
        <ele>358.9</ele>
        <time>2017-05-14T09:18:40.000Z</time>
      </trkpt>
      <trkpt lat="47.47508" lon="6.76454">
        <ele>358.9</ele>
        <time>2017-05-14T09:18:41.000Z</time>
      </trkpt>
      <trkpt lat="47.47512" lon="6.7645">
        <ele>359</ele>
        <time>2017-05-14T09:18:42.000Z</time>
      </trkpt>
      <trkpt lat="47.47515" lon="6.76446">
        <ele>359</ele>
        <time>2017-05-14T09:18:43.000Z</time>
      </trkpt>
      <trkpt lat="47.47519" lon="6.76441">
        <ele>359</ele>
        <time>2017-05-14T09:18:44.000Z</time>
      </trkpt>
      <trkpt lat="47.47521" lon="6.76436">
        <ele>358.9</ele>
        <time>2017-05-14T09:18:45.000Z</time>
      </trkpt>
      <trkpt lat="47.47525" lon="6.76432">
        <ele>358.9</ele>
        <time>2017-05-14T09:18:46.000Z</time>
      </trkpt>
      <trkpt lat="47.47527" lon="6.7643">
        <ele>358.9</ele>
        <time>2017-05-14T09:18:47.000Z</time>
      </trkpt>
      <trkpt lat="47.47531" lon="6.76426">
        <ele>358.8</ele>
        <time>2017-05-14T09:18:48.000Z</time>
      </trkpt>
      <trkpt lat="47.47533" lon="6.76423">
        <ele>358.8</ele>
        <time>2017-05-14T09:18:49.000Z</time>
      </trkpt>
      <trkpt lat="47.47535" lon="6.76419">
        <ele>358.8</ele>
        <time>2017-05-14T09:18:50.000Z</time>
      </trkpt>
      <trkpt lat="47.47538" lon="6.76413">
        <ele>358.8</ele>
        <time>2017-05-14T09:18:51.000Z</time>
      </trkpt>
      <trkpt lat="47.4754" lon="6.7641">
        <ele>358.7</ele>
        <time>2017-05-14T09:18:52.000Z</time>
      </trkpt>
      <trkpt lat="47.47544" lon="6.76408">
        <ele>358.5</ele>
        <time>2017-05-14T09:18:53.000Z</time>
      </trkpt>
      <trkpt lat="47.47545" lon="6.76406">
        <ele>358.4</ele>
        <time>2017-05-14T09:18:54.000Z</time>
      </trkpt>
      <trkpt lat="47.47547" lon="6.76401">
        <ele>358.3</ele>
        <time>2017-05-14T09:18:55.000Z</time>
      </trkpt>
      <trkpt lat="47.47548" lon="6.76394">
        <ele>357.5</ele>
        <time>2017-05-14T09:18:56.000Z</time>
      </trkpt>
      <trkpt lat="47.47549" lon="6.76388">
        <ele>357.4</ele>
        <time>2017-05-14T09:18:57.000Z</time>
      </trkpt>
      <trkpt lat="47.4755" lon="6.76382">
        <ele>357.4</ele>
        <time>2017-05-14T09:18:58.000Z</time>
      </trkpt>
      <trkpt lat="47.47552" lon="6.76376">
        <ele>357.4</ele>
        <time>2017-05-14T09:18:59.000Z</time>
      </trkpt>
      <trkpt lat="47.47555" lon="6.7637">
        <ele>357.4</ele>
        <time>2017-05-14T09:19:00.000Z</time>
      </trkpt>
      <trkpt lat="47.47558" lon="6.76365">
        <ele>357.3</ele>
        <time>2017-05-14T09:19:01.000Z</time>
      </trkpt>
      <trkpt lat="47.47561" lon="6.76361">
        <ele>357.3</ele>
        <time>2017-05-14T09:19:02.000Z</time>
      </trkpt>
      <trkpt lat="47.47565" lon="6.76356">
        <ele>357.3</ele>
        <time>2017-05-14T09:19:03.000Z</time>
      </trkpt>
      <trkpt lat="47.47568" lon="6.76352">
        <ele>357.3</ele>
        <time>2017-05-14T09:19:04.000Z</time>
      </trkpt>
      <trkpt lat="47.4757" lon="6.76348">
        <ele>357.4</ele>
        <time>2017-05-14T09:19:05.000Z</time>
      </trkpt>
      <trkpt lat="47.47572" lon="6.76342">
        <ele>357.4</ele>
        <time>2017-05-14T09:19:06.000Z</time>
      </trkpt>
      <trkpt lat="47.47574" lon="6.76338">
        <ele>357.4</ele>
        <time>2017-05-14T09:19:07.000Z</time>
      </trkpt>
      <trkpt lat="47.47576" lon="6.76334">
        <ele>357.4</ele>
        <time>2017-05-14T09:19:08.000Z</time>
      </trkpt>
      <trkpt lat="47.47579" lon="6.76327">
        <ele>357.4</ele>
        <time>2017-05-14T09:19:09.000Z</time>
      </trkpt>
      <trkpt lat="47.47581" lon="6.76321">
        <ele>357.4</ele>
        <time>2017-05-14T09:19:10.000Z</time>
      </trkpt>
      <trkpt lat="47.47584" lon="6.76316">
        <ele>357.3</ele>
        <time>2017-05-14T09:19:11.000Z</time>
      </trkpt>
      <trkpt lat="47.47586" lon="6.7631">
        <ele>357.2</ele>
        <time>2017-05-14T09:19:12.000Z</time>
      </trkpt>
      <trkpt lat="47.4759" lon="6.76304">
        <ele>357</ele>
        <time>2017-05-14T09:19:13.000Z</time>
      </trkpt>
      <trkpt lat="47.47593" lon="6.76298">
        <ele>357</ele>
        <time>2017-05-14T09:19:14.000Z</time>
      </trkpt>
      <trkpt lat="47.47596" lon="6.76294">
        <ele>356.9</ele>
        <time>2017-05-14T09:19:15.000Z</time>
      </trkpt>
      <trkpt lat="47.476" lon="6.76288">
        <ele>355.9</ele>
        <time>2017-05-14T09:19:16.000Z</time>
      </trkpt>
      <trkpt lat="47.47603" lon="6.76282">
        <ele>355.9</ele>
        <time>2017-05-14T09:19:17.000Z</time>
      </trkpt>
      <trkpt lat="47.47606" lon="6.76276">
        <ele>355.8</ele>
        <time>2017-05-14T09:19:18.000Z</time>
      </trkpt>
      <trkpt lat="47.47608" lon="6.76268">
        <ele>355.7</ele>
        <time>2017-05-14T09:19:19.000Z</time>
      </trkpt>
      <trkpt lat="47.4761" lon="6.76262">
        <ele>355.6</ele>
        <time>2017-05-14T09:19:20.000Z</time>
      </trkpt>
      <trkpt lat="47.47614" lon="6.76253">
        <ele>354.7</ele>
        <time>2017-05-14T09:19:21.000Z</time>
      </trkpt>
      <trkpt lat="47.47617" lon="6.76247">
        <ele>354.3</ele>
        <time>2017-05-14T09:19:22.000Z</time>
      </trkpt>
      <trkpt lat="47.4762" lon="6.76241">
        <ele>354.2</ele>
        <time>2017-05-14T09:19:23.000Z</time>
      </trkpt>
      <trkpt lat="47.47624" lon="6.76234">
        <ele>353.7</ele>
        <time>2017-05-14T09:19:24.000Z</time>
      </trkpt>
      <trkpt lat="47.47627" lon="6.76228">
        <ele>353.6</ele>
        <time>2017-05-14T09:19:25.000Z</time>
      </trkpt>
      <trkpt lat="47.4763" lon="6.76222">
        <ele>353.5</ele>
        <time>2017-05-14T09:19:26.000Z</time>
      </trkpt>
      <trkpt lat="47.47633" lon="6.76214">
        <ele>352.9</ele>
        <time>2017-05-14T09:19:27.000Z</time>
      </trkpt>
      <trkpt lat="47.47636" lon="6.76206">
        <ele>352.8</ele>
        <time>2017-05-14T09:19:28.000Z</time>
      </trkpt>
      <trkpt lat="47.47639" lon="6.762">
        <ele>353.3</ele>
        <time>2017-05-14T09:19:29.000Z</time>
      </trkpt>
      <trkpt lat="47.47642" lon="6.76194">
        <ele>353</ele>
        <time>2017-05-14T09:19:30.000Z</time>
      </trkpt>
      <trkpt lat="47.47644" lon="6.76187">
        <ele>352.2</ele>
        <time>2017-05-14T09:19:31.000Z</time>
      </trkpt>
      <trkpt lat="47.47647" lon="6.7618">
        <ele>351.5</ele>
        <time>2017-05-14T09:19:32.000Z</time>
      </trkpt>
      <trkpt lat="47.47649" lon="6.76174">
        <ele>351.3</ele>
        <time>2017-05-14T09:19:33.000Z</time>
      </trkpt>
      <trkpt lat="47.47653" lon="6.76169">
        <ele>350.6</ele>
        <time>2017-05-14T09:19:34.000Z</time>
      </trkpt>
      <trkpt lat="47.47656" lon="6.76164">
        <ele>350.5</ele>
        <time>2017-05-14T09:19:35.000Z</time>
      </trkpt>
      <trkpt lat="47.47659" lon="6.76158">
        <ele>349.5</ele>
        <time>2017-05-14T09:19:36.000Z</time>
      </trkpt>
      <trkpt lat="47.47662" lon="6.76154">
        <ele>349.5</ele>
        <time>2017-05-14T09:19:37.000Z</time>
      </trkpt>
      <trkpt lat="47.47665" lon="6.76149">
        <ele>349.4</ele>
        <time>2017-05-14T09:19:38.000Z</time>
      </trkpt>
      <trkpt lat="47.47668" lon="6.76144">
        <ele>349.4</ele>
        <time>2017-05-14T09:19:39.000Z</time>
      </trkpt>
      <trkpt lat="47.4767" lon="6.76138">
        <ele>348.8</ele>
        <time>2017-05-14T09:19:40.000Z</time>
      </trkpt>
      <trkpt lat="47.47672" lon="6.76131">
        <ele>348.7</ele>
        <time>2017-05-14T09:19:41.000Z</time>
      </trkpt>
      <trkpt lat="47.47674" lon="6.76123">
        <ele>348.8</ele>
        <time>2017-05-14T09:19:42.000Z</time>
      </trkpt>
      <trkpt lat="47.47676" lon="6.76114">
        <ele>349.6</ele>
        <time>2017-05-14T09:19:43.000Z</time>
      </trkpt>
      <trkpt lat="47.47677" lon="6.76107">
        <ele>349.7</ele>
        <time>2017-05-14T09:19:44.000Z</time>
      </trkpt>
      <trkpt lat="47.47677" lon="6.76102">
        <ele>349.8</ele>
        <time>2017-05-14T09:19:45.000Z</time>
      </trkpt>
      <trkpt lat="47.47678" lon="6.76099">
        <ele>349.9</ele>
        <time>2017-05-14T09:19:46.000Z</time>
      </trkpt>
      <trkpt lat="47.47682" lon="6.76098">
        <ele>352.1</ele>
        <time>2017-05-14T09:19:50.000Z</time>
      </trkpt>
      <trkpt lat="47.47684" lon="6.76101">
        <ele>352.2</ele>
        <time>2017-05-14T09:19:51.000Z</time>
      </trkpt>
      <trkpt lat="47.47687" lon="6.76106">
        <ele>352.3</ele>
        <time>2017-05-14T09:19:53.000Z</time>
      </trkpt>
      <trkpt lat="47.47689" lon="6.76109">
        <ele>352.5</ele>
        <time>2017-05-14T09:19:54.000Z</time>
      </trkpt>
      <trkpt lat="47.47692" lon="6.76114">
        <ele>353.7</ele>
        <time>2017-05-14T09:19:55.000Z</time>
      </trkpt>
      <trkpt lat="47.47695" lon="6.76119">
        <ele>354.4</ele>
        <time>2017-05-14T09:19:56.000Z</time>
      </trkpt>
      <trkpt lat="47.47698" lon="6.76123">
        <ele>354.5</ele>
        <time>2017-05-14T09:19:57.000Z</time>
      </trkpt>
      <trkpt lat="47.47701" lon="6.76128">
        <ele>355.1</ele>
        <time>2017-05-14T09:19:58.000Z</time>
      </trkpt>
      <trkpt lat="47.47704" lon="6.76133">
        <ele>355.7</ele>
        <time>2017-05-14T09:19:59.000Z</time>
      </trkpt>
      <trkpt lat="47.47707" lon="6.76136">
        <ele>356.1</ele>
        <time>2017-05-14T09:20:00.000Z</time>
      </trkpt>
      <trkpt lat="47.4771" lon="6.7614">
        <ele>355.9</ele>
        <time>2017-05-14T09:20:01.000Z</time>
      </trkpt>
      <trkpt lat="47.47713" lon="6.76144">
        <ele>355.8</ele>
        <time>2017-05-14T09:20:02.000Z</time>
      </trkpt>
      <trkpt lat="47.47715" lon="6.76147">
        <ele>355.3</ele>
        <time>2017-05-14T09:20:03.000Z</time>
      </trkpt>
      <trkpt lat="47.47718" lon="6.76151">
        <ele>355.1</ele>
        <time>2017-05-14T09:20:04.000Z</time>
      </trkpt>
      <trkpt lat="47.47723" lon="6.76157">
        <ele>355</ele>
        <time>2017-05-14T09:20:05.000Z</time>
      </trkpt>
      <trkpt lat="47.47727" lon="6.76162">
        <ele>355.7</ele>
        <time>2017-05-14T09:20:06.000Z</time>
      </trkpt>
      <trkpt lat="47.47731" lon="6.76168">
        <ele>356.2</ele>
        <time>2017-05-14T09:20:07.000Z</time>
      </trkpt>
      <trkpt lat="47.47736" lon="6.76174">
        <ele>355.6</ele>
        <time>2017-05-14T09:20:08.000Z</time>
      </trkpt>
      <trkpt lat="47.47739" lon="6.76178">
        <ele>356.1</ele>
        <time>2017-05-14T09:20:09.000Z</time>
      </trkpt>
      <trkpt lat="47.47743" lon="6.76183">
        <ele>356.3</ele>
        <time>2017-05-14T09:20:10.000Z</time>
      </trkpt>
      <trkpt lat="47.47746" lon="6.76188">
        <ele>356.3</ele>
        <time>2017-05-14T09:20:11.000Z</time>
      </trkpt>
      <trkpt lat="47.47749" lon="6.76193">
        <ele>356.6</ele>
        <time>2017-05-14T09:20:12.000Z</time>
      </trkpt>
      <trkpt lat="47.47753" lon="6.76197">
        <ele>356.2</ele>
        <time>2017-05-14T09:20:13.000Z</time>
      </trkpt>
      <trkpt lat="47.47756" lon="6.76202">
        <ele>356.2</ele>
        <time>2017-05-14T09:20:14.000Z</time>
      </trkpt>
      <trkpt lat="47.47759" lon="6.76207">
        <ele>356.9</ele>
        <time>2017-05-14T09:20:15.000Z</time>
      </trkpt>
      <trkpt lat="47.47762" lon="6.76212">
        <ele>357.3</ele>
        <time>2017-05-14T09:20:16.000Z</time>
      </trkpt>
      <trkpt lat="47.47765" lon="6.76218">
        <ele>357.6</ele>
        <time>2017-05-14T09:20:17.000Z</time>
      </trkpt>
      <trkpt lat="47.47769" lon="6.76223">
        <ele>357.6</ele>
        <time>2017-05-14T09:20:18.000Z</time>
      </trkpt>
      <trkpt lat="47.47772" lon="6.76228">
        <ele>357.7</ele>
        <time>2017-05-14T09:20:19.000Z</time>
      </trkpt>
      <trkpt lat="47.47775" lon="6.76234">
        <ele>357.5</ele>
        <time>2017-05-14T09:20:20.000Z</time>
      </trkpt>
      <trkpt lat="47.47778" lon="6.76239">
        <ele>357.6</ele>
        <time>2017-05-14T09:20:21.000Z</time>
      </trkpt>
      <trkpt lat="47.47781" lon="6.76244">
        <ele>357.6</ele>
        <time>2017-05-14T09:20:22.000Z</time>
      </trkpt>
      <trkpt lat="47.47785" lon="6.76248">
        <ele>357.2</ele>
        <time>2017-05-14T09:20:23.000Z</time>
      </trkpt>
      <trkpt lat="47.47789" lon="6.76251">
        <ele>357</ele>
        <time>2017-05-14T09:20:24.000Z</time>
      </trkpt>
      <trkpt lat="47.47793" lon="6.76254">
        <ele>356.8</ele>
        <time>2017-05-14T09:20:25.000Z</time>
      </trkpt>
      <trkpt lat="47.47799" lon="6.76258">
        <ele>356.6</ele>
        <time>2017-05-14T09:20:26.000Z</time>
      </trkpt>
      <trkpt lat="47.47803" lon="6.76261">
        <ele>356.8</ele>
        <time>2017-05-14T09:20:27.000Z</time>
      </trkpt>
      <trkpt lat="47.47807" lon="6.76263">
        <ele>356.1</ele>
        <time>2017-05-14T09:20:28.000Z</time>
      </trkpt>
      <trkpt lat="47.47812" lon="6.76266">
        <ele>355.6</ele>
        <time>2017-05-14T09:20:29.000Z</time>
      </trkpt>
      <trkpt lat="47.47817" lon="6.76269">
        <ele>355.9</ele>
        <time>2017-05-14T09:20:30.000Z</time>
      </trkpt>
      <trkpt lat="47.47822" lon="6.76272">
        <ele>356.4</ele>
        <time>2017-05-14T09:20:31.000Z</time>
      </trkpt>
      <trkpt lat="47.47827" lon="6.76276">
        <ele>356.9</ele>
        <time>2017-05-14T09:20:32.000Z</time>
      </trkpt>
      <trkpt lat="47.47831" lon="6.76281">
        <ele>357</ele>
        <time>2017-05-14T09:20:33.000Z</time>
      </trkpt>
      <trkpt lat="47.47835" lon="6.76286">
        <ele>357.2</ele>
        <time>2017-05-14T09:20:34.000Z</time>
      </trkpt>
      <trkpt lat="47.47839" lon="6.76291">
        <ele>357.5</ele>
        <time>2017-05-14T09:20:35.000Z</time>
      </trkpt>
      <trkpt lat="47.47843" lon="6.76296">
        <ele>358</ele>
        <time>2017-05-14T09:20:36.000Z</time>
      </trkpt>
      <trkpt lat="47.47847" lon="6.76302">
        <ele>359</ele>
        <time>2017-05-14T09:20:37.000Z</time>
      </trkpt>
      <trkpt lat="47.47851" lon="6.76307">
        <ele>359.7</ele>
        <time>2017-05-14T09:20:38.000Z</time>
      </trkpt>
      <trkpt lat="47.47855" lon="6.76312">
        <ele>360.3</ele>
        <time>2017-05-14T09:20:39.000Z</time>
      </trkpt>
      <trkpt lat="47.47858" lon="6.76318">
        <ele>361.2</ele>
        <time>2017-05-14T09:20:40.000Z</time>
      </trkpt>
      <trkpt lat="47.47862" lon="6.76324">
        <ele>361.2</ele>
        <time>2017-05-14T09:20:41.000Z</time>
      </trkpt>
      <trkpt lat="47.47866" lon="6.76331">
        <ele>361.2</ele>
        <time>2017-05-14T09:20:42.000Z</time>
      </trkpt>
      <trkpt lat="47.4787" lon="6.76338">
        <ele>361.4</ele>
        <time>2017-05-14T09:20:43.000Z</time>
      </trkpt>
      <trkpt lat="47.47873" lon="6.76345">
        <ele>361.4</ele>
        <time>2017-05-14T09:20:44.000Z</time>
      </trkpt>
      <trkpt lat="47.47876" lon="6.76351">
        <ele>361.6</ele>
        <time>2017-05-14T09:20:45.000Z</time>
      </trkpt>
      <trkpt lat="47.47879" lon="6.76357">
        <ele>362.2</ele>
        <time>2017-05-14T09:20:46.000Z</time>
      </trkpt>
      <trkpt lat="47.47882" lon="6.76363">
        <ele>362.7</ele>
        <time>2017-05-14T09:20:47.000Z</time>
      </trkpt>
      <trkpt lat="47.47885" lon="6.76369">
        <ele>363</ele>
        <time>2017-05-14T09:20:48.000Z</time>
      </trkpt>
      <trkpt lat="47.47888" lon="6.76375">
        <ele>362.4</ele>
        <time>2017-05-14T09:20:49.000Z</time>
      </trkpt>
      <trkpt lat="47.4789" lon="6.7638">
        <ele>362</ele>
        <time>2017-05-14T09:20:50.000Z</time>
      </trkpt>
      <trkpt lat="47.47893" lon="6.76387">
        <ele>361.7</ele>
        <time>2017-05-14T09:20:51.000Z</time>
      </trkpt>
      <trkpt lat="47.47896" lon="6.76393">
        <ele>361.4</ele>
        <time>2017-05-14T09:20:52.000Z</time>
      </trkpt>
      <trkpt lat="47.47899" lon="6.76399">
        <ele>361.5</ele>
        <time>2017-05-14T09:20:53.000Z</time>
      </trkpt>
      <trkpt lat="47.47902" lon="6.76405">
        <ele>361.7</ele>
        <time>2017-05-14T09:20:54.000Z</time>
      </trkpt>
      <trkpt lat="47.47904" lon="6.76413">
        <ele>362.3</ele>
        <time>2017-05-14T09:20:55.000Z</time>
      </trkpt>
      <trkpt lat="47.4791" lon="6.76427">
        <ele>362.6</ele>
        <time>2017-05-14T09:20:57.000Z</time>
      </trkpt>
      <trkpt lat="47.47912" lon="6.76434">
        <ele>362.3</ele>
        <time>2017-05-14T09:20:58.000Z</time>
      </trkpt>
      <trkpt lat="47.47914" lon="6.7644">
        <ele>361.4</ele>
        <time>2017-05-14T09:20:59.000Z</time>
      </trkpt>
      <trkpt lat="47.47916" lon="6.76446">
        <ele>360.9</ele>
        <time>2017-05-14T09:21:00.000Z</time>
      </trkpt>
      <trkpt lat="47.47917" lon="6.76453">
        <ele>360.1</ele>
        <time>2017-05-14T09:21:01.000Z</time>
      </trkpt>
      <trkpt lat="47.47918" lon="6.7646">
        <ele>359.3</ele>
        <time>2017-05-14T09:21:02.000Z</time>
      </trkpt>
      <trkpt lat="47.4792" lon="6.76468">
        <ele>358.7</ele>
        <time>2017-05-14T09:21:03.000Z</time>
      </trkpt>
      <trkpt lat="47.47921" lon="6.76476">
        <ele>358.1</ele>
        <time>2017-05-14T09:21:04.000Z</time>
      </trkpt>
      <trkpt lat="47.47923" lon="6.76484">
        <ele>357.7</ele>
        <time>2017-05-14T09:21:05.000Z</time>
      </trkpt>
      <trkpt lat="47.47925" lon="6.76491">
        <ele>357.8</ele>
        <time>2017-05-14T09:21:06.000Z</time>
      </trkpt>
      <trkpt lat="47.47926" lon="6.76497">
        <ele>358.7</ele>
        <time>2017-05-14T09:21:07.000Z</time>
      </trkpt>
      <trkpt lat="47.47928" lon="6.76504">
        <ele>359</ele>
        <time>2017-05-14T09:21:08.000Z</time>
      </trkpt>
      <trkpt lat="47.4793" lon="6.76511">
        <ele>359.6</ele>
        <time>2017-05-14T09:21:09.000Z</time>
      </trkpt>
      <trkpt lat="47.47932" lon="6.76518">
        <ele>360.4</ele>
        <time>2017-05-14T09:21:10.000Z</time>
      </trkpt>
      <trkpt lat="47.47933" lon="6.76524">
        <ele>361.1</ele>
        <time>2017-05-14T09:21:11.000Z</time>
      </trkpt>
      <trkpt lat="47.47934" lon="6.7653">
        <ele>361.3</ele>
        <time>2017-05-14T09:21:12.000Z</time>
      </trkpt>
      <trkpt lat="47.47936" lon="6.76536">
        <ele>361.5</ele>
        <time>2017-05-14T09:21:13.000Z</time>
      </trkpt>
      <trkpt lat="47.47937" lon="6.76542">
        <ele>361.5</ele>
        <time>2017-05-14T09:21:14.000Z</time>
      </trkpt>
      <trkpt lat="47.47938" lon="6.76548">
        <ele>361</ele>
        <time>2017-05-14T09:21:15.000Z</time>
      </trkpt>
      <trkpt lat="47.4794" lon="6.76555">
        <ele>360.2</ele>
        <time>2017-05-14T09:21:16.000Z</time>
      </trkpt>
      <trkpt lat="47.47942" lon="6.76565">
        <ele>359.8</ele>
        <time>2017-05-14T09:21:17.000Z</time>
      </trkpt>
      <trkpt lat="47.47943" lon="6.76573">
        <ele>359.4</ele>
        <time>2017-05-14T09:21:18.000Z</time>
      </trkpt>
      <trkpt lat="47.47944" lon="6.7658">
        <ele>359.6</ele>
        <time>2017-05-14T09:21:19.000Z</time>
      </trkpt>
      <trkpt lat="47.47946" lon="6.76586">
        <ele>359.1</ele>
        <time>2017-05-14T09:21:20.000Z</time>
      </trkpt>
      <trkpt lat="47.47947" lon="6.76594">
        <ele>358.9</ele>
        <time>2017-05-14T09:21:21.000Z</time>
      </trkpt>
      <trkpt lat="47.47948" lon="6.76601">
        <ele>358.9</ele>
        <time>2017-05-14T09:21:22.000Z</time>
      </trkpt>
      <trkpt lat="47.47949" lon="6.76607">
        <ele>358.9</ele>
        <time>2017-05-14T09:21:24.000Z</time>
      </trkpt>
      <trkpt lat="47.47949" lon="6.76612">
        <ele>358.9</ele>
        <time>2017-05-14T09:21:25.000Z</time>
      </trkpt>
      <trkpt lat="47.47951" lon="6.76617">
        <ele>358.8</ele>
        <time>2017-05-14T09:21:27.000Z</time>
      </trkpt>
      <trkpt lat="47.47952" lon="6.7662">
        <ele>358.8</ele>
        <time>2017-05-14T09:21:28.000Z</time>
      </trkpt>
      <trkpt lat="47.47954" lon="6.76621">
        <ele>358.7</ele>
        <time>2017-05-14T09:21:29.000Z</time>
      </trkpt>
      <trkpt lat="47.47957" lon="6.76623">
        <ele>358.6</ele>
        <time>2017-05-14T09:21:30.000Z</time>
      </trkpt>
      <trkpt lat="47.47959" lon="6.7662">
        <ele>358.2</ele>
        <time>2017-05-14T09:21:32.000Z</time>
      </trkpt>
      <trkpt lat="47.4796" lon="6.76618">
        <ele>357.9</ele>
        <time>2017-05-14T09:21:33.000Z</time>
      </trkpt>
      <trkpt lat="47.47963" lon="6.76615">
        <ele>357.6</ele>
        <time>2017-05-14T09:21:34.000Z</time>
      </trkpt>
      <trkpt lat="47.47968" lon="6.76612">
        <ele>354.4</ele>
        <time>2017-05-14T09:21:35.000Z</time>
      </trkpt>
      <trkpt lat="47.47971" lon="6.7661">
        <ele>354.2</ele>
        <time>2017-05-14T09:21:36.000Z</time>
      </trkpt>
      <trkpt lat="47.47976" lon="6.76608">
        <ele>352.3</ele>
        <time>2017-05-14T09:21:37.000Z</time>
      </trkpt>
      <trkpt lat="47.4798" lon="6.76605">
        <ele>352.2</ele>
        <time>2017-05-14T09:21:38.000Z</time>
      </trkpt>
      <trkpt lat="47.47984" lon="6.76603">
        <ele>351.2</ele>
        <time>2017-05-14T09:21:39.000Z</time>
      </trkpt>
      <trkpt lat="47.47989" lon="6.766">
        <ele>350.5</ele>
        <time>2017-05-14T09:21:40.000Z</time>
      </trkpt>
      <trkpt lat="47.47993" lon="6.76598">
        <ele>350.1</ele>
        <time>2017-05-14T09:21:41.000Z</time>
      </trkpt>
      <trkpt lat="47.47997" lon="6.76597">
        <ele>350.4</ele>
        <time>2017-05-14T09:21:42.000Z</time>
      </trkpt>
      <trkpt lat="47.48001" lon="6.76596">
        <ele>350.4</ele>
        <time>2017-05-14T09:21:43.000Z</time>
      </trkpt>
      <trkpt lat="47.48007" lon="6.76594">
        <ele>350.2</ele>
        <time>2017-05-14T09:21:44.000Z</time>
      </trkpt>
      <trkpt lat="47.48012" lon="6.76592">
        <ele>350.7</ele>
        <time>2017-05-14T09:21:45.000Z</time>
      </trkpt>
      <trkpt lat="47.48016" lon="6.7659">
        <ele>351</ele>
        <time>2017-05-14T09:21:46.000Z</time>
      </trkpt>
      <trkpt lat="47.48019" lon="6.76587">
        <ele>351.2</ele>
        <time>2017-05-14T09:21:47.000Z</time>
      </trkpt>
      <trkpt lat="47.48024" lon="6.76583">
        <ele>350.9</ele>
        <time>2017-05-14T09:21:48.000Z</time>
      </trkpt>
      <trkpt lat="47.48029" lon="6.7658">
        <ele>351.6</ele>
        <time>2017-05-14T09:21:49.000Z</time>
      </trkpt>
      <trkpt lat="47.48033" lon="6.76576">
        <ele>352.3</ele>
        <time>2017-05-14T09:21:50.000Z</time>
      </trkpt>
      <trkpt lat="47.48038" lon="6.76573">
        <ele>352.5</ele>
        <time>2017-05-14T09:21:51.000Z</time>
      </trkpt>
      <trkpt lat="47.48042" lon="6.7657">
        <ele>352.5</ele>
        <time>2017-05-14T09:21:52.000Z</time>
      </trkpt>
      <trkpt lat="47.48045" lon="6.76565">
        <ele>353</ele>
        <time>2017-05-14T09:21:53.000Z</time>
      </trkpt>
      <trkpt lat="47.48048" lon="6.76561">
        <ele>353.1</ele>
        <time>2017-05-14T09:21:54.000Z</time>
      </trkpt>
      <trkpt lat="47.48053" lon="6.76558">
        <ele>353.3</ele>
        <time>2017-05-14T09:21:55.000Z</time>
      </trkpt>
      <trkpt lat="47.48058" lon="6.76555">
        <ele>352.8</ele>
        <time>2017-05-14T09:21:56.000Z</time>
      </trkpt>
      <trkpt lat="47.48063" lon="6.76551">
        <ele>353.3</ele>
        <time>2017-05-14T09:21:57.000Z</time>
      </trkpt>
      <trkpt lat="47.48067" lon="6.76547">
        <ele>354.2</ele>
        <time>2017-05-14T09:21:58.000Z</time>
      </trkpt>
      <trkpt lat="47.48071" lon="6.76542">
        <ele>355.3</ele>
        <time>2017-05-14T09:21:59.000Z</time>
      </trkpt>
      <trkpt lat="47.48075" lon="6.76536">
        <ele>355</ele>
        <time>2017-05-14T09:22:00.000Z</time>
      </trkpt>
      <trkpt lat="47.48079" lon="6.76531">
        <ele>355.1</ele>
        <time>2017-05-14T09:22:01.000Z</time>
      </trkpt>
      <trkpt lat="47.48082" lon="6.76527">
        <ele>355.4</ele>
        <time>2017-05-14T09:22:02.000Z</time>
      </trkpt>
      <trkpt lat="47.48086" lon="6.76523">
        <ele>356.1</ele>
        <time>2017-05-14T09:22:03.000Z</time>
      </trkpt>
      <trkpt lat="47.4809" lon="6.76519">
        <ele>357.5</ele>
        <time>2017-05-14T09:22:04.000Z</time>
      </trkpt>
      <trkpt lat="47.48094" lon="6.76516">
        <ele>357.9</ele>
        <time>2017-05-14T09:22:05.000Z</time>
      </trkpt>
      <trkpt lat="47.48098" lon="6.76513">
        <ele>357.9</ele>
        <time>2017-05-14T09:22:06.000Z</time>
      </trkpt>
      <trkpt lat="47.481" lon="6.7651">
        <ele>357.9</ele>
        <time>2017-05-14T09:22:07.000Z</time>
      </trkpt>
      <trkpt lat="47.48104" lon="6.76511">
        <ele>357.9</ele>
        <time>2017-05-14T09:22:08.000Z</time>
      </trkpt>
      <trkpt lat="47.48106" lon="6.76515">
        <ele>358</ele>
        <time>2017-05-14T09:22:09.000Z</time>
      </trkpt>
      <trkpt lat="47.48109" lon="6.76521">
        <ele>358</ele>
        <time>2017-05-14T09:22:10.000Z</time>
      </trkpt>
      <trkpt lat="47.48112" lon="6.76526">
        <ele>358</ele>
        <time>2017-05-14T09:22:11.000Z</time>
      </trkpt>
      <trkpt lat="47.48114" lon="6.76532">
        <ele>358</ele>
        <time>2017-05-14T09:22:12.000Z</time>
      </trkpt>
      <trkpt lat="47.48117" lon="6.76535">
        <ele>358</ele>
        <time>2017-05-14T09:22:13.000Z</time>
      </trkpt>
      <trkpt lat="47.48119" lon="6.76537">
        <ele>358</ele>
        <time>2017-05-14T09:22:14.000Z</time>
      </trkpt>
      <trkpt lat="47.48119" lon="6.76543">
        <ele>357.9</ele>
        <time>2017-05-14T09:22:15.000Z</time>
      </trkpt>
      <trkpt lat="47.48115" lon="6.76549">
        <ele>357.3</ele>
        <time>2017-05-14T09:22:16.000Z</time>
      </trkpt>
      <trkpt lat="47.48112" lon="6.76553">
        <ele>357.2</ele>
        <time>2017-05-14T09:22:17.000Z</time>
      </trkpt>
      <trkpt lat="47.48109" lon="6.76558">
        <ele>357.1</ele>
        <time>2017-05-14T09:22:18.000Z</time>
      </trkpt>
      <trkpt lat="47.48105" lon="6.76564">
        <ele>356.3</ele>
        <time>2017-05-14T09:22:19.000Z</time>
      </trkpt>
      <trkpt lat="47.48102" lon="6.76571">
        <ele>355.6</ele>
        <time>2017-05-14T09:22:20.000Z</time>
      </trkpt>
      <trkpt lat="47.48099" lon="6.76577">
        <ele>355.5</ele>
        <time>2017-05-14T09:22:21.000Z</time>
      </trkpt>
      <trkpt lat="47.48096" lon="6.76583">
        <ele>355.5</ele>
        <time>2017-05-14T09:22:22.000Z</time>
      </trkpt>
      <trkpt lat="47.48095" lon="6.7659">
        <ele>354.7</ele>
        <time>2017-05-14T09:22:23.000Z</time>
      </trkpt>
      <trkpt lat="47.48094" lon="6.76599">
        <ele>354.5</ele>
        <time>2017-05-14T09:22:24.000Z</time>
      </trkpt>
      <trkpt lat="47.48094" lon="6.76607">
        <ele>353.4</ele>
        <time>2017-05-14T09:22:25.000Z</time>
      </trkpt>
      <trkpt lat="47.48096" lon="6.76617">
        <ele>352.4</ele>
        <time>2017-05-14T09:22:26.000Z</time>
      </trkpt>
      <trkpt lat="47.48097" lon="6.76625">
        <ele>352.9</ele>
        <time>2017-05-14T09:22:27.000Z</time>
      </trkpt>
      <trkpt lat="47.481" lon="6.76631">
        <ele>353</ele>
        <time>2017-05-14T09:22:28.000Z</time>
      </trkpt>
      <trkpt lat="47.48103" lon="6.76638">
        <ele>353</ele>
        <time>2017-05-14T09:22:29.000Z</time>
      </trkpt>
      <trkpt lat="47.48107" lon="6.76644">
        <ele>353.7</ele>
        <time>2017-05-14T09:22:30.000Z</time>
      </trkpt>
      <trkpt lat="47.4811" lon="6.76651">
        <ele>354.3</ele>
        <time>2017-05-14T09:22:31.000Z</time>
      </trkpt>
      <trkpt lat="47.48114" lon="6.76657">
        <ele>354.6</ele>
        <time>2017-05-14T09:22:32.000Z</time>
      </trkpt>
      <trkpt lat="47.48118" lon="6.76664">
        <ele>355</ele>
        <time>2017-05-14T09:22:33.000Z</time>
      </trkpt>
      <trkpt lat="47.48121" lon="6.76669">
        <ele>355.6</ele>
        <time>2017-05-14T09:22:34.000Z</time>
      </trkpt>
      <trkpt lat="47.48125" lon="6.76675">
        <ele>356.4</ele>
        <time>2017-05-14T09:22:35.000Z</time>
      </trkpt>
      <trkpt lat="47.4813" lon="6.76682">
        <ele>357.6</ele>
        <time>2017-05-14T09:22:36.000Z</time>
      </trkpt>
      <trkpt lat="47.48134" lon="6.76689">
        <ele>358.7</ele>
        <time>2017-05-14T09:22:37.000Z</time>
      </trkpt>
      <trkpt lat="47.48137" lon="6.76695">
        <ele>359.5</ele>
        <time>2017-05-14T09:22:38.000Z</time>
      </trkpt>
      <trkpt lat="47.48141" lon="6.76702">
        <ele>360.2</ele>
        <time>2017-05-14T09:22:39.000Z</time>
      </trkpt>
      <trkpt lat="47.48145" lon="6.7671">
        <ele>361.2</ele>
        <time>2017-05-14T09:22:40.000Z</time>
      </trkpt>
      <trkpt lat="47.48148" lon="6.76717">
        <ele>362</ele>
        <time>2017-05-14T09:22:41.000Z</time>
      </trkpt>
      <trkpt lat="47.48152" lon="6.76723">
        <ele>361.7</ele>
        <time>2017-05-14T09:22:42.000Z</time>
      </trkpt>
      <trkpt lat="47.48155" lon="6.7673">
        <ele>361.3</ele>
        <time>2017-05-14T09:22:43.000Z</time>
      </trkpt>
      <trkpt lat="47.48158" lon="6.76737">
        <ele>361</ele>
        <time>2017-05-14T09:22:44.000Z</time>
      </trkpt>
      <trkpt lat="47.48162" lon="6.76744">
        <ele>361.4</ele>
        <time>2017-05-14T09:22:45.000Z</time>
      </trkpt>
      <trkpt lat="47.48166" lon="6.76749">
        <ele>361.3</ele>
        <time>2017-05-14T09:22:46.000Z</time>
      </trkpt>
      <trkpt lat="47.4817" lon="6.76754">
        <ele>361.5</ele>
        <time>2017-05-14T09:22:47.000Z</time>
      </trkpt>
      <trkpt lat="47.48174" lon="6.76759">
        <ele>361.4</ele>
        <time>2017-05-14T09:22:48.000Z</time>
      </trkpt>
      <trkpt lat="47.48179" lon="6.76765">
        <ele>361.2</ele>
        <time>2017-05-14T09:22:49.000Z</time>
      </trkpt>
      <trkpt lat="47.48183" lon="6.76769">
        <ele>361.1</ele>
        <time>2017-05-14T09:22:50.000Z</time>
      </trkpt>
      <trkpt lat="47.48187" lon="6.76773">
        <ele>361</ele>
        <time>2017-05-14T09:22:51.000Z</time>
      </trkpt>
      <trkpt lat="47.48191" lon="6.76778">
        <ele>361.3</ele>
        <time>2017-05-14T09:22:52.000Z</time>
      </trkpt>
      <trkpt lat="47.48196" lon="6.76781">
        <ele>360.9</ele>
        <time>2017-05-14T09:22:53.000Z</time>
      </trkpt>
      <trkpt lat="47.48201" lon="6.76785">
        <ele>360.7</ele>
        <time>2017-05-14T09:22:54.000Z</time>
      </trkpt>
      <trkpt lat="47.48206" lon="6.76787">
        <ele>360.7</ele>
        <time>2017-05-14T09:22:55.000Z</time>
      </trkpt>
      <trkpt lat="47.48211" lon="6.76789">
        <ele>360.5</ele>
        <time>2017-05-14T09:22:56.000Z</time>
      </trkpt>
      <trkpt lat="47.48216" lon="6.76791">
        <ele>360.8</ele>
        <time>2017-05-14T09:22:57.000Z</time>
      </trkpt>
      <trkpt lat="47.48221" lon="6.76793">
        <ele>360.8</ele>
        <time>2017-05-14T09:22:58.000Z</time>
      </trkpt>
      <trkpt lat="47.48227" lon="6.76795">
        <ele>360.8</ele>
        <time>2017-05-14T09:22:59.000Z</time>
      </trkpt>
      <trkpt lat="47.48232" lon="6.76798">
        <ele>361.1</ele>
        <time>2017-05-14T09:23:00.000Z</time>
      </trkpt>
      <trkpt lat="47.48237" lon="6.768">
        <ele>361.5</ele>
        <time>2017-05-14T09:23:01.000Z</time>
      </trkpt>
      <trkpt lat="47.48242" lon="6.76803">
        <ele>361.8</ele>
        <time>2017-05-14T09:23:02.000Z</time>
      </trkpt>
      <trkpt lat="47.48246" lon="6.76806">
        <ele>362.1</ele>
        <time>2017-05-14T09:23:03.000Z</time>
      </trkpt>
      <trkpt lat="47.4825" lon="6.76809">
        <ele>362.4</ele>
        <time>2017-05-14T09:23:04.000Z</time>
      </trkpt>
      <trkpt lat="47.48254" lon="6.76814">
        <ele>361.8</ele>
        <time>2017-05-14T09:23:05.000Z</time>
      </trkpt>
      <trkpt lat="47.48257" lon="6.76819">
        <ele>361.5</ele>
        <time>2017-05-14T09:23:06.000Z</time>
      </trkpt>
      <trkpt lat="47.48261" lon="6.76824">
        <ele>361.9</ele>
        <time>2017-05-14T09:23:07.000Z</time>
      </trkpt>
      <trkpt lat="47.48264" lon="6.76829">
        <ele>361.8</ele>
        <time>2017-05-14T09:23:08.000Z</time>
      </trkpt>
      <trkpt lat="47.48268" lon="6.76834">
        <ele>361.3</ele>
        <time>2017-05-14T09:23:09.000Z</time>
      </trkpt>
      <trkpt lat="47.48271" lon="6.76839">
        <ele>360.9</ele>
        <time>2017-05-14T09:23:10.000Z</time>
      </trkpt>
      <trkpt lat="47.48274" lon="6.76843">
        <ele>360.4</ele>
        <time>2017-05-14T09:23:11.000Z</time>
      </trkpt>
      <trkpt lat="47.48278" lon="6.76849">
        <ele>359.3</ele>
        <time>2017-05-14T09:23:12.000Z</time>
      </trkpt>
      <trkpt lat="47.48281" lon="6.76854">
        <ele>358.9</ele>
        <time>2017-05-14T09:23:13.000Z</time>
      </trkpt>
      <trkpt lat="47.48286" lon="6.7686">
        <ele>358.8</ele>
        <time>2017-05-14T09:23:14.000Z</time>
      </trkpt>
      <trkpt lat="47.48291" lon="6.76866">
        <ele>358.7</ele>
        <time>2017-05-14T09:23:15.000Z</time>
      </trkpt>
      <trkpt lat="47.48296" lon="6.76872">
        <ele>358.9</ele>
        <time>2017-05-14T09:23:16.000Z</time>
      </trkpt>
      <trkpt lat="47.48302" lon="6.76878">
        <ele>359</ele>
        <time>2017-05-14T09:23:17.000Z</time>
      </trkpt>
      <trkpt lat="47.48307" lon="6.76883">
        <ele>359</ele>
        <time>2017-05-14T09:23:18.000Z</time>
      </trkpt>
      <trkpt lat="47.48311" lon="6.76886">
        <ele>359.3</ele>
        <time>2017-05-14T09:23:19.000Z</time>
      </trkpt>
      <trkpt lat="47.48316" lon="6.7689">
        <ele>359.7</ele>
        <time>2017-05-14T09:23:20.000Z</time>
      </trkpt>
      <trkpt lat="47.48321" lon="6.76894">
        <ele>360.1</ele>
        <time>2017-05-14T09:23:21.000Z</time>
      </trkpt>
      <trkpt lat="47.48326" lon="6.76899">
        <ele>360.7</ele>
        <time>2017-05-14T09:23:22.000Z</time>
      </trkpt>
      <trkpt lat="47.48331" lon="6.76902">
        <ele>361.1</ele>
        <time>2017-05-14T09:23:23.000Z</time>
      </trkpt>
      <trkpt lat="47.48336" lon="6.76906">
        <ele>361.2</ele>
        <time>2017-05-14T09:23:24.000Z</time>
      </trkpt>
      <trkpt lat="47.48342" lon="6.7691">
        <ele>360.9</ele>
        <time>2017-05-14T09:23:25.000Z</time>
      </trkpt>
      <trkpt lat="47.48347" lon="6.76913">
        <ele>360.6</ele>
        <time>2017-05-14T09:23:26.000Z</time>
      </trkpt>
      <trkpt lat="47.48352" lon="6.76916">
        <ele>360.2</ele>
        <time>2017-05-14T09:23:27.000Z</time>
      </trkpt>
      <trkpt lat="47.48357" lon="6.76919">
        <ele>360.2</ele>
        <time>2017-05-14T09:23:28.000Z</time>
      </trkpt>
      <trkpt lat="47.48362" lon="6.76921">
        <ele>359.8</ele>
        <time>2017-05-14T09:23:29.000Z</time>
      </trkpt>
      <trkpt lat="47.48367" lon="6.76924">
        <ele>359.9</ele>
        <time>2017-05-14T09:23:30.000Z</time>
      </trkpt>
      <trkpt lat="47.48372" lon="6.76927">
        <ele>359.7</ele>
        <time>2017-05-14T09:23:31.000Z</time>
      </trkpt>
      <trkpt lat="47.48378" lon="6.7693">
        <ele>359.7</ele>
        <time>2017-05-14T09:23:32.000Z</time>
      </trkpt>
      <trkpt lat="47.48383" lon="6.76933">
        <ele>360.6</ele>
        <time>2017-05-14T09:23:33.000Z</time>
      </trkpt>
      <trkpt lat="47.48389" lon="6.76937">
        <ele>361.1</ele>
        <time>2017-05-14T09:23:34.000Z</time>
      </trkpt>
      <trkpt lat="47.48395" lon="6.7694">
        <ele>361.7</ele>
        <time>2017-05-14T09:23:35.000Z</time>
      </trkpt>
      <trkpt lat="47.484" lon="6.76944">
        <ele>362.7</ele>
        <time>2017-05-14T09:23:36.000Z</time>
      </trkpt>
      <trkpt lat="47.48405" lon="6.76947">
        <ele>363.8</ele>
        <time>2017-05-14T09:23:37.000Z</time>
      </trkpt>
      <trkpt lat="47.48411" lon="6.7695">
        <ele>364.3</ele>
        <time>2017-05-14T09:23:38.000Z</time>
      </trkpt>
      <trkpt lat="47.48416" lon="6.76953">
        <ele>364.2</ele>
        <time>2017-05-14T09:23:39.000Z</time>
      </trkpt>
      <trkpt lat="47.48421" lon="6.76956">
        <ele>364.5</ele>
        <time>2017-05-14T09:23:40.000Z</time>
      </trkpt>
      <trkpt lat="47.48426" lon="6.76959">
        <ele>364.5</ele>
        <time>2017-05-14T09:23:41.000Z</time>
      </trkpt>
      <trkpt lat="47.4843" lon="6.76962">
        <ele>363.8</ele>
        <time>2017-05-14T09:23:42.000Z</time>
      </trkpt>
      <trkpt lat="47.48435" lon="6.76965">
        <ele>363</ele>
        <time>2017-05-14T09:23:43.000Z</time>
      </trkpt>
      <trkpt lat="47.4844" lon="6.76968">
        <ele>362.9</ele>
        <time>2017-05-14T09:23:44.000Z</time>
      </trkpt>
      <trkpt lat="47.48445" lon="6.76971">
        <ele>362.2</ele>
        <time>2017-05-14T09:23:45.000Z</time>
      </trkpt>
      <trkpt lat="47.4845" lon="6.76973">
        <ele>362</ele>
        <time>2017-05-14T09:23:46.000Z</time>
      </trkpt>
      <trkpt lat="47.48454" lon="6.76976">
        <ele>362</ele>
        <time>2017-05-14T09:23:47.000Z</time>
      </trkpt>
      <trkpt lat="47.48459" lon="6.7698">
        <ele>361.3</ele>
        <time>2017-05-14T09:23:48.000Z</time>
      </trkpt>
      <trkpt lat="47.48464" lon="6.76983">
        <ele>361.2</ele>
        <time>2017-05-14T09:23:49.000Z</time>
      </trkpt>
      <trkpt lat="47.48469" lon="6.76986">
        <ele>360.7</ele>
        <time>2017-05-14T09:23:50.000Z</time>
      </trkpt>
      <trkpt lat="47.48474" lon="6.76989">
        <ele>359.9</ele>
        <time>2017-05-14T09:23:51.000Z</time>
      </trkpt>
      <trkpt lat="47.4848" lon="6.76993">
        <ele>359.9</ele>
        <time>2017-05-14T09:23:52.000Z</time>
      </trkpt>
      <trkpt lat="47.48487" lon="6.76996">
        <ele>359.6</ele>
        <time>2017-05-14T09:23:53.000Z</time>
      </trkpt>
      <trkpt lat="47.48492" lon="6.77">
        <ele>359.1</ele>
        <time>2017-05-14T09:23:54.000Z</time>
      </trkpt>
      <trkpt lat="47.48498" lon="6.77003">
        <ele>359</ele>
        <time>2017-05-14T09:23:55.000Z</time>
      </trkpt>
      <trkpt lat="47.48503" lon="6.77006">
        <ele>359.4</ele>
        <time>2017-05-14T09:23:56.000Z</time>
      </trkpt>
      <trkpt lat="47.48508" lon="6.77009">
        <ele>359.6</ele>
        <time>2017-05-14T09:23:57.000Z</time>
      </trkpt>
      <trkpt lat="47.48513" lon="6.77012">
        <ele>359.9</ele>
        <time>2017-05-14T09:23:58.000Z</time>
      </trkpt>
      <trkpt lat="47.48518" lon="6.77016">
        <ele>359.9</ele>
        <time>2017-05-14T09:23:59.000Z</time>
      </trkpt>
      <trkpt lat="47.48522" lon="6.7702">
        <ele>359.8</ele>
        <time>2017-05-14T09:24:00.000Z</time>
      </trkpt>
      <trkpt lat="47.48527" lon="6.77023">
        <ele>359.5</ele>
        <time>2017-05-14T09:24:01.000Z</time>
      </trkpt>
      <trkpt lat="47.48531" lon="6.77027">
        <ele>359.5</ele>
        <time>2017-05-14T09:24:02.000Z</time>
      </trkpt>
      <trkpt lat="47.48536" lon="6.7703">
        <ele>359.2</ele>
        <time>2017-05-14T09:24:03.000Z</time>
      </trkpt>
      <trkpt lat="47.48541" lon="6.77034">
        <ele>359.5</ele>
        <time>2017-05-14T09:24:04.000Z</time>
      </trkpt>
      <trkpt lat="47.48546" lon="6.77038">
        <ele>359.7</ele>
        <time>2017-05-14T09:24:05.000Z</time>
      </trkpt>
      <trkpt lat="47.48552" lon="6.77042">
        <ele>360</ele>
        <time>2017-05-14T09:24:06.000Z</time>
      </trkpt>
      <trkpt lat="47.48554" lon="6.77044">
        <ele>360.1</ele>
        <time>2017-05-14T09:24:07.000Z</time>
      </trkpt>
      <trkpt lat="47.48558" lon="6.77044">
        <ele>360.2</ele>
        <time>2017-05-14T09:24:08.000Z</time>
      </trkpt>
      <trkpt lat="47.48564" lon="6.77046">
        <ele>360.2</ele>
        <time>2017-05-14T09:24:09.000Z</time>
      </trkpt>
      <trkpt lat="47.48569" lon="6.77048">
        <ele>360.2</ele>
        <time>2017-05-14T09:24:10.000Z</time>
      </trkpt>
      <trkpt lat="47.48573" lon="6.7705">
        <ele>360.3</ele>
        <time>2017-05-14T09:24:11.000Z</time>
      </trkpt>
      <trkpt lat="47.48577" lon="6.77052">
        <ele>359.4</ele>
        <time>2017-05-14T09:24:12.000Z</time>
      </trkpt>
      <trkpt lat="47.48581" lon="6.77055">
        <ele>359</ele>
        <time>2017-05-14T09:24:13.000Z</time>
      </trkpt>
      <trkpt lat="47.48585" lon="6.77058">
        <ele>358.5</ele>
        <time>2017-05-14T09:24:14.000Z</time>
      </trkpt>
      <trkpt lat="47.48589" lon="6.77059">
        <ele>358.4</ele>
        <time>2017-05-14T09:24:15.000Z</time>
      </trkpt>
      <trkpt lat="47.48593" lon="6.77061">
        <ele>358.7</ele>
        <time>2017-05-14T09:24:16.000Z</time>
      </trkpt>
      <trkpt lat="47.48598" lon="6.77063">
        <ele>359</ele>
        <time>2017-05-14T09:24:17.000Z</time>
      </trkpt>
      <trkpt lat="47.48603" lon="6.77067">
        <ele>359.3</ele>
        <time>2017-05-14T09:24:18.000Z</time>
      </trkpt>
      <trkpt lat="47.48607" lon="6.77071">
        <ele>359.8</ele>
        <time>2017-05-14T09:24:19.000Z</time>
      </trkpt>
      <trkpt lat="47.48611" lon="6.77075">
        <ele>359.7</ele>
        <time>2017-05-14T09:24:20.000Z</time>
      </trkpt>
      <trkpt lat="47.48616" lon="6.77078">
        <ele>359.7</ele>
        <time>2017-05-14T09:24:21.000Z</time>
      </trkpt>
      <trkpt lat="47.4862" lon="6.77081">
        <ele>359.9</ele>
        <time>2017-05-14T09:24:22.000Z</time>
      </trkpt>
      <trkpt lat="47.48625" lon="6.77084">
        <ele>360.5</ele>
        <time>2017-05-14T09:24:23.000Z</time>
      </trkpt>
      <trkpt lat="47.4863" lon="6.77088">
        <ele>361</ele>
        <time>2017-05-14T09:24:24.000Z</time>
      </trkpt>
      <trkpt lat="47.48636" lon="6.77092">
        <ele>361.2</ele>
        <time>2017-05-14T09:24:25.000Z</time>
      </trkpt>
      <trkpt lat="47.48641" lon="6.77097">
        <ele>361.1</ele>
        <time>2017-05-14T09:24:26.000Z</time>
      </trkpt>
      <trkpt lat="47.48647" lon="6.77103">
        <ele>361.8</ele>
        <time>2017-05-14T09:24:27.000Z</time>
      </trkpt>
      <trkpt lat="47.48652" lon="6.77109">
        <ele>362.9</ele>
        <time>2017-05-14T09:24:28.000Z</time>
      </trkpt>
      <trkpt lat="47.48657" lon="6.77114">
        <ele>363.5</ele>
        <time>2017-05-14T09:24:29.000Z</time>
      </trkpt>
      <trkpt lat="47.48661" lon="6.7712">
        <ele>363.9</ele>
        <time>2017-05-14T09:24:30.000Z</time>
      </trkpt>
      <trkpt lat="47.48666" lon="6.77125">
        <ele>363.8</ele>
        <time>2017-05-14T09:24:31.000Z</time>
      </trkpt>
      <trkpt lat="47.48671" lon="6.77131">
        <ele>363.9</ele>
        <time>2017-05-14T09:24:32.000Z</time>
      </trkpt>
      <trkpt lat="47.48676" lon="6.77137">
        <ele>363.8</ele>
        <time>2017-05-14T09:24:33.000Z</time>
      </trkpt>
      <trkpt lat="47.48681" lon="6.77144">
        <ele>364.1</ele>
        <time>2017-05-14T09:24:34.000Z</time>
      </trkpt>
      <trkpt lat="47.48686" lon="6.77148">
        <ele>364.6</ele>
        <time>2017-05-14T09:24:35.000Z</time>
      </trkpt>
      <trkpt lat="47.48689" lon="6.77152">
        <ele>365.1</ele>
        <time>2017-05-14T09:24:36.000Z</time>
      </trkpt>
      <trkpt lat="47.48694" lon="6.77157">
        <ele>365.8</ele>
        <time>2017-05-14T09:24:37.000Z</time>
      </trkpt>
      <trkpt lat="47.48699" lon="6.77162">
        <ele>366.1</ele>
        <time>2017-05-14T09:24:38.000Z</time>
      </trkpt>
      <trkpt lat="47.48703" lon="6.77167">
        <ele>366.3</ele>
        <time>2017-05-14T09:24:39.000Z</time>
      </trkpt>
      <trkpt lat="47.48708" lon="6.7717">
        <ele>366.6</ele>
        <time>2017-05-14T09:24:40.000Z</time>
      </trkpt>
      <trkpt lat="47.48713" lon="6.77174">
        <ele>366.6</ele>
        <time>2017-05-14T09:24:41.000Z</time>
      </trkpt>
      <trkpt lat="47.48717" lon="6.77177">
        <ele>366.6</ele>
        <time>2017-05-14T09:24:42.000Z</time>
      </trkpt>
      <trkpt lat="47.48722" lon="6.77182">
        <ele>366.2</ele>
        <time>2017-05-14T09:24:43.000Z</time>
      </trkpt>
      <trkpt lat="47.48727" lon="6.77185">
        <ele>365.9</ele>
        <time>2017-05-14T09:24:44.000Z</time>
      </trkpt>
      <trkpt lat="47.48732" lon="6.77189">
        <ele>366.2</ele>
        <time>2017-05-14T09:24:45.000Z</time>
      </trkpt>
      <trkpt lat="47.48736" lon="6.77191">
        <ele>365.8</ele>
        <time>2017-05-14T09:24:46.000Z</time>
      </trkpt>
      <trkpt lat="47.48741" lon="6.77194">
        <ele>365.4</ele>
        <time>2017-05-14T09:24:47.000Z</time>
      </trkpt>
      <trkpt lat="47.48746" lon="6.77197">
        <ele>364.9</ele>
        <time>2017-05-14T09:24:48.000Z</time>
      </trkpt>
      <trkpt lat="47.48751" lon="6.77202">
        <ele>364.5</ele>
        <time>2017-05-14T09:24:49.000Z</time>
      </trkpt>
      <trkpt lat="47.48756" lon="6.77206">
        <ele>364.3</ele>
        <time>2017-05-14T09:24:50.000Z</time>
      </trkpt>
      <trkpt lat="47.48759" lon="6.77209">
        <ele>364.3</ele>
        <time>2017-05-14T09:24:51.000Z</time>
      </trkpt>
      <trkpt lat="47.48764" lon="6.77212">
        <ele>363.8</ele>
        <time>2017-05-14T09:24:52.000Z</time>
      </trkpt>
      <trkpt lat="47.4877" lon="6.77216">
        <ele>363.7</ele>
        <time>2017-05-14T09:24:53.000Z</time>
      </trkpt>
      <trkpt lat="47.48774" lon="6.7722">
        <ele>362.9</ele>
        <time>2017-05-14T09:24:54.000Z</time>
      </trkpt>
      <trkpt lat="47.48779" lon="6.77223">
        <ele>362.3</ele>
        <time>2017-05-14T09:24:55.000Z</time>
      </trkpt>
      <trkpt lat="47.48784" lon="6.77227">
        <ele>361.6</ele>
        <time>2017-05-14T09:24:56.000Z</time>
      </trkpt>
      <trkpt lat="47.48789" lon="6.7723">
        <ele>360.3</ele>
        <time>2017-05-14T09:24:57.000Z</time>
      </trkpt>
      <trkpt lat="47.48793" lon="6.77233">
        <ele>359.3</ele>
        <time>2017-05-14T09:24:58.000Z</time>
      </trkpt>
      <trkpt lat="47.48798" lon="6.77236">
        <ele>358.5</ele>
        <time>2017-05-14T09:24:59.000Z</time>
      </trkpt>
      <trkpt lat="47.48803" lon="6.7724">
        <ele>357.7</ele>
        <time>2017-05-14T09:25:00.000Z</time>
      </trkpt>
      <trkpt lat="47.48808" lon="6.77243">
        <ele>356.4</ele>
        <time>2017-05-14T09:25:01.000Z</time>
      </trkpt>
      <trkpt lat="47.48813" lon="6.77247">
        <ele>355.8</ele>
        <time>2017-05-14T09:25:02.000Z</time>
      </trkpt>
      <trkpt lat="47.48818" lon="6.77251">
        <ele>356</ele>
        <time>2017-05-14T09:25:03.000Z</time>
      </trkpt>
      <trkpt lat="47.48823" lon="6.77255">
        <ele>356</ele>
        <time>2017-05-14T09:25:04.000Z</time>
      </trkpt>
      <trkpt lat="47.48828" lon="6.77259">
        <ele>356.3</ele>
        <time>2017-05-14T09:25:05.000Z</time>
      </trkpt>
      <trkpt lat="47.48833" lon="6.77263">
        <ele>356.7</ele>
        <time>2017-05-14T09:25:06.000Z</time>
      </trkpt>
      <trkpt lat="47.48837" lon="6.77267">
        <ele>357.4</ele>
        <time>2017-05-14T09:25:07.000Z</time>
      </trkpt>
      <trkpt lat="47.48842" lon="6.7727">
        <ele>357.4</ele>
        <time>2017-05-14T09:25:08.000Z</time>
      </trkpt>
      <trkpt lat="47.48846" lon="6.77273">
        <ele>357.8</ele>
        <time>2017-05-14T09:25:09.000Z</time>
      </trkpt>
      <trkpt lat="47.48851" lon="6.77277">
        <ele>358</ele>
        <time>2017-05-14T09:25:10.000Z</time>
      </trkpt>
      <trkpt lat="47.48855" lon="6.77279">
        <ele>357.5</ele>
        <time>2017-05-14T09:25:11.000Z</time>
      </trkpt>
      <trkpt lat="47.48861" lon="6.77282">
        <ele>356.8</ele>
        <time>2017-05-14T09:25:12.000Z</time>
      </trkpt>
      <trkpt lat="47.48866" lon="6.77284">
        <ele>356.4</ele>
        <time>2017-05-14T09:25:13.000Z</time>
      </trkpt>
      <trkpt lat="47.48871" lon="6.77286">
        <ele>356.9</ele>
        <time>2017-05-14T09:25:14.000Z</time>
      </trkpt>
      <trkpt lat="47.48877" lon="6.77288">
        <ele>357.2</ele>
        <time>2017-05-14T09:25:15.000Z</time>
      </trkpt>
      <trkpt lat="47.48883" lon="6.77289">
        <ele>358.1</ele>
        <time>2017-05-14T09:25:16.000Z</time>
      </trkpt>
      <trkpt lat="47.48889" lon="6.7729">
        <ele>358.8</ele>
        <time>2017-05-14T09:25:17.000Z</time>
      </trkpt>
      <trkpt lat="47.48894" lon="6.77292">
        <ele>359.2</ele>
        <time>2017-05-14T09:25:18.000Z</time>
      </trkpt>
      <trkpt lat="47.48899" lon="6.77294">
        <ele>359.4</ele>
        <time>2017-05-14T09:25:19.000Z</time>
      </trkpt>
      <trkpt lat="47.48905" lon="6.77296">
        <ele>359.8</ele>
        <time>2017-05-14T09:25:20.000Z</time>
      </trkpt>
      <trkpt lat="47.4891" lon="6.77298">
        <ele>360</ele>
        <time>2017-05-14T09:25:21.000Z</time>
      </trkpt>
      <trkpt lat="47.48915" lon="6.773">
        <ele>360.6</ele>
        <time>2017-05-14T09:25:22.000Z</time>
      </trkpt>
      <trkpt lat="47.48921" lon="6.77302">
        <ele>360.8</ele>
        <time>2017-05-14T09:25:23.000Z</time>
      </trkpt>
      <trkpt lat="47.48927" lon="6.77305">
        <ele>360.7</ele>
        <time>2017-05-14T09:25:24.000Z</time>
      </trkpt>
      <trkpt lat="47.48932" lon="6.77307">
        <ele>361.5</ele>
        <time>2017-05-14T09:25:25.000Z</time>
      </trkpt>
      <trkpt lat="47.48937" lon="6.7731">
        <ele>362.5</ele>
        <time>2017-05-14T09:25:26.000Z</time>
      </trkpt>
      <trkpt lat="47.48942" lon="6.77312">
        <ele>363.3</ele>
        <time>2017-05-14T09:25:27.000Z</time>
      </trkpt>
      <trkpt lat="47.48947" lon="6.77314">
        <ele>363.9</ele>
        <time>2017-05-14T09:25:28.000Z</time>
      </trkpt>
      <trkpt lat="47.48952" lon="6.77315">
        <ele>364</ele>
        <time>2017-05-14T09:25:29.000Z</time>
      </trkpt>
      <trkpt lat="47.48957" lon="6.77317">
        <ele>364.3</ele>
        <time>2017-05-14T09:25:30.000Z</time>
      </trkpt>
      <trkpt lat="47.48963" lon="6.77318">
        <ele>364.6</ele>
        <time>2017-05-14T09:25:31.000Z</time>
      </trkpt>
      <trkpt lat="47.48967" lon="6.77318">
        <ele>364.7</ele>
        <time>2017-05-14T09:25:32.000Z</time>
      </trkpt>
      <trkpt lat="47.48972" lon="6.77319">
        <ele>365</ele>
        <time>2017-05-14T09:25:33.000Z</time>
      </trkpt>
      <trkpt lat="47.48978" lon="6.77319">
        <ele>364.2</ele>
        <time>2017-05-14T09:25:34.000Z</time>
      </trkpt>
      <trkpt lat="47.48984" lon="6.7732">
        <ele>363.2</ele>
        <time>2017-05-14T09:25:35.000Z</time>
      </trkpt>
      <trkpt lat="47.4899" lon="6.7732">
        <ele>362.8</ele>
        <time>2017-05-14T09:25:36.000Z</time>
      </trkpt>
      <trkpt lat="47.48995" lon="6.7732">
        <ele>362.1</ele>
        <time>2017-05-14T09:25:37.000Z</time>
      </trkpt>
      <trkpt lat="47.49" lon="6.7732">
        <ele>362.1</ele>
        <time>2017-05-14T09:25:38.000Z</time>
      </trkpt>
      <trkpt lat="47.49005" lon="6.7732">
        <ele>361.5</ele>
        <time>2017-05-14T09:25:39.000Z</time>
      </trkpt>
      <trkpt lat="47.4901" lon="6.77319">
        <ele>361.6</ele>
        <time>2017-05-14T09:25:40.000Z</time>
      </trkpt>
      <trkpt lat="47.49015" lon="6.77319">
        <ele>361.9</ele>
        <time>2017-05-14T09:25:41.000Z</time>
      </trkpt>
      <trkpt lat="47.49021" lon="6.77319">
        <ele>361.8</ele>
        <time>2017-05-14T09:25:42.000Z</time>
      </trkpt>
      <trkpt lat="47.49026" lon="6.77319">
        <ele>361.6</ele>
        <time>2017-05-14T09:25:43.000Z</time>
      </trkpt>
      <trkpt lat="47.49031" lon="6.7732">
        <ele>361.5</ele>
        <time>2017-05-14T09:25:44.000Z</time>
      </trkpt>
      <trkpt lat="47.49037" lon="6.7732">
        <ele>361.3</ele>
        <time>2017-05-14T09:25:45.000Z</time>
      </trkpt>
      <trkpt lat="47.49042" lon="6.7732">
        <ele>361.3</ele>
        <time>2017-05-14T09:25:46.000Z</time>
      </trkpt>
      <trkpt lat="47.49048" lon="6.7732">
        <ele>361.6</ele>
        <time>2017-05-14T09:25:47.000Z</time>
      </trkpt>
      <trkpt lat="47.49054" lon="6.77321">
        <ele>361.3</ele>
        <time>2017-05-14T09:25:48.000Z</time>
      </trkpt>
      <trkpt lat="47.49059" lon="6.77322">
        <ele>361.4</ele>
        <time>2017-05-14T09:25:49.000Z</time>
      </trkpt>
      <trkpt lat="47.49064" lon="6.77322">
        <ele>360.8</ele>
        <time>2017-05-14T09:25:50.000Z</time>
      </trkpt>
      <trkpt lat="47.49069" lon="6.77323">
        <ele>360.4</ele>
        <time>2017-05-14T09:25:51.000Z</time>
      </trkpt>
      <trkpt lat="47.49074" lon="6.77324">
        <ele>360.6</ele>
        <time>2017-05-14T09:25:52.000Z</time>
      </trkpt>
      <trkpt lat="47.4908" lon="6.77324">
        <ele>360.6</ele>
        <time>2017-05-14T09:25:53.000Z</time>
      </trkpt>
      <trkpt lat="47.49086" lon="6.77324">
        <ele>361</ele>
        <time>2017-05-14T09:25:54.000Z</time>
      </trkpt>
      <trkpt lat="47.49091" lon="6.77325">
        <ele>361.3</ele>
        <time>2017-05-14T09:25:55.000Z</time>
      </trkpt>
      <trkpt lat="47.49096" lon="6.77326">
        <ele>361.5</ele>
        <time>2017-05-14T09:25:56.000Z</time>
      </trkpt>
      <trkpt lat="47.49102" lon="6.77326">
        <ele>362.3</ele>
        <time>2017-05-14T09:25:57.000Z</time>
      </trkpt>
      <trkpt lat="47.49107" lon="6.77327">
        <ele>362.7</ele>
        <time>2017-05-14T09:25:58.000Z</time>
      </trkpt>
      <trkpt lat="47.49113" lon="6.77327">
        <ele>363.7</ele>
        <time>2017-05-14T09:25:59.000Z</time>
      </trkpt>
      <trkpt lat="47.49117" lon="6.77328">
        <ele>364.4</ele>
        <time>2017-05-14T09:26:00.000Z</time>
      </trkpt>
      <trkpt lat="47.49121" lon="6.77328">
        <ele>365.1</ele>
        <time>2017-05-14T09:26:01.000Z</time>
      </trkpt>
      <trkpt lat="47.49126" lon="6.77328">
        <ele>365.4</ele>
        <time>2017-05-14T09:26:02.000Z</time>
      </trkpt>
      <trkpt lat="47.4913" lon="6.77328">
        <ele>365.6</ele>
        <time>2017-05-14T09:26:03.000Z</time>
      </trkpt>
      <trkpt lat="47.49135" lon="6.77328">
        <ele>366.1</ele>
        <time>2017-05-14T09:26:04.000Z</time>
      </trkpt>
      <trkpt lat="47.49139" lon="6.77328">
        <ele>366.1</ele>
        <time>2017-05-14T09:26:05.000Z</time>
      </trkpt>
      <trkpt lat="47.49143" lon="6.77329">
        <ele>366.1</ele>
        <time>2017-05-14T09:26:06.000Z</time>
      </trkpt>
      <trkpt lat="47.49147" lon="6.77329">
        <ele>366</ele>
        <time>2017-05-14T09:26:07.000Z</time>
      </trkpt>
      <trkpt lat="47.4915" lon="6.77329">
        <ele>366</ele>
        <time>2017-05-14T09:26:08.000Z</time>
      </trkpt>
      <trkpt lat="47.49152" lon="6.77329">
        <ele>365.8</ele>
        <time>2017-05-14T09:26:09.000Z</time>
      </trkpt>
      <trkpt lat="47.49156" lon="6.77329">
        <ele>365.8</ele>
        <time>2017-05-14T09:26:10.000Z</time>
      </trkpt>
      <trkpt lat="47.49159" lon="6.77329">
        <ele>365.8</ele>
        <time>2017-05-14T09:26:11.000Z</time>
      </trkpt>
      <trkpt lat="47.49162" lon="6.7733">
        <ele>365.8</ele>
        <time>2017-05-14T09:26:12.000Z</time>
      </trkpt>
      <trkpt lat="47.49164" lon="6.7733">
        <ele>365.8</ele>
        <time>2017-05-14T09:26:13.000Z</time>
      </trkpt>
      <trkpt lat="47.49167" lon="6.77331">
        <ele>365.8</ele>
        <time>2017-05-14T09:26:14.000Z</time>
      </trkpt>
      <trkpt lat="47.49169" lon="6.77331">
        <ele>365.8</ele>
        <time>2017-05-14T09:26:15.000Z</time>
      </trkpt>
      <trkpt lat="47.49171" lon="6.77331">
        <ele>365.7</ele>
        <time>2017-05-14T09:26:16.000Z</time>
      </trkpt>
      <trkpt lat="47.49174" lon="6.77331">
        <ele>365.7</ele>
        <time>2017-05-14T09:26:17.000Z</time>
      </trkpt>
      <trkpt lat="47.49177" lon="6.77331">
        <ele>365.7</ele>
        <time>2017-05-14T09:26:18.000Z</time>
      </trkpt>
      <trkpt lat="47.49179" lon="6.77331">
        <ele>365.6</ele>
        <time>2017-05-14T09:26:19.000Z</time>
      </trkpt>
      <trkpt lat="47.49182" lon="6.77331">
        <ele>365.5</ele>
        <time>2017-05-14T09:26:20.000Z</time>
      </trkpt>
      <trkpt lat="47.49185" lon="6.77332">
        <ele>365.5</ele>
        <time>2017-05-14T09:26:22.000Z</time>
      </trkpt>
      <trkpt lat="47.49188" lon="6.77332">
        <ele>365.5</ele>
        <time>2017-05-14T09:26:23.000Z</time>
      </trkpt>
      <trkpt lat="47.49191" lon="6.77333">
        <ele>365.5</ele>
        <time>2017-05-14T09:26:24.000Z</time>
      </trkpt>
      <trkpt lat="47.49194" lon="6.77333">
        <ele>365.6</ele>
        <time>2017-05-14T09:26:25.000Z</time>
      </trkpt>
      <trkpt lat="47.49197" lon="6.77333">
        <ele>365.6</ele>
        <time>2017-05-14T09:26:26.000Z</time>
      </trkpt>
      <trkpt lat="47.49201" lon="6.77333">
        <ele>365.7</ele>
        <time>2017-05-14T09:26:27.000Z</time>
      </trkpt>
      <trkpt lat="47.49205" lon="6.77334">
        <ele>365.9</ele>
        <time>2017-05-14T09:26:28.000Z</time>
      </trkpt>
      <trkpt lat="47.49209" lon="6.77335">
        <ele>366</ele>
        <time>2017-05-14T09:26:29.000Z</time>
      </trkpt>
      <trkpt lat="47.49213" lon="6.77336">
        <ele>366.2</ele>
        <time>2017-05-14T09:26:30.000Z</time>
      </trkpt>
      <trkpt lat="47.49218" lon="6.77337">
        <ele>366</ele>
        <time>2017-05-14T09:26:31.000Z</time>
      </trkpt>
      <trkpt lat="47.49223" lon="6.77337">
        <ele>366</ele>
        <time>2017-05-14T09:26:32.000Z</time>
      </trkpt>
      <trkpt lat="47.49227" lon="6.77337">
        <ele>366.1</ele>
        <time>2017-05-14T09:26:33.000Z</time>
      </trkpt>
      <trkpt lat="47.49231" lon="6.77337">
        <ele>365.8</ele>
        <time>2017-05-14T09:26:34.000Z</time>
      </trkpt>
      <trkpt lat="47.49235" lon="6.77337">
        <ele>365.3</ele>
        <time>2017-05-14T09:26:35.000Z</time>
      </trkpt>
      <trkpt lat="47.49239" lon="6.77337">
        <ele>365</ele>
        <time>2017-05-14T09:26:36.000Z</time>
      </trkpt>
      <trkpt lat="47.49243" lon="6.77336">
        <ele>364</ele>
        <time>2017-05-14T09:26:37.000Z</time>
      </trkpt>
      <trkpt lat="47.49247" lon="6.77334">
        <ele>363.4</ele>
        <time>2017-05-14T09:26:38.000Z</time>
      </trkpt>
      <trkpt lat="47.49252" lon="6.77331">
        <ele>362.7</ele>
        <time>2017-05-14T09:26:39.000Z</time>
      </trkpt>
      <trkpt lat="47.49257" lon="6.77328">
        <ele>362.3</ele>
        <time>2017-05-14T09:26:40.000Z</time>
      </trkpt>
      <trkpt lat="47.49262" lon="6.77325">
        <ele>361.5</ele>
        <time>2017-05-14T09:26:41.000Z</time>
      </trkpt>
      <trkpt lat="47.49268" lon="6.77325">
        <ele>361.3</ele>
        <time>2017-05-14T09:26:42.000Z</time>
      </trkpt>
      <trkpt lat="47.49274" lon="6.77325">
        <ele>361.4</ele>
        <time>2017-05-14T09:26:43.000Z</time>
      </trkpt>
      <trkpt lat="47.4928" lon="6.77325">
        <ele>362</ele>
        <time>2017-05-14T09:26:44.000Z</time>
      </trkpt>
      <trkpt lat="47.49286" lon="6.77325">
        <ele>362.7</ele>
        <time>2017-05-14T09:26:45.000Z</time>
      </trkpt>
      <trkpt lat="47.49292" lon="6.77325">
        <ele>363.1</ele>
        <time>2017-05-14T09:26:46.000Z</time>
      </trkpt>
      <trkpt lat="47.49299" lon="6.77325">
        <ele>364.2</ele>
        <time>2017-05-14T09:26:47.000Z</time>
      </trkpt>
      <trkpt lat="47.49306" lon="6.77326">
        <ele>364.8</ele>
        <time>2017-05-14T09:26:48.000Z</time>
      </trkpt>
      <trkpt lat="47.49312" lon="6.77326">
        <ele>365</ele>
        <time>2017-05-14T09:26:49.000Z</time>
      </trkpt>
      <trkpt lat="47.49317" lon="6.77327">
        <ele>365.1</ele>
        <time>2017-05-14T09:26:50.000Z</time>
      </trkpt>
      <trkpt lat="47.49323" lon="6.77328">
        <ele>364.7</ele>
        <time>2017-05-14T09:26:51.000Z</time>
      </trkpt>
      <trkpt lat="47.49328" lon="6.77331">
        <ele>364.1</ele>
        <time>2017-05-14T09:26:52.000Z</time>
      </trkpt>
      <trkpt lat="47.49332" lon="6.77333">
        <ele>363.1</ele>
        <time>2017-05-14T09:26:53.000Z</time>
      </trkpt>
      <trkpt lat="47.49336" lon="6.77336">
        <ele>362.5</ele>
        <time>2017-05-14T09:26:54.000Z</time>
      </trkpt>
      <trkpt lat="47.49339" lon="6.77339">
        <ele>362.7</ele>
        <time>2017-05-14T09:26:55.000Z</time>
      </trkpt>
      <trkpt lat="47.49343" lon="6.77342">
        <ele>362.7</ele>
        <time>2017-05-14T09:26:56.000Z</time>
      </trkpt>
      <trkpt lat="47.49347" lon="6.77343">
        <ele>362.6</ele>
        <time>2017-05-14T09:26:57.000Z</time>
      </trkpt>
      <trkpt lat="47.49351" lon="6.77343">
        <ele>362.4</ele>
        <time>2017-05-14T09:26:58.000Z</time>
      </trkpt>
      <trkpt lat="47.49356" lon="6.77344">
        <ele>363.1</ele>
        <time>2017-05-14T09:26:59.000Z</time>
      </trkpt>
      <trkpt lat="47.4936" lon="6.77345">
        <ele>363.1</ele>
        <time>2017-05-14T09:27:00.000Z</time>
      </trkpt>
      <trkpt lat="47.49364" lon="6.77345">
        <ele>363</ele>
        <time>2017-05-14T09:27:01.000Z</time>
      </trkpt>
      <trkpt lat="47.49369" lon="6.77346">
        <ele>363.7</ele>
        <time>2017-05-14T09:27:02.000Z</time>
      </trkpt>
      <trkpt lat="47.49374" lon="6.77347">
        <ele>364</ele>
        <time>2017-05-14T09:27:03.000Z</time>
      </trkpt>
      <trkpt lat="47.49379" lon="6.77347">
        <ele>364.1</ele>
        <time>2017-05-14T09:27:04.000Z</time>
      </trkpt>
      <trkpt lat="47.49384" lon="6.77347">
        <ele>364</ele>
        <time>2017-05-14T09:27:05.000Z</time>
      </trkpt>
      <trkpt lat="47.49389" lon="6.77347">
        <ele>363.9</ele>
        <time>2017-05-14T09:27:06.000Z</time>
      </trkpt>
      <trkpt lat="47.49394" lon="6.77348">
        <ele>363.2</ele>
        <time>2017-05-14T09:27:07.000Z</time>
      </trkpt>
      <trkpt lat="47.49398" lon="6.77348">
        <ele>362.3</ele>
        <time>2017-05-14T09:27:08.000Z</time>
      </trkpt>
      <trkpt lat="47.49403" lon="6.77348">
        <ele>361</ele>
        <time>2017-05-14T09:27:09.000Z</time>
      </trkpt>
      <trkpt lat="47.49408" lon="6.77348">
        <ele>359.4</ele>
        <time>2017-05-14T09:27:10.000Z</time>
      </trkpt>
      <trkpt lat="47.49413" lon="6.77348">
        <ele>358.3</ele>
        <time>2017-05-14T09:27:11.000Z</time>
      </trkpt>
      <trkpt lat="47.49418" lon="6.77349">
        <ele>357.4</ele>
        <time>2017-05-14T09:27:12.000Z</time>
      </trkpt>
      <trkpt lat="47.49423" lon="6.77349">
        <ele>357.4</ele>
        <time>2017-05-14T09:27:13.000Z</time>
      </trkpt>
      <trkpt lat="47.49428" lon="6.7735">
        <ele>358.1</ele>
        <time>2017-05-14T09:27:14.000Z</time>
      </trkpt>
      <trkpt lat="47.49434" lon="6.77351">
        <ele>358.5</ele>
        <time>2017-05-14T09:27:15.000Z</time>
      </trkpt>
      <trkpt lat="47.4944" lon="6.77352">
        <ele>359.4</ele>
        <time>2017-05-14T09:27:16.000Z</time>
      </trkpt>
      <trkpt lat="47.49445" lon="6.77352">
        <ele>360.3</ele>
        <time>2017-05-14T09:27:17.000Z</time>
      </trkpt>
      <trkpt lat="47.4945" lon="6.77352">
        <ele>360.9</ele>
        <time>2017-05-14T09:27:18.000Z</time>
      </trkpt>
      <trkpt lat="47.49455" lon="6.77353">
        <ele>361.7</ele>
        <time>2017-05-14T09:27:19.000Z</time>
      </trkpt>
      <trkpt lat="47.4946" lon="6.77354">
        <ele>362.7</ele>
        <time>2017-05-14T09:27:20.000Z</time>
      </trkpt>
      <trkpt lat="47.49465" lon="6.77354">
        <ele>363.4</ele>
        <time>2017-05-14T09:27:21.000Z</time>
      </trkpt>
      <trkpt lat="47.49471" lon="6.77355">
        <ele>363.2</ele>
        <time>2017-05-14T09:27:22.000Z</time>
      </trkpt>
      <trkpt lat="47.49476" lon="6.77355">
        <ele>362.8</ele>
        <time>2017-05-14T09:27:23.000Z</time>
      </trkpt>
      <trkpt lat="47.49481" lon="6.77356">
        <ele>362.6</ele>
        <time>2017-05-14T09:27:24.000Z</time>
      </trkpt>
      <trkpt lat="47.49486" lon="6.77356">
        <ele>362.3</ele>
        <time>2017-05-14T09:27:25.000Z</time>
      </trkpt>
      <trkpt lat="47.49491" lon="6.77356">
        <ele>361.8</ele>
        <time>2017-05-14T09:27:26.000Z</time>
      </trkpt>
      <trkpt lat="47.49496" lon="6.77356">
        <ele>361.9</ele>
        <time>2017-05-14T09:27:27.000Z</time>
      </trkpt>
      <trkpt lat="47.49501" lon="6.77356">
        <ele>362.1</ele>
        <time>2017-05-14T09:27:28.000Z</time>
      </trkpt>
      <trkpt lat="47.49506" lon="6.77357">
        <ele>362.3</ele>
        <time>2017-05-14T09:27:29.000Z</time>
      </trkpt>
      <trkpt lat="47.49511" lon="6.77357">
        <ele>362.3</ele>
        <time>2017-05-14T09:27:30.000Z</time>
      </trkpt>
      <trkpt lat="47.49516" lon="6.77358">
        <ele>362.6</ele>
        <time>2017-05-14T09:27:31.000Z</time>
      </trkpt>
      <trkpt lat="47.49521" lon="6.77358">
        <ele>362.8</ele>
        <time>2017-05-14T09:27:32.000Z</time>
      </trkpt>
      <trkpt lat="47.49526" lon="6.77359">
        <ele>362.8</ele>
        <time>2017-05-14T09:27:33.000Z</time>
      </trkpt>
      <trkpt lat="47.49531" lon="6.77359">
        <ele>362.6</ele>
        <time>2017-05-14T09:27:34.000Z</time>
      </trkpt>
      <trkpt lat="47.49536" lon="6.77359">
        <ele>362</ele>
        <time>2017-05-14T09:27:35.000Z</time>
      </trkpt>
      <trkpt lat="47.49541" lon="6.7736">
        <ele>362.1</ele>
        <time>2017-05-14T09:27:36.000Z</time>
      </trkpt>
      <trkpt lat="47.49545" lon="6.7736">
        <ele>361.6</ele>
        <time>2017-05-14T09:27:37.000Z</time>
      </trkpt>
      <trkpt lat="47.4955" lon="6.77361">
        <ele>361</ele>
        <time>2017-05-14T09:27:38.000Z</time>
      </trkpt>
      <trkpt lat="47.49555" lon="6.77361">
        <ele>360.9</ele>
        <time>2017-05-14T09:27:39.000Z</time>
      </trkpt>
      <trkpt lat="47.49561" lon="6.77362">
        <ele>360.6</ele>
        <time>2017-05-14T09:27:40.000Z</time>
      </trkpt>
      <trkpt lat="47.49566" lon="6.77362">
        <ele>359.7</ele>
        <time>2017-05-14T09:27:41.000Z</time>
      </trkpt>
      <trkpt lat="47.49571" lon="6.77362">
        <ele>359.2</ele>
        <time>2017-05-14T09:27:42.000Z</time>
      </trkpt>
      <trkpt lat="47.49576" lon="6.77362">
        <ele>358.9</ele>
        <time>2017-05-14T09:27:43.000Z</time>
      </trkpt>
      <trkpt lat="47.49581" lon="6.77362">
        <ele>358.6</ele>
        <time>2017-05-14T09:27:44.000Z</time>
      </trkpt>
      <trkpt lat="47.49586" lon="6.77362">
        <ele>358.6</ele>
        <time>2017-05-14T09:27:45.000Z</time>
      </trkpt>
      <trkpt lat="47.49591" lon="6.77361">
        <ele>358.4</ele>
        <time>2017-05-14T09:27:46.000Z</time>
      </trkpt>
      <trkpt lat="47.49596" lon="6.7736">
        <ele>358.1</ele>
        <time>2017-05-14T09:27:47.000Z</time>
      </trkpt>
      <trkpt lat="47.49601" lon="6.77359">
        <ele>358.2</ele>
        <time>2017-05-14T09:27:48.000Z</time>
      </trkpt>
      <trkpt lat="47.49605" lon="6.77358">
        <ele>358.1</ele>
        <time>2017-05-14T09:27:49.000Z</time>
      </trkpt>
      <trkpt lat="47.49611" lon="6.77357">
        <ele>358.4</ele>
        <time>2017-05-14T09:27:50.000Z</time>
      </trkpt>
      <trkpt lat="47.49616" lon="6.77357">
        <ele>358.9</ele>
        <time>2017-05-14T09:27:51.000Z</time>
      </trkpt>
      <trkpt lat="47.49621" lon="6.77356">
        <ele>359</ele>
        <time>2017-05-14T09:27:52.000Z</time>
      </trkpt>
      <trkpt lat="47.49626" lon="6.77355">
        <ele>359.3</ele>
        <time>2017-05-14T09:27:53.000Z</time>
      </trkpt>
      <trkpt lat="47.4963" lon="6.77353">
        <ele>359.6</ele>
        <time>2017-05-14T09:27:54.000Z</time>
      </trkpt>
      <trkpt lat="47.49633" lon="6.77351">
        <ele>360.4</ele>
        <time>2017-05-14T09:27:55.000Z</time>
      </trkpt>
      <trkpt lat="47.49638" lon="6.7735">
        <ele>361.1</ele>
        <time>2017-05-14T09:27:56.000Z</time>
      </trkpt>
      <trkpt lat="47.49641" lon="6.77349">
        <ele>361.1</ele>
        <time>2017-05-14T09:27:57.000Z</time>
      </trkpt>
      <trkpt lat="47.49644" lon="6.77349">
        <ele>361.2</ele>
        <time>2017-05-14T09:27:58.000Z</time>
      </trkpt>
      <trkpt lat="47.49649" lon="6.77347">
        <ele>361.2</ele>
        <time>2017-05-14T09:27:59.000Z</time>
      </trkpt>
      <trkpt lat="47.49652" lon="6.77346">
        <ele>361.3</ele>
        <time>2017-05-14T09:28:00.000Z</time>
      </trkpt>
      <trkpt lat="47.49655" lon="6.77346">
        <ele>361.3</ele>
        <time>2017-05-14T09:28:01.000Z</time>
      </trkpt>
      <trkpt lat="47.49659" lon="6.77345">
        <ele>361.3</ele>
        <time>2017-05-14T09:28:02.000Z</time>
      </trkpt>
      <trkpt lat="47.49662" lon="6.77344">
        <ele>361.3</ele>
        <time>2017-05-14T09:28:03.000Z</time>
      </trkpt>
      <trkpt lat="47.49665" lon="6.77343">
        <ele>361.3</ele>
        <time>2017-05-14T09:28:04.000Z</time>
      </trkpt>
      <trkpt lat="47.49669" lon="6.77341">
        <ele>361.3</ele>
        <time>2017-05-14T09:28:05.000Z</time>
      </trkpt>
      <trkpt lat="47.49673" lon="6.7734">
        <ele>361.2</ele>
        <time>2017-05-14T09:28:06.000Z</time>
      </trkpt>
      <trkpt lat="47.49678" lon="6.77339">
        <ele>361.2</ele>
        <time>2017-05-14T09:28:07.000Z</time>
      </trkpt>
      <trkpt lat="47.49681" lon="6.77339">
        <ele>361.2</ele>
        <time>2017-05-14T09:28:08.000Z</time>
      </trkpt>
      <trkpt lat="47.49685" lon="6.77338">
        <ele>361.2</ele>
        <time>2017-05-14T09:28:09.000Z</time>
      </trkpt>
      <trkpt lat="47.49688" lon="6.77337">
        <ele>361.2</ele>
        <time>2017-05-14T09:28:10.000Z</time>
      </trkpt>
      <trkpt lat="47.49691" lon="6.77336">
        <ele>361.4</ele>
        <time>2017-05-14T09:28:11.000Z</time>
      </trkpt>
      <trkpt lat="47.49693" lon="6.77336">
        <ele>361.5</ele>
        <time>2017-05-14T09:28:12.000Z</time>
      </trkpt>
      <trkpt lat="47.49696" lon="6.77335">
        <ele>361.6</ele>
        <time>2017-05-14T09:28:13.000Z</time>
      </trkpt>
      <trkpt lat="47.49698" lon="6.77334">
        <ele>361.7</ele>
        <time>2017-05-14T09:28:14.000Z</time>
      </trkpt>
      <trkpt lat="47.49701" lon="6.77333">
        <ele>361.8</ele>
        <time>2017-05-14T09:28:15.000Z</time>
      </trkpt>
      <trkpt lat="47.49704" lon="6.77333">
        <ele>361.9</ele>
        <time>2017-05-14T09:28:16.000Z</time>
      </trkpt>
      <trkpt lat="47.49707" lon="6.77334">
        <ele>361.9</ele>
        <time>2017-05-14T09:28:17.000Z</time>
      </trkpt>
      <trkpt lat="47.49711" lon="6.77334">
        <ele>362.1</ele>
        <time>2017-05-14T09:28:18.000Z</time>
      </trkpt>
      <trkpt lat="47.49715" lon="6.77333">
        <ele>362.1</ele>
        <time>2017-05-14T09:28:19.000Z</time>
      </trkpt>
      <trkpt lat="47.49719" lon="6.77331">
        <ele>361.7</ele>
        <time>2017-05-14T09:28:20.000Z</time>
      </trkpt>
      <trkpt lat="47.49724" lon="6.7733">
        <ele>362.3</ele>
        <time>2017-05-14T09:28:21.000Z</time>
      </trkpt>
      <trkpt lat="47.49728" lon="6.77328">
        <ele>362.4</ele>
        <time>2017-05-14T09:28:22.000Z</time>
      </trkpt>
      <trkpt lat="47.49731" lon="6.77327">
        <ele>362.5</ele>
        <time>2017-05-14T09:28:23.000Z</time>
      </trkpt>
      <trkpt lat="47.49735" lon="6.77325">
        <ele>362.6</ele>
        <time>2017-05-14T09:28:24.000Z</time>
      </trkpt>
      <trkpt lat="47.49738" lon="6.77322">
        <ele>362.7</ele>
        <time>2017-05-14T09:28:25.000Z</time>
      </trkpt>
      <trkpt lat="47.49741" lon="6.77319">
        <ele>362.7</ele>
        <time>2017-05-14T09:28:26.000Z</time>
      </trkpt>
      <trkpt lat="47.49744" lon="6.77317">
        <ele>362.7</ele>
        <time>2017-05-14T09:28:27.000Z</time>
      </trkpt>
      <trkpt lat="47.49746" lon="6.77315">
        <ele>362.7</ele>
        <time>2017-05-14T09:28:28.000Z</time>
      </trkpt>
      <trkpt lat="47.49749" lon="6.77314">
        <ele>362.7</ele>
        <time>2017-05-14T09:28:29.000Z</time>
      </trkpt>
      <trkpt lat="47.49753" lon="6.77312">
        <ele>362.7</ele>
        <time>2017-05-14T09:28:30.000Z</time>
      </trkpt>
      <trkpt lat="47.49756" lon="6.77312">
        <ele>362.7</ele>
        <time>2017-05-14T09:28:31.000Z</time>
      </trkpt>
      <trkpt lat="47.49757" lon="6.77312">
        <ele>362.7</ele>
        <time>2017-05-14T09:28:32.000Z</time>
      </trkpt>
      <trkpt lat="47.49761" lon="6.77312">
        <ele>362.6</ele>
        <time>2017-05-14T09:28:33.000Z</time>
      </trkpt>
      <trkpt lat="47.49765" lon="6.77311">
        <ele>362.3</ele>
        <time>2017-05-14T09:28:34.000Z</time>
      </trkpt>
      <trkpt lat="47.49768" lon="6.7731">
        <ele>362.3</ele>
        <time>2017-05-14T09:28:35.000Z</time>
      </trkpt>
      <trkpt lat="47.49771" lon="6.77309">
        <ele>362.1</ele>
        <time>2017-05-14T09:28:36.000Z</time>
      </trkpt>
      <trkpt lat="47.49775" lon="6.77308">
        <ele>361.4</ele>
        <time>2017-05-14T09:28:37.000Z</time>
      </trkpt>
      <trkpt lat="47.4978" lon="6.77307">
        <ele>361.4</ele>
        <time>2017-05-14T09:28:38.000Z</time>
      </trkpt>
      <trkpt lat="47.49784" lon="6.77307">
        <ele>361.4</ele>
        <time>2017-05-14T09:28:39.000Z</time>
      </trkpt>
      <trkpt lat="47.49788" lon="6.77306">
        <ele>361.2</ele>
        <time>2017-05-14T09:28:40.000Z</time>
      </trkpt>
      <trkpt lat="47.49793" lon="6.77305">
        <ele>361.6</ele>
        <time>2017-05-14T09:28:41.000Z</time>
      </trkpt>
      <trkpt lat="47.49797" lon="6.77305">
        <ele>361</ele>
        <time>2017-05-14T09:28:42.000Z</time>
      </trkpt>
      <trkpt lat="47.49801" lon="6.77308">
        <ele>361.2</ele>
        <time>2017-05-14T09:28:43.000Z</time>
      </trkpt>
      <trkpt lat="47.49803" lon="6.77309">
        <ele>361.3</ele>
        <time>2017-05-14T09:28:44.000Z</time>
      </trkpt>
      <trkpt lat="47.49808" lon="6.77306">
        <ele>360.5</ele>
        <time>2017-05-14T09:28:45.000Z</time>
      </trkpt>
      <trkpt lat="47.49813" lon="6.77305">
        <ele>360.4</ele>
        <time>2017-05-14T09:28:46.000Z</time>
      </trkpt>
      <trkpt lat="47.49817" lon="6.77305">
        <ele>360.3</ele>
        <time>2017-05-14T09:28:47.000Z</time>
      </trkpt>
      <trkpt lat="47.49821" lon="6.77302">
        <ele>359</ele>
        <time>2017-05-14T09:28:48.000Z</time>
      </trkpt>
      <trkpt lat="47.49825" lon="6.77302">
        <ele>358.8</ele>
        <time>2017-05-14T09:28:49.000Z</time>
      </trkpt>
      <trkpt lat="47.49831" lon="6.773">
        <ele>356.8</ele>
        <time>2017-05-14T09:28:50.000Z</time>
      </trkpt>
      <trkpt lat="47.49836" lon="6.77298">
        <ele>355.6</ele>
        <time>2017-05-14T09:28:51.000Z</time>
      </trkpt>
      <trkpt lat="47.49841" lon="6.77296">
        <ele>354.5</ele>
        <time>2017-05-14T09:28:52.000Z</time>
      </trkpt>
      <trkpt lat="47.49846" lon="6.77294">
        <ele>354.3</ele>
        <time>2017-05-14T09:28:53.000Z</time>
      </trkpt>
      <trkpt lat="47.49853" lon="6.77293">
        <ele>353.7</ele>
        <time>2017-05-14T09:28:54.000Z</time>
      </trkpt>
      <trkpt lat="47.49858" lon="6.7729">
        <ele>353.7</ele>
        <time>2017-05-14T09:28:55.000Z</time>
      </trkpt>
      <trkpt lat="47.49864" lon="6.7729">
        <ele>353.6</ele>
        <time>2017-05-14T09:28:56.000Z</time>
      </trkpt>
      <trkpt lat="47.49869" lon="6.77289">
        <ele>353.4</ele>
        <time>2017-05-14T09:28:57.000Z</time>
      </trkpt>
      <trkpt lat="47.49873" lon="6.77289">
        <ele>352.9</ele>
        <time>2017-05-14T09:28:58.000Z</time>
      </trkpt>
      <trkpt lat="47.49878" lon="6.77288">
        <ele>351.6</ele>
        <time>2017-05-14T09:28:59.000Z</time>
      </trkpt>
      <trkpt lat="47.49881" lon="6.77288">
        <ele>351.6</ele>
        <time>2017-05-14T09:29:00.000Z</time>
      </trkpt>
      <trkpt lat="47.49885" lon="6.77287">
        <ele>351.4</ele>
        <time>2017-05-14T09:29:01.000Z</time>
      </trkpt>
      <trkpt lat="47.49887" lon="6.77285">
        <ele>351.3</ele>
        <time>2017-05-14T09:29:02.000Z</time>
      </trkpt>
      <trkpt lat="47.4989" lon="6.77282">
        <ele>351.1</ele>
        <time>2017-05-14T09:29:03.000Z</time>
      </trkpt>
      <trkpt lat="47.49893" lon="6.77279">
        <ele>350.9</ele>
        <time>2017-05-14T09:29:04.000Z</time>
      </trkpt>
      <trkpt lat="47.49895" lon="6.77275">
        <ele>350.7</ele>
        <time>2017-05-14T09:29:05.000Z</time>
      </trkpt>
      <trkpt lat="47.49897" lon="6.77273">
        <ele>350.5</ele>
        <time>2017-05-14T09:29:06.000Z</time>
      </trkpt>
      <trkpt lat="47.499" lon="6.77271">
        <ele>350.2</ele>
        <time>2017-05-14T09:29:07.000Z</time>
      </trkpt>
      <trkpt lat="47.49903" lon="6.77269">
        <ele>350</ele>
        <time>2017-05-14T09:29:08.000Z</time>
      </trkpt>
      <trkpt lat="47.49907" lon="6.77268">
        <ele>349.7</ele>
        <time>2017-05-14T09:29:09.000Z</time>
      </trkpt>
      <trkpt lat="47.49909" lon="6.77266">
        <ele>349.4</ele>
        <time>2017-05-14T09:29:10.000Z</time>
      </trkpt>
      <trkpt lat="47.49913" lon="6.77264">
        <ele>349</ele>
        <time>2017-05-14T09:29:11.000Z</time>
      </trkpt>
      <trkpt lat="47.49916" lon="6.77263">
        <ele>348.6</ele>
        <time>2017-05-14T09:29:12.000Z</time>
      </trkpt>
      <trkpt lat="47.49917" lon="6.77261">
        <ele>348.2</ele>
        <time>2017-05-14T09:29:13.000Z</time>
      </trkpt>
      <trkpt lat="47.49923" lon="6.77254">
        <ele>347.5</ele>
        <time>2017-05-14T09:29:15.000Z</time>
      </trkpt>
      <trkpt lat="47.49926" lon="6.7725">
        <ele>347.2</ele>
        <time>2017-05-14T09:29:16.000Z</time>
      </trkpt>
      <trkpt lat="47.49931" lon="6.77248">
        <ele>343.7</ele>
        <time>2017-05-14T09:29:17.000Z</time>
      </trkpt>
      <trkpt lat="47.49933" lon="6.77247">
        <ele>343.4</ele>
        <time>2017-05-14T09:29:18.000Z</time>
      </trkpt>
      <trkpt lat="47.49936" lon="6.77245">
        <ele>343</ele>
        <time>2017-05-14T09:29:19.000Z</time>
      </trkpt>
      <trkpt lat="47.49939" lon="6.77242">
        <ele>342.7</ele>
        <time>2017-05-14T09:29:20.000Z</time>
      </trkpt>
      <trkpt lat="47.49945" lon="6.77239">
        <ele>339.1</ele>
        <time>2017-05-14T09:29:21.000Z</time>
      </trkpt>
      <trkpt lat="47.49949" lon="6.77235">
        <ele>336.8</ele>
        <time>2017-05-14T09:29:22.000Z</time>
      </trkpt>
      <trkpt lat="47.49955" lon="6.77232">
        <ele>334.6</ele>
        <time>2017-05-14T09:29:23.000Z</time>
      </trkpt>
      <trkpt lat="47.49962" lon="6.77229">
        <ele>333.3</ele>
        <time>2017-05-14T09:29:24.000Z</time>
      </trkpt>
      <trkpt lat="47.49968" lon="6.77226">
        <ele>332</ele>
        <time>2017-05-14T09:29:25.000Z</time>
      </trkpt>
      <trkpt lat="47.49974" lon="6.77224">
        <ele>331.3</ele>
        <time>2017-05-14T09:29:26.000Z</time>
      </trkpt>
      <trkpt lat="47.49979" lon="6.77223">
        <ele>331.9</ele>
        <time>2017-05-14T09:29:27.000Z</time>
      </trkpt>
      <trkpt lat="47.49983" lon="6.77221">
        <ele>331.9</ele>
        <time>2017-05-14T09:29:28.000Z</time>
      </trkpt>
      <trkpt lat="47.49988" lon="6.7722">
        <ele>332</ele>
        <time>2017-05-14T09:29:29.000Z</time>
      </trkpt>
      <trkpt lat="47.49993" lon="6.77219">
        <ele>332.1</ele>
        <time>2017-05-14T09:29:30.000Z</time>
      </trkpt>
      <trkpt lat="47.49996" lon="6.77217">
        <ele>332</ele>
        <time>2017-05-14T09:29:31.000Z</time>
      </trkpt>
      <trkpt lat="47.5" lon="6.77216">
        <ele>332.1</ele>
        <time>2017-05-14T09:29:32.000Z</time>
      </trkpt>
      <trkpt lat="47.50003" lon="6.77213">
        <ele>332.1</ele>
        <time>2017-05-14T09:29:33.000Z</time>
      </trkpt>
      <trkpt lat="47.50007" lon="6.77211">
        <ele>332.2</ele>
        <time>2017-05-14T09:29:34.000Z</time>
      </trkpt>
      <trkpt lat="47.5001" lon="6.7721">
        <ele>332.3</ele>
        <time>2017-05-14T09:29:35.000Z</time>
      </trkpt>
      <trkpt lat="47.50014" lon="6.77209">
        <ele>332.4</ele>
        <time>2017-05-14T09:29:36.000Z</time>
      </trkpt>
      <trkpt lat="47.50018" lon="6.77208">
        <ele>332.4</ele>
        <time>2017-05-14T09:29:37.000Z</time>
      </trkpt>
      <trkpt lat="47.50022" lon="6.77206">
        <ele>332.4</ele>
        <time>2017-05-14T09:29:38.000Z</time>
      </trkpt>
      <trkpt lat="47.50028" lon="6.77205">
        <ele>332.6</ele>
        <time>2017-05-14T09:29:39.000Z</time>
      </trkpt>
      <trkpt lat="47.50032" lon="6.77203">
        <ele>332.6</ele>
        <time>2017-05-14T09:29:40.000Z</time>
      </trkpt>
      <trkpt lat="47.50037" lon="6.77201">
        <ele>332.8</ele>
        <time>2017-05-14T09:29:41.000Z</time>
      </trkpt>
      <trkpt lat="47.50041" lon="6.77199">
        <ele>332.8</ele>
        <time>2017-05-14T09:29:42.000Z</time>
      </trkpt>
      <trkpt lat="47.50046" lon="6.77199">
        <ele>333.8</ele>
        <time>2017-05-14T09:29:43.000Z</time>
      </trkpt>
      <trkpt lat="47.5005" lon="6.77199">
        <ele>334.7</ele>
        <time>2017-05-14T09:29:44.000Z</time>
      </trkpt>
      <trkpt lat="47.50055" lon="6.77197">
        <ele>334.9</ele>
        <time>2017-05-14T09:29:45.000Z</time>
      </trkpt>
      <trkpt lat="47.5006" lon="6.77195">
        <ele>335.1</ele>
        <time>2017-05-14T09:29:46.000Z</time>
      </trkpt>
      <trkpt lat="47.50064" lon="6.77193">
        <ele>335.2</ele>
        <time>2017-05-14T09:29:47.000Z</time>
      </trkpt>
      <trkpt lat="47.50068" lon="6.77191">
        <ele>334.6</ele>
        <time>2017-05-14T09:29:48.000Z</time>
      </trkpt>
      <trkpt lat="47.50072" lon="6.7719">
        <ele>334.1</ele>
        <time>2017-05-14T09:29:49.000Z</time>
      </trkpt>
      <trkpt lat="47.50076" lon="6.77189">
        <ele>334.1</ele>
        <time>2017-05-14T09:29:50.000Z</time>
      </trkpt>
      <trkpt lat="47.5008" lon="6.77188">
        <ele>334.3</ele>
        <time>2017-05-14T09:29:51.000Z</time>
      </trkpt>
      <trkpt lat="47.50085" lon="6.77189">
        <ele>335.8</ele>
        <time>2017-05-14T09:29:52.000Z</time>
      </trkpt>
      <trkpt lat="47.50093" lon="6.77189">
        <ele>338.2</ele>
        <time>2017-05-14T09:29:53.000Z</time>
      </trkpt>
      <trkpt lat="47.501" lon="6.7719">
        <ele>340.8</ele>
        <time>2017-05-14T09:29:54.000Z</time>
      </trkpt>
      <trkpt lat="47.50107" lon="6.77192">
        <ele>343</ele>
        <time>2017-05-14T09:29:55.000Z</time>
      </trkpt>
      <trkpt lat="47.50123" lon="6.77196">
        <ele>346</ele>
        <time>2017-05-14T09:29:57.000Z</time>
      </trkpt>
      <trkpt lat="47.50132" lon="6.77198">
        <ele>347.6</ele>
        <time>2017-05-14T09:29:58.000Z</time>
      </trkpt>
      <trkpt lat="47.50139" lon="6.772">
        <ele>349.4</ele>
        <time>2017-05-14T09:29:59.000Z</time>
      </trkpt>
      <trkpt lat="47.50145" lon="6.77205">
        <ele>350.8</ele>
        <time>2017-05-14T09:30:00.000Z</time>
      </trkpt>
      <trkpt lat="47.50152" lon="6.77211">
        <ele>352</ele>
        <time>2017-05-14T09:30:01.000Z</time>
      </trkpt>
      <trkpt lat="47.50158" lon="6.77216">
        <ele>353.4</ele>
        <time>2017-05-14T09:30:02.000Z</time>
      </trkpt>
      <trkpt lat="47.50163" lon="6.77221">
        <ele>354.4</ele>
        <time>2017-05-14T09:30:03.000Z</time>
      </trkpt>
      <trkpt lat="47.50167" lon="6.77226">
        <ele>355</ele>
        <time>2017-05-14T09:30:04.000Z</time>
      </trkpt>
      <trkpt lat="47.50172" lon="6.77231">
        <ele>355.7</ele>
        <time>2017-05-14T09:30:05.000Z</time>
      </trkpt>
      <trkpt lat="47.50178" lon="6.77236">
        <ele>356.1</ele>
        <time>2017-05-14T09:30:06.000Z</time>
      </trkpt>
      <trkpt lat="47.50183" lon="6.7724">
        <ele>356.1</ele>
        <time>2017-05-14T09:30:07.000Z</time>
      </trkpt>
      <trkpt lat="47.50188" lon="6.77245">
        <ele>355.7</ele>
        <time>2017-05-14T09:30:08.000Z</time>
      </trkpt>
      <trkpt lat="47.50193" lon="6.7725">
        <ele>355.7</ele>
        <time>2017-05-14T09:30:09.000Z</time>
      </trkpt>
      <trkpt lat="47.50198" lon="6.77255">
        <ele>356</ele>
        <time>2017-05-14T09:30:10.000Z</time>
      </trkpt>
      <trkpt lat="47.50202" lon="6.77259">
        <ele>356.8</ele>
        <time>2017-05-14T09:30:11.000Z</time>
      </trkpt>
      <trkpt lat="47.50207" lon="6.77263">
        <ele>357.8</ele>
        <time>2017-05-14T09:30:12.000Z</time>
      </trkpt>
      <trkpt lat="47.50212" lon="6.77267">
        <ele>358.6</ele>
        <time>2017-05-14T09:30:13.000Z</time>
      </trkpt>
      <trkpt lat="47.50217" lon="6.77271">
        <ele>358.7</ele>
        <time>2017-05-14T09:30:14.000Z</time>
      </trkpt>
      <trkpt lat="47.50221" lon="6.77274">
        <ele>358.9</ele>
        <time>2017-05-14T09:30:15.000Z</time>
      </trkpt>
      <trkpt lat="47.50226" lon="6.77277">
        <ele>358.3</ele>
        <time>2017-05-14T09:30:16.000Z</time>
      </trkpt>
      <trkpt lat="47.5023" lon="6.7728">
        <ele>357.6</ele>
        <time>2017-05-14T09:30:17.000Z</time>
      </trkpt>
      <trkpt lat="47.50234" lon="6.77282">
        <ele>357.8</ele>
        <time>2017-05-14T09:30:18.000Z</time>
      </trkpt>
      <trkpt lat="47.50239" lon="6.77286">
        <ele>357.9</ele>
        <time>2017-05-14T09:30:19.000Z</time>
      </trkpt>
      <trkpt lat="47.50244" lon="6.77289">
        <ele>358.2</ele>
        <time>2017-05-14T09:30:20.000Z</time>
      </trkpt>
      <trkpt lat="47.50249" lon="6.77292">
        <ele>357.5</ele>
        <time>2017-05-14T09:30:21.000Z</time>
      </trkpt>
      <trkpt lat="47.50254" lon="6.77296">
        <ele>357.7</ele>
        <time>2017-05-14T09:30:22.000Z</time>
      </trkpt>
      <trkpt lat="47.50259" lon="6.77299">
        <ele>357.4</ele>
        <time>2017-05-14T09:30:23.000Z</time>
      </trkpt>
      <trkpt lat="47.50264" lon="6.77301">
        <ele>356.9</ele>
        <time>2017-05-14T09:30:24.000Z</time>
      </trkpt>
      <trkpt lat="47.50269" lon="6.77304">
        <ele>356.1</ele>
        <time>2017-05-14T09:30:25.000Z</time>
      </trkpt>
      <trkpt lat="47.50273" lon="6.77307">
        <ele>356.1</ele>
        <time>2017-05-14T09:30:26.000Z</time>
      </trkpt>
      <trkpt lat="47.50278" lon="6.7731">
        <ele>356.8</ele>
        <time>2017-05-14T09:30:27.000Z</time>
      </trkpt>
      <trkpt lat="47.50283" lon="6.77314">
        <ele>357.1</ele>
        <time>2017-05-14T09:30:28.000Z</time>
      </trkpt>
      <trkpt lat="47.50288" lon="6.77318">
        <ele>357.3</ele>
        <time>2017-05-14T09:30:29.000Z</time>
      </trkpt>
      <trkpt lat="47.50292" lon="6.77321">
        <ele>357.8</ele>
        <time>2017-05-14T09:30:30.000Z</time>
      </trkpt>
      <trkpt lat="47.50297" lon="6.77325">
        <ele>358.3</ele>
        <time>2017-05-14T09:30:31.000Z</time>
      </trkpt>
      <trkpt lat="47.50302" lon="6.77329">
        <ele>358.8</ele>
        <time>2017-05-14T09:30:32.000Z</time>
      </trkpt>
      <trkpt lat="47.50307" lon="6.77332">
        <ele>359.7</ele>
        <time>2017-05-14T09:30:33.000Z</time>
      </trkpt>
      <trkpt lat="47.50312" lon="6.77336">
        <ele>360.5</ele>
        <time>2017-05-14T09:30:34.000Z</time>
      </trkpt>
      <trkpt lat="47.50318" lon="6.7734">
        <ele>361.8</ele>
        <time>2017-05-14T09:30:35.000Z</time>
      </trkpt>
      <trkpt lat="47.50323" lon="6.77343">
        <ele>363.2</ele>
        <time>2017-05-14T09:30:36.000Z</time>
      </trkpt>
      <trkpt lat="47.50328" lon="6.77347">
        <ele>364.1</ele>
        <time>2017-05-14T09:30:37.000Z</time>
      </trkpt>
      <trkpt lat="47.50332" lon="6.7735">
        <ele>364.5</ele>
        <time>2017-05-14T09:30:38.000Z</time>
      </trkpt>
      <trkpt lat="47.50336" lon="6.77353">
        <ele>364.7</ele>
        <time>2017-05-14T09:30:39.000Z</time>
      </trkpt>
      <trkpt lat="47.50339" lon="6.77356">
        <ele>365.1</ele>
        <time>2017-05-14T09:30:40.000Z</time>
      </trkpt>
      <trkpt lat="47.50343" lon="6.77358">
        <ele>365.4</ele>
        <time>2017-05-14T09:30:41.000Z</time>
      </trkpt>
      <trkpt lat="47.50347" lon="6.77362">
        <ele>365</ele>
        <time>2017-05-14T09:30:42.000Z</time>
      </trkpt>
      <trkpt lat="47.5035" lon="6.77365">
        <ele>365</ele>
        <time>2017-05-14T09:30:43.000Z</time>
      </trkpt>
      <trkpt lat="47.50354" lon="6.77368">
        <ele>365</ele>
        <time>2017-05-14T09:30:44.000Z</time>
      </trkpt>
      <trkpt lat="47.50357" lon="6.77371">
        <ele>365</ele>
        <time>2017-05-14T09:30:45.000Z</time>
      </trkpt>
      <trkpt lat="47.5036" lon="6.77374">
        <ele>365</ele>
        <time>2017-05-14T09:30:46.000Z</time>
      </trkpt>
      <trkpt lat="47.50363" lon="6.77377">
        <ele>365</ele>
        <time>2017-05-14T09:30:47.000Z</time>
      </trkpt>
      <trkpt lat="47.50365" lon="6.77379">
        <ele>365</ele>
        <time>2017-05-14T09:30:48.000Z</time>
      </trkpt>
      <trkpt lat="47.50368" lon="6.77382">
        <ele>365.1</ele>
        <time>2017-05-14T09:30:49.000Z</time>
      </trkpt>
      <trkpt lat="47.5037" lon="6.77384">
        <ele>365.1</ele>
        <time>2017-05-14T09:30:50.000Z</time>
      </trkpt>
      <trkpt lat="47.50373" lon="6.77387">
        <ele>365.2</ele>
        <time>2017-05-14T09:30:52.000Z</time>
      </trkpt>
      <trkpt lat="47.50374" lon="6.77388">
        <ele>365.2</ele>
        <time>2017-05-14T09:30:53.000Z</time>
      </trkpt>
      <trkpt lat="47.50378" lon="6.7739">
        <ele>365.5</ele>
        <time>2017-05-14T09:30:55.000Z</time>
      </trkpt>
      <trkpt lat="47.50379" lon="6.77392">
        <ele>365.7</ele>
        <time>2017-05-14T09:30:56.000Z</time>
      </trkpt>
      <trkpt lat="47.50381" lon="6.77393">
        <ele>365.8</ele>
        <time>2017-05-14T09:30:57.000Z</time>
      </trkpt>
      <trkpt lat="47.50384" lon="6.77394">
        <ele>365.9</ele>
        <time>2017-05-14T09:30:58.000Z</time>
      </trkpt>
      <trkpt lat="47.50387" lon="6.77396">
        <ele>366</ele>
        <time>2017-05-14T09:30:59.000Z</time>
      </trkpt>
      <trkpt lat="47.5039" lon="6.77397">
        <ele>366.1</ele>
        <time>2017-05-14T09:31:00.000Z</time>
      </trkpt>
      <trkpt lat="47.50393" lon="6.774">
        <ele>366.2</ele>
        <time>2017-05-14T09:31:01.000Z</time>
      </trkpt>
      <trkpt lat="47.50396" lon="6.77403">
        <ele>366.3</ele>
        <time>2017-05-14T09:31:02.000Z</time>
      </trkpt>
      <trkpt lat="47.504" lon="6.77406">
        <ele>366.4</ele>
        <time>2017-05-14T09:31:03.000Z</time>
      </trkpt>
      <trkpt lat="47.50403" lon="6.77408">
        <ele>366.5</ele>
        <time>2017-05-14T09:31:04.000Z</time>
      </trkpt>
      <trkpt lat="47.50406" lon="6.7741">
        <ele>366.6</ele>
        <time>2017-05-14T09:31:05.000Z</time>
      </trkpt>
      <trkpt lat="47.50408" lon="6.77412">
        <ele>366.7</ele>
        <time>2017-05-14T09:31:06.000Z</time>
      </trkpt>
      <trkpt lat="47.50412" lon="6.77415">
        <ele>366.7</ele>
        <time>2017-05-14T09:31:07.000Z</time>
      </trkpt>
      <trkpt lat="47.50415" lon="6.77419">
        <ele>365.9</ele>
        <time>2017-05-14T09:31:08.000Z</time>
      </trkpt>
      <trkpt lat="47.50418" lon="6.77423">
        <ele>365.5</ele>
        <time>2017-05-14T09:31:09.000Z</time>
      </trkpt>
      <trkpt lat="47.50422" lon="6.77427">
        <ele>364.9</ele>
        <time>2017-05-14T09:31:10.000Z</time>
      </trkpt>
      <trkpt lat="47.50427" lon="6.77431">
        <ele>364.6</ele>
        <time>2017-05-14T09:31:11.000Z</time>
      </trkpt>
      <trkpt lat="47.50432" lon="6.77436">
        <ele>363.7</ele>
        <time>2017-05-14T09:31:12.000Z</time>
      </trkpt>
      <trkpt lat="47.50438" lon="6.7744">
        <ele>363.2</ele>
        <time>2017-05-14T09:31:13.000Z</time>
      </trkpt>
      <trkpt lat="47.50443" lon="6.77445">
        <ele>363.1</ele>
        <time>2017-05-14T09:31:14.000Z</time>
      </trkpt>
      <trkpt lat="47.50448" lon="6.7745">
        <ele>363</ele>
        <time>2017-05-14T09:31:15.000Z</time>
      </trkpt>
      <trkpt lat="47.50454" lon="6.77454">
        <ele>362.6</ele>
        <time>2017-05-14T09:31:16.000Z</time>
      </trkpt>
      <trkpt lat="47.50458" lon="6.77458">
        <ele>362.3</ele>
        <time>2017-05-14T09:31:17.000Z</time>
      </trkpt>
      <trkpt lat="47.50462" lon="6.77462">
        <ele>362.3</ele>
        <time>2017-05-14T09:31:18.000Z</time>
      </trkpt>
      <trkpt lat="47.50466" lon="6.77467">
        <ele>361.9</ele>
        <time>2017-05-14T09:31:19.000Z</time>
      </trkpt>
      <trkpt lat="47.50469" lon="6.7747">
        <ele>361</ele>
        <time>2017-05-14T09:31:20.000Z</time>
      </trkpt>
      <trkpt lat="47.50473" lon="6.77474">
        <ele>360.2</ele>
        <time>2017-05-14T09:31:21.000Z</time>
      </trkpt>
      <trkpt lat="47.50477" lon="6.77477">
        <ele>358.6</ele>
        <time>2017-05-14T09:31:22.000Z</time>
      </trkpt>
      <trkpt lat="47.50482" lon="6.77482">
        <ele>357.2</ele>
        <time>2017-05-14T09:31:23.000Z</time>
      </trkpt>
      <trkpt lat="47.50487" lon="6.77486">
        <ele>357.2</ele>
        <time>2017-05-14T09:31:24.000Z</time>
      </trkpt>
      <trkpt lat="47.50492" lon="6.7749">
        <ele>358</ele>
        <time>2017-05-14T09:31:25.000Z</time>
      </trkpt>
      <trkpt lat="47.50497" lon="6.77494">
        <ele>358.4</ele>
        <time>2017-05-14T09:31:26.000Z</time>
      </trkpt>
      <trkpt lat="47.50503" lon="6.77497">
        <ele>358.4</ele>
        <time>2017-05-14T09:31:27.000Z</time>
      </trkpt>
      <trkpt lat="47.50508" lon="6.77501">
        <ele>358.5</ele>
        <time>2017-05-14T09:31:28.000Z</time>
      </trkpt>
      <trkpt lat="47.50514" lon="6.77505">
        <ele>359</ele>
        <time>2017-05-14T09:31:29.000Z</time>
      </trkpt>
      <trkpt lat="47.5052" lon="6.77508">
        <ele>359.3</ele>
        <time>2017-05-14T09:31:30.000Z</time>
      </trkpt>
      <trkpt lat="47.50525" lon="6.77512">
        <ele>359.8</ele>
        <time>2017-05-14T09:31:31.000Z</time>
      </trkpt>
      <trkpt lat="47.5053" lon="6.77515">
        <ele>361.2</ele>
        <time>2017-05-14T09:31:32.000Z</time>
      </trkpt>
      <trkpt lat="47.50535" lon="6.77517">
        <ele>362.4</ele>
        <time>2017-05-14T09:31:33.000Z</time>
      </trkpt>
      <trkpt lat="47.50539" lon="6.77522">
        <ele>363.1</ele>
        <time>2017-05-14T09:31:34.000Z</time>
      </trkpt>
      <trkpt lat="47.50545" lon="6.77527">
        <ele>364</ele>
        <time>2017-05-14T09:31:35.000Z</time>
      </trkpt>
      <trkpt lat="47.50549" lon="6.77533">
        <ele>364.5</ele>
        <time>2017-05-14T09:31:36.000Z</time>
      </trkpt>
      <trkpt lat="47.50553" lon="6.77539">
        <ele>365.1</ele>
        <time>2017-05-14T09:31:37.000Z</time>
      </trkpt>
      <trkpt lat="47.50557" lon="6.77546">
        <ele>365.7</ele>
        <time>2017-05-14T09:31:38.000Z</time>
      </trkpt>
      <trkpt lat="47.50562" lon="6.7755">
        <ele>365.5</ele>
        <time>2017-05-14T09:31:39.000Z</time>
      </trkpt>
      <trkpt lat="47.50566" lon="6.77552">
        <ele>364.8</ele>
        <time>2017-05-14T09:31:40.000Z</time>
      </trkpt>
      <trkpt lat="47.50571" lon="6.77551">
        <ele>363.7</ele>
        <time>2017-05-14T09:31:41.000Z</time>
      </trkpt>
      <trkpt lat="47.50575" lon="6.7755">
        <ele>363.5</ele>
        <time>2017-05-14T09:31:42.000Z</time>
      </trkpt>
      <trkpt lat="47.5058" lon="6.77544">
        <ele>363.5</ele>
        <time>2017-05-14T09:31:43.000Z</time>
      </trkpt>
      <trkpt lat="47.50584" lon="6.77538">
        <ele>363</ele>
        <time>2017-05-14T09:31:44.000Z</time>
      </trkpt>
      <trkpt lat="47.50587" lon="6.77536">
        <ele>363</ele>
        <time>2017-05-14T09:31:45.000Z</time>
      </trkpt>
      <trkpt lat="47.50591" lon="6.77533">
        <ele>362.9</ele>
        <time>2017-05-14T09:31:46.000Z</time>
      </trkpt>
      <trkpt lat="47.50595" lon="6.77533">
        <ele>362.7</ele>
        <time>2017-05-14T09:31:47.000Z</time>
      </trkpt>
      <trkpt lat="47.506" lon="6.77532">
        <ele>362.7</ele>
        <time>2017-05-14T09:31:48.000Z</time>
      </trkpt>
      <trkpt lat="47.50606" lon="6.77534">
        <ele>362.3</ele>
        <time>2017-05-14T09:31:49.000Z</time>
      </trkpt>
      <trkpt lat="47.50611" lon="6.77532">
        <ele>362.3</ele>
        <time>2017-05-14T09:31:50.000Z</time>
      </trkpt>
      <trkpt lat="47.50616" lon="6.7753">
        <ele>362.8</ele>
        <time>2017-05-14T09:31:51.000Z</time>
      </trkpt>
      <trkpt lat="47.50621" lon="6.7753">
        <ele>362.7</ele>
        <time>2017-05-14T09:31:52.000Z</time>
      </trkpt>
      <trkpt lat="47.50626" lon="6.77531">
        <ele>362.7</ele>
        <time>2017-05-14T09:31:53.000Z</time>
      </trkpt>
      <trkpt lat="47.50633" lon="6.77532">
        <ele>362.6</ele>
        <time>2017-05-14T09:31:54.000Z</time>
      </trkpt>
      <trkpt lat="47.50639" lon="6.77533">
        <ele>362.4</ele>
        <time>2017-05-14T09:31:55.000Z</time>
      </trkpt>
      <trkpt lat="47.50651" lon="6.77535">
        <ele>362.9</ele>
        <time>2017-05-14T09:31:57.000Z</time>
      </trkpt>
      <trkpt lat="47.50656" lon="6.77535">
        <ele>362.8</ele>
        <time>2017-05-14T09:31:58.000Z</time>
      </trkpt>
      <trkpt lat="47.5066" lon="6.77534">
        <ele>362.7</ele>
        <time>2017-05-14T09:31:59.000Z</time>
      </trkpt>
      <trkpt lat="47.50665" lon="6.77532">
        <ele>362.9</ele>
        <time>2017-05-14T09:32:00.000Z</time>
      </trkpt>
      <trkpt lat="47.5067" lon="6.7753">
        <ele>363</ele>
        <time>2017-05-14T09:32:01.000Z</time>
      </trkpt>
      <trkpt lat="47.50675" lon="6.77529">
        <ele>362.7</ele>
        <time>2017-05-14T09:32:02.000Z</time>
      </trkpt>
      <trkpt lat="47.5068" lon="6.77528">
        <ele>362.8</ele>
        <time>2017-05-14T09:32:03.000Z</time>
      </trkpt>
      <trkpt lat="47.50685" lon="6.77527">
        <ele>362.4</ele>
        <time>2017-05-14T09:32:04.000Z</time>
      </trkpt>
      <trkpt lat="47.50689" lon="6.77528">
        <ele>362.4</ele>
        <time>2017-05-14T09:32:05.000Z</time>
      </trkpt>
      <trkpt lat="47.50695" lon="6.77529">
        <ele>362.8</ele>
        <time>2017-05-14T09:32:06.000Z</time>
      </trkpt>
      <trkpt lat="47.50701" lon="6.77529">
        <ele>363.2</ele>
        <time>2017-05-14T09:32:07.000Z</time>
      </trkpt>
      <trkpt lat="47.50707" lon="6.7753">
        <ele>364.3</ele>
        <time>2017-05-14T09:32:08.000Z</time>
      </trkpt>
      <trkpt lat="47.50713" lon="6.77531">
        <ele>365.2</ele>
        <time>2017-05-14T09:32:09.000Z</time>
      </trkpt>
      <trkpt lat="47.50719" lon="6.77533">
        <ele>365.6</ele>
        <time>2017-05-14T09:32:10.000Z</time>
      </trkpt>
      <trkpt lat="47.50723" lon="6.77535">
        <ele>365.5</ele>
        <time>2017-05-14T09:32:11.000Z</time>
      </trkpt>
      <trkpt lat="47.50729" lon="6.77538">
        <ele>364.8</ele>
        <time>2017-05-14T09:32:12.000Z</time>
      </trkpt>
      <trkpt lat="47.50734" lon="6.77541">
        <ele>364.7</ele>
        <time>2017-05-14T09:32:13.000Z</time>
      </trkpt>
      <trkpt lat="47.5074" lon="6.77544">
        <ele>364.7</ele>
        <time>2017-05-14T09:32:14.000Z</time>
      </trkpt>
      <trkpt lat="47.50745" lon="6.77548">
        <ele>364.7</ele>
        <time>2017-05-14T09:32:15.000Z</time>
      </trkpt>
      <trkpt lat="47.50751" lon="6.77551">
        <ele>365.1</ele>
        <time>2017-05-14T09:32:16.000Z</time>
      </trkpt>
      <trkpt lat="47.50756" lon="6.77555">
        <ele>365.3</ele>
        <time>2017-05-14T09:32:17.000Z</time>
      </trkpt>
      <trkpt lat="47.50761" lon="6.77559">
        <ele>365</ele>
        <time>2017-05-14T09:32:18.000Z</time>
      </trkpt>
      <trkpt lat="47.50767" lon="6.7756">
        <ele>364.5</ele>
        <time>2017-05-14T09:32:19.000Z</time>
      </trkpt>
      <trkpt lat="47.5077" lon="6.77563">
        <ele>363.4</ele>
        <time>2017-05-14T09:32:20.000Z</time>
      </trkpt>
      <trkpt lat="47.50772" lon="6.77565">
        <ele>363.2</ele>
        <time>2017-05-14T09:32:21.000Z</time>
      </trkpt>
      <trkpt lat="47.50776" lon="6.77568">
        <ele>363</ele>
        <time>2017-05-14T09:32:22.000Z</time>
      </trkpt>
      <trkpt lat="47.5078" lon="6.77571">
        <ele>362.8</ele>
        <time>2017-05-14T09:32:23.000Z</time>
      </trkpt>
      <trkpt lat="47.50785" lon="6.77576">
        <ele>360.8</ele>
        <time>2017-05-14T09:32:24.000Z</time>
      </trkpt>
      <trkpt lat="47.50787" lon="6.7758">
        <ele>360.7</ele>
        <time>2017-05-14T09:32:25.000Z</time>
      </trkpt>
      <trkpt lat="47.5079" lon="6.77584">
        <ele>360.7</ele>
        <time>2017-05-14T09:32:26.000Z</time>
      </trkpt>
      <trkpt lat="47.50792" lon="6.77587">
        <ele>360.5</ele>
        <time>2017-05-14T09:32:27.000Z</time>
      </trkpt>
      <trkpt lat="47.50794" lon="6.77591">
        <ele>360.3</ele>
        <time>2017-05-14T09:32:28.000Z</time>
      </trkpt>
      <trkpt lat="47.50796" lon="6.77596">
        <ele>360</ele>
        <time>2017-05-14T09:32:29.000Z</time>
      </trkpt>
      <trkpt lat="47.50801" lon="6.776">
        <ele>359.7</ele>
        <time>2017-05-14T09:32:30.000Z</time>
      </trkpt>
      <trkpt lat="47.50805" lon="6.77604">
        <ele>359.6</ele>
        <time>2017-05-14T09:32:31.000Z</time>
      </trkpt>
      <trkpt lat="47.50808" lon="6.77608">
        <ele>359.3</ele>
        <time>2017-05-14T09:32:32.000Z</time>
      </trkpt>
      <trkpt lat="47.50809" lon="6.77613">
        <ele>359.2</ele>
        <time>2017-05-14T09:32:33.000Z</time>
      </trkpt>
      <trkpt lat="47.50811" lon="6.77616">
        <ele>359</ele>
        <time>2017-05-14T09:32:34.000Z</time>
      </trkpt>
      <trkpt lat="47.50815" lon="6.77618">
        <ele>358.8</ele>
        <time>2017-05-14T09:32:35.000Z</time>
      </trkpt>
      <trkpt lat="47.50819" lon="6.77619">
        <ele>358.6</ele>
        <time>2017-05-14T09:32:36.000Z</time>
      </trkpt>
      <trkpt lat="47.50822" lon="6.77621">
        <ele>358.3</ele>
        <time>2017-05-14T09:32:37.000Z</time>
      </trkpt>
      <trkpt lat="47.50825" lon="6.77625">
        <ele>358.1</ele>
        <time>2017-05-14T09:32:38.000Z</time>
      </trkpt>
      <trkpt lat="47.50828" lon="6.77628">
        <ele>357.7</ele>
        <time>2017-05-14T09:32:39.000Z</time>
      </trkpt>
      <trkpt lat="47.50833" lon="6.77631">
        <ele>354.9</ele>
        <time>2017-05-14T09:32:40.000Z</time>
      </trkpt>
      <trkpt lat="47.50837" lon="6.77634">
        <ele>352.7</ele>
        <time>2017-05-14T09:32:41.000Z</time>
      </trkpt>
      <trkpt lat="47.50841" lon="6.77636">
        <ele>352.7</ele>
        <time>2017-05-14T09:32:42.000Z</time>
      </trkpt>
      <trkpt lat="47.50844" lon="6.77639">
        <ele>352.6</ele>
        <time>2017-05-14T09:32:43.000Z</time>
      </trkpt>
      <trkpt lat="47.50849" lon="6.77642">
        <ele>352.5</ele>
        <time>2017-05-14T09:32:44.000Z</time>
      </trkpt>
      <trkpt lat="47.50854" lon="6.77644">
        <ele>351.3</ele>
        <time>2017-05-14T09:32:45.000Z</time>
      </trkpt>
      <trkpt lat="47.50859" lon="6.77648">
        <ele>351</ele>
        <time>2017-05-14T09:32:46.000Z</time>
      </trkpt>
      <trkpt lat="47.50864" lon="6.77652">
        <ele>349.8</ele>
        <time>2017-05-14T09:32:47.000Z</time>
      </trkpt>
      <trkpt lat="47.50868" lon="6.77656">
        <ele>349.8</ele>
        <time>2017-05-14T09:32:48.000Z</time>
      </trkpt>
      <trkpt lat="47.50871" lon="6.77661">
        <ele>349.8</ele>
        <time>2017-05-14T09:32:49.000Z</time>
      </trkpt>
      <trkpt lat="47.50874" lon="6.77666">
        <ele>349.8</ele>
        <time>2017-05-14T09:32:50.000Z</time>
      </trkpt>
      <trkpt lat="47.50876" lon="6.77671">
        <ele>349.9</ele>
        <time>2017-05-14T09:32:51.000Z</time>
      </trkpt>
      <trkpt lat="47.50879" lon="6.77675">
        <ele>350</ele>
        <time>2017-05-14T09:32:52.000Z</time>
      </trkpt>
      <trkpt lat="47.50881" lon="6.77677">
        <ele>350.1</ele>
        <time>2017-05-14T09:32:53.000Z</time>
      </trkpt>
      <trkpt lat="47.50883" lon="6.77679">
        <ele>350.3</ele>
        <time>2017-05-14T09:32:54.000Z</time>
      </trkpt>
      <trkpt lat="47.50886" lon="6.77681">
        <ele>350.4</ele>
        <time>2017-05-14T09:32:55.000Z</time>
      </trkpt>
      <trkpt lat="47.50888" lon="6.77684">
        <ele>350.6</ele>
        <time>2017-05-14T09:32:56.000Z</time>
      </trkpt>
      <trkpt lat="47.50888" lon="6.77684">
        <ele>351.6</ele>
        <time>2017-05-14T09:33:01.000Z</time>
      </trkpt>
      <trkpt lat="47.50907" lon="6.7769">
        <ele>351.7</ele>
        <time>2017-05-14T09:33:02.000Z</time>
      </trkpt>
      <trkpt lat="47.50915" lon="6.77691">
        <ele>352.8</ele>
        <time>2017-05-14T09:33:03.000Z</time>
      </trkpt>
      <trkpt lat="47.50917" lon="6.7769">
        <ele>352.9</ele>
        <time>2017-05-14T09:33:04.000Z</time>
      </trkpt>
      <trkpt lat="47.5092" lon="6.77688">
        <ele>353.1</ele>
        <time>2017-05-14T09:33:05.000Z</time>
      </trkpt>
      <trkpt lat="47.50924" lon="6.77687">
        <ele>353.3</ele>
        <time>2017-05-14T09:33:06.000Z</time>
      </trkpt>
      <trkpt lat="47.50929" lon="6.77688">
        <ele>353.5</ele>
        <time>2017-05-14T09:33:07.000Z</time>
      </trkpt>
      <trkpt lat="47.50936" lon="6.77693">
        <ele>353.5</ele>
        <time>2017-05-14T09:33:08.000Z</time>
      </trkpt>
      <trkpt lat="47.50941" lon="6.77695">
        <ele>353.5</ele>
        <time>2017-05-14T09:33:09.000Z</time>
      </trkpt>
      <trkpt lat="47.50945" lon="6.77696">
        <ele>353.7</ele>
        <time>2017-05-14T09:33:10.000Z</time>
      </trkpt>
      <trkpt lat="47.50948" lon="6.77696">
        <ele>353.9</ele>
        <time>2017-05-14T09:33:11.000Z</time>
      </trkpt>
      <trkpt lat="47.5095" lon="6.77697">
        <ele>354</ele>
        <time>2017-05-14T09:33:12.000Z</time>
      </trkpt>
      <trkpt lat="47.50953" lon="6.77693">
        <ele>354.2</ele>
        <time>2017-05-14T09:33:13.000Z</time>
      </trkpt>
      <trkpt lat="47.50959" lon="6.77693">
        <ele>354.4</ele>
        <time>2017-05-14T09:33:14.000Z</time>
      </trkpt>
      <trkpt lat="47.50964" lon="6.77692">
        <ele>354.6</ele>
        <time>2017-05-14T09:33:15.000Z</time>
      </trkpt>
      <trkpt lat="47.50968" lon="6.77695">
        <ele>354.8</ele>
        <time>2017-05-14T09:33:16.000Z</time>
      </trkpt>
      <trkpt lat="47.50972" lon="6.77698">
        <ele>355</ele>
        <time>2017-05-14T09:33:17.000Z</time>
      </trkpt>
      <trkpt lat="47.50975" lon="6.77701">
        <ele>355.1</ele>
        <time>2017-05-14T09:33:18.000Z</time>
      </trkpt>
      <trkpt lat="47.50977" lon="6.77703">
        <ele>355.1</ele>
        <time>2017-05-14T09:33:19.000Z</time>
      </trkpt>
      <trkpt lat="47.50981" lon="6.77707">
        <ele>355.3</ele>
        <time>2017-05-14T09:33:20.000Z</time>
      </trkpt>
      <trkpt lat="47.50984" lon="6.7771">
        <ele>355.5</ele>
        <time>2017-05-14T09:33:21.000Z</time>
      </trkpt>
      <trkpt lat="47.50988" lon="6.77713">
        <ele>355.6</ele>
        <time>2017-05-14T09:33:22.000Z</time>
      </trkpt>
      <trkpt lat="47.50991" lon="6.77716">
        <ele>355.8</ele>
        <time>2017-05-14T09:33:23.000Z</time>
      </trkpt>
      <trkpt lat="47.50994" lon="6.77719">
        <ele>356</ele>
        <time>2017-05-14T09:33:24.000Z</time>
      </trkpt>
      <trkpt lat="47.50998" lon="6.77722">
        <ele>356.2</ele>
        <time>2017-05-14T09:33:25.000Z</time>
      </trkpt>
      <trkpt lat="47.51" lon="6.77725">
        <ele>356.4</ele>
        <time>2017-05-14T09:33:26.000Z</time>
      </trkpt>
      <trkpt lat="47.51004" lon="6.77727">
        <ele>356.7</ele>
        <time>2017-05-14T09:33:27.000Z</time>
      </trkpt>
      <trkpt lat="47.51006" lon="6.7773">
        <ele>357</ele>
        <time>2017-05-14T09:33:28.000Z</time>
      </trkpt>
      <trkpt lat="47.51007" lon="6.77732">
        <ele>357.3</ele>
        <time>2017-05-14T09:33:29.000Z</time>
      </trkpt>
      <trkpt lat="47.5101" lon="6.77735">
        <ele>357.5</ele>
        <time>2017-05-14T09:33:30.000Z</time>
      </trkpt>
      <trkpt lat="47.51013" lon="6.77738">
        <ele>357.7</ele>
        <time>2017-05-14T09:33:31.000Z</time>
      </trkpt>
      <trkpt lat="47.51017" lon="6.77741">
        <ele>358</ele>
        <time>2017-05-14T09:33:32.000Z</time>
      </trkpt>
      <trkpt lat="47.51021" lon="6.77741">
        <ele>358.2</ele>
        <time>2017-05-14T09:33:33.000Z</time>
      </trkpt>
      <trkpt lat="47.51024" lon="6.77743">
        <ele>358.4</ele>
        <time>2017-05-14T09:33:34.000Z</time>
      </trkpt>
      <trkpt lat="47.51027" lon="6.77745">
        <ele>358.6</ele>
        <time>2017-05-14T09:33:35.000Z</time>
      </trkpt>
      <trkpt lat="47.51031" lon="6.77748">
        <ele>358.6</ele>
        <time>2017-05-14T09:33:36.000Z</time>
      </trkpt>
      <trkpt lat="47.51034" lon="6.7775">
        <ele>358.7</ele>
        <time>2017-05-14T09:33:37.000Z</time>
      </trkpt>
      <trkpt lat="47.51038" lon="6.77753">
        <ele>358.8</ele>
        <time>2017-05-14T09:33:38.000Z</time>
      </trkpt>
      <trkpt lat="47.51041" lon="6.77756">
        <ele>358.9</ele>
        <time>2017-05-14T09:33:39.000Z</time>
      </trkpt>
      <trkpt lat="47.51044" lon="6.77759">
        <ele>359.1</ele>
        <time>2017-05-14T09:33:40.000Z</time>
      </trkpt>
      <trkpt lat="47.51047" lon="6.77762">
        <ele>359.3</ele>
        <time>2017-05-14T09:33:41.000Z</time>
      </trkpt>
      <trkpt lat="47.5105" lon="6.77765">
        <ele>359.4</ele>
        <time>2017-05-14T09:33:42.000Z</time>
      </trkpt>
      <trkpt lat="47.51052" lon="6.77768">
        <ele>359.5</ele>
        <time>2017-05-14T09:33:43.000Z</time>
      </trkpt>
      <trkpt lat="47.51056" lon="6.77771">
        <ele>359.6</ele>
        <time>2017-05-14T09:33:44.000Z</time>
      </trkpt>
      <trkpt lat="47.51059" lon="6.7777">
        <ele>359.8</ele>
        <time>2017-05-14T09:33:45.000Z</time>
      </trkpt>
      <trkpt lat="47.51062" lon="6.77771">
        <ele>359.9</ele>
        <time>2017-05-14T09:33:46.000Z</time>
      </trkpt>
      <trkpt lat="47.51067" lon="6.77771">
        <ele>361.4</ele>
        <time>2017-05-14T09:33:47.000Z</time>
      </trkpt>
      <trkpt lat="47.5107" lon="6.77772">
        <ele>361.5</ele>
        <time>2017-05-14T09:33:48.000Z</time>
      </trkpt>
      <trkpt lat="47.51074" lon="6.77773">
        <ele>361.6</ele>
        <time>2017-05-14T09:33:49.000Z</time>
      </trkpt>
      <trkpt lat="47.51079" lon="6.77774">
        <ele>361.8</ele>
        <time>2017-05-14T09:33:50.000Z</time>
      </trkpt>
      <trkpt lat="47.51083" lon="6.77776">
        <ele>362.1</ele>
        <time>2017-05-14T09:33:51.000Z</time>
      </trkpt>
      <trkpt lat="47.51088" lon="6.77779">
        <ele>362.4</ele>
        <time>2017-05-14T09:33:52.000Z</time>
      </trkpt>
      <trkpt lat="47.51092" lon="6.7778">
        <ele>362.6</ele>
        <time>2017-05-14T09:33:53.000Z</time>
      </trkpt>
      <trkpt lat="47.51096" lon="6.77781">
        <ele>364.4</ele>
        <time>2017-05-14T09:33:54.000Z</time>
      </trkpt>
      <trkpt lat="47.511" lon="6.77781">
        <ele>364.6</ele>
        <time>2017-05-14T09:33:55.000Z</time>
      </trkpt>
      <trkpt lat="47.51103" lon="6.77782">
        <ele>364.7</ele>
        <time>2017-05-14T09:33:56.000Z</time>
      </trkpt>
      <trkpt lat="47.51107" lon="6.77783">
        <ele>364.8</ele>
        <time>2017-05-14T09:33:57.000Z</time>
      </trkpt>
      <trkpt lat="47.51111" lon="6.77783">
        <ele>364.9</ele>
        <time>2017-05-14T09:33:58.000Z</time>
      </trkpt>
      <trkpt lat="47.51114" lon="6.77784">
        <ele>365</ele>
        <time>2017-05-14T09:33:59.000Z</time>
      </trkpt>
      <trkpt lat="47.51118" lon="6.77785">
        <ele>365.1</ele>
        <time>2017-05-14T09:34:00.000Z</time>
      </trkpt>
      <trkpt lat="47.51122" lon="6.77785">
        <ele>365.1</ele>
        <time>2017-05-14T09:34:01.000Z</time>
      </trkpt>
      <trkpt lat="47.51125" lon="6.77786">
        <ele>365.1</ele>
        <time>2017-05-14T09:34:02.000Z</time>
      </trkpt>
      <trkpt lat="47.51127" lon="6.77786">
        <ele>365.1</ele>
        <time>2017-05-14T09:34:03.000Z</time>
      </trkpt>
      <trkpt lat="47.5113" lon="6.77786">
        <ele>365.1</ele>
        <time>2017-05-14T09:34:04.000Z</time>
      </trkpt>
      <trkpt lat="47.51133" lon="6.77786">
        <ele>365</ele>
        <time>2017-05-14T09:34:05.000Z</time>
      </trkpt>
      <trkpt lat="47.51137" lon="6.77785">
        <ele>365</ele>
        <time>2017-05-14T09:34:06.000Z</time>
      </trkpt>
      <trkpt lat="47.51141" lon="6.77784">
        <ele>365</ele>
        <time>2017-05-14T09:34:07.000Z</time>
      </trkpt>
      <trkpt lat="47.51144" lon="6.77784">
        <ele>365</ele>
        <time>2017-05-14T09:34:08.000Z</time>
      </trkpt>
      <trkpt lat="47.51147" lon="6.77784">
        <ele>365</ele>
        <time>2017-05-14T09:34:09.000Z</time>
      </trkpt>
      <trkpt lat="47.51151" lon="6.77784">
        <ele>365</ele>
        <time>2017-05-14T09:34:10.000Z</time>
      </trkpt>
      <trkpt lat="47.51156" lon="6.77784">
        <ele>365.1</ele>
        <time>2017-05-14T09:34:11.000Z</time>
      </trkpt>
      <trkpt lat="47.51161" lon="6.77785">
        <ele>365.1</ele>
        <time>2017-05-14T09:34:12.000Z</time>
      </trkpt>
      <trkpt lat="47.51164" lon="6.77785">
        <ele>365.1</ele>
        <time>2017-05-14T09:34:13.000Z</time>
      </trkpt>
      <trkpt lat="47.51169" lon="6.77784">
        <ele>365.2</ele>
        <time>2017-05-14T09:34:14.000Z</time>
      </trkpt>
      <trkpt lat="47.51171" lon="6.77784">
        <ele>365.2</ele>
        <time>2017-05-14T09:34:15.000Z</time>
      </trkpt>
      <trkpt lat="47.51175" lon="6.77784">
        <ele>365.1</ele>
        <time>2017-05-14T09:34:16.000Z</time>
      </trkpt>
      <trkpt lat="47.51178" lon="6.77784">
        <ele>365.2</ele>
        <time>2017-05-14T09:34:17.000Z</time>
      </trkpt>
      <trkpt lat="47.5118" lon="6.77784">
        <ele>365.2</ele>
        <time>2017-05-14T09:34:18.000Z</time>
      </trkpt>
      <trkpt lat="47.51182" lon="6.77785">
        <ele>365.3</ele>
        <time>2017-05-14T09:34:19.000Z</time>
      </trkpt>
      <trkpt lat="47.51186" lon="6.77785">
        <ele>365.4</ele>
        <time>2017-05-14T09:34:20.000Z</time>
      </trkpt>
      <trkpt lat="47.51189" lon="6.77785">
        <ele>365.6</ele>
        <time>2017-05-14T09:34:21.000Z</time>
      </trkpt>
      <trkpt lat="47.51192" lon="6.77785">
        <ele>365.8</ele>
        <time>2017-05-14T09:34:22.000Z</time>
      </trkpt>
      <trkpt lat="47.51195" lon="6.77785">
        <ele>365.9</ele>
        <time>2017-05-14T09:34:23.000Z</time>
      </trkpt>
      <trkpt lat="47.51198" lon="6.77785">
        <ele>366.1</ele>
        <time>2017-05-14T09:34:24.000Z</time>
      </trkpt>
      <trkpt lat="47.51201" lon="6.77785">
        <ele>366.3</ele>
        <time>2017-05-14T09:34:25.000Z</time>
      </trkpt>
      <trkpt lat="47.51204" lon="6.77785">
        <ele>366.4</ele>
        <time>2017-05-14T09:34:26.000Z</time>
      </trkpt>
      <trkpt lat="47.51208" lon="6.77784">
        <ele>366.6</ele>
        <time>2017-05-14T09:34:27.000Z</time>
      </trkpt>
      <trkpt lat="47.51211" lon="6.77784">
        <ele>366.9</ele>
        <time>2017-05-14T09:34:28.000Z</time>
      </trkpt>
      <trkpt lat="47.51215" lon="6.77783">
        <ele>367.1</ele>
        <time>2017-05-14T09:34:29.000Z</time>
      </trkpt>
      <trkpt lat="47.51218" lon="6.77783">
        <ele>367.2</ele>
        <time>2017-05-14T09:34:30.000Z</time>
      </trkpt>
      <trkpt lat="47.51221" lon="6.77783">
        <ele>367.4</ele>
        <time>2017-05-14T09:34:31.000Z</time>
      </trkpt>
      <trkpt lat="47.51225" lon="6.77783">
        <ele>367.7</ele>
        <time>2017-05-14T09:34:33.000Z</time>
      </trkpt>
      <trkpt lat="47.51227" lon="6.77783">
        <ele>367.9</ele>
        <time>2017-05-14T09:34:34.000Z</time>
      </trkpt>
      <trkpt lat="47.5123" lon="6.77782">
        <ele>368.2</ele>
        <time>2017-05-14T09:34:36.000Z</time>
      </trkpt>
      <trkpt lat="47.51232" lon="6.77782">
        <ele>368.2</ele>
        <time>2017-05-14T09:34:37.000Z</time>
      </trkpt>
      <trkpt lat="47.51235" lon="6.77782">
        <ele>368.1</ele>
        <time>2017-05-14T09:34:39.000Z</time>
      </trkpt>
      <trkpt lat="47.51237" lon="6.77782">
        <ele>368.2</ele>
        <time>2017-05-14T09:34:40.000Z</time>
      </trkpt>
      <trkpt lat="47.51239" lon="6.77782">
        <ele>368.4</ele>
        <time>2017-05-14T09:34:41.000Z</time>
      </trkpt>
      <trkpt lat="47.51242" lon="6.77783">
        <ele>368.6</ele>
        <time>2017-05-14T09:34:42.000Z</time>
      </trkpt>
      <trkpt lat="47.51245" lon="6.77783">
        <ele>368.9</ele>
        <time>2017-05-14T09:34:43.000Z</time>
      </trkpt>
      <trkpt lat="47.51247" lon="6.77783">
        <ele>369.2</ele>
        <time>2017-05-14T09:34:44.000Z</time>
      </trkpt>
      <trkpt lat="47.5125" lon="6.77784">
        <ele>369.5</ele>
        <time>2017-05-14T09:34:45.000Z</time>
      </trkpt>
      <trkpt lat="47.51252" lon="6.77783">
        <ele>369.8</ele>
        <time>2017-05-14T09:34:46.000Z</time>
      </trkpt>
      <trkpt lat="47.51254" lon="6.77783">
        <ele>370</ele>
        <time>2017-05-14T09:34:47.000Z</time>
      </trkpt>
      <trkpt lat="47.51257" lon="6.77782">
        <ele>370.2</ele>
        <time>2017-05-14T09:34:48.000Z</time>
      </trkpt>
      <trkpt lat="47.51261" lon="6.7778">
        <ele>370.6</ele>
        <time>2017-05-14T09:34:50.000Z</time>
      </trkpt>
      <trkpt lat="47.51262" lon="6.7778">
        <ele>370.7</ele>
        <time>2017-05-14T09:34:51.000Z</time>
      </trkpt>
      <trkpt lat="47.51264" lon="6.7778">
        <ele>370.9</ele>
        <time>2017-05-14T09:34:52.000Z</time>
      </trkpt>
      <trkpt lat="47.51267" lon="6.77781">
        <ele>371</ele>
        <time>2017-05-14T09:34:53.000Z</time>
      </trkpt>
      <trkpt lat="47.51271" lon="6.77781">
        <ele>371.3</ele>
        <time>2017-05-14T09:34:55.000Z</time>
      </trkpt>
      <trkpt lat="47.51273" lon="6.77781">
        <ele>371.4</ele>
        <time>2017-05-14T09:34:56.000Z</time>
      </trkpt>
      <trkpt lat="47.51277" lon="6.77779">
        <ele>371.6</ele>
        <time>2017-05-14T09:34:58.000Z</time>
      </trkpt>
      <trkpt lat="47.51278" lon="6.7778">
        <ele>371.6</ele>
        <time>2017-05-14T09:34:59.000Z</time>
      </trkpt>
      <trkpt lat="47.51281" lon="6.7778">
        <ele>371.9</ele>
        <time>2017-05-14T09:35:02.000Z</time>
      </trkpt>
      <trkpt lat="47.51284" lon="6.7778">
        <ele>372</ele>
        <time>2017-05-14T09:35:03.000Z</time>
      </trkpt>
      <trkpt lat="47.51289" lon="6.7778">
        <ele>372.1</ele>
        <time>2017-05-14T09:35:04.000Z</time>
      </trkpt>
      <trkpt lat="47.51292" lon="6.7778">
        <ele>372.2</ele>
        <time>2017-05-14T09:35:05.000Z</time>
      </trkpt>
      <trkpt lat="47.51295" lon="6.77779">
        <ele>372.4</ele>
        <time>2017-05-14T09:35:06.000Z</time>
      </trkpt>
      <trkpt lat="47.51298" lon="6.77778">
        <ele>372.5</ele>
        <time>2017-05-14T09:35:09.000Z</time>
      </trkpt>
      <trkpt lat="47.513" lon="6.77778">
        <ele>372.5</ele>
        <time>2017-05-14T09:35:10.000Z</time>
      </trkpt>
      <trkpt lat="47.51304" lon="6.77777">
        <ele>372.8</ele>
        <time>2017-05-14T09:35:12.000Z</time>
      </trkpt>
      <trkpt lat="47.51305" lon="6.77776">
        <ele>373</ele>
        <time>2017-05-14T09:35:13.000Z</time>
      </trkpt>
      <trkpt lat="47.51307" lon="6.77775">
        <ele>373.4</ele>
        <time>2017-05-14T09:35:15.000Z</time>
      </trkpt>
      <trkpt lat="47.5131" lon="6.77775">
        <ele>373.7</ele>
        <time>2017-05-14T09:35:16.000Z</time>
      </trkpt>
      <trkpt lat="47.51314" lon="6.77774">
        <ele>374</ele>
        <time>2017-05-14T09:35:18.000Z</time>
      </trkpt>
      <trkpt lat="47.51316" lon="6.77774">
        <ele>374.3</ele>
        <time>2017-05-14T09:35:19.000Z</time>
      </trkpt>
      <trkpt lat="47.51318" lon="6.77774">
        <ele>374.9</ele>
        <time>2017-05-14T09:35:21.000Z</time>
      </trkpt>
      <trkpt lat="47.5132" lon="6.77774">
        <ele>375.2</ele>
        <time>2017-05-14T09:35:22.000Z</time>
      </trkpt>
      <trkpt lat="47.51324" lon="6.77774">
        <ele>375.8</ele>
        <time>2017-05-14T09:35:24.000Z</time>
      </trkpt>
      <trkpt lat="47.51326" lon="6.77773">
        <ele>376.1</ele>
        <time>2017-05-14T09:35:25.000Z</time>
      </trkpt>
      <trkpt lat="47.5133" lon="6.77771">
        <ele>376.9</ele>
        <time>2017-05-14T09:35:27.000Z</time>
      </trkpt>
      <trkpt lat="47.5133" lon="6.77772">
        <ele>377.3</ele>
        <time>2017-05-14T09:35:28.000Z</time>
      </trkpt>
      <trkpt lat="47.51334" lon="6.77776">
        <ele>378.2</ele>
        <time>2017-05-14T09:35:30.000Z</time>
      </trkpt>
      <trkpt lat="47.51334" lon="6.77777">
        <ele>378.6</ele>
        <time>2017-05-14T09:35:31.000Z</time>
      </trkpt>
      <trkpt lat="47.51334" lon="6.77777">
        <ele>382.9</ele>
        <time>2017-05-14T09:35:42.000Z</time>
      </trkpt>
      <trkpt lat="47.51352" lon="6.77777">
        <ele>383.1</ele>
        <time>2017-05-14T09:35:43.000Z</time>
      </trkpt>
      <trkpt lat="47.51355" lon="6.77775">
        <ele>383.7</ele>
        <time>2017-05-14T09:35:45.000Z</time>
      </trkpt>
      <trkpt lat="47.51357" lon="6.77774">
        <ele>383.9</ele>
        <time>2017-05-14T09:35:46.000Z</time>
      </trkpt>
      <trkpt lat="47.51359" lon="6.77772">
        <ele>385.3</ele>
        <time>2017-05-14T09:35:51.000Z</time>
      </trkpt>
      <trkpt lat="47.51366" lon="6.77766">
        <ele>385.4</ele>
        <time>2017-05-14T09:35:52.000Z</time>
      </trkpt>
      <trkpt lat="47.51368" lon="6.77765">
        <ele>385.6</ele>
        <time>2017-05-14T09:35:53.000Z</time>
      </trkpt>
      <trkpt lat="47.5137" lon="6.77763">
        <ele>385.9</ele>
        <time>2017-05-14T09:35:54.000Z</time>
      </trkpt>
      <trkpt lat="47.51372" lon="6.77761">
        <ele>386.1</ele>
        <time>2017-05-14T09:35:55.000Z</time>
      </trkpt>
      <trkpt lat="47.51375" lon="6.7776">
        <ele>386.2</ele>
        <time>2017-05-14T09:35:56.000Z</time>
      </trkpt>
      <trkpt lat="47.51378" lon="6.77759">
        <ele>386.6</ele>
        <time>2017-05-14T09:35:58.000Z</time>
      </trkpt>
      <trkpt lat="47.51379" lon="6.77757">
        <ele>386.7</ele>
        <time>2017-05-14T09:35:59.000Z</time>
      </trkpt>
      <trkpt lat="47.51383" lon="6.77756">
        <ele>387</ele>
        <time>2017-05-14T09:36:01.000Z</time>
      </trkpt>
      <trkpt lat="47.51385" lon="6.77754">
        <ele>387.2</ele>
        <time>2017-05-14T09:36:02.000Z</time>
      </trkpt>
      <trkpt lat="47.51388" lon="6.77752">
        <ele>387.6</ele>
        <time>2017-05-14T09:36:04.000Z</time>
      </trkpt>
      <trkpt lat="47.51389" lon="6.77751">
        <ele>387.8</ele>
        <time>2017-05-14T09:36:05.000Z</time>
      </trkpt>
      <trkpt lat="47.51392" lon="6.77749">
        <ele>388.3</ele>
        <time>2017-05-14T09:36:07.000Z</time>
      </trkpt>
      <trkpt lat="47.51394" lon="6.77748">
        <ele>388.6</ele>
        <time>2017-05-14T09:36:08.000Z</time>
      </trkpt>
      <trkpt lat="47.51397" lon="6.77745">
        <ele>388.9</ele>
        <time>2017-05-14T09:36:10.000Z</time>
      </trkpt>
      <trkpt lat="47.51399" lon="6.77745">
        <ele>389.1</ele>
        <time>2017-05-14T09:36:11.000Z</time>
      </trkpt>
      <trkpt lat="47.51401" lon="6.77744">
        <ele>389.3</ele>
        <time>2017-05-14T09:36:12.000Z</time>
      </trkpt>
      <trkpt lat="47.51403" lon="6.77743">
        <ele>389.3</ele>
        <time>2017-05-14T09:36:13.000Z</time>
      </trkpt>
      <trkpt lat="47.51406" lon="6.77742">
        <ele>389.3</ele>
        <time>2017-05-14T09:36:14.000Z</time>
      </trkpt>
      <trkpt lat="47.51408" lon="6.77741">
        <ele>389.3</ele>
        <time>2017-05-14T09:36:15.000Z</time>
      </trkpt>
      <trkpt lat="47.51411" lon="6.77739">
        <ele>389.3</ele>
        <time>2017-05-14T09:36:17.000Z</time>
      </trkpt>
      <trkpt lat="47.51412" lon="6.77739">
        <ele>389.3</ele>
        <time>2017-05-14T09:36:18.000Z</time>
      </trkpt>
      <trkpt lat="47.51413" lon="6.77739">
        <ele>390.8</ele>
        <time>2017-05-14T09:36:32.000Z</time>
      </trkpt>
      <trkpt lat="47.51427" lon="6.77728">
        <ele>391</ele>
        <time>2017-05-14T09:36:33.000Z</time>
      </trkpt>
      <trkpt lat="47.5143" lon="6.77727">
        <ele>391.2</ele>
        <time>2017-05-14T09:36:34.000Z</time>
      </trkpt>
      <trkpt lat="47.51434" lon="6.77727">
        <ele>391.5</ele>
        <time>2017-05-14T09:36:35.000Z</time>
      </trkpt>
      <trkpt lat="47.51438" lon="6.77727">
        <ele>391.7</ele>
        <time>2017-05-14T09:36:36.000Z</time>
      </trkpt>
      <trkpt lat="47.51442" lon="6.77727">
        <ele>392</ele>
        <time>2017-05-14T09:36:37.000Z</time>
      </trkpt>
      <trkpt lat="47.51446" lon="6.77727">
        <ele>393.1</ele>
        <time>2017-05-14T09:36:44.000Z</time>
      </trkpt>
      <trkpt lat="47.51455" lon="6.77726">
        <ele>393.2</ele>
        <time>2017-05-14T09:36:45.000Z</time>
      </trkpt>
      <trkpt lat="47.51455" lon="6.77726">
        <ele>394.2</ele>
        <time>2017-05-14T09:36:50.000Z</time>
      </trkpt>
      <trkpt lat="47.51465" lon="6.77722">
        <ele>394.4</ele>
        <time>2017-05-14T09:36:51.000Z</time>
      </trkpt>
      <trkpt lat="47.51465" lon="6.77722">
        <ele>395.2</ele>
        <time>2017-05-14T09:36:54.000Z</time>
      </trkpt>
      <trkpt lat="47.51472" lon="6.77724">
        <ele>395.5</ele>
        <time>2017-05-14T09:36:55.000Z</time>
      </trkpt>
      <trkpt lat="47.51476" lon="6.77725">
        <ele>396.4</ele>
        <time>2017-05-14T09:36:57.000Z</time>
      </trkpt>
      <trkpt lat="47.51478" lon="6.77725">
        <ele>396.9</ele>
        <time>2017-05-14T09:36:58.000Z</time>
      </trkpt>
      <trkpt lat="47.51481" lon="6.77725">
        <ele>397.7</ele>
        <time>2017-05-14T09:37:00.000Z</time>
      </trkpt>
      <trkpt lat="47.51483" lon="6.77726">
        <ele>398.1</ele>
        <time>2017-05-14T09:37:01.000Z</time>
      </trkpt>
      <trkpt lat="47.51485" lon="6.77726">
        <ele>399.4</ele>
        <time>2017-05-14T09:37:05.000Z</time>
      </trkpt>
      <trkpt lat="47.51493" lon="6.77724">
        <ele>399.8</ele>
        <time>2017-05-14T09:37:06.000Z</time>
      </trkpt>
      <trkpt lat="47.51496" lon="6.77724">
        <ele>404.4</ele>
        <time>2017-05-14T09:37:19.000Z</time>
      </trkpt>
      <trkpt lat="47.51514" lon="6.77722">
        <ele>404.8</ele>
        <time>2017-05-14T09:37:20.000Z</time>
      </trkpt>
      <trkpt lat="47.51516" lon="6.77722">
        <ele>405.2</ele>
        <time>2017-05-14T09:37:21.000Z</time>
      </trkpt>
      <trkpt lat="47.51518" lon="6.77723">
        <ele>405.6</ele>
        <time>2017-05-14T09:37:22.000Z</time>
      </trkpt>
      <trkpt lat="47.51523" lon="6.77726">
        <ele>406.1</ele>
        <time>2017-05-14T09:37:23.000Z</time>
      </trkpt>
      <trkpt lat="47.51526" lon="6.77724">
        <ele>408.4</ele>
        <time>2017-05-14T09:37:29.000Z</time>
      </trkpt>
      <trkpt lat="47.51527" lon="6.77724">
        <ele>408.6</ele>
        <time>2017-05-14T09:37:30.000Z</time>
      </trkpt>
      <trkpt lat="47.5153" lon="6.77724">
        <ele>409.6</ele>
        <time>2017-05-14T09:37:36.000Z</time>
      </trkpt>
      <trkpt lat="47.51532" lon="6.77724">
        <ele>409.9</ele>
        <time>2017-05-14T09:37:37.000Z</time>
      </trkpt>
      <trkpt lat="47.51535" lon="6.77725">
        <ele>410.5</ele>
        <time>2017-05-14T09:37:39.000Z</time>
      </trkpt>
      <trkpt lat="47.51537" lon="6.77725">
        <ele>410.8</ele>
        <time>2017-05-14T09:37:40.000Z</time>
      </trkpt>
      <trkpt lat="47.51541" lon="6.77726">
        <ele>411.2</ele>
        <time>2017-05-14T09:37:42.000Z</time>
      </trkpt>
      <trkpt lat="47.51542" lon="6.77727">
        <ele>411.4</ele>
        <time>2017-05-14T09:37:43.000Z</time>
      </trkpt>
      <trkpt lat="47.51546" lon="6.77729">
        <ele>411.5</ele>
        <time>2017-05-14T09:37:44.000Z</time>
      </trkpt>
      <trkpt lat="47.5155" lon="6.77729">
        <ele>411.6</ele>
        <time>2017-05-14T09:37:45.000Z</time>
      </trkpt>
      <trkpt lat="47.51553" lon="6.7773">
        <ele>411.6</ele>
        <time>2017-05-14T09:37:46.000Z</time>
      </trkpt>
      <trkpt lat="47.51555" lon="6.7773">
        <ele>411.6</ele>
        <time>2017-05-14T09:37:47.000Z</time>
      </trkpt>
      <trkpt lat="47.51559" lon="6.77728">
        <ele>411.7</ele>
        <time>2017-05-14T09:37:49.000Z</time>
      </trkpt>
      <trkpt lat="47.5156" lon="6.77728">
        <ele>411.8</ele>
        <time>2017-05-14T09:37:50.000Z</time>
      </trkpt>
      <trkpt lat="47.51564" lon="6.77727">
        <ele>412.1</ele>
        <time>2017-05-14T09:37:52.000Z</time>
      </trkpt>
      <trkpt lat="47.51565" lon="6.77727">
        <ele>412.2</ele>
        <time>2017-05-14T09:37:53.000Z</time>
      </trkpt>
      <trkpt lat="47.51566" lon="6.77727">
        <ele>412.6</ele>
        <time>2017-05-14T09:37:55.000Z</time>
      </trkpt>
      <trkpt lat="47.5157" lon="6.77726">
        <ele>413.1</ele>
        <time>2017-05-14T09:37:57.000Z</time>
      </trkpt>
      <trkpt lat="47.51574" lon="6.77727">
        <ele>413.9</ele>
        <time>2017-05-14T09:38:00.000Z</time>
      </trkpt>
      <trkpt lat="47.51575" lon="6.77727">
        <ele>414.1</ele>
        <time>2017-05-14T09:38:01.000Z</time>
      </trkpt>
      <trkpt lat="47.51579" lon="6.77729">
        <ele>415.2</ele>
        <time>2017-05-14T09:38:06.000Z</time>
      </trkpt>
      <trkpt lat="47.5158" lon="6.77729">
        <ele>415.5</ele>
        <time>2017-05-14T09:38:07.000Z</time>
      </trkpt>
      <trkpt lat="47.51583" lon="6.77728">
        <ele>416.1</ele>
        <time>2017-05-14T09:38:10.000Z</time>
      </trkpt>
      <trkpt lat="47.51587" lon="6.77727">
        <ele>416.2</ele>
        <time>2017-05-14T09:38:11.000Z</time>
      </trkpt>
      <trkpt lat="47.5159" lon="6.77728">
        <ele>416.3</ele>
        <time>2017-05-14T09:38:12.000Z</time>
      </trkpt>
      <trkpt lat="47.51594" lon="6.77729">
        <ele>416.3</ele>
        <time>2017-05-14T09:38:13.000Z</time>
      </trkpt>
      <trkpt lat="47.51596" lon="6.77731">
        <ele>416.4</ele>
        <time>2017-05-14T09:38:14.000Z</time>
      </trkpt>
      <trkpt lat="47.51598" lon="6.77732">
        <ele>416.5</ele>
        <time>2017-05-14T09:38:15.000Z</time>
      </trkpt>
      <trkpt lat="47.51601" lon="6.77735">
        <ele>416.4</ele>
        <time>2017-05-14T09:38:17.000Z</time>
      </trkpt>
      <trkpt lat="47.51602" lon="6.77736">
        <ele>416.3</ele>
        <time>2017-05-14T09:38:18.000Z</time>
      </trkpt>
      <trkpt lat="47.51606" lon="6.77739">
        <ele>415.8</ele>
        <time>2017-05-14T09:38:21.000Z</time>
      </trkpt>
      <trkpt lat="47.51607" lon="6.77739">
        <ele>415.6</ele>
        <time>2017-05-14T09:38:22.000Z</time>
      </trkpt>
      <trkpt lat="47.51611" lon="6.77741">
        <ele>415</ele>
        <time>2017-05-14T09:38:25.000Z</time>
      </trkpt>
      <trkpt lat="47.51613" lon="6.77742">
        <ele>414.7</ele>
        <time>2017-05-14T09:38:26.000Z</time>
      </trkpt>
      <trkpt lat="47.51616" lon="6.77741">
        <ele>414.1</ele>
        <time>2017-05-14T09:38:29.000Z</time>
      </trkpt>
      <trkpt lat="47.51617" lon="6.77741">
        <ele>413.9</ele>
        <time>2017-05-14T09:38:30.000Z</time>
      </trkpt>
      <trkpt lat="47.5162" lon="6.77741">
        <ele>413.7</ele>
        <time>2017-05-14T09:38:31.000Z</time>
      </trkpt>
      <trkpt lat="47.51622" lon="6.77741">
        <ele>413.5</ele>
        <time>2017-05-14T09:38:32.000Z</time>
      </trkpt>
      <trkpt lat="47.51626" lon="6.7774">
        <ele>412.5</ele>
        <time>2017-05-14T09:38:36.000Z</time>
      </trkpt>
      <trkpt lat="47.51627" lon="6.7774">
        <ele>412.4</ele>
        <time>2017-05-14T09:38:37.000Z</time>
      </trkpt>
      <trkpt lat="47.51631" lon="6.77741">
        <ele>411.6</ele>
        <time>2017-05-14T09:38:42.000Z</time>
      </trkpt>
      <trkpt lat="47.51632" lon="6.77742">
        <ele>411.5</ele>
        <time>2017-05-14T09:38:43.000Z</time>
      </trkpt>
      <trkpt lat="47.51636" lon="6.77743">
        <ele>411.1</ele>
        <time>2017-05-14T09:38:47.000Z</time>
      </trkpt>
      <trkpt lat="47.51638" lon="6.77743">
        <ele>411</ele>
        <time>2017-05-14T09:38:48.000Z</time>
      </trkpt>
      <trkpt lat="47.51641" lon="6.77743">
        <ele>410.9</ele>
        <time>2017-05-14T09:38:50.000Z</time>
      </trkpt>
      <trkpt lat="47.51643" lon="6.77743">
        <ele>410.8</ele>
        <time>2017-05-14T09:38:51.000Z</time>
      </trkpt>
      <trkpt lat="47.51646" lon="6.77744">
        <ele>410.6</ele>
        <time>2017-05-14T09:38:53.000Z</time>
      </trkpt>
      <trkpt lat="47.51648" lon="6.77745">
        <ele>410.5</ele>
        <time>2017-05-14T09:38:54.000Z</time>
      </trkpt>
      <trkpt lat="47.51652" lon="6.77745">
        <ele>410.8</ele>
        <time>2017-05-14T09:38:58.000Z</time>
      </trkpt>
      <trkpt lat="47.51653" lon="6.77745">
        <ele>410.8</ele>
        <time>2017-05-14T09:38:59.000Z</time>
      </trkpt>
      <trkpt lat="47.51655" lon="6.77745">
        <ele>411</ele>
        <time>2017-05-14T09:39:01.000Z</time>
      </trkpt>
      <trkpt lat="47.5166" lon="6.77744">
        <ele>411</ele>
        <time>2017-05-14T09:39:02.000Z</time>
      </trkpt>
      <trkpt lat="47.51662" lon="6.77744">
        <ele>411.1</ele>
        <time>2017-05-14T09:39:03.000Z</time>
      </trkpt>
      <trkpt lat="47.51665" lon="6.77744">
        <ele>411.1</ele>
        <time>2017-05-14T09:39:04.000Z</time>
      </trkpt>
      <trkpt lat="47.51668" lon="6.77744">
        <ele>411.2</ele>
        <time>2017-05-14T09:39:05.000Z</time>
      </trkpt>
      <trkpt lat="47.51671" lon="6.77744">
        <ele>411.2</ele>
        <time>2017-05-14T09:39:06.000Z</time>
      </trkpt>
      <trkpt lat="47.51675" lon="6.77744">
        <ele>411.3</ele>
        <time>2017-05-14T09:39:07.000Z</time>
      </trkpt>
      <trkpt lat="47.51677" lon="6.77743">
        <ele>411.5</ele>
        <time>2017-05-14T09:39:08.000Z</time>
      </trkpt>
      <trkpt lat="47.51681" lon="6.77743">
        <ele>411.8</ele>
        <time>2017-05-14T09:39:10.000Z</time>
      </trkpt>
      <trkpt lat="47.51683" lon="6.77743">
        <ele>412</ele>
        <time>2017-05-14T09:39:11.000Z</time>
      </trkpt>
      <trkpt lat="47.51686" lon="6.77742">
        <ele>412.4</ele>
        <time>2017-05-14T09:39:13.000Z</time>
      </trkpt>
      <trkpt lat="47.51688" lon="6.7774">
        <ele>412.4</ele>
        <time>2017-05-14T09:39:14.000Z</time>
      </trkpt>
      <trkpt lat="47.51689" lon="6.77738">
        <ele>412.5</ele>
        <time>2017-05-14T09:39:16.000Z</time>
      </trkpt>
      <trkpt lat="47.5169" lon="6.77734">
        <ele>412.5</ele>
        <time>2017-05-14T09:39:17.000Z</time>
      </trkpt>
      <trkpt lat="47.51693" lon="6.7773">
        <ele>412.5</ele>
        <time>2017-05-14T09:39:19.000Z</time>
      </trkpt>
      <trkpt lat="47.51694" lon="6.77727">
        <ele>412.6</ele>
        <time>2017-05-14T09:39:20.000Z</time>
      </trkpt>
      <trkpt lat="47.51695" lon="6.77724">
        <ele>412.8</ele>
        <time>2017-05-14T09:39:21.000Z</time>
      </trkpt>
      <trkpt lat="47.51697" lon="6.7772">
        <ele>413.1</ele>
        <time>2017-05-14T09:39:22.000Z</time>
      </trkpt>
      <trkpt lat="47.51699" lon="6.77716">
        <ele>414.3</ele>
        <time>2017-05-14T09:39:25.000Z</time>
      </trkpt>
      <trkpt lat="47.51701" lon="6.77715">
        <ele>414.7</ele>
        <time>2017-05-14T09:39:26.000Z</time>
      </trkpt>
      <trkpt lat="47.51704" lon="6.77711">
        <ele>415.4</ele>
        <time>2017-05-14T09:39:28.000Z</time>
      </trkpt>
      <trkpt lat="47.51706" lon="6.77711">
        <ele>415.8</ele>
        <time>2017-05-14T09:39:29.000Z</time>
      </trkpt>
      <trkpt lat="47.51708" lon="6.77706">
        <ele>416.5</ele>
        <time>2017-05-14T09:39:31.000Z</time>
      </trkpt>
      <trkpt lat="47.51708" lon="6.77703">
        <ele>416.9</ele>
        <time>2017-05-14T09:39:32.000Z</time>
      </trkpt>
      <trkpt lat="47.51709" lon="6.777">
        <ele>417.3</ele>
        <time>2017-05-14T09:39:33.000Z</time>
      </trkpt>
      <trkpt lat="47.5171" lon="6.77696">
        <ele>417.6</ele>
        <time>2017-05-14T09:39:34.000Z</time>
      </trkpt>
      <trkpt lat="47.51709" lon="6.77691">
        <ele>418.3</ele>
        <time>2017-05-14T09:39:36.000Z</time>
      </trkpt>
      <trkpt lat="47.51709" lon="6.77688">
        <ele>418.8</ele>
        <time>2017-05-14T09:39:37.000Z</time>
      </trkpt>
      <trkpt lat="47.51709" lon="6.77684">
        <ele>419.1</ele>
        <time>2017-05-14T09:39:38.000Z</time>
      </trkpt>
      <trkpt lat="47.51709" lon="6.77681">
        <ele>419.5</ele>
        <time>2017-05-14T09:39:39.000Z</time>
      </trkpt>
      <trkpt lat="47.51709" lon="6.77674">
        <ele>420.3</ele>
        <time>2017-05-14T09:39:41.000Z</time>
      </trkpt>
      <trkpt lat="47.51709" lon="6.77671">
        <ele>420.6</ele>
        <time>2017-05-14T09:39:42.000Z</time>
      </trkpt>
      <trkpt lat="47.5171" lon="6.77667">
        <ele>420.9</ele>
        <time>2017-05-14T09:39:43.000Z</time>
      </trkpt>
      <trkpt lat="47.51711" lon="6.77664">
        <ele>421.3</ele>
        <time>2017-05-14T09:39:44.000Z</time>
      </trkpt>
      <trkpt lat="47.51711" lon="6.7766">
        <ele>421.7</ele>
        <time>2017-05-14T09:39:45.000Z</time>
      </trkpt>
      <trkpt lat="47.51711" lon="6.77656">
        <ele>422.1</ele>
        <time>2017-05-14T09:39:46.000Z</time>
      </trkpt>
      <trkpt lat="47.51711" lon="6.77653">
        <ele>422.4</ele>
        <time>2017-05-14T09:39:47.000Z</time>
      </trkpt>
      <trkpt lat="47.51711" lon="6.77649">
        <ele>422.7</ele>
        <time>2017-05-14T09:39:48.000Z</time>
      </trkpt>
      <trkpt lat="47.51711" lon="6.77646">
        <ele>423.1</ele>
        <time>2017-05-14T09:39:49.000Z</time>
      </trkpt>
      <trkpt lat="47.51711" lon="6.77642">
        <ele>423.4</ele>
        <time>2017-05-14T09:39:50.000Z</time>
      </trkpt>
      <trkpt lat="47.51711" lon="6.77638">
        <ele>423.8</ele>
        <time>2017-05-14T09:39:51.000Z</time>
      </trkpt>
      <trkpt lat="47.51711" lon="6.77635">
        <ele>424.2</ele>
        <time>2017-05-14T09:39:52.000Z</time>
      </trkpt>
      <trkpt lat="47.51711" lon="6.77631">
        <ele>424.6</ele>
        <time>2017-05-14T09:39:53.000Z</time>
      </trkpt>
      <trkpt lat="47.51712" lon="6.77628">
        <ele>425</ele>
        <time>2017-05-14T09:39:54.000Z</time>
      </trkpt>
      <trkpt lat="47.51712" lon="6.77624">
        <ele>425.4</ele>
        <time>2017-05-14T09:39:55.000Z</time>
      </trkpt>
      <trkpt lat="47.51712" lon="6.77621">
        <ele>425.7</ele>
        <time>2017-05-14T09:39:56.000Z</time>
      </trkpt>
      <trkpt lat="47.51712" lon="6.77615">
        <ele>426.4</ele>
        <time>2017-05-14T09:39:58.000Z</time>
      </trkpt>
      <trkpt lat="47.51712" lon="6.77612">
        <ele>426.8</ele>
        <time>2017-05-14T09:39:59.000Z</time>
      </trkpt>
      <trkpt lat="47.51711" lon="6.77606">
        <ele>427.5</ele>
        <time>2017-05-14T09:40:01.000Z</time>
      </trkpt>
      <trkpt lat="47.51711" lon="6.77604">
        <ele>427.8</ele>
        <time>2017-05-14T09:40:02.000Z</time>
      </trkpt>
      <trkpt lat="47.51711" lon="6.77598">
        <ele>428.3</ele>
        <time>2017-05-14T09:40:04.000Z</time>
      </trkpt>
      <trkpt lat="47.51712" lon="6.77595">
        <ele>428.6</ele>
        <time>2017-05-14T09:40:05.000Z</time>
      </trkpt>
      <trkpt lat="47.51713" lon="6.7759">
        <ele>428.9</ele>
        <time>2017-05-14T09:40:06.000Z</time>
      </trkpt>
      <trkpt lat="47.51714" lon="6.77587">
        <ele>429.3</ele>
        <time>2017-05-14T09:40:07.000Z</time>
      </trkpt>
      <trkpt lat="47.51717" lon="6.77585">
        <ele>429.9</ele>
        <time>2017-05-14T09:40:09.000Z</time>
      </trkpt>
      <trkpt lat="47.51719" lon="6.77583">
        <ele>430.2</ele>
        <time>2017-05-14T09:40:10.000Z</time>
      </trkpt>
      <trkpt lat="47.51722" lon="6.7758">
        <ele>430.8</ele>
        <time>2017-05-14T09:40:12.000Z</time>
      </trkpt>
      <trkpt lat="47.51722" lon="6.77576">
        <ele>431.1</ele>
        <time>2017-05-14T09:40:13.000Z</time>
      </trkpt>
      <trkpt lat="47.51721" lon="6.77572">
        <ele>431.4</ele>
        <time>2017-05-14T09:40:14.000Z</time>
      </trkpt>
      <trkpt lat="47.51719" lon="6.77568">
        <ele>431.7</ele>
        <time>2017-05-14T09:40:15.000Z</time>
      </trkpt>
      <trkpt lat="47.51719" lon="6.77565">
        <ele>431.9</ele>
        <time>2017-05-14T09:40:16.000Z</time>
      </trkpt>
      <trkpt lat="47.51718" lon="6.77561">
        <ele>432.2</ele>
        <time>2017-05-14T09:40:17.000Z</time>
      </trkpt>
      <trkpt lat="47.51719" lon="6.77557">
        <ele>432.4</ele>
        <time>2017-05-14T09:40:18.000Z</time>
      </trkpt>
      <trkpt lat="47.5172" lon="6.77552">
        <ele>432.6</ele>
        <time>2017-05-14T09:40:19.000Z</time>
      </trkpt>
      <trkpt lat="47.51722" lon="6.77546">
        <ele>432.8</ele>
        <time>2017-05-14T09:40:20.000Z</time>
      </trkpt>
      <trkpt lat="47.51723" lon="6.77539">
        <ele>434.4</ele>
        <time>2017-05-14T09:40:21.000Z</time>
      </trkpt>
      <trkpt lat="47.51724" lon="6.77533">
        <ele>435.5</ele>
        <time>2017-05-14T09:40:22.000Z</time>
      </trkpt>
      <trkpt lat="47.51725" lon="6.77527">
        <ele>436.9</ele>
        <time>2017-05-14T09:40:23.000Z</time>
      </trkpt>
      <trkpt lat="47.51725" lon="6.77522">
        <ele>437</ele>
        <time>2017-05-14T09:40:24.000Z</time>
      </trkpt>
      <trkpt lat="47.51726" lon="6.77515">
        <ele>437.1</ele>
        <time>2017-05-14T09:40:25.000Z</time>
      </trkpt>
      <trkpt lat="47.51727" lon="6.77509">
        <ele>437.2</ele>
        <time>2017-05-14T09:40:26.000Z</time>
      </trkpt>
      <trkpt lat="47.51728" lon="6.77504">
        <ele>437.3</ele>
        <time>2017-05-14T09:40:27.000Z</time>
      </trkpt>
      <trkpt lat="47.51729" lon="6.77499">
        <ele>437.4</ele>
        <time>2017-05-14T09:40:28.000Z</time>
      </trkpt>
      <trkpt lat="47.5173" lon="6.77492">
        <ele>437.3</ele>
        <time>2017-05-14T09:40:29.000Z</time>
      </trkpt>
      <trkpt lat="47.51731" lon="6.77487">
        <ele>437.3</ele>
        <time>2017-05-14T09:40:30.000Z</time>
      </trkpt>
      <trkpt lat="47.51732" lon="6.77483">
        <ele>437.4</ele>
        <time>2017-05-14T09:40:31.000Z</time>
      </trkpt>
      <trkpt lat="47.51734" lon="6.77481">
        <ele>437.5</ele>
        <time>2017-05-14T09:40:32.000Z</time>
      </trkpt>
      <trkpt lat="47.51736" lon="6.7748">
        <ele>437.5</ele>
        <time>2017-05-14T09:40:33.000Z</time>
      </trkpt>
      <trkpt lat="47.51738" lon="6.77481">
        <ele>437.5</ele>
        <time>2017-05-14T09:40:34.000Z</time>
      </trkpt>
      <trkpt lat="47.51742" lon="6.77482">
        <ele>437.6</ele>
        <time>2017-05-14T09:40:35.000Z</time>
      </trkpt>
      <trkpt lat="47.51745" lon="6.77483">
        <ele>437.6</ele>
        <time>2017-05-14T09:40:36.000Z</time>
      </trkpt>
      <trkpt lat="47.51748" lon="6.77483">
        <ele>437.7</ele>
        <time>2017-05-14T09:40:37.000Z</time>
      </trkpt>
      <trkpt lat="47.51752" lon="6.77484">
        <ele>437.7</ele>
        <time>2017-05-14T09:40:38.000Z</time>
      </trkpt>
      <trkpt lat="47.51755" lon="6.77484">
        <ele>437.7</ele>
        <time>2017-05-14T09:40:39.000Z</time>
      </trkpt>
      <trkpt lat="47.51758" lon="6.77485">
        <ele>437.7</ele>
        <time>2017-05-14T09:40:40.000Z</time>
      </trkpt>
      <trkpt lat="47.51761" lon="6.77485">
        <ele>437.8</ele>
        <time>2017-05-14T09:40:41.000Z</time>
      </trkpt>
      <trkpt lat="47.51765" lon="6.77485">
        <ele>437.9</ele>
        <time>2017-05-14T09:40:42.000Z</time>
      </trkpt>
      <trkpt lat="47.51768" lon="6.77486">
        <ele>438.1</ele>
        <time>2017-05-14T09:40:43.000Z</time>
      </trkpt>
      <trkpt lat="47.51772" lon="6.77486">
        <ele>438.3</ele>
        <time>2017-05-14T09:40:44.000Z</time>
      </trkpt>
      <trkpt lat="47.51775" lon="6.77487">
        <ele>439.4</ele>
        <time>2017-05-14T09:40:45.000Z</time>
      </trkpt>
      <trkpt lat="47.51778" lon="6.77489">
        <ele>439.4</ele>
        <time>2017-05-14T09:40:46.000Z</time>
      </trkpt>
      <trkpt lat="47.51781" lon="6.7749">
        <ele>439.5</ele>
        <time>2017-05-14T09:40:47.000Z</time>
      </trkpt>
      <trkpt lat="47.51784" lon="6.77491">
        <ele>439.5</ele>
        <time>2017-05-14T09:40:48.000Z</time>
      </trkpt>
      <trkpt lat="47.51787" lon="6.77494">
        <ele>439.5</ele>
        <time>2017-05-14T09:40:49.000Z</time>
      </trkpt>
      <trkpt lat="47.51789" lon="6.77495">
        <ele>439.6</ele>
        <time>2017-05-14T09:40:50.000Z</time>
      </trkpt>
      <trkpt lat="47.51791" lon="6.77497">
        <ele>439.7</ele>
        <time>2017-05-14T09:40:51.000Z</time>
      </trkpt>
      <trkpt lat="47.51794" lon="6.77498">
        <ele>439.8</ele>
        <time>2017-05-14T09:40:52.000Z</time>
      </trkpt>
      <trkpt lat="47.51796" lon="6.77499">
        <ele>439.9</ele>
        <time>2017-05-14T09:40:53.000Z</time>
      </trkpt>
      <trkpt lat="47.518" lon="6.775">
        <ele>439.8</ele>
        <time>2017-05-14T09:40:55.000Z</time>
      </trkpt>
      <trkpt lat="47.51804" lon="6.77491">
        <ele>438.6</ele>
        <time>2017-05-14T09:40:57.000Z</time>
      </trkpt>
      <trkpt lat="47.51805" lon="6.77484">
        <ele>438.1</ele>
        <time>2017-05-14T09:40:58.000Z</time>
      </trkpt>
      <trkpt lat="47.51806" lon="6.77475">
        <ele>438.1</ele>
        <time>2017-05-14T09:40:59.000Z</time>
      </trkpt>
      <trkpt lat="47.51804" lon="6.77469">
        <ele>438</ele>
        <time>2017-05-14T09:41:00.000Z</time>
      </trkpt>
      <trkpt lat="47.51804" lon="6.77467">
        <ele>438</ele>
        <time>2017-05-14T09:41:01.000Z</time>
      </trkpt>
      <trkpt lat="47.51805" lon="6.77472">
        <ele>439.8</ele>
        <time>2017-05-14T09:41:36.000Z</time>
      </trkpt>
      <trkpt lat="47.51805" lon="6.77474">
        <ele>439.8</ele>
        <time>2017-05-14T09:41:37.000Z</time>
      </trkpt>
      <trkpt lat="47.51806" lon="6.77479">
        <ele>440</ele>
        <time>2017-05-14T09:41:42.000Z</time>
      </trkpt>
      <trkpt lat="47.51806" lon="6.7748">
        <ele>439.9</ele>
        <time>2017-05-14T09:41:43.000Z</time>
      </trkpt>
      <trkpt lat="47.51802" lon="6.77477">
        <ele>441</ele>
        <time>2017-05-14T09:42:17.000Z</time>
      </trkpt>
      <trkpt lat="47.51802" lon="6.77477">
        <ele>441.1</ele>
        <time>2017-05-14T09:42:18.000Z</time>
      </trkpt>
      <trkpt lat="47.51804" lon="6.77471">
        <ele>439.8</ele>
        <time>2017-05-14T09:42:49.000Z</time>
      </trkpt>
      <trkpt lat="47.51804" lon="6.7747">
        <ele>439.9</ele>
        <time>2017-05-14T09:42:50.000Z</time>
      </trkpt>
      <trkpt lat="47.51806" lon="6.77469">
        <ele>439.9</ele>
        <time>2017-05-14T09:42:56.000Z</time>
      </trkpt>
    </trkseg>
  </trk>
</gpx>